<?xml version="1.0" encoding="UTF-8" standalone="no" ?>
<gpx xmlns="http://www.topografix.com/GPX/1/1" xmlns:xsi="http://www.w3.org/2001/XMLSchema-instance" xsi:schemaLocation="http://www.topografix.com/GPX/1/1 http://www.topografix.com/GPX/1/1/gpx.xsd" version="1.1" creator="VisuGPX - https://www.visugpx.com">
  <metadata>
    <name>2017-03-29 Bike ride-Amberieux to Trevoux then Ain Route No 20</name>
    <desc><![CDATA[2017-03-29 Bike ride-Amberieux to Trevoux then Ain Route No 20]]></desc>
  </metadata>
  <wpt lat="45.92469" lon="4.73706">
    <ele>174</ele>
    <name><![CDATA[2017-03-29 10:09 (Start)]]></name>
  </wpt>
  <wpt lat="45.92458" lon="4.73716">
    <ele>174</ele>
    <name><![CDATA[2017-03-29 10:09 (End)]]></name>
    <desc><![CDATA[Created by Google My Tracks on Android  Name: 2017-03-29 10:09 Activity type: biking Description: - Total distance: 60.01 km (37.3 mi) Total time: 3:13:56 Moving time: 3:09:26 Average speed: 18.57 km/h (11.5 mi/h) Average moving speed: 19.01 km/h (11.8 mi/h) Max speed: 48.64 km/h (30.2 mi/h) Average pace: 3:14 min/km (5:12 min/mi) Average moving pace: 3:09 min/km (5:05 min/mi) Fastest pace: 1:14 min/km (1:59 min/mi) Max elevation: 280 m (920 ft) Min elevation: 168 m (552 ft) Elevation gain: 855 m (2804 ft) Max grade: 27 % Min grade: -14 % Recorded: 29/03/2017 10:09]]></desc>
  </wpt>
  <trk>
    <name><![CDATA[2017-03-29 10:09]]></name>
    <trkseg>
      <trkpt lat="45.92469" lon="4.73706">
        <ele>174</ele>
        <time>2017-03-29T08:09:22.572Z</time>
      </trkpt>
      <trkpt lat="45.92469" lon="4.73705">
        <ele>174</ele>
        <time>2017-03-29T08:09:39Z</time>
      </trkpt>
      <trkpt lat="45.92468" lon="4.73706">
        <ele>174</ele>
        <time>2017-03-29T08:09:41Z</time>
      </trkpt>
      <trkpt lat="45.92466" lon="4.7371">
        <ele>174</ele>
        <time>2017-03-29T08:10:20Z</time>
      </trkpt>
      <trkpt lat="45.92471" lon="4.7371">
        <ele>174</ele>
        <time>2017-03-29T08:10:21Z</time>
      </trkpt>
      <trkpt lat="45.92473" lon="4.73699">
        <ele>174</ele>
        <time>2017-03-29T08:10:26Z</time>
      </trkpt>
      <trkpt lat="45.92474" lon="4.73696">
        <ele>174</ele>
        <time>2017-03-29T08:10:27Z</time>
      </trkpt>
      <trkpt lat="45.92475" lon="4.73684">
        <ele>174</ele>
        <time>2017-03-29T08:10:33Z</time>
      </trkpt>
      <trkpt lat="45.92476" lon="4.73682">
        <ele>174</ele>
        <time>2017-03-29T08:10:34Z</time>
      </trkpt>
      <trkpt lat="45.92477" lon="4.73669">
        <ele>175</ele>
        <time>2017-03-29T08:10:38Z</time>
      </trkpt>
      <trkpt lat="45.92478" lon="4.73666">
        <ele>174</ele>
        <time>2017-03-29T08:10:39Z</time>
      </trkpt>
      <trkpt lat="45.9248" lon="4.73657">
        <ele>174</ele>
        <time>2017-03-29T08:10:41Z</time>
      </trkpt>
      <trkpt lat="45.92481" lon="4.73652">
        <ele>174</ele>
        <time>2017-03-29T08:10:42Z</time>
      </trkpt>
      <trkpt lat="45.92487" lon="4.73644">
        <ele>174</ele>
        <time>2017-03-29T08:10:45Z</time>
      </trkpt>
      <trkpt lat="45.92489" lon="4.73643">
        <ele>174</ele>
        <time>2017-03-29T08:10:46Z</time>
      </trkpt>
      <trkpt lat="45.92496" lon="4.73642">
        <ele>174</ele>
        <time>2017-03-29T08:10:49Z</time>
      </trkpt>
      <trkpt lat="45.92499" lon="4.73642">
        <ele>174</ele>
        <time>2017-03-29T08:10:50Z</time>
      </trkpt>
      <trkpt lat="45.92504" lon="4.73641">
        <ele>174</ele>
        <time>2017-03-29T08:10:51Z</time>
      </trkpt>
      <trkpt lat="45.92508" lon="4.73641">
        <ele>174</ele>
        <time>2017-03-29T08:10:52Z</time>
      </trkpt>
      <trkpt lat="45.92513" lon="4.73641">
        <ele>174</ele>
        <time>2017-03-29T08:10:53Z</time>
      </trkpt>
      <trkpt lat="45.92518" lon="4.73641">
        <ele>173</ele>
        <time>2017-03-29T08:10:54Z</time>
      </trkpt>
      <trkpt lat="45.92522" lon="4.7364">
        <ele>173</ele>
        <time>2017-03-29T08:10:55Z</time>
      </trkpt>
      <trkpt lat="45.92527" lon="4.73639">
        <ele>173</ele>
        <time>2017-03-29T08:10:56Z</time>
      </trkpt>
      <trkpt lat="45.92532" lon="4.73639">
        <ele>173</ele>
        <time>2017-03-29T08:10:57Z</time>
      </trkpt>
      <trkpt lat="45.92536" lon="4.73638">
        <ele>173</ele>
        <time>2017-03-29T08:10:58Z</time>
      </trkpt>
      <trkpt lat="45.92541" lon="4.73637">
        <ele>173</ele>
        <time>2017-03-29T08:10:59Z</time>
      </trkpt>
      <trkpt lat="45.92545" lon="4.73635">
        <ele>173</ele>
        <time>2017-03-29T08:11:00Z</time>
      </trkpt>
      <trkpt lat="45.92554" lon="4.73633">
        <ele>173</ele>
        <time>2017-03-29T08:11:02Z</time>
      </trkpt>
      <trkpt lat="45.92558" lon="4.73632">
        <ele>173</ele>
        <time>2017-03-29T08:11:03Z</time>
      </trkpt>
      <trkpt lat="45.92566" lon="4.7363">
        <ele>173</ele>
        <time>2017-03-29T08:11:05Z</time>
      </trkpt>
      <trkpt lat="45.9257" lon="4.73629">
        <ele>173</ele>
        <time>2017-03-29T08:11:06Z</time>
      </trkpt>
      <trkpt lat="45.92577" lon="4.73627">
        <ele>173</ele>
        <time>2017-03-29T08:11:08Z</time>
      </trkpt>
      <trkpt lat="45.92581" lon="4.73626">
        <ele>173</ele>
        <time>2017-03-29T08:11:09Z</time>
      </trkpt>
      <trkpt lat="45.92588" lon="4.73624">
        <ele>173</ele>
        <time>2017-03-29T08:11:11Z</time>
      </trkpt>
      <trkpt lat="45.92593" lon="4.73622">
        <ele>173</ele>
        <time>2017-03-29T08:11:12Z</time>
      </trkpt>
      <trkpt lat="45.92598" lon="4.73621">
        <ele>173</ele>
        <time>2017-03-29T08:11:13Z</time>
      </trkpt>
      <trkpt lat="45.92602" lon="4.73621">
        <ele>173</ele>
        <time>2017-03-29T08:11:14Z</time>
      </trkpt>
      <trkpt lat="45.92607" lon="4.73621">
        <ele>173</ele>
        <time>2017-03-29T08:11:15Z</time>
      </trkpt>
      <trkpt lat="45.92612" lon="4.73622">
        <ele>173</ele>
        <time>2017-03-29T08:11:16Z</time>
      </trkpt>
      <trkpt lat="45.92617" lon="4.73626">
        <ele>173</ele>
        <time>2017-03-29T08:11:17Z</time>
      </trkpt>
      <trkpt lat="45.92621" lon="4.73629">
        <ele>173</ele>
        <time>2017-03-29T08:11:18Z</time>
      </trkpt>
      <trkpt lat="45.92625" lon="4.73635">
        <ele>173</ele>
        <time>2017-03-29T08:11:19Z</time>
      </trkpt>
      <trkpt lat="45.92628" lon="4.73641">
        <ele>173</ele>
        <time>2017-03-29T08:11:20Z</time>
      </trkpt>
      <trkpt lat="45.92631" lon="4.73647">
        <ele>173</ele>
        <time>2017-03-29T08:11:21Z</time>
      </trkpt>
      <trkpt lat="45.92633" lon="4.73653">
        <ele>173</ele>
        <time>2017-03-29T08:11:22Z</time>
      </trkpt>
      <trkpt lat="45.92636" lon="4.7366">
        <ele>173</ele>
        <time>2017-03-29T08:11:23Z</time>
      </trkpt>
      <trkpt lat="45.92638" lon="4.73665">
        <ele>173</ele>
        <time>2017-03-29T08:11:24Z</time>
      </trkpt>
      <trkpt lat="45.92641" lon="4.73671">
        <ele>173</ele>
        <time>2017-03-29T08:11:25Z</time>
      </trkpt>
      <trkpt lat="45.92644" lon="4.73676">
        <ele>173</ele>
        <time>2017-03-29T08:11:26Z</time>
      </trkpt>
      <trkpt lat="45.92648" lon="4.7368">
        <ele>173</ele>
        <time>2017-03-29T08:11:27Z</time>
      </trkpt>
      <trkpt lat="45.92652" lon="4.73684">
        <ele>173</ele>
        <time>2017-03-29T08:11:28Z</time>
      </trkpt>
      <trkpt lat="45.92655" lon="4.73687">
        <ele>173</ele>
        <time>2017-03-29T08:11:29Z</time>
      </trkpt>
      <trkpt lat="45.9266" lon="4.7369">
        <ele>173</ele>
        <time>2017-03-29T08:11:30Z</time>
      </trkpt>
      <trkpt lat="45.92664" lon="4.73693">
        <ele>173</ele>
        <time>2017-03-29T08:11:31Z</time>
      </trkpt>
      <trkpt lat="45.92668" lon="4.73696">
        <ele>174</ele>
        <time>2017-03-29T08:11:32Z</time>
      </trkpt>
      <trkpt lat="45.92673" lon="4.73699">
        <ele>174</ele>
        <time>2017-03-29T08:11:33Z</time>
      </trkpt>
      <trkpt lat="45.92678" lon="4.73701">
        <ele>173</ele>
        <time>2017-03-29T08:11:34Z</time>
      </trkpt>
      <trkpt lat="45.92682" lon="4.73704">
        <ele>173</ele>
        <time>2017-03-29T08:11:35Z</time>
      </trkpt>
      <trkpt lat="45.92687" lon="4.73706">
        <ele>173</ele>
        <time>2017-03-29T08:11:36Z</time>
      </trkpt>
      <trkpt lat="45.92692" lon="4.73707">
        <ele>173</ele>
        <time>2017-03-29T08:11:37Z</time>
      </trkpt>
      <trkpt lat="45.92698" lon="4.73708">
        <ele>173</ele>
        <time>2017-03-29T08:11:38Z</time>
      </trkpt>
      <trkpt lat="45.92703" lon="4.7371">
        <ele>173</ele>
        <time>2017-03-29T08:11:39Z</time>
      </trkpt>
      <trkpt lat="45.92708" lon="4.73711">
        <ele>173</ele>
        <time>2017-03-29T08:11:40Z</time>
      </trkpt>
      <trkpt lat="45.92713" lon="4.73712">
        <ele>173</ele>
        <time>2017-03-29T08:11:41Z</time>
      </trkpt>
      <trkpt lat="45.92718" lon="4.73713">
        <ele>173</ele>
        <time>2017-03-29T08:11:42Z</time>
      </trkpt>
      <trkpt lat="45.92724" lon="4.73714">
        <ele>173</ele>
        <time>2017-03-29T08:11:43Z</time>
      </trkpt>
      <trkpt lat="45.92729" lon="4.73715">
        <ele>173</ele>
        <time>2017-03-29T08:11:44Z</time>
      </trkpt>
      <trkpt lat="45.92733" lon="4.73716">
        <ele>173</ele>
        <time>2017-03-29T08:11:45Z</time>
      </trkpt>
      <trkpt lat="45.92738" lon="4.73717">
        <ele>173</ele>
        <time>2017-03-29T08:11:46Z</time>
      </trkpt>
      <trkpt lat="45.92742" lon="4.73718">
        <ele>173</ele>
        <time>2017-03-29T08:11:47Z</time>
      </trkpt>
      <trkpt lat="45.92747" lon="4.73719">
        <ele>173</ele>
        <time>2017-03-29T08:11:48Z</time>
      </trkpt>
      <trkpt lat="45.92755" lon="4.7372">
        <ele>172</ele>
        <time>2017-03-29T08:11:50Z</time>
      </trkpt>
      <trkpt lat="45.92759" lon="4.73721">
        <ele>172</ele>
        <time>2017-03-29T08:11:51Z</time>
      </trkpt>
      <trkpt lat="45.92764" lon="4.73723">
        <ele>172</ele>
        <time>2017-03-29T08:11:52Z</time>
      </trkpt>
      <trkpt lat="45.92768" lon="4.73726">
        <ele>172</ele>
        <time>2017-03-29T08:11:53Z</time>
      </trkpt>
      <trkpt lat="45.92776" lon="4.73729">
        <ele>172</ele>
        <time>2017-03-29T08:11:55Z</time>
      </trkpt>
      <trkpt lat="45.92779" lon="4.73731">
        <ele>172</ele>
        <time>2017-03-29T08:11:56Z</time>
      </trkpt>
      <trkpt lat="45.92784" lon="4.73737">
        <ele>172</ele>
        <time>2017-03-29T08:11:58Z</time>
      </trkpt>
      <trkpt lat="45.92786" lon="4.73741">
        <ele>172</ele>
        <time>2017-03-29T08:11:59Z</time>
      </trkpt>
      <trkpt lat="45.92789" lon="4.73746">
        <ele>172</ele>
        <time>2017-03-29T08:12:00Z</time>
      </trkpt>
      <trkpt lat="45.92793" lon="4.7375">
        <ele>172</ele>
        <time>2017-03-29T08:12:01Z</time>
      </trkpt>
      <trkpt lat="45.92797" lon="4.73753">
        <ele>173</ele>
        <time>2017-03-29T08:12:02Z</time>
      </trkpt>
      <trkpt lat="45.92801" lon="4.73757">
        <ele>173</ele>
        <time>2017-03-29T08:12:03Z</time>
      </trkpt>
      <trkpt lat="45.92806" lon="4.7376">
        <ele>173</ele>
        <time>2017-03-29T08:12:04Z</time>
      </trkpt>
      <trkpt lat="45.9281" lon="4.73763">
        <ele>173</ele>
        <time>2017-03-29T08:12:05Z</time>
      </trkpt>
      <trkpt lat="45.92816" lon="4.73766">
        <ele>173</ele>
        <time>2017-03-29T08:12:06Z</time>
      </trkpt>
      <trkpt lat="45.92821" lon="4.73769">
        <ele>173</ele>
        <time>2017-03-29T08:12:07Z</time>
      </trkpt>
      <trkpt lat="45.92826" lon="4.73773">
        <ele>173</ele>
        <time>2017-03-29T08:12:08Z</time>
      </trkpt>
      <trkpt lat="45.92831" lon="4.73777">
        <ele>173</ele>
        <time>2017-03-29T08:12:09Z</time>
      </trkpt>
      <trkpt lat="45.92836" lon="4.73781">
        <ele>173</ele>
        <time>2017-03-29T08:12:10Z</time>
      </trkpt>
      <trkpt lat="45.92841" lon="4.73784">
        <ele>173</ele>
        <time>2017-03-29T08:12:11Z</time>
      </trkpt>
      <trkpt lat="45.92847" lon="4.73788">
        <ele>173</ele>
        <time>2017-03-29T08:12:12Z</time>
      </trkpt>
      <trkpt lat="45.92851" lon="4.73793">
        <ele>173</ele>
        <time>2017-03-29T08:12:13Z</time>
      </trkpt>
      <trkpt lat="45.92857" lon="4.73798">
        <ele>173</ele>
        <time>2017-03-29T08:12:14Z</time>
      </trkpt>
      <trkpt lat="45.9286" lon="4.73804">
        <ele>173</ele>
        <time>2017-03-29T08:12:15Z</time>
      </trkpt>
      <trkpt lat="45.92863" lon="4.7381">
        <ele>173</ele>
        <time>2017-03-29T08:12:16Z</time>
      </trkpt>
      <trkpt lat="45.92864" lon="4.73818">
        <ele>173</ele>
        <time>2017-03-29T08:12:17Z</time>
      </trkpt>
      <trkpt lat="45.92866" lon="4.73825">
        <ele>173</ele>
        <time>2017-03-29T08:12:18Z</time>
      </trkpt>
      <trkpt lat="45.92868" lon="4.73832">
        <ele>173</ele>
        <time>2017-03-29T08:12:19Z</time>
      </trkpt>
      <trkpt lat="45.9287" lon="4.7384">
        <ele>173</ele>
        <time>2017-03-29T08:12:20Z</time>
      </trkpt>
      <trkpt lat="45.92871" lon="4.73847">
        <ele>173</ele>
        <time>2017-03-29T08:12:21Z</time>
      </trkpt>
      <trkpt lat="45.92873" lon="4.73854">
        <ele>173</ele>
        <time>2017-03-29T08:12:22Z</time>
      </trkpt>
      <trkpt lat="45.92875" lon="4.73861">
        <ele>173</ele>
        <time>2017-03-29T08:12:23Z</time>
      </trkpt>
      <trkpt lat="45.92877" lon="4.73869">
        <ele>173</ele>
        <time>2017-03-29T08:12:24Z</time>
      </trkpt>
      <trkpt lat="45.92878" lon="4.73877">
        <ele>173</ele>
        <time>2017-03-29T08:12:25Z</time>
      </trkpt>
      <trkpt lat="45.9288" lon="4.73885">
        <ele>173</ele>
        <time>2017-03-29T08:12:26Z</time>
      </trkpt>
      <trkpt lat="45.92881" lon="4.73893">
        <ele>173</ele>
        <time>2017-03-29T08:12:27Z</time>
      </trkpt>
      <trkpt lat="45.92881" lon="4.739">
        <ele>173</ele>
        <time>2017-03-29T08:12:28Z</time>
      </trkpt>
      <trkpt lat="45.92881" lon="4.73908">
        <ele>173</ele>
        <time>2017-03-29T08:12:29Z</time>
      </trkpt>
      <trkpt lat="45.92882" lon="4.73916">
        <ele>173</ele>
        <time>2017-03-29T08:12:30Z</time>
      </trkpt>
      <trkpt lat="45.92882" lon="4.73923">
        <ele>172</ele>
        <time>2017-03-29T08:12:31Z</time>
      </trkpt>
      <trkpt lat="45.92883" lon="4.7393">
        <ele>172</ele>
        <time>2017-03-29T08:12:32Z</time>
      </trkpt>
      <trkpt lat="45.92883" lon="4.73937">
        <ele>172</ele>
        <time>2017-03-29T08:12:33Z</time>
      </trkpt>
      <trkpt lat="45.92884" lon="4.73944">
        <ele>172</ele>
        <time>2017-03-29T08:12:34Z</time>
      </trkpt>
      <trkpt lat="45.92885" lon="4.73951">
        <ele>172</ele>
        <time>2017-03-29T08:12:35Z</time>
      </trkpt>
      <trkpt lat="45.92885" lon="4.73958">
        <ele>172</ele>
        <time>2017-03-29T08:12:36Z</time>
      </trkpt>
      <trkpt lat="45.92885" lon="4.73965">
        <ele>172</ele>
        <time>2017-03-29T08:12:37Z</time>
      </trkpt>
      <trkpt lat="45.92885" lon="4.73972">
        <ele>172</ele>
        <time>2017-03-29T08:12:38Z</time>
      </trkpt>
      <trkpt lat="45.92884" lon="4.73979">
        <ele>172</ele>
        <time>2017-03-29T08:12:39Z</time>
      </trkpt>
      <trkpt lat="45.92883" lon="4.73986">
        <ele>172</ele>
        <time>2017-03-29T08:12:40Z</time>
      </trkpt>
      <trkpt lat="45.92882" lon="4.73993">
        <ele>172</ele>
        <time>2017-03-29T08:12:41Z</time>
      </trkpt>
      <trkpt lat="45.9288" lon="4.74">
        <ele>172</ele>
        <time>2017-03-29T08:12:42Z</time>
      </trkpt>
      <trkpt lat="45.92879" lon="4.74007">
        <ele>172</ele>
        <time>2017-03-29T08:12:43Z</time>
      </trkpt>
      <trkpt lat="45.92878" lon="4.74014">
        <ele>172</ele>
        <time>2017-03-29T08:12:44Z</time>
      </trkpt>
      <trkpt lat="45.92876" lon="4.74021">
        <ele>172</ele>
        <time>2017-03-29T08:12:45Z</time>
      </trkpt>
      <trkpt lat="45.92874" lon="4.74028">
        <ele>172</ele>
        <time>2017-03-29T08:12:46Z</time>
      </trkpt>
      <trkpt lat="45.92872" lon="4.74034">
        <ele>172</ele>
        <time>2017-03-29T08:12:47Z</time>
      </trkpt>
      <trkpt lat="45.92869" lon="4.7404">
        <ele>172</ele>
        <time>2017-03-29T08:12:48Z</time>
      </trkpt>
      <trkpt lat="45.92865" lon="4.74046">
        <ele>172</ele>
        <time>2017-03-29T08:12:49Z</time>
      </trkpt>
      <trkpt lat="45.9286" lon="4.74051">
        <ele>172</ele>
        <time>2017-03-29T08:12:50Z</time>
      </trkpt>
      <trkpt lat="45.92856" lon="4.74056">
        <ele>172</ele>
        <time>2017-03-29T08:12:51Z</time>
      </trkpt>
      <trkpt lat="45.92851" lon="4.7406">
        <ele>172</ele>
        <time>2017-03-29T08:12:52Z</time>
      </trkpt>
      <trkpt lat="45.92847" lon="4.74065">
        <ele>172</ele>
        <time>2017-03-29T08:12:53Z</time>
      </trkpt>
      <trkpt lat="45.92843" lon="4.7407">
        <ele>172</ele>
        <time>2017-03-29T08:12:54Z</time>
      </trkpt>
      <trkpt lat="45.92838" lon="4.74075">
        <ele>171</ele>
        <time>2017-03-29T08:12:55Z</time>
      </trkpt>
      <trkpt lat="45.92834" lon="4.7408">
        <ele>171</ele>
        <time>2017-03-29T08:12:56Z</time>
      </trkpt>
      <trkpt lat="45.9283" lon="4.74086">
        <ele>171</ele>
        <time>2017-03-29T08:12:57Z</time>
      </trkpt>
      <trkpt lat="45.92825" lon="4.74091">
        <ele>171</ele>
        <time>2017-03-29T08:12:58Z</time>
      </trkpt>
      <trkpt lat="45.92821" lon="4.74096">
        <ele>171</ele>
        <time>2017-03-29T08:12:59Z</time>
      </trkpt>
      <trkpt lat="45.92816" lon="4.74101">
        <ele>171</ele>
        <time>2017-03-29T08:13:00Z</time>
      </trkpt>
      <trkpt lat="45.92811" lon="4.74107">
        <ele>172</ele>
        <time>2017-03-29T08:13:01Z</time>
      </trkpt>
      <trkpt lat="45.92807" lon="4.74112">
        <ele>172</ele>
        <time>2017-03-29T08:13:02Z</time>
      </trkpt>
      <trkpt lat="45.92802" lon="4.74118">
        <ele>172</ele>
        <time>2017-03-29T08:13:03Z</time>
      </trkpt>
      <trkpt lat="45.92797" lon="4.74123">
        <ele>172</ele>
        <time>2017-03-29T08:13:04Z</time>
      </trkpt>
      <trkpt lat="45.92792" lon="4.74127">
        <ele>172</ele>
        <time>2017-03-29T08:13:05Z</time>
      </trkpt>
      <trkpt lat="45.92787" lon="4.74132">
        <ele>172</ele>
        <time>2017-03-29T08:13:06Z</time>
      </trkpt>
      <trkpt lat="45.92783" lon="4.74136">
        <ele>172</ele>
        <time>2017-03-29T08:13:07Z</time>
      </trkpt>
      <trkpt lat="45.92778" lon="4.74141">
        <ele>172</ele>
        <time>2017-03-29T08:13:08Z</time>
      </trkpt>
      <trkpt lat="45.92774" lon="4.74145">
        <ele>172</ele>
        <time>2017-03-29T08:13:09Z</time>
      </trkpt>
      <trkpt lat="45.9277" lon="4.74149">
        <ele>172</ele>
        <time>2017-03-29T08:13:10Z</time>
      </trkpt>
      <trkpt lat="45.92766" lon="4.74154">
        <ele>172</ele>
        <time>2017-03-29T08:13:11Z</time>
      </trkpt>
      <trkpt lat="45.92762" lon="4.74158">
        <ele>172</ele>
        <time>2017-03-29T08:13:12Z</time>
      </trkpt>
      <trkpt lat="45.92758" lon="4.74163">
        <ele>172</ele>
        <time>2017-03-29T08:13:13Z</time>
      </trkpt>
      <trkpt lat="45.92753" lon="4.74168">
        <ele>172</ele>
        <time>2017-03-29T08:13:14Z</time>
      </trkpt>
      <trkpt lat="45.92749" lon="4.74173">
        <ele>172</ele>
        <time>2017-03-29T08:13:15Z</time>
      </trkpt>
      <trkpt lat="45.92744" lon="4.74179">
        <ele>172</ele>
        <time>2017-03-29T08:13:16Z</time>
      </trkpt>
      <trkpt lat="45.9274" lon="4.74184">
        <ele>172</ele>
        <time>2017-03-29T08:13:17Z</time>
      </trkpt>
      <trkpt lat="45.92736" lon="4.7419">
        <ele>171</ele>
        <time>2017-03-29T08:13:18Z</time>
      </trkpt>
      <trkpt lat="45.92732" lon="4.74195">
        <ele>171</ele>
        <time>2017-03-29T08:13:19Z</time>
      </trkpt>
      <trkpt lat="45.92728" lon="4.74201">
        <ele>171</ele>
        <time>2017-03-29T08:13:20Z</time>
      </trkpt>
      <trkpt lat="45.92724" lon="4.74207">
        <ele>171</ele>
        <time>2017-03-29T08:13:21Z</time>
      </trkpt>
      <trkpt lat="45.9272" lon="4.74212">
        <ele>171</ele>
        <time>2017-03-29T08:13:22Z</time>
      </trkpt>
      <trkpt lat="45.92716" lon="4.74218">
        <ele>171</ele>
        <time>2017-03-29T08:13:23Z</time>
      </trkpt>
      <trkpt lat="45.92712" lon="4.74224">
        <ele>171</ele>
        <time>2017-03-29T08:13:24Z</time>
      </trkpt>
      <trkpt lat="45.92708" lon="4.7423">
        <ele>171</ele>
        <time>2017-03-29T08:13:25Z</time>
      </trkpt>
      <trkpt lat="45.92704" lon="4.74237">
        <ele>171</ele>
        <time>2017-03-29T08:13:26Z</time>
      </trkpt>
      <trkpt lat="45.92701" lon="4.74243">
        <ele>171</ele>
        <time>2017-03-29T08:13:27Z</time>
      </trkpt>
      <trkpt lat="45.92697" lon="4.74249">
        <ele>171</ele>
        <time>2017-03-29T08:13:28Z</time>
      </trkpt>
      <trkpt lat="45.92693" lon="4.74256">
        <ele>171</ele>
        <time>2017-03-29T08:13:29Z</time>
      </trkpt>
      <trkpt lat="45.92689" lon="4.74262">
        <ele>171</ele>
        <time>2017-03-29T08:13:30Z</time>
      </trkpt>
      <trkpt lat="45.92686" lon="4.74269">
        <ele>171</ele>
        <time>2017-03-29T08:13:31Z</time>
      </trkpt>
      <trkpt lat="45.92682" lon="4.74276">
        <ele>171</ele>
        <time>2017-03-29T08:13:32Z</time>
      </trkpt>
      <trkpt lat="45.92678" lon="4.74283">
        <ele>171</ele>
        <time>2017-03-29T08:13:33Z</time>
      </trkpt>
      <trkpt lat="45.92675" lon="4.74289">
        <ele>171</ele>
        <time>2017-03-29T08:13:34Z</time>
      </trkpt>
      <trkpt lat="45.92671" lon="4.74295">
        <ele>171</ele>
        <time>2017-03-29T08:13:35Z</time>
      </trkpt>
      <trkpt lat="45.92667" lon="4.74301">
        <ele>171</ele>
        <time>2017-03-29T08:13:36Z</time>
      </trkpt>
      <trkpt lat="45.92664" lon="4.74307">
        <ele>171</ele>
        <time>2017-03-29T08:13:37Z</time>
      </trkpt>
      <trkpt lat="45.92661" lon="4.74314">
        <ele>171</ele>
        <time>2017-03-29T08:13:38Z</time>
      </trkpt>
      <trkpt lat="45.92658" lon="4.7432">
        <ele>171</ele>
        <time>2017-03-29T08:13:39Z</time>
      </trkpt>
      <trkpt lat="45.92654" lon="4.74326">
        <ele>171</ele>
        <time>2017-03-29T08:13:40Z</time>
      </trkpt>
      <trkpt lat="45.92651" lon="4.74332">
        <ele>171</ele>
        <time>2017-03-29T08:13:41Z</time>
      </trkpt>
      <trkpt lat="45.92648" lon="4.74338">
        <ele>171</ele>
        <time>2017-03-29T08:13:42Z</time>
      </trkpt>
      <trkpt lat="45.92644" lon="4.74345">
        <ele>171</ele>
        <time>2017-03-29T08:13:43Z</time>
      </trkpt>
      <trkpt lat="45.92641" lon="4.74351">
        <ele>171</ele>
        <time>2017-03-29T08:13:44Z</time>
      </trkpt>
      <trkpt lat="45.92637" lon="4.74357">
        <ele>171</ele>
        <time>2017-03-29T08:13:45Z</time>
      </trkpt>
      <trkpt lat="45.92633" lon="4.74363">
        <ele>171</ele>
        <time>2017-03-29T08:13:46Z</time>
      </trkpt>
      <trkpt lat="45.9263" lon="4.7437">
        <ele>171</ele>
        <time>2017-03-29T08:13:47Z</time>
      </trkpt>
      <trkpt lat="45.92626" lon="4.74376">
        <ele>170</ele>
        <time>2017-03-29T08:13:48Z</time>
      </trkpt>
      <trkpt lat="45.92622" lon="4.74383">
        <ele>170</ele>
        <time>2017-03-29T08:13:49Z</time>
      </trkpt>
      <trkpt lat="45.92619" lon="4.7439">
        <ele>170</ele>
        <time>2017-03-29T08:13:50Z</time>
      </trkpt>
      <trkpt lat="45.92615" lon="4.74397">
        <ele>170</ele>
        <time>2017-03-29T08:13:51Z</time>
      </trkpt>
      <trkpt lat="45.92611" lon="4.74402">
        <ele>170</ele>
        <time>2017-03-29T08:13:52Z</time>
      </trkpt>
      <trkpt lat="45.92608" lon="4.74409">
        <ele>170</ele>
        <time>2017-03-29T08:13:53Z</time>
      </trkpt>
      <trkpt lat="45.92605" lon="4.74416">
        <ele>170</ele>
        <time>2017-03-29T08:13:54Z</time>
      </trkpt>
      <trkpt lat="45.92601" lon="4.74422">
        <ele>170</ele>
        <time>2017-03-29T08:13:55Z</time>
      </trkpt>
      <trkpt lat="45.92598" lon="4.74429">
        <ele>170</ele>
        <time>2017-03-29T08:13:56Z</time>
      </trkpt>
      <trkpt lat="45.92594" lon="4.74436">
        <ele>170</ele>
        <time>2017-03-29T08:13:57Z</time>
      </trkpt>
      <trkpt lat="45.9259" lon="4.74442">
        <ele>170</ele>
        <time>2017-03-29T08:13:58Z</time>
      </trkpt>
      <trkpt lat="45.92587" lon="4.74449">
        <ele>170</ele>
        <time>2017-03-29T08:13:59Z</time>
      </trkpt>
      <trkpt lat="45.92584" lon="4.74456">
        <ele>170</ele>
        <time>2017-03-29T08:14:00Z</time>
      </trkpt>
      <trkpt lat="45.92581" lon="4.74463">
        <ele>170</ele>
        <time>2017-03-29T08:14:01Z</time>
      </trkpt>
      <trkpt lat="45.92577" lon="4.7447">
        <ele>170</ele>
        <time>2017-03-29T08:14:02Z</time>
      </trkpt>
      <trkpt lat="45.92574" lon="4.74476">
        <ele>170</ele>
        <time>2017-03-29T08:14:03Z</time>
      </trkpt>
      <trkpt lat="45.9257" lon="4.74482">
        <ele>170</ele>
        <time>2017-03-29T08:14:04Z</time>
      </trkpt>
      <trkpt lat="45.92566" lon="4.74489">
        <ele>170</ele>
        <time>2017-03-29T08:14:05Z</time>
      </trkpt>
      <trkpt lat="45.92563" lon="4.74495">
        <ele>170</ele>
        <time>2017-03-29T08:14:06Z</time>
      </trkpt>
      <trkpt lat="45.92559" lon="4.74501">
        <ele>170</ele>
        <time>2017-03-29T08:14:07Z</time>
      </trkpt>
      <trkpt lat="45.92555" lon="4.74508">
        <ele>170</ele>
        <time>2017-03-29T08:14:08Z</time>
      </trkpt>
      <trkpt lat="45.92552" lon="4.74514">
        <ele>170</ele>
        <time>2017-03-29T08:14:09Z</time>
      </trkpt>
      <trkpt lat="45.92548" lon="4.74521">
        <ele>170</ele>
        <time>2017-03-29T08:14:10Z</time>
      </trkpt>
      <trkpt lat="45.92544" lon="4.74528">
        <ele>170</ele>
        <time>2017-03-29T08:14:11Z</time>
      </trkpt>
      <trkpt lat="45.9254" lon="4.74534">
        <ele>171</ele>
        <time>2017-03-29T08:14:12Z</time>
      </trkpt>
      <trkpt lat="45.92536" lon="4.74541">
        <ele>171</ele>
        <time>2017-03-29T08:14:13Z</time>
      </trkpt>
      <trkpt lat="45.92532" lon="4.74547">
        <ele>171</ele>
        <time>2017-03-29T08:14:14Z</time>
      </trkpt>
      <trkpt lat="45.92528" lon="4.74553">
        <ele>171</ele>
        <time>2017-03-29T08:14:15Z</time>
      </trkpt>
      <trkpt lat="45.92523" lon="4.74558">
        <ele>171</ele>
        <time>2017-03-29T08:14:16Z</time>
      </trkpt>
      <trkpt lat="45.92519" lon="4.74564">
        <ele>171</ele>
        <time>2017-03-29T08:14:17Z</time>
      </trkpt>
      <trkpt lat="45.92515" lon="4.74569">
        <ele>171</ele>
        <time>2017-03-29T08:14:18Z</time>
      </trkpt>
      <trkpt lat="45.9251" lon="4.74574">
        <ele>171</ele>
        <time>2017-03-29T08:14:19Z</time>
      </trkpt>
      <trkpt lat="45.92505" lon="4.7458">
        <ele>171</ele>
        <time>2017-03-29T08:14:20Z</time>
      </trkpt>
      <trkpt lat="45.92501" lon="4.74585">
        <ele>171</ele>
        <time>2017-03-29T08:14:21Z</time>
      </trkpt>
      <trkpt lat="45.92496" lon="4.7459">
        <ele>171</ele>
        <time>2017-03-29T08:14:22Z</time>
      </trkpt>
      <trkpt lat="45.92492" lon="4.74596">
        <ele>171</ele>
        <time>2017-03-29T08:14:23Z</time>
      </trkpt>
      <trkpt lat="45.92487" lon="4.74602">
        <ele>171</ele>
        <time>2017-03-29T08:14:24Z</time>
      </trkpt>
      <trkpt lat="45.92483" lon="4.74608">
        <ele>171</ele>
        <time>2017-03-29T08:14:25Z</time>
      </trkpt>
      <trkpt lat="45.92479" lon="4.74613">
        <ele>171</ele>
        <time>2017-03-29T08:14:26Z</time>
      </trkpt>
      <trkpt lat="45.92474" lon="4.7462">
        <ele>171</ele>
        <time>2017-03-29T08:14:27Z</time>
      </trkpt>
      <trkpt lat="45.9247" lon="4.74626">
        <ele>171</ele>
        <time>2017-03-29T08:14:28Z</time>
      </trkpt>
      <trkpt lat="45.92466" lon="4.74632">
        <ele>171</ele>
        <time>2017-03-29T08:14:29Z</time>
      </trkpt>
      <trkpt lat="45.92462" lon="4.74639">
        <ele>171</ele>
        <time>2017-03-29T08:14:30Z</time>
      </trkpt>
      <trkpt lat="45.92459" lon="4.74645">
        <ele>171</ele>
        <time>2017-03-29T08:14:31Z</time>
      </trkpt>
      <trkpt lat="45.92455" lon="4.74653">
        <ele>171</ele>
        <time>2017-03-29T08:14:32Z</time>
      </trkpt>
      <trkpt lat="45.92451" lon="4.7466">
        <ele>171</ele>
        <time>2017-03-29T08:14:33Z</time>
      </trkpt>
      <trkpt lat="45.92448" lon="4.74667">
        <ele>171</ele>
        <time>2017-03-29T08:14:34Z</time>
      </trkpt>
      <trkpt lat="45.92444" lon="4.74674">
        <ele>171</ele>
        <time>2017-03-29T08:14:35Z</time>
      </trkpt>
      <trkpt lat="45.92441" lon="4.74681">
        <ele>171</ele>
        <time>2017-03-29T08:14:36Z</time>
      </trkpt>
      <trkpt lat="45.92438" lon="4.74688">
        <ele>171</ele>
        <time>2017-03-29T08:14:37Z</time>
      </trkpt>
      <trkpt lat="45.92434" lon="4.74696">
        <ele>171</ele>
        <time>2017-03-29T08:14:38Z</time>
      </trkpt>
      <trkpt lat="45.92432" lon="4.74704">
        <ele>171</ele>
        <time>2017-03-29T08:14:39Z</time>
      </trkpt>
      <trkpt lat="45.92429" lon="4.74711">
        <ele>171</ele>
        <time>2017-03-29T08:14:40Z</time>
      </trkpt>
      <trkpt lat="45.92426" lon="4.74719">
        <ele>171</ele>
        <time>2017-03-29T08:14:41Z</time>
      </trkpt>
      <trkpt lat="45.92424" lon="4.74727">
        <ele>171</ele>
        <time>2017-03-29T08:14:42Z</time>
      </trkpt>
      <trkpt lat="45.92421" lon="4.74735">
        <ele>171</ele>
        <time>2017-03-29T08:14:43Z</time>
      </trkpt>
      <trkpt lat="45.92418" lon="4.74743">
        <ele>172</ele>
        <time>2017-03-29T08:14:44Z</time>
      </trkpt>
      <trkpt lat="45.92416" lon="4.74751">
        <ele>172</ele>
        <time>2017-03-29T08:14:45Z</time>
      </trkpt>
      <trkpt lat="45.92414" lon="4.74759">
        <ele>172</ele>
        <time>2017-03-29T08:14:46Z</time>
      </trkpt>
      <trkpt lat="45.92412" lon="4.74768">
        <ele>172</ele>
        <time>2017-03-29T08:14:47Z</time>
      </trkpt>
      <trkpt lat="45.9241" lon="4.74776">
        <ele>171</ele>
        <time>2017-03-29T08:14:48Z</time>
      </trkpt>
      <trkpt lat="45.92408" lon="4.74784">
        <ele>171</ele>
        <time>2017-03-29T08:14:49Z</time>
      </trkpt>
      <trkpt lat="45.92406" lon="4.74792">
        <ele>171</ele>
        <time>2017-03-29T08:14:50Z</time>
      </trkpt>
      <trkpt lat="45.92404" lon="4.748">
        <ele>171</ele>
        <time>2017-03-29T08:14:51Z</time>
      </trkpt>
      <trkpt lat="45.92402" lon="4.74809">
        <ele>171</ele>
        <time>2017-03-29T08:14:52Z</time>
      </trkpt>
      <trkpt lat="45.924" lon="4.74818">
        <ele>171</ele>
        <time>2017-03-29T08:14:53Z</time>
      </trkpt>
      <trkpt lat="45.92398" lon="4.74826">
        <ele>171</ele>
        <time>2017-03-29T08:14:54Z</time>
      </trkpt>
      <trkpt lat="45.92396" lon="4.74835">
        <ele>171</ele>
        <time>2017-03-29T08:14:55Z</time>
      </trkpt>
      <trkpt lat="45.92394" lon="4.74843">
        <ele>171</ele>
        <time>2017-03-29T08:14:56Z</time>
      </trkpt>
      <trkpt lat="45.92391" lon="4.7485">
        <ele>171</ele>
        <time>2017-03-29T08:14:57Z</time>
      </trkpt>
      <trkpt lat="45.92389" lon="4.74857">
        <ele>171</ele>
        <time>2017-03-29T08:14:58Z</time>
      </trkpt>
      <trkpt lat="45.92386" lon="4.74864">
        <ele>171</ele>
        <time>2017-03-29T08:14:59Z</time>
      </trkpt>
      <trkpt lat="45.92383" lon="4.74871">
        <ele>171</ele>
        <time>2017-03-29T08:15:00Z</time>
      </trkpt>
      <trkpt lat="45.9238" lon="4.74878">
        <ele>171</ele>
        <time>2017-03-29T08:15:01Z</time>
      </trkpt>
      <trkpt lat="45.92377" lon="4.74885">
        <ele>171</ele>
        <time>2017-03-29T08:15:02Z</time>
      </trkpt>
      <trkpt lat="45.92374" lon="4.74892">
        <ele>171</ele>
        <time>2017-03-29T08:15:03Z</time>
      </trkpt>
      <trkpt lat="45.92371" lon="4.749">
        <ele>171</ele>
        <time>2017-03-29T08:15:04Z</time>
      </trkpt>
      <trkpt lat="45.92368" lon="4.74907">
        <ele>171</ele>
        <time>2017-03-29T08:15:05Z</time>
      </trkpt>
      <trkpt lat="45.92365" lon="4.74914">
        <ele>171</ele>
        <time>2017-03-29T08:15:06Z</time>
      </trkpt>
      <trkpt lat="45.92362" lon="4.74922">
        <ele>170</ele>
        <time>2017-03-29T08:15:07Z</time>
      </trkpt>
      <trkpt lat="45.92359" lon="4.74928">
        <ele>170</ele>
        <time>2017-03-29T08:15:08Z</time>
      </trkpt>
      <trkpt lat="45.92356" lon="4.74936">
        <ele>170</ele>
        <time>2017-03-29T08:15:09Z</time>
      </trkpt>
      <trkpt lat="45.92354" lon="4.74943">
        <ele>170</ele>
        <time>2017-03-29T08:15:10Z</time>
      </trkpt>
      <trkpt lat="45.92351" lon="4.74951">
        <ele>170</ele>
        <time>2017-03-29T08:15:11Z</time>
      </trkpt>
      <trkpt lat="45.92348" lon="4.74958">
        <ele>170</ele>
        <time>2017-03-29T08:15:12Z</time>
      </trkpt>
      <trkpt lat="45.92345" lon="4.74965">
        <ele>170</ele>
        <time>2017-03-29T08:15:13Z</time>
      </trkpt>
      <trkpt lat="45.92342" lon="4.74973">
        <ele>170</ele>
        <time>2017-03-29T08:15:14Z</time>
      </trkpt>
      <trkpt lat="45.92339" lon="4.7498">
        <ele>170</ele>
        <time>2017-03-29T08:15:15Z</time>
      </trkpt>
      <trkpt lat="45.92336" lon="4.74987">
        <ele>170</ele>
        <time>2017-03-29T08:15:16Z</time>
      </trkpt>
      <trkpt lat="45.92333" lon="4.74994">
        <ele>170</ele>
        <time>2017-03-29T08:15:17Z</time>
      </trkpt>
      <trkpt lat="45.9233" lon="4.75001">
        <ele>170</ele>
        <time>2017-03-29T08:15:18Z</time>
      </trkpt>
      <trkpt lat="45.92327" lon="4.75008">
        <ele>171</ele>
        <time>2017-03-29T08:15:19Z</time>
      </trkpt>
      <trkpt lat="45.92325" lon="4.75014">
        <ele>171</ele>
        <time>2017-03-29T08:15:20Z</time>
      </trkpt>
      <trkpt lat="45.92321" lon="4.75022">
        <ele>171</ele>
        <time>2017-03-29T08:15:21Z</time>
      </trkpt>
      <trkpt lat="45.92317" lon="4.75029">
        <ele>171</ele>
        <time>2017-03-29T08:15:22Z</time>
      </trkpt>
      <trkpt lat="45.92313" lon="4.75036">
        <ele>171</ele>
        <time>2017-03-29T08:15:23Z</time>
      </trkpt>
      <trkpt lat="45.92308" lon="4.75043">
        <ele>172</ele>
        <time>2017-03-29T08:15:24Z</time>
      </trkpt>
      <trkpt lat="45.92304" lon="4.7505">
        <ele>172</ele>
        <time>2017-03-29T08:15:25Z</time>
      </trkpt>
      <trkpt lat="45.923" lon="4.75056">
        <ele>172</ele>
        <time>2017-03-29T08:15:26Z</time>
      </trkpt>
      <trkpt lat="45.92295" lon="4.75062">
        <ele>172</ele>
        <time>2017-03-29T08:15:27Z</time>
      </trkpt>
      <trkpt lat="45.92291" lon="4.75067">
        <ele>172</ele>
        <time>2017-03-29T08:15:28Z</time>
      </trkpt>
      <trkpt lat="45.92286" lon="4.75073">
        <ele>172</ele>
        <time>2017-03-29T08:15:29Z</time>
      </trkpt>
      <trkpt lat="45.92281" lon="4.75077">
        <ele>172</ele>
        <time>2017-03-29T08:15:30Z</time>
      </trkpt>
      <trkpt lat="45.92276" lon="4.75082">
        <ele>172</ele>
        <time>2017-03-29T08:15:31Z</time>
      </trkpt>
      <trkpt lat="45.92271" lon="4.75087">
        <ele>173</ele>
        <time>2017-03-29T08:15:32Z</time>
      </trkpt>
      <trkpt lat="45.92267" lon="4.75092">
        <ele>173</ele>
        <time>2017-03-29T08:15:33Z</time>
      </trkpt>
      <trkpt lat="45.92262" lon="4.75097">
        <ele>173</ele>
        <time>2017-03-29T08:15:34Z</time>
      </trkpt>
      <trkpt lat="45.92257" lon="4.75102">
        <ele>173</ele>
        <time>2017-03-29T08:15:35Z</time>
      </trkpt>
      <trkpt lat="45.92253" lon="4.75107">
        <ele>174</ele>
        <time>2017-03-29T08:15:36Z</time>
      </trkpt>
      <trkpt lat="45.92248" lon="4.75112">
        <ele>174</ele>
        <time>2017-03-29T08:15:37Z</time>
      </trkpt>
      <trkpt lat="45.92244" lon="4.75118">
        <ele>174</ele>
        <time>2017-03-29T08:15:38Z</time>
      </trkpt>
      <trkpt lat="45.9224" lon="4.75123">
        <ele>174</ele>
        <time>2017-03-29T08:15:39Z</time>
      </trkpt>
      <trkpt lat="45.92235" lon="4.75129">
        <ele>174</ele>
        <time>2017-03-29T08:15:40Z</time>
      </trkpt>
      <trkpt lat="45.92232" lon="4.75135">
        <ele>174</ele>
        <time>2017-03-29T08:15:41Z</time>
      </trkpt>
      <trkpt lat="45.92228" lon="4.75141">
        <ele>174</ele>
        <time>2017-03-29T08:15:42Z</time>
      </trkpt>
      <trkpt lat="45.92225" lon="4.75148">
        <ele>174</ele>
        <time>2017-03-29T08:15:43Z</time>
      </trkpt>
      <trkpt lat="45.92222" lon="4.75155">
        <ele>174</ele>
        <time>2017-03-29T08:15:44Z</time>
      </trkpt>
      <trkpt lat="45.92219" lon="4.75162">
        <ele>174</ele>
        <time>2017-03-29T08:15:45Z</time>
      </trkpt>
      <trkpt lat="45.92216" lon="4.7517">
        <ele>175</ele>
        <time>2017-03-29T08:15:46Z</time>
      </trkpt>
      <trkpt lat="45.92214" lon="4.75177">
        <ele>175</ele>
        <time>2017-03-29T08:15:47Z</time>
      </trkpt>
      <trkpt lat="45.92213" lon="4.75185">
        <ele>175</ele>
        <time>2017-03-29T08:15:48Z</time>
      </trkpt>
      <trkpt lat="45.92212" lon="4.75192">
        <ele>175</ele>
        <time>2017-03-29T08:15:49Z</time>
      </trkpt>
      <trkpt lat="45.9221" lon="4.752">
        <ele>175</ele>
        <time>2017-03-29T08:15:50Z</time>
      </trkpt>
      <trkpt lat="45.9221" lon="4.75208">
        <ele>175</ele>
        <time>2017-03-29T08:15:51Z</time>
      </trkpt>
      <trkpt lat="45.92209" lon="4.75216">
        <ele>175</ele>
        <time>2017-03-29T08:15:52Z</time>
      </trkpt>
      <trkpt lat="45.92209" lon="4.75223">
        <ele>175</ele>
        <time>2017-03-29T08:15:53Z</time>
      </trkpt>
      <trkpt lat="45.92209" lon="4.75231">
        <ele>175</ele>
        <time>2017-03-29T08:15:54Z</time>
      </trkpt>
      <trkpt lat="45.92209" lon="4.7524">
        <ele>175</ele>
        <time>2017-03-29T08:15:55Z</time>
      </trkpt>
      <trkpt lat="45.92208" lon="4.75248">
        <ele>175</ele>
        <time>2017-03-29T08:15:56Z</time>
      </trkpt>
      <trkpt lat="45.92208" lon="4.75256">
        <ele>175</ele>
        <time>2017-03-29T08:15:57Z</time>
      </trkpt>
      <trkpt lat="45.92208" lon="4.75264">
        <ele>176</ele>
        <time>2017-03-29T08:15:58Z</time>
      </trkpt>
      <trkpt lat="45.92208" lon="4.75272">
        <ele>176</ele>
        <time>2017-03-29T08:15:59Z</time>
      </trkpt>
      <trkpt lat="45.92208" lon="4.7528">
        <ele>176</ele>
        <time>2017-03-29T08:16:00Z</time>
      </trkpt>
      <trkpt lat="45.92208" lon="4.75288">
        <ele>176</ele>
        <time>2017-03-29T08:16:01Z</time>
      </trkpt>
      <trkpt lat="45.92208" lon="4.75296">
        <ele>176</ele>
        <time>2017-03-29T08:16:02Z</time>
      </trkpt>
      <trkpt lat="45.92207" lon="4.75303">
        <ele>176</ele>
        <time>2017-03-29T08:16:03Z</time>
      </trkpt>
      <trkpt lat="45.92206" lon="4.7531">
        <ele>176</ele>
        <time>2017-03-29T08:16:04Z</time>
      </trkpt>
      <trkpt lat="45.92205" lon="4.75317">
        <ele>176</ele>
        <time>2017-03-29T08:16:05Z</time>
      </trkpt>
      <trkpt lat="45.92203" lon="4.75324">
        <ele>176</ele>
        <time>2017-03-29T08:16:06Z</time>
      </trkpt>
      <trkpt lat="45.92202" lon="4.75331">
        <ele>176</ele>
        <time>2017-03-29T08:16:07Z</time>
      </trkpt>
      <trkpt lat="45.92202" lon="4.75338">
        <ele>177</ele>
        <time>2017-03-29T08:16:08Z</time>
      </trkpt>
      <trkpt lat="45.922" lon="4.75345">
        <ele>177</ele>
        <time>2017-03-29T08:16:09Z</time>
      </trkpt>
      <trkpt lat="45.92198" lon="4.75352">
        <ele>177</ele>
        <time>2017-03-29T08:16:10Z</time>
      </trkpt>
      <trkpt lat="45.92196" lon="4.75358">
        <ele>177</ele>
        <time>2017-03-29T08:16:11Z</time>
      </trkpt>
      <trkpt lat="45.92193" lon="4.75365">
        <ele>177</ele>
        <time>2017-03-29T08:16:12Z</time>
      </trkpt>
      <trkpt lat="45.9219" lon="4.75372">
        <ele>177</ele>
        <time>2017-03-29T08:16:13Z</time>
      </trkpt>
      <trkpt lat="45.92187" lon="4.75378">
        <ele>177</ele>
        <time>2017-03-29T08:16:14Z</time>
      </trkpt>
      <trkpt lat="45.92185" lon="4.75385">
        <ele>177</ele>
        <time>2017-03-29T08:16:15Z</time>
      </trkpt>
      <trkpt lat="45.92182" lon="4.75392">
        <ele>177</ele>
        <time>2017-03-29T08:16:16Z</time>
      </trkpt>
      <trkpt lat="45.92179" lon="4.75399">
        <ele>177</ele>
        <time>2017-03-29T08:16:17Z</time>
      </trkpt>
      <trkpt lat="45.92177" lon="4.75407">
        <ele>177</ele>
        <time>2017-03-29T08:16:18Z</time>
      </trkpt>
      <trkpt lat="45.92174" lon="4.75413">
        <ele>178</ele>
        <time>2017-03-29T08:16:19Z</time>
      </trkpt>
      <trkpt lat="45.92171" lon="4.7542">
        <ele>178</ele>
        <time>2017-03-29T08:16:20Z</time>
      </trkpt>
      <trkpt lat="45.92168" lon="4.75426">
        <ele>177</ele>
        <time>2017-03-29T08:16:21Z</time>
      </trkpt>
      <trkpt lat="45.92167" lon="4.75433">
        <ele>177</ele>
        <time>2017-03-29T08:16:22Z</time>
      </trkpt>
      <trkpt lat="45.92165" lon="4.7544">
        <ele>177</ele>
        <time>2017-03-29T08:16:23Z</time>
      </trkpt>
      <trkpt lat="45.92162" lon="4.75447">
        <ele>177</ele>
        <time>2017-03-29T08:16:24Z</time>
      </trkpt>
      <trkpt lat="45.9216" lon="4.75454">
        <ele>176</ele>
        <time>2017-03-29T08:16:25Z</time>
      </trkpt>
      <trkpt lat="45.92157" lon="4.75461">
        <ele>176</ele>
        <time>2017-03-29T08:16:26Z</time>
      </trkpt>
      <trkpt lat="45.92154" lon="4.75468">
        <ele>176</ele>
        <time>2017-03-29T08:16:27Z</time>
      </trkpt>
      <trkpt lat="45.9215" lon="4.75475">
        <ele>176</ele>
        <time>2017-03-29T08:16:28Z</time>
      </trkpt>
      <trkpt lat="45.92147" lon="4.75483">
        <ele>176</ele>
        <time>2017-03-29T08:16:29Z</time>
      </trkpt>
      <trkpt lat="45.92144" lon="4.7549">
        <ele>176</ele>
        <time>2017-03-29T08:16:30Z</time>
      </trkpt>
      <trkpt lat="45.92141" lon="4.75497">
        <ele>175</ele>
        <time>2017-03-29T08:16:31Z</time>
      </trkpt>
      <trkpt lat="45.92137" lon="4.75505">
        <ele>174</ele>
        <time>2017-03-29T08:16:32Z</time>
      </trkpt>
      <trkpt lat="45.92133" lon="4.75511">
        <ele>174</ele>
        <time>2017-03-29T08:16:33Z</time>
      </trkpt>
      <trkpt lat="45.9213" lon="4.75518">
        <ele>174</ele>
        <time>2017-03-29T08:16:34Z</time>
      </trkpt>
      <trkpt lat="45.92127" lon="4.75525">
        <ele>174</ele>
        <time>2017-03-29T08:16:35Z</time>
      </trkpt>
      <trkpt lat="45.92124" lon="4.75531">
        <ele>174</ele>
        <time>2017-03-29T08:16:36Z</time>
      </trkpt>
      <trkpt lat="45.9212" lon="4.75538">
        <ele>174</ele>
        <time>2017-03-29T08:16:37Z</time>
      </trkpt>
      <trkpt lat="45.92117" lon="4.75544">
        <ele>174</ele>
        <time>2017-03-29T08:16:38Z</time>
      </trkpt>
      <trkpt lat="45.92114" lon="4.75551">
        <ele>174</ele>
        <time>2017-03-29T08:16:39Z</time>
      </trkpt>
      <trkpt lat="45.92112" lon="4.75558">
        <ele>174</ele>
        <time>2017-03-29T08:16:40Z</time>
      </trkpt>
      <trkpt lat="45.9211" lon="4.75565">
        <ele>174</ele>
        <time>2017-03-29T08:16:41Z</time>
      </trkpt>
      <trkpt lat="45.92109" lon="4.75572">
        <ele>174</ele>
        <time>2017-03-29T08:16:42Z</time>
      </trkpt>
      <trkpt lat="45.9211" lon="4.75579">
        <ele>174</ele>
        <time>2017-03-29T08:16:43Z</time>
      </trkpt>
      <trkpt lat="45.92113" lon="4.75586">
        <ele>174</ele>
        <time>2017-03-29T08:16:44Z</time>
      </trkpt>
      <trkpt lat="45.92116" lon="4.75592">
        <ele>174</ele>
        <time>2017-03-29T08:16:45Z</time>
      </trkpt>
      <trkpt lat="45.92121" lon="4.75596">
        <ele>174</ele>
        <time>2017-03-29T08:16:46Z</time>
      </trkpt>
      <trkpt lat="45.92125" lon="4.756">
        <ele>174</ele>
        <time>2017-03-29T08:16:47Z</time>
      </trkpt>
      <trkpt lat="45.9213" lon="4.75604">
        <ele>174</ele>
        <time>2017-03-29T08:16:48Z</time>
      </trkpt>
      <trkpt lat="45.92134" lon="4.75609">
        <ele>174</ele>
        <time>2017-03-29T08:16:49Z</time>
      </trkpt>
      <trkpt lat="45.92139" lon="4.75613">
        <ele>174</ele>
        <time>2017-03-29T08:16:50Z</time>
      </trkpt>
      <trkpt lat="45.92144" lon="4.75617">
        <ele>174</ele>
        <time>2017-03-29T08:16:51Z</time>
      </trkpt>
      <trkpt lat="45.92149" lon="4.75622">
        <ele>174</ele>
        <time>2017-03-29T08:16:52Z</time>
      </trkpt>
      <trkpt lat="45.92154" lon="4.75628">
        <ele>174</ele>
        <time>2017-03-29T08:16:53Z</time>
      </trkpt>
      <trkpt lat="45.92159" lon="4.75633">
        <ele>174</ele>
        <time>2017-03-29T08:16:54Z</time>
      </trkpt>
      <trkpt lat="45.92163" lon="4.75638">
        <ele>174</ele>
        <time>2017-03-29T08:16:55Z</time>
      </trkpt>
      <trkpt lat="45.92168" lon="4.75643">
        <ele>174</ele>
        <time>2017-03-29T08:16:56Z</time>
      </trkpt>
      <trkpt lat="45.92172" lon="4.75647">
        <ele>174</ele>
        <time>2017-03-29T08:16:57Z</time>
      </trkpt>
      <trkpt lat="45.92177" lon="4.75651">
        <ele>174</ele>
        <time>2017-03-29T08:16:58Z</time>
      </trkpt>
      <trkpt lat="45.92182" lon="4.75656">
        <ele>174</ele>
        <time>2017-03-29T08:16:59Z</time>
      </trkpt>
      <trkpt lat="45.92186" lon="4.7566">
        <ele>174</ele>
        <time>2017-03-29T08:17:00Z</time>
      </trkpt>
      <trkpt lat="45.92191" lon="4.75665">
        <ele>174</ele>
        <time>2017-03-29T08:17:01Z</time>
      </trkpt>
      <trkpt lat="45.92195" lon="4.75669">
        <ele>174</ele>
        <time>2017-03-29T08:17:02Z</time>
      </trkpt>
      <trkpt lat="45.922" lon="4.75673">
        <ele>174</ele>
        <time>2017-03-29T08:17:03Z</time>
      </trkpt>
      <trkpt lat="45.92204" lon="4.75678">
        <ele>174</ele>
        <time>2017-03-29T08:17:04Z</time>
      </trkpt>
      <trkpt lat="45.92209" lon="4.75683">
        <ele>174</ele>
        <time>2017-03-29T08:17:05Z</time>
      </trkpt>
      <trkpt lat="45.92213" lon="4.75688">
        <ele>174</ele>
        <time>2017-03-29T08:17:06Z</time>
      </trkpt>
      <trkpt lat="45.92218" lon="4.75693">
        <ele>174</ele>
        <time>2017-03-29T08:17:07Z</time>
      </trkpt>
      <trkpt lat="45.92222" lon="4.75698">
        <ele>174</ele>
        <time>2017-03-29T08:17:08Z</time>
      </trkpt>
      <trkpt lat="45.92226" lon="4.75703">
        <ele>174</ele>
        <time>2017-03-29T08:17:09Z</time>
      </trkpt>
      <trkpt lat="45.9223" lon="4.75708">
        <ele>174</ele>
        <time>2017-03-29T08:17:10Z</time>
      </trkpt>
      <trkpt lat="45.92234" lon="4.75713">
        <ele>174</ele>
        <time>2017-03-29T08:17:11Z</time>
      </trkpt>
      <trkpt lat="45.92237" lon="4.75719">
        <ele>174</ele>
        <time>2017-03-29T08:17:12Z</time>
      </trkpt>
      <trkpt lat="45.9224" lon="4.75726">
        <ele>174</ele>
        <time>2017-03-29T08:17:13Z</time>
      </trkpt>
      <trkpt lat="45.92242" lon="4.75732">
        <ele>174</ele>
        <time>2017-03-29T08:17:14Z</time>
      </trkpt>
      <trkpt lat="45.92244" lon="4.75739">
        <ele>174</ele>
        <time>2017-03-29T08:17:15Z</time>
      </trkpt>
      <trkpt lat="45.92246" lon="4.75747">
        <ele>174</ele>
        <time>2017-03-29T08:17:16Z</time>
      </trkpt>
      <trkpt lat="45.92247" lon="4.75753">
        <ele>174</ele>
        <time>2017-03-29T08:17:17Z</time>
      </trkpt>
      <trkpt lat="45.92249" lon="4.75761">
        <ele>174</ele>
        <time>2017-03-29T08:17:18Z</time>
      </trkpt>
      <trkpt lat="45.9225" lon="4.75768">
        <ele>174</ele>
        <time>2017-03-29T08:17:19Z</time>
      </trkpt>
      <trkpt lat="45.92252" lon="4.75775">
        <ele>174</ele>
        <time>2017-03-29T08:17:20Z</time>
      </trkpt>
      <trkpt lat="45.92253" lon="4.75783">
        <ele>174</ele>
        <time>2017-03-29T08:17:21Z</time>
      </trkpt>
      <trkpt lat="45.92255" lon="4.7579">
        <ele>174</ele>
        <time>2017-03-29T08:17:22Z</time>
      </trkpt>
      <trkpt lat="45.92256" lon="4.75797">
        <ele>174</ele>
        <time>2017-03-29T08:17:23Z</time>
      </trkpt>
      <trkpt lat="45.92259" lon="4.75803">
        <ele>174</ele>
        <time>2017-03-29T08:17:24Z</time>
      </trkpt>
      <trkpt lat="45.92262" lon="4.7581">
        <ele>174</ele>
        <time>2017-03-29T08:17:25Z</time>
      </trkpt>
      <trkpt lat="45.92266" lon="4.75817">
        <ele>174</ele>
        <time>2017-03-29T08:17:26Z</time>
      </trkpt>
      <trkpt lat="45.9227" lon="4.75823">
        <ele>174</ele>
        <time>2017-03-29T08:17:27Z</time>
      </trkpt>
      <trkpt lat="45.92275" lon="4.75828">
        <ele>174</ele>
        <time>2017-03-29T08:17:28Z</time>
      </trkpt>
      <trkpt lat="45.92279" lon="4.75833">
        <ele>174</ele>
        <time>2017-03-29T08:17:29Z</time>
      </trkpt>
      <trkpt lat="45.92285" lon="4.75838">
        <ele>173</ele>
        <time>2017-03-29T08:17:30Z</time>
      </trkpt>
      <trkpt lat="45.9229" lon="4.75841">
        <ele>173</ele>
        <time>2017-03-29T08:17:31Z</time>
      </trkpt>
      <trkpt lat="45.92295" lon="4.75845">
        <ele>173</ele>
        <time>2017-03-29T08:17:32Z</time>
      </trkpt>
      <trkpt lat="45.92301" lon="4.75848">
        <ele>173</ele>
        <time>2017-03-29T08:17:33Z</time>
      </trkpt>
      <trkpt lat="45.92306" lon="4.75851">
        <ele>173</ele>
        <time>2017-03-29T08:17:34Z</time>
      </trkpt>
      <trkpt lat="45.92312" lon="4.75854">
        <ele>173</ele>
        <time>2017-03-29T08:17:35Z</time>
      </trkpt>
      <trkpt lat="45.92317" lon="4.75858">
        <ele>173</ele>
        <time>2017-03-29T08:17:36Z</time>
      </trkpt>
      <trkpt lat="45.92323" lon="4.75861">
        <ele>173</ele>
        <time>2017-03-29T08:17:37Z</time>
      </trkpt>
      <trkpt lat="45.92328" lon="4.75864">
        <ele>173</ele>
        <time>2017-03-29T08:17:38Z</time>
      </trkpt>
      <trkpt lat="45.92334" lon="4.75868">
        <ele>173</ele>
        <time>2017-03-29T08:17:39Z</time>
      </trkpt>
      <trkpt lat="45.92339" lon="4.75871">
        <ele>173</ele>
        <time>2017-03-29T08:17:40Z</time>
      </trkpt>
      <trkpt lat="45.92345" lon="4.75875">
        <ele>173</ele>
        <time>2017-03-29T08:17:41Z</time>
      </trkpt>
      <trkpt lat="45.9235" lon="4.75878">
        <ele>173</ele>
        <time>2017-03-29T08:17:42Z</time>
      </trkpt>
      <trkpt lat="45.92356" lon="4.75882">
        <ele>173</ele>
        <time>2017-03-29T08:17:43Z</time>
      </trkpt>
      <trkpt lat="45.92361" lon="4.75886">
        <ele>173</ele>
        <time>2017-03-29T08:17:44Z</time>
      </trkpt>
      <trkpt lat="45.92367" lon="4.75889">
        <ele>173</ele>
        <time>2017-03-29T08:17:45Z</time>
      </trkpt>
      <trkpt lat="45.92372" lon="4.75893">
        <ele>173</ele>
        <time>2017-03-29T08:17:46Z</time>
      </trkpt>
      <trkpt lat="45.92377" lon="4.75896">
        <ele>173</ele>
        <time>2017-03-29T08:17:47Z</time>
      </trkpt>
      <trkpt lat="45.92382" lon="4.759">
        <ele>173</ele>
        <time>2017-03-29T08:17:48Z</time>
      </trkpt>
      <trkpt lat="45.92386" lon="4.75903">
        <ele>173</ele>
        <time>2017-03-29T08:17:49Z</time>
      </trkpt>
      <trkpt lat="45.92391" lon="4.75906">
        <ele>173</ele>
        <time>2017-03-29T08:17:50Z</time>
      </trkpt>
      <trkpt lat="45.92396" lon="4.75909">
        <ele>173</ele>
        <time>2017-03-29T08:17:51Z</time>
      </trkpt>
      <trkpt lat="45.924" lon="4.75912">
        <ele>172</ele>
        <time>2017-03-29T08:17:52Z</time>
      </trkpt>
      <trkpt lat="45.92405" lon="4.75915">
        <ele>172</ele>
        <time>2017-03-29T08:17:53Z</time>
      </trkpt>
      <trkpt lat="45.9241" lon="4.75919">
        <ele>172</ele>
        <time>2017-03-29T08:17:54Z</time>
      </trkpt>
      <trkpt lat="45.92415" lon="4.75922">
        <ele>172</ele>
        <time>2017-03-29T08:17:55Z</time>
      </trkpt>
      <trkpt lat="45.9242" lon="4.75925">
        <ele>172</ele>
        <time>2017-03-29T08:17:56Z</time>
      </trkpt>
      <trkpt lat="45.92425" lon="4.75929">
        <ele>172</ele>
        <time>2017-03-29T08:17:57Z</time>
      </trkpt>
      <trkpt lat="45.9243" lon="4.75933">
        <ele>172</ele>
        <time>2017-03-29T08:17:58Z</time>
      </trkpt>
      <trkpt lat="45.92434" lon="4.75936">
        <ele>172</ele>
        <time>2017-03-29T08:17:59Z</time>
      </trkpt>
      <trkpt lat="45.92439" lon="4.75939">
        <ele>172</ele>
        <time>2017-03-29T08:18:00Z</time>
      </trkpt>
      <trkpt lat="45.92444" lon="4.75942">
        <ele>172</ele>
        <time>2017-03-29T08:18:01Z</time>
      </trkpt>
      <trkpt lat="45.92448" lon="4.75946">
        <ele>172</ele>
        <time>2017-03-29T08:18:02Z</time>
      </trkpt>
      <trkpt lat="45.92453" lon="4.75949">
        <ele>172</ele>
        <time>2017-03-29T08:18:03Z</time>
      </trkpt>
      <trkpt lat="45.92457" lon="4.75952">
        <ele>172</ele>
        <time>2017-03-29T08:18:04Z</time>
      </trkpt>
      <trkpt lat="45.92461" lon="4.75956">
        <ele>172</ele>
        <time>2017-03-29T08:18:05Z</time>
      </trkpt>
      <trkpt lat="45.92466" lon="4.75959">
        <ele>172</ele>
        <time>2017-03-29T08:18:06Z</time>
      </trkpt>
      <trkpt lat="45.9247" lon="4.75962">
        <ele>172</ele>
        <time>2017-03-29T08:18:07Z</time>
      </trkpt>
      <trkpt lat="45.92474" lon="4.75965">
        <ele>172</ele>
        <time>2017-03-29T08:18:08Z</time>
      </trkpt>
      <trkpt lat="45.92479" lon="4.75968">
        <ele>172</ele>
        <time>2017-03-29T08:18:09Z</time>
      </trkpt>
      <trkpt lat="45.92483" lon="4.75971">
        <ele>172</ele>
        <time>2017-03-29T08:18:10Z</time>
      </trkpt>
      <trkpt lat="45.92487" lon="4.75975">
        <ele>172</ele>
        <time>2017-03-29T08:18:11Z</time>
      </trkpt>
      <trkpt lat="45.92491" lon="4.75978">
        <ele>172</ele>
        <time>2017-03-29T08:18:12Z</time>
      </trkpt>
      <trkpt lat="45.92495" lon="4.75981">
        <ele>172</ele>
        <time>2017-03-29T08:18:13Z</time>
      </trkpt>
      <trkpt lat="45.92499" lon="4.75985">
        <ele>172</ele>
        <time>2017-03-29T08:18:14Z</time>
      </trkpt>
      <trkpt lat="45.92503" lon="4.75988">
        <ele>172</ele>
        <time>2017-03-29T08:18:15Z</time>
      </trkpt>
      <trkpt lat="45.92507" lon="4.75992">
        <ele>172</ele>
        <time>2017-03-29T08:18:16Z</time>
      </trkpt>
      <trkpt lat="45.92511" lon="4.75995">
        <ele>172</ele>
        <time>2017-03-29T08:18:17Z</time>
      </trkpt>
      <trkpt lat="45.92515" lon="4.75998">
        <ele>172</ele>
        <time>2017-03-29T08:18:18Z</time>
      </trkpt>
      <trkpt lat="45.92519" lon="4.76001">
        <ele>172</ele>
        <time>2017-03-29T08:18:19Z</time>
      </trkpt>
      <trkpt lat="45.92524" lon="4.76004">
        <ele>172</ele>
        <time>2017-03-29T08:18:20Z</time>
      </trkpt>
      <trkpt lat="45.92528" lon="4.76007">
        <ele>172</ele>
        <time>2017-03-29T08:18:21Z</time>
      </trkpt>
      <trkpt lat="45.92532" lon="4.7601">
        <ele>172</ele>
        <time>2017-03-29T08:18:22Z</time>
      </trkpt>
      <trkpt lat="45.92536" lon="4.76013">
        <ele>172</ele>
        <time>2017-03-29T08:18:23Z</time>
      </trkpt>
      <trkpt lat="45.92541" lon="4.76017">
        <ele>172</ele>
        <time>2017-03-29T08:18:24Z</time>
      </trkpt>
      <trkpt lat="45.92545" lon="4.7602">
        <ele>172</ele>
        <time>2017-03-29T08:18:25Z</time>
      </trkpt>
      <trkpt lat="45.92549" lon="4.76024">
        <ele>172</ele>
        <time>2017-03-29T08:18:26Z</time>
      </trkpt>
      <trkpt lat="45.92554" lon="4.76027">
        <ele>172</ele>
        <time>2017-03-29T08:18:27Z</time>
      </trkpt>
      <trkpt lat="45.92558" lon="4.76031">
        <ele>172</ele>
        <time>2017-03-29T08:18:28Z</time>
      </trkpt>
      <trkpt lat="45.92562" lon="4.76034">
        <ele>172</ele>
        <time>2017-03-29T08:18:29Z</time>
      </trkpt>
      <trkpt lat="45.92567" lon="4.76038">
        <ele>172</ele>
        <time>2017-03-29T08:18:30Z</time>
      </trkpt>
      <trkpt lat="45.92572" lon="4.76041">
        <ele>172</ele>
        <time>2017-03-29T08:18:31Z</time>
      </trkpt>
      <trkpt lat="45.92576" lon="4.76044">
        <ele>171</ele>
        <time>2017-03-29T08:18:32Z</time>
      </trkpt>
      <trkpt lat="45.92581" lon="4.76047">
        <ele>171</ele>
        <time>2017-03-29T08:18:33Z</time>
      </trkpt>
      <trkpt lat="45.92586" lon="4.76051">
        <ele>171</ele>
        <time>2017-03-29T08:18:34Z</time>
      </trkpt>
      <trkpt lat="45.92591" lon="4.76054">
        <ele>171</ele>
        <time>2017-03-29T08:18:35Z</time>
      </trkpt>
      <trkpt lat="45.92596" lon="4.76057">
        <ele>171</ele>
        <time>2017-03-29T08:18:36Z</time>
      </trkpt>
      <trkpt lat="45.92601" lon="4.76061">
        <ele>171</ele>
        <time>2017-03-29T08:18:37Z</time>
      </trkpt>
      <trkpt lat="45.92606" lon="4.76064">
        <ele>171</ele>
        <time>2017-03-29T08:18:38Z</time>
      </trkpt>
      <trkpt lat="45.92611" lon="4.76068">
        <ele>171</ele>
        <time>2017-03-29T08:18:39Z</time>
      </trkpt>
      <trkpt lat="45.92616" lon="4.76071">
        <ele>171</ele>
        <time>2017-03-29T08:18:40Z</time>
      </trkpt>
      <trkpt lat="45.92621" lon="4.76075">
        <ele>171</ele>
        <time>2017-03-29T08:18:41Z</time>
      </trkpt>
      <trkpt lat="45.92627" lon="4.76079">
        <ele>170</ele>
        <time>2017-03-29T08:18:42Z</time>
      </trkpt>
      <trkpt lat="45.92632" lon="4.76083">
        <ele>170</ele>
        <time>2017-03-29T08:18:43Z</time>
      </trkpt>
      <trkpt lat="45.92638" lon="4.76087">
        <ele>170</ele>
        <time>2017-03-29T08:18:44Z</time>
      </trkpt>
      <trkpt lat="45.92644" lon="4.76091">
        <ele>170</ele>
        <time>2017-03-29T08:18:45Z</time>
      </trkpt>
      <trkpt lat="45.92649" lon="4.76094">
        <ele>170</ele>
        <time>2017-03-29T08:18:46Z</time>
      </trkpt>
      <trkpt lat="45.92656" lon="4.76098">
        <ele>170</ele>
        <time>2017-03-29T08:18:47Z</time>
      </trkpt>
      <trkpt lat="45.92662" lon="4.76102">
        <ele>170</ele>
        <time>2017-03-29T08:18:48Z</time>
      </trkpt>
      <trkpt lat="45.92668" lon="4.76106">
        <ele>169</ele>
        <time>2017-03-29T08:18:49Z</time>
      </trkpt>
      <trkpt lat="45.92675" lon="4.76111">
        <ele>169</ele>
        <time>2017-03-29T08:18:50Z</time>
      </trkpt>
      <trkpt lat="45.92682" lon="4.76115">
        <ele>169</ele>
        <time>2017-03-29T08:18:51Z</time>
      </trkpt>
      <trkpt lat="45.92689" lon="4.76119">
        <ele>169</ele>
        <time>2017-03-29T08:18:52Z</time>
      </trkpt>
      <trkpt lat="45.92695" lon="4.76123">
        <ele>169</ele>
        <time>2017-03-29T08:18:53Z</time>
      </trkpt>
      <trkpt lat="45.92702" lon="4.76128">
        <ele>169</ele>
        <time>2017-03-29T08:18:54Z</time>
      </trkpt>
      <trkpt lat="45.92708" lon="4.76132">
        <ele>169</ele>
        <time>2017-03-29T08:18:55Z</time>
      </trkpt>
      <trkpt lat="45.92714" lon="4.76137">
        <ele>168</ele>
        <time>2017-03-29T08:18:56Z</time>
      </trkpt>
      <trkpt lat="45.9272" lon="4.76142">
        <ele>168</ele>
        <time>2017-03-29T08:18:57Z</time>
      </trkpt>
      <trkpt lat="45.92727" lon="4.76146">
        <ele>168</ele>
        <time>2017-03-29T08:18:58Z</time>
      </trkpt>
      <trkpt lat="45.92733" lon="4.76151">
        <ele>168</ele>
        <time>2017-03-29T08:18:59Z</time>
      </trkpt>
      <trkpt lat="45.9274" lon="4.76156">
        <ele>168</ele>
        <time>2017-03-29T08:19:00Z</time>
      </trkpt>
      <trkpt lat="45.92745" lon="4.7616">
        <ele>167</ele>
        <time>2017-03-29T08:19:01Z</time>
      </trkpt>
      <trkpt lat="45.92751" lon="4.76165">
        <ele>167</ele>
        <time>2017-03-29T08:19:02Z</time>
      </trkpt>
      <trkpt lat="45.92756" lon="4.76169">
        <ele>167</ele>
        <time>2017-03-29T08:19:03Z</time>
      </trkpt>
      <trkpt lat="45.92762" lon="4.76173">
        <ele>167</ele>
        <time>2017-03-29T08:19:04Z</time>
      </trkpt>
      <trkpt lat="45.92766" lon="4.76177">
        <ele>167</ele>
        <time>2017-03-29T08:19:05Z</time>
      </trkpt>
      <trkpt lat="45.92771" lon="4.76182">
        <ele>167</ele>
        <time>2017-03-29T08:19:06Z</time>
      </trkpt>
      <trkpt lat="45.92776" lon="4.76186">
        <ele>168</ele>
        <time>2017-03-29T08:19:07Z</time>
      </trkpt>
      <trkpt lat="45.9278" lon="4.7619">
        <ele>168</ele>
        <time>2017-03-29T08:19:08Z</time>
      </trkpt>
      <trkpt lat="45.92784" lon="4.76194">
        <ele>168</ele>
        <time>2017-03-29T08:19:09Z</time>
      </trkpt>
      <trkpt lat="45.92789" lon="4.76199">
        <ele>168</ele>
        <time>2017-03-29T08:19:10Z</time>
      </trkpt>
      <trkpt lat="45.92794" lon="4.76203">
        <ele>168</ele>
        <time>2017-03-29T08:19:11Z</time>
      </trkpt>
      <trkpt lat="45.92798" lon="4.76208">
        <ele>168</ele>
        <time>2017-03-29T08:19:12Z</time>
      </trkpt>
      <trkpt lat="45.92803" lon="4.76214">
        <ele>168</ele>
        <time>2017-03-29T08:19:13Z</time>
      </trkpt>
      <trkpt lat="45.92808" lon="4.76219">
        <ele>168</ele>
        <time>2017-03-29T08:19:14Z</time>
      </trkpt>
      <trkpt lat="45.92813" lon="4.76224">
        <ele>168</ele>
        <time>2017-03-29T08:19:15Z</time>
      </trkpt>
      <trkpt lat="45.92818" lon="4.76229">
        <ele>168</ele>
        <time>2017-03-29T08:19:16Z</time>
      </trkpt>
      <trkpt lat="45.92823" lon="4.76234">
        <ele>168</ele>
        <time>2017-03-29T08:19:17Z</time>
      </trkpt>
      <trkpt lat="45.92828" lon="4.76239">
        <ele>168</ele>
        <time>2017-03-29T08:19:18Z</time>
      </trkpt>
      <trkpt lat="45.92833" lon="4.76244">
        <ele>169</ele>
        <time>2017-03-29T08:19:19Z</time>
      </trkpt>
      <trkpt lat="45.92838" lon="4.76249">
        <ele>169</ele>
        <time>2017-03-29T08:19:20Z</time>
      </trkpt>
      <trkpt lat="45.92844" lon="4.76254">
        <ele>169</ele>
        <time>2017-03-29T08:19:21Z</time>
      </trkpt>
      <trkpt lat="45.92849" lon="4.76259">
        <ele>169</ele>
        <time>2017-03-29T08:19:22Z</time>
      </trkpt>
      <trkpt lat="45.92854" lon="4.76264">
        <ele>169</ele>
        <time>2017-03-29T08:19:23Z</time>
      </trkpt>
      <trkpt lat="45.92859" lon="4.76269">
        <ele>169</ele>
        <time>2017-03-29T08:19:24Z</time>
      </trkpt>
      <trkpt lat="45.92864" lon="4.76274">
        <ele>169</ele>
        <time>2017-03-29T08:19:25Z</time>
      </trkpt>
      <trkpt lat="45.92869" lon="4.7628">
        <ele>169</ele>
        <time>2017-03-29T08:19:26Z</time>
      </trkpt>
      <trkpt lat="45.92874" lon="4.76285">
        <ele>169</ele>
        <time>2017-03-29T08:19:27Z</time>
      </trkpt>
      <trkpt lat="45.9288" lon="4.7629">
        <ele>169</ele>
        <time>2017-03-29T08:19:28Z</time>
      </trkpt>
      <trkpt lat="45.92885" lon="4.76295">
        <ele>169</ele>
        <time>2017-03-29T08:19:29Z</time>
      </trkpt>
      <trkpt lat="45.9289" lon="4.763">
        <ele>169</ele>
        <time>2017-03-29T08:19:30Z</time>
      </trkpt>
      <trkpt lat="45.92895" lon="4.76304">
        <ele>169</ele>
        <time>2017-03-29T08:19:31Z</time>
      </trkpt>
      <trkpt lat="45.92899" lon="4.76309">
        <ele>169</ele>
        <time>2017-03-29T08:19:32Z</time>
      </trkpt>
      <trkpt lat="45.92903" lon="4.76314">
        <ele>169</ele>
        <time>2017-03-29T08:19:33Z</time>
      </trkpt>
      <trkpt lat="45.92907" lon="4.76319">
        <ele>169</ele>
        <time>2017-03-29T08:19:34Z</time>
      </trkpt>
      <trkpt lat="45.92912" lon="4.76324">
        <ele>169</ele>
        <time>2017-03-29T08:19:35Z</time>
      </trkpt>
      <trkpt lat="45.92917" lon="4.76329">
        <ele>169</ele>
        <time>2017-03-29T08:19:36Z</time>
      </trkpt>
      <trkpt lat="45.92922" lon="4.76334">
        <ele>169</ele>
        <time>2017-03-29T08:19:37Z</time>
      </trkpt>
      <trkpt lat="45.92927" lon="4.76338">
        <ele>169</ele>
        <time>2017-03-29T08:19:38Z</time>
      </trkpt>
      <trkpt lat="45.92932" lon="4.76343">
        <ele>169</ele>
        <time>2017-03-29T08:19:39Z</time>
      </trkpt>
      <trkpt lat="45.92937" lon="4.76348">
        <ele>169</ele>
        <time>2017-03-29T08:19:40Z</time>
      </trkpt>
      <trkpt lat="45.92942" lon="4.76354">
        <ele>169</ele>
        <time>2017-03-29T08:19:41Z</time>
      </trkpt>
      <trkpt lat="45.92947" lon="4.76359">
        <ele>169</ele>
        <time>2017-03-29T08:19:42Z</time>
      </trkpt>
      <trkpt lat="45.92952" lon="4.76364">
        <ele>169</ele>
        <time>2017-03-29T08:19:43Z</time>
      </trkpt>
      <trkpt lat="45.92957" lon="4.76369">
        <ele>169</ele>
        <time>2017-03-29T08:19:44Z</time>
      </trkpt>
      <trkpt lat="45.92962" lon="4.76374">
        <ele>169</ele>
        <time>2017-03-29T08:19:45Z</time>
      </trkpt>
      <trkpt lat="45.92967" lon="4.76379">
        <ele>169</ele>
        <time>2017-03-29T08:19:46Z</time>
      </trkpt>
      <trkpt lat="45.92972" lon="4.76384">
        <ele>169</ele>
        <time>2017-03-29T08:19:47Z</time>
      </trkpt>
      <trkpt lat="45.92977" lon="4.76388">
        <ele>169</ele>
        <time>2017-03-29T08:19:48Z</time>
      </trkpt>
      <trkpt lat="45.92982" lon="4.76393">
        <ele>169</ele>
        <time>2017-03-29T08:19:49Z</time>
      </trkpt>
      <trkpt lat="45.92987" lon="4.76398">
        <ele>169</ele>
        <time>2017-03-29T08:19:50Z</time>
      </trkpt>
      <trkpt lat="45.92991" lon="4.76403">
        <ele>169</ele>
        <time>2017-03-29T08:19:51Z</time>
      </trkpt>
      <trkpt lat="45.92996" lon="4.76407">
        <ele>169</ele>
        <time>2017-03-29T08:19:52Z</time>
      </trkpt>
      <trkpt lat="45.93001" lon="4.76412">
        <ele>169</ele>
        <time>2017-03-29T08:19:53Z</time>
      </trkpt>
      <trkpt lat="45.93005" lon="4.76417">
        <ele>169</ele>
        <time>2017-03-29T08:19:54Z</time>
      </trkpt>
      <trkpt lat="45.9301" lon="4.76422">
        <ele>169</ele>
        <time>2017-03-29T08:19:55Z</time>
      </trkpt>
      <trkpt lat="45.93015" lon="4.76426">
        <ele>169</ele>
        <time>2017-03-29T08:19:56Z</time>
      </trkpt>
      <trkpt lat="45.9302" lon="4.76431">
        <ele>169</ele>
        <time>2017-03-29T08:19:57Z</time>
      </trkpt>
      <trkpt lat="45.93025" lon="4.76436">
        <ele>169</ele>
        <time>2017-03-29T08:19:58Z</time>
      </trkpt>
      <trkpt lat="45.9303" lon="4.76441">
        <ele>169</ele>
        <time>2017-03-29T08:19:59Z</time>
      </trkpt>
      <trkpt lat="45.93035" lon="4.76446">
        <ele>169</ele>
        <time>2017-03-29T08:20:00Z</time>
      </trkpt>
      <trkpt lat="45.9304" lon="4.76451">
        <ele>169</ele>
        <time>2017-03-29T08:20:01Z</time>
      </trkpt>
      <trkpt lat="45.93045" lon="4.76455">
        <ele>169</ele>
        <time>2017-03-29T08:20:02Z</time>
      </trkpt>
      <trkpt lat="45.9305" lon="4.7646">
        <ele>169</ele>
        <time>2017-03-29T08:20:03Z</time>
      </trkpt>
      <trkpt lat="45.93054" lon="4.76464">
        <ele>169</ele>
        <time>2017-03-29T08:20:04Z</time>
      </trkpt>
      <trkpt lat="45.93059" lon="4.76468">
        <ele>169</ele>
        <time>2017-03-29T08:20:05Z</time>
      </trkpt>
      <trkpt lat="45.93063" lon="4.76473">
        <ele>169</ele>
        <time>2017-03-29T08:20:06Z</time>
      </trkpt>
      <trkpt lat="45.93068" lon="4.76478">
        <ele>169</ele>
        <time>2017-03-29T08:20:07Z</time>
      </trkpt>
      <trkpt lat="45.93073" lon="4.76483">
        <ele>169</ele>
        <time>2017-03-29T08:20:08Z</time>
      </trkpt>
      <trkpt lat="45.93077" lon="4.76488">
        <ele>170</ele>
        <time>2017-03-29T08:20:09Z</time>
      </trkpt>
      <trkpt lat="45.93082" lon="4.76492">
        <ele>170</ele>
        <time>2017-03-29T08:20:10Z</time>
      </trkpt>
      <trkpt lat="45.93087" lon="4.76497">
        <ele>170</ele>
        <time>2017-03-29T08:20:11Z</time>
      </trkpt>
      <trkpt lat="45.93092" lon="4.76502">
        <ele>170</ele>
        <time>2017-03-29T08:20:12Z</time>
      </trkpt>
      <trkpt lat="45.93097" lon="4.76507">
        <ele>170</ele>
        <time>2017-03-29T08:20:13Z</time>
      </trkpt>
      <trkpt lat="45.93102" lon="4.76512">
        <ele>170</ele>
        <time>2017-03-29T08:20:14Z</time>
      </trkpt>
      <trkpt lat="45.93107" lon="4.76517">
        <ele>170</ele>
        <time>2017-03-29T08:20:15Z</time>
      </trkpt>
      <trkpt lat="45.93112" lon="4.76521">
        <ele>170</ele>
        <time>2017-03-29T08:20:16Z</time>
      </trkpt>
      <trkpt lat="45.93116" lon="4.76526">
        <ele>170</ele>
        <time>2017-03-29T08:20:17Z</time>
      </trkpt>
      <trkpt lat="45.93121" lon="4.7653">
        <ele>170</ele>
        <time>2017-03-29T08:20:18Z</time>
      </trkpt>
      <trkpt lat="45.93126" lon="4.76534">
        <ele>170</ele>
        <time>2017-03-29T08:20:19Z</time>
      </trkpt>
      <trkpt lat="45.93131" lon="4.76539">
        <ele>170</ele>
        <time>2017-03-29T08:20:20Z</time>
      </trkpt>
      <trkpt lat="45.93136" lon="4.76544">
        <ele>170</ele>
        <time>2017-03-29T08:20:21Z</time>
      </trkpt>
      <trkpt lat="45.9314" lon="4.76549">
        <ele>170</ele>
        <time>2017-03-29T08:20:22Z</time>
      </trkpt>
      <trkpt lat="45.93144" lon="4.76553">
        <ele>170</ele>
        <time>2017-03-29T08:20:23Z</time>
      </trkpt>
      <trkpt lat="45.93148" lon="4.76558">
        <ele>170</ele>
        <time>2017-03-29T08:20:24Z</time>
      </trkpt>
      <trkpt lat="45.93152" lon="4.76563">
        <ele>170</ele>
        <time>2017-03-29T08:20:25Z</time>
      </trkpt>
      <trkpt lat="45.93156" lon="4.76567">
        <ele>170</ele>
        <time>2017-03-29T08:20:26Z</time>
      </trkpt>
      <trkpt lat="45.9316" lon="4.76572">
        <ele>170</ele>
        <time>2017-03-29T08:20:27Z</time>
      </trkpt>
      <trkpt lat="45.93164" lon="4.76576">
        <ele>171</ele>
        <time>2017-03-29T08:20:28Z</time>
      </trkpt>
      <trkpt lat="45.93169" lon="4.76581">
        <ele>171</ele>
        <time>2017-03-29T08:20:29Z</time>
      </trkpt>
      <trkpt lat="45.93173" lon="4.76585">
        <ele>171</ele>
        <time>2017-03-29T08:20:30Z</time>
      </trkpt>
      <trkpt lat="45.93178" lon="4.7659">
        <ele>171</ele>
        <time>2017-03-29T08:20:31Z</time>
      </trkpt>
      <trkpt lat="45.93183" lon="4.76595">
        <ele>171</ele>
        <time>2017-03-29T08:20:32Z</time>
      </trkpt>
      <trkpt lat="45.93188" lon="4.76599">
        <ele>171</ele>
        <time>2017-03-29T08:20:33Z</time>
      </trkpt>
      <trkpt lat="45.93194" lon="4.76603">
        <ele>170</ele>
        <time>2017-03-29T08:20:34Z</time>
      </trkpt>
      <trkpt lat="45.93199" lon="4.76608">
        <ele>170</ele>
        <time>2017-03-29T08:20:35Z</time>
      </trkpt>
      <trkpt lat="45.93204" lon="4.76612">
        <ele>170</ele>
        <time>2017-03-29T08:20:36Z</time>
      </trkpt>
      <trkpt lat="45.93208" lon="4.76617">
        <ele>170</ele>
        <time>2017-03-29T08:20:37Z</time>
      </trkpt>
      <trkpt lat="45.93213" lon="4.76622">
        <ele>170</ele>
        <time>2017-03-29T08:20:38Z</time>
      </trkpt>
      <trkpt lat="45.93218" lon="4.76626">
        <ele>170</ele>
        <time>2017-03-29T08:20:39Z</time>
      </trkpt>
      <trkpt lat="45.93222" lon="4.76631">
        <ele>170</ele>
        <time>2017-03-29T08:20:40Z</time>
      </trkpt>
      <trkpt lat="45.93227" lon="4.76636">
        <ele>171</ele>
        <time>2017-03-29T08:20:41Z</time>
      </trkpt>
      <trkpt lat="45.93231" lon="4.7664">
        <ele>171</ele>
        <time>2017-03-29T08:20:42Z</time>
      </trkpt>
      <trkpt lat="45.93236" lon="4.76645">
        <ele>171</ele>
        <time>2017-03-29T08:20:43Z</time>
      </trkpt>
      <trkpt lat="45.9324" lon="4.7665">
        <ele>171</ele>
        <time>2017-03-29T08:20:44Z</time>
      </trkpt>
      <trkpt lat="45.93244" lon="4.76655">
        <ele>171</ele>
        <time>2017-03-29T08:20:45Z</time>
      </trkpt>
      <trkpt lat="45.93249" lon="4.7666">
        <ele>172</ele>
        <time>2017-03-29T08:20:46Z</time>
      </trkpt>
      <trkpt lat="45.93254" lon="4.76665">
        <ele>172</ele>
        <time>2017-03-29T08:20:47Z</time>
      </trkpt>
      <trkpt lat="45.93259" lon="4.7667">
        <ele>172</ele>
        <time>2017-03-29T08:20:48Z</time>
      </trkpt>
      <trkpt lat="45.93264" lon="4.76674">
        <ele>172</ele>
        <time>2017-03-29T08:20:49Z</time>
      </trkpt>
      <trkpt lat="45.93269" lon="4.76679">
        <ele>172</ele>
        <time>2017-03-29T08:20:50Z</time>
      </trkpt>
      <trkpt lat="45.93274" lon="4.76684">
        <ele>172</ele>
        <time>2017-03-29T08:20:51Z</time>
      </trkpt>
      <trkpt lat="45.93278" lon="4.76689">
        <ele>172</ele>
        <time>2017-03-29T08:20:52Z</time>
      </trkpt>
      <trkpt lat="45.93283" lon="4.76694">
        <ele>172</ele>
        <time>2017-03-29T08:20:53Z</time>
      </trkpt>
      <trkpt lat="45.93287" lon="4.76699">
        <ele>172</ele>
        <time>2017-03-29T08:20:54Z</time>
      </trkpt>
      <trkpt lat="45.93292" lon="4.76703">
        <ele>172</ele>
        <time>2017-03-29T08:20:55Z</time>
      </trkpt>
      <trkpt lat="45.93297" lon="4.76708">
        <ele>172</ele>
        <time>2017-03-29T08:20:56Z</time>
      </trkpt>
      <trkpt lat="45.93302" lon="4.76712">
        <ele>172</ele>
        <time>2017-03-29T08:20:57Z</time>
      </trkpt>
      <trkpt lat="45.93307" lon="4.76717">
        <ele>172</ele>
        <time>2017-03-29T08:20:58Z</time>
      </trkpt>
      <trkpt lat="45.93311" lon="4.76721">
        <ele>172</ele>
        <time>2017-03-29T08:20:59Z</time>
      </trkpt>
      <trkpt lat="45.93316" lon="4.76725">
        <ele>172</ele>
        <time>2017-03-29T08:21:00Z</time>
      </trkpt>
      <trkpt lat="45.93321" lon="4.76729">
        <ele>172</ele>
        <time>2017-03-29T08:21:01Z</time>
      </trkpt>
      <trkpt lat="45.93325" lon="4.76733">
        <ele>172</ele>
        <time>2017-03-29T08:21:02Z</time>
      </trkpt>
      <trkpt lat="45.9333" lon="4.76737">
        <ele>172</ele>
        <time>2017-03-29T08:21:03Z</time>
      </trkpt>
      <trkpt lat="45.93335" lon="4.76741">
        <ele>173</ele>
        <time>2017-03-29T08:21:04Z</time>
      </trkpt>
      <trkpt lat="45.9334" lon="4.76746">
        <ele>173</ele>
        <time>2017-03-29T08:21:05Z</time>
      </trkpt>
      <trkpt lat="45.93344" lon="4.76751">
        <ele>173</ele>
        <time>2017-03-29T08:21:06Z</time>
      </trkpt>
      <trkpt lat="45.93349" lon="4.76756">
        <ele>172</ele>
        <time>2017-03-29T08:21:07Z</time>
      </trkpt>
      <trkpt lat="45.93354" lon="4.76761">
        <ele>172</ele>
        <time>2017-03-29T08:21:08Z</time>
      </trkpt>
      <trkpt lat="45.93358" lon="4.76766">
        <ele>172</ele>
        <time>2017-03-29T08:21:09Z</time>
      </trkpt>
      <trkpt lat="45.93363" lon="4.76771">
        <ele>172</ele>
        <time>2017-03-29T08:21:10Z</time>
      </trkpt>
      <trkpt lat="45.93367" lon="4.76776">
        <ele>172</ele>
        <time>2017-03-29T08:21:11Z</time>
      </trkpt>
      <trkpt lat="45.93372" lon="4.7678">
        <ele>172</ele>
        <time>2017-03-29T08:21:12Z</time>
      </trkpt>
      <trkpt lat="45.93377" lon="4.76785">
        <ele>172</ele>
        <time>2017-03-29T08:21:13Z</time>
      </trkpt>
      <trkpt lat="45.93381" lon="4.76789">
        <ele>172</ele>
        <time>2017-03-29T08:21:14Z</time>
      </trkpt>
      <trkpt lat="45.93385" lon="4.76794">
        <ele>172</ele>
        <time>2017-03-29T08:21:15Z</time>
      </trkpt>
      <trkpt lat="45.9339" lon="4.76799">
        <ele>172</ele>
        <time>2017-03-29T08:21:16Z</time>
      </trkpt>
      <trkpt lat="45.93394" lon="4.76804">
        <ele>172</ele>
        <time>2017-03-29T08:21:17Z</time>
      </trkpt>
      <trkpt lat="45.93398" lon="4.7681">
        <ele>172</ele>
        <time>2017-03-29T08:21:18Z</time>
      </trkpt>
      <trkpt lat="45.93403" lon="4.76816">
        <ele>172</ele>
        <time>2017-03-29T08:21:19Z</time>
      </trkpt>
      <trkpt lat="45.93407" lon="4.76823">
        <ele>172</ele>
        <time>2017-03-29T08:21:20Z</time>
      </trkpt>
      <trkpt lat="45.93411" lon="4.76829">
        <ele>172</ele>
        <time>2017-03-29T08:21:21Z</time>
      </trkpt>
      <trkpt lat="45.93414" lon="4.76836">
        <ele>172</ele>
        <time>2017-03-29T08:21:22Z</time>
      </trkpt>
      <trkpt lat="45.93418" lon="4.76843">
        <ele>171</ele>
        <time>2017-03-29T08:21:23Z</time>
      </trkpt>
      <trkpt lat="45.93421" lon="4.7685">
        <ele>171</ele>
        <time>2017-03-29T08:21:24Z</time>
      </trkpt>
      <trkpt lat="45.93425" lon="4.76856">
        <ele>171</ele>
        <time>2017-03-29T08:21:25Z</time>
      </trkpt>
      <trkpt lat="45.93428" lon="4.76863">
        <ele>171</ele>
        <time>2017-03-29T08:21:26Z</time>
      </trkpt>
      <trkpt lat="45.93431" lon="4.7687">
        <ele>171</ele>
        <time>2017-03-29T08:21:27Z</time>
      </trkpt>
      <trkpt lat="45.93433" lon="4.76877">
        <ele>171</ele>
        <time>2017-03-29T08:21:28Z</time>
      </trkpt>
      <trkpt lat="45.93436" lon="4.76884">
        <ele>171</ele>
        <time>2017-03-29T08:21:29Z</time>
      </trkpt>
      <trkpt lat="45.93438" lon="4.76892">
        <ele>170</ele>
        <time>2017-03-29T08:21:30Z</time>
      </trkpt>
      <trkpt lat="45.9344" lon="4.76899">
        <ele>170</ele>
        <time>2017-03-29T08:21:31Z</time>
      </trkpt>
      <trkpt lat="45.93442" lon="4.76905">
        <ele>170</ele>
        <time>2017-03-29T08:21:32Z</time>
      </trkpt>
      <trkpt lat="45.93444" lon="4.76912">
        <ele>170</ele>
        <time>2017-03-29T08:21:33Z</time>
      </trkpt>
      <trkpt lat="45.93445" lon="4.7692">
        <ele>170</ele>
        <time>2017-03-29T08:21:34Z</time>
      </trkpt>
      <trkpt lat="45.93446" lon="4.76928">
        <ele>170</ele>
        <time>2017-03-29T08:21:35Z</time>
      </trkpt>
      <trkpt lat="45.93447" lon="4.76936">
        <ele>170</ele>
        <time>2017-03-29T08:21:36Z</time>
      </trkpt>
      <trkpt lat="45.93448" lon="4.76944">
        <ele>170</ele>
        <time>2017-03-29T08:21:37Z</time>
      </trkpt>
      <trkpt lat="45.93449" lon="4.76952">
        <ele>170</ele>
        <time>2017-03-29T08:21:38Z</time>
      </trkpt>
      <trkpt lat="45.93451" lon="4.7696">
        <ele>170</ele>
        <time>2017-03-29T08:21:39Z</time>
      </trkpt>
      <trkpt lat="45.93452" lon="4.76968">
        <ele>170</ele>
        <time>2017-03-29T08:21:40Z</time>
      </trkpt>
      <trkpt lat="45.93453" lon="4.76976">
        <ele>170</ele>
        <time>2017-03-29T08:21:41Z</time>
      </trkpt>
      <trkpt lat="45.93454" lon="4.76984">
        <ele>170</ele>
        <time>2017-03-29T08:21:42Z</time>
      </trkpt>
      <trkpt lat="45.93455" lon="4.76992">
        <ele>170</ele>
        <time>2017-03-29T08:21:43Z</time>
      </trkpt>
      <trkpt lat="45.93457" lon="4.77">
        <ele>170</ele>
        <time>2017-03-29T08:21:44Z</time>
      </trkpt>
      <trkpt lat="45.93458" lon="4.77009">
        <ele>170</ele>
        <time>2017-03-29T08:21:45Z</time>
      </trkpt>
      <trkpt lat="45.93459" lon="4.77017">
        <ele>170</ele>
        <time>2017-03-29T08:21:46Z</time>
      </trkpt>
      <trkpt lat="45.9346" lon="4.77025">
        <ele>170</ele>
        <time>2017-03-29T08:21:47Z</time>
      </trkpt>
      <trkpt lat="45.93462" lon="4.77033">
        <ele>170</ele>
        <time>2017-03-29T08:21:48Z</time>
      </trkpt>
      <trkpt lat="45.93463" lon="4.77041">
        <ele>170</ele>
        <time>2017-03-29T08:21:49Z</time>
      </trkpt>
      <trkpt lat="45.93464" lon="4.77049">
        <ele>170</ele>
        <time>2017-03-29T08:21:50Z</time>
      </trkpt>
      <trkpt lat="45.93466" lon="4.77057">
        <ele>170</ele>
        <time>2017-03-29T08:21:51Z</time>
      </trkpt>
      <trkpt lat="45.93467" lon="4.77065">
        <ele>170</ele>
        <time>2017-03-29T08:21:52Z</time>
      </trkpt>
      <trkpt lat="45.93468" lon="4.77072">
        <ele>170</ele>
        <time>2017-03-29T08:21:53Z</time>
      </trkpt>
      <trkpt lat="45.9347" lon="4.77079">
        <ele>170</ele>
        <time>2017-03-29T08:21:54Z</time>
      </trkpt>
      <trkpt lat="45.93471" lon="4.77087">
        <ele>169</ele>
        <time>2017-03-29T08:21:55Z</time>
      </trkpt>
      <trkpt lat="45.93472" lon="4.77094">
        <ele>169</ele>
        <time>2017-03-29T08:21:56Z</time>
      </trkpt>
      <trkpt lat="45.93473" lon="4.77101">
        <ele>169</ele>
        <time>2017-03-29T08:21:57Z</time>
      </trkpt>
      <trkpt lat="45.93475" lon="4.77108">
        <ele>169</ele>
        <time>2017-03-29T08:21:58Z</time>
      </trkpt>
      <trkpt lat="45.93476" lon="4.77115">
        <ele>169</ele>
        <time>2017-03-29T08:21:59Z</time>
      </trkpt>
      <trkpt lat="45.93478" lon="4.77123">
        <ele>169</ele>
        <time>2017-03-29T08:22:00Z</time>
      </trkpt>
      <trkpt lat="45.9348" lon="4.77131">
        <ele>169</ele>
        <time>2017-03-29T08:22:01Z</time>
      </trkpt>
      <trkpt lat="45.93481" lon="4.77139">
        <ele>169</ele>
        <time>2017-03-29T08:22:02Z</time>
      </trkpt>
      <trkpt lat="45.93482" lon="4.77149">
        <ele>169</ele>
        <time>2017-03-29T08:22:03Z</time>
      </trkpt>
      <trkpt lat="45.93484" lon="4.77158">
        <ele>169</ele>
        <time>2017-03-29T08:22:04Z</time>
      </trkpt>
      <trkpt lat="45.93486" lon="4.77166">
        <ele>169</ele>
        <time>2017-03-29T08:22:05Z</time>
      </trkpt>
      <trkpt lat="45.93488" lon="4.77174">
        <ele>169</ele>
        <time>2017-03-29T08:22:06Z</time>
      </trkpt>
      <trkpt lat="45.93489" lon="4.77182">
        <ele>169</ele>
        <time>2017-03-29T08:22:07Z</time>
      </trkpt>
      <trkpt lat="45.93491" lon="4.7719">
        <ele>169</ele>
        <time>2017-03-29T08:22:08Z</time>
      </trkpt>
      <trkpt lat="45.93492" lon="4.77198">
        <ele>169</ele>
        <time>2017-03-29T08:22:09Z</time>
      </trkpt>
      <trkpt lat="45.93494" lon="4.77205">
        <ele>169</ele>
        <time>2017-03-29T08:22:10Z</time>
      </trkpt>
      <trkpt lat="45.93497" lon="4.77213">
        <ele>169</ele>
        <time>2017-03-29T08:22:11Z</time>
      </trkpt>
      <trkpt lat="45.93499" lon="4.7722">
        <ele>169</ele>
        <time>2017-03-29T08:22:12Z</time>
      </trkpt>
      <trkpt lat="45.93501" lon="4.77228">
        <ele>169</ele>
        <time>2017-03-29T08:22:13Z</time>
      </trkpt>
      <trkpt lat="45.93502" lon="4.77235">
        <ele>169</ele>
        <time>2017-03-29T08:22:14Z</time>
      </trkpt>
      <trkpt lat="45.93504" lon="4.77243">
        <ele>170</ele>
        <time>2017-03-29T08:22:15Z</time>
      </trkpt>
      <trkpt lat="45.93506" lon="4.7725">
        <ele>170</ele>
        <time>2017-03-29T08:22:16Z</time>
      </trkpt>
      <trkpt lat="45.93507" lon="4.77257">
        <ele>170</ele>
        <time>2017-03-29T08:22:17Z</time>
      </trkpt>
      <trkpt lat="45.93509" lon="4.77265">
        <ele>170</ele>
        <time>2017-03-29T08:22:18Z</time>
      </trkpt>
      <trkpt lat="45.93511" lon="4.77272">
        <ele>170</ele>
        <time>2017-03-29T08:22:19Z</time>
      </trkpt>
      <trkpt lat="45.93512" lon="4.7728">
        <ele>170</ele>
        <time>2017-03-29T08:22:20Z</time>
      </trkpt>
      <trkpt lat="45.93514" lon="4.77288">
        <ele>170</ele>
        <time>2017-03-29T08:22:21Z</time>
      </trkpt>
      <trkpt lat="45.93515" lon="4.77295">
        <ele>170</ele>
        <time>2017-03-29T08:22:22Z</time>
      </trkpt>
      <trkpt lat="45.93517" lon="4.77303">
        <ele>170</ele>
        <time>2017-03-29T08:22:23Z</time>
      </trkpt>
      <trkpt lat="45.93518" lon="4.77311">
        <ele>170</ele>
        <time>2017-03-29T08:22:24Z</time>
      </trkpt>
      <trkpt lat="45.9352" lon="4.77318">
        <ele>170</ele>
        <time>2017-03-29T08:22:25Z</time>
      </trkpt>
      <trkpt lat="45.93522" lon="4.77326">
        <ele>170</ele>
        <time>2017-03-29T08:22:26Z</time>
      </trkpt>
      <trkpt lat="45.93523" lon="4.77333">
        <ele>170</ele>
        <time>2017-03-29T08:22:27Z</time>
      </trkpt>
      <trkpt lat="45.93525" lon="4.77341">
        <ele>170</ele>
        <time>2017-03-29T08:22:28Z</time>
      </trkpt>
      <trkpt lat="45.93527" lon="4.77348">
        <ele>170</ele>
        <time>2017-03-29T08:22:29Z</time>
      </trkpt>
      <trkpt lat="45.93529" lon="4.77356">
        <ele>170</ele>
        <time>2017-03-29T08:22:30Z</time>
      </trkpt>
      <trkpt lat="45.93531" lon="4.77364">
        <ele>170</ele>
        <time>2017-03-29T08:22:31Z</time>
      </trkpt>
      <trkpt lat="45.93533" lon="4.77371">
        <ele>170</ele>
        <time>2017-03-29T08:22:32Z</time>
      </trkpt>
      <trkpt lat="45.93535" lon="4.77379">
        <ele>170</ele>
        <time>2017-03-29T08:22:33Z</time>
      </trkpt>
      <trkpt lat="45.93536" lon="4.77388">
        <ele>170</ele>
        <time>2017-03-29T08:22:34Z</time>
      </trkpt>
      <trkpt lat="45.93538" lon="4.77396">
        <ele>170</ele>
        <time>2017-03-29T08:22:35Z</time>
      </trkpt>
      <trkpt lat="45.9354" lon="4.77405">
        <ele>170</ele>
        <time>2017-03-29T08:22:36Z</time>
      </trkpt>
      <trkpt lat="45.93542" lon="4.77414">
        <ele>170</ele>
        <time>2017-03-29T08:22:37Z</time>
      </trkpt>
      <trkpt lat="45.93544" lon="4.77422">
        <ele>170</ele>
        <time>2017-03-29T08:22:38Z</time>
      </trkpt>
      <trkpt lat="45.93546" lon="4.7743">
        <ele>169</ele>
        <time>2017-03-29T08:22:39Z</time>
      </trkpt>
      <trkpt lat="45.93548" lon="4.77438">
        <ele>169</ele>
        <time>2017-03-29T08:22:40Z</time>
      </trkpt>
      <trkpt lat="45.9355" lon="4.77447">
        <ele>169</ele>
        <time>2017-03-29T08:22:41Z</time>
      </trkpt>
      <trkpt lat="45.93552" lon="4.77455">
        <ele>169</ele>
        <time>2017-03-29T08:22:42Z</time>
      </trkpt>
      <trkpt lat="45.93554" lon="4.77464">
        <ele>169</ele>
        <time>2017-03-29T08:22:43Z</time>
      </trkpt>
      <trkpt lat="45.93556" lon="4.77472">
        <ele>169</ele>
        <time>2017-03-29T08:22:44Z</time>
      </trkpt>
      <trkpt lat="45.93557" lon="4.77481">
        <ele>169</ele>
        <time>2017-03-29T08:22:45Z</time>
      </trkpt>
      <trkpt lat="45.93559" lon="4.77489">
        <ele>169</ele>
        <time>2017-03-29T08:22:46Z</time>
      </trkpt>
      <trkpt lat="45.93561" lon="4.77497">
        <ele>169</ele>
        <time>2017-03-29T08:22:47Z</time>
      </trkpt>
      <trkpt lat="45.93563" lon="4.77505">
        <ele>169</ele>
        <time>2017-03-29T08:22:48Z</time>
      </trkpt>
      <trkpt lat="45.93564" lon="4.77512">
        <ele>169</ele>
        <time>2017-03-29T08:22:49Z</time>
      </trkpt>
      <trkpt lat="45.93566" lon="4.77519">
        <ele>169</ele>
        <time>2017-03-29T08:22:50Z</time>
      </trkpt>
      <trkpt lat="45.93568" lon="4.77526">
        <ele>169</ele>
        <time>2017-03-29T08:22:51Z</time>
      </trkpt>
      <trkpt lat="45.93569" lon="4.77532">
        <ele>169</ele>
        <time>2017-03-29T08:22:52Z</time>
      </trkpt>
      <trkpt lat="45.9357" lon="4.77539">
        <ele>169</ele>
        <time>2017-03-29T08:22:53Z</time>
      </trkpt>
      <trkpt lat="45.93572" lon="4.77546">
        <ele>169</ele>
        <time>2017-03-29T08:22:54Z</time>
      </trkpt>
      <trkpt lat="45.93573" lon="4.77553">
        <ele>169</ele>
        <time>2017-03-29T08:22:55Z</time>
      </trkpt>
      <trkpt lat="45.93575" lon="4.7756">
        <ele>169</ele>
        <time>2017-03-29T08:22:56Z</time>
      </trkpt>
      <trkpt lat="45.93577" lon="4.77567">
        <ele>169</ele>
        <time>2017-03-29T08:22:57Z</time>
      </trkpt>
      <trkpt lat="45.93579" lon="4.77574">
        <ele>170</ele>
        <time>2017-03-29T08:22:58Z</time>
      </trkpt>
      <trkpt lat="45.93581" lon="4.7758">
        <ele>170</ele>
        <time>2017-03-29T08:22:59Z</time>
      </trkpt>
      <trkpt lat="45.93583" lon="4.77587">
        <ele>170</ele>
        <time>2017-03-29T08:23:00Z</time>
      </trkpt>
      <trkpt lat="45.93584" lon="4.77593">
        <ele>170</ele>
        <time>2017-03-29T08:23:01Z</time>
      </trkpt>
      <trkpt lat="45.93586" lon="4.77599">
        <ele>170</ele>
        <time>2017-03-29T08:23:02Z</time>
      </trkpt>
      <trkpt lat="45.93589" lon="4.77605">
        <ele>170</ele>
        <time>2017-03-29T08:23:03Z</time>
      </trkpt>
      <trkpt lat="45.93591" lon="4.77612">
        <ele>170</ele>
        <time>2017-03-29T08:23:04Z</time>
      </trkpt>
      <trkpt lat="45.93594" lon="4.77619">
        <ele>170</ele>
        <time>2017-03-29T08:23:05Z</time>
      </trkpt>
      <trkpt lat="45.93597" lon="4.77625">
        <ele>169</ele>
        <time>2017-03-29T08:23:06Z</time>
      </trkpt>
      <trkpt lat="45.936" lon="4.77632">
        <ele>169</ele>
        <time>2017-03-29T08:23:07Z</time>
      </trkpt>
      <trkpt lat="45.93602" lon="4.77638">
        <ele>169</ele>
        <time>2017-03-29T08:23:08Z</time>
      </trkpt>
      <trkpt lat="45.93605" lon="4.77644">
        <ele>169</ele>
        <time>2017-03-29T08:23:09Z</time>
      </trkpt>
      <trkpt lat="45.93607" lon="4.7765">
        <ele>169</ele>
        <time>2017-03-29T08:23:10Z</time>
      </trkpt>
      <trkpt lat="45.9361" lon="4.77655">
        <ele>169</ele>
        <time>2017-03-29T08:23:11Z</time>
      </trkpt>
      <trkpt lat="45.93612" lon="4.77661">
        <ele>169</ele>
        <time>2017-03-29T08:23:12Z</time>
      </trkpt>
      <trkpt lat="45.93615" lon="4.77667">
        <ele>169</ele>
        <time>2017-03-29T08:23:13Z</time>
      </trkpt>
      <trkpt lat="45.93618" lon="4.77672">
        <ele>169</ele>
        <time>2017-03-29T08:23:14Z</time>
      </trkpt>
      <trkpt lat="45.93621" lon="4.77678">
        <ele>169</ele>
        <time>2017-03-29T08:23:15Z</time>
      </trkpt>
      <trkpt lat="45.93624" lon="4.77684">
        <ele>169</ele>
        <time>2017-03-29T08:23:16Z</time>
      </trkpt>
      <trkpt lat="45.93627" lon="4.77689">
        <ele>169</ele>
        <time>2017-03-29T08:23:17Z</time>
      </trkpt>
      <trkpt lat="45.93629" lon="4.77695">
        <ele>169</ele>
        <time>2017-03-29T08:23:18Z</time>
      </trkpt>
      <trkpt lat="45.93632" lon="4.77701">
        <ele>169</ele>
        <time>2017-03-29T08:23:19Z</time>
      </trkpt>
      <trkpt lat="45.93635" lon="4.77707">
        <ele>170</ele>
        <time>2017-03-29T08:23:20Z</time>
      </trkpt>
      <trkpt lat="45.93638" lon="4.77713">
        <ele>170</ele>
        <time>2017-03-29T08:23:21Z</time>
      </trkpt>
      <trkpt lat="45.9364" lon="4.77718">
        <ele>170</ele>
        <time>2017-03-29T08:23:22Z</time>
      </trkpt>
      <trkpt lat="45.93643" lon="4.77723">
        <ele>170</ele>
        <time>2017-03-29T08:23:23Z</time>
      </trkpt>
      <trkpt lat="45.93648" lon="4.77732">
        <ele>170</ele>
        <time>2017-03-29T08:23:25Z</time>
      </trkpt>
      <trkpt lat="45.93651" lon="4.77737">
        <ele>170</ele>
        <time>2017-03-29T08:23:26Z</time>
      </trkpt>
      <trkpt lat="45.93656" lon="4.77745">
        <ele>170</ele>
        <time>2017-03-29T08:23:28Z</time>
      </trkpt>
      <trkpt lat="45.93659" lon="4.77749">
        <ele>171</ele>
        <time>2017-03-29T08:23:29Z</time>
      </trkpt>
      <trkpt lat="45.93665" lon="4.77757">
        <ele>171</ele>
        <time>2017-03-29T08:23:31Z</time>
      </trkpt>
      <trkpt lat="45.93667" lon="4.77761">
        <ele>170</ele>
        <time>2017-03-29T08:23:32Z</time>
      </trkpt>
      <trkpt lat="45.93673" lon="4.7777">
        <ele>170</ele>
        <time>2017-03-29T08:23:34Z</time>
      </trkpt>
      <trkpt lat="45.93676" lon="4.77773">
        <ele>170</ele>
        <time>2017-03-29T08:23:35Z</time>
      </trkpt>
      <trkpt lat="45.93682" lon="4.77781">
        <ele>170</ele>
        <time>2017-03-29T08:23:37Z</time>
      </trkpt>
      <trkpt lat="45.93685" lon="4.77785">
        <ele>170</ele>
        <time>2017-03-29T08:23:38Z</time>
      </trkpt>
      <trkpt lat="45.93691" lon="4.77793">
        <ele>169</ele>
        <time>2017-03-29T08:23:40Z</time>
      </trkpt>
      <trkpt lat="45.93694" lon="4.77797">
        <ele>169</ele>
        <time>2017-03-29T08:23:41Z</time>
      </trkpt>
      <trkpt lat="45.937" lon="4.77804">
        <ele>169</ele>
        <time>2017-03-29T08:23:43Z</time>
      </trkpt>
      <trkpt lat="45.93702" lon="4.77807">
        <ele>169</ele>
        <time>2017-03-29T08:23:44Z</time>
      </trkpt>
      <trkpt lat="45.93708" lon="4.77815">
        <ele>169</ele>
        <time>2017-03-29T08:23:46Z</time>
      </trkpt>
      <trkpt lat="45.93711" lon="4.77818">
        <ele>169</ele>
        <time>2017-03-29T08:23:47Z</time>
      </trkpt>
      <trkpt lat="45.93717" lon="4.77826">
        <ele>169</ele>
        <time>2017-03-29T08:23:49Z</time>
      </trkpt>
      <trkpt lat="45.93719" lon="4.7783">
        <ele>168</ele>
        <time>2017-03-29T08:23:50Z</time>
      </trkpt>
      <trkpt lat="45.93725" lon="4.77838">
        <ele>167</ele>
        <time>2017-03-29T08:23:52Z</time>
      </trkpt>
      <trkpt lat="45.93728" lon="4.77841">
        <ele>167</ele>
        <time>2017-03-29T08:23:53Z</time>
      </trkpt>
      <trkpt lat="45.93734" lon="4.77849">
        <ele>167</ele>
        <time>2017-03-29T08:23:55Z</time>
      </trkpt>
      <trkpt lat="45.93737" lon="4.77853">
        <ele>167</ele>
        <time>2017-03-29T08:23:56Z</time>
      </trkpt>
      <trkpt lat="45.93743" lon="4.77861">
        <ele>167</ele>
        <time>2017-03-29T08:23:58Z</time>
      </trkpt>
      <trkpt lat="45.93746" lon="4.77865">
        <ele>167</ele>
        <time>2017-03-29T08:23:59Z</time>
      </trkpt>
      <trkpt lat="45.93752" lon="4.77873">
        <ele>166</ele>
        <time>2017-03-29T08:24:01Z</time>
      </trkpt>
      <trkpt lat="45.93754" lon="4.77877">
        <ele>166</ele>
        <time>2017-03-29T08:24:02Z</time>
      </trkpt>
      <trkpt lat="45.9376" lon="4.77885">
        <ele>166</ele>
        <time>2017-03-29T08:24:04Z</time>
      </trkpt>
      <trkpt lat="45.93763" lon="4.77889">
        <ele>166</ele>
        <time>2017-03-29T08:24:05Z</time>
      </trkpt>
      <trkpt lat="45.93769" lon="4.77897">
        <ele>166</ele>
        <time>2017-03-29T08:24:07Z</time>
      </trkpt>
      <trkpt lat="45.93772" lon="4.77902">
        <ele>166</ele>
        <time>2017-03-29T08:24:08Z</time>
      </trkpt>
      <trkpt lat="45.93776" lon="4.77906">
        <ele>166</ele>
        <time>2017-03-29T08:24:09Z</time>
      </trkpt>
      <trkpt lat="45.93779" lon="4.77911">
        <ele>166</ele>
        <time>2017-03-29T08:24:10Z</time>
      </trkpt>
      <trkpt lat="45.93783" lon="4.77915">
        <ele>166</ele>
        <time>2017-03-29T08:24:11Z</time>
      </trkpt>
      <trkpt lat="45.93787" lon="4.7792">
        <ele>168</ele>
        <time>2017-03-29T08:24:12Z</time>
      </trkpt>
      <trkpt lat="45.9379" lon="4.77925">
        <ele>168</ele>
        <time>2017-03-29T08:24:13Z</time>
      </trkpt>
      <trkpt lat="45.93794" lon="4.77929">
        <ele>168</ele>
        <time>2017-03-29T08:24:14Z</time>
      </trkpt>
      <trkpt lat="45.93798" lon="4.77934">
        <ele>168</ele>
        <time>2017-03-29T08:24:15Z</time>
      </trkpt>
      <trkpt lat="45.93802" lon="4.77939">
        <ele>169</ele>
        <time>2017-03-29T08:24:16Z</time>
      </trkpt>
      <trkpt lat="45.93805" lon="4.77944">
        <ele>169</ele>
        <time>2017-03-29T08:24:17Z</time>
      </trkpt>
      <trkpt lat="45.93809" lon="4.77949">
        <ele>169</ele>
        <time>2017-03-29T08:24:18Z</time>
      </trkpt>
      <trkpt lat="45.93813" lon="4.77954">
        <ele>170</ele>
        <time>2017-03-29T08:24:19Z</time>
      </trkpt>
      <trkpt lat="45.93817" lon="4.7796">
        <ele>170</ele>
        <time>2017-03-29T08:24:20Z</time>
      </trkpt>
      <trkpt lat="45.93821" lon="4.77965">
        <ele>171</ele>
        <time>2017-03-29T08:24:21Z</time>
      </trkpt>
      <trkpt lat="45.93825" lon="4.77971">
        <ele>172</ele>
        <time>2017-03-29T08:24:22Z</time>
      </trkpt>
      <trkpt lat="45.93829" lon="4.77976">
        <ele>173</ele>
        <time>2017-03-29T08:24:23Z</time>
      </trkpt>
      <trkpt lat="45.93832" lon="4.77981">
        <ele>174</ele>
        <time>2017-03-29T08:24:24Z</time>
      </trkpt>
      <trkpt lat="45.93838" lon="4.7799">
        <ele>179</ele>
        <time>2017-03-29T08:24:26Z</time>
      </trkpt>
      <trkpt lat="45.93839" lon="4.77996">
        <ele>179</ele>
        <time>2017-03-29T08:24:27Z</time>
      </trkpt>
      <trkpt lat="45.9384" lon="4.78009">
        <ele>181</ele>
        <time>2017-03-29T08:24:29Z</time>
      </trkpt>
      <trkpt lat="45.93841" lon="4.78015">
        <ele>181</ele>
        <time>2017-03-29T08:24:30Z</time>
      </trkpt>
      <trkpt lat="45.93843" lon="4.78027">
        <ele>182</ele>
        <time>2017-03-29T08:24:32Z</time>
      </trkpt>
      <trkpt lat="45.93846" lon="4.78031">
        <ele>182</ele>
        <time>2017-03-29T08:24:33Z</time>
      </trkpt>
      <trkpt lat="45.93853" lon="4.78034">
        <ele>183</ele>
        <time>2017-03-29T08:24:35Z</time>
      </trkpt>
      <trkpt lat="45.93857" lon="4.78034">
        <ele>183</ele>
        <time>2017-03-29T08:24:36Z</time>
      </trkpt>
      <trkpt lat="45.93861" lon="4.78032">
        <ele>183</ele>
        <time>2017-03-29T08:24:37Z</time>
      </trkpt>
      <trkpt lat="45.93866" lon="4.7803">
        <ele>183</ele>
        <time>2017-03-29T08:24:38Z</time>
      </trkpt>
      <trkpt lat="45.9387" lon="4.78028">
        <ele>183</ele>
        <time>2017-03-29T08:24:39Z</time>
      </trkpt>
      <trkpt lat="45.93875" lon="4.78027">
        <ele>184</ele>
        <time>2017-03-29T08:24:40Z</time>
      </trkpt>
      <trkpt lat="45.93883" lon="4.78023">
        <ele>184</ele>
        <time>2017-03-29T08:24:42Z</time>
      </trkpt>
      <trkpt lat="45.93886" lon="4.78021">
        <ele>184</ele>
        <time>2017-03-29T08:24:43Z</time>
      </trkpt>
      <trkpt lat="45.93892" lon="4.78013">
        <ele>184</ele>
        <time>2017-03-29T08:24:45Z</time>
      </trkpt>
      <trkpt lat="45.93895" lon="4.78009">
        <ele>184</ele>
        <time>2017-03-29T08:24:46Z</time>
      </trkpt>
      <trkpt lat="45.939" lon="4.78003">
        <ele>185</ele>
        <time>2017-03-29T08:24:48Z</time>
      </trkpt>
      <trkpt lat="45.93902" lon="4.78001">
        <ele>185</ele>
        <time>2017-03-29T08:24:49Z</time>
      </trkpt>
      <trkpt lat="45.93907" lon="4.77992">
        <ele>183</ele>
        <time>2017-03-29T08:24:52Z</time>
      </trkpt>
      <trkpt lat="45.93909" lon="4.7799">
        <ele>183</ele>
        <time>2017-03-29T08:24:53Z</time>
      </trkpt>
      <trkpt lat="45.93916" lon="4.77984">
        <ele>183</ele>
        <time>2017-03-29T08:24:56Z</time>
      </trkpt>
      <trkpt lat="45.93919" lon="4.77982">
        <ele>188</ele>
        <time>2017-03-29T08:24:57Z</time>
      </trkpt>
      <trkpt lat="45.93926" lon="4.77976">
        <ele>188</ele>
        <time>2017-03-29T08:25:00Z</time>
      </trkpt>
      <trkpt lat="45.93928" lon="4.77975">
        <ele>188</ele>
        <time>2017-03-29T08:25:01Z</time>
      </trkpt>
      <trkpt lat="45.93934" lon="4.7797">
        <ele>189</ele>
        <time>2017-03-29T08:25:04Z</time>
      </trkpt>
      <trkpt lat="45.93936" lon="4.77969">
        <ele>189</ele>
        <time>2017-03-29T08:25:05Z</time>
      </trkpt>
      <trkpt lat="45.93943" lon="4.77964">
        <ele>189</ele>
        <time>2017-03-29T08:25:09Z</time>
      </trkpt>
      <trkpt lat="45.93945" lon="4.77962">
        <ele>189</ele>
        <time>2017-03-29T08:25:10Z</time>
      </trkpt>
      <trkpt lat="45.93952" lon="4.77956">
        <ele>190</ele>
        <time>2017-03-29T08:25:14Z</time>
      </trkpt>
      <trkpt lat="45.93954" lon="4.77956">
        <ele>190</ele>
        <time>2017-03-29T08:25:15Z</time>
      </trkpt>
      <trkpt lat="45.93962" lon="4.77951">
        <ele>190</ele>
        <time>2017-03-29T08:25:19Z</time>
      </trkpt>
      <trkpt lat="45.93964" lon="4.7795">
        <ele>190</ele>
        <time>2017-03-29T08:25:20Z</time>
      </trkpt>
      <trkpt lat="45.93971" lon="4.77945">
        <ele>191</ele>
        <time>2017-03-29T08:25:24Z</time>
      </trkpt>
      <trkpt lat="45.93972" lon="4.77943">
        <ele>191</ele>
        <time>2017-03-29T08:25:25Z</time>
      </trkpt>
      <trkpt lat="45.9398" lon="4.77938">
        <ele>191</ele>
        <time>2017-03-29T08:25:29Z</time>
      </trkpt>
      <trkpt lat="45.93982" lon="4.77938">
        <ele>191</ele>
        <time>2017-03-29T08:25:30Z</time>
      </trkpt>
      <trkpt lat="45.9399" lon="4.77935">
        <ele>192</ele>
        <time>2017-03-29T08:25:33Z</time>
      </trkpt>
      <trkpt lat="45.93992" lon="4.77934">
        <ele>192</ele>
        <time>2017-03-29T08:25:34Z</time>
      </trkpt>
      <trkpt lat="45.94" lon="4.77931">
        <ele>197</ele>
        <time>2017-03-29T08:25:37Z</time>
      </trkpt>
      <trkpt lat="45.94003" lon="4.7793">
        <ele>197</ele>
        <time>2017-03-29T08:25:38Z</time>
      </trkpt>
      <trkpt lat="45.9401" lon="4.77932">
        <ele>198</ele>
        <time>2017-03-29T08:25:41Z</time>
      </trkpt>
      <trkpt lat="45.94012" lon="4.77935">
        <ele>198</ele>
        <time>2017-03-29T08:25:42Z</time>
      </trkpt>
      <trkpt lat="45.94017" lon="4.77945">
        <ele>199</ele>
        <time>2017-03-29T08:25:47Z</time>
      </trkpt>
      <trkpt lat="45.94018" lon="4.77946">
        <ele>199</ele>
        <time>2017-03-29T08:25:48Z</time>
      </trkpt>
      <trkpt lat="45.94019" lon="4.77957">
        <ele>200</ele>
        <time>2017-03-29T08:25:52Z</time>
      </trkpt>
      <trkpt lat="45.94019" lon="4.7796">
        <ele>200</ele>
        <time>2017-03-29T08:25:53Z</time>
      </trkpt>
      <trkpt lat="45.94018" lon="4.7797">
        <ele>200</ele>
        <time>2017-03-29T08:25:56Z</time>
      </trkpt>
      <trkpt lat="45.94018" lon="4.77974">
        <ele>200</ele>
        <time>2017-03-29T08:25:57Z</time>
      </trkpt>
      <trkpt lat="45.94016" lon="4.77984">
        <ele>199</ele>
        <time>2017-03-29T08:26:00Z</time>
      </trkpt>
      <trkpt lat="45.94016" lon="4.77987">
        <ele>199</ele>
        <time>2017-03-29T08:26:01Z</time>
      </trkpt>
      <trkpt lat="45.94016" lon="4.77998">
        <ele>199</ele>
        <time>2017-03-29T08:26:04Z</time>
      </trkpt>
      <trkpt lat="45.94017" lon="4.78001">
        <ele>200</ele>
        <time>2017-03-29T08:26:05Z</time>
      </trkpt>
      <trkpt lat="45.94017" lon="4.78013">
        <ele>200</ele>
        <time>2017-03-29T08:26:09Z</time>
      </trkpt>
      <trkpt lat="45.94016" lon="4.78017">
        <ele>200</ele>
        <time>2017-03-29T08:26:10Z</time>
      </trkpt>
      <trkpt lat="45.94017" lon="4.78026">
        <ele>201</ele>
        <time>2017-03-29T08:26:13Z</time>
      </trkpt>
      <trkpt lat="45.94017" lon="4.7803">
        <ele>201</ele>
        <time>2017-03-29T08:26:14Z</time>
      </trkpt>
      <trkpt lat="45.94014" lon="4.78039">
        <ele>201</ele>
        <time>2017-03-29T08:26:16Z</time>
      </trkpt>
      <trkpt lat="45.94011" lon="4.78044">
        <ele>201</ele>
        <time>2017-03-29T08:26:17Z</time>
      </trkpt>
      <trkpt lat="45.9401" lon="4.78054">
        <ele>201</ele>
        <time>2017-03-29T08:26:19Z</time>
      </trkpt>
      <trkpt lat="45.9401" lon="4.78058">
        <ele>201</ele>
        <time>2017-03-29T08:26:20Z</time>
      </trkpt>
      <trkpt lat="45.94006" lon="4.78065">
        <ele>201</ele>
        <time>2017-03-29T08:26:22Z</time>
      </trkpt>
      <trkpt lat="45.94004" lon="4.78069">
        <ele>201</ele>
        <time>2017-03-29T08:26:23Z</time>
      </trkpt>
      <trkpt lat="45.94003" lon="4.78078">
        <ele>200</ele>
        <time>2017-03-29T08:26:25Z</time>
      </trkpt>
      <trkpt lat="45.94003" lon="4.78083">
        <ele>199</ele>
        <time>2017-03-29T08:26:26Z</time>
      </trkpt>
      <trkpt lat="45.94001" lon="4.78092">
        <ele>201</ele>
        <time>2017-03-29T08:26:28Z</time>
      </trkpt>
      <trkpt lat="45.94" lon="4.78097">
        <ele>198</ele>
        <time>2017-03-29T08:26:29Z</time>
      </trkpt>
      <trkpt lat="45.93999" lon="4.78107">
        <ele>197</ele>
        <time>2017-03-29T08:26:31Z</time>
      </trkpt>
      <trkpt lat="45.93998" lon="4.78113">
        <ele>197</ele>
        <time>2017-03-29T08:26:32Z</time>
      </trkpt>
      <trkpt lat="45.93996" lon="4.78123">
        <ele>197</ele>
        <time>2017-03-29T08:26:34Z</time>
      </trkpt>
      <trkpt lat="45.93996" lon="4.78129">
        <ele>197</ele>
        <time>2017-03-29T08:26:35Z</time>
      </trkpt>
      <trkpt lat="45.93996" lon="4.7814">
        <ele>198</ele>
        <time>2017-03-29T08:26:37Z</time>
      </trkpt>
      <trkpt lat="45.93994" lon="4.78146">
        <ele>198</ele>
        <time>2017-03-29T08:26:38Z</time>
      </trkpt>
      <trkpt lat="45.93998" lon="4.78156">
        <ele>199</ele>
        <time>2017-03-29T08:26:42Z</time>
      </trkpt>
      <trkpt lat="45.94" lon="4.78158">
        <ele>199</ele>
        <time>2017-03-29T08:26:43Z</time>
      </trkpt>
      <trkpt lat="45.94007" lon="4.78165">
        <ele>202</ele>
        <time>2017-03-29T08:26:47Z</time>
      </trkpt>
      <trkpt lat="45.94009" lon="4.78167">
        <ele>202</ele>
        <time>2017-03-29T08:26:48Z</time>
      </trkpt>
      <trkpt lat="45.94016" lon="4.78171">
        <ele>203</ele>
        <time>2017-03-29T08:26:51Z</time>
      </trkpt>
      <trkpt lat="45.94018" lon="4.78172">
        <ele>203</ele>
        <time>2017-03-29T08:26:52Z</time>
      </trkpt>
      <trkpt lat="45.94025" lon="4.78177">
        <ele>204</ele>
        <time>2017-03-29T08:26:55Z</time>
      </trkpt>
      <trkpt lat="45.94027" lon="4.78178">
        <ele>204</ele>
        <time>2017-03-29T08:26:56Z</time>
      </trkpt>
      <trkpt lat="45.94033" lon="4.78183">
        <ele>204</ele>
        <time>2017-03-29T08:26:59Z</time>
      </trkpt>
      <trkpt lat="45.94035" lon="4.78184">
        <ele>205</ele>
        <time>2017-03-29T08:27:00Z</time>
      </trkpt>
      <trkpt lat="45.94041" lon="4.78188">
        <ele>205</ele>
        <time>2017-03-29T08:27:02Z</time>
      </trkpt>
      <trkpt lat="45.94044" lon="4.78189">
        <ele>205</ele>
        <time>2017-03-29T08:27:03Z</time>
      </trkpt>
      <trkpt lat="45.94051" lon="4.78195">
        <ele>206</ele>
        <time>2017-03-29T08:27:06Z</time>
      </trkpt>
      <trkpt lat="45.94054" lon="4.78197">
        <ele>206</ele>
        <time>2017-03-29T08:27:07Z</time>
      </trkpt>
      <trkpt lat="45.9406" lon="4.78204">
        <ele>206</ele>
        <time>2017-03-29T08:27:09Z</time>
      </trkpt>
      <trkpt lat="45.94062" lon="4.78207">
        <ele>206</ele>
        <time>2017-03-29T08:27:10Z</time>
      </trkpt>
      <trkpt lat="45.94068" lon="4.78211">
        <ele>206</ele>
        <time>2017-03-29T08:27:12Z</time>
      </trkpt>
      <trkpt lat="45.94072" lon="4.78216">
        <ele>206</ele>
        <time>2017-03-29T08:27:13Z</time>
      </trkpt>
      <trkpt lat="45.94078" lon="4.7822">
        <ele>206</ele>
        <time>2017-03-29T08:27:15Z</time>
      </trkpt>
      <trkpt lat="45.9408" lon="4.78221">
        <ele>206</ele>
        <time>2017-03-29T08:27:16Z</time>
      </trkpt>
      <trkpt lat="45.94087" lon="4.78225">
        <ele>212</ele>
        <time>2017-03-29T08:27:19Z</time>
      </trkpt>
      <trkpt lat="45.94089" lon="4.78226">
        <ele>212</ele>
        <time>2017-03-29T08:27:20Z</time>
      </trkpt>
      <trkpt lat="45.94097" lon="4.78231">
        <ele>212</ele>
        <time>2017-03-29T08:27:24Z</time>
      </trkpt>
      <trkpt lat="45.94099" lon="4.78232">
        <ele>213</ele>
        <time>2017-03-29T08:27:25Z</time>
      </trkpt>
      <trkpt lat="45.94105" lon="4.78235">
        <ele>213</ele>
        <time>2017-03-29T08:27:28Z</time>
      </trkpt>
      <trkpt lat="45.94107" lon="4.78237">
        <ele>213</ele>
        <time>2017-03-29T08:27:29Z</time>
      </trkpt>
      <trkpt lat="45.94114" lon="4.78241">
        <ele>214</ele>
        <time>2017-03-29T08:27:32Z</time>
      </trkpt>
      <trkpt lat="45.94116" lon="4.78242">
        <ele>214</ele>
        <time>2017-03-29T08:27:33Z</time>
      </trkpt>
      <trkpt lat="45.94123" lon="4.78245">
        <ele>215</ele>
        <time>2017-03-29T08:27:36Z</time>
      </trkpt>
      <trkpt lat="45.94126" lon="4.78248">
        <ele>215</ele>
        <time>2017-03-29T08:27:37Z</time>
      </trkpt>
      <trkpt lat="45.94132" lon="4.78254">
        <ele>214</ele>
        <time>2017-03-29T08:27:40Z</time>
      </trkpt>
      <trkpt lat="45.94134" lon="4.78256">
        <ele>215</ele>
        <time>2017-03-29T08:27:41Z</time>
      </trkpt>
      <trkpt lat="45.9414" lon="4.78261">
        <ele>215</ele>
        <time>2017-03-29T08:27:44Z</time>
      </trkpt>
      <trkpt lat="45.94143" lon="4.78263">
        <ele>215</ele>
        <time>2017-03-29T08:27:45Z</time>
      </trkpt>
      <trkpt lat="45.94151" lon="4.78266">
        <ele>216</ele>
        <time>2017-03-29T08:27:48Z</time>
      </trkpt>
      <trkpt lat="45.94153" lon="4.78267">
        <ele>216</ele>
        <time>2017-03-29T08:27:49Z</time>
      </trkpt>
      <trkpt lat="45.94161" lon="4.78272">
        <ele>216</ele>
        <time>2017-03-29T08:27:53Z</time>
      </trkpt>
      <trkpt lat="45.94163" lon="4.78273">
        <ele>216</ele>
        <time>2017-03-29T08:27:54Z</time>
      </trkpt>
      <trkpt lat="45.94171" lon="4.78277">
        <ele>220</ele>
        <time>2017-03-29T08:27:57Z</time>
      </trkpt>
      <trkpt lat="45.94173" lon="4.78278">
        <ele>221</ele>
        <time>2017-03-29T08:27:58Z</time>
      </trkpt>
      <trkpt lat="45.94178" lon="4.78283">
        <ele>221</ele>
        <time>2017-03-29T08:28:00Z</time>
      </trkpt>
      <trkpt lat="45.94181" lon="4.78285">
        <ele>221</ele>
        <time>2017-03-29T08:28:01Z</time>
      </trkpt>
      <trkpt lat="45.94188" lon="4.7829">
        <ele>221</ele>
        <time>2017-03-29T08:28:04Z</time>
      </trkpt>
      <trkpt lat="45.94191" lon="4.78291">
        <ele>221</ele>
        <time>2017-03-29T08:28:05Z</time>
      </trkpt>
      <trkpt lat="45.94199" lon="4.78294">
        <ele>221</ele>
        <time>2017-03-29T08:28:08Z</time>
      </trkpt>
      <trkpt lat="45.94201" lon="4.78293">
        <ele>221</ele>
        <time>2017-03-29T08:28:09Z</time>
      </trkpt>
      <trkpt lat="45.94207" lon="4.78295">
        <ele>221</ele>
        <time>2017-03-29T08:28:12Z</time>
      </trkpt>
      <trkpt lat="45.9421" lon="4.78296">
        <ele>221</ele>
        <time>2017-03-29T08:28:13Z</time>
      </trkpt>
      <trkpt lat="45.94217" lon="4.78299">
        <ele>222</ele>
        <time>2017-03-29T08:28:15Z</time>
      </trkpt>
      <trkpt lat="45.9422" lon="4.783">
        <ele>222</ele>
        <time>2017-03-29T08:28:16Z</time>
      </trkpt>
      <trkpt lat="45.94227" lon="4.783">
        <ele>222</ele>
        <time>2017-03-29T08:28:18Z</time>
      </trkpt>
      <trkpt lat="45.9423" lon="4.783">
        <ele>222</ele>
        <time>2017-03-29T08:28:19Z</time>
      </trkpt>
      <trkpt lat="45.94237" lon="4.78303">
        <ele>222</ele>
        <time>2017-03-29T08:28:22Z</time>
      </trkpt>
      <trkpt lat="45.9424" lon="4.78304">
        <ele>222</ele>
        <time>2017-03-29T08:28:23Z</time>
      </trkpt>
      <trkpt lat="45.94247" lon="4.78306">
        <ele>222</ele>
        <time>2017-03-29T08:28:26Z</time>
      </trkpt>
      <trkpt lat="45.9425" lon="4.78307">
        <ele>222</ele>
        <time>2017-03-29T08:28:27Z</time>
      </trkpt>
      <trkpt lat="45.94256" lon="4.7831">
        <ele>226</ele>
        <time>2017-03-29T08:28:30Z</time>
      </trkpt>
      <trkpt lat="45.94259" lon="4.78311">
        <ele>226</ele>
        <time>2017-03-29T08:28:31Z</time>
      </trkpt>
      <trkpt lat="45.94266" lon="4.78315">
        <ele>227</ele>
        <time>2017-03-29T08:28:34Z</time>
      </trkpt>
      <trkpt lat="45.94268" lon="4.78316">
        <ele>227</ele>
        <time>2017-03-29T08:28:35Z</time>
      </trkpt>
      <trkpt lat="45.94276" lon="4.7832">
        <ele>227</ele>
        <time>2017-03-29T08:28:38Z</time>
      </trkpt>
      <trkpt lat="45.94279" lon="4.78322">
        <ele>228</ele>
        <time>2017-03-29T08:28:39Z</time>
      </trkpt>
      <trkpt lat="45.94286" lon="4.78327">
        <ele>228</ele>
        <time>2017-03-29T08:28:42Z</time>
      </trkpt>
      <trkpt lat="45.94288" lon="4.78328">
        <ele>228</ele>
        <time>2017-03-29T08:28:43Z</time>
      </trkpt>
      <trkpt lat="45.94295" lon="4.78335">
        <ele>228</ele>
        <time>2017-03-29T08:28:46Z</time>
      </trkpt>
      <trkpt lat="45.94296" lon="4.78338">
        <ele>228</ele>
        <time>2017-03-29T08:28:47Z</time>
      </trkpt>
      <trkpt lat="45.94302" lon="4.78345">
        <ele>229</ele>
        <time>2017-03-29T08:28:50Z</time>
      </trkpt>
      <trkpt lat="45.94303" lon="4.7835">
        <ele>229</ele>
        <time>2017-03-29T08:28:51Z</time>
      </trkpt>
      <trkpt lat="45.94305" lon="4.78361">
        <ele>229</ele>
        <time>2017-03-29T08:28:54Z</time>
      </trkpt>
      <trkpt lat="45.94306" lon="4.78365">
        <ele>229</ele>
        <time>2017-03-29T08:28:55Z</time>
      </trkpt>
      <trkpt lat="45.9431" lon="4.78375">
        <ele>229</ele>
        <time>2017-03-29T08:28:58Z</time>
      </trkpt>
      <trkpt lat="45.94311" lon="4.78378">
        <ele>230</ele>
        <time>2017-03-29T08:28:59Z</time>
      </trkpt>
      <trkpt lat="45.94316" lon="4.78387">
        <ele>230</ele>
        <time>2017-03-29T08:29:02Z</time>
      </trkpt>
      <trkpt lat="45.94317" lon="4.78391">
        <ele>230</ele>
        <time>2017-03-29T08:29:03Z</time>
      </trkpt>
      <trkpt lat="45.94322" lon="4.784">
        <ele>230</ele>
        <time>2017-03-29T08:29:06Z</time>
      </trkpt>
      <trkpt lat="45.94323" lon="4.78403">
        <ele>230</ele>
        <time>2017-03-29T08:29:07Z</time>
      </trkpt>
      <trkpt lat="45.94327" lon="4.78412">
        <ele>229</ele>
        <time>2017-03-29T08:29:10Z</time>
      </trkpt>
      <trkpt lat="45.94329" lon="4.78416">
        <ele>229</ele>
        <time>2017-03-29T08:29:11Z</time>
      </trkpt>
      <trkpt lat="45.94333" lon="4.78425">
        <ele>232</ele>
        <time>2017-03-29T08:29:14Z</time>
      </trkpt>
      <trkpt lat="45.94334" lon="4.78428">
        <ele>232</ele>
        <time>2017-03-29T08:29:15Z</time>
      </trkpt>
      <trkpt lat="45.9434" lon="4.78435">
        <ele>233</ele>
        <time>2017-03-29T08:29:18Z</time>
      </trkpt>
      <trkpt lat="45.94342" lon="4.78438">
        <ele>233</ele>
        <time>2017-03-29T08:29:19Z</time>
      </trkpt>
      <trkpt lat="45.94346" lon="4.78446">
        <ele>234</ele>
        <time>2017-03-29T08:29:22Z</time>
      </trkpt>
      <trkpt lat="45.94348" lon="4.78449">
        <ele>235</ele>
        <time>2017-03-29T08:29:23Z</time>
      </trkpt>
      <trkpt lat="45.94353" lon="4.78457">
        <ele>235</ele>
        <time>2017-03-29T08:29:26Z</time>
      </trkpt>
      <trkpt lat="45.94355" lon="4.7846">
        <ele>236</ele>
        <time>2017-03-29T08:29:27Z</time>
      </trkpt>
      <trkpt lat="45.9436" lon="4.78467">
        <ele>236</ele>
        <time>2017-03-29T08:29:30Z</time>
      </trkpt>
      <trkpt lat="45.94363" lon="4.78469">
        <ele>236</ele>
        <time>2017-03-29T08:29:31Z</time>
      </trkpt>
      <trkpt lat="45.94366" lon="4.78478">
        <ele>236</ele>
        <time>2017-03-29T08:29:34Z</time>
      </trkpt>
      <trkpt lat="45.94368" lon="4.78481">
        <ele>236</ele>
        <time>2017-03-29T08:29:35Z</time>
      </trkpt>
      <trkpt lat="45.94374" lon="4.78488">
        <ele>236</ele>
        <time>2017-03-29T08:29:38Z</time>
      </trkpt>
      <trkpt lat="45.94376" lon="4.7849">
        <ele>236</ele>
        <time>2017-03-29T08:29:39Z</time>
      </trkpt>
      <trkpt lat="45.94382" lon="4.78496">
        <ele>236</ele>
        <time>2017-03-29T08:29:42Z</time>
      </trkpt>
      <trkpt lat="45.94384" lon="4.78499">
        <ele>236</ele>
        <time>2017-03-29T08:29:43Z</time>
      </trkpt>
      <trkpt lat="45.9439" lon="4.78505">
        <ele>237</ele>
        <time>2017-03-29T08:29:46Z</time>
      </trkpt>
      <trkpt lat="45.94392" lon="4.78507">
        <ele>237</ele>
        <time>2017-03-29T08:29:47Z</time>
      </trkpt>
      <trkpt lat="45.94398" lon="4.78512">
        <ele>237</ele>
        <time>2017-03-29T08:29:50Z</time>
      </trkpt>
      <trkpt lat="45.944" lon="4.78514">
        <ele>237</ele>
        <time>2017-03-29T08:29:51Z</time>
      </trkpt>
      <trkpt lat="45.94408" lon="4.78518">
        <ele>237</ele>
        <time>2017-03-29T08:29:54Z</time>
      </trkpt>
      <trkpt lat="45.94409" lon="4.78521">
        <ele>237</ele>
        <time>2017-03-29T08:29:55Z</time>
      </trkpt>
      <trkpt lat="45.94416" lon="4.78526">
        <ele>237</ele>
        <time>2017-03-29T08:29:58Z</time>
      </trkpt>
      <trkpt lat="45.94417" lon="4.78529">
        <ele>238</ele>
        <time>2017-03-29T08:29:59Z</time>
      </trkpt>
      <trkpt lat="45.94421" lon="4.78539">
        <ele>238</ele>
        <time>2017-03-29T08:30:02Z</time>
      </trkpt>
      <trkpt lat="45.94422" lon="4.78542">
        <ele>238</ele>
        <time>2017-03-29T08:30:03Z</time>
      </trkpt>
      <trkpt lat="45.94427" lon="4.78552">
        <ele>238</ele>
        <time>2017-03-29T08:30:06Z</time>
      </trkpt>
      <trkpt lat="45.94428" lon="4.78555">
        <ele>238</ele>
        <time>2017-03-29T08:30:07Z</time>
      </trkpt>
      <trkpt lat="45.94434" lon="4.78563">
        <ele>239</ele>
        <time>2017-03-29T08:30:10Z</time>
      </trkpt>
      <trkpt lat="45.94436" lon="4.78566">
        <ele>239</ele>
        <time>2017-03-29T08:30:11Z</time>
      </trkpt>
      <trkpt lat="45.94441" lon="4.78573">
        <ele>239</ele>
        <time>2017-03-29T08:30:14Z</time>
      </trkpt>
      <trkpt lat="45.94443" lon="4.78576">
        <ele>239</ele>
        <time>2017-03-29T08:30:15Z</time>
      </trkpt>
      <trkpt lat="45.94449" lon="4.78584">
        <ele>240</ele>
        <time>2017-03-29T08:30:18Z</time>
      </trkpt>
      <trkpt lat="45.94451" lon="4.78587">
        <ele>240</ele>
        <time>2017-03-29T08:30:19Z</time>
      </trkpt>
      <trkpt lat="45.94456" lon="4.78596">
        <ele>240</ele>
        <time>2017-03-29T08:30:22Z</time>
      </trkpt>
      <trkpt lat="45.94457" lon="4.78599">
        <ele>240</ele>
        <time>2017-03-29T08:30:23Z</time>
      </trkpt>
      <trkpt lat="45.94462" lon="4.78607">
        <ele>241</ele>
        <time>2017-03-29T08:30:26Z</time>
      </trkpt>
      <trkpt lat="45.94463" lon="4.7861">
        <ele>241</ele>
        <time>2017-03-29T08:30:27Z</time>
      </trkpt>
      <trkpt lat="45.94464" lon="4.7862">
        <ele>241</ele>
        <time>2017-03-29T08:30:30Z</time>
      </trkpt>
      <trkpt lat="45.94465" lon="4.78623">
        <ele>241</ele>
        <time>2017-03-29T08:30:31Z</time>
      </trkpt>
      <trkpt lat="45.94467" lon="4.78632">
        <ele>241</ele>
        <time>2017-03-29T08:30:34Z</time>
      </trkpt>
      <trkpt lat="45.94468" lon="4.78635">
        <ele>241</ele>
        <time>2017-03-29T08:30:35Z</time>
      </trkpt>
      <trkpt lat="45.94469" lon="4.78646">
        <ele>241</ele>
        <time>2017-03-29T08:30:38Z</time>
      </trkpt>
      <trkpt lat="45.9447" lon="4.78649">
        <ele>241</ele>
        <time>2017-03-29T08:30:39Z</time>
      </trkpt>
      <trkpt lat="45.94472" lon="4.78661">
        <ele>241</ele>
        <time>2017-03-29T08:30:43Z</time>
      </trkpt>
      <trkpt lat="45.94472" lon="4.78664">
        <ele>241</ele>
        <time>2017-03-29T08:30:44Z</time>
      </trkpt>
      <trkpt lat="45.94472" lon="4.78675">
        <ele>244</ele>
        <time>2017-03-29T08:30:48Z</time>
      </trkpt>
      <trkpt lat="45.94472" lon="4.78678">
        <ele>244</ele>
        <time>2017-03-29T08:30:49Z</time>
      </trkpt>
      <trkpt lat="45.94472" lon="4.7869">
        <ele>244</ele>
        <time>2017-03-29T08:30:54Z</time>
      </trkpt>
      <trkpt lat="45.94473" lon="4.78693">
        <ele>244</ele>
        <time>2017-03-29T08:30:55Z</time>
      </trkpt>
      <trkpt lat="45.94476" lon="4.78702">
        <ele>245</ele>
        <time>2017-03-29T08:30:58Z</time>
      </trkpt>
      <trkpt lat="45.94476" lon="4.78705">
        <ele>245</ele>
        <time>2017-03-29T08:30:59Z</time>
      </trkpt>
      <trkpt lat="45.94477" lon="4.78716">
        <ele>245</ele>
        <time>2017-03-29T08:31:03Z</time>
      </trkpt>
      <trkpt lat="45.94478" lon="4.78719">
        <ele>245</ele>
        <time>2017-03-29T08:31:04Z</time>
      </trkpt>
      <trkpt lat="45.94479" lon="4.7873">
        <ele>246</ele>
        <time>2017-03-29T08:31:08Z</time>
      </trkpt>
      <trkpt lat="45.94478" lon="4.78733">
        <ele>246</ele>
        <time>2017-03-29T08:31:09Z</time>
      </trkpt>
      <trkpt lat="45.94477" lon="4.78743">
        <ele>246</ele>
        <time>2017-03-29T08:31:12Z</time>
      </trkpt>
      <trkpt lat="45.94477" lon="4.78746">
        <ele>246</ele>
        <time>2017-03-29T08:31:13Z</time>
      </trkpt>
      <trkpt lat="45.94476" lon="4.78759">
        <ele>249</ele>
        <time>2017-03-29T08:31:18Z</time>
      </trkpt>
      <trkpt lat="45.94476" lon="4.78762">
        <ele>249</ele>
        <time>2017-03-29T08:31:19Z</time>
      </trkpt>
      <trkpt lat="45.94474" lon="4.78774">
        <ele>250</ele>
        <time>2017-03-29T08:31:24Z</time>
      </trkpt>
      <trkpt lat="45.94473" lon="4.78776">
        <ele>250</ele>
        <time>2017-03-29T08:31:25Z</time>
      </trkpt>
      <trkpt lat="45.94469" lon="4.78784">
        <ele>250</ele>
        <time>2017-03-29T08:31:28Z</time>
      </trkpt>
      <trkpt lat="45.94467" lon="4.78787">
        <ele>250</ele>
        <time>2017-03-29T08:31:29Z</time>
      </trkpt>
      <trkpt lat="45.94462" lon="4.78795">
        <ele>251</ele>
        <time>2017-03-29T08:31:33Z</time>
      </trkpt>
      <trkpt lat="45.94461" lon="4.78797">
        <ele>251</ele>
        <time>2017-03-29T08:31:34Z</time>
      </trkpt>
      <trkpt lat="45.94457" lon="4.78807">
        <ele>251</ele>
        <time>2017-03-29T08:31:38Z</time>
      </trkpt>
      <trkpt lat="45.94458" lon="4.78811">
        <ele>251</ele>
        <time>2017-03-29T08:31:39Z</time>
      </trkpt>
      <trkpt lat="45.94458" lon="4.78821">
        <ele>251</ele>
        <time>2017-03-29T08:31:42Z</time>
      </trkpt>
      <trkpt lat="45.94458" lon="4.78825">
        <ele>251</ele>
        <time>2017-03-29T08:31:43Z</time>
      </trkpt>
      <trkpt lat="45.94456" lon="4.78834">
        <ele>253</ele>
        <time>2017-03-29T08:31:46Z</time>
      </trkpt>
      <trkpt lat="45.94456" lon="4.78838">
        <ele>253</ele>
        <time>2017-03-29T08:31:47Z</time>
      </trkpt>
      <trkpt lat="45.94454" lon="4.78851">
        <ele>253</ele>
        <time>2017-03-29T08:31:51Z</time>
      </trkpt>
      <trkpt lat="45.94454" lon="4.78854">
        <ele>253</ele>
        <time>2017-03-29T08:31:52Z</time>
      </trkpt>
      <trkpt lat="45.94455" lon="4.78866">
        <ele>253</ele>
        <time>2017-03-29T08:31:55Z</time>
      </trkpt>
      <trkpt lat="45.94456" lon="4.7887">
        <ele>253</ele>
        <time>2017-03-29T08:31:56Z</time>
      </trkpt>
      <trkpt lat="45.94456" lon="4.7888">
        <ele>253</ele>
        <time>2017-03-29T08:31:59Z</time>
      </trkpt>
      <trkpt lat="45.94456" lon="4.78883">
        <ele>253</ele>
        <time>2017-03-29T08:32:00Z</time>
      </trkpt>
      <trkpt lat="45.94455" lon="4.78894">
        <ele>253</ele>
        <time>2017-03-29T08:32:04Z</time>
      </trkpt>
      <trkpt lat="45.94455" lon="4.78897">
        <ele>253</ele>
        <time>2017-03-29T08:32:05Z</time>
      </trkpt>
      <trkpt lat="45.94457" lon="4.78909">
        <ele>253</ele>
        <time>2017-03-29T08:32:09Z</time>
      </trkpt>
      <trkpt lat="45.94457" lon="4.78913">
        <ele>253</ele>
        <time>2017-03-29T08:32:10Z</time>
      </trkpt>
      <trkpt lat="45.94459" lon="4.78924">
        <ele>254</ele>
        <time>2017-03-29T08:32:13Z</time>
      </trkpt>
      <trkpt lat="45.9446" lon="4.78928">
        <ele>254</ele>
        <time>2017-03-29T08:32:14Z</time>
      </trkpt>
      <trkpt lat="45.94462" lon="4.78938">
        <ele>254</ele>
        <time>2017-03-29T08:32:17Z</time>
      </trkpt>
      <trkpt lat="45.94463" lon="4.78941">
        <ele>254</ele>
        <time>2017-03-29T08:32:18Z</time>
      </trkpt>
      <trkpt lat="45.94467" lon="4.78951">
        <ele>254</ele>
        <time>2017-03-29T08:32:21Z</time>
      </trkpt>
      <trkpt lat="45.94469" lon="4.78953">
        <ele>254</ele>
        <time>2017-03-29T08:32:22Z</time>
      </trkpt>
      <trkpt lat="45.94472" lon="4.7896">
        <ele>254</ele>
        <time>2017-03-29T08:32:24Z</time>
      </trkpt>
      <trkpt lat="45.94474" lon="4.78964">
        <ele>254</ele>
        <time>2017-03-29T08:32:25Z</time>
      </trkpt>
      <trkpt lat="45.94479" lon="4.78971">
        <ele>254</ele>
        <time>2017-03-29T08:32:28Z</time>
      </trkpt>
      <trkpt lat="45.94481" lon="4.78974">
        <ele>254</ele>
        <time>2017-03-29T08:32:29Z</time>
      </trkpt>
      <trkpt lat="45.94485" lon="4.78983">
        <ele>254</ele>
        <time>2017-03-29T08:32:32Z</time>
      </trkpt>
      <trkpt lat="45.94486" lon="4.78986">
        <ele>254</ele>
        <time>2017-03-29T08:32:33Z</time>
      </trkpt>
      <trkpt lat="45.9449" lon="4.78994">
        <ele>254</ele>
        <time>2017-03-29T08:32:36Z</time>
      </trkpt>
      <trkpt lat="45.94492" lon="4.78997">
        <ele>254</ele>
        <time>2017-03-29T08:32:37Z</time>
      </trkpt>
      <trkpt lat="45.94497" lon="4.79006">
        <ele>254</ele>
        <time>2017-03-29T08:32:40Z</time>
      </trkpt>
      <trkpt lat="45.94499" lon="4.79009">
        <ele>254</ele>
        <time>2017-03-29T08:32:41Z</time>
      </trkpt>
      <trkpt lat="45.94504" lon="4.79019">
        <ele>255</ele>
        <time>2017-03-29T08:32:44Z</time>
      </trkpt>
      <trkpt lat="45.94505" lon="4.79022">
        <ele>255</ele>
        <time>2017-03-29T08:32:45Z</time>
      </trkpt>
      <trkpt lat="45.9451" lon="4.79032">
        <ele>255</ele>
        <time>2017-03-29T08:32:48Z</time>
      </trkpt>
      <trkpt lat="45.94512" lon="4.79035">
        <ele>255</ele>
        <time>2017-03-29T08:32:49Z</time>
      </trkpt>
      <trkpt lat="45.94517" lon="4.79045">
        <ele>255</ele>
        <time>2017-03-29T08:32:52Z</time>
      </trkpt>
      <trkpt lat="45.94519" lon="4.79049">
        <ele>255</ele>
        <time>2017-03-29T08:32:53Z</time>
      </trkpt>
      <trkpt lat="45.94523" lon="4.79058">
        <ele>255</ele>
        <time>2017-03-29T08:32:55Z</time>
      </trkpt>
      <trkpt lat="45.94525" lon="4.79062">
        <ele>255</ele>
        <time>2017-03-29T08:32:56Z</time>
      </trkpt>
      <trkpt lat="45.9453" lon="4.79071">
        <ele>255</ele>
        <time>2017-03-29T08:32:58Z</time>
      </trkpt>
      <trkpt lat="45.94532" lon="4.79075">
        <ele>255</ele>
        <time>2017-03-29T08:32:59Z</time>
      </trkpt>
      <trkpt lat="45.94537" lon="4.79083">
        <ele>256</ele>
        <time>2017-03-29T08:33:01Z</time>
      </trkpt>
      <trkpt lat="45.94538" lon="4.79087">
        <ele>256</ele>
        <time>2017-03-29T08:33:02Z</time>
      </trkpt>
      <trkpt lat="45.94542" lon="4.79097">
        <ele>256</ele>
        <time>2017-03-29T08:33:04Z</time>
      </trkpt>
      <trkpt lat="45.94545" lon="4.79102">
        <ele>256</ele>
        <time>2017-03-29T08:33:05Z</time>
      </trkpt>
      <trkpt lat="45.94549" lon="4.79111">
        <ele>256</ele>
        <time>2017-03-29T08:33:07Z</time>
      </trkpt>
      <trkpt lat="45.94552" lon="4.79115">
        <ele>256</ele>
        <time>2017-03-29T08:33:08Z</time>
      </trkpt>
      <trkpt lat="45.94557" lon="4.79124">
        <ele>257</ele>
        <time>2017-03-29T08:33:10Z</time>
      </trkpt>
      <trkpt lat="45.94559" lon="4.79129">
        <ele>257</ele>
        <time>2017-03-29T08:33:11Z</time>
      </trkpt>
      <trkpt lat="45.94562" lon="4.79134">
        <ele>257</ele>
        <time>2017-03-29T08:33:12Z</time>
      </trkpt>
      <trkpt lat="45.94566" lon="4.79139">
        <ele>257</ele>
        <time>2017-03-29T08:33:13Z</time>
      </trkpt>
      <trkpt lat="45.94569" lon="4.79144">
        <ele>257</ele>
        <time>2017-03-29T08:33:14Z</time>
      </trkpt>
      <trkpt lat="45.94571" lon="4.7915">
        <ele>257</ele>
        <time>2017-03-29T08:33:15Z</time>
      </trkpt>
      <trkpt lat="45.94573" lon="4.79156">
        <ele>258</ele>
        <time>2017-03-29T08:33:16Z</time>
      </trkpt>
      <trkpt lat="45.94577" lon="4.79161">
        <ele>258</ele>
        <time>2017-03-29T08:33:17Z</time>
      </trkpt>
      <trkpt lat="45.9458" lon="4.79166">
        <ele>259</ele>
        <time>2017-03-29T08:33:18Z</time>
      </trkpt>
      <trkpt lat="45.94584" lon="4.79171">
        <ele>259</ele>
        <time>2017-03-29T08:33:19Z</time>
      </trkpt>
      <trkpt lat="45.94587" lon="4.79176">
        <ele>258</ele>
        <time>2017-03-29T08:33:20Z</time>
      </trkpt>
      <trkpt lat="45.94589" lon="4.79182">
        <ele>258</ele>
        <time>2017-03-29T08:33:21Z</time>
      </trkpt>
      <trkpt lat="45.94594" lon="4.79193">
        <ele>257</ele>
        <time>2017-03-29T08:33:23Z</time>
      </trkpt>
      <trkpt lat="45.94597" lon="4.79198">
        <ele>257</ele>
        <time>2017-03-29T08:33:24Z</time>
      </trkpt>
      <trkpt lat="45.94601" lon="4.79203">
        <ele>257</ele>
        <time>2017-03-29T08:33:25Z</time>
      </trkpt>
      <trkpt lat="45.94604" lon="4.79209">
        <ele>257</ele>
        <time>2017-03-29T08:33:26Z</time>
      </trkpt>
      <trkpt lat="45.9461" lon="4.79217">
        <ele>257</ele>
        <time>2017-03-29T08:33:28Z</time>
      </trkpt>
      <trkpt lat="45.94613" lon="4.79222">
        <ele>256</ele>
        <time>2017-03-29T08:33:29Z</time>
      </trkpt>
      <trkpt lat="45.94615" lon="4.79228">
        <ele>256</ele>
        <time>2017-03-29T08:33:30Z</time>
      </trkpt>
      <trkpt lat="45.94618" lon="4.79234">
        <ele>256</ele>
        <time>2017-03-29T08:33:31Z</time>
      </trkpt>
      <trkpt lat="45.9462" lon="4.79239">
        <ele>256</ele>
        <time>2017-03-29T08:33:32Z</time>
      </trkpt>
      <trkpt lat="45.94623" lon="4.79245">
        <ele>256</ele>
        <time>2017-03-29T08:33:33Z</time>
      </trkpt>
      <trkpt lat="45.94627" lon="4.79256">
        <ele>254</ele>
        <time>2017-03-29T08:33:35Z</time>
      </trkpt>
      <trkpt lat="45.94629" lon="4.7926">
        <ele>254</ele>
        <time>2017-03-29T08:33:36Z</time>
      </trkpt>
      <trkpt lat="45.94633" lon="4.79267">
        <ele>254</ele>
        <time>2017-03-29T08:33:38Z</time>
      </trkpt>
      <trkpt lat="45.94635" lon="4.79272">
        <ele>254</ele>
        <time>2017-03-29T08:33:39Z</time>
      </trkpt>
      <trkpt lat="45.94639" lon="4.79282">
        <ele>254</ele>
        <time>2017-03-29T08:33:41Z</time>
      </trkpt>
      <trkpt lat="45.94642" lon="4.79287">
        <ele>254</ele>
        <time>2017-03-29T08:33:42Z</time>
      </trkpt>
      <trkpt lat="45.94647" lon="4.79297">
        <ele>254</ele>
        <time>2017-03-29T08:33:44Z</time>
      </trkpt>
      <trkpt lat="45.94649" lon="4.79302">
        <ele>254</ele>
        <time>2017-03-29T08:33:45Z</time>
      </trkpt>
      <trkpt lat="45.94653" lon="4.79313">
        <ele>254</ele>
        <time>2017-03-29T08:33:47Z</time>
      </trkpt>
      <trkpt lat="45.94655" lon="4.79318">
        <ele>254</ele>
        <time>2017-03-29T08:33:48Z</time>
      </trkpt>
      <trkpt lat="45.94659" lon="4.79328">
        <ele>254</ele>
        <time>2017-03-29T08:33:50Z</time>
      </trkpt>
      <trkpt lat="45.94661" lon="4.79333">
        <ele>254</ele>
        <time>2017-03-29T08:33:51Z</time>
      </trkpt>
      <trkpt lat="45.94665" lon="4.79343">
        <ele>254</ele>
        <time>2017-03-29T08:33:53Z</time>
      </trkpt>
      <trkpt lat="45.94667" lon="4.79347">
        <ele>253</ele>
        <time>2017-03-29T08:33:54Z</time>
      </trkpt>
      <trkpt lat="45.94671" lon="4.79355">
        <ele>253</ele>
        <time>2017-03-29T08:33:56Z</time>
      </trkpt>
      <trkpt lat="45.94672" lon="4.79361">
        <ele>253</ele>
        <time>2017-03-29T08:33:57Z</time>
      </trkpt>
      <trkpt lat="45.94676" lon="4.79371">
        <ele>253</ele>
        <time>2017-03-29T08:33:59Z</time>
      </trkpt>
      <trkpt lat="45.94679" lon="4.79376">
        <ele>253</ele>
        <time>2017-03-29T08:34:00Z</time>
      </trkpt>
      <trkpt lat="45.94684" lon="4.79385">
        <ele>253</ele>
        <time>2017-03-29T08:34:02Z</time>
      </trkpt>
      <trkpt lat="45.94686" lon="4.7939">
        <ele>253</ele>
        <time>2017-03-29T08:34:03Z</time>
      </trkpt>
      <trkpt lat="45.9469" lon="4.79401">
        <ele>253</ele>
        <time>2017-03-29T08:34:05Z</time>
      </trkpt>
      <trkpt lat="45.94693" lon="4.79406">
        <ele>253</ele>
        <time>2017-03-29T08:34:06Z</time>
      </trkpt>
      <trkpt lat="45.94695" lon="4.79411">
        <ele>253</ele>
        <time>2017-03-29T08:34:07Z</time>
      </trkpt>
      <trkpt lat="45.94698" lon="4.79417">
        <ele>253</ele>
        <time>2017-03-29T08:34:08Z</time>
      </trkpt>
      <trkpt lat="45.94704" lon="4.79427">
        <ele>253</ele>
        <time>2017-03-29T08:34:10Z</time>
      </trkpt>
      <trkpt lat="45.94706" lon="4.79432">
        <ele>253</ele>
        <time>2017-03-29T08:34:11Z</time>
      </trkpt>
      <trkpt lat="45.94711" lon="4.79442">
        <ele>253</ele>
        <time>2017-03-29T08:34:13Z</time>
      </trkpt>
      <trkpt lat="45.94713" lon="4.79448">
        <ele>253</ele>
        <time>2017-03-29T08:34:14Z</time>
      </trkpt>
      <trkpt lat="45.94716" lon="4.79453">
        <ele>253</ele>
        <time>2017-03-29T08:34:15Z</time>
      </trkpt>
      <trkpt lat="45.94719" lon="4.79459">
        <ele>253</ele>
        <time>2017-03-29T08:34:16Z</time>
      </trkpt>
      <trkpt lat="45.94722" lon="4.79464">
        <ele>253</ele>
        <time>2017-03-29T08:34:17Z</time>
      </trkpt>
      <trkpt lat="45.94724" lon="4.7947">
        <ele>253</ele>
        <time>2017-03-29T08:34:18Z</time>
      </trkpt>
      <trkpt lat="45.94727" lon="4.79476">
        <ele>253</ele>
        <time>2017-03-29T08:34:19Z</time>
      </trkpt>
      <trkpt lat="45.9473" lon="4.79482">
        <ele>253</ele>
        <time>2017-03-29T08:34:20Z</time>
      </trkpt>
      <trkpt lat="45.94733" lon="4.79488">
        <ele>253</ele>
        <time>2017-03-29T08:34:21Z</time>
      </trkpt>
      <trkpt lat="45.94735" lon="4.79495">
        <ele>252</ele>
        <time>2017-03-29T08:34:22Z</time>
      </trkpt>
      <trkpt lat="45.94738" lon="4.79501">
        <ele>252</ele>
        <time>2017-03-29T08:34:23Z</time>
      </trkpt>
      <trkpt lat="45.9474" lon="4.79508">
        <ele>252</ele>
        <time>2017-03-29T08:34:24Z</time>
      </trkpt>
      <trkpt lat="45.94743" lon="4.79514">
        <ele>252</ele>
        <time>2017-03-29T08:34:25Z</time>
      </trkpt>
      <trkpt lat="45.94745" lon="4.79521">
        <ele>253</ele>
        <time>2017-03-29T08:34:26Z</time>
      </trkpt>
      <trkpt lat="45.94747" lon="4.79527">
        <ele>253</ele>
        <time>2017-03-29T08:34:27Z</time>
      </trkpt>
      <trkpt lat="45.94749" lon="4.79533">
        <ele>253</ele>
        <time>2017-03-29T08:34:28Z</time>
      </trkpt>
      <trkpt lat="45.94752" lon="4.79544">
        <ele>252</ele>
        <time>2017-03-29T08:34:30Z</time>
      </trkpt>
      <trkpt lat="45.94754" lon="4.79549">
        <ele>252</ele>
        <time>2017-03-29T08:34:31Z</time>
      </trkpt>
      <trkpt lat="45.94758" lon="4.7956">
        <ele>252</ele>
        <time>2017-03-29T08:34:33Z</time>
      </trkpt>
      <trkpt lat="45.94759" lon="4.79566">
        <ele>252</ele>
        <time>2017-03-29T08:34:34Z</time>
      </trkpt>
      <trkpt lat="45.94759" lon="4.79573">
        <ele>252</ele>
        <time>2017-03-29T08:34:35Z</time>
      </trkpt>
      <trkpt lat="45.94759" lon="4.7958">
        <ele>252</ele>
        <time>2017-03-29T08:34:36Z</time>
      </trkpt>
      <trkpt lat="45.94759" lon="4.79587">
        <ele>252</ele>
        <time>2017-03-29T08:34:37Z</time>
      </trkpt>
      <trkpt lat="45.9476" lon="4.79594">
        <ele>253</ele>
        <time>2017-03-29T08:34:38Z</time>
      </trkpt>
      <trkpt lat="45.94761" lon="4.79606">
        <ele>253</ele>
        <time>2017-03-29T08:34:40Z</time>
      </trkpt>
      <trkpt lat="45.94763" lon="4.79612">
        <ele>253</ele>
        <time>2017-03-29T08:34:41Z</time>
      </trkpt>
      <trkpt lat="45.94764" lon="4.79618">
        <ele>253</ele>
        <time>2017-03-29T08:34:42Z</time>
      </trkpt>
      <trkpt lat="45.94765" lon="4.79624">
        <ele>253</ele>
        <time>2017-03-29T08:34:43Z</time>
      </trkpt>
      <trkpt lat="45.94768" lon="4.79636">
        <ele>254</ele>
        <time>2017-03-29T08:34:45Z</time>
      </trkpt>
      <trkpt lat="45.9477" lon="4.79642">
        <ele>254</ele>
        <time>2017-03-29T08:34:46Z</time>
      </trkpt>
      <trkpt lat="45.94772" lon="4.79648">
        <ele>254</ele>
        <time>2017-03-29T08:34:47Z</time>
      </trkpt>
      <trkpt lat="45.94773" lon="4.79655">
        <ele>254</ele>
        <time>2017-03-29T08:34:48Z</time>
      </trkpt>
      <trkpt lat="45.94775" lon="4.79662">
        <ele>254</ele>
        <time>2017-03-29T08:34:49Z</time>
      </trkpt>
      <trkpt lat="45.94776" lon="4.79669">
        <ele>254</ele>
        <time>2017-03-29T08:34:50Z</time>
      </trkpt>
      <trkpt lat="45.94778" lon="4.79675">
        <ele>254</ele>
        <time>2017-03-29T08:34:51Z</time>
      </trkpt>
      <trkpt lat="45.94781" lon="4.79681">
        <ele>254</ele>
        <time>2017-03-29T08:34:52Z</time>
      </trkpt>
      <trkpt lat="45.94784" lon="4.79688">
        <ele>254</ele>
        <time>2017-03-29T08:34:53Z</time>
      </trkpt>
      <trkpt lat="45.94786" lon="4.79694">
        <ele>254</ele>
        <time>2017-03-29T08:34:54Z</time>
      </trkpt>
      <trkpt lat="45.94789" lon="4.79705">
        <ele>254</ele>
        <time>2017-03-29T08:34:56Z</time>
      </trkpt>
      <trkpt lat="45.94791" lon="4.79711">
        <ele>254</ele>
        <time>2017-03-29T08:34:57Z</time>
      </trkpt>
      <trkpt lat="45.94793" lon="4.79717">
        <ele>254</ele>
        <time>2017-03-29T08:34:58Z</time>
      </trkpt>
      <trkpt lat="45.94795" lon="4.79723">
        <ele>254</ele>
        <time>2017-03-29T08:34:59Z</time>
      </trkpt>
      <trkpt lat="45.94797" lon="4.7973">
        <ele>254</ele>
        <time>2017-03-29T08:35:00Z</time>
      </trkpt>
      <trkpt lat="45.94799" lon="4.79735">
        <ele>254</ele>
        <time>2017-03-29T08:35:01Z</time>
      </trkpt>
      <trkpt lat="45.94801" lon="4.79742">
        <ele>254</ele>
        <time>2017-03-29T08:35:02Z</time>
      </trkpt>
      <trkpt lat="45.94803" lon="4.79748">
        <ele>254</ele>
        <time>2017-03-29T08:35:03Z</time>
      </trkpt>
      <trkpt lat="45.94804" lon="4.79755">
        <ele>254</ele>
        <time>2017-03-29T08:35:04Z</time>
      </trkpt>
      <trkpt lat="45.94806" lon="4.79762">
        <ele>254</ele>
        <time>2017-03-29T08:35:05Z</time>
      </trkpt>
      <trkpt lat="45.94808" lon="4.79768">
        <ele>254</ele>
        <time>2017-03-29T08:35:06Z</time>
      </trkpt>
      <trkpt lat="45.9481" lon="4.79775">
        <ele>254</ele>
        <time>2017-03-29T08:35:07Z</time>
      </trkpt>
      <trkpt lat="45.94812" lon="4.79781">
        <ele>254</ele>
        <time>2017-03-29T08:35:08Z</time>
      </trkpt>
      <trkpt lat="45.94814" lon="4.79788">
        <ele>254</ele>
        <time>2017-03-29T08:35:09Z</time>
      </trkpt>
      <trkpt lat="45.94815" lon="4.79795">
        <ele>254</ele>
        <time>2017-03-29T08:35:10Z</time>
      </trkpt>
      <trkpt lat="45.94817" lon="4.79802">
        <ele>254</ele>
        <time>2017-03-29T08:35:11Z</time>
      </trkpt>
      <trkpt lat="45.94818" lon="4.79809">
        <ele>254</ele>
        <time>2017-03-29T08:35:12Z</time>
      </trkpt>
      <trkpt lat="45.9482" lon="4.79816">
        <ele>254</ele>
        <time>2017-03-29T08:35:13Z</time>
      </trkpt>
      <trkpt lat="45.94821" lon="4.79822">
        <ele>254</ele>
        <time>2017-03-29T08:35:14Z</time>
      </trkpt>
      <trkpt lat="45.94823" lon="4.79829">
        <ele>254</ele>
        <time>2017-03-29T08:35:15Z</time>
      </trkpt>
      <trkpt lat="45.94824" lon="4.79835">
        <ele>254</ele>
        <time>2017-03-29T08:35:16Z</time>
      </trkpt>
      <trkpt lat="45.94826" lon="4.79842">
        <ele>254</ele>
        <time>2017-03-29T08:35:17Z</time>
      </trkpt>
      <trkpt lat="45.94827" lon="4.79848">
        <ele>254</ele>
        <time>2017-03-29T08:35:18Z</time>
      </trkpt>
      <trkpt lat="45.94829" lon="4.79855">
        <ele>255</ele>
        <time>2017-03-29T08:35:19Z</time>
      </trkpt>
      <trkpt lat="45.9483" lon="4.79861">
        <ele>255</ele>
        <time>2017-03-29T08:35:20Z</time>
      </trkpt>
      <trkpt lat="45.94832" lon="4.79868">
        <ele>255</ele>
        <time>2017-03-29T08:35:21Z</time>
      </trkpt>
      <trkpt lat="45.94834" lon="4.79874">
        <ele>255</ele>
        <time>2017-03-29T08:35:22Z</time>
      </trkpt>
      <trkpt lat="45.94836" lon="4.7988">
        <ele>255</ele>
        <time>2017-03-29T08:35:23Z</time>
      </trkpt>
      <trkpt lat="45.94839" lon="4.79886">
        <ele>255</ele>
        <time>2017-03-29T08:35:24Z</time>
      </trkpt>
      <trkpt lat="45.94841" lon="4.79893">
        <ele>255</ele>
        <time>2017-03-29T08:35:25Z</time>
      </trkpt>
      <trkpt lat="45.94842" lon="4.79899">
        <ele>255</ele>
        <time>2017-03-29T08:35:26Z</time>
      </trkpt>
      <trkpt lat="45.94844" lon="4.79905">
        <ele>256</ele>
        <time>2017-03-29T08:35:27Z</time>
      </trkpt>
      <trkpt lat="45.94846" lon="4.7991">
        <ele>256</ele>
        <time>2017-03-29T08:35:28Z</time>
      </trkpt>
      <trkpt lat="45.94849" lon="4.79915">
        <ele>256</ele>
        <time>2017-03-29T08:35:29Z</time>
      </trkpt>
      <trkpt lat="45.94852" lon="4.79921">
        <ele>256</ele>
        <time>2017-03-29T08:35:30Z</time>
      </trkpt>
      <trkpt lat="45.94855" lon="4.79926">
        <ele>256</ele>
        <time>2017-03-29T08:35:31Z</time>
      </trkpt>
      <trkpt lat="45.9486" lon="4.79936">
        <ele>256</ele>
        <time>2017-03-29T08:35:33Z</time>
      </trkpt>
      <trkpt lat="45.94862" lon="4.79942">
        <ele>256</ele>
        <time>2017-03-29T08:35:34Z</time>
      </trkpt>
      <trkpt lat="45.94864" lon="4.79947">
        <ele>256</ele>
        <time>2017-03-29T08:35:35Z</time>
      </trkpt>
      <trkpt lat="45.94866" lon="4.79953">
        <ele>256</ele>
        <time>2017-03-29T08:35:36Z</time>
      </trkpt>
      <trkpt lat="45.94868" lon="4.79959">
        <ele>256</ele>
        <time>2017-03-29T08:35:37Z</time>
      </trkpt>
      <trkpt lat="45.9487" lon="4.79965">
        <ele>256</ele>
        <time>2017-03-29T08:35:38Z</time>
      </trkpt>
      <trkpt lat="45.94873" lon="4.7997">
        <ele>256</ele>
        <time>2017-03-29T08:35:39Z</time>
      </trkpt>
      <trkpt lat="45.94875" lon="4.79976">
        <ele>256</ele>
        <time>2017-03-29T08:35:40Z</time>
      </trkpt>
      <trkpt lat="45.94877" lon="4.79982">
        <ele>256</ele>
        <time>2017-03-29T08:35:41Z</time>
      </trkpt>
      <trkpt lat="45.94879" lon="4.79988">
        <ele>256</ele>
        <time>2017-03-29T08:35:42Z</time>
      </trkpt>
      <trkpt lat="45.94881" lon="4.79994">
        <ele>256</ele>
        <time>2017-03-29T08:35:43Z</time>
      </trkpt>
      <trkpt lat="45.94883" lon="4.80001">
        <ele>256</ele>
        <time>2017-03-29T08:35:44Z</time>
      </trkpt>
      <trkpt lat="45.94885" lon="4.80007">
        <ele>256</ele>
        <time>2017-03-29T08:35:45Z</time>
      </trkpt>
      <trkpt lat="45.94887" lon="4.80014">
        <ele>256</ele>
        <time>2017-03-29T08:35:46Z</time>
      </trkpt>
      <trkpt lat="45.94889" lon="4.8002">
        <ele>256</ele>
        <time>2017-03-29T08:35:47Z</time>
      </trkpt>
      <trkpt lat="45.94892" lon="4.80026">
        <ele>256</ele>
        <time>2017-03-29T08:35:48Z</time>
      </trkpt>
      <trkpt lat="45.94896" lon="4.80037">
        <ele>256</ele>
        <time>2017-03-29T08:35:50Z</time>
      </trkpt>
      <trkpt lat="45.94898" lon="4.80042">
        <ele>256</ele>
        <time>2017-03-29T08:35:51Z</time>
      </trkpt>
      <trkpt lat="45.94901" lon="4.80052">
        <ele>256</ele>
        <time>2017-03-29T08:35:53Z</time>
      </trkpt>
      <trkpt lat="45.94903" lon="4.80058">
        <ele>256</ele>
        <time>2017-03-29T08:35:54Z</time>
      </trkpt>
      <trkpt lat="45.94905" lon="4.80069">
        <ele>256</ele>
        <time>2017-03-29T08:35:56Z</time>
      </trkpt>
      <trkpt lat="45.94906" lon="4.80075">
        <ele>257</ele>
        <time>2017-03-29T08:35:57Z</time>
      </trkpt>
      <trkpt lat="45.94908" lon="4.80087">
        <ele>257</ele>
        <time>2017-03-29T08:35:59Z</time>
      </trkpt>
      <trkpt lat="45.94909" lon="4.80093">
        <ele>257</ele>
        <time>2017-03-29T08:36:00Z</time>
      </trkpt>
      <trkpt lat="45.94911" lon="4.80099">
        <ele>256</ele>
        <time>2017-03-29T08:36:01Z</time>
      </trkpt>
      <trkpt lat="45.94912" lon="4.80105">
        <ele>256</ele>
        <time>2017-03-29T08:36:02Z</time>
      </trkpt>
      <trkpt lat="45.94914" lon="4.80112">
        <ele>256</ele>
        <time>2017-03-29T08:36:03Z</time>
      </trkpt>
      <trkpt lat="45.94916" lon="4.80118">
        <ele>256</ele>
        <time>2017-03-29T08:36:04Z</time>
      </trkpt>
      <trkpt lat="45.94917" lon="4.80131">
        <ele>256</ele>
        <time>2017-03-29T08:36:06Z</time>
      </trkpt>
      <trkpt lat="45.94918" lon="4.80136">
        <ele>256</ele>
        <time>2017-03-29T08:36:07Z</time>
      </trkpt>
      <trkpt lat="45.9492" lon="4.80148">
        <ele>255</ele>
        <time>2017-03-29T08:36:09Z</time>
      </trkpt>
      <trkpt lat="45.94921" lon="4.80154">
        <ele>255</ele>
        <time>2017-03-29T08:36:10Z</time>
      </trkpt>
      <trkpt lat="45.94924" lon="4.80166">
        <ele>255</ele>
        <time>2017-03-29T08:36:12Z</time>
      </trkpt>
      <trkpt lat="45.94925" lon="4.80172">
        <ele>255</ele>
        <time>2017-03-29T08:36:13Z</time>
      </trkpt>
      <trkpt lat="45.94927" lon="4.80184">
        <ele>256</ele>
        <time>2017-03-29T08:36:15Z</time>
      </trkpt>
      <trkpt lat="45.94928" lon="4.8019">
        <ele>256</ele>
        <time>2017-03-29T08:36:16Z</time>
      </trkpt>
      <trkpt lat="45.94931" lon="4.80201">
        <ele>256</ele>
        <time>2017-03-29T08:36:18Z</time>
      </trkpt>
      <trkpt lat="45.94932" lon="4.80207">
        <ele>256</ele>
        <time>2017-03-29T08:36:19Z</time>
      </trkpt>
      <trkpt lat="45.94934" lon="4.80219">
        <ele>256</ele>
        <time>2017-03-29T08:36:21Z</time>
      </trkpt>
      <trkpt lat="45.94935" lon="4.80225">
        <ele>256</ele>
        <time>2017-03-29T08:36:22Z</time>
      </trkpt>
      <trkpt lat="45.94936" lon="4.80231">
        <ele>256</ele>
        <time>2017-03-29T08:36:23Z</time>
      </trkpt>
      <trkpt lat="45.94936" lon="4.80238">
        <ele>256</ele>
        <time>2017-03-29T08:36:24Z</time>
      </trkpt>
      <trkpt lat="45.94936" lon="4.80245">
        <ele>256</ele>
        <time>2017-03-29T08:36:25Z</time>
      </trkpt>
      <trkpt lat="45.94937" lon="4.80252">
        <ele>257</ele>
        <time>2017-03-29T08:36:26Z</time>
      </trkpt>
      <trkpt lat="45.94937" lon="4.80259">
        <ele>257</ele>
        <time>2017-03-29T08:36:27Z</time>
      </trkpt>
      <trkpt lat="45.94938" lon="4.80265">
        <ele>257</ele>
        <time>2017-03-29T08:36:28Z</time>
      </trkpt>
      <trkpt lat="45.94939" lon="4.80277">
        <ele>257</ele>
        <time>2017-03-29T08:36:30Z</time>
      </trkpt>
      <trkpt lat="45.94939" lon="4.80283">
        <ele>257</ele>
        <time>2017-03-29T08:36:31Z</time>
      </trkpt>
      <trkpt lat="45.9494" lon="4.80295">
        <ele>257</ele>
        <time>2017-03-29T08:36:33Z</time>
      </trkpt>
      <trkpt lat="45.94941" lon="4.80302">
        <ele>257</ele>
        <time>2017-03-29T08:36:34Z</time>
      </trkpt>
      <trkpt lat="45.94942" lon="4.80308">
        <ele>257</ele>
        <time>2017-03-29T08:36:35Z</time>
      </trkpt>
      <trkpt lat="45.94941" lon="4.80315">
        <ele>257</ele>
        <time>2017-03-29T08:36:36Z</time>
      </trkpt>
      <trkpt lat="45.9494" lon="4.80326">
        <ele>257</ele>
        <time>2017-03-29T08:36:38Z</time>
      </trkpt>
      <trkpt lat="45.9494" lon="4.80331">
        <ele>257</ele>
        <time>2017-03-29T08:36:39Z</time>
      </trkpt>
      <trkpt lat="45.9494" lon="4.80343">
        <ele>258</ele>
        <time>2017-03-29T08:36:41Z</time>
      </trkpt>
      <trkpt lat="45.9494" lon="4.8035">
        <ele>258</ele>
        <time>2017-03-29T08:36:42Z</time>
      </trkpt>
      <trkpt lat="45.9494" lon="4.80357">
        <ele>258</ele>
        <time>2017-03-29T08:36:43Z</time>
      </trkpt>
      <trkpt lat="45.9494" lon="4.80364">
        <ele>258</ele>
        <time>2017-03-29T08:36:44Z</time>
      </trkpt>
      <trkpt lat="45.94939" lon="4.8037">
        <ele>258</ele>
        <time>2017-03-29T08:36:45Z</time>
      </trkpt>
      <trkpt lat="45.94939" lon="4.80377">
        <ele>258</ele>
        <time>2017-03-29T08:36:46Z</time>
      </trkpt>
      <trkpt lat="45.9494" lon="4.80384">
        <ele>258</ele>
        <time>2017-03-29T08:36:47Z</time>
      </trkpt>
      <trkpt lat="45.9494" lon="4.80391">
        <ele>258</ele>
        <time>2017-03-29T08:36:48Z</time>
      </trkpt>
      <trkpt lat="45.9494" lon="4.80398">
        <ele>258</ele>
        <time>2017-03-29T08:36:49Z</time>
      </trkpt>
      <trkpt lat="45.9494" lon="4.80405">
        <ele>259</ele>
        <time>2017-03-29T08:36:50Z</time>
      </trkpt>
      <trkpt lat="45.9494" lon="4.80412">
        <ele>259</ele>
        <time>2017-03-29T08:36:51Z</time>
      </trkpt>
      <trkpt lat="45.9494" lon="4.80419">
        <ele>259</ele>
        <time>2017-03-29T08:36:52Z</time>
      </trkpt>
      <trkpt lat="45.9494" lon="4.80425">
        <ele>259</ele>
        <time>2017-03-29T08:36:53Z</time>
      </trkpt>
      <trkpt lat="45.9494" lon="4.80432">
        <ele>259</ele>
        <time>2017-03-29T08:36:54Z</time>
      </trkpt>
      <trkpt lat="45.9494" lon="4.80439">
        <ele>259</ele>
        <time>2017-03-29T08:36:55Z</time>
      </trkpt>
      <trkpt lat="45.9494" lon="4.80446">
        <ele>259</ele>
        <time>2017-03-29T08:36:56Z</time>
      </trkpt>
      <trkpt lat="45.94941" lon="4.80453">
        <ele>259</ele>
        <time>2017-03-29T08:36:57Z</time>
      </trkpt>
      <trkpt lat="45.94941" lon="4.8046">
        <ele>258</ele>
        <time>2017-03-29T08:36:58Z</time>
      </trkpt>
      <trkpt lat="45.94941" lon="4.80468">
        <ele>258</ele>
        <time>2017-03-29T08:36:59Z</time>
      </trkpt>
      <trkpt lat="45.94941" lon="4.80475">
        <ele>258</ele>
        <time>2017-03-29T08:37:00Z</time>
      </trkpt>
      <trkpt lat="45.94941" lon="4.80482">
        <ele>258</ele>
        <time>2017-03-29T08:37:01Z</time>
      </trkpt>
      <trkpt lat="45.94941" lon="4.80489">
        <ele>258</ele>
        <time>2017-03-29T08:37:02Z</time>
      </trkpt>
      <trkpt lat="45.94941" lon="4.80497">
        <ele>258</ele>
        <time>2017-03-29T08:37:03Z</time>
      </trkpt>
      <trkpt lat="45.94941" lon="4.80504">
        <ele>258</ele>
        <time>2017-03-29T08:37:04Z</time>
      </trkpt>
      <trkpt lat="45.94941" lon="4.80511">
        <ele>258</ele>
        <time>2017-03-29T08:37:05Z</time>
      </trkpt>
      <trkpt lat="45.94941" lon="4.80519">
        <ele>258</ele>
        <time>2017-03-29T08:37:06Z</time>
      </trkpt>
      <trkpt lat="45.94941" lon="4.80526">
        <ele>258</ele>
        <time>2017-03-29T08:37:07Z</time>
      </trkpt>
      <trkpt lat="45.94941" lon="4.80533">
        <ele>258</ele>
        <time>2017-03-29T08:37:08Z</time>
      </trkpt>
      <trkpt lat="45.94941" lon="4.8054">
        <ele>258</ele>
        <time>2017-03-29T08:37:09Z</time>
      </trkpt>
      <trkpt lat="45.94941" lon="4.80546">
        <ele>258</ele>
        <time>2017-03-29T08:37:10Z</time>
      </trkpt>
      <trkpt lat="45.94941" lon="4.80559">
        <ele>257</ele>
        <time>2017-03-29T08:37:12Z</time>
      </trkpt>
      <trkpt lat="45.94942" lon="4.80566">
        <ele>257</ele>
        <time>2017-03-29T08:37:13Z</time>
      </trkpt>
      <trkpt lat="45.94942" lon="4.80573">
        <ele>257</ele>
        <time>2017-03-29T08:37:14Z</time>
      </trkpt>
      <trkpt lat="45.94943" lon="4.80581">
        <ele>257</ele>
        <time>2017-03-29T08:37:15Z</time>
      </trkpt>
      <trkpt lat="45.94943" lon="4.80589">
        <ele>258</ele>
        <time>2017-03-29T08:37:16Z</time>
      </trkpt>
      <trkpt lat="45.94944" lon="4.80597">
        <ele>258</ele>
        <time>2017-03-29T08:37:17Z</time>
      </trkpt>
      <trkpt lat="45.94944" lon="4.80606">
        <ele>258</ele>
        <time>2017-03-29T08:37:18Z</time>
      </trkpt>
      <trkpt lat="45.94944" lon="4.80614">
        <ele>258</ele>
        <time>2017-03-29T08:37:19Z</time>
      </trkpt>
      <trkpt lat="45.94945" lon="4.80622">
        <ele>258</ele>
        <time>2017-03-29T08:37:20Z</time>
      </trkpt>
      <trkpt lat="45.94945" lon="4.8063">
        <ele>258</ele>
        <time>2017-03-29T08:37:21Z</time>
      </trkpt>
      <trkpt lat="45.94946" lon="4.80638">
        <ele>258</ele>
        <time>2017-03-29T08:37:22Z</time>
      </trkpt>
      <trkpt lat="45.94946" lon="4.80645">
        <ele>259</ele>
        <time>2017-03-29T08:37:23Z</time>
      </trkpt>
      <trkpt lat="45.94946" lon="4.80652">
        <ele>259</ele>
        <time>2017-03-29T08:37:24Z</time>
      </trkpt>
      <trkpt lat="45.94947" lon="4.80658">
        <ele>259</ele>
        <time>2017-03-29T08:37:25Z</time>
      </trkpt>
      <trkpt lat="45.94947" lon="4.80671">
        <ele>259</ele>
        <time>2017-03-29T08:37:27Z</time>
      </trkpt>
      <trkpt lat="45.94947" lon="4.80677">
        <ele>259</ele>
        <time>2017-03-29T08:37:28Z</time>
      </trkpt>
      <trkpt lat="45.94947" lon="4.80684">
        <ele>259</ele>
        <time>2017-03-29T08:37:29Z</time>
      </trkpt>
      <trkpt lat="45.94948" lon="4.80691">
        <ele>259</ele>
        <time>2017-03-29T08:37:30Z</time>
      </trkpt>
      <trkpt lat="45.94948" lon="4.80697">
        <ele>259</ele>
        <time>2017-03-29T08:37:31Z</time>
      </trkpt>
      <trkpt lat="45.94948" lon="4.80704">
        <ele>259</ele>
        <time>2017-03-29T08:37:32Z</time>
      </trkpt>
      <trkpt lat="45.94948" lon="4.80716">
        <ele>259</ele>
        <time>2017-03-29T08:37:34Z</time>
      </trkpt>
      <trkpt lat="45.94949" lon="4.80723">
        <ele>259</ele>
        <time>2017-03-29T08:37:35Z</time>
      </trkpt>
      <trkpt lat="45.94949" lon="4.8073">
        <ele>259</ele>
        <time>2017-03-29T08:37:36Z</time>
      </trkpt>
      <trkpt lat="45.94949" lon="4.80737">
        <ele>259</ele>
        <time>2017-03-29T08:37:37Z</time>
      </trkpt>
      <trkpt lat="45.94949" lon="4.80749">
        <ele>259</ele>
        <time>2017-03-29T08:37:39Z</time>
      </trkpt>
      <trkpt lat="45.94948" lon="4.80755">
        <ele>259</ele>
        <time>2017-03-29T08:37:40Z</time>
      </trkpt>
      <trkpt lat="45.94947" lon="4.80766">
        <ele>259</ele>
        <time>2017-03-29T08:37:42Z</time>
      </trkpt>
      <trkpt lat="45.94945" lon="4.80772">
        <ele>259</ele>
        <time>2017-03-29T08:37:43Z</time>
      </trkpt>
      <trkpt lat="45.94943" lon="4.80782">
        <ele>259</ele>
        <time>2017-03-29T08:37:45Z</time>
      </trkpt>
      <trkpt lat="45.94942" lon="4.80786">
        <ele>259</ele>
        <time>2017-03-29T08:37:46Z</time>
      </trkpt>
      <trkpt lat="45.94937" lon="4.80795">
        <ele>259</ele>
        <time>2017-03-29T08:37:50Z</time>
      </trkpt>
      <trkpt lat="45.94936" lon="4.80797">
        <ele>259</ele>
        <time>2017-03-29T08:37:51Z</time>
      </trkpt>
      <trkpt lat="45.94941" lon="4.80803">
        <ele>259</ele>
        <time>2017-03-29T08:37:53Z</time>
      </trkpt>
      <trkpt lat="45.94944" lon="4.80806">
        <ele>259</ele>
        <time>2017-03-29T08:37:54Z</time>
      </trkpt>
      <trkpt lat="45.94947" lon="4.80809">
        <ele>258</ele>
        <time>2017-03-29T08:37:55Z</time>
      </trkpt>
      <trkpt lat="45.94951" lon="4.80814">
        <ele>258</ele>
        <time>2017-03-29T08:37:56Z</time>
      </trkpt>
      <trkpt lat="45.94953" lon="4.80821">
        <ele>258</ele>
        <time>2017-03-29T08:37:57Z</time>
      </trkpt>
      <trkpt lat="45.94955" lon="4.80828">
        <ele>258</ele>
        <time>2017-03-29T08:37:58Z</time>
      </trkpt>
      <trkpt lat="45.94957" lon="4.80835">
        <ele>258</ele>
        <time>2017-03-29T08:37:59Z</time>
      </trkpt>
      <trkpt lat="45.94958" lon="4.80842">
        <ele>258</ele>
        <time>2017-03-29T08:38:00Z</time>
      </trkpt>
      <trkpt lat="45.94959" lon="4.80849">
        <ele>259</ele>
        <time>2017-03-29T08:38:01Z</time>
      </trkpt>
      <trkpt lat="45.94961" lon="4.80855">
        <ele>259</ele>
        <time>2017-03-29T08:38:02Z</time>
      </trkpt>
      <trkpt lat="45.94962" lon="4.80862">
        <ele>259</ele>
        <time>2017-03-29T08:38:03Z</time>
      </trkpt>
      <trkpt lat="45.94964" lon="4.80869">
        <ele>259</ele>
        <time>2017-03-29T08:38:04Z</time>
      </trkpt>
      <trkpt lat="45.94965" lon="4.80876">
        <ele>258</ele>
        <time>2017-03-29T08:38:05Z</time>
      </trkpt>
      <trkpt lat="45.94966" lon="4.80883">
        <ele>258</ele>
        <time>2017-03-29T08:38:06Z</time>
      </trkpt>
      <trkpt lat="45.94967" lon="4.8089">
        <ele>258</ele>
        <time>2017-03-29T08:38:07Z</time>
      </trkpt>
      <trkpt lat="45.94969" lon="4.80898">
        <ele>258</ele>
        <time>2017-03-29T08:38:08Z</time>
      </trkpt>
      <trkpt lat="45.94971" lon="4.80905">
        <ele>258</ele>
        <time>2017-03-29T08:38:09Z</time>
      </trkpt>
      <trkpt lat="45.94973" lon="4.80913">
        <ele>258</ele>
        <time>2017-03-29T08:38:10Z</time>
      </trkpt>
      <trkpt lat="45.94976" lon="4.8092">
        <ele>258</ele>
        <time>2017-03-29T08:38:11Z</time>
      </trkpt>
      <trkpt lat="45.94977" lon="4.80928">
        <ele>258</ele>
        <time>2017-03-29T08:38:12Z</time>
      </trkpt>
      <trkpt lat="45.94978" lon="4.80935">
        <ele>258</ele>
        <time>2017-03-29T08:38:13Z</time>
      </trkpt>
      <trkpt lat="45.94979" lon="4.80942">
        <ele>258</ele>
        <time>2017-03-29T08:38:14Z</time>
      </trkpt>
      <trkpt lat="45.9498" lon="4.8095">
        <ele>258</ele>
        <time>2017-03-29T08:38:15Z</time>
      </trkpt>
      <trkpt lat="45.94981" lon="4.80957">
        <ele>258</ele>
        <time>2017-03-29T08:38:16Z</time>
      </trkpt>
      <trkpt lat="45.94982" lon="4.80964">
        <ele>258</ele>
        <time>2017-03-29T08:38:17Z</time>
      </trkpt>
      <trkpt lat="45.94983" lon="4.8097">
        <ele>258</ele>
        <time>2017-03-29T08:38:18Z</time>
      </trkpt>
      <trkpt lat="45.94983" lon="4.80977">
        <ele>258</ele>
        <time>2017-03-29T08:38:19Z</time>
      </trkpt>
      <trkpt lat="45.94984" lon="4.80984">
        <ele>258</ele>
        <time>2017-03-29T08:38:20Z</time>
      </trkpt>
      <trkpt lat="45.94984" lon="4.80992">
        <ele>258</ele>
        <time>2017-03-29T08:38:21Z</time>
      </trkpt>
      <trkpt lat="45.94985" lon="4.80999">
        <ele>257</ele>
        <time>2017-03-29T08:38:22Z</time>
      </trkpt>
      <trkpt lat="45.94986" lon="4.81007">
        <ele>257</ele>
        <time>2017-03-29T08:38:23Z</time>
      </trkpt>
      <trkpt lat="45.94986" lon="4.81015">
        <ele>257</ele>
        <time>2017-03-29T08:38:24Z</time>
      </trkpt>
      <trkpt lat="45.94987" lon="4.81023">
        <ele>257</ele>
        <time>2017-03-29T08:38:25Z</time>
      </trkpt>
      <trkpt lat="45.94988" lon="4.81032">
        <ele>257</ele>
        <time>2017-03-29T08:38:26Z</time>
      </trkpt>
      <trkpt lat="45.94988" lon="4.8104">
        <ele>257</ele>
        <time>2017-03-29T08:38:27Z</time>
      </trkpt>
      <trkpt lat="45.94989" lon="4.81047">
        <ele>257</ele>
        <time>2017-03-29T08:38:28Z</time>
      </trkpt>
      <trkpt lat="45.94989" lon="4.81055">
        <ele>257</ele>
        <time>2017-03-29T08:38:29Z</time>
      </trkpt>
      <trkpt lat="45.94989" lon="4.81063">
        <ele>257</ele>
        <time>2017-03-29T08:38:30Z</time>
      </trkpt>
      <trkpt lat="45.9499" lon="4.8107">
        <ele>257</ele>
        <time>2017-03-29T08:38:31Z</time>
      </trkpt>
      <trkpt lat="45.9499" lon="4.81078">
        <ele>257</ele>
        <time>2017-03-29T08:38:32Z</time>
      </trkpt>
      <trkpt lat="45.94991" lon="4.81085">
        <ele>257</ele>
        <time>2017-03-29T08:38:33Z</time>
      </trkpt>
      <trkpt lat="45.94991" lon="4.81092">
        <ele>257</ele>
        <time>2017-03-29T08:38:34Z</time>
      </trkpt>
      <trkpt lat="45.94992" lon="4.81099">
        <ele>257</ele>
        <time>2017-03-29T08:38:35Z</time>
      </trkpt>
      <trkpt lat="45.94993" lon="4.81107">
        <ele>257</ele>
        <time>2017-03-29T08:38:36Z</time>
      </trkpt>
      <trkpt lat="45.94994" lon="4.81115">
        <ele>257</ele>
        <time>2017-03-29T08:38:37Z</time>
      </trkpt>
      <trkpt lat="45.94994" lon="4.81123">
        <ele>257</ele>
        <time>2017-03-29T08:38:38Z</time>
      </trkpt>
      <trkpt lat="45.94995" lon="4.81131">
        <ele>256</ele>
        <time>2017-03-29T08:38:39Z</time>
      </trkpt>
      <trkpt lat="45.94997" lon="4.81139">
        <ele>256</ele>
        <time>2017-03-29T08:38:40Z</time>
      </trkpt>
      <trkpt lat="45.94998" lon="4.81147">
        <ele>256</ele>
        <time>2017-03-29T08:38:41Z</time>
      </trkpt>
      <trkpt lat="45.94999" lon="4.81155">
        <ele>256</ele>
        <time>2017-03-29T08:38:42Z</time>
      </trkpt>
      <trkpt lat="45.95" lon="4.81163">
        <ele>256</ele>
        <time>2017-03-29T08:38:43Z</time>
      </trkpt>
      <trkpt lat="45.95001" lon="4.81171">
        <ele>256</ele>
        <time>2017-03-29T08:38:44Z</time>
      </trkpt>
      <trkpt lat="45.95002" lon="4.8118">
        <ele>256</ele>
        <time>2017-03-29T08:38:45Z</time>
      </trkpt>
      <trkpt lat="45.95003" lon="4.81188">
        <ele>256</ele>
        <time>2017-03-29T08:38:46Z</time>
      </trkpt>
      <trkpt lat="45.95005" lon="4.81196">
        <ele>256</ele>
        <time>2017-03-29T08:38:47Z</time>
      </trkpt>
      <trkpt lat="45.95006" lon="4.81204">
        <ele>256</ele>
        <time>2017-03-29T08:38:48Z</time>
      </trkpt>
      <trkpt lat="45.95007" lon="4.81212">
        <ele>256</ele>
        <time>2017-03-29T08:38:49Z</time>
      </trkpt>
      <trkpt lat="45.95008" lon="4.8122">
        <ele>256</ele>
        <time>2017-03-29T08:38:50Z</time>
      </trkpt>
      <trkpt lat="45.95008" lon="4.81228">
        <ele>256</ele>
        <time>2017-03-29T08:38:51Z</time>
      </trkpt>
      <trkpt lat="45.9501" lon="4.81237">
        <ele>256</ele>
        <time>2017-03-29T08:38:52Z</time>
      </trkpt>
      <trkpt lat="45.95011" lon="4.81245">
        <ele>256</ele>
        <time>2017-03-29T08:38:53Z</time>
      </trkpt>
      <trkpt lat="45.95012" lon="4.81253">
        <ele>256</ele>
        <time>2017-03-29T08:38:54Z</time>
      </trkpt>
      <trkpt lat="45.95013" lon="4.81261">
        <ele>256</ele>
        <time>2017-03-29T08:38:55Z</time>
      </trkpt>
      <trkpt lat="45.95015" lon="4.81268">
        <ele>255</ele>
        <time>2017-03-29T08:38:56Z</time>
      </trkpt>
      <trkpt lat="45.95016" lon="4.81276">
        <ele>255</ele>
        <time>2017-03-29T08:38:57Z</time>
      </trkpt>
      <trkpt lat="45.95017" lon="4.81283">
        <ele>255</ele>
        <time>2017-03-29T08:38:58Z</time>
      </trkpt>
      <trkpt lat="45.95018" lon="4.8129">
        <ele>255</ele>
        <time>2017-03-29T08:38:59Z</time>
      </trkpt>
      <trkpt lat="45.9502" lon="4.81297">
        <ele>255</ele>
        <time>2017-03-29T08:39:00Z</time>
      </trkpt>
      <trkpt lat="45.95021" lon="4.81304">
        <ele>255</ele>
        <time>2017-03-29T08:39:01Z</time>
      </trkpt>
      <trkpt lat="45.95023" lon="4.81311">
        <ele>255</ele>
        <time>2017-03-29T08:39:02Z</time>
      </trkpt>
      <trkpt lat="45.95025" lon="4.81319">
        <ele>255</ele>
        <time>2017-03-29T08:39:03Z</time>
      </trkpt>
      <trkpt lat="45.95027" lon="4.81326">
        <ele>255</ele>
        <time>2017-03-29T08:39:04Z</time>
      </trkpt>
      <trkpt lat="45.95029" lon="4.81334">
        <ele>254</ele>
        <time>2017-03-29T08:39:05Z</time>
      </trkpt>
      <trkpt lat="45.95032" lon="4.81342">
        <ele>254</ele>
        <time>2017-03-29T08:39:06Z</time>
      </trkpt>
      <trkpt lat="45.95034" lon="4.8135">
        <ele>254</ele>
        <time>2017-03-29T08:39:07Z</time>
      </trkpt>
      <trkpt lat="45.95036" lon="4.81358">
        <ele>254</ele>
        <time>2017-03-29T08:39:08Z</time>
      </trkpt>
      <trkpt lat="45.95039" lon="4.81366">
        <ele>254</ele>
        <time>2017-03-29T08:39:09Z</time>
      </trkpt>
      <trkpt lat="45.95041" lon="4.81374">
        <ele>254</ele>
        <time>2017-03-29T08:39:10Z</time>
      </trkpt>
      <trkpt lat="45.95044" lon="4.81382">
        <ele>254</ele>
        <time>2017-03-29T08:39:11Z</time>
      </trkpt>
      <trkpt lat="45.95047" lon="4.81391">
        <ele>253</ele>
        <time>2017-03-29T08:39:12Z</time>
      </trkpt>
      <trkpt lat="45.9505" lon="4.814">
        <ele>253</ele>
        <time>2017-03-29T08:39:13Z</time>
      </trkpt>
      <trkpt lat="45.95053" lon="4.81408">
        <ele>253</ele>
        <time>2017-03-29T08:39:14Z</time>
      </trkpt>
      <trkpt lat="45.95056" lon="4.81417">
        <ele>253</ele>
        <time>2017-03-29T08:39:15Z</time>
      </trkpt>
      <trkpt lat="45.95059" lon="4.81426">
        <ele>253</ele>
        <time>2017-03-29T08:39:16Z</time>
      </trkpt>
      <trkpt lat="45.95063" lon="4.81434">
        <ele>253</ele>
        <time>2017-03-29T08:39:17Z</time>
      </trkpt>
      <trkpt lat="45.95066" lon="4.81444">
        <ele>253</ele>
        <time>2017-03-29T08:39:18Z</time>
      </trkpt>
      <trkpt lat="45.95069" lon="4.81452">
        <ele>253</ele>
        <time>2017-03-29T08:39:19Z</time>
      </trkpt>
      <trkpt lat="45.95073" lon="4.81461">
        <ele>253</ele>
        <time>2017-03-29T08:39:20Z</time>
      </trkpt>
      <trkpt lat="45.95077" lon="4.8147">
        <ele>253</ele>
        <time>2017-03-29T08:39:21Z</time>
      </trkpt>
      <trkpt lat="45.9508" lon="4.81479">
        <ele>253</ele>
        <time>2017-03-29T08:39:22Z</time>
      </trkpt>
      <trkpt lat="45.95083" lon="4.81488">
        <ele>252</ele>
        <time>2017-03-29T08:39:23Z</time>
      </trkpt>
      <trkpt lat="45.95087" lon="4.81497">
        <ele>252</ele>
        <time>2017-03-29T08:39:24Z</time>
      </trkpt>
      <trkpt lat="45.9509" lon="4.81506">
        <ele>252</ele>
        <time>2017-03-29T08:39:25Z</time>
      </trkpt>
      <trkpt lat="45.95093" lon="4.81516">
        <ele>251</ele>
        <time>2017-03-29T08:39:26Z</time>
      </trkpt>
      <trkpt lat="45.95096" lon="4.81525">
        <ele>251</ele>
        <time>2017-03-29T08:39:27Z</time>
      </trkpt>
      <trkpt lat="45.95099" lon="4.81535">
        <ele>251</ele>
        <time>2017-03-29T08:39:28Z</time>
      </trkpt>
      <trkpt lat="45.95103" lon="4.81545">
        <ele>251</ele>
        <time>2017-03-29T08:39:29Z</time>
      </trkpt>
      <trkpt lat="45.95106" lon="4.81554">
        <ele>251</ele>
        <time>2017-03-29T08:39:30Z</time>
      </trkpt>
      <trkpt lat="45.95109" lon="4.81563">
        <ele>251</ele>
        <time>2017-03-29T08:39:31Z</time>
      </trkpt>
      <trkpt lat="45.95112" lon="4.81572">
        <ele>251</ele>
        <time>2017-03-29T08:39:32Z</time>
      </trkpt>
      <trkpt lat="45.95115" lon="4.8158">
        <ele>251</ele>
        <time>2017-03-29T08:39:33Z</time>
      </trkpt>
      <trkpt lat="45.95118" lon="4.81588">
        <ele>252</ele>
        <time>2017-03-29T08:39:34Z</time>
      </trkpt>
      <trkpt lat="45.9512" lon="4.81596">
        <ele>252</ele>
        <time>2017-03-29T08:39:35Z</time>
      </trkpt>
      <trkpt lat="45.95123" lon="4.81604">
        <ele>252</ele>
        <time>2017-03-29T08:39:36Z</time>
      </trkpt>
      <trkpt lat="45.95124" lon="4.81611">
        <ele>252</ele>
        <time>2017-03-29T08:39:37Z</time>
      </trkpt>
      <trkpt lat="45.95125" lon="4.81618">
        <ele>252</ele>
        <time>2017-03-29T08:39:38Z</time>
      </trkpt>
      <trkpt lat="45.95128" lon="4.81624">
        <ele>252</ele>
        <time>2017-03-29T08:39:39Z</time>
      </trkpt>
      <trkpt lat="45.9513" lon="4.8163">
        <ele>253</ele>
        <time>2017-03-29T08:39:40Z</time>
      </trkpt>
      <trkpt lat="45.95134" lon="4.8164">
        <ele>253</ele>
        <time>2017-03-29T08:39:42Z</time>
      </trkpt>
      <trkpt lat="45.95136" lon="4.81645">
        <ele>253</ele>
        <time>2017-03-29T08:39:43Z</time>
      </trkpt>
      <trkpt lat="45.95139" lon="4.81656">
        <ele>253</ele>
        <time>2017-03-29T08:39:45Z</time>
      </trkpt>
      <trkpt lat="45.95141" lon="4.81661">
        <ele>253</ele>
        <time>2017-03-29T08:39:46Z</time>
      </trkpt>
      <trkpt lat="45.95145" lon="4.81672">
        <ele>255</ele>
        <time>2017-03-29T08:39:48Z</time>
      </trkpt>
      <trkpt lat="45.95146" lon="4.81678">
        <ele>255</ele>
        <time>2017-03-29T08:39:49Z</time>
      </trkpt>
      <trkpt lat="45.9515" lon="4.81689">
        <ele>255</ele>
        <time>2017-03-29T08:39:51Z</time>
      </trkpt>
      <trkpt lat="45.95152" lon="4.81694">
        <ele>255</ele>
        <time>2017-03-29T08:39:52Z</time>
      </trkpt>
      <trkpt lat="45.95156" lon="4.81703">
        <ele>255</ele>
        <time>2017-03-29T08:39:54Z</time>
      </trkpt>
      <trkpt lat="45.95157" lon="4.81708">
        <ele>255</ele>
        <time>2017-03-29T08:39:55Z</time>
      </trkpt>
      <trkpt lat="45.95161" lon="4.81717">
        <ele>256</ele>
        <time>2017-03-29T08:39:57Z</time>
      </trkpt>
      <trkpt lat="45.95163" lon="4.81721">
        <ele>256</ele>
        <time>2017-03-29T08:39:58Z</time>
      </trkpt>
      <trkpt lat="45.95166" lon="4.81731">
        <ele>257</ele>
        <time>2017-03-29T08:40:00Z</time>
      </trkpt>
      <trkpt lat="45.95167" lon="4.81736">
        <ele>257</ele>
        <time>2017-03-29T08:40:01Z</time>
      </trkpt>
      <trkpt lat="45.95172" lon="4.81745">
        <ele>258</ele>
        <time>2017-03-29T08:40:03Z</time>
      </trkpt>
      <trkpt lat="45.95174" lon="4.81749">
        <ele>258</ele>
        <time>2017-03-29T08:40:04Z</time>
      </trkpt>
      <trkpt lat="45.9518" lon="4.81757">
        <ele>258</ele>
        <time>2017-03-29T08:40:06Z</time>
      </trkpt>
      <trkpt lat="45.95182" lon="4.81761">
        <ele>258</ele>
        <time>2017-03-29T08:40:07Z</time>
      </trkpt>
      <trkpt lat="45.95188" lon="4.8177">
        <ele>258</ele>
        <time>2017-03-29T08:40:09Z</time>
      </trkpt>
      <trkpt lat="45.95191" lon="4.81773">
        <ele>258</ele>
        <time>2017-03-29T08:40:10Z</time>
      </trkpt>
      <trkpt lat="45.95196" lon="4.81781">
        <ele>258</ele>
        <time>2017-03-29T08:40:12Z</time>
      </trkpt>
      <trkpt lat="45.95199" lon="4.81784">
        <ele>258</ele>
        <time>2017-03-29T08:40:13Z</time>
      </trkpt>
      <trkpt lat="45.95203" lon="4.81792">
        <ele>259</ele>
        <time>2017-03-29T08:40:15Z</time>
      </trkpt>
      <trkpt lat="45.95206" lon="4.81796">
        <ele>259</ele>
        <time>2017-03-29T08:40:16Z</time>
      </trkpt>
      <trkpt lat="45.95211" lon="4.81804">
        <ele>259</ele>
        <time>2017-03-29T08:40:18Z</time>
      </trkpt>
      <trkpt lat="45.95214" lon="4.81807">
        <ele>259</ele>
        <time>2017-03-29T08:40:19Z</time>
      </trkpt>
      <trkpt lat="45.95219" lon="4.81814">
        <ele>259</ele>
        <time>2017-03-29T08:40:21Z</time>
      </trkpt>
      <trkpt lat="45.95221" lon="4.81817">
        <ele>259</ele>
        <time>2017-03-29T08:40:22Z</time>
      </trkpt>
      <trkpt lat="45.95226" lon="4.81824">
        <ele>259</ele>
        <time>2017-03-29T08:40:24Z</time>
      </trkpt>
      <trkpt lat="45.95228" lon="4.81827">
        <ele>259</ele>
        <time>2017-03-29T08:40:25Z</time>
      </trkpt>
      <trkpt lat="45.95233" lon="4.81834">
        <ele>260</ele>
        <time>2017-03-29T08:40:27Z</time>
      </trkpt>
      <trkpt lat="45.95235" lon="4.81837">
        <ele>260</ele>
        <time>2017-03-29T08:40:28Z</time>
      </trkpt>
      <trkpt lat="45.9524" lon="4.81845">
        <ele>260</ele>
        <time>2017-03-29T08:40:30Z</time>
      </trkpt>
      <trkpt lat="45.95242" lon="4.81849">
        <ele>260</ele>
        <time>2017-03-29T08:40:31Z</time>
      </trkpt>
      <trkpt lat="45.95247" lon="4.81856">
        <ele>260</ele>
        <time>2017-03-29T08:40:33Z</time>
      </trkpt>
      <trkpt lat="45.9525" lon="4.8186">
        <ele>260</ele>
        <time>2017-03-29T08:40:34Z</time>
      </trkpt>
      <trkpt lat="45.95255" lon="4.81867">
        <ele>260</ele>
        <time>2017-03-29T08:40:36Z</time>
      </trkpt>
      <trkpt lat="45.95257" lon="4.81871">
        <ele>260</ele>
        <time>2017-03-29T08:40:37Z</time>
      </trkpt>
      <trkpt lat="45.95261" lon="4.81879">
        <ele>260</ele>
        <time>2017-03-29T08:40:39Z</time>
      </trkpt>
      <trkpt lat="45.95264" lon="4.81883">
        <ele>260</ele>
        <time>2017-03-29T08:40:40Z</time>
      </trkpt>
      <trkpt lat="45.95269" lon="4.81891">
        <ele>260</ele>
        <time>2017-03-29T08:40:42Z</time>
      </trkpt>
      <trkpt lat="45.95272" lon="4.81895">
        <ele>260</ele>
        <time>2017-03-29T08:40:43Z</time>
      </trkpt>
      <trkpt lat="45.95278" lon="4.81903">
        <ele>260</ele>
        <time>2017-03-29T08:40:45Z</time>
      </trkpt>
      <trkpt lat="45.95281" lon="4.81908">
        <ele>260</ele>
        <time>2017-03-29T08:40:46Z</time>
      </trkpt>
      <trkpt lat="45.95287" lon="4.81916">
        <ele>260</ele>
        <time>2017-03-29T08:40:48Z</time>
      </trkpt>
      <trkpt lat="45.9529" lon="4.81919">
        <ele>261</ele>
        <time>2017-03-29T08:40:49Z</time>
      </trkpt>
      <trkpt lat="45.95295" lon="4.81926">
        <ele>261</ele>
        <time>2017-03-29T08:40:51Z</time>
      </trkpt>
      <trkpt lat="45.95298" lon="4.8193">
        <ele>261</ele>
        <time>2017-03-29T08:40:52Z</time>
      </trkpt>
      <trkpt lat="45.95304" lon="4.81938">
        <ele>261</ele>
        <time>2017-03-29T08:40:54Z</time>
      </trkpt>
      <trkpt lat="45.95307" lon="4.81942">
        <ele>261</ele>
        <time>2017-03-29T08:40:55Z</time>
      </trkpt>
      <trkpt lat="45.95314" lon="4.81949">
        <ele>262</ele>
        <time>2017-03-29T08:40:57Z</time>
      </trkpt>
      <trkpt lat="45.95317" lon="4.81953">
        <ele>262</ele>
        <time>2017-03-29T08:40:58Z</time>
      </trkpt>
      <trkpt lat="45.95324" lon="4.81961">
        <ele>262</ele>
        <time>2017-03-29T08:41:00Z</time>
      </trkpt>
      <trkpt lat="45.95328" lon="4.81965">
        <ele>262</ele>
        <time>2017-03-29T08:41:01Z</time>
      </trkpt>
      <trkpt lat="45.95332" lon="4.81969">
        <ele>262</ele>
        <time>2017-03-29T08:41:02Z</time>
      </trkpt>
      <trkpt lat="45.95335" lon="4.81973">
        <ele>262</ele>
        <time>2017-03-29T08:41:03Z</time>
      </trkpt>
      <trkpt lat="45.95342" lon="4.8198">
        <ele>262</ele>
        <time>2017-03-29T08:41:05Z</time>
      </trkpt>
      <trkpt lat="45.95346" lon="4.81984">
        <ele>262</ele>
        <time>2017-03-29T08:41:06Z</time>
      </trkpt>
      <trkpt lat="45.9535" lon="4.81988">
        <ele>262</ele>
        <time>2017-03-29T08:41:07Z</time>
      </trkpt>
      <trkpt lat="45.95354" lon="4.81993">
        <ele>262</ele>
        <time>2017-03-29T08:41:08Z</time>
      </trkpt>
      <trkpt lat="45.95359" lon="4.81997">
        <ele>262</ele>
        <time>2017-03-29T08:41:09Z</time>
      </trkpt>
      <trkpt lat="45.95364" lon="4.82002">
        <ele>262</ele>
        <time>2017-03-29T08:41:10Z</time>
      </trkpt>
      <trkpt lat="45.95369" lon="4.82007">
        <ele>262</ele>
        <time>2017-03-29T08:41:11Z</time>
      </trkpt>
      <trkpt lat="45.95373" lon="4.82011">
        <ele>262</ele>
        <time>2017-03-29T08:41:12Z</time>
      </trkpt>
      <trkpt lat="45.95378" lon="4.82016">
        <ele>262</ele>
        <time>2017-03-29T08:41:13Z</time>
      </trkpt>
      <trkpt lat="45.95383" lon="4.8202">
        <ele>262</ele>
        <time>2017-03-29T08:41:14Z</time>
      </trkpt>
      <trkpt lat="45.95387" lon="4.82024">
        <ele>261</ele>
        <time>2017-03-29T08:41:15Z</time>
      </trkpt>
      <trkpt lat="45.95391" lon="4.82029">
        <ele>261</ele>
        <time>2017-03-29T08:41:16Z</time>
      </trkpt>
      <trkpt lat="45.95395" lon="4.82033">
        <ele>261</ele>
        <time>2017-03-29T08:41:17Z</time>
      </trkpt>
      <trkpt lat="45.95399" lon="4.82037">
        <ele>261</ele>
        <time>2017-03-29T08:41:18Z</time>
      </trkpt>
      <trkpt lat="45.95403" lon="4.82042">
        <ele>261</ele>
        <time>2017-03-29T08:41:19Z</time>
      </trkpt>
      <trkpt lat="45.95407" lon="4.82047">
        <ele>261</ele>
        <time>2017-03-29T08:41:20Z</time>
      </trkpt>
      <trkpt lat="45.95412" lon="4.82051">
        <ele>261</ele>
        <time>2017-03-29T08:41:21Z</time>
      </trkpt>
      <trkpt lat="45.95417" lon="4.82056">
        <ele>261</ele>
        <time>2017-03-29T08:41:22Z</time>
      </trkpt>
      <trkpt lat="45.95421" lon="4.82061">
        <ele>260</ele>
        <time>2017-03-29T08:41:23Z</time>
      </trkpt>
      <trkpt lat="45.95426" lon="4.82065">
        <ele>260</ele>
        <time>2017-03-29T08:41:24Z</time>
      </trkpt>
      <trkpt lat="45.9543" lon="4.8207">
        <ele>260</ele>
        <time>2017-03-29T08:41:25Z</time>
      </trkpt>
      <trkpt lat="45.95434" lon="4.82073">
        <ele>260</ele>
        <time>2017-03-29T08:41:26Z</time>
      </trkpt>
      <trkpt lat="45.95438" lon="4.82077">
        <ele>260</ele>
        <time>2017-03-29T08:41:27Z</time>
      </trkpt>
      <trkpt lat="45.95442" lon="4.82082">
        <ele>260</ele>
        <time>2017-03-29T08:41:28Z</time>
      </trkpt>
      <trkpt lat="45.95446" lon="4.82086">
        <ele>260</ele>
        <time>2017-03-29T08:41:29Z</time>
      </trkpt>
      <trkpt lat="45.9545" lon="4.8209">
        <ele>260</ele>
        <time>2017-03-29T08:41:30Z</time>
      </trkpt>
      <trkpt lat="45.95454" lon="4.82094">
        <ele>260</ele>
        <time>2017-03-29T08:41:31Z</time>
      </trkpt>
      <trkpt lat="45.95458" lon="4.82098">
        <ele>260</ele>
        <time>2017-03-29T08:41:32Z</time>
      </trkpt>
      <trkpt lat="45.95462" lon="4.82102">
        <ele>260</ele>
        <time>2017-03-29T08:41:33Z</time>
      </trkpt>
      <trkpt lat="45.95466" lon="4.82106">
        <ele>260</ele>
        <time>2017-03-29T08:41:34Z</time>
      </trkpt>
      <trkpt lat="45.95471" lon="4.8211">
        <ele>260</ele>
        <time>2017-03-29T08:41:35Z</time>
      </trkpt>
      <trkpt lat="45.95475" lon="4.82115">
        <ele>260</ele>
        <time>2017-03-29T08:41:36Z</time>
      </trkpt>
      <trkpt lat="45.9548" lon="4.82119">
        <ele>260</ele>
        <time>2017-03-29T08:41:37Z</time>
      </trkpt>
      <trkpt lat="45.95483" lon="4.82125">
        <ele>260</ele>
        <time>2017-03-29T08:41:38Z</time>
      </trkpt>
      <trkpt lat="45.95488" lon="4.82129">
        <ele>260</ele>
        <time>2017-03-29T08:41:39Z</time>
      </trkpt>
      <trkpt lat="45.95492" lon="4.82134">
        <ele>260</ele>
        <time>2017-03-29T08:41:40Z</time>
      </trkpt>
      <trkpt lat="45.95495" lon="4.82139">
        <ele>260</ele>
        <time>2017-03-29T08:41:41Z</time>
      </trkpt>
      <trkpt lat="45.95499" lon="4.82143">
        <ele>260</ele>
        <time>2017-03-29T08:41:42Z</time>
      </trkpt>
      <trkpt lat="45.95503" lon="4.82147">
        <ele>259</ele>
        <time>2017-03-29T08:41:43Z</time>
      </trkpt>
      <trkpt lat="45.95508" lon="4.82152">
        <ele>259</ele>
        <time>2017-03-29T08:41:44Z</time>
      </trkpt>
      <trkpt lat="45.95512" lon="4.82156">
        <ele>259</ele>
        <time>2017-03-29T08:41:45Z</time>
      </trkpt>
      <trkpt lat="45.95517" lon="4.82161">
        <ele>259</ele>
        <time>2017-03-29T08:41:46Z</time>
      </trkpt>
      <trkpt lat="45.95521" lon="4.82165">
        <ele>259</ele>
        <time>2017-03-29T08:41:47Z</time>
      </trkpt>
      <trkpt lat="45.95525" lon="4.8217">
        <ele>259</ele>
        <time>2017-03-29T08:41:48Z</time>
      </trkpt>
      <trkpt lat="45.9553" lon="4.82174">
        <ele>259</ele>
        <time>2017-03-29T08:41:49Z</time>
      </trkpt>
      <trkpt lat="45.95534" lon="4.82179">
        <ele>259</ele>
        <time>2017-03-29T08:41:50Z</time>
      </trkpt>
      <trkpt lat="45.95539" lon="4.82183">
        <ele>259</ele>
        <time>2017-03-29T08:41:51Z</time>
      </trkpt>
      <trkpt lat="45.95543" lon="4.82187">
        <ele>259</ele>
        <time>2017-03-29T08:41:52Z</time>
      </trkpt>
      <trkpt lat="45.95548" lon="4.8219">
        <ele>259</ele>
        <time>2017-03-29T08:41:53Z</time>
      </trkpt>
      <trkpt lat="45.95552" lon="4.82194">
        <ele>259</ele>
        <time>2017-03-29T08:41:54Z</time>
      </trkpt>
      <trkpt lat="45.95557" lon="4.82198">
        <ele>259</ele>
        <time>2017-03-29T08:41:55Z</time>
      </trkpt>
      <trkpt lat="45.95562" lon="4.82202">
        <ele>258</ele>
        <time>2017-03-29T08:41:56Z</time>
      </trkpt>
      <trkpt lat="45.95566" lon="4.82206">
        <ele>258</ele>
        <time>2017-03-29T08:41:57Z</time>
      </trkpt>
      <trkpt lat="45.95571" lon="4.82209">
        <ele>258</ele>
        <time>2017-03-29T08:41:58Z</time>
      </trkpt>
      <trkpt lat="45.95576" lon="4.82213">
        <ele>258</ele>
        <time>2017-03-29T08:41:59Z</time>
      </trkpt>
      <trkpt lat="45.95581" lon="4.82216">
        <ele>258</ele>
        <time>2017-03-29T08:42:00Z</time>
      </trkpt>
      <trkpt lat="45.95586" lon="4.8222">
        <ele>257</ele>
        <time>2017-03-29T08:42:01Z</time>
      </trkpt>
      <trkpt lat="45.95591" lon="4.82223">
        <ele>257</ele>
        <time>2017-03-29T08:42:02Z</time>
      </trkpt>
      <trkpt lat="45.95596" lon="4.82226">
        <ele>257</ele>
        <time>2017-03-29T08:42:03Z</time>
      </trkpt>
      <trkpt lat="45.95601" lon="4.82227">
        <ele>257</ele>
        <time>2017-03-29T08:42:04Z</time>
      </trkpt>
      <trkpt lat="45.95606" lon="4.82228">
        <ele>257</ele>
        <time>2017-03-29T08:42:05Z</time>
      </trkpt>
      <trkpt lat="45.95612" lon="4.82229">
        <ele>257</ele>
        <time>2017-03-29T08:42:06Z</time>
      </trkpt>
      <trkpt lat="45.95617" lon="4.82229">
        <ele>257</ele>
        <time>2017-03-29T08:42:07Z</time>
      </trkpt>
      <trkpt lat="45.95623" lon="4.82229">
        <ele>257</ele>
        <time>2017-03-29T08:42:08Z</time>
      </trkpt>
      <trkpt lat="45.95628" lon="4.82228">
        <ele>257</ele>
        <time>2017-03-29T08:42:09Z</time>
      </trkpt>
      <trkpt lat="45.95634" lon="4.82228">
        <ele>257</ele>
        <time>2017-03-29T08:42:10Z</time>
      </trkpt>
      <trkpt lat="45.95639" lon="4.82228">
        <ele>257</ele>
        <time>2017-03-29T08:42:11Z</time>
      </trkpt>
      <trkpt lat="45.95645" lon="4.82227">
        <ele>257</ele>
        <time>2017-03-29T08:42:12Z</time>
      </trkpt>
      <trkpt lat="45.95651" lon="4.82228">
        <ele>257</ele>
        <time>2017-03-29T08:42:13Z</time>
      </trkpt>
      <trkpt lat="45.95657" lon="4.82229">
        <ele>257</ele>
        <time>2017-03-29T08:42:14Z</time>
      </trkpt>
      <trkpt lat="45.95663" lon="4.82231">
        <ele>257</ele>
        <time>2017-03-29T08:42:15Z</time>
      </trkpt>
      <trkpt lat="45.95668" lon="4.82234">
        <ele>255</ele>
        <time>2017-03-29T08:42:16Z</time>
      </trkpt>
      <trkpt lat="45.95673" lon="4.82237">
        <ele>255</ele>
        <time>2017-03-29T08:42:17Z</time>
      </trkpt>
      <trkpt lat="45.95678" lon="4.8224">
        <ele>255</ele>
        <time>2017-03-29T08:42:18Z</time>
      </trkpt>
      <trkpt lat="45.95682" lon="4.82244">
        <ele>255</ele>
        <time>2017-03-29T08:42:19Z</time>
      </trkpt>
      <trkpt lat="45.95686" lon="4.82249">
        <ele>255</ele>
        <time>2017-03-29T08:42:20Z</time>
      </trkpt>
      <trkpt lat="45.9569" lon="4.82254">
        <ele>255</ele>
        <time>2017-03-29T08:42:21Z</time>
      </trkpt>
      <trkpt lat="45.95694" lon="4.82259">
        <ele>255</ele>
        <time>2017-03-29T08:42:22Z</time>
      </trkpt>
      <trkpt lat="45.95699" lon="4.82264">
        <ele>255</ele>
        <time>2017-03-29T08:42:23Z</time>
      </trkpt>
      <trkpt lat="45.95703" lon="4.82269">
        <ele>255</ele>
        <time>2017-03-29T08:42:24Z</time>
      </trkpt>
      <trkpt lat="45.95707" lon="4.82274">
        <ele>255</ele>
        <time>2017-03-29T08:42:25Z</time>
      </trkpt>
      <trkpt lat="45.95711" lon="4.82278">
        <ele>255</ele>
        <time>2017-03-29T08:42:26Z</time>
      </trkpt>
      <trkpt lat="45.95714" lon="4.82282">
        <ele>255</ele>
        <time>2017-03-29T08:42:27Z</time>
      </trkpt>
      <trkpt lat="45.95718" lon="4.82287">
        <ele>255</ele>
        <time>2017-03-29T08:42:28Z</time>
      </trkpt>
      <trkpt lat="45.95722" lon="4.82292">
        <ele>255</ele>
        <time>2017-03-29T08:42:29Z</time>
      </trkpt>
      <trkpt lat="45.95727" lon="4.82296">
        <ele>255</ele>
        <time>2017-03-29T08:42:30Z</time>
      </trkpt>
      <trkpt lat="45.95731" lon="4.823">
        <ele>255</ele>
        <time>2017-03-29T08:42:31Z</time>
      </trkpt>
      <trkpt lat="45.95736" lon="4.82305">
        <ele>255</ele>
        <time>2017-03-29T08:42:32Z</time>
      </trkpt>
      <trkpt lat="45.9574" lon="4.8231">
        <ele>256</ele>
        <time>2017-03-29T08:42:33Z</time>
      </trkpt>
      <trkpt lat="45.95745" lon="4.82316">
        <ele>256</ele>
        <time>2017-03-29T08:42:34Z</time>
      </trkpt>
      <trkpt lat="45.9575" lon="4.82321">
        <ele>254</ele>
        <time>2017-03-29T08:42:35Z</time>
      </trkpt>
      <trkpt lat="45.95755" lon="4.82327">
        <ele>254</ele>
        <time>2017-03-29T08:42:36Z</time>
      </trkpt>
      <trkpt lat="45.9576" lon="4.82332">
        <ele>254</ele>
        <time>2017-03-29T08:42:37Z</time>
      </trkpt>
      <trkpt lat="45.95766" lon="4.82338">
        <ele>254</ele>
        <time>2017-03-29T08:42:38Z</time>
      </trkpt>
      <trkpt lat="45.95771" lon="4.82344">
        <ele>254</ele>
        <time>2017-03-29T08:42:39Z</time>
      </trkpt>
      <trkpt lat="45.95776" lon="4.82349">
        <ele>253</ele>
        <time>2017-03-29T08:42:40Z</time>
      </trkpt>
      <trkpt lat="45.95782" lon="4.82354">
        <ele>253</ele>
        <time>2017-03-29T08:42:41Z</time>
      </trkpt>
      <trkpt lat="45.95788" lon="4.82358">
        <ele>253</ele>
        <time>2017-03-29T08:42:42Z</time>
      </trkpt>
      <trkpt lat="45.95795" lon="4.82361">
        <ele>252</ele>
        <time>2017-03-29T08:42:43Z</time>
      </trkpt>
      <trkpt lat="45.95801" lon="4.82364">
        <ele>252</ele>
        <time>2017-03-29T08:42:44Z</time>
      </trkpt>
      <trkpt lat="45.95808" lon="4.82367">
        <ele>252</ele>
        <time>2017-03-29T08:42:45Z</time>
      </trkpt>
      <trkpt lat="45.95815" lon="4.82369">
        <ele>252</ele>
        <time>2017-03-29T08:42:46Z</time>
      </trkpt>
      <trkpt lat="45.95821" lon="4.8237">
        <ele>252</ele>
        <time>2017-03-29T08:42:47Z</time>
      </trkpt>
      <trkpt lat="45.95828" lon="4.82371">
        <ele>251</ele>
        <time>2017-03-29T08:42:48Z</time>
      </trkpt>
      <trkpt lat="45.95835" lon="4.82372">
        <ele>246</ele>
        <time>2017-03-29T08:42:49Z</time>
      </trkpt>
      <trkpt lat="45.95842" lon="4.82373">
        <ele>246</ele>
        <time>2017-03-29T08:42:50Z</time>
      </trkpt>
      <trkpt lat="45.9585" lon="4.82374">
        <ele>246</ele>
        <time>2017-03-29T08:42:51Z</time>
      </trkpt>
      <trkpt lat="45.95857" lon="4.82375">
        <ele>245</ele>
        <time>2017-03-29T08:42:52Z</time>
      </trkpt>
      <trkpt lat="45.95865" lon="4.82375">
        <ele>245</ele>
        <time>2017-03-29T08:42:53Z</time>
      </trkpt>
      <trkpt lat="45.95873" lon="4.82374">
        <ele>244</ele>
        <time>2017-03-29T08:42:54Z</time>
      </trkpt>
      <trkpt lat="45.95882" lon="4.82373">
        <ele>244</ele>
        <time>2017-03-29T08:42:55Z</time>
      </trkpt>
      <trkpt lat="45.95891" lon="4.82372">
        <ele>243</ele>
        <time>2017-03-29T08:42:56Z</time>
      </trkpt>
      <trkpt lat="45.959" lon="4.82371">
        <ele>243</ele>
        <time>2017-03-29T08:42:57Z</time>
      </trkpt>
      <trkpt lat="45.9591" lon="4.8237">
        <ele>242</ele>
        <time>2017-03-29T08:42:58Z</time>
      </trkpt>
      <trkpt lat="45.9592" lon="4.82368">
        <ele>238</ele>
        <time>2017-03-29T08:42:59Z</time>
      </trkpt>
      <trkpt lat="45.95931" lon="4.82366">
        <ele>238</ele>
        <time>2017-03-29T08:43:00Z</time>
      </trkpt>
      <trkpt lat="45.95941" lon="4.82365">
        <ele>238</ele>
        <time>2017-03-29T08:43:01Z</time>
      </trkpt>
      <trkpt lat="45.95951" lon="4.82363">
        <ele>237</ele>
        <time>2017-03-29T08:43:02Z</time>
      </trkpt>
      <trkpt lat="45.9596" lon="4.82362">
        <ele>237</ele>
        <time>2017-03-29T08:43:03Z</time>
      </trkpt>
      <trkpt lat="45.9597" lon="4.82361">
        <ele>237</ele>
        <time>2017-03-29T08:43:04Z</time>
      </trkpt>
      <trkpt lat="45.95978" lon="4.8236">
        <ele>237</ele>
        <time>2017-03-29T08:43:05Z</time>
      </trkpt>
      <trkpt lat="45.95987" lon="4.82359">
        <ele>236</ele>
        <time>2017-03-29T08:43:06Z</time>
      </trkpt>
      <trkpt lat="45.95994" lon="4.82359">
        <ele>236</ele>
        <time>2017-03-29T08:43:07Z</time>
      </trkpt>
      <trkpt lat="45.96001" lon="4.82359">
        <ele>235</ele>
        <time>2017-03-29T08:43:08Z</time>
      </trkpt>
      <trkpt lat="45.96007" lon="4.8236">
        <ele>235</ele>
        <time>2017-03-29T08:43:09Z</time>
      </trkpt>
      <trkpt lat="45.96012" lon="4.82362">
        <ele>235</ele>
        <time>2017-03-29T08:43:10Z</time>
      </trkpt>
      <trkpt lat="45.96018" lon="4.82366">
        <ele>235</ele>
        <time>2017-03-29T08:43:11Z</time>
      </trkpt>
      <trkpt lat="45.96022" lon="4.8237">
        <ele>235</ele>
        <time>2017-03-29T08:43:12Z</time>
      </trkpt>
      <trkpt lat="45.96027" lon="4.82375">
        <ele>235</ele>
        <time>2017-03-29T08:43:13Z</time>
      </trkpt>
      <trkpt lat="45.96031" lon="4.82377">
        <ele>235</ele>
        <time>2017-03-29T08:43:14Z</time>
      </trkpt>
      <trkpt lat="45.96037" lon="4.82381">
        <ele>235</ele>
        <time>2017-03-29T08:43:15Z</time>
      </trkpt>
      <trkpt lat="45.96042" lon="4.82385">
        <ele>235</ele>
        <time>2017-03-29T08:43:16Z</time>
      </trkpt>
      <trkpt lat="45.96046" lon="4.82389">
        <ele>235</ele>
        <time>2017-03-29T08:43:17Z</time>
      </trkpt>
      <trkpt lat="45.96051" lon="4.82392">
        <ele>234</ele>
        <time>2017-03-29T08:43:18Z</time>
      </trkpt>
      <trkpt lat="45.96056" lon="4.82395">
        <ele>234</ele>
        <time>2017-03-29T08:43:19Z</time>
      </trkpt>
      <trkpt lat="45.96061" lon="4.82397">
        <ele>234</ele>
        <time>2017-03-29T08:43:20Z</time>
      </trkpt>
      <trkpt lat="45.96065" lon="4.82398">
        <ele>234</ele>
        <time>2017-03-29T08:43:21Z</time>
      </trkpt>
      <trkpt lat="45.9607" lon="4.82399">
        <ele>234</ele>
        <time>2017-03-29T08:43:22Z</time>
      </trkpt>
      <trkpt lat="45.96075" lon="4.824">
        <ele>234</ele>
        <time>2017-03-29T08:43:23Z</time>
      </trkpt>
      <trkpt lat="45.9608" lon="4.82401">
        <ele>234</ele>
        <time>2017-03-29T08:43:24Z</time>
      </trkpt>
      <trkpt lat="45.96085" lon="4.82401">
        <ele>234</ele>
        <time>2017-03-29T08:43:25Z</time>
      </trkpt>
      <trkpt lat="45.96089" lon="4.82401">
        <ele>234</ele>
        <time>2017-03-29T08:43:26Z</time>
      </trkpt>
      <trkpt lat="45.96098" lon="4.82402">
        <ele>235</ele>
        <time>2017-03-29T08:43:28Z</time>
      </trkpt>
      <trkpt lat="45.96103" lon="4.82402">
        <ele>235</ele>
        <time>2017-03-29T08:43:29Z</time>
      </trkpt>
      <trkpt lat="45.96111" lon="4.82404">
        <ele>235</ele>
        <time>2017-03-29T08:43:31Z</time>
      </trkpt>
      <trkpt lat="45.96116" lon="4.82405">
        <ele>235</ele>
        <time>2017-03-29T08:43:32Z</time>
      </trkpt>
      <trkpt lat="45.96123" lon="4.82407">
        <ele>235</ele>
        <time>2017-03-29T08:43:34Z</time>
      </trkpt>
      <trkpt lat="45.96128" lon="4.82408">
        <ele>235</ele>
        <time>2017-03-29T08:43:35Z</time>
      </trkpt>
      <trkpt lat="45.96132" lon="4.82408">
        <ele>235</ele>
        <time>2017-03-29T08:43:36Z</time>
      </trkpt>
      <trkpt lat="45.96137" lon="4.82409">
        <ele>235</ele>
        <time>2017-03-29T08:43:37Z</time>
      </trkpt>
      <trkpt lat="45.96141" lon="4.82409">
        <ele>236</ele>
        <time>2017-03-29T08:43:38Z</time>
      </trkpt>
      <trkpt lat="45.96147" lon="4.8241">
        <ele>236</ele>
        <time>2017-03-29T08:43:39Z</time>
      </trkpt>
      <trkpt lat="45.96151" lon="4.82411">
        <ele>236</ele>
        <time>2017-03-29T08:43:40Z</time>
      </trkpt>
      <trkpt lat="45.96156" lon="4.82412">
        <ele>236</ele>
        <time>2017-03-29T08:43:41Z</time>
      </trkpt>
      <trkpt lat="45.96161" lon="4.82412">
        <ele>236</ele>
        <time>2017-03-29T08:43:42Z</time>
      </trkpt>
      <trkpt lat="45.96165" lon="4.82412">
        <ele>237</ele>
        <time>2017-03-29T08:43:43Z</time>
      </trkpt>
      <trkpt lat="45.96174" lon="4.82413">
        <ele>238</ele>
        <time>2017-03-29T08:43:45Z</time>
      </trkpt>
      <trkpt lat="45.96177" lon="4.82414">
        <ele>239</ele>
        <time>2017-03-29T08:43:46Z</time>
      </trkpt>
      <trkpt lat="45.96184" lon="4.82415">
        <ele>239</ele>
        <time>2017-03-29T08:43:48Z</time>
      </trkpt>
      <trkpt lat="45.96188" lon="4.82415">
        <ele>240</ele>
        <time>2017-03-29T08:43:49Z</time>
      </trkpt>
      <trkpt lat="45.96194" lon="4.82416">
        <ele>241</ele>
        <time>2017-03-29T08:43:51Z</time>
      </trkpt>
      <trkpt lat="45.96197" lon="4.82417">
        <ele>242</ele>
        <time>2017-03-29T08:43:52Z</time>
      </trkpt>
      <trkpt lat="45.96206" lon="4.82419">
        <ele>243</ele>
        <time>2017-03-29T08:43:55Z</time>
      </trkpt>
      <trkpt lat="45.96209" lon="4.82419">
        <ele>243</ele>
        <time>2017-03-29T08:43:56Z</time>
      </trkpt>
      <trkpt lat="45.96217" lon="4.82418">
        <ele>244</ele>
        <time>2017-03-29T08:44:00Z</time>
      </trkpt>
      <trkpt lat="45.9622" lon="4.82419">
        <ele>244</ele>
        <time>2017-03-29T08:44:01Z</time>
      </trkpt>
      <trkpt lat="45.96227" lon="4.82421">
        <ele>245</ele>
        <time>2017-03-29T08:44:04Z</time>
      </trkpt>
      <trkpt lat="45.9623" lon="4.82422">
        <ele>245</ele>
        <time>2017-03-29T08:44:05Z</time>
      </trkpt>
      <trkpt lat="45.96238" lon="4.82427">
        <ele>246</ele>
        <time>2017-03-29T08:44:09Z</time>
      </trkpt>
      <trkpt lat="45.96239" lon="4.82428">
        <ele>246</ele>
        <time>2017-03-29T08:44:10Z</time>
      </trkpt>
      <trkpt lat="45.96246" lon="4.82434">
        <ele>246</ele>
        <time>2017-03-29T08:44:14Z</time>
      </trkpt>
      <trkpt lat="45.96248" lon="4.82435">
        <ele>246</ele>
        <time>2017-03-29T08:44:15Z</time>
      </trkpt>
      <trkpt lat="45.96254" lon="4.82443">
        <ele>249</ele>
        <time>2017-03-29T08:44:19Z</time>
      </trkpt>
      <trkpt lat="45.96255" lon="4.82445">
        <ele>249</ele>
        <time>2017-03-29T08:44:20Z</time>
      </trkpt>
      <trkpt lat="45.96262" lon="4.82453">
        <ele>250</ele>
        <time>2017-03-29T08:44:24Z</time>
      </trkpt>
      <trkpt lat="45.96264" lon="4.82454">
        <ele>250</ele>
        <time>2017-03-29T08:44:25Z</time>
      </trkpt>
      <trkpt lat="45.96273" lon="4.82451">
        <ele>250</ele>
        <time>2017-03-29T08:44:28Z</time>
      </trkpt>
      <trkpt lat="45.96275" lon="4.82448">
        <ele>250</ele>
        <time>2017-03-29T08:44:29Z</time>
      </trkpt>
      <trkpt lat="45.96277" lon="4.82437">
        <ele>250</ele>
        <time>2017-03-29T08:44:32Z</time>
      </trkpt>
      <trkpt lat="45.96277" lon="4.82433">
        <ele>250</ele>
        <time>2017-03-29T08:44:33Z</time>
      </trkpt>
      <trkpt lat="45.96279" lon="4.82423">
        <ele>249</ele>
        <time>2017-03-29T08:44:36Z</time>
      </trkpt>
      <trkpt lat="45.9628" lon="4.82419">
        <ele>249</ele>
        <time>2017-03-29T08:44:37Z</time>
      </trkpt>
      <trkpt lat="45.9628" lon="4.82408">
        <ele>249</ele>
        <time>2017-03-29T08:44:40Z</time>
      </trkpt>
      <trkpt lat="45.9628" lon="4.82405">
        <ele>249</ele>
        <time>2017-03-29T08:44:41Z</time>
      </trkpt>
      <trkpt lat="45.96282" lon="4.82394">
        <ele>249</ele>
        <time>2017-03-29T08:44:44Z</time>
      </trkpt>
      <trkpt lat="45.96282" lon="4.8239">
        <ele>249</ele>
        <time>2017-03-29T08:44:45Z</time>
      </trkpt>
      <trkpt lat="45.96283" lon="4.82378">
        <ele>249</ele>
        <time>2017-03-29T08:44:48Z</time>
      </trkpt>
      <trkpt lat="45.96283" lon="4.82374">
        <ele>249</ele>
        <time>2017-03-29T08:44:49Z</time>
      </trkpt>
      <trkpt lat="45.96284" lon="4.82361">
        <ele>248</ele>
        <time>2017-03-29T08:44:52Z</time>
      </trkpt>
      <trkpt lat="45.96285" lon="4.82357">
        <ele>248</ele>
        <time>2017-03-29T08:44:53Z</time>
      </trkpt>
      <trkpt lat="45.96286" lon="4.82346">
        <ele>248</ele>
        <time>2017-03-29T08:44:56Z</time>
      </trkpt>
      <trkpt lat="45.96286" lon="4.82342">
        <ele>248</ele>
        <time>2017-03-29T08:44:57Z</time>
      </trkpt>
      <trkpt lat="45.96286" lon="4.8233">
        <ele>248</ele>
        <time>2017-03-29T08:45:00Z</time>
      </trkpt>
      <trkpt lat="45.96286" lon="4.82326">
        <ele>248</ele>
        <time>2017-03-29T08:45:01Z</time>
      </trkpt>
      <trkpt lat="45.96286" lon="4.82315">
        <ele>248</ele>
        <time>2017-03-29T08:45:04Z</time>
      </trkpt>
      <trkpt lat="45.96286" lon="4.82311">
        <ele>248</ele>
        <time>2017-03-29T08:45:05Z</time>
      </trkpt>
      <trkpt lat="45.96286" lon="4.82299">
        <ele>248</ele>
        <time>2017-03-29T08:45:08Z</time>
      </trkpt>
      <trkpt lat="45.96286" lon="4.82295">
        <ele>248</ele>
        <time>2017-03-29T08:45:09Z</time>
      </trkpt>
      <trkpt lat="45.96286" lon="4.82286">
        <ele>248</ele>
        <time>2017-03-29T08:45:11Z</time>
      </trkpt>
      <trkpt lat="45.96286" lon="4.82282">
        <ele>248</ele>
        <time>2017-03-29T08:45:12Z</time>
      </trkpt>
      <trkpt lat="45.96286" lon="4.82273">
        <ele>248</ele>
        <time>2017-03-29T08:45:14Z</time>
      </trkpt>
      <trkpt lat="45.96286" lon="4.82268">
        <ele>248</ele>
        <time>2017-03-29T08:45:15Z</time>
      </trkpt>
      <trkpt lat="45.96286" lon="4.82259">
        <ele>248</ele>
        <time>2017-03-29T08:45:17Z</time>
      </trkpt>
      <trkpt lat="45.96286" lon="4.82254">
        <ele>248</ele>
        <time>2017-03-29T08:45:18Z</time>
      </trkpt>
      <trkpt lat="45.96287" lon="4.82244">
        <ele>249</ele>
        <time>2017-03-29T08:45:20Z</time>
      </trkpt>
      <trkpt lat="45.96287" lon="4.8224">
        <ele>249</ele>
        <time>2017-03-29T08:45:21Z</time>
      </trkpt>
      <trkpt lat="45.96287" lon="4.8223">
        <ele>249</ele>
        <time>2017-03-29T08:45:23Z</time>
      </trkpt>
      <trkpt lat="45.96287" lon="4.82226">
        <ele>249</ele>
        <time>2017-03-29T08:45:24Z</time>
      </trkpt>
      <trkpt lat="45.96288" lon="4.82217">
        <ele>249</ele>
        <time>2017-03-29T08:45:26Z</time>
      </trkpt>
      <trkpt lat="45.96288" lon="4.82212">
        <ele>249</ele>
        <time>2017-03-29T08:45:27Z</time>
      </trkpt>
      <trkpt lat="45.96288" lon="4.82203">
        <ele>249</ele>
        <time>2017-03-29T08:45:29Z</time>
      </trkpt>
      <trkpt lat="45.96288" lon="4.82198">
        <ele>249</ele>
        <time>2017-03-29T08:45:30Z</time>
      </trkpt>
      <trkpt lat="45.96289" lon="4.82189">
        <ele>249</ele>
        <time>2017-03-29T08:45:32Z</time>
      </trkpt>
      <trkpt lat="45.96289" lon="4.82184">
        <ele>249</ele>
        <time>2017-03-29T08:45:33Z</time>
      </trkpt>
      <trkpt lat="45.96289" lon="4.82175">
        <ele>249</ele>
        <time>2017-03-29T08:45:35Z</time>
      </trkpt>
      <trkpt lat="45.96289" lon="4.82171">
        <ele>249</ele>
        <time>2017-03-29T08:45:36Z</time>
      </trkpt>
      <trkpt lat="45.96289" lon="4.82158">
        <ele>249</ele>
        <time>2017-03-29T08:45:39Z</time>
      </trkpt>
      <trkpt lat="45.96289" lon="4.82154">
        <ele>249</ele>
        <time>2017-03-29T08:45:40Z</time>
      </trkpt>
      <trkpt lat="45.9629" lon="4.82145">
        <ele>249</ele>
        <time>2017-03-29T08:45:42Z</time>
      </trkpt>
      <trkpt lat="45.96291" lon="4.82141">
        <ele>249</ele>
        <time>2017-03-29T08:45:43Z</time>
      </trkpt>
      <trkpt lat="45.96292" lon="4.82132">
        <ele>249</ele>
        <time>2017-03-29T08:45:45Z</time>
      </trkpt>
      <trkpt lat="45.96292" lon="4.82128">
        <ele>249</ele>
        <time>2017-03-29T08:45:46Z</time>
      </trkpt>
      <trkpt lat="45.96291" lon="4.82115">
        <ele>249</ele>
        <time>2017-03-29T08:45:49Z</time>
      </trkpt>
      <trkpt lat="45.96291" lon="4.82111">
        <ele>249</ele>
        <time>2017-03-29T08:45:50Z</time>
      </trkpt>
      <trkpt lat="45.96292" lon="4.82099">
        <ele>249</ele>
        <time>2017-03-29T08:45:53Z</time>
      </trkpt>
      <trkpt lat="45.96293" lon="4.82096">
        <ele>249</ele>
        <time>2017-03-29T08:45:54Z</time>
      </trkpt>
      <trkpt lat="45.96294" lon="4.82084">
        <ele>249</ele>
        <time>2017-03-29T08:45:57Z</time>
      </trkpt>
      <trkpt lat="45.96295" lon="4.8208">
        <ele>250</ele>
        <time>2017-03-29T08:45:58Z</time>
      </trkpt>
      <trkpt lat="45.96296" lon="4.82068">
        <ele>250</ele>
        <time>2017-03-29T08:46:01Z</time>
      </trkpt>
      <trkpt lat="45.96297" lon="4.82064">
        <ele>250</ele>
        <time>2017-03-29T08:46:02Z</time>
      </trkpt>
      <trkpt lat="45.96299" lon="4.82052">
        <ele>250</ele>
        <time>2017-03-29T08:46:05Z</time>
      </trkpt>
      <trkpt lat="45.96299" lon="4.82048">
        <ele>250</ele>
        <time>2017-03-29T08:46:06Z</time>
      </trkpt>
      <trkpt lat="45.963" lon="4.82038">
        <ele>250</ele>
        <time>2017-03-29T08:46:08Z</time>
      </trkpt>
      <trkpt lat="45.96301" lon="4.82034">
        <ele>250</ele>
        <time>2017-03-29T08:46:09Z</time>
      </trkpt>
      <trkpt lat="45.96302" lon="4.82025">
        <ele>250</ele>
        <time>2017-03-29T08:46:11Z</time>
      </trkpt>
      <trkpt lat="45.96303" lon="4.82021">
        <ele>250</ele>
        <time>2017-03-29T08:46:12Z</time>
      </trkpt>
      <trkpt lat="45.96304" lon="4.82011">
        <ele>250</ele>
        <time>2017-03-29T08:46:14Z</time>
      </trkpt>
      <trkpt lat="45.96305" lon="4.82007">
        <ele>250</ele>
        <time>2017-03-29T08:46:15Z</time>
      </trkpt>
      <trkpt lat="45.96306" lon="4.81997">
        <ele>250</ele>
        <time>2017-03-29T08:46:17Z</time>
      </trkpt>
      <trkpt lat="45.96307" lon="4.81992">
        <ele>250</ele>
        <time>2017-03-29T08:46:18Z</time>
      </trkpt>
      <trkpt lat="45.96308" lon="4.8198">
        <ele>250</ele>
        <time>2017-03-29T08:46:20Z</time>
      </trkpt>
      <trkpt lat="45.96309" lon="4.81974">
        <ele>249</ele>
        <time>2017-03-29T08:46:21Z</time>
      </trkpt>
      <trkpt lat="45.96312" lon="4.81963">
        <ele>249</ele>
        <time>2017-03-29T08:46:23Z</time>
      </trkpt>
      <trkpt lat="45.96313" lon="4.81957">
        <ele>249</ele>
        <time>2017-03-29T08:46:24Z</time>
      </trkpt>
      <trkpt lat="45.96315" lon="4.81945">
        <ele>250</ele>
        <time>2017-03-29T08:46:26Z</time>
      </trkpt>
      <trkpt lat="45.96316" lon="4.8194">
        <ele>250</ele>
        <time>2017-03-29T08:46:27Z</time>
      </trkpt>
      <trkpt lat="45.96318" lon="4.81929">
        <ele>251</ele>
        <time>2017-03-29T08:46:29Z</time>
      </trkpt>
      <trkpt lat="45.9632" lon="4.81923">
        <ele>251</ele>
        <time>2017-03-29T08:46:30Z</time>
      </trkpt>
      <trkpt lat="45.96322" lon="4.81912">
        <ele>250</ele>
        <time>2017-03-29T08:46:32Z</time>
      </trkpt>
      <trkpt lat="45.96323" lon="4.81906">
        <ele>250</ele>
        <time>2017-03-29T08:46:33Z</time>
      </trkpt>
      <trkpt lat="45.96325" lon="4.81894">
        <ele>249</ele>
        <time>2017-03-29T08:46:35Z</time>
      </trkpt>
      <trkpt lat="45.96325" lon="4.81888">
        <ele>248</ele>
        <time>2017-03-29T08:46:36Z</time>
      </trkpt>
      <trkpt lat="45.96326" lon="4.81876">
        <ele>247</ele>
        <time>2017-03-29T08:46:38Z</time>
      </trkpt>
      <trkpt lat="45.96327" lon="4.81869">
        <ele>247</ele>
        <time>2017-03-29T08:46:39Z</time>
      </trkpt>
      <trkpt lat="45.96328" lon="4.81863">
        <ele>247</ele>
        <time>2017-03-29T08:46:40Z</time>
      </trkpt>
      <trkpt lat="45.96329" lon="4.81857">
        <ele>248</ele>
        <time>2017-03-29T08:46:41Z</time>
      </trkpt>
      <trkpt lat="45.96331" lon="4.8185">
        <ele>248</ele>
        <time>2017-03-29T08:46:42Z</time>
      </trkpt>
      <trkpt lat="45.96332" lon="4.81844">
        <ele>249</ele>
        <time>2017-03-29T08:46:43Z</time>
      </trkpt>
      <trkpt lat="45.96333" lon="4.81838">
        <ele>250</ele>
        <time>2017-03-29T08:46:44Z</time>
      </trkpt>
      <trkpt lat="45.96334" lon="4.81831">
        <ele>251</ele>
        <time>2017-03-29T08:46:45Z</time>
      </trkpt>
      <trkpt lat="45.96335" lon="4.81825">
        <ele>251</ele>
        <time>2017-03-29T08:46:46Z</time>
      </trkpt>
      <trkpt lat="45.96336" lon="4.81819">
        <ele>251</ele>
        <time>2017-03-29T08:46:47Z</time>
      </trkpt>
      <trkpt lat="45.96337" lon="4.81812">
        <ele>251</ele>
        <time>2017-03-29T08:46:48Z</time>
      </trkpt>
      <trkpt lat="45.96339" lon="4.81806">
        <ele>251</ele>
        <time>2017-03-29T08:46:49Z</time>
      </trkpt>
      <trkpt lat="45.9634" lon="4.81799">
        <ele>250</ele>
        <time>2017-03-29T08:46:50Z</time>
      </trkpt>
      <trkpt lat="45.96342" lon="4.81793">
        <ele>250</ele>
        <time>2017-03-29T08:46:51Z</time>
      </trkpt>
      <trkpt lat="45.96344" lon="4.81787">
        <ele>250</ele>
        <time>2017-03-29T08:46:52Z</time>
      </trkpt>
      <trkpt lat="45.96345" lon="4.81781">
        <ele>250</ele>
        <time>2017-03-29T08:46:53Z</time>
      </trkpt>
      <trkpt lat="45.96347" lon="4.81775">
        <ele>250</ele>
        <time>2017-03-29T08:46:54Z</time>
      </trkpt>
      <trkpt lat="45.96349" lon="4.81768">
        <ele>250</ele>
        <time>2017-03-29T08:46:55Z</time>
      </trkpt>
      <trkpt lat="45.96352" lon="4.81757">
        <ele>250</ele>
        <time>2017-03-29T08:46:57Z</time>
      </trkpt>
      <trkpt lat="45.96354" lon="4.81751">
        <ele>250</ele>
        <time>2017-03-29T08:46:58Z</time>
      </trkpt>
      <trkpt lat="45.96356" lon="4.81745">
        <ele>248</ele>
        <time>2017-03-29T08:46:59Z</time>
      </trkpt>
      <trkpt lat="45.96359" lon="4.8174">
        <ele>248</ele>
        <time>2017-03-29T08:47:00Z</time>
      </trkpt>
      <trkpt lat="45.96361" lon="4.81734">
        <ele>248</ele>
        <time>2017-03-29T08:47:01Z</time>
      </trkpt>
      <trkpt lat="45.96363" lon="4.81728">
        <ele>248</ele>
        <time>2017-03-29T08:47:02Z</time>
      </trkpt>
      <trkpt lat="45.96368" lon="4.81717">
        <ele>248</ele>
        <time>2017-03-29T08:47:04Z</time>
      </trkpt>
      <trkpt lat="45.9637" lon="4.81712">
        <ele>248</ele>
        <time>2017-03-29T08:47:05Z</time>
      </trkpt>
      <trkpt lat="45.96373" lon="4.81706">
        <ele>248</ele>
        <time>2017-03-29T08:47:06Z</time>
      </trkpt>
      <trkpt lat="45.96375" lon="4.81701">
        <ele>248</ele>
        <time>2017-03-29T08:47:07Z</time>
      </trkpt>
      <trkpt lat="45.96378" lon="4.81695">
        <ele>248</ele>
        <time>2017-03-29T08:47:08Z</time>
      </trkpt>
      <trkpt lat="45.96381" lon="4.81689">
        <ele>248</ele>
        <time>2017-03-29T08:47:09Z</time>
      </trkpt>
      <trkpt lat="45.96383" lon="4.81683">
        <ele>249</ele>
        <time>2017-03-29T08:47:10Z</time>
      </trkpt>
      <trkpt lat="45.96386" lon="4.81677">
        <ele>249</ele>
        <time>2017-03-29T08:47:11Z</time>
      </trkpt>
      <trkpt lat="45.96388" lon="4.81671">
        <ele>249</ele>
        <time>2017-03-29T08:47:12Z</time>
      </trkpt>
      <trkpt lat="45.9639" lon="4.81665">
        <ele>248</ele>
        <time>2017-03-29T08:47:13Z</time>
      </trkpt>
      <trkpt lat="45.96393" lon="4.81659">
        <ele>248</ele>
        <time>2017-03-29T08:47:14Z</time>
      </trkpt>
      <trkpt lat="45.96394" lon="4.81653">
        <ele>248</ele>
        <time>2017-03-29T08:47:15Z</time>
      </trkpt>
      <trkpt lat="45.96396" lon="4.81646">
        <ele>248</ele>
        <time>2017-03-29T08:47:16Z</time>
      </trkpt>
      <trkpt lat="45.96399" lon="4.8164">
        <ele>248</ele>
        <time>2017-03-29T08:47:17Z</time>
      </trkpt>
      <trkpt lat="45.96401" lon="4.81633">
        <ele>248</ele>
        <time>2017-03-29T08:47:18Z</time>
      </trkpt>
      <trkpt lat="45.96403" lon="4.81627">
        <ele>248</ele>
        <time>2017-03-29T08:47:19Z</time>
      </trkpt>
      <trkpt lat="45.96406" lon="4.81615">
        <ele>248</ele>
        <time>2017-03-29T08:47:21Z</time>
      </trkpt>
      <trkpt lat="45.96408" lon="4.8161">
        <ele>248</ele>
        <time>2017-03-29T08:47:22Z</time>
      </trkpt>
      <trkpt lat="45.96411" lon="4.81599">
        <ele>250</ele>
        <time>2017-03-29T08:47:24Z</time>
      </trkpt>
      <trkpt lat="45.96413" lon="4.81593">
        <ele>250</ele>
        <time>2017-03-29T08:47:25Z</time>
      </trkpt>
      <trkpt lat="45.96417" lon="4.81583">
        <ele>253</ele>
        <time>2017-03-29T08:47:27Z</time>
      </trkpt>
      <trkpt lat="45.96419" lon="4.81578">
        <ele>253</ele>
        <time>2017-03-29T08:47:28Z</time>
      </trkpt>
      <trkpt lat="45.96421" lon="4.81572">
        <ele>252</ele>
        <time>2017-03-29T08:47:29Z</time>
      </trkpt>
      <trkpt lat="45.96423" lon="4.81566">
        <ele>252</ele>
        <time>2017-03-29T08:47:30Z</time>
      </trkpt>
      <trkpt lat="45.96426" lon="4.8156">
        <ele>252</ele>
        <time>2017-03-29T08:47:31Z</time>
      </trkpt>
      <trkpt lat="45.96428" lon="4.81554">
        <ele>251</ele>
        <time>2017-03-29T08:47:32Z</time>
      </trkpt>
      <trkpt lat="45.96431" lon="4.81548">
        <ele>251</ele>
        <time>2017-03-29T08:47:33Z</time>
      </trkpt>
      <trkpt lat="45.96434" lon="4.81542">
        <ele>251</ele>
        <time>2017-03-29T08:47:34Z</time>
      </trkpt>
      <trkpt lat="45.96437" lon="4.81536">
        <ele>251</ele>
        <time>2017-03-29T08:47:35Z</time>
      </trkpt>
      <trkpt lat="45.9644" lon="4.8153">
        <ele>251</ele>
        <time>2017-03-29T08:47:36Z</time>
      </trkpt>
      <trkpt lat="45.96444" lon="4.81524">
        <ele>251</ele>
        <time>2017-03-29T08:47:37Z</time>
      </trkpt>
      <trkpt lat="45.96448" lon="4.81518">
        <ele>250</ele>
        <time>2017-03-29T08:47:38Z</time>
      </trkpt>
      <trkpt lat="45.96451" lon="4.81512">
        <ele>251</ele>
        <time>2017-03-29T08:47:39Z</time>
      </trkpt>
      <trkpt lat="45.96455" lon="4.81507">
        <ele>251</ele>
        <time>2017-03-29T08:47:40Z</time>
      </trkpt>
      <trkpt lat="45.96459" lon="4.81503">
        <ele>251</ele>
        <time>2017-03-29T08:47:41Z</time>
      </trkpt>
      <trkpt lat="45.96463" lon="4.81498">
        <ele>249</ele>
        <time>2017-03-29T08:47:42Z</time>
      </trkpt>
      <trkpt lat="45.96467" lon="4.81494">
        <ele>249</ele>
        <time>2017-03-29T08:47:43Z</time>
      </trkpt>
      <trkpt lat="45.96471" lon="4.81491">
        <ele>249</ele>
        <time>2017-03-29T08:47:44Z</time>
      </trkpt>
      <trkpt lat="45.96474" lon="4.81487">
        <ele>249</ele>
        <time>2017-03-29T08:47:45Z</time>
      </trkpt>
      <trkpt lat="45.96479" lon="4.81483">
        <ele>249</ele>
        <time>2017-03-29T08:47:46Z</time>
      </trkpt>
      <trkpt lat="45.96483" lon="4.81479">
        <ele>249</ele>
        <time>2017-03-29T08:47:47Z</time>
      </trkpt>
      <trkpt lat="45.96487" lon="4.81475">
        <ele>249</ele>
        <time>2017-03-29T08:47:48Z</time>
      </trkpt>
      <trkpt lat="45.96491" lon="4.81472">
        <ele>249</ele>
        <time>2017-03-29T08:47:49Z</time>
      </trkpt>
      <trkpt lat="45.96495" lon="4.81469">
        <ele>249</ele>
        <time>2017-03-29T08:47:50Z</time>
      </trkpt>
      <trkpt lat="45.96499" lon="4.81465">
        <ele>249</ele>
        <time>2017-03-29T08:47:51Z</time>
      </trkpt>
      <trkpt lat="45.96503" lon="4.81462">
        <ele>252</ele>
        <time>2017-03-29T08:47:52Z</time>
      </trkpt>
      <trkpt lat="45.96511" lon="4.81455">
        <ele>252</ele>
        <time>2017-03-29T08:47:54Z</time>
      </trkpt>
      <trkpt lat="45.96514" lon="4.81453">
        <ele>252</ele>
        <time>2017-03-29T08:47:55Z</time>
      </trkpt>
      <trkpt lat="45.96519" lon="4.8145">
        <ele>252</ele>
        <time>2017-03-29T08:47:56Z</time>
      </trkpt>
      <trkpt lat="45.96523" lon="4.81447">
        <ele>252</ele>
        <time>2017-03-29T08:47:57Z</time>
      </trkpt>
      <trkpt lat="45.96528" lon="4.81443">
        <ele>252</ele>
        <time>2017-03-29T08:47:58Z</time>
      </trkpt>
      <trkpt lat="45.96532" lon="4.81438">
        <ele>252</ele>
        <time>2017-03-29T08:47:59Z</time>
      </trkpt>
      <trkpt lat="45.96537" lon="4.81434">
        <ele>252</ele>
        <time>2017-03-29T08:48:00Z</time>
      </trkpt>
      <trkpt lat="45.96541" lon="4.8143">
        <ele>252</ele>
        <time>2017-03-29T08:48:01Z</time>
      </trkpt>
      <trkpt lat="45.96545" lon="4.81427">
        <ele>252</ele>
        <time>2017-03-29T08:48:02Z</time>
      </trkpt>
      <trkpt lat="45.9655" lon="4.81424">
        <ele>253</ele>
        <time>2017-03-29T08:48:03Z</time>
      </trkpt>
      <trkpt lat="45.96557" lon="4.81418">
        <ele>253</ele>
        <time>2017-03-29T08:48:05Z</time>
      </trkpt>
      <trkpt lat="45.96561" lon="4.81415">
        <ele>252</ele>
        <time>2017-03-29T08:48:06Z</time>
      </trkpt>
      <trkpt lat="45.96568" lon="4.81409">
        <ele>253</ele>
        <time>2017-03-29T08:48:08Z</time>
      </trkpt>
      <trkpt lat="45.96572" lon="4.81406">
        <ele>253</ele>
        <time>2017-03-29T08:48:09Z</time>
      </trkpt>
      <trkpt lat="45.96576" lon="4.81402">
        <ele>253</ele>
        <time>2017-03-29T08:48:10Z</time>
      </trkpt>
      <trkpt lat="45.9658" lon="4.81398">
        <ele>252</ele>
        <time>2017-03-29T08:48:11Z</time>
      </trkpt>
      <trkpt lat="45.96583" lon="4.81394">
        <ele>252</ele>
        <time>2017-03-29T08:48:12Z</time>
      </trkpt>
      <trkpt lat="45.96587" lon="4.8139">
        <ele>253</ele>
        <time>2017-03-29T08:48:13Z</time>
      </trkpt>
      <trkpt lat="45.9659" lon="4.81386">
        <ele>253</ele>
        <time>2017-03-29T08:48:14Z</time>
      </trkpt>
      <trkpt lat="45.96594" lon="4.81382">
        <ele>253</ele>
        <time>2017-03-29T08:48:15Z</time>
      </trkpt>
      <trkpt lat="45.96601" lon="4.81374">
        <ele>253</ele>
        <time>2017-03-29T08:48:17Z</time>
      </trkpt>
      <trkpt lat="45.96604" lon="4.8137">
        <ele>253</ele>
        <time>2017-03-29T08:48:18Z</time>
      </trkpt>
      <trkpt lat="45.96608" lon="4.81365">
        <ele>253</ele>
        <time>2017-03-29T08:48:19Z</time>
      </trkpt>
      <trkpt lat="45.96611" lon="4.81361">
        <ele>253</ele>
        <time>2017-03-29T08:48:20Z</time>
      </trkpt>
      <trkpt lat="45.96617" lon="4.81352">
        <ele>253</ele>
        <time>2017-03-29T08:48:22Z</time>
      </trkpt>
      <trkpt lat="45.96619" lon="4.81346">
        <ele>253</ele>
        <time>2017-03-29T08:48:23Z</time>
      </trkpt>
      <trkpt lat="45.96622" lon="4.81341">
        <ele>253</ele>
        <time>2017-03-29T08:48:24Z</time>
      </trkpt>
      <trkpt lat="45.96624" lon="4.81335">
        <ele>253</ele>
        <time>2017-03-29T08:48:25Z</time>
      </trkpt>
      <trkpt lat="45.96629" lon="4.81325">
        <ele>253</ele>
        <time>2017-03-29T08:48:27Z</time>
      </trkpt>
      <trkpt lat="45.96631" lon="4.81319">
        <ele>253</ele>
        <time>2017-03-29T08:48:28Z</time>
      </trkpt>
      <trkpt lat="45.96636" lon="4.81309">
        <ele>253</ele>
        <time>2017-03-29T08:48:30Z</time>
      </trkpt>
      <trkpt lat="45.96638" lon="4.81303">
        <ele>253</ele>
        <time>2017-03-29T08:48:31Z</time>
      </trkpt>
      <trkpt lat="45.96643" lon="4.81293">
        <ele>253</ele>
        <time>2017-03-29T08:48:33Z</time>
      </trkpt>
      <trkpt lat="45.96645" lon="4.81289">
        <ele>253</ele>
        <time>2017-03-29T08:48:34Z</time>
      </trkpt>
      <trkpt lat="45.96649" lon="4.81279">
        <ele>253</ele>
        <time>2017-03-29T08:48:36Z</time>
      </trkpt>
      <trkpt lat="45.96651" lon="4.81274">
        <ele>253</ele>
        <time>2017-03-29T08:48:37Z</time>
      </trkpt>
      <trkpt lat="45.96655" lon="4.81266">
        <ele>254</ele>
        <time>2017-03-29T08:48:39Z</time>
      </trkpt>
      <trkpt lat="45.96657" lon="4.81261">
        <ele>254</ele>
        <time>2017-03-29T08:48:40Z</time>
      </trkpt>
      <trkpt lat="45.96659" lon="4.81256">
        <ele>254</ele>
        <time>2017-03-29T08:48:41Z</time>
      </trkpt>
      <trkpt lat="45.96662" lon="4.8125">
        <ele>254</ele>
        <time>2017-03-29T08:48:42Z</time>
      </trkpt>
      <trkpt lat="45.96665" lon="4.81244">
        <ele>254</ele>
        <time>2017-03-29T08:48:43Z</time>
      </trkpt>
      <trkpt lat="45.96668" lon="4.81238">
        <ele>254</ele>
        <time>2017-03-29T08:48:44Z</time>
      </trkpt>
      <trkpt lat="45.9667" lon="4.81232">
        <ele>254</ele>
        <time>2017-03-29T08:48:45Z</time>
      </trkpt>
      <trkpt lat="45.96673" lon="4.81225">
        <ele>254</ele>
        <time>2017-03-29T08:48:46Z</time>
      </trkpt>
      <trkpt lat="45.96678" lon="4.81215">
        <ele>254</ele>
        <time>2017-03-29T08:48:48Z</time>
      </trkpt>
      <trkpt lat="45.96681" lon="4.8121">
        <ele>254</ele>
        <time>2017-03-29T08:48:49Z</time>
      </trkpt>
      <trkpt lat="45.96685" lon="4.81205">
        <ele>254</ele>
        <time>2017-03-29T08:48:50Z</time>
      </trkpt>
      <trkpt lat="45.96689" lon="4.812">
        <ele>254</ele>
        <time>2017-03-29T08:48:51Z</time>
      </trkpt>
      <trkpt lat="45.96693" lon="4.81196">
        <ele>254</ele>
        <time>2017-03-29T08:48:52Z</time>
      </trkpt>
      <trkpt lat="45.96697" lon="4.81191">
        <ele>253</ele>
        <time>2017-03-29T08:48:53Z</time>
      </trkpt>
      <trkpt lat="45.96701" lon="4.81187">
        <ele>253</ele>
        <time>2017-03-29T08:48:54Z</time>
      </trkpt>
      <trkpt lat="45.96706" lon="4.81183">
        <ele>253</ele>
        <time>2017-03-29T08:48:55Z</time>
      </trkpt>
      <trkpt lat="45.9671" lon="4.81179">
        <ele>254</ele>
        <time>2017-03-29T08:48:56Z</time>
      </trkpt>
      <trkpt lat="45.96715" lon="4.81174">
        <ele>254</ele>
        <time>2017-03-29T08:48:57Z</time>
      </trkpt>
      <trkpt lat="45.9672" lon="4.8117">
        <ele>254</ele>
        <time>2017-03-29T08:48:58Z</time>
      </trkpt>
      <trkpt lat="45.96725" lon="4.81165">
        <ele>253</ele>
        <time>2017-03-29T08:48:59Z</time>
      </trkpt>
      <trkpt lat="45.9673" lon="4.81161">
        <ele>253</ele>
        <time>2017-03-29T08:49:00Z</time>
      </trkpt>
      <trkpt lat="45.96735" lon="4.81156">
        <ele>253</ele>
        <time>2017-03-29T08:49:01Z</time>
      </trkpt>
      <trkpt lat="45.9674" lon="4.81152">
        <ele>253</ele>
        <time>2017-03-29T08:49:02Z</time>
      </trkpt>
      <trkpt lat="45.96745" lon="4.81147">
        <ele>253</ele>
        <time>2017-03-29T08:49:03Z</time>
      </trkpt>
      <trkpt lat="45.9675" lon="4.81141">
        <ele>253</ele>
        <time>2017-03-29T08:49:04Z</time>
      </trkpt>
      <trkpt lat="45.96755" lon="4.81136">
        <ele>252</ele>
        <time>2017-03-29T08:49:05Z</time>
      </trkpt>
      <trkpt lat="45.96761" lon="4.81131">
        <ele>252</ele>
        <time>2017-03-29T08:49:06Z</time>
      </trkpt>
      <trkpt lat="45.96767" lon="4.81127">
        <ele>251</ele>
        <time>2017-03-29T08:49:07Z</time>
      </trkpt>
      <trkpt lat="45.96773" lon="4.81122">
        <ele>251</ele>
        <time>2017-03-29T08:49:08Z</time>
      </trkpt>
      <trkpt lat="45.9678" lon="4.81118">
        <ele>251</ele>
        <time>2017-03-29T08:49:09Z</time>
      </trkpt>
      <trkpt lat="45.96787" lon="4.81114">
        <ele>251</ele>
        <time>2017-03-29T08:49:10Z</time>
      </trkpt>
      <trkpt lat="45.96794" lon="4.81109">
        <ele>251</ele>
        <time>2017-03-29T08:49:11Z</time>
      </trkpt>
      <trkpt lat="45.96801" lon="4.81105">
        <ele>251</ele>
        <time>2017-03-29T08:49:12Z</time>
      </trkpt>
      <trkpt lat="45.96809" lon="4.81101">
        <ele>251</ele>
        <time>2017-03-29T08:49:13Z</time>
      </trkpt>
      <trkpt lat="45.96817" lon="4.81097">
        <ele>250</ele>
        <time>2017-03-29T08:49:14Z</time>
      </trkpt>
      <trkpt lat="45.96824" lon="4.81093">
        <ele>250</ele>
        <time>2017-03-29T08:49:15Z</time>
      </trkpt>
      <trkpt lat="45.96832" lon="4.81088">
        <ele>250</ele>
        <time>2017-03-29T08:49:16Z</time>
      </trkpt>
      <trkpt lat="45.9684" lon="4.81084">
        <ele>249</ele>
        <time>2017-03-29T08:49:17Z</time>
      </trkpt>
      <trkpt lat="45.96848" lon="4.8108">
        <ele>249</ele>
        <time>2017-03-29T08:49:18Z</time>
      </trkpt>
      <trkpt lat="45.96856" lon="4.81076">
        <ele>249</ele>
        <time>2017-03-29T08:49:19Z</time>
      </trkpt>
      <trkpt lat="45.96863" lon="4.81071">
        <ele>249</ele>
        <time>2017-03-29T08:49:20Z</time>
      </trkpt>
      <trkpt lat="45.9687" lon="4.81067">
        <ele>249</ele>
        <time>2017-03-29T08:49:21Z</time>
      </trkpt>
      <trkpt lat="45.96875" lon="4.81063">
        <ele>249</ele>
        <time>2017-03-29T08:49:22Z</time>
      </trkpt>
      <trkpt lat="45.96881" lon="4.8106">
        <ele>248</ele>
        <time>2017-03-29T08:49:23Z</time>
      </trkpt>
      <trkpt lat="45.96885" lon="4.81058">
        <ele>248</ele>
        <time>2017-03-29T08:49:24Z</time>
      </trkpt>
      <trkpt lat="45.96889" lon="4.81056">
        <ele>248</ele>
        <time>2017-03-29T08:49:25Z</time>
      </trkpt>
      <trkpt lat="45.96894" lon="4.81054">
        <ele>248</ele>
        <time>2017-03-29T08:49:26Z</time>
      </trkpt>
      <trkpt lat="45.96898" lon="4.81052">
        <ele>248</ele>
        <time>2017-03-29T08:49:27Z</time>
      </trkpt>
      <trkpt lat="45.96903" lon="4.8105">
        <ele>248</ele>
        <time>2017-03-29T08:49:28Z</time>
      </trkpt>
      <trkpt lat="45.96908" lon="4.81048">
        <ele>248</ele>
        <time>2017-03-29T08:49:29Z</time>
      </trkpt>
      <trkpt lat="45.96913" lon="4.81048">
        <ele>248</ele>
        <time>2017-03-29T08:49:30Z</time>
      </trkpt>
      <trkpt lat="45.96919" lon="4.81048">
        <ele>246</ele>
        <time>2017-03-29T08:49:31Z</time>
      </trkpt>
      <trkpt lat="45.96925" lon="4.81049">
        <ele>246</ele>
        <time>2017-03-29T08:49:32Z</time>
      </trkpt>
      <trkpt lat="45.96931" lon="4.81049">
        <ele>246</ele>
        <time>2017-03-29T08:49:33Z</time>
      </trkpt>
      <trkpt lat="45.96937" lon="4.81049">
        <ele>246</ele>
        <time>2017-03-29T08:49:34Z</time>
      </trkpt>
      <trkpt lat="45.96943" lon="4.81048">
        <ele>246</ele>
        <time>2017-03-29T08:49:35Z</time>
      </trkpt>
      <trkpt lat="45.9695" lon="4.81047">
        <ele>246</ele>
        <time>2017-03-29T08:49:36Z</time>
      </trkpt>
      <trkpt lat="45.96956" lon="4.81046">
        <ele>246</ele>
        <time>2017-03-29T08:49:37Z</time>
      </trkpt>
      <trkpt lat="45.96963" lon="4.81045">
        <ele>246</ele>
        <time>2017-03-29T08:49:38Z</time>
      </trkpt>
      <trkpt lat="45.96969" lon="4.81045">
        <ele>245</ele>
        <time>2017-03-29T08:49:39Z</time>
      </trkpt>
      <trkpt lat="45.96975" lon="4.81045">
        <ele>245</ele>
        <time>2017-03-29T08:49:40Z</time>
      </trkpt>
      <trkpt lat="45.96982" lon="4.81044">
        <ele>245</ele>
        <time>2017-03-29T08:49:41Z</time>
      </trkpt>
      <trkpt lat="45.96989" lon="4.81043">
        <ele>245</ele>
        <time>2017-03-29T08:49:42Z</time>
      </trkpt>
      <trkpt lat="45.96996" lon="4.81043">
        <ele>245</ele>
        <time>2017-03-29T08:49:43Z</time>
      </trkpt>
      <trkpt lat="45.97003" lon="4.81042">
        <ele>242</ele>
        <time>2017-03-29T08:49:44Z</time>
      </trkpt>
      <trkpt lat="45.9701" lon="4.81041">
        <ele>242</ele>
        <time>2017-03-29T08:49:45Z</time>
      </trkpt>
      <trkpt lat="45.97018" lon="4.81039">
        <ele>242</ele>
        <time>2017-03-29T08:49:46Z</time>
      </trkpt>
      <trkpt lat="45.97026" lon="4.81038">
        <ele>242</ele>
        <time>2017-03-29T08:49:47Z</time>
      </trkpt>
      <trkpt lat="45.97034" lon="4.81037">
        <ele>242</ele>
        <time>2017-03-29T08:49:48Z</time>
      </trkpt>
      <trkpt lat="45.97042" lon="4.81037">
        <ele>241</ele>
        <time>2017-03-29T08:49:49Z</time>
      </trkpt>
      <trkpt lat="45.97051" lon="4.81039">
        <ele>241</ele>
        <time>2017-03-29T08:49:50Z</time>
      </trkpt>
      <trkpt lat="45.97059" lon="4.81042">
        <ele>241</ele>
        <time>2017-03-29T08:49:51Z</time>
      </trkpt>
      <trkpt lat="45.97065" lon="4.81047">
        <ele>240</ele>
        <time>2017-03-29T08:49:52Z</time>
      </trkpt>
      <trkpt lat="45.97071" lon="4.81055">
        <ele>240</ele>
        <time>2017-03-29T08:49:53Z</time>
      </trkpt>
      <trkpt lat="45.97077" lon="4.81064">
        <ele>239</ele>
        <time>2017-03-29T08:49:54Z</time>
      </trkpt>
      <trkpt lat="45.97081" lon="4.81074">
        <ele>238</ele>
        <time>2017-03-29T08:49:55Z</time>
      </trkpt>
      <trkpt lat="45.97086" lon="4.81085">
        <ele>237</ele>
        <time>2017-03-29T08:49:56Z</time>
      </trkpt>
      <trkpt lat="45.97092" lon="4.81096">
        <ele>236</ele>
        <time>2017-03-29T08:49:57Z</time>
      </trkpt>
      <trkpt lat="45.97098" lon="4.81105">
        <ele>236</ele>
        <time>2017-03-29T08:49:58Z</time>
      </trkpt>
      <trkpt lat="45.97104" lon="4.81114">
        <ele>235</ele>
        <time>2017-03-29T08:49:59Z</time>
      </trkpt>
      <trkpt lat="45.97111" lon="4.8112">
        <ele>235</ele>
        <time>2017-03-29T08:50:00Z</time>
      </trkpt>
      <trkpt lat="45.97119" lon="4.81125">
        <ele>235</ele>
        <time>2017-03-29T08:50:01Z</time>
      </trkpt>
      <trkpt lat="45.97128" lon="4.81125">
        <ele>235</ele>
        <time>2017-03-29T08:50:02Z</time>
      </trkpt>
      <trkpt lat="45.97137" lon="4.81127">
        <ele>235</ele>
        <time>2017-03-29T08:50:03Z</time>
      </trkpt>
      <trkpt lat="45.97146" lon="4.81128">
        <ele>234</ele>
        <time>2017-03-29T08:50:04Z</time>
      </trkpt>
      <trkpt lat="45.97154" lon="4.81129">
        <ele>234</ele>
        <time>2017-03-29T08:50:05Z</time>
      </trkpt>
      <trkpt lat="45.97163" lon="4.81129">
        <ele>234</ele>
        <time>2017-03-29T08:50:06Z</time>
      </trkpt>
      <trkpt lat="45.97171" lon="4.81127">
        <ele>233</ele>
        <time>2017-03-29T08:50:07Z</time>
      </trkpt>
      <trkpt lat="45.97179" lon="4.81126">
        <ele>233</ele>
        <time>2017-03-29T08:50:08Z</time>
      </trkpt>
      <trkpt lat="45.97186" lon="4.81124">
        <ele>233</ele>
        <time>2017-03-29T08:50:09Z</time>
      </trkpt>
      <trkpt lat="45.97193" lon="4.81122">
        <ele>233</ele>
        <time>2017-03-29T08:50:10Z</time>
      </trkpt>
      <trkpt lat="45.972" lon="4.81119">
        <ele>233</ele>
        <time>2017-03-29T08:50:11Z</time>
      </trkpt>
      <trkpt lat="45.97206" lon="4.81117">
        <ele>233</ele>
        <time>2017-03-29T08:50:12Z</time>
      </trkpt>
      <trkpt lat="45.97213" lon="4.81114">
        <ele>233</ele>
        <time>2017-03-29T08:50:13Z</time>
      </trkpt>
      <trkpt lat="45.97219" lon="4.81111">
        <ele>233</ele>
        <time>2017-03-29T08:50:14Z</time>
      </trkpt>
      <trkpt lat="45.97225" lon="4.81107">
        <ele>233</ele>
        <time>2017-03-29T08:50:15Z</time>
      </trkpt>
      <trkpt lat="45.9723" lon="4.81101">
        <ele>233</ele>
        <time>2017-03-29T08:50:16Z</time>
      </trkpt>
      <trkpt lat="45.97235" lon="4.81096">
        <ele>233</ele>
        <time>2017-03-29T08:50:17Z</time>
      </trkpt>
      <trkpt lat="45.9724" lon="4.81091">
        <ele>233</ele>
        <time>2017-03-29T08:50:18Z</time>
      </trkpt>
      <trkpt lat="45.97244" lon="4.81085">
        <ele>232</ele>
        <time>2017-03-29T08:50:19Z</time>
      </trkpt>
      <trkpt lat="45.97248" lon="4.8108">
        <ele>232</ele>
        <time>2017-03-29T08:50:20Z</time>
      </trkpt>
      <trkpt lat="45.97252" lon="4.81076">
        <ele>232</ele>
        <time>2017-03-29T08:50:21Z</time>
      </trkpt>
      <trkpt lat="45.97257" lon="4.81073">
        <ele>232</ele>
        <time>2017-03-29T08:50:22Z</time>
      </trkpt>
      <trkpt lat="45.97261" lon="4.81071">
        <ele>232</ele>
        <time>2017-03-29T08:50:23Z</time>
      </trkpt>
      <trkpt lat="45.97266" lon="4.8107">
        <ele>232</ele>
        <time>2017-03-29T08:50:24Z</time>
      </trkpt>
      <trkpt lat="45.97271" lon="4.8107">
        <ele>231</ele>
        <time>2017-03-29T08:50:25Z</time>
      </trkpt>
      <trkpt lat="45.97275" lon="4.8107">
        <ele>231</ele>
        <time>2017-03-29T08:50:26Z</time>
      </trkpt>
      <trkpt lat="45.9728" lon="4.81069">
        <ele>231</ele>
        <time>2017-03-29T08:50:27Z</time>
      </trkpt>
      <trkpt lat="45.97285" lon="4.81069">
        <ele>231</ele>
        <time>2017-03-29T08:50:28Z</time>
      </trkpt>
      <trkpt lat="45.97293" lon="4.81068">
        <ele>231</ele>
        <time>2017-03-29T08:50:30Z</time>
      </trkpt>
      <trkpt lat="45.97298" lon="4.81066">
        <ele>231</ele>
        <time>2017-03-29T08:50:31Z</time>
      </trkpt>
      <trkpt lat="45.97303" lon="4.81064">
        <ele>231</ele>
        <time>2017-03-29T08:50:32Z</time>
      </trkpt>
      <trkpt lat="45.97308" lon="4.81063">
        <ele>232</ele>
        <time>2017-03-29T08:50:33Z</time>
      </trkpt>
      <trkpt lat="45.97314" lon="4.81063">
        <ele>232</ele>
        <time>2017-03-29T08:50:34Z</time>
      </trkpt>
      <trkpt lat="45.97318" lon="4.81062">
        <ele>232</ele>
        <time>2017-03-29T08:50:35Z</time>
      </trkpt>
      <trkpt lat="45.97327" lon="4.8106">
        <ele>232</ele>
        <time>2017-03-29T08:50:37Z</time>
      </trkpt>
      <trkpt lat="45.9733" lon="4.8106">
        <ele>232</ele>
        <time>2017-03-29T08:50:38Z</time>
      </trkpt>
      <trkpt lat="45.97338" lon="4.81059">
        <ele>233</ele>
        <time>2017-03-29T08:50:40Z</time>
      </trkpt>
      <trkpt lat="45.97343" lon="4.81059">
        <ele>233</ele>
        <time>2017-03-29T08:50:41Z</time>
      </trkpt>
      <trkpt lat="45.97347" lon="4.81059">
        <ele>233</ele>
        <time>2017-03-29T08:50:42Z</time>
      </trkpt>
      <trkpt lat="45.97352" lon="4.81058">
        <ele>233</ele>
        <time>2017-03-29T08:50:43Z</time>
      </trkpt>
      <trkpt lat="45.97358" lon="4.81055">
        <ele>233</ele>
        <time>2017-03-29T08:50:45Z</time>
      </trkpt>
      <trkpt lat="45.97361" lon="4.81054">
        <ele>233</ele>
        <time>2017-03-29T08:50:46Z</time>
      </trkpt>
      <trkpt lat="45.97367" lon="4.81055">
        <ele>233</ele>
        <time>2017-03-29T08:50:48Z</time>
      </trkpt>
      <trkpt lat="45.9737" lon="4.81057">
        <ele>233</ele>
        <time>2017-03-29T08:50:49Z</time>
      </trkpt>
      <trkpt lat="45.97374" lon="4.81066">
        <ele>233</ele>
        <time>2017-03-29T08:50:51Z</time>
      </trkpt>
      <trkpt lat="45.97376" lon="4.8107">
        <ele>234</ele>
        <time>2017-03-29T08:50:52Z</time>
      </trkpt>
      <trkpt lat="45.97381" lon="4.81079">
        <ele>234</ele>
        <time>2017-03-29T08:50:54Z</time>
      </trkpt>
      <trkpt lat="45.97384" lon="4.81083">
        <ele>234</ele>
        <time>2017-03-29T08:50:55Z</time>
      </trkpt>
      <trkpt lat="45.97392" lon="4.81085">
        <ele>235</ele>
        <time>2017-03-29T08:50:57Z</time>
      </trkpt>
      <trkpt lat="45.97395" lon="4.81086">
        <ele>235</ele>
        <time>2017-03-29T08:50:58Z</time>
      </trkpt>
      <trkpt lat="45.97403" lon="4.81084">
        <ele>236</ele>
        <time>2017-03-29T08:51:00Z</time>
      </trkpt>
      <trkpt lat="45.97407" lon="4.81082">
        <ele>235</ele>
        <time>2017-03-29T08:51:01Z</time>
      </trkpt>
      <trkpt lat="45.97415" lon="4.81079">
        <ele>235</ele>
        <time>2017-03-29T08:51:04Z</time>
      </trkpt>
      <trkpt lat="45.97418" lon="4.81078">
        <ele>236</ele>
        <time>2017-03-29T08:51:05Z</time>
      </trkpt>
      <trkpt lat="45.97424" lon="4.81077">
        <ele>236</ele>
        <time>2017-03-29T08:51:07Z</time>
      </trkpt>
      <trkpt lat="45.97427" lon="4.81076">
        <ele>235</ele>
        <time>2017-03-29T08:51:08Z</time>
      </trkpt>
      <trkpt lat="45.97436" lon="4.81074">
        <ele>235</ele>
        <time>2017-03-29T08:51:10Z</time>
      </trkpt>
      <trkpt lat="45.9744" lon="4.81071">
        <ele>235</ele>
        <time>2017-03-29T08:51:11Z</time>
      </trkpt>
      <trkpt lat="45.97449" lon="4.81068">
        <ele>235</ele>
        <time>2017-03-29T08:51:13Z</time>
      </trkpt>
      <trkpt lat="45.97453" lon="4.81066">
        <ele>235</ele>
        <time>2017-03-29T08:51:14Z</time>
      </trkpt>
      <trkpt lat="45.97461" lon="4.81061">
        <ele>235</ele>
        <time>2017-03-29T08:51:16Z</time>
      </trkpt>
      <trkpt lat="45.97464" lon="4.81058">
        <ele>235</ele>
        <time>2017-03-29T08:51:17Z</time>
      </trkpt>
      <trkpt lat="45.97472" lon="4.81052">
        <ele>235</ele>
        <time>2017-03-29T08:51:19Z</time>
      </trkpt>
      <trkpt lat="45.97476" lon="4.81049">
        <ele>235</ele>
        <time>2017-03-29T08:51:20Z</time>
      </trkpt>
      <trkpt lat="45.97484" lon="4.81044">
        <ele>235</ele>
        <time>2017-03-29T08:51:22Z</time>
      </trkpt>
      <trkpt lat="45.97488" lon="4.81042">
        <ele>235</ele>
        <time>2017-03-29T08:51:23Z</time>
      </trkpt>
      <trkpt lat="45.97492" lon="4.8104">
        <ele>234</ele>
        <time>2017-03-29T08:51:24Z</time>
      </trkpt>
      <trkpt lat="45.97497" lon="4.81038">
        <ele>234</ele>
        <time>2017-03-29T08:51:25Z</time>
      </trkpt>
      <trkpt lat="45.97501" lon="4.81036">
        <ele>234</ele>
        <time>2017-03-29T08:51:26Z</time>
      </trkpt>
      <trkpt lat="45.97506" lon="4.81033">
        <ele>234</ele>
        <time>2017-03-29T08:51:27Z</time>
      </trkpt>
      <trkpt lat="45.97511" lon="4.81031">
        <ele>234</ele>
        <time>2017-03-29T08:51:28Z</time>
      </trkpt>
      <trkpt lat="45.97516" lon="4.81029">
        <ele>234</ele>
        <time>2017-03-29T08:51:29Z</time>
      </trkpt>
      <trkpt lat="45.97521" lon="4.81027">
        <ele>234</ele>
        <time>2017-03-29T08:51:30Z</time>
      </trkpt>
      <trkpt lat="45.97526" lon="4.81024">
        <ele>234</ele>
        <time>2017-03-29T08:51:31Z</time>
      </trkpt>
      <trkpt lat="45.9753" lon="4.81021">
        <ele>234</ele>
        <time>2017-03-29T08:51:32Z</time>
      </trkpt>
      <trkpt lat="45.97535" lon="4.81017">
        <ele>234</ele>
        <time>2017-03-29T08:51:33Z</time>
      </trkpt>
      <trkpt lat="45.97539" lon="4.81013">
        <ele>234</ele>
        <time>2017-03-29T08:51:34Z</time>
      </trkpt>
      <trkpt lat="45.97542" lon="4.81008">
        <ele>234</ele>
        <time>2017-03-29T08:51:35Z</time>
      </trkpt>
      <trkpt lat="45.97546" lon="4.81006">
        <ele>234</ele>
        <time>2017-03-29T08:51:36Z</time>
      </trkpt>
      <trkpt lat="45.97551" lon="4.81004">
        <ele>234</ele>
        <time>2017-03-29T08:51:37Z</time>
      </trkpt>
      <trkpt lat="45.97555" lon="4.81001">
        <ele>234</ele>
        <time>2017-03-29T08:51:38Z</time>
      </trkpt>
      <trkpt lat="45.97559" lon="4.80998">
        <ele>233</ele>
        <time>2017-03-29T08:51:39Z</time>
      </trkpt>
      <trkpt lat="45.97563" lon="4.80994">
        <ele>233</ele>
        <time>2017-03-29T08:51:40Z</time>
      </trkpt>
      <trkpt lat="45.97567" lon="4.80992">
        <ele>233</ele>
        <time>2017-03-29T08:51:41Z</time>
      </trkpt>
      <trkpt lat="45.97572" lon="4.80988">
        <ele>233</ele>
        <time>2017-03-29T08:51:42Z</time>
      </trkpt>
      <trkpt lat="45.97576" lon="4.80985">
        <ele>233</ele>
        <time>2017-03-29T08:51:43Z</time>
      </trkpt>
      <trkpt lat="45.9758" lon="4.80981">
        <ele>233</ele>
        <time>2017-03-29T08:51:44Z</time>
      </trkpt>
      <trkpt lat="45.97585" lon="4.80978">
        <ele>233</ele>
        <time>2017-03-29T08:51:45Z</time>
      </trkpt>
      <trkpt lat="45.97589" lon="4.80975">
        <ele>233</ele>
        <time>2017-03-29T08:51:46Z</time>
      </trkpt>
      <trkpt lat="45.97594" lon="4.80971">
        <ele>233</ele>
        <time>2017-03-29T08:51:47Z</time>
      </trkpt>
      <trkpt lat="45.97598" lon="4.80968">
        <ele>233</ele>
        <time>2017-03-29T08:51:48Z</time>
      </trkpt>
      <trkpt lat="45.97603" lon="4.80964">
        <ele>233</ele>
        <time>2017-03-29T08:51:49Z</time>
      </trkpt>
      <trkpt lat="45.97611" lon="4.80958">
        <ele>233</ele>
        <time>2017-03-29T08:51:51Z</time>
      </trkpt>
      <trkpt lat="45.97614" lon="4.80955">
        <ele>233</ele>
        <time>2017-03-29T08:51:52Z</time>
      </trkpt>
      <trkpt lat="45.97622" lon="4.8095">
        <ele>233</ele>
        <time>2017-03-29T08:51:54Z</time>
      </trkpt>
      <trkpt lat="45.97626" lon="4.80946">
        <ele>233</ele>
        <time>2017-03-29T08:51:55Z</time>
      </trkpt>
      <trkpt lat="45.97633" lon="4.8094">
        <ele>233</ele>
        <time>2017-03-29T08:51:57Z</time>
      </trkpt>
      <trkpt lat="45.97636" lon="4.80937">
        <ele>233</ele>
        <time>2017-03-29T08:51:58Z</time>
      </trkpt>
      <trkpt lat="45.9764" lon="4.80934">
        <ele>233</ele>
        <time>2017-03-29T08:51:59Z</time>
      </trkpt>
      <trkpt lat="45.97644" lon="4.80931">
        <ele>233</ele>
        <time>2017-03-29T08:52:00Z</time>
      </trkpt>
      <trkpt lat="45.97649" lon="4.80928">
        <ele>233</ele>
        <time>2017-03-29T08:52:01Z</time>
      </trkpt>
      <trkpt lat="45.97653" lon="4.80926">
        <ele>233</ele>
        <time>2017-03-29T08:52:02Z</time>
      </trkpt>
      <trkpt lat="45.97658" lon="4.80924">
        <ele>233</ele>
        <time>2017-03-29T08:52:03Z</time>
      </trkpt>
      <trkpt lat="45.97663" lon="4.80922">
        <ele>233</ele>
        <time>2017-03-29T08:52:04Z</time>
      </trkpt>
      <trkpt lat="45.97667" lon="4.80919">
        <ele>233</ele>
        <time>2017-03-29T08:52:05Z</time>
      </trkpt>
      <trkpt lat="45.97671" lon="4.80917">
        <ele>233</ele>
        <time>2017-03-29T08:52:06Z</time>
      </trkpt>
      <trkpt lat="45.97679" lon="4.80913">
        <ele>233</ele>
        <time>2017-03-29T08:52:08Z</time>
      </trkpt>
      <trkpt lat="45.97684" lon="4.80911">
        <ele>233</ele>
        <time>2017-03-29T08:52:09Z</time>
      </trkpt>
      <trkpt lat="45.97689" lon="4.80909">
        <ele>234</ele>
        <time>2017-03-29T08:52:10Z</time>
      </trkpt>
      <trkpt lat="45.97694" lon="4.80908">
        <ele>234</ele>
        <time>2017-03-29T08:52:11Z</time>
      </trkpt>
      <trkpt lat="45.97698" lon="4.80906">
        <ele>234</ele>
        <time>2017-03-29T08:52:12Z</time>
      </trkpt>
      <trkpt lat="45.97703" lon="4.80903">
        <ele>234</ele>
        <time>2017-03-29T08:52:13Z</time>
      </trkpt>
      <trkpt lat="45.97707" lon="4.809">
        <ele>234</ele>
        <time>2017-03-29T08:52:14Z</time>
      </trkpt>
      <trkpt lat="45.97711" lon="4.80898">
        <ele>234</ele>
        <time>2017-03-29T08:52:15Z</time>
      </trkpt>
      <trkpt lat="45.97719" lon="4.80891">
        <ele>234</ele>
        <time>2017-03-29T08:52:17Z</time>
      </trkpt>
      <trkpt lat="45.97723" lon="4.80889">
        <ele>234</ele>
        <time>2017-03-29T08:52:18Z</time>
      </trkpt>
      <trkpt lat="45.97731" lon="4.80884">
        <ele>234</ele>
        <time>2017-03-29T08:52:20Z</time>
      </trkpt>
      <trkpt lat="45.97735" lon="4.80881">
        <ele>234</ele>
        <time>2017-03-29T08:52:21Z</time>
      </trkpt>
      <trkpt lat="45.97742" lon="4.80874">
        <ele>234</ele>
        <time>2017-03-29T08:52:23Z</time>
      </trkpt>
      <trkpt lat="45.97745" lon="4.80871">
        <ele>234</ele>
        <time>2017-03-29T08:52:24Z</time>
      </trkpt>
      <trkpt lat="45.97753" lon="4.80865">
        <ele>236</ele>
        <time>2017-03-29T08:52:26Z</time>
      </trkpt>
      <trkpt lat="45.97756" lon="4.80862">
        <ele>236</ele>
        <time>2017-03-29T08:52:27Z</time>
      </trkpt>
      <trkpt lat="45.97763" lon="4.80857">
        <ele>236</ele>
        <time>2017-03-29T08:52:29Z</time>
      </trkpt>
      <trkpt lat="45.97767" lon="4.80855">
        <ele>236</ele>
        <time>2017-03-29T08:52:30Z</time>
      </trkpt>
      <trkpt lat="45.97774" lon="4.80849">
        <ele>236</ele>
        <time>2017-03-29T08:52:32Z</time>
      </trkpt>
      <trkpt lat="45.97778" lon="4.80846">
        <ele>236</ele>
        <time>2017-03-29T08:52:33Z</time>
      </trkpt>
      <trkpt lat="45.97785" lon="4.8084">
        <ele>236</ele>
        <time>2017-03-29T08:52:35Z</time>
      </trkpt>
      <trkpt lat="45.97789" lon="4.80837">
        <ele>236</ele>
        <time>2017-03-29T08:52:36Z</time>
      </trkpt>
      <trkpt lat="45.97795" lon="4.8083">
        <ele>235</ele>
        <time>2017-03-29T08:52:38Z</time>
      </trkpt>
      <trkpt lat="45.97798" lon="4.80827">
        <ele>235</ele>
        <time>2017-03-29T08:52:39Z</time>
      </trkpt>
      <trkpt lat="45.97804" lon="4.8082">
        <ele>236</ele>
        <time>2017-03-29T08:52:41Z</time>
      </trkpt>
      <trkpt lat="45.97807" lon="4.80818">
        <ele>236</ele>
        <time>2017-03-29T08:52:42Z</time>
      </trkpt>
      <trkpt lat="45.97814" lon="4.80814">
        <ele>236</ele>
        <time>2017-03-29T08:52:44Z</time>
      </trkpt>
      <trkpt lat="45.97818" lon="4.80812">
        <ele>236</ele>
        <time>2017-03-29T08:52:45Z</time>
      </trkpt>
      <trkpt lat="45.97822" lon="4.8081">
        <ele>236</ele>
        <time>2017-03-29T08:52:46Z</time>
      </trkpt>
      <trkpt lat="45.97827" lon="4.80807">
        <ele>236</ele>
        <time>2017-03-29T08:52:47Z</time>
      </trkpt>
      <trkpt lat="45.97831" lon="4.80803">
        <ele>236</ele>
        <time>2017-03-29T08:52:48Z</time>
      </trkpt>
      <trkpt lat="45.97836" lon="4.80799">
        <ele>237</ele>
        <time>2017-03-29T08:52:49Z</time>
      </trkpt>
      <trkpt lat="45.9784" lon="4.80794">
        <ele>237</ele>
        <time>2017-03-29T08:52:50Z</time>
      </trkpt>
      <trkpt lat="45.97845" lon="4.8079">
        <ele>236</ele>
        <time>2017-03-29T08:52:51Z</time>
      </trkpt>
      <trkpt lat="45.97849" lon="4.80786">
        <ele>236</ele>
        <time>2017-03-29T08:52:52Z</time>
      </trkpt>
      <trkpt lat="45.97853" lon="4.80783">
        <ele>236</ele>
        <time>2017-03-29T08:52:53Z</time>
      </trkpt>
      <trkpt lat="45.97857" lon="4.8078">
        <ele>236</ele>
        <time>2017-03-29T08:52:54Z</time>
      </trkpt>
      <trkpt lat="45.97861" lon="4.80777">
        <ele>236</ele>
        <time>2017-03-29T08:52:55Z</time>
      </trkpt>
      <trkpt lat="45.97866" lon="4.80774">
        <ele>236</ele>
        <time>2017-03-29T08:52:56Z</time>
      </trkpt>
      <trkpt lat="45.9787" lon="4.80771">
        <ele>236</ele>
        <time>2017-03-29T08:52:57Z</time>
      </trkpt>
      <trkpt lat="45.97874" lon="4.80768">
        <ele>236</ele>
        <time>2017-03-29T08:52:58Z</time>
      </trkpt>
      <trkpt lat="45.97879" lon="4.80764">
        <ele>236</ele>
        <time>2017-03-29T08:52:59Z</time>
      </trkpt>
      <trkpt lat="45.97883" lon="4.80761">
        <ele>236</ele>
        <time>2017-03-29T08:53:00Z</time>
      </trkpt>
      <trkpt lat="45.97888" lon="4.80758">
        <ele>236</ele>
        <time>2017-03-29T08:53:01Z</time>
      </trkpt>
      <trkpt lat="45.97893" lon="4.80755">
        <ele>236</ele>
        <time>2017-03-29T08:53:02Z</time>
      </trkpt>
      <trkpt lat="45.97898" lon="4.80753">
        <ele>236</ele>
        <time>2017-03-29T08:53:03Z</time>
      </trkpt>
      <trkpt lat="45.97903" lon="4.8075">
        <ele>236</ele>
        <time>2017-03-29T08:53:04Z</time>
      </trkpt>
      <trkpt lat="45.97908" lon="4.80747">
        <ele>236</ele>
        <time>2017-03-29T08:53:05Z</time>
      </trkpt>
      <trkpt lat="45.97913" lon="4.80745">
        <ele>236</ele>
        <time>2017-03-29T08:53:06Z</time>
      </trkpt>
      <trkpt lat="45.97918" lon="4.80743">
        <ele>235</ele>
        <time>2017-03-29T08:53:07Z</time>
      </trkpt>
      <trkpt lat="45.97924" lon="4.80741">
        <ele>235</ele>
        <time>2017-03-29T08:53:08Z</time>
      </trkpt>
      <trkpt lat="45.97929" lon="4.80737">
        <ele>235</ele>
        <time>2017-03-29T08:53:09Z</time>
      </trkpt>
      <trkpt lat="45.97934" lon="4.80735">
        <ele>235</ele>
        <time>2017-03-29T08:53:10Z</time>
      </trkpt>
      <trkpt lat="45.9794" lon="4.80733">
        <ele>235</ele>
        <time>2017-03-29T08:53:11Z</time>
      </trkpt>
      <trkpt lat="45.97945" lon="4.80732">
        <ele>234</ele>
        <time>2017-03-29T08:53:12Z</time>
      </trkpt>
      <trkpt lat="45.97951" lon="4.80729">
        <ele>234</ele>
        <time>2017-03-29T08:53:13Z</time>
      </trkpt>
      <trkpt lat="45.97956" lon="4.80727">
        <ele>234</ele>
        <time>2017-03-29T08:53:14Z</time>
      </trkpt>
      <trkpt lat="45.97962" lon="4.80725">
        <ele>234</ele>
        <time>2017-03-29T08:53:15Z</time>
      </trkpt>
      <trkpt lat="45.97968" lon="4.80723">
        <ele>234</ele>
        <time>2017-03-29T08:53:16Z</time>
      </trkpt>
      <trkpt lat="45.97974" lon="4.80721">
        <ele>233</ele>
        <time>2017-03-29T08:53:17Z</time>
      </trkpt>
      <trkpt lat="45.97979" lon="4.80718">
        <ele>233</ele>
        <time>2017-03-29T08:53:18Z</time>
      </trkpt>
      <trkpt lat="45.97985" lon="4.80716">
        <ele>233</ele>
        <time>2017-03-29T08:53:19Z</time>
      </trkpt>
      <trkpt lat="45.97991" lon="4.80713">
        <ele>233</ele>
        <time>2017-03-29T08:53:20Z</time>
      </trkpt>
      <trkpt lat="45.97997" lon="4.80711">
        <ele>233</ele>
        <time>2017-03-29T08:53:21Z</time>
      </trkpt>
      <trkpt lat="45.98003" lon="4.80709">
        <ele>231</ele>
        <time>2017-03-29T08:53:22Z</time>
      </trkpt>
      <trkpt lat="45.98009" lon="4.80707">
        <ele>231</ele>
        <time>2017-03-29T08:53:23Z</time>
      </trkpt>
      <trkpt lat="45.98014" lon="4.80706">
        <ele>231</ele>
        <time>2017-03-29T08:53:24Z</time>
      </trkpt>
      <trkpt lat="45.98019" lon="4.80707">
        <ele>231</ele>
        <time>2017-03-29T08:53:25Z</time>
      </trkpt>
      <trkpt lat="45.98024" lon="4.80709">
        <ele>231</ele>
        <time>2017-03-29T08:53:26Z</time>
      </trkpt>
      <trkpt lat="45.98027" lon="4.80712">
        <ele>231</ele>
        <time>2017-03-29T08:53:27Z</time>
      </trkpt>
      <trkpt lat="45.98032" lon="4.8072">
        <ele>231</ele>
        <time>2017-03-29T08:53:29Z</time>
      </trkpt>
      <trkpt lat="45.98033" lon="4.80723">
        <ele>231</ele>
        <time>2017-03-29T08:53:30Z</time>
      </trkpt>
      <trkpt lat="45.98035" lon="4.80736">
        <ele>231</ele>
        <time>2017-03-29T08:53:33Z</time>
      </trkpt>
      <trkpt lat="45.98035" lon="4.8074">
        <ele>231</ele>
        <time>2017-03-29T08:53:34Z</time>
      </trkpt>
      <trkpt lat="45.98037" lon="4.80749">
        <ele>231</ele>
        <time>2017-03-29T08:53:36Z</time>
      </trkpt>
      <trkpt lat="45.98038" lon="4.80754">
        <ele>233</ele>
        <time>2017-03-29T08:53:37Z</time>
      </trkpt>
      <trkpt lat="45.98041" lon="4.80764">
        <ele>233</ele>
        <time>2017-03-29T08:53:39Z</time>
      </trkpt>
      <trkpt lat="45.98043" lon="4.80769">
        <ele>233</ele>
        <time>2017-03-29T08:53:40Z</time>
      </trkpt>
      <trkpt lat="45.98045" lon="4.80778">
        <ele>233</ele>
        <time>2017-03-29T08:53:42Z</time>
      </trkpt>
      <trkpt lat="45.98045" lon="4.80783">
        <ele>233</ele>
        <time>2017-03-29T08:53:43Z</time>
      </trkpt>
      <trkpt lat="45.98045" lon="4.80792">
        <ele>233</ele>
        <time>2017-03-29T08:53:45Z</time>
      </trkpt>
      <trkpt lat="45.98046" lon="4.80797">
        <ele>234</ele>
        <time>2017-03-29T08:53:46Z</time>
      </trkpt>
      <trkpt lat="45.98049" lon="4.80805">
        <ele>234</ele>
        <time>2017-03-29T08:53:48Z</time>
      </trkpt>
      <trkpt lat="45.9805" lon="4.80809">
        <ele>234</ele>
        <time>2017-03-29T08:53:49Z</time>
      </trkpt>
      <trkpt lat="45.98053" lon="4.80821">
        <ele>234</ele>
        <time>2017-03-29T08:53:52Z</time>
      </trkpt>
      <trkpt lat="45.98054" lon="4.80825">
        <ele>234</ele>
        <time>2017-03-29T08:53:53Z</time>
      </trkpt>
      <trkpt lat="45.98058" lon="4.80837">
        <ele>236</ele>
        <time>2017-03-29T08:53:56Z</time>
      </trkpt>
      <trkpt lat="45.98059" lon="4.8084">
        <ele>236</ele>
        <time>2017-03-29T08:53:57Z</time>
      </trkpt>
      <trkpt lat="45.9806" lon="4.80849">
        <ele>236</ele>
        <time>2017-03-29T08:53:59Z</time>
      </trkpt>
      <trkpt lat="45.98061" lon="4.80853">
        <ele>236</ele>
        <time>2017-03-29T08:54:00Z</time>
      </trkpt>
      <trkpt lat="45.98065" lon="4.80865">
        <ele>237</ele>
        <time>2017-03-29T08:54:03Z</time>
      </trkpt>
      <trkpt lat="45.98066" lon="4.80868">
        <ele>237</ele>
        <time>2017-03-29T08:54:04Z</time>
      </trkpt>
      <trkpt lat="45.98068" lon="4.8088">
        <ele>237</ele>
        <time>2017-03-29T08:54:07Z</time>
      </trkpt>
      <trkpt lat="45.98069" lon="4.80884">
        <ele>237</ele>
        <time>2017-03-29T08:54:08Z</time>
      </trkpt>
      <trkpt lat="45.9807" lon="4.80892">
        <ele>238</ele>
        <time>2017-03-29T08:54:10Z</time>
      </trkpt>
      <trkpt lat="45.98072" lon="4.80896">
        <ele>238</ele>
        <time>2017-03-29T08:54:11Z</time>
      </trkpt>
      <trkpt lat="45.98075" lon="4.80906">
        <ele>238</ele>
        <time>2017-03-29T08:54:14Z</time>
      </trkpt>
      <trkpt lat="45.98075" lon="4.80909">
        <ele>238</ele>
        <time>2017-03-29T08:54:15Z</time>
      </trkpt>
      <trkpt lat="45.98076" lon="4.8092">
        <ele>240</ele>
        <time>2017-03-29T08:54:18Z</time>
      </trkpt>
      <trkpt lat="45.98076" lon="4.80924">
        <ele>240</ele>
        <time>2017-03-29T08:54:19Z</time>
      </trkpt>
      <trkpt lat="45.9808" lon="4.80936">
        <ele>240</ele>
        <time>2017-03-29T08:54:22Z</time>
      </trkpt>
      <trkpt lat="45.98081" lon="4.8094">
        <ele>240</ele>
        <time>2017-03-29T08:54:23Z</time>
      </trkpt>
      <trkpt lat="45.98084" lon="4.80952">
        <ele>238</ele>
        <time>2017-03-29T08:54:26Z</time>
      </trkpt>
      <trkpt lat="45.98084" lon="4.80955">
        <ele>239</ele>
        <time>2017-03-29T08:54:27Z</time>
      </trkpt>
      <trkpt lat="45.98087" lon="4.80966">
        <ele>239</ele>
        <time>2017-03-29T08:54:30Z</time>
      </trkpt>
      <trkpt lat="45.98088" lon="4.80969">
        <ele>239</ele>
        <time>2017-03-29T08:54:31Z</time>
      </trkpt>
      <trkpt lat="45.98091" lon="4.8098">
        <ele>240</ele>
        <time>2017-03-29T08:54:34Z</time>
      </trkpt>
      <trkpt lat="45.98092" lon="4.80983">
        <ele>240</ele>
        <time>2017-03-29T08:54:35Z</time>
      </trkpt>
      <trkpt lat="45.98095" lon="4.80992">
        <ele>240</ele>
        <time>2017-03-29T08:54:38Z</time>
      </trkpt>
      <trkpt lat="45.98097" lon="4.80996">
        <ele>240</ele>
        <time>2017-03-29T08:54:39Z</time>
      </trkpt>
      <trkpt lat="45.981" lon="4.81005">
        <ele>242</ele>
        <time>2017-03-29T08:54:41Z</time>
      </trkpt>
      <trkpt lat="45.98102" lon="4.8101">
        <ele>242</ele>
        <time>2017-03-29T08:54:42Z</time>
      </trkpt>
      <trkpt lat="45.98105" lon="4.8102">
        <ele>242</ele>
        <time>2017-03-29T08:54:44Z</time>
      </trkpt>
      <trkpt lat="45.98107" lon="4.81024">
        <ele>242</ele>
        <time>2017-03-29T08:54:45Z</time>
      </trkpt>
      <trkpt lat="45.98111" lon="4.81033">
        <ele>242</ele>
        <time>2017-03-29T08:54:47Z</time>
      </trkpt>
      <trkpt lat="45.98112" lon="4.81038">
        <ele>242</ele>
        <time>2017-03-29T08:54:48Z</time>
      </trkpt>
      <trkpt lat="45.98115" lon="4.81048">
        <ele>243</ele>
        <time>2017-03-29T08:54:50Z</time>
      </trkpt>
      <trkpt lat="45.98117" lon="4.81053">
        <ele>243</ele>
        <time>2017-03-29T08:54:51Z</time>
      </trkpt>
      <trkpt lat="45.9812" lon="4.81063">
        <ele>243</ele>
        <time>2017-03-29T08:54:53Z</time>
      </trkpt>
      <trkpt lat="45.98122" lon="4.81067">
        <ele>243</ele>
        <time>2017-03-29T08:54:54Z</time>
      </trkpt>
      <trkpt lat="45.98125" lon="4.81078">
        <ele>243</ele>
        <time>2017-03-29T08:54:56Z</time>
      </trkpt>
      <trkpt lat="45.98127" lon="4.81083">
        <ele>243</ele>
        <time>2017-03-29T08:54:57Z</time>
      </trkpt>
      <trkpt lat="45.98131" lon="4.81092">
        <ele>245</ele>
        <time>2017-03-29T08:54:59Z</time>
      </trkpt>
      <trkpt lat="45.98133" lon="4.81097">
        <ele>245</ele>
        <time>2017-03-29T08:55:00Z</time>
      </trkpt>
      <trkpt lat="45.98137" lon="4.81108">
        <ele>245</ele>
        <time>2017-03-29T08:55:02Z</time>
      </trkpt>
      <trkpt lat="45.98139" lon="4.81112">
        <ele>245</ele>
        <time>2017-03-29T08:55:03Z</time>
      </trkpt>
      <trkpt lat="45.98143" lon="4.81122">
        <ele>245</ele>
        <time>2017-03-29T08:55:05Z</time>
      </trkpt>
      <trkpt lat="45.98145" lon="4.81128">
        <ele>245</ele>
        <time>2017-03-29T08:55:06Z</time>
      </trkpt>
      <trkpt lat="45.98149" lon="4.81138">
        <ele>245</ele>
        <time>2017-03-29T08:55:08Z</time>
      </trkpt>
      <trkpt lat="45.98152" lon="4.81142">
        <ele>245</ele>
        <time>2017-03-29T08:55:09Z</time>
      </trkpt>
      <trkpt lat="45.98156" lon="4.81153">
        <ele>245</ele>
        <time>2017-03-29T08:55:11Z</time>
      </trkpt>
      <trkpt lat="45.98158" lon="4.81159">
        <ele>245</ele>
        <time>2017-03-29T08:55:12Z</time>
      </trkpt>
      <trkpt lat="45.9816" lon="4.81169">
        <ele>245</ele>
        <time>2017-03-29T08:55:14Z</time>
      </trkpt>
      <trkpt lat="45.98162" lon="4.81174">
        <ele>246</ele>
        <time>2017-03-29T08:55:15Z</time>
      </trkpt>
      <trkpt lat="45.98164" lon="4.81184">
        <ele>246</ele>
        <time>2017-03-29T08:55:17Z</time>
      </trkpt>
      <trkpt lat="45.98164" lon="4.8119">
        <ele>246</ele>
        <time>2017-03-29T08:55:18Z</time>
      </trkpt>
      <trkpt lat="45.98166" lon="4.81201">
        <ele>246</ele>
        <time>2017-03-29T08:55:20Z</time>
      </trkpt>
      <trkpt lat="45.98166" lon="4.81207">
        <ele>247</ele>
        <time>2017-03-29T08:55:21Z</time>
      </trkpt>
      <trkpt lat="45.98168" lon="4.81218">
        <ele>246</ele>
        <time>2017-03-29T08:55:23Z</time>
      </trkpt>
      <trkpt lat="45.98168" lon="4.81223">
        <ele>246</ele>
        <time>2017-03-29T08:55:24Z</time>
      </trkpt>
      <trkpt lat="45.9817" lon="4.81233">
        <ele>246</ele>
        <time>2017-03-29T08:55:26Z</time>
      </trkpt>
      <trkpt lat="45.98171" lon="4.81238">
        <ele>247</ele>
        <time>2017-03-29T08:55:27Z</time>
      </trkpt>
      <trkpt lat="45.98172" lon="4.81247">
        <ele>247</ele>
        <time>2017-03-29T08:55:29Z</time>
      </trkpt>
      <trkpt lat="45.98173" lon="4.81252">
        <ele>248</ele>
        <time>2017-03-29T08:55:30Z</time>
      </trkpt>
      <trkpt lat="45.98176" lon="4.81264">
        <ele>247</ele>
        <time>2017-03-29T08:55:32Z</time>
      </trkpt>
      <trkpt lat="45.98177" lon="4.8127">
        <ele>247</ele>
        <time>2017-03-29T08:55:33Z</time>
      </trkpt>
      <trkpt lat="45.98178" lon="4.81282">
        <ele>247</ele>
        <time>2017-03-29T08:55:35Z</time>
      </trkpt>
      <trkpt lat="45.98179" lon="4.81287">
        <ele>247</ele>
        <time>2017-03-29T08:55:36Z</time>
      </trkpt>
      <trkpt lat="45.9818" lon="4.81298">
        <ele>247</ele>
        <time>2017-03-29T08:55:38Z</time>
      </trkpt>
      <trkpt lat="45.98182" lon="4.81303">
        <ele>247</ele>
        <time>2017-03-29T08:55:39Z</time>
      </trkpt>
      <trkpt lat="45.98185" lon="4.81314">
        <ele>247</ele>
        <time>2017-03-29T08:55:41Z</time>
      </trkpt>
      <trkpt lat="45.98186" lon="4.81319">
        <ele>247</ele>
        <time>2017-03-29T08:55:42Z</time>
      </trkpt>
      <trkpt lat="45.98189" lon="4.81329">
        <ele>247</ele>
        <time>2017-03-29T08:55:44Z</time>
      </trkpt>
      <trkpt lat="45.9819" lon="4.81335">
        <ele>248</ele>
        <time>2017-03-29T08:55:45Z</time>
      </trkpt>
      <trkpt lat="45.98192" lon="4.81346">
        <ele>248</ele>
        <time>2017-03-29T08:55:47Z</time>
      </trkpt>
      <trkpt lat="45.98193" lon="4.81351">
        <ele>248</ele>
        <time>2017-03-29T08:55:48Z</time>
      </trkpt>
      <trkpt lat="45.98196" lon="4.81362">
        <ele>248</ele>
        <time>2017-03-29T08:55:50Z</time>
      </trkpt>
      <trkpt lat="45.98197" lon="4.81367">
        <ele>248</ele>
        <time>2017-03-29T08:55:51Z</time>
      </trkpt>
      <trkpt lat="45.982" lon="4.81377">
        <ele>248</ele>
        <time>2017-03-29T08:55:53Z</time>
      </trkpt>
      <trkpt lat="45.98201" lon="4.81382">
        <ele>248</ele>
        <time>2017-03-29T08:55:54Z</time>
      </trkpt>
      <trkpt lat="45.98204" lon="4.81391">
        <ele>248</ele>
        <time>2017-03-29T08:55:56Z</time>
      </trkpt>
      <trkpt lat="45.98206" lon="4.81395">
        <ele>248</ele>
        <time>2017-03-29T08:55:57Z</time>
      </trkpt>
      <trkpt lat="45.98209" lon="4.81405">
        <ele>248</ele>
        <time>2017-03-29T08:55:59Z</time>
      </trkpt>
      <trkpt lat="45.9821" lon="4.8141">
        <ele>248</ele>
        <time>2017-03-29T08:56:00Z</time>
      </trkpt>
      <trkpt lat="45.98213" lon="4.81421">
        <ele>249</ele>
        <time>2017-03-29T08:56:02Z</time>
      </trkpt>
      <trkpt lat="45.98215" lon="4.81426">
        <ele>249</ele>
        <time>2017-03-29T08:56:03Z</time>
      </trkpt>
      <trkpt lat="45.98219" lon="4.81437">
        <ele>249</ele>
        <time>2017-03-29T08:56:05Z</time>
      </trkpt>
      <trkpt lat="45.9822" lon="4.81443">
        <ele>249</ele>
        <time>2017-03-29T08:56:06Z</time>
      </trkpt>
      <trkpt lat="45.98224" lon="4.81453">
        <ele>249</ele>
        <time>2017-03-29T08:56:08Z</time>
      </trkpt>
      <trkpt lat="45.98226" lon="4.81459">
        <ele>249</ele>
        <time>2017-03-29T08:56:09Z</time>
      </trkpt>
      <trkpt lat="45.98229" lon="4.8147">
        <ele>249</ele>
        <time>2017-03-29T08:56:11Z</time>
      </trkpt>
      <trkpt lat="45.98231" lon="4.81476">
        <ele>249</ele>
        <time>2017-03-29T08:56:12Z</time>
      </trkpt>
      <trkpt lat="45.98233" lon="4.81482">
        <ele>249</ele>
        <time>2017-03-29T08:56:13Z</time>
      </trkpt>
      <trkpt lat="45.98236" lon="4.81488">
        <ele>249</ele>
        <time>2017-03-29T08:56:14Z</time>
      </trkpt>
      <trkpt lat="45.98238" lon="4.81494">
        <ele>249</ele>
        <time>2017-03-29T08:56:15Z</time>
      </trkpt>
      <trkpt lat="45.9824" lon="4.81501">
        <ele>249</ele>
        <time>2017-03-29T08:56:16Z</time>
      </trkpt>
      <trkpt lat="45.98243" lon="4.81509">
        <ele>249</ele>
        <time>2017-03-29T08:56:17Z</time>
      </trkpt>
      <trkpt lat="45.98245" lon="4.81516">
        <ele>249</ele>
        <time>2017-03-29T08:56:18Z</time>
      </trkpt>
      <trkpt lat="45.98248" lon="4.81523">
        <ele>249</ele>
        <time>2017-03-29T08:56:19Z</time>
      </trkpt>
      <trkpt lat="45.9825" lon="4.8153">
        <ele>247</ele>
        <time>2017-03-29T08:56:20Z</time>
      </trkpt>
      <trkpt lat="45.98252" lon="4.81537">
        <ele>247</ele>
        <time>2017-03-29T08:56:21Z</time>
      </trkpt>
      <trkpt lat="45.98255" lon="4.81543">
        <ele>247</ele>
        <time>2017-03-29T08:56:22Z</time>
      </trkpt>
      <trkpt lat="45.98257" lon="4.8155">
        <ele>247</ele>
        <time>2017-03-29T08:56:23Z</time>
      </trkpt>
      <trkpt lat="45.98259" lon="4.81556">
        <ele>247</ele>
        <time>2017-03-29T08:56:24Z</time>
      </trkpt>
      <trkpt lat="45.98261" lon="4.81562">
        <ele>247</ele>
        <time>2017-03-29T08:56:25Z</time>
      </trkpt>
      <trkpt lat="45.98263" lon="4.81569">
        <ele>247</ele>
        <time>2017-03-29T08:56:26Z</time>
      </trkpt>
      <trkpt lat="45.98265" lon="4.81575">
        <ele>247</ele>
        <time>2017-03-29T08:56:27Z</time>
      </trkpt>
      <trkpt lat="45.98266" lon="4.81581">
        <ele>247</ele>
        <time>2017-03-29T08:56:28Z</time>
      </trkpt>
      <trkpt lat="45.98269" lon="4.81587">
        <ele>247</ele>
        <time>2017-03-29T08:56:29Z</time>
      </trkpt>
      <trkpt lat="45.98271" lon="4.81593">
        <ele>247</ele>
        <time>2017-03-29T08:56:30Z</time>
      </trkpt>
      <trkpt lat="45.98273" lon="4.81599">
        <ele>247</ele>
        <time>2017-03-29T08:56:31Z</time>
      </trkpt>
      <trkpt lat="45.98275" lon="4.81605">
        <ele>247</ele>
        <time>2017-03-29T08:56:32Z</time>
      </trkpt>
      <trkpt lat="45.98277" lon="4.81611">
        <ele>247</ele>
        <time>2017-03-29T08:56:33Z</time>
      </trkpt>
      <trkpt lat="45.9828" lon="4.81617">
        <ele>247</ele>
        <time>2017-03-29T08:56:34Z</time>
      </trkpt>
      <trkpt lat="45.98283" lon="4.81623">
        <ele>247</ele>
        <time>2017-03-29T08:56:35Z</time>
      </trkpt>
      <trkpt lat="45.98286" lon="4.81628">
        <ele>247</ele>
        <time>2017-03-29T08:56:36Z</time>
      </trkpt>
      <trkpt lat="45.9829" lon="4.81632">
        <ele>247</ele>
        <time>2017-03-29T08:56:37Z</time>
      </trkpt>
      <trkpt lat="45.98293" lon="4.81637">
        <ele>247</ele>
        <time>2017-03-29T08:56:38Z</time>
      </trkpt>
      <trkpt lat="45.98297" lon="4.81641">
        <ele>247</ele>
        <time>2017-03-29T08:56:39Z</time>
      </trkpt>
      <trkpt lat="45.983" lon="4.81644">
        <ele>247</ele>
        <time>2017-03-29T08:56:40Z</time>
      </trkpt>
      <trkpt lat="45.98308" lon="4.8165">
        <ele>246</ele>
        <time>2017-03-29T08:56:42Z</time>
      </trkpt>
      <trkpt lat="45.98311" lon="4.81653">
        <ele>246</ele>
        <time>2017-03-29T08:56:43Z</time>
      </trkpt>
      <trkpt lat="45.98315" lon="4.81656">
        <ele>246</ele>
        <time>2017-03-29T08:56:44Z</time>
      </trkpt>
      <trkpt lat="45.9832" lon="4.8166">
        <ele>246</ele>
        <time>2017-03-29T08:56:45Z</time>
      </trkpt>
      <trkpt lat="45.98324" lon="4.81663">
        <ele>246</ele>
        <time>2017-03-29T08:56:46Z</time>
      </trkpt>
      <trkpt lat="45.98329" lon="4.81666">
        <ele>246</ele>
        <time>2017-03-29T08:56:47Z</time>
      </trkpt>
      <trkpt lat="45.98334" lon="4.81669">
        <ele>246</ele>
        <time>2017-03-29T08:56:48Z</time>
      </trkpt>
      <trkpt lat="45.98339" lon="4.81671">
        <ele>246</ele>
        <time>2017-03-29T08:56:49Z</time>
      </trkpt>
      <trkpt lat="45.98344" lon="4.81672">
        <ele>245</ele>
        <time>2017-03-29T08:56:50Z</time>
      </trkpt>
      <trkpt lat="45.98349" lon="4.81674">
        <ele>245</ele>
        <time>2017-03-29T08:56:51Z</time>
      </trkpt>
      <trkpt lat="45.98354" lon="4.81675">
        <ele>245</ele>
        <time>2017-03-29T08:56:52Z</time>
      </trkpt>
      <trkpt lat="45.98359" lon="4.81676">
        <ele>244</ele>
        <time>2017-03-29T08:56:53Z</time>
      </trkpt>
      <trkpt lat="45.98365" lon="4.81675">
        <ele>244</ele>
        <time>2017-03-29T08:56:54Z</time>
      </trkpt>
      <trkpt lat="45.9837" lon="4.81674">
        <ele>244</ele>
        <time>2017-03-29T08:56:55Z</time>
      </trkpt>
      <trkpt lat="45.98375" lon="4.81673">
        <ele>244</ele>
        <time>2017-03-29T08:56:56Z</time>
      </trkpt>
      <trkpt lat="45.9838" lon="4.81672">
        <ele>244</ele>
        <time>2017-03-29T08:56:57Z</time>
      </trkpt>
      <trkpt lat="45.98385" lon="4.81671">
        <ele>243</ele>
        <time>2017-03-29T08:56:58Z</time>
      </trkpt>
      <trkpt lat="45.9839" lon="4.81669">
        <ele>243</ele>
        <time>2017-03-29T08:56:59Z</time>
      </trkpt>
      <trkpt lat="45.98394" lon="4.81668">
        <ele>243</ele>
        <time>2017-03-29T08:57:00Z</time>
      </trkpt>
      <trkpt lat="45.98399" lon="4.81667">
        <ele>242</ele>
        <time>2017-03-29T08:57:01Z</time>
      </trkpt>
      <trkpt lat="45.98404" lon="4.81665">
        <ele>241</ele>
        <time>2017-03-29T08:57:02Z</time>
      </trkpt>
      <trkpt lat="45.98408" lon="4.81664">
        <ele>241</ele>
        <time>2017-03-29T08:57:03Z</time>
      </trkpt>
      <trkpt lat="45.98413" lon="4.81664">
        <ele>241</ele>
        <time>2017-03-29T08:57:04Z</time>
      </trkpt>
      <trkpt lat="45.98418" lon="4.81664">
        <ele>241</ele>
        <time>2017-03-29T08:57:05Z</time>
      </trkpt>
      <trkpt lat="45.98423" lon="4.81665">
        <ele>240</ele>
        <time>2017-03-29T08:57:06Z</time>
      </trkpt>
      <trkpt lat="45.98428" lon="4.81667">
        <ele>240</ele>
        <time>2017-03-29T08:57:07Z</time>
      </trkpt>
      <trkpt lat="45.98433" lon="4.8167">
        <ele>240</ele>
        <time>2017-03-29T08:57:08Z</time>
      </trkpt>
      <trkpt lat="45.98438" lon="4.81674">
        <ele>240</ele>
        <time>2017-03-29T08:57:09Z</time>
      </trkpt>
      <trkpt lat="45.98443" lon="4.81679">
        <ele>239</ele>
        <time>2017-03-29T08:57:10Z</time>
      </trkpt>
      <trkpt lat="45.98446" lon="4.81684">
        <ele>239</ele>
        <time>2017-03-29T08:57:11Z</time>
      </trkpt>
      <trkpt lat="45.9845" lon="4.81691">
        <ele>239</ele>
        <time>2017-03-29T08:57:12Z</time>
      </trkpt>
      <trkpt lat="45.98453" lon="4.81697">
        <ele>239</ele>
        <time>2017-03-29T08:57:13Z</time>
      </trkpt>
      <trkpt lat="45.98457" lon="4.81704">
        <ele>239</ele>
        <time>2017-03-29T08:57:14Z</time>
      </trkpt>
      <trkpt lat="45.98461" lon="4.8171">
        <ele>239</ele>
        <time>2017-03-29T08:57:15Z</time>
      </trkpt>
      <trkpt lat="45.98465" lon="4.81717">
        <ele>239</ele>
        <time>2017-03-29T08:57:16Z</time>
      </trkpt>
      <trkpt lat="45.9847" lon="4.81724">
        <ele>239</ele>
        <time>2017-03-29T08:57:17Z</time>
      </trkpt>
      <trkpt lat="45.98475" lon="4.8173">
        <ele>239</ele>
        <time>2017-03-29T08:57:18Z</time>
      </trkpt>
      <trkpt lat="45.98481" lon="4.81736">
        <ele>238</ele>
        <time>2017-03-29T08:57:19Z</time>
      </trkpt>
      <trkpt lat="45.98487" lon="4.81742">
        <ele>238</ele>
        <time>2017-03-29T08:57:20Z</time>
      </trkpt>
      <trkpt lat="45.98493" lon="4.81748">
        <ele>238</ele>
        <time>2017-03-29T08:57:21Z</time>
      </trkpt>
      <trkpt lat="45.98499" lon="4.81755">
        <ele>238</ele>
        <time>2017-03-29T08:57:22Z</time>
      </trkpt>
      <trkpt lat="45.98505" lon="4.81763">
        <ele>237</ele>
        <time>2017-03-29T08:57:23Z</time>
      </trkpt>
      <trkpt lat="45.98511" lon="4.81771">
        <ele>238</ele>
        <time>2017-03-29T08:57:24Z</time>
      </trkpt>
      <trkpt lat="45.98517" lon="4.81779">
        <ele>238</ele>
        <time>2017-03-29T08:57:25Z</time>
      </trkpt>
      <trkpt lat="45.98522" lon="4.81787">
        <ele>238</ele>
        <time>2017-03-29T08:57:26Z</time>
      </trkpt>
      <trkpt lat="45.98527" lon="4.81795">
        <ele>238</ele>
        <time>2017-03-29T08:57:27Z</time>
      </trkpt>
      <trkpt lat="45.98533" lon="4.81802">
        <ele>238</ele>
        <time>2017-03-29T08:57:28Z</time>
      </trkpt>
      <trkpt lat="45.98539" lon="4.81807">
        <ele>238</ele>
        <time>2017-03-29T08:57:29Z</time>
      </trkpt>
      <trkpt lat="45.98545" lon="4.81809">
        <ele>238</ele>
        <time>2017-03-29T08:57:30Z</time>
      </trkpt>
      <trkpt lat="45.98551" lon="4.81808">
        <ele>238</ele>
        <time>2017-03-29T08:57:31Z</time>
      </trkpt>
      <trkpt lat="45.98557" lon="4.81805">
        <ele>238</ele>
        <time>2017-03-29T08:57:32Z</time>
      </trkpt>
      <trkpt lat="45.98562" lon="4.81801">
        <ele>238</ele>
        <time>2017-03-29T08:57:33Z</time>
      </trkpt>
      <trkpt lat="45.98566" lon="4.81795">
        <ele>238</ele>
        <time>2017-03-29T08:57:34Z</time>
      </trkpt>
      <trkpt lat="45.9857" lon="4.8179">
        <ele>238</ele>
        <time>2017-03-29T08:57:35Z</time>
      </trkpt>
      <trkpt lat="45.98574" lon="4.81784">
        <ele>238</ele>
        <time>2017-03-29T08:57:36Z</time>
      </trkpt>
      <trkpt lat="45.98577" lon="4.8178">
        <ele>238</ele>
        <time>2017-03-29T08:57:37Z</time>
      </trkpt>
      <trkpt lat="45.98581" lon="4.81775">
        <ele>237</ele>
        <time>2017-03-29T08:57:38Z</time>
      </trkpt>
      <trkpt lat="45.98586" lon="4.81772">
        <ele>238</ele>
        <time>2017-03-29T08:57:39Z</time>
      </trkpt>
      <trkpt lat="45.9859" lon="4.81769">
        <ele>238</ele>
        <time>2017-03-29T08:57:40Z</time>
      </trkpt>
      <trkpt lat="45.98595" lon="4.81766">
        <ele>238</ele>
        <time>2017-03-29T08:57:41Z</time>
      </trkpt>
      <trkpt lat="45.986" lon="4.81764">
        <ele>238</ele>
        <time>2017-03-29T08:57:42Z</time>
      </trkpt>
      <trkpt lat="45.98605" lon="4.81762">
        <ele>238</ele>
        <time>2017-03-29T08:57:43Z</time>
      </trkpt>
      <trkpt lat="45.9861" lon="4.81761">
        <ele>238</ele>
        <time>2017-03-29T08:57:44Z</time>
      </trkpt>
      <trkpt lat="45.98615" lon="4.8176">
        <ele>238</ele>
        <time>2017-03-29T08:57:45Z</time>
      </trkpt>
      <trkpt lat="45.9862" lon="4.81759">
        <ele>238</ele>
        <time>2017-03-29T08:57:46Z</time>
      </trkpt>
      <trkpt lat="45.98626" lon="4.81757">
        <ele>238</ele>
        <time>2017-03-29T08:57:47Z</time>
      </trkpt>
      <trkpt lat="45.98631" lon="4.81755">
        <ele>238</ele>
        <time>2017-03-29T08:57:48Z</time>
      </trkpt>
      <trkpt lat="45.98637" lon="4.81753">
        <ele>238</ele>
        <time>2017-03-29T08:57:49Z</time>
      </trkpt>
      <trkpt lat="45.98643" lon="4.81751">
        <ele>238</ele>
        <time>2017-03-29T08:57:50Z</time>
      </trkpt>
      <trkpt lat="45.98648" lon="4.81749">
        <ele>237</ele>
        <time>2017-03-29T08:57:51Z</time>
      </trkpt>
      <trkpt lat="45.98654" lon="4.81748">
        <ele>237</ele>
        <time>2017-03-29T08:57:52Z</time>
      </trkpt>
      <trkpt lat="45.98659" lon="4.81747">
        <ele>238</ele>
        <time>2017-03-29T08:57:53Z</time>
      </trkpt>
      <trkpt lat="45.98665" lon="4.81746">
        <ele>238</ele>
        <time>2017-03-29T08:57:54Z</time>
      </trkpt>
      <trkpt lat="45.9867" lon="4.81744">
        <ele>238</ele>
        <time>2017-03-29T08:57:55Z</time>
      </trkpt>
      <trkpt lat="45.98676" lon="4.81743">
        <ele>238</ele>
        <time>2017-03-29T08:57:56Z</time>
      </trkpt>
      <trkpt lat="45.9868" lon="4.81742">
        <ele>238</ele>
        <time>2017-03-29T08:57:57Z</time>
      </trkpt>
      <trkpt lat="45.98685" lon="4.81741">
        <ele>238</ele>
        <time>2017-03-29T08:57:58Z</time>
      </trkpt>
      <trkpt lat="45.9869" lon="4.8174">
        <ele>238</ele>
        <time>2017-03-29T08:57:59Z</time>
      </trkpt>
      <trkpt lat="45.98694" lon="4.81738">
        <ele>239</ele>
        <time>2017-03-29T08:58:00Z</time>
      </trkpt>
      <trkpt lat="45.98699" lon="4.81736">
        <ele>239</ele>
        <time>2017-03-29T08:58:01Z</time>
      </trkpt>
      <trkpt lat="45.98704" lon="4.81734">
        <ele>239</ele>
        <time>2017-03-29T08:58:02Z</time>
      </trkpt>
      <trkpt lat="45.98708" lon="4.81733">
        <ele>239</ele>
        <time>2017-03-29T08:58:03Z</time>
      </trkpt>
      <trkpt lat="45.98713" lon="4.81732">
        <ele>239</ele>
        <time>2017-03-29T08:58:04Z</time>
      </trkpt>
      <trkpt lat="45.98717" lon="4.81731">
        <ele>239</ele>
        <time>2017-03-29T08:58:05Z</time>
      </trkpt>
      <trkpt lat="45.98726" lon="4.81734">
        <ele>239</ele>
        <time>2017-03-29T08:58:07Z</time>
      </trkpt>
      <trkpt lat="45.9873" lon="4.81738">
        <ele>239</ele>
        <time>2017-03-29T08:58:08Z</time>
      </trkpt>
      <trkpt lat="45.98733" lon="4.81743">
        <ele>240</ele>
        <time>2017-03-29T08:58:09Z</time>
      </trkpt>
      <trkpt lat="45.98736" lon="4.81748">
        <ele>240</ele>
        <time>2017-03-29T08:58:10Z</time>
      </trkpt>
      <trkpt lat="45.98739" lon="4.81753">
        <ele>240</ele>
        <time>2017-03-29T08:58:11Z</time>
      </trkpt>
      <trkpt lat="45.98742" lon="4.81759">
        <ele>240</ele>
        <time>2017-03-29T08:58:12Z</time>
      </trkpt>
      <trkpt lat="45.98745" lon="4.81764">
        <ele>240</ele>
        <time>2017-03-29T08:58:13Z</time>
      </trkpt>
      <trkpt lat="45.98747" lon="4.81771">
        <ele>240</ele>
        <time>2017-03-29T08:58:14Z</time>
      </trkpt>
      <trkpt lat="45.98751" lon="4.81777">
        <ele>241</ele>
        <time>2017-03-29T08:58:15Z</time>
      </trkpt>
      <trkpt lat="45.98754" lon="4.81783">
        <ele>241</ele>
        <time>2017-03-29T08:58:16Z</time>
      </trkpt>
      <trkpt lat="45.98757" lon="4.81789">
        <ele>241</ele>
        <time>2017-03-29T08:58:17Z</time>
      </trkpt>
      <trkpt lat="45.9876" lon="4.81795">
        <ele>240</ele>
        <time>2017-03-29T08:58:18Z</time>
      </trkpt>
      <trkpt lat="45.98763" lon="4.81801">
        <ele>240</ele>
        <time>2017-03-29T08:58:19Z</time>
      </trkpt>
      <trkpt lat="45.98765" lon="4.81808">
        <ele>240</ele>
        <time>2017-03-29T08:58:20Z</time>
      </trkpt>
      <trkpt lat="45.98768" lon="4.81816">
        <ele>240</ele>
        <time>2017-03-29T08:58:21Z</time>
      </trkpt>
      <trkpt lat="45.98769" lon="4.81824">
        <ele>240</ele>
        <time>2017-03-29T08:58:22Z</time>
      </trkpt>
      <trkpt lat="45.98773" lon="4.81831">
        <ele>240</ele>
        <time>2017-03-29T08:58:23Z</time>
      </trkpt>
      <trkpt lat="45.98776" lon="4.81839">
        <ele>239</ele>
        <time>2017-03-29T08:58:24Z</time>
      </trkpt>
      <trkpt lat="45.9878" lon="4.81846">
        <ele>239</ele>
        <time>2017-03-29T08:58:25Z</time>
      </trkpt>
      <trkpt lat="45.98783" lon="4.81853">
        <ele>239</ele>
        <time>2017-03-29T08:58:26Z</time>
      </trkpt>
      <trkpt lat="45.98786" lon="4.8186">
        <ele>239</ele>
        <time>2017-03-29T08:58:27Z</time>
      </trkpt>
      <trkpt lat="45.98789" lon="4.81867">
        <ele>239</ele>
        <time>2017-03-29T08:58:28Z</time>
      </trkpt>
      <trkpt lat="45.98792" lon="4.81875">
        <ele>239</ele>
        <time>2017-03-29T08:58:29Z</time>
      </trkpt>
      <trkpt lat="45.98795" lon="4.81883">
        <ele>239</ele>
        <time>2017-03-29T08:58:30Z</time>
      </trkpt>
      <trkpt lat="45.98797" lon="4.8189">
        <ele>239</ele>
        <time>2017-03-29T08:58:31Z</time>
      </trkpt>
      <trkpt lat="45.988" lon="4.81898">
        <ele>239</ele>
        <time>2017-03-29T08:58:32Z</time>
      </trkpt>
      <trkpt lat="45.98802" lon="4.81906">
        <ele>239</ele>
        <time>2017-03-29T08:58:33Z</time>
      </trkpt>
      <trkpt lat="45.98803" lon="4.81914">
        <ele>239</ele>
        <time>2017-03-29T08:58:34Z</time>
      </trkpt>
      <trkpt lat="45.98804" lon="4.81922">
        <ele>239</ele>
        <time>2017-03-29T08:58:35Z</time>
      </trkpt>
      <trkpt lat="45.98805" lon="4.8193">
        <ele>239</ele>
        <time>2017-03-29T08:58:36Z</time>
      </trkpt>
      <trkpt lat="45.98807" lon="4.81938">
        <ele>239</ele>
        <time>2017-03-29T08:58:37Z</time>
      </trkpt>
      <trkpt lat="45.98808" lon="4.81945">
        <ele>239</ele>
        <time>2017-03-29T08:58:38Z</time>
      </trkpt>
      <trkpt lat="45.98809" lon="4.81953">
        <ele>239</ele>
        <time>2017-03-29T08:58:39Z</time>
      </trkpt>
      <trkpt lat="45.98811" lon="4.81961">
        <ele>239</ele>
        <time>2017-03-29T08:58:40Z</time>
      </trkpt>
      <trkpt lat="45.98812" lon="4.81968">
        <ele>239</ele>
        <time>2017-03-29T08:58:41Z</time>
      </trkpt>
      <trkpt lat="45.98812" lon="4.81976">
        <ele>239</ele>
        <time>2017-03-29T08:58:42Z</time>
      </trkpt>
      <trkpt lat="45.98813" lon="4.81984">
        <ele>239</ele>
        <time>2017-03-29T08:58:43Z</time>
      </trkpt>
      <trkpt lat="45.98814" lon="4.81992">
        <ele>238</ele>
        <time>2017-03-29T08:58:44Z</time>
      </trkpt>
      <trkpt lat="45.98816" lon="4.82">
        <ele>238</ele>
        <time>2017-03-29T08:58:45Z</time>
      </trkpt>
      <trkpt lat="45.98817" lon="4.82009">
        <ele>238</ele>
        <time>2017-03-29T08:58:46Z</time>
      </trkpt>
      <trkpt lat="45.98818" lon="4.82017">
        <ele>238</ele>
        <time>2017-03-29T08:58:47Z</time>
      </trkpt>
      <trkpt lat="45.98819" lon="4.82025">
        <ele>238</ele>
        <time>2017-03-29T08:58:48Z</time>
      </trkpt>
      <trkpt lat="45.9882" lon="4.82033">
        <ele>238</ele>
        <time>2017-03-29T08:58:49Z</time>
      </trkpt>
      <trkpt lat="45.98821" lon="4.82042">
        <ele>238</ele>
        <time>2017-03-29T08:58:50Z</time>
      </trkpt>
      <trkpt lat="45.98822" lon="4.8205">
        <ele>238</ele>
        <time>2017-03-29T08:58:51Z</time>
      </trkpt>
      <trkpt lat="45.98824" lon="4.82058">
        <ele>237</ele>
        <time>2017-03-29T08:58:52Z</time>
      </trkpt>
      <trkpt lat="45.98825" lon="4.82066">
        <ele>237</ele>
        <time>2017-03-29T08:58:53Z</time>
      </trkpt>
      <trkpt lat="45.98827" lon="4.82074">
        <ele>237</ele>
        <time>2017-03-29T08:58:54Z</time>
      </trkpt>
      <trkpt lat="45.98829" lon="4.82082">
        <ele>236</ele>
        <time>2017-03-29T08:58:55Z</time>
      </trkpt>
      <trkpt lat="45.9883" lon="4.8209">
        <ele>236</ele>
        <time>2017-03-29T08:58:56Z</time>
      </trkpt>
      <trkpt lat="45.98832" lon="4.82098">
        <ele>237</ele>
        <time>2017-03-29T08:58:57Z</time>
      </trkpt>
      <trkpt lat="45.98833" lon="4.82107">
        <ele>237</ele>
        <time>2017-03-29T08:58:58Z</time>
      </trkpt>
      <trkpt lat="45.98834" lon="4.82114">
        <ele>236</ele>
        <time>2017-03-29T08:58:59Z</time>
      </trkpt>
      <trkpt lat="45.98836" lon="4.82122">
        <ele>236</ele>
        <time>2017-03-29T08:59:00Z</time>
      </trkpt>
      <trkpt lat="45.98838" lon="4.8213">
        <ele>236</ele>
        <time>2017-03-29T08:59:01Z</time>
      </trkpt>
      <trkpt lat="45.98839" lon="4.82137">
        <ele>236</ele>
        <time>2017-03-29T08:59:02Z</time>
      </trkpt>
      <trkpt lat="45.98841" lon="4.82144">
        <ele>236</ele>
        <time>2017-03-29T08:59:03Z</time>
      </trkpt>
      <trkpt lat="45.98842" lon="4.82151">
        <ele>236</ele>
        <time>2017-03-29T08:59:04Z</time>
      </trkpt>
      <trkpt lat="45.98844" lon="4.82158">
        <ele>236</ele>
        <time>2017-03-29T08:59:05Z</time>
      </trkpt>
      <trkpt lat="45.98847" lon="4.82166">
        <ele>236</ele>
        <time>2017-03-29T08:59:06Z</time>
      </trkpt>
      <trkpt lat="45.98849" lon="4.82173">
        <ele>236</ele>
        <time>2017-03-29T08:59:07Z</time>
      </trkpt>
      <trkpt lat="45.98852" lon="4.8218">
        <ele>236</ele>
        <time>2017-03-29T08:59:08Z</time>
      </trkpt>
      <trkpt lat="45.98855" lon="4.82188">
        <ele>236</ele>
        <time>2017-03-29T08:59:09Z</time>
      </trkpt>
      <trkpt lat="45.98858" lon="4.82196">
        <ele>236</ele>
        <time>2017-03-29T08:59:10Z</time>
      </trkpt>
      <trkpt lat="45.98861" lon="4.82203">
        <ele>236</ele>
        <time>2017-03-29T08:59:11Z</time>
      </trkpt>
      <trkpt lat="45.98864" lon="4.8221">
        <ele>236</ele>
        <time>2017-03-29T08:59:12Z</time>
      </trkpt>
      <trkpt lat="45.98867" lon="4.82217">
        <ele>236</ele>
        <time>2017-03-29T08:59:13Z</time>
      </trkpt>
      <trkpt lat="45.9887" lon="4.82224">
        <ele>236</ele>
        <time>2017-03-29T08:59:14Z</time>
      </trkpt>
      <trkpt lat="45.98873" lon="4.8223">
        <ele>236</ele>
        <time>2017-03-29T08:59:15Z</time>
      </trkpt>
      <trkpt lat="45.98875" lon="4.82237">
        <ele>236</ele>
        <time>2017-03-29T08:59:16Z</time>
      </trkpt>
      <trkpt lat="45.98878" lon="4.82243">
        <ele>236</ele>
        <time>2017-03-29T08:59:17Z</time>
      </trkpt>
      <trkpt lat="45.98881" lon="4.8225">
        <ele>236</ele>
        <time>2017-03-29T08:59:18Z</time>
      </trkpt>
      <trkpt lat="45.98885" lon="4.82256">
        <ele>236</ele>
        <time>2017-03-29T08:59:19Z</time>
      </trkpt>
      <trkpt lat="45.98888" lon="4.82263">
        <ele>236</ele>
        <time>2017-03-29T08:59:20Z</time>
      </trkpt>
      <trkpt lat="45.98891" lon="4.82269">
        <ele>236</ele>
        <time>2017-03-29T08:59:21Z</time>
      </trkpt>
      <trkpt lat="45.98895" lon="4.82276">
        <ele>236</ele>
        <time>2017-03-29T08:59:22Z</time>
      </trkpt>
      <trkpt lat="45.98898" lon="4.82281">
        <ele>236</ele>
        <time>2017-03-29T08:59:23Z</time>
      </trkpt>
      <trkpt lat="45.98903" lon="4.82287">
        <ele>236</ele>
        <time>2017-03-29T08:59:24Z</time>
      </trkpt>
      <trkpt lat="45.98907" lon="4.82291">
        <ele>236</ele>
        <time>2017-03-29T08:59:25Z</time>
      </trkpt>
      <trkpt lat="45.98912" lon="4.82295">
        <ele>236</ele>
        <time>2017-03-29T08:59:26Z</time>
      </trkpt>
      <trkpt lat="45.98917" lon="4.823">
        <ele>237</ele>
        <time>2017-03-29T08:59:27Z</time>
      </trkpt>
      <trkpt lat="45.98921" lon="4.82305">
        <ele>234</ele>
        <time>2017-03-29T08:59:28Z</time>
      </trkpt>
      <trkpt lat="45.98926" lon="4.82309">
        <ele>235</ele>
        <time>2017-03-29T08:59:29Z</time>
      </trkpt>
      <trkpt lat="45.9893" lon="4.82314">
        <ele>235</ele>
        <time>2017-03-29T08:59:30Z</time>
      </trkpt>
      <trkpt lat="45.98934" lon="4.82319">
        <ele>235</ele>
        <time>2017-03-29T08:59:31Z</time>
      </trkpt>
      <trkpt lat="45.98938" lon="4.82324">
        <ele>235</ele>
        <time>2017-03-29T08:59:32Z</time>
      </trkpt>
      <trkpt lat="45.98941" lon="4.82329">
        <ele>234</ele>
        <time>2017-03-29T08:59:33Z</time>
      </trkpt>
      <trkpt lat="45.98944" lon="4.82334">
        <ele>235</ele>
        <time>2017-03-29T08:59:34Z</time>
      </trkpt>
      <trkpt lat="45.98947" lon="4.82339">
        <ele>235</ele>
        <time>2017-03-29T08:59:35Z</time>
      </trkpt>
      <trkpt lat="45.9895" lon="4.82345">
        <ele>235</ele>
        <time>2017-03-29T08:59:36Z</time>
      </trkpt>
      <trkpt lat="45.98953" lon="4.8235">
        <ele>235</ele>
        <time>2017-03-29T08:59:37Z</time>
      </trkpt>
      <trkpt lat="45.98956" lon="4.82355">
        <ele>235</ele>
        <time>2017-03-29T08:59:38Z</time>
      </trkpt>
      <trkpt lat="45.98958" lon="4.82361">
        <ele>235</ele>
        <time>2017-03-29T08:59:39Z</time>
      </trkpt>
      <trkpt lat="45.9896" lon="4.82368">
        <ele>235</ele>
        <time>2017-03-29T08:59:40Z</time>
      </trkpt>
      <trkpt lat="45.98962" lon="4.82375">
        <ele>235</ele>
        <time>2017-03-29T08:59:41Z</time>
      </trkpt>
      <trkpt lat="45.98964" lon="4.82383">
        <ele>235</ele>
        <time>2017-03-29T08:59:42Z</time>
      </trkpt>
      <trkpt lat="45.98965" lon="4.82391">
        <ele>235</ele>
        <time>2017-03-29T08:59:43Z</time>
      </trkpt>
      <trkpt lat="45.98967" lon="4.82399">
        <ele>235</ele>
        <time>2017-03-29T08:59:44Z</time>
      </trkpt>
      <trkpt lat="45.98969" lon="4.82407">
        <ele>235</ele>
        <time>2017-03-29T08:59:45Z</time>
      </trkpt>
      <trkpt lat="45.98971" lon="4.82415">
        <ele>235</ele>
        <time>2017-03-29T08:59:46Z</time>
      </trkpt>
      <trkpt lat="45.98973" lon="4.82422">
        <ele>236</ele>
        <time>2017-03-29T08:59:47Z</time>
      </trkpt>
      <trkpt lat="45.98975" lon="4.8243">
        <ele>236</ele>
        <time>2017-03-29T08:59:48Z</time>
      </trkpt>
      <trkpt lat="45.98977" lon="4.82437">
        <ele>236</ele>
        <time>2017-03-29T08:59:49Z</time>
      </trkpt>
      <trkpt lat="45.98978" lon="4.82445">
        <ele>236</ele>
        <time>2017-03-29T08:59:50Z</time>
      </trkpt>
      <trkpt lat="45.98981" lon="4.82452">
        <ele>236</ele>
        <time>2017-03-29T08:59:51Z</time>
      </trkpt>
      <trkpt lat="45.98983" lon="4.82458">
        <ele>236</ele>
        <time>2017-03-29T08:59:52Z</time>
      </trkpt>
      <trkpt lat="45.98985" lon="4.82464">
        <ele>236</ele>
        <time>2017-03-29T08:59:53Z</time>
      </trkpt>
      <trkpt lat="45.98987" lon="4.8247">
        <ele>236</ele>
        <time>2017-03-29T08:59:54Z</time>
      </trkpt>
      <trkpt lat="45.98989" lon="4.82477">
        <ele>236</ele>
        <time>2017-03-29T08:59:55Z</time>
      </trkpt>
      <trkpt lat="45.98991" lon="4.82483">
        <ele>236</ele>
        <time>2017-03-29T08:59:56Z</time>
      </trkpt>
      <trkpt lat="45.98993" lon="4.8249">
        <ele>236</ele>
        <time>2017-03-29T08:59:57Z</time>
      </trkpt>
      <trkpt lat="45.98996" lon="4.82497">
        <ele>235</ele>
        <time>2017-03-29T08:59:58Z</time>
      </trkpt>
      <trkpt lat="45.98999" lon="4.82504">
        <ele>235</ele>
        <time>2017-03-29T08:59:59Z</time>
      </trkpt>
      <trkpt lat="45.99002" lon="4.82511">
        <ele>235</ele>
        <time>2017-03-29T09:00:00Z</time>
      </trkpt>
      <trkpt lat="45.99004" lon="4.82518">
        <ele>235</ele>
        <time>2017-03-29T09:00:01Z</time>
      </trkpt>
      <trkpt lat="45.99008" lon="4.82524">
        <ele>235</ele>
        <time>2017-03-29T09:00:02Z</time>
      </trkpt>
      <trkpt lat="45.99011" lon="4.8253">
        <ele>235</ele>
        <time>2017-03-29T09:00:03Z</time>
      </trkpt>
      <trkpt lat="45.99015" lon="4.82536">
        <ele>235</ele>
        <time>2017-03-29T09:00:04Z</time>
      </trkpt>
      <trkpt lat="45.99019" lon="4.82541">
        <ele>235</ele>
        <time>2017-03-29T09:00:05Z</time>
      </trkpt>
      <trkpt lat="45.99023" lon="4.82546">
        <ele>235</ele>
        <time>2017-03-29T09:00:06Z</time>
      </trkpt>
      <trkpt lat="45.99027" lon="4.8255">
        <ele>235</ele>
        <time>2017-03-29T09:00:07Z</time>
      </trkpt>
      <trkpt lat="45.99031" lon="4.82554">
        <ele>235</ele>
        <time>2017-03-29T09:00:08Z</time>
      </trkpt>
      <trkpt lat="45.99035" lon="4.82557">
        <ele>235</ele>
        <time>2017-03-29T09:00:09Z</time>
      </trkpt>
      <trkpt lat="45.9904" lon="4.8256">
        <ele>235</ele>
        <time>2017-03-29T09:00:10Z</time>
      </trkpt>
      <trkpt lat="45.99044" lon="4.82562">
        <ele>235</ele>
        <time>2017-03-29T09:00:11Z</time>
      </trkpt>
      <trkpt lat="45.99048" lon="4.82565">
        <ele>235</ele>
        <time>2017-03-29T09:00:12Z</time>
      </trkpt>
      <trkpt lat="45.99056" lon="4.82569">
        <ele>235</ele>
        <time>2017-03-29T09:00:14Z</time>
      </trkpt>
      <trkpt lat="45.9906" lon="4.8257">
        <ele>235</ele>
        <time>2017-03-29T09:00:15Z</time>
      </trkpt>
      <trkpt lat="45.99065" lon="4.82571">
        <ele>235</ele>
        <time>2017-03-29T09:00:16Z</time>
      </trkpt>
      <trkpt lat="45.9907" lon="4.82572">
        <ele>235</ele>
        <time>2017-03-29T09:00:17Z</time>
      </trkpt>
      <trkpt lat="45.99075" lon="4.82572">
        <ele>235</ele>
        <time>2017-03-29T09:00:18Z</time>
      </trkpt>
      <trkpt lat="45.9908" lon="4.8257">
        <ele>235</ele>
        <time>2017-03-29T09:00:19Z</time>
      </trkpt>
      <trkpt lat="45.99084" lon="4.82567">
        <ele>236</ele>
        <time>2017-03-29T09:00:20Z</time>
      </trkpt>
      <trkpt lat="45.99089" lon="4.82563">
        <ele>236</ele>
        <time>2017-03-29T09:00:21Z</time>
      </trkpt>
      <trkpt lat="45.99093" lon="4.82558">
        <ele>236</ele>
        <time>2017-03-29T09:00:22Z</time>
      </trkpt>
      <trkpt lat="45.99098" lon="4.82552">
        <ele>236</ele>
        <time>2017-03-29T09:00:23Z</time>
      </trkpt>
      <trkpt lat="45.99102" lon="4.82546">
        <ele>236</ele>
        <time>2017-03-29T09:00:24Z</time>
      </trkpt>
      <trkpt lat="45.99107" lon="4.82541">
        <ele>236</ele>
        <time>2017-03-29T09:00:25Z</time>
      </trkpt>
      <trkpt lat="45.99111" lon="4.82537">
        <ele>236</ele>
        <time>2017-03-29T09:00:26Z</time>
      </trkpt>
      <trkpt lat="45.99115" lon="4.82533">
        <ele>236</ele>
        <time>2017-03-29T09:00:27Z</time>
      </trkpt>
      <trkpt lat="45.99119" lon="4.82529">
        <ele>236</ele>
        <time>2017-03-29T09:00:28Z</time>
      </trkpt>
      <trkpt lat="45.99123" lon="4.82525">
        <ele>236</ele>
        <time>2017-03-29T09:00:29Z</time>
      </trkpt>
      <trkpt lat="45.99127" lon="4.82522">
        <ele>236</ele>
        <time>2017-03-29T09:00:30Z</time>
      </trkpt>
      <trkpt lat="45.99131" lon="4.82519">
        <ele>236</ele>
        <time>2017-03-29T09:00:31Z</time>
      </trkpt>
      <trkpt lat="45.99139" lon="4.82513">
        <ele>236</ele>
        <time>2017-03-29T09:00:33Z</time>
      </trkpt>
      <trkpt lat="45.99142" lon="4.8251">
        <ele>236</ele>
        <time>2017-03-29T09:00:34Z</time>
      </trkpt>
      <trkpt lat="45.99146" lon="4.82506">
        <ele>236</ele>
        <time>2017-03-29T09:00:35Z</time>
      </trkpt>
      <trkpt lat="45.99151" lon="4.82503">
        <ele>237</ele>
        <time>2017-03-29T09:00:36Z</time>
      </trkpt>
      <trkpt lat="45.99155" lon="4.82501">
        <ele>237</ele>
        <time>2017-03-29T09:00:37Z</time>
      </trkpt>
      <trkpt lat="45.99159" lon="4.82498">
        <ele>237</ele>
        <time>2017-03-29T09:00:38Z</time>
      </trkpt>
      <trkpt lat="45.99163" lon="4.82495">
        <ele>237</ele>
        <time>2017-03-29T09:00:39Z</time>
      </trkpt>
      <trkpt lat="45.99168" lon="4.82491">
        <ele>238</ele>
        <time>2017-03-29T09:00:40Z</time>
      </trkpt>
      <trkpt lat="45.99172" lon="4.82487">
        <ele>238</ele>
        <time>2017-03-29T09:00:41Z</time>
      </trkpt>
      <trkpt lat="45.99176" lon="4.82484">
        <ele>238</ele>
        <time>2017-03-29T09:00:42Z</time>
      </trkpt>
      <trkpt lat="45.9918" lon="4.8248">
        <ele>239</ele>
        <time>2017-03-29T09:00:43Z</time>
      </trkpt>
      <trkpt lat="45.99184" lon="4.82476">
        <ele>239</ele>
        <time>2017-03-29T09:00:44Z</time>
      </trkpt>
      <trkpt lat="45.9919" lon="4.82469">
        <ele>239</ele>
        <time>2017-03-29T09:00:46Z</time>
      </trkpt>
      <trkpt lat="45.99193" lon="4.82465">
        <ele>239</ele>
        <time>2017-03-29T09:00:47Z</time>
      </trkpt>
      <trkpt lat="45.99199" lon="4.82458">
        <ele>239</ele>
        <time>2017-03-29T09:00:49Z</time>
      </trkpt>
      <trkpt lat="45.99202" lon="4.82454">
        <ele>240</ele>
        <time>2017-03-29T09:00:50Z</time>
      </trkpt>
      <trkpt lat="45.99207" lon="4.82444">
        <ele>240</ele>
        <time>2017-03-29T09:00:52Z</time>
      </trkpt>
      <trkpt lat="45.99209" lon="4.82437">
        <ele>240</ele>
        <time>2017-03-29T09:00:53Z</time>
      </trkpt>
      <trkpt lat="45.99212" lon="4.82425">
        <ele>240</ele>
        <time>2017-03-29T09:00:55Z</time>
      </trkpt>
      <trkpt lat="45.99212" lon="4.8242">
        <ele>240</ele>
        <time>2017-03-29T09:00:56Z</time>
      </trkpt>
      <trkpt lat="45.99213" lon="4.82407">
        <ele>243</ele>
        <time>2017-03-29T09:00:58Z</time>
      </trkpt>
      <trkpt lat="45.99215" lon="4.824">
        <ele>244</ele>
        <time>2017-03-29T09:00:59Z</time>
      </trkpt>
      <trkpt lat="45.99216" lon="4.82388">
        <ele>244</ele>
        <time>2017-03-29T09:01:01Z</time>
      </trkpt>
      <trkpt lat="45.99216" lon="4.82382">
        <ele>244</ele>
        <time>2017-03-29T09:01:02Z</time>
      </trkpt>
      <trkpt lat="45.99216" lon="4.82371">
        <ele>245</ele>
        <time>2017-03-29T09:01:04Z</time>
      </trkpt>
      <trkpt lat="45.99217" lon="4.82366">
        <ele>245</ele>
        <time>2017-03-29T09:01:05Z</time>
      </trkpt>
      <trkpt lat="45.99219" lon="4.82356">
        <ele>245</ele>
        <time>2017-03-29T09:01:07Z</time>
      </trkpt>
      <trkpt lat="45.9922" lon="4.8235">
        <ele>246</ele>
        <time>2017-03-29T09:01:08Z</time>
      </trkpt>
      <trkpt lat="45.9922" lon="4.82339">
        <ele>246</ele>
        <time>2017-03-29T09:01:10Z</time>
      </trkpt>
      <trkpt lat="45.9922" lon="4.82334">
        <ele>246</ele>
        <time>2017-03-29T09:01:11Z</time>
      </trkpt>
      <trkpt lat="45.99221" lon="4.82322">
        <ele>248</ele>
        <time>2017-03-29T09:01:13Z</time>
      </trkpt>
      <trkpt lat="45.99221" lon="4.82317">
        <ele>248</ele>
        <time>2017-03-29T09:01:14Z</time>
      </trkpt>
      <trkpt lat="45.99222" lon="4.82306">
        <ele>248</ele>
        <time>2017-03-29T09:01:16Z</time>
      </trkpt>
      <trkpt lat="45.99222" lon="4.82301">
        <ele>248</ele>
        <time>2017-03-29T09:01:17Z</time>
      </trkpt>
      <trkpt lat="45.99223" lon="4.82291">
        <ele>248</ele>
        <time>2017-03-29T09:01:19Z</time>
      </trkpt>
      <trkpt lat="45.99224" lon="4.82286">
        <ele>248</ele>
        <time>2017-03-29T09:01:20Z</time>
      </trkpt>
      <trkpt lat="45.99223" lon="4.82275">
        <ele>248</ele>
        <time>2017-03-29T09:01:22Z</time>
      </trkpt>
      <trkpt lat="45.99223" lon="4.8227">
        <ele>248</ele>
        <time>2017-03-29T09:01:23Z</time>
      </trkpt>
      <trkpt lat="45.99222" lon="4.82258">
        <ele>248</ele>
        <time>2017-03-29T09:01:25Z</time>
      </trkpt>
      <trkpt lat="45.99223" lon="4.82254">
        <ele>248</ele>
        <time>2017-03-29T09:01:26Z</time>
      </trkpt>
      <trkpt lat="45.99229" lon="4.82249">
        <ele>247</ele>
        <time>2017-03-29T09:01:28Z</time>
      </trkpt>
      <trkpt lat="45.99232" lon="4.82248">
        <ele>248</ele>
        <time>2017-03-29T09:01:29Z</time>
      </trkpt>
      <trkpt lat="45.9924" lon="4.82246">
        <ele>248</ele>
        <time>2017-03-29T09:01:31Z</time>
      </trkpt>
      <trkpt lat="45.99244" lon="4.82246">
        <ele>249</ele>
        <time>2017-03-29T09:01:32Z</time>
      </trkpt>
      <trkpt lat="45.99251" lon="4.82242">
        <ele>250</ele>
        <time>2017-03-29T09:01:34Z</time>
      </trkpt>
      <trkpt lat="45.99254" lon="4.82239">
        <ele>249</ele>
        <time>2017-03-29T09:01:35Z</time>
      </trkpt>
      <trkpt lat="45.99261" lon="4.82233">
        <ele>249</ele>
        <time>2017-03-29T09:01:37Z</time>
      </trkpt>
      <trkpt lat="45.99264" lon="4.82229">
        <ele>249</ele>
        <time>2017-03-29T09:01:38Z</time>
      </trkpt>
      <trkpt lat="45.99269" lon="4.82221">
        <ele>249</ele>
        <time>2017-03-29T09:01:40Z</time>
      </trkpt>
      <trkpt lat="45.99272" lon="4.82217">
        <ele>249</ele>
        <time>2017-03-29T09:01:41Z</time>
      </trkpt>
      <trkpt lat="45.99278" lon="4.82209">
        <ele>249</ele>
        <time>2017-03-29T09:01:43Z</time>
      </trkpt>
      <trkpt lat="45.9928" lon="4.82205">
        <ele>248</ele>
        <time>2017-03-29T09:01:44Z</time>
      </trkpt>
      <trkpt lat="45.99286" lon="4.822">
        <ele>248</ele>
        <time>2017-03-29T09:01:46Z</time>
      </trkpt>
      <trkpt lat="45.99289" lon="4.82197">
        <ele>248</ele>
        <time>2017-03-29T09:01:47Z</time>
      </trkpt>
      <trkpt lat="45.99294" lon="4.82191">
        <ele>248</ele>
        <time>2017-03-29T09:01:49Z</time>
      </trkpt>
      <trkpt lat="45.99297" lon="4.82188">
        <ele>248</ele>
        <time>2017-03-29T09:01:50Z</time>
      </trkpt>
      <trkpt lat="45.99303" lon="4.82185">
        <ele>249</ele>
        <time>2017-03-29T09:01:52Z</time>
      </trkpt>
      <trkpt lat="45.99306" lon="4.82185">
        <ele>249</ele>
        <time>2017-03-29T09:01:53Z</time>
      </trkpt>
      <trkpt lat="45.99313" lon="4.82187">
        <ele>249</ele>
        <time>2017-03-29T09:01:56Z</time>
      </trkpt>
      <trkpt lat="45.99316" lon="4.82188">
        <ele>249</ele>
        <time>2017-03-29T09:01:57Z</time>
      </trkpt>
      <trkpt lat="45.99322" lon="4.82188">
        <ele>249</ele>
        <time>2017-03-29T09:01:59Z</time>
      </trkpt>
      <trkpt lat="45.99325" lon="4.82189">
        <ele>249</ele>
        <time>2017-03-29T09:02:00Z</time>
      </trkpt>
      <trkpt lat="45.99332" lon="4.82188">
        <ele>249</ele>
        <time>2017-03-29T09:02:02Z</time>
      </trkpt>
      <trkpt lat="45.99335" lon="4.82188">
        <ele>251</ele>
        <time>2017-03-29T09:02:03Z</time>
      </trkpt>
      <trkpt lat="45.99342" lon="4.82189">
        <ele>251</ele>
        <time>2017-03-29T09:02:05Z</time>
      </trkpt>
      <trkpt lat="45.99345" lon="4.82189">
        <ele>251</ele>
        <time>2017-03-29T09:02:06Z</time>
      </trkpt>
      <trkpt lat="45.99351" lon="4.8219">
        <ele>252</ele>
        <time>2017-03-29T09:02:08Z</time>
      </trkpt>
      <trkpt lat="45.99355" lon="4.82189">
        <ele>252</ele>
        <time>2017-03-29T09:02:09Z</time>
      </trkpt>
      <trkpt lat="45.99363" lon="4.82186">
        <ele>252</ele>
        <time>2017-03-29T09:02:12Z</time>
      </trkpt>
      <trkpt lat="45.99365" lon="4.82186">
        <ele>252</ele>
        <time>2017-03-29T09:02:13Z</time>
      </trkpt>
      <trkpt lat="45.99373" lon="4.82187">
        <ele>253</ele>
        <time>2017-03-29T09:02:16Z</time>
      </trkpt>
      <trkpt lat="45.99376" lon="4.82186">
        <ele>253</ele>
        <time>2017-03-29T09:02:17Z</time>
      </trkpt>
      <trkpt lat="45.99384" lon="4.82186">
        <ele>253</ele>
        <time>2017-03-29T09:02:21Z</time>
      </trkpt>
      <trkpt lat="45.99388" lon="4.82188">
        <ele>253</ele>
        <time>2017-03-29T09:02:22Z</time>
      </trkpt>
      <trkpt lat="45.99393" lon="4.82189">
        <ele>253</ele>
        <time>2017-03-29T09:02:23Z</time>
      </trkpt>
      <trkpt lat="45.99397" lon="4.8219">
        <ele>254</ele>
        <time>2017-03-29T09:02:24Z</time>
      </trkpt>
      <trkpt lat="45.99402" lon="4.82191">
        <ele>254</ele>
        <time>2017-03-29T09:02:25Z</time>
      </trkpt>
      <trkpt lat="45.99409" lon="4.82193">
        <ele>254</ele>
        <time>2017-03-29T09:02:26Z</time>
      </trkpt>
      <trkpt lat="45.99416" lon="4.82194">
        <ele>254</ele>
        <time>2017-03-29T09:02:28Z</time>
      </trkpt>
      <trkpt lat="45.99418" lon="4.82195">
        <ele>257</ele>
        <time>2017-03-29T09:02:29Z</time>
      </trkpt>
      <trkpt lat="45.99426" lon="4.82197">
        <ele>257</ele>
        <time>2017-03-29T09:02:32Z</time>
      </trkpt>
      <trkpt lat="45.99428" lon="4.82199">
        <ele>257</ele>
        <time>2017-03-29T09:02:33Z</time>
      </trkpt>
      <trkpt lat="45.99435" lon="4.82203">
        <ele>257</ele>
        <time>2017-03-29T09:02:36Z</time>
      </trkpt>
      <trkpt lat="45.99437" lon="4.82204">
        <ele>257</ele>
        <time>2017-03-29T09:02:37Z</time>
      </trkpt>
      <trkpt lat="45.99444" lon="4.82207">
        <ele>258</ele>
        <time>2017-03-29T09:02:40Z</time>
      </trkpt>
      <trkpt lat="45.99447" lon="4.82207">
        <ele>258</ele>
        <time>2017-03-29T09:02:41Z</time>
      </trkpt>
      <trkpt lat="45.99454" lon="4.82209">
        <ele>258</ele>
        <time>2017-03-29T09:02:44Z</time>
      </trkpt>
      <trkpt lat="45.99457" lon="4.82208">
        <ele>258</ele>
        <time>2017-03-29T09:02:45Z</time>
      </trkpt>
      <trkpt lat="45.99464" lon="4.82209">
        <ele>258</ele>
        <time>2017-03-29T09:02:48Z</time>
      </trkpt>
      <trkpt lat="45.99466" lon="4.82209">
        <ele>258</ele>
        <time>2017-03-29T09:02:49Z</time>
      </trkpt>
      <trkpt lat="45.99473" lon="4.82209">
        <ele>258</ele>
        <time>2017-03-29T09:02:52Z</time>
      </trkpt>
      <trkpt lat="45.99476" lon="4.82208">
        <ele>258</ele>
        <time>2017-03-29T09:02:53Z</time>
      </trkpt>
      <trkpt lat="45.99483" lon="4.82209">
        <ele>259</ele>
        <time>2017-03-29T09:02:56Z</time>
      </trkpt>
      <trkpt lat="45.99486" lon="4.82211">
        <ele>259</ele>
        <time>2017-03-29T09:02:57Z</time>
      </trkpt>
      <trkpt lat="45.99493" lon="4.82209">
        <ele>259</ele>
        <time>2017-03-29T09:03:00Z</time>
      </trkpt>
      <trkpt lat="45.99496" lon="4.82207">
        <ele>259</ele>
        <time>2017-03-29T09:03:01Z</time>
      </trkpt>
      <trkpt lat="45.99503" lon="4.82203">
        <ele>262</ele>
        <time>2017-03-29T09:03:04Z</time>
      </trkpt>
      <trkpt lat="45.99506" lon="4.82202">
        <ele>262</ele>
        <time>2017-03-29T09:03:05Z</time>
      </trkpt>
      <trkpt lat="45.99514" lon="4.82197">
        <ele>262</ele>
        <time>2017-03-29T09:03:08Z</time>
      </trkpt>
      <trkpt lat="45.99517" lon="4.82196">
        <ele>262</ele>
        <time>2017-03-29T09:03:09Z</time>
      </trkpt>
      <trkpt lat="45.99523" lon="4.82195">
        <ele>262</ele>
        <time>2017-03-29T09:03:12Z</time>
      </trkpt>
      <trkpt lat="45.99526" lon="4.82197">
        <ele>262</ele>
        <time>2017-03-29T09:03:13Z</time>
      </trkpt>
      <trkpt lat="45.99533" lon="4.82198">
        <ele>262</ele>
        <time>2017-03-29T09:03:16Z</time>
      </trkpt>
      <trkpt lat="45.99535" lon="4.82197">
        <ele>262</ele>
        <time>2017-03-29T09:03:17Z</time>
      </trkpt>
      <trkpt lat="45.9954" lon="4.82191">
        <ele>262</ele>
        <time>2017-03-29T09:03:21Z</time>
      </trkpt>
      <trkpt lat="45.99541" lon="4.82187">
        <ele>262</ele>
        <time>2017-03-29T09:03:22Z</time>
      </trkpt>
      <trkpt lat="45.99548" lon="4.8218">
        <ele>263</ele>
        <time>2017-03-29T09:03:25Z</time>
      </trkpt>
      <trkpt lat="45.99551" lon="4.82179">
        <ele>263</ele>
        <time>2017-03-29T09:03:26Z</time>
      </trkpt>
      <trkpt lat="45.99557" lon="4.82177">
        <ele>263</ele>
        <time>2017-03-29T09:03:28Z</time>
      </trkpt>
      <trkpt lat="45.9956" lon="4.82176">
        <ele>263</ele>
        <time>2017-03-29T09:03:29Z</time>
      </trkpt>
      <trkpt lat="45.99566" lon="4.82174">
        <ele>264</ele>
        <time>2017-03-29T09:03:31Z</time>
      </trkpt>
      <trkpt lat="45.9957" lon="4.82174">
        <ele>264</ele>
        <time>2017-03-29T09:03:32Z</time>
      </trkpt>
      <trkpt lat="45.99576" lon="4.82173">
        <ele>264</ele>
        <time>2017-03-29T09:03:34Z</time>
      </trkpt>
      <trkpt lat="45.99579" lon="4.82172">
        <ele>264</ele>
        <time>2017-03-29T09:03:35Z</time>
      </trkpt>
      <trkpt lat="45.99586" lon="4.82169">
        <ele>265</ele>
        <time>2017-03-29T09:03:37Z</time>
      </trkpt>
      <trkpt lat="45.99589" lon="4.82169">
        <ele>265</ele>
        <time>2017-03-29T09:03:38Z</time>
      </trkpt>
      <trkpt lat="45.99596" lon="4.82167">
        <ele>265</ele>
        <time>2017-03-29T09:03:40Z</time>
      </trkpt>
      <trkpt lat="45.99599" lon="4.82166">
        <ele>266</ele>
        <time>2017-03-29T09:03:41Z</time>
      </trkpt>
      <trkpt lat="45.99605" lon="4.82164">
        <ele>266</ele>
        <time>2017-03-29T09:03:43Z</time>
      </trkpt>
      <trkpt lat="45.99608" lon="4.82163">
        <ele>266</ele>
        <time>2017-03-29T09:03:44Z</time>
      </trkpt>
      <trkpt lat="45.99614" lon="4.8216">
        <ele>266</ele>
        <time>2017-03-29T09:03:46Z</time>
      </trkpt>
      <trkpt lat="45.99617" lon="4.82159">
        <ele>266</ele>
        <time>2017-03-29T09:03:47Z</time>
      </trkpt>
      <trkpt lat="45.99623" lon="4.82157">
        <ele>266</ele>
        <time>2017-03-29T09:03:49Z</time>
      </trkpt>
      <trkpt lat="45.99627" lon="4.82156">
        <ele>267</ele>
        <time>2017-03-29T09:03:50Z</time>
      </trkpt>
      <trkpt lat="45.99634" lon="4.82154">
        <ele>267</ele>
        <time>2017-03-29T09:03:52Z</time>
      </trkpt>
      <trkpt lat="45.99637" lon="4.82153">
        <ele>267</ele>
        <time>2017-03-29T09:03:53Z</time>
      </trkpt>
      <trkpt lat="45.99643" lon="4.8215">
        <ele>267</ele>
        <time>2017-03-29T09:03:55Z</time>
      </trkpt>
      <trkpt lat="45.99647" lon="4.82149">
        <ele>267</ele>
        <time>2017-03-29T09:03:56Z</time>
      </trkpt>
      <trkpt lat="45.99653" lon="4.82148">
        <ele>267</ele>
        <time>2017-03-29T09:03:58Z</time>
      </trkpt>
      <trkpt lat="45.99656" lon="4.82147">
        <ele>267</ele>
        <time>2017-03-29T09:03:59Z</time>
      </trkpt>
      <trkpt lat="45.99664" lon="4.82147">
        <ele>267</ele>
        <time>2017-03-29T09:04:02Z</time>
      </trkpt>
      <trkpt lat="45.99668" lon="4.82147">
        <ele>268</ele>
        <time>2017-03-29T09:04:03Z</time>
      </trkpt>
      <trkpt lat="45.99676" lon="4.82147">
        <ele>268</ele>
        <time>2017-03-29T09:04:05Z</time>
      </trkpt>
      <trkpt lat="45.9968" lon="4.82146">
        <ele>268</ele>
        <time>2017-03-29T09:04:06Z</time>
      </trkpt>
      <trkpt lat="45.99686" lon="4.82145">
        <ele>268</ele>
        <time>2017-03-29T09:04:08Z</time>
      </trkpt>
      <trkpt lat="45.99689" lon="4.82144">
        <ele>268</ele>
        <time>2017-03-29T09:04:09Z</time>
      </trkpt>
      <trkpt lat="45.99696" lon="4.82144">
        <ele>268</ele>
        <time>2017-03-29T09:04:11Z</time>
      </trkpt>
      <trkpt lat="45.99699" lon="4.82144">
        <ele>268</ele>
        <time>2017-03-29T09:04:12Z</time>
      </trkpt>
      <trkpt lat="45.99705" lon="4.82143">
        <ele>268</ele>
        <time>2017-03-29T09:04:14Z</time>
      </trkpt>
      <trkpt lat="45.99709" lon="4.82143">
        <ele>268</ele>
        <time>2017-03-29T09:04:15Z</time>
      </trkpt>
      <trkpt lat="45.99717" lon="4.82142">
        <ele>268</ele>
        <time>2017-03-29T09:04:17Z</time>
      </trkpt>
      <trkpt lat="45.99721" lon="4.82142">
        <ele>269</ele>
        <time>2017-03-29T09:04:18Z</time>
      </trkpt>
      <trkpt lat="45.99728" lon="4.8214">
        <ele>269</ele>
        <time>2017-03-29T09:04:20Z</time>
      </trkpt>
      <trkpt lat="45.99732" lon="4.82138">
        <ele>269</ele>
        <time>2017-03-29T09:04:21Z</time>
      </trkpt>
      <trkpt lat="45.99739" lon="4.82136">
        <ele>269</ele>
        <time>2017-03-29T09:04:23Z</time>
      </trkpt>
      <trkpt lat="45.99742" lon="4.82134">
        <ele>269</ele>
        <time>2017-03-29T09:04:24Z</time>
      </trkpt>
      <trkpt lat="45.99749" lon="4.82133">
        <ele>269</ele>
        <time>2017-03-29T09:04:26Z</time>
      </trkpt>
      <trkpt lat="45.99752" lon="4.82132">
        <ele>269</ele>
        <time>2017-03-29T09:04:27Z</time>
      </trkpt>
      <trkpt lat="45.9976" lon="4.82132">
        <ele>269</ele>
        <time>2017-03-29T09:04:29Z</time>
      </trkpt>
      <trkpt lat="45.99764" lon="4.82132">
        <ele>269</ele>
        <time>2017-03-29T09:04:30Z</time>
      </trkpt>
      <trkpt lat="45.99773" lon="4.8213">
        <ele>269</ele>
        <time>2017-03-29T09:04:32Z</time>
      </trkpt>
      <trkpt lat="45.99777" lon="4.82129">
        <ele>269</ele>
        <time>2017-03-29T09:04:33Z</time>
      </trkpt>
      <trkpt lat="45.99783" lon="4.82128">
        <ele>269</ele>
        <time>2017-03-29T09:04:35Z</time>
      </trkpt>
      <trkpt lat="45.99787" lon="4.82127">
        <ele>269</ele>
        <time>2017-03-29T09:04:36Z</time>
      </trkpt>
      <trkpt lat="45.99795" lon="4.82125">
        <ele>268</ele>
        <time>2017-03-29T09:04:38Z</time>
      </trkpt>
      <trkpt lat="45.99798" lon="4.82124">
        <ele>268</ele>
        <time>2017-03-29T09:04:39Z</time>
      </trkpt>
      <trkpt lat="45.99805" lon="4.82123">
        <ele>268</ele>
        <time>2017-03-29T09:04:41Z</time>
      </trkpt>
      <trkpt lat="45.99809" lon="4.82122">
        <ele>268</ele>
        <time>2017-03-29T09:04:42Z</time>
      </trkpt>
      <trkpt lat="45.99816" lon="4.82119">
        <ele>268</ele>
        <time>2017-03-29T09:04:44Z</time>
      </trkpt>
      <trkpt lat="45.9982" lon="4.82119">
        <ele>268</ele>
        <time>2017-03-29T09:04:45Z</time>
      </trkpt>
      <trkpt lat="45.99828" lon="4.82118">
        <ele>268</ele>
        <time>2017-03-29T09:04:47Z</time>
      </trkpt>
      <trkpt lat="45.99832" lon="4.82118">
        <ele>268</ele>
        <time>2017-03-29T09:04:48Z</time>
      </trkpt>
      <trkpt lat="45.9984" lon="4.82116">
        <ele>267</ele>
        <time>2017-03-29T09:04:50Z</time>
      </trkpt>
      <trkpt lat="45.99844" lon="4.82115">
        <ele>267</ele>
        <time>2017-03-29T09:04:51Z</time>
      </trkpt>
      <trkpt lat="45.99853" lon="4.82113">
        <ele>267</ele>
        <time>2017-03-29T09:04:53Z</time>
      </trkpt>
      <trkpt lat="45.99857" lon="4.82112">
        <ele>267</ele>
        <time>2017-03-29T09:04:54Z</time>
      </trkpt>
      <trkpt lat="45.99862" lon="4.82111">
        <ele>267</ele>
        <time>2017-03-29T09:04:55Z</time>
      </trkpt>
      <trkpt lat="45.99866" lon="4.8211">
        <ele>266</ele>
        <time>2017-03-29T09:04:56Z</time>
      </trkpt>
      <trkpt lat="45.99871" lon="4.82108">
        <ele>266</ele>
        <time>2017-03-29T09:04:57Z</time>
      </trkpt>
      <trkpt lat="45.99877" lon="4.82107">
        <ele>266</ele>
        <time>2017-03-29T09:04:58Z</time>
      </trkpt>
      <trkpt lat="45.99882" lon="4.82106">
        <ele>266</ele>
        <time>2017-03-29T09:04:59Z</time>
      </trkpt>
      <trkpt lat="45.99887" lon="4.82105">
        <ele>266</ele>
        <time>2017-03-29T09:05:00Z</time>
      </trkpt>
      <trkpt lat="45.99892" lon="4.82104">
        <ele>266</ele>
        <time>2017-03-29T09:05:01Z</time>
      </trkpt>
      <trkpt lat="45.99897" lon="4.82103">
        <ele>266</ele>
        <time>2017-03-29T09:05:02Z</time>
      </trkpt>
      <trkpt lat="45.99902" lon="4.82102">
        <ele>266</ele>
        <time>2017-03-29T09:05:03Z</time>
      </trkpt>
      <trkpt lat="45.99906" lon="4.82101">
        <ele>265</ele>
        <time>2017-03-29T09:05:04Z</time>
      </trkpt>
      <trkpt lat="45.99911" lon="4.821">
        <ele>265</ele>
        <time>2017-03-29T09:05:05Z</time>
      </trkpt>
      <trkpt lat="45.99916" lon="4.82098">
        <ele>265</ele>
        <time>2017-03-29T09:05:06Z</time>
      </trkpt>
      <trkpt lat="45.9992" lon="4.82097">
        <ele>264</ele>
        <time>2017-03-29T09:05:07Z</time>
      </trkpt>
      <trkpt lat="45.99925" lon="4.82096">
        <ele>264</ele>
        <time>2017-03-29T09:05:08Z</time>
      </trkpt>
      <trkpt lat="45.9993" lon="4.82095">
        <ele>264</ele>
        <time>2017-03-29T09:05:09Z</time>
      </trkpt>
      <trkpt lat="45.99935" lon="4.82094">
        <ele>264</ele>
        <time>2017-03-29T09:05:10Z</time>
      </trkpt>
      <trkpt lat="45.9994" lon="4.82092">
        <ele>264</ele>
        <time>2017-03-29T09:05:11Z</time>
      </trkpt>
      <trkpt lat="45.99945" lon="4.82091">
        <ele>264</ele>
        <time>2017-03-29T09:05:12Z</time>
      </trkpt>
      <trkpt lat="45.99949" lon="4.8209">
        <ele>264</ele>
        <time>2017-03-29T09:05:13Z</time>
      </trkpt>
      <trkpt lat="45.99955" lon="4.82089">
        <ele>264</ele>
        <time>2017-03-29T09:05:14Z</time>
      </trkpt>
      <trkpt lat="45.9996" lon="4.82088">
        <ele>264</ele>
        <time>2017-03-29T09:05:15Z</time>
      </trkpt>
      <trkpt lat="45.99965" lon="4.82087">
        <ele>264</ele>
        <time>2017-03-29T09:05:16Z</time>
      </trkpt>
      <trkpt lat="45.9997" lon="4.82086">
        <ele>264</ele>
        <time>2017-03-29T09:05:17Z</time>
      </trkpt>
      <trkpt lat="45.99975" lon="4.82085">
        <ele>263</ele>
        <time>2017-03-29T09:05:18Z</time>
      </trkpt>
      <trkpt lat="45.9998" lon="4.82085">
        <ele>263</ele>
        <time>2017-03-29T09:05:19Z</time>
      </trkpt>
      <trkpt lat="45.99986" lon="4.82084">
        <ele>263</ele>
        <time>2017-03-29T09:05:20Z</time>
      </trkpt>
      <trkpt lat="45.99991" lon="4.82084">
        <ele>263</ele>
        <time>2017-03-29T09:05:21Z</time>
      </trkpt>
      <trkpt lat="45.99996" lon="4.82084">
        <ele>262</ele>
        <time>2017-03-29T09:05:22Z</time>
      </trkpt>
      <trkpt lat="46.00001" lon="4.82083">
        <ele>262</ele>
        <time>2017-03-29T09:05:23Z</time>
      </trkpt>
      <trkpt lat="46.00006" lon="4.82082">
        <ele>261</ele>
        <time>2017-03-29T09:05:24Z</time>
      </trkpt>
      <trkpt lat="46.00011" lon="4.82082">
        <ele>261</ele>
        <time>2017-03-29T09:05:25Z</time>
      </trkpt>
      <trkpt lat="46.00016" lon="4.82082">
        <ele>261</ele>
        <time>2017-03-29T09:05:26Z</time>
      </trkpt>
      <trkpt lat="46.00022" lon="4.82081">
        <ele>261</ele>
        <time>2017-03-29T09:05:27Z</time>
      </trkpt>
      <trkpt lat="46.00027" lon="4.82081">
        <ele>260</ele>
        <time>2017-03-29T09:05:28Z</time>
      </trkpt>
      <trkpt lat="46.00032" lon="4.82081">
        <ele>260</ele>
        <time>2017-03-29T09:05:29Z</time>
      </trkpt>
      <trkpt lat="46.00038" lon="4.8208">
        <ele>260</ele>
        <time>2017-03-29T09:05:30Z</time>
      </trkpt>
      <trkpt lat="46.00043" lon="4.82079">
        <ele>260</ele>
        <time>2017-03-29T09:05:31Z</time>
      </trkpt>
      <trkpt lat="46.00048" lon="4.82079">
        <ele>260</ele>
        <time>2017-03-29T09:05:32Z</time>
      </trkpt>
      <trkpt lat="46.00053" lon="4.8208">
        <ele>260</ele>
        <time>2017-03-29T09:05:33Z</time>
      </trkpt>
      <trkpt lat="46.00058" lon="4.8208">
        <ele>260</ele>
        <time>2017-03-29T09:05:34Z</time>
      </trkpt>
      <trkpt lat="46.00063" lon="4.82079">
        <ele>260</ele>
        <time>2017-03-29T09:05:35Z</time>
      </trkpt>
      <trkpt lat="46.00069" lon="4.82078">
        <ele>260</ele>
        <time>2017-03-29T09:05:36Z</time>
      </trkpt>
      <trkpt lat="46.00075" lon="4.82077">
        <ele>260</ele>
        <time>2017-03-29T09:05:37Z</time>
      </trkpt>
      <trkpt lat="46.00081" lon="4.82077">
        <ele>260</ele>
        <time>2017-03-29T09:05:38Z</time>
      </trkpt>
      <trkpt lat="46.00087" lon="4.82077">
        <ele>259</ele>
        <time>2017-03-29T09:05:39Z</time>
      </trkpt>
      <trkpt lat="46.00093" lon="4.82076">
        <ele>259</ele>
        <time>2017-03-29T09:05:40Z</time>
      </trkpt>
      <trkpt lat="46.00099" lon="4.82076">
        <ele>259</ele>
        <time>2017-03-29T09:05:41Z</time>
      </trkpt>
      <trkpt lat="46.00105" lon="4.82074">
        <ele>258</ele>
        <time>2017-03-29T09:05:42Z</time>
      </trkpt>
      <trkpt lat="46.00111" lon="4.82073">
        <ele>258</ele>
        <time>2017-03-29T09:05:43Z</time>
      </trkpt>
      <trkpt lat="46.00117" lon="4.82071">
        <ele>258</ele>
        <time>2017-03-29T09:05:44Z</time>
      </trkpt>
      <trkpt lat="46.00124" lon="4.82068">
        <ele>258</ele>
        <time>2017-03-29T09:05:45Z</time>
      </trkpt>
      <trkpt lat="46.0013" lon="4.82066">
        <ele>257</ele>
        <time>2017-03-29T09:05:46Z</time>
      </trkpt>
      <trkpt lat="46.00136" lon="4.82063">
        <ele>257</ele>
        <time>2017-03-29T09:05:47Z</time>
      </trkpt>
      <trkpt lat="46.00142" lon="4.8206">
        <ele>257</ele>
        <time>2017-03-29T09:05:48Z</time>
      </trkpt>
      <trkpt lat="46.00148" lon="4.82057">
        <ele>257</ele>
        <time>2017-03-29T09:05:49Z</time>
      </trkpt>
      <trkpt lat="46.00154" lon="4.82054">
        <ele>257</ele>
        <time>2017-03-29T09:05:50Z</time>
      </trkpt>
      <trkpt lat="46.0016" lon="4.82051">
        <ele>257</ele>
        <time>2017-03-29T09:05:51Z</time>
      </trkpt>
      <trkpt lat="46.00166" lon="4.82048">
        <ele>257</ele>
        <time>2017-03-29T09:05:52Z</time>
      </trkpt>
      <trkpt lat="46.00172" lon="4.82045">
        <ele>256</ele>
        <time>2017-03-29T09:05:53Z</time>
      </trkpt>
      <trkpt lat="46.00178" lon="4.82041">
        <ele>255</ele>
        <time>2017-03-29T09:05:54Z</time>
      </trkpt>
      <trkpt lat="46.00183" lon="4.82038">
        <ele>255</ele>
        <time>2017-03-29T09:05:55Z</time>
      </trkpt>
      <trkpt lat="46.00189" lon="4.82036">
        <ele>255</ele>
        <time>2017-03-29T09:05:56Z</time>
      </trkpt>
      <trkpt lat="46.00194" lon="4.82033">
        <ele>255</ele>
        <time>2017-03-29T09:05:57Z</time>
      </trkpt>
      <trkpt lat="46.002" lon="4.8203">
        <ele>255</ele>
        <time>2017-03-29T09:05:58Z</time>
      </trkpt>
      <trkpt lat="46.00205" lon="4.82027">
        <ele>255</ele>
        <time>2017-03-29T09:05:59Z</time>
      </trkpt>
      <trkpt lat="46.0021" lon="4.82024">
        <ele>255</ele>
        <time>2017-03-29T09:06:00Z</time>
      </trkpt>
      <trkpt lat="46.00215" lon="4.82021">
        <ele>255</ele>
        <time>2017-03-29T09:06:01Z</time>
      </trkpt>
      <trkpt lat="46.0022" lon="4.82017">
        <ele>255</ele>
        <time>2017-03-29T09:06:02Z</time>
      </trkpt>
      <trkpt lat="46.00225" lon="4.82014">
        <ele>255</ele>
        <time>2017-03-29T09:06:03Z</time>
      </trkpt>
      <trkpt lat="46.00231" lon="4.82011">
        <ele>255</ele>
        <time>2017-03-29T09:06:04Z</time>
      </trkpt>
      <trkpt lat="46.00236" lon="4.82007">
        <ele>255</ele>
        <time>2017-03-29T09:06:05Z</time>
      </trkpt>
      <trkpt lat="46.0024" lon="4.82004">
        <ele>254</ele>
        <time>2017-03-29T09:06:06Z</time>
      </trkpt>
      <trkpt lat="46.00245" lon="4.82001">
        <ele>254</ele>
        <time>2017-03-29T09:06:07Z</time>
      </trkpt>
      <trkpt lat="46.0025" lon="4.81998">
        <ele>254</ele>
        <time>2017-03-29T09:06:08Z</time>
      </trkpt>
      <trkpt lat="46.00254" lon="4.81995">
        <ele>254</ele>
        <time>2017-03-29T09:06:09Z</time>
      </trkpt>
      <trkpt lat="46.00258" lon="4.81993">
        <ele>254</ele>
        <time>2017-03-29T09:06:10Z</time>
      </trkpt>
      <trkpt lat="46.00262" lon="4.8199">
        <ele>254</ele>
        <time>2017-03-29T09:06:11Z</time>
      </trkpt>
      <trkpt lat="46.00266" lon="4.81987">
        <ele>254</ele>
        <time>2017-03-29T09:06:12Z</time>
      </trkpt>
      <trkpt lat="46.00271" lon="4.81984">
        <ele>254</ele>
        <time>2017-03-29T09:06:13Z</time>
      </trkpt>
      <trkpt lat="46.00275" lon="4.81982">
        <ele>255</ele>
        <time>2017-03-29T09:06:14Z</time>
      </trkpt>
      <trkpt lat="46.00279" lon="4.81979">
        <ele>255</ele>
        <time>2017-03-29T09:06:15Z</time>
      </trkpt>
      <trkpt lat="46.00283" lon="4.81976">
        <ele>255</ele>
        <time>2017-03-29T09:06:16Z</time>
      </trkpt>
      <trkpt lat="46.00287" lon="4.81972">
        <ele>255</ele>
        <time>2017-03-29T09:06:17Z</time>
      </trkpt>
      <trkpt lat="46.00292" lon="4.81969">
        <ele>255</ele>
        <time>2017-03-29T09:06:18Z</time>
      </trkpt>
      <trkpt lat="46.00299" lon="4.81963">
        <ele>255</ele>
        <time>2017-03-29T09:06:20Z</time>
      </trkpt>
      <trkpt lat="46.00303" lon="4.8196">
        <ele>255</ele>
        <time>2017-03-29T09:06:21Z</time>
      </trkpt>
      <trkpt lat="46.0031" lon="4.81954">
        <ele>255</ele>
        <time>2017-03-29T09:06:23Z</time>
      </trkpt>
      <trkpt lat="46.00314" lon="4.8195">
        <ele>255</ele>
        <time>2017-03-29T09:06:24Z</time>
      </trkpt>
      <trkpt lat="46.00318" lon="4.81946">
        <ele>255</ele>
        <time>2017-03-29T09:06:25Z</time>
      </trkpt>
      <trkpt lat="46.00323" lon="4.81942">
        <ele>255</ele>
        <time>2017-03-29T09:06:26Z</time>
      </trkpt>
      <trkpt lat="46.00327" lon="4.81938">
        <ele>255</ele>
        <time>2017-03-29T09:06:27Z</time>
      </trkpt>
      <trkpt lat="46.00332" lon="4.81934">
        <ele>255</ele>
        <time>2017-03-29T09:06:28Z</time>
      </trkpt>
      <trkpt lat="46.00336" lon="4.8193">
        <ele>256</ele>
        <time>2017-03-29T09:06:29Z</time>
      </trkpt>
      <trkpt lat="46.00341" lon="4.81925">
        <ele>256</ele>
        <time>2017-03-29T09:06:30Z</time>
      </trkpt>
      <trkpt lat="46.00346" lon="4.81921">
        <ele>256</ele>
        <time>2017-03-29T09:06:31Z</time>
      </trkpt>
      <trkpt lat="46.0035" lon="4.81917">
        <ele>256</ele>
        <time>2017-03-29T09:06:32Z</time>
      </trkpt>
      <trkpt lat="46.00354" lon="4.81912">
        <ele>256</ele>
        <time>2017-03-29T09:06:33Z</time>
      </trkpt>
      <trkpt lat="46.00359" lon="4.81908">
        <ele>256</ele>
        <time>2017-03-29T09:06:34Z</time>
      </trkpt>
      <trkpt lat="46.00363" lon="4.81904">
        <ele>255</ele>
        <time>2017-03-29T09:06:35Z</time>
      </trkpt>
      <trkpt lat="46.00368" lon="4.819">
        <ele>255</ele>
        <time>2017-03-29T09:06:36Z</time>
      </trkpt>
      <trkpt lat="46.00372" lon="4.81896">
        <ele>255</ele>
        <time>2017-03-29T09:06:37Z</time>
      </trkpt>
      <trkpt lat="46.00376" lon="4.81892">
        <ele>255</ele>
        <time>2017-03-29T09:06:38Z</time>
      </trkpt>
      <trkpt lat="46.0038" lon="4.81888">
        <ele>255</ele>
        <time>2017-03-29T09:06:39Z</time>
      </trkpt>
      <trkpt lat="46.00385" lon="4.81884">
        <ele>255</ele>
        <time>2017-03-29T09:06:40Z</time>
      </trkpt>
      <trkpt lat="46.00389" lon="4.8188">
        <ele>255</ele>
        <time>2017-03-29T09:06:41Z</time>
      </trkpt>
      <trkpt lat="46.00393" lon="4.81876">
        <ele>255</ele>
        <time>2017-03-29T09:06:42Z</time>
      </trkpt>
      <trkpt lat="46.00398" lon="4.81872">
        <ele>255</ele>
        <time>2017-03-29T09:06:43Z</time>
      </trkpt>
      <trkpt lat="46.00403" lon="4.81868">
        <ele>255</ele>
        <time>2017-03-29T09:06:44Z</time>
      </trkpt>
      <trkpt lat="46.00407" lon="4.81863">
        <ele>255</ele>
        <time>2017-03-29T09:06:45Z</time>
      </trkpt>
      <trkpt lat="46.00412" lon="4.81859">
        <ele>255</ele>
        <time>2017-03-29T09:06:46Z</time>
      </trkpt>
      <trkpt lat="46.00416" lon="4.81854">
        <ele>255</ele>
        <time>2017-03-29T09:06:47Z</time>
      </trkpt>
      <trkpt lat="46.0042" lon="4.8185">
        <ele>254</ele>
        <time>2017-03-29T09:06:48Z</time>
      </trkpt>
      <trkpt lat="46.00425" lon="4.81845">
        <ele>254</ele>
        <time>2017-03-29T09:06:49Z</time>
      </trkpt>
      <trkpt lat="46.00429" lon="4.81841">
        <ele>254</ele>
        <time>2017-03-29T09:06:50Z</time>
      </trkpt>
      <trkpt lat="46.00433" lon="4.81837">
        <ele>254</ele>
        <time>2017-03-29T09:06:51Z</time>
      </trkpt>
      <trkpt lat="46.00437" lon="4.81834">
        <ele>254</ele>
        <time>2017-03-29T09:06:52Z</time>
      </trkpt>
      <trkpt lat="46.00441" lon="4.8183">
        <ele>254</ele>
        <time>2017-03-29T09:06:53Z</time>
      </trkpt>
      <trkpt lat="46.00445" lon="4.81826">
        <ele>254</ele>
        <time>2017-03-29T09:06:54Z</time>
      </trkpt>
      <trkpt lat="46.00449" lon="4.81822">
        <ele>254</ele>
        <time>2017-03-29T09:06:55Z</time>
      </trkpt>
      <trkpt lat="46.00453" lon="4.81817">
        <ele>254</ele>
        <time>2017-03-29T09:06:56Z</time>
      </trkpt>
      <trkpt lat="46.00457" lon="4.81812">
        <ele>254</ele>
        <time>2017-03-29T09:06:57Z</time>
      </trkpt>
      <trkpt lat="46.00461" lon="4.81808">
        <ele>254</ele>
        <time>2017-03-29T09:06:58Z</time>
      </trkpt>
      <trkpt lat="46.00465" lon="4.81803">
        <ele>254</ele>
        <time>2017-03-29T09:06:59Z</time>
      </trkpt>
      <trkpt lat="46.00469" lon="4.81799">
        <ele>254</ele>
        <time>2017-03-29T09:07:00Z</time>
      </trkpt>
      <trkpt lat="46.00474" lon="4.8179">
        <ele>255</ele>
        <time>2017-03-29T09:07:02Z</time>
      </trkpt>
      <trkpt lat="46.00477" lon="4.81787">
        <ele>255</ele>
        <time>2017-03-29T09:07:03Z</time>
      </trkpt>
      <trkpt lat="46.00484" lon="4.81785">
        <ele>255</ele>
        <time>2017-03-29T09:07:05Z</time>
      </trkpt>
      <trkpt lat="46.00488" lon="4.81786">
        <ele>255</ele>
        <time>2017-03-29T09:07:06Z</time>
      </trkpt>
      <trkpt lat="46.00495" lon="4.81793">
        <ele>254</ele>
        <time>2017-03-29T09:07:08Z</time>
      </trkpt>
      <trkpt lat="46.00499" lon="4.81796">
        <ele>254</ele>
        <time>2017-03-29T09:07:09Z</time>
      </trkpt>
      <trkpt lat="46.00504" lon="4.81798">
        <ele>255</ele>
        <time>2017-03-29T09:07:10Z</time>
      </trkpt>
      <trkpt lat="46.00509" lon="4.81798">
        <ele>255</ele>
        <time>2017-03-29T09:07:11Z</time>
      </trkpt>
      <trkpt lat="46.00513" lon="4.81797">
        <ele>255</ele>
        <time>2017-03-29T09:07:12Z</time>
      </trkpt>
      <trkpt lat="46.00517" lon="4.81793">
        <ele>255</ele>
        <time>2017-03-29T09:07:13Z</time>
      </trkpt>
      <trkpt lat="46.00521" lon="4.81788">
        <ele>255</ele>
        <time>2017-03-29T09:07:14Z</time>
      </trkpt>
      <trkpt lat="46.00522" lon="4.81782">
        <ele>255</ele>
        <time>2017-03-29T09:07:15Z</time>
      </trkpt>
      <trkpt lat="46.00524" lon="4.81775">
        <ele>255</ele>
        <time>2017-03-29T09:07:16Z</time>
      </trkpt>
      <trkpt lat="46.00524" lon="4.81768">
        <ele>255</ele>
        <time>2017-03-29T09:07:17Z</time>
      </trkpt>
      <trkpt lat="46.00524" lon="4.81761">
        <ele>255</ele>
        <time>2017-03-29T09:07:18Z</time>
      </trkpt>
      <trkpt lat="46.00523" lon="4.81754">
        <ele>255</ele>
        <time>2017-03-29T09:07:19Z</time>
      </trkpt>
      <trkpt lat="46.00522" lon="4.81748">
        <ele>255</ele>
        <time>2017-03-29T09:07:20Z</time>
      </trkpt>
      <trkpt lat="46.0052" lon="4.81742">
        <ele>255</ele>
        <time>2017-03-29T09:07:21Z</time>
      </trkpt>
      <trkpt lat="46.0052" lon="4.81735">
        <ele>255</ele>
        <time>2017-03-29T09:07:22Z</time>
      </trkpt>
      <trkpt lat="46.0052" lon="4.81728">
        <ele>255</ele>
        <time>2017-03-29T09:07:23Z</time>
      </trkpt>
      <trkpt lat="46.0052" lon="4.81716">
        <ele>255</ele>
        <time>2017-03-29T09:07:25Z</time>
      </trkpt>
      <trkpt lat="46.00521" lon="4.8171">
        <ele>255</ele>
        <time>2017-03-29T09:07:26Z</time>
      </trkpt>
      <trkpt lat="46.0052" lon="4.81698">
        <ele>255</ele>
        <time>2017-03-29T09:07:28Z</time>
      </trkpt>
      <trkpt lat="46.0052" lon="4.81692">
        <ele>255</ele>
        <time>2017-03-29T09:07:29Z</time>
      </trkpt>
      <trkpt lat="46.00519" lon="4.81685">
        <ele>255</ele>
        <time>2017-03-29T09:07:30Z</time>
      </trkpt>
      <trkpt lat="46.00519" lon="4.81678">
        <ele>255</ele>
        <time>2017-03-29T09:07:31Z</time>
      </trkpt>
      <trkpt lat="46.00519" lon="4.8167">
        <ele>255</ele>
        <time>2017-03-29T09:07:32Z</time>
      </trkpt>
      <trkpt lat="46.00519" lon="4.81663">
        <ele>255</ele>
        <time>2017-03-29T09:07:33Z</time>
      </trkpt>
      <trkpt lat="46.00519" lon="4.81655">
        <ele>255</ele>
        <time>2017-03-29T09:07:34Z</time>
      </trkpt>
      <trkpt lat="46.00519" lon="4.81646">
        <ele>254</ele>
        <time>2017-03-29T09:07:35Z</time>
      </trkpt>
      <trkpt lat="46.0052" lon="4.81638">
        <ele>254</ele>
        <time>2017-03-29T09:07:36Z</time>
      </trkpt>
      <trkpt lat="46.0052" lon="4.8163">
        <ele>254</ele>
        <time>2017-03-29T09:07:37Z</time>
      </trkpt>
      <trkpt lat="46.00521" lon="4.81621">
        <ele>254</ele>
        <time>2017-03-29T09:07:38Z</time>
      </trkpt>
      <trkpt lat="46.00522" lon="4.81613">
        <ele>254</ele>
        <time>2017-03-29T09:07:39Z</time>
      </trkpt>
      <trkpt lat="46.00523" lon="4.81605">
        <ele>254</ele>
        <time>2017-03-29T09:07:40Z</time>
      </trkpt>
      <trkpt lat="46.00524" lon="4.81596">
        <ele>254</ele>
        <time>2017-03-29T09:07:41Z</time>
      </trkpt>
      <trkpt lat="46.00525" lon="4.81588">
        <ele>254</ele>
        <time>2017-03-29T09:07:42Z</time>
      </trkpt>
      <trkpt lat="46.00526" lon="4.8158">
        <ele>253</ele>
        <time>2017-03-29T09:07:43Z</time>
      </trkpt>
      <trkpt lat="46.00528" lon="4.81571">
        <ele>253</ele>
        <time>2017-03-29T09:07:44Z</time>
      </trkpt>
      <trkpt lat="46.00529" lon="4.81563">
        <ele>253</ele>
        <time>2017-03-29T09:07:45Z</time>
      </trkpt>
      <trkpt lat="46.0053" lon="4.81555">
        <ele>253</ele>
        <time>2017-03-29T09:07:46Z</time>
      </trkpt>
      <trkpt lat="46.00531" lon="4.81547">
        <ele>253</ele>
        <time>2017-03-29T09:07:47Z</time>
      </trkpt>
      <trkpt lat="46.00532" lon="4.81539">
        <ele>253</ele>
        <time>2017-03-29T09:07:48Z</time>
      </trkpt>
      <trkpt lat="46.00533" lon="4.81532">
        <ele>253</ele>
        <time>2017-03-29T09:07:49Z</time>
      </trkpt>
      <trkpt lat="46.00534" lon="4.81524">
        <ele>253</ele>
        <time>2017-03-29T09:07:50Z</time>
      </trkpt>
      <trkpt lat="46.00535" lon="4.81517">
        <ele>253</ele>
        <time>2017-03-29T09:07:51Z</time>
      </trkpt>
      <trkpt lat="46.00536" lon="4.8151">
        <ele>253</ele>
        <time>2017-03-29T09:07:52Z</time>
      </trkpt>
      <trkpt lat="46.00537" lon="4.81502">
        <ele>253</ele>
        <time>2017-03-29T09:07:53Z</time>
      </trkpt>
      <trkpt lat="46.00538" lon="4.81495">
        <ele>252</ele>
        <time>2017-03-29T09:07:54Z</time>
      </trkpt>
      <trkpt lat="46.00539" lon="4.81487">
        <ele>252</ele>
        <time>2017-03-29T09:07:55Z</time>
      </trkpt>
      <trkpt lat="46.0054" lon="4.8148">
        <ele>252</ele>
        <time>2017-03-29T09:07:56Z</time>
      </trkpt>
      <trkpt lat="46.00541" lon="4.81472">
        <ele>252</ele>
        <time>2017-03-29T09:07:57Z</time>
      </trkpt>
      <trkpt lat="46.00542" lon="4.81465">
        <ele>252</ele>
        <time>2017-03-29T09:07:58Z</time>
      </trkpt>
      <trkpt lat="46.00543" lon="4.81457">
        <ele>253</ele>
        <time>2017-03-29T09:07:59Z</time>
      </trkpt>
      <trkpt lat="46.00543" lon="4.8145">
        <ele>253</ele>
        <time>2017-03-29T09:08:00Z</time>
      </trkpt>
      <trkpt lat="46.00544" lon="4.81442">
        <ele>253</ele>
        <time>2017-03-29T09:08:01Z</time>
      </trkpt>
      <trkpt lat="46.00545" lon="4.81434">
        <ele>253</ele>
        <time>2017-03-29T09:08:02Z</time>
      </trkpt>
      <trkpt lat="46.00546" lon="4.81426">
        <ele>253</ele>
        <time>2017-03-29T09:08:03Z</time>
      </trkpt>
      <trkpt lat="46.00547" lon="4.81418">
        <ele>253</ele>
        <time>2017-03-29T09:08:04Z</time>
      </trkpt>
      <trkpt lat="46.00548" lon="4.81411">
        <ele>253</ele>
        <time>2017-03-29T09:08:05Z</time>
      </trkpt>
      <trkpt lat="46.00549" lon="4.81403">
        <ele>253</ele>
        <time>2017-03-29T09:08:06Z</time>
      </trkpt>
      <trkpt lat="46.0055" lon="4.81396">
        <ele>254</ele>
        <time>2017-03-29T09:08:07Z</time>
      </trkpt>
      <trkpt lat="46.0055" lon="4.81388">
        <ele>254</ele>
        <time>2017-03-29T09:08:08Z</time>
      </trkpt>
      <trkpt lat="46.00551" lon="4.81381">
        <ele>254</ele>
        <time>2017-03-29T09:08:09Z</time>
      </trkpt>
      <trkpt lat="46.00552" lon="4.81373">
        <ele>254</ele>
        <time>2017-03-29T09:08:10Z</time>
      </trkpt>
      <trkpt lat="46.00553" lon="4.81366">
        <ele>254</ele>
        <time>2017-03-29T09:08:11Z</time>
      </trkpt>
      <trkpt lat="46.00554" lon="4.81359">
        <ele>254</ele>
        <time>2017-03-29T09:08:12Z</time>
      </trkpt>
      <trkpt lat="46.00554" lon="4.81353">
        <ele>254</ele>
        <time>2017-03-29T09:08:13Z</time>
      </trkpt>
      <trkpt lat="46.00556" lon="4.8134">
        <ele>254</ele>
        <time>2017-03-29T09:08:15Z</time>
      </trkpt>
      <trkpt lat="46.00557" lon="4.81334">
        <ele>255</ele>
        <time>2017-03-29T09:08:16Z</time>
      </trkpt>
      <trkpt lat="46.00558" lon="4.81322">
        <ele>257</ele>
        <time>2017-03-29T09:08:18Z</time>
      </trkpt>
      <trkpt lat="46.00558" lon="4.81317">
        <ele>257</ele>
        <time>2017-03-29T09:08:19Z</time>
      </trkpt>
      <trkpt lat="46.0056" lon="4.81305">
        <ele>257</ele>
        <time>2017-03-29T09:08:21Z</time>
      </trkpt>
      <trkpt lat="46.00561" lon="4.813">
        <ele>257</ele>
        <time>2017-03-29T09:08:22Z</time>
      </trkpt>
      <trkpt lat="46.00562" lon="4.81289">
        <ele>258</ele>
        <time>2017-03-29T09:08:24Z</time>
      </trkpt>
      <trkpt lat="46.00563" lon="4.81283">
        <ele>258</ele>
        <time>2017-03-29T09:08:25Z</time>
      </trkpt>
      <trkpt lat="46.00564" lon="4.81272">
        <ele>258</ele>
        <time>2017-03-29T09:08:27Z</time>
      </trkpt>
      <trkpt lat="46.00564" lon="4.81266">
        <ele>258</ele>
        <time>2017-03-29T09:08:28Z</time>
      </trkpt>
      <trkpt lat="46.00566" lon="4.81255">
        <ele>259</ele>
        <time>2017-03-29T09:08:30Z</time>
      </trkpt>
      <trkpt lat="46.00567" lon="4.8125">
        <ele>260</ele>
        <time>2017-03-29T09:08:31Z</time>
      </trkpt>
      <trkpt lat="46.00569" lon="4.81239">
        <ele>261</ele>
        <time>2017-03-29T09:08:33Z</time>
      </trkpt>
      <trkpt lat="46.0057" lon="4.81233">
        <ele>261</ele>
        <time>2017-03-29T09:08:34Z</time>
      </trkpt>
      <trkpt lat="46.00571" lon="4.81223">
        <ele>261</ele>
        <time>2017-03-29T09:08:36Z</time>
      </trkpt>
      <trkpt lat="46.00572" lon="4.81218">
        <ele>261</ele>
        <time>2017-03-29T09:08:37Z</time>
      </trkpt>
      <trkpt lat="46.00573" lon="4.81207">
        <ele>261</ele>
        <time>2017-03-29T09:08:39Z</time>
      </trkpt>
      <trkpt lat="46.00574" lon="4.81201">
        <ele>261</ele>
        <time>2017-03-29T09:08:40Z</time>
      </trkpt>
      <trkpt lat="46.00576" lon="4.81191">
        <ele>262</ele>
        <time>2017-03-29T09:08:42Z</time>
      </trkpt>
      <trkpt lat="46.00577" lon="4.81185">
        <ele>262</ele>
        <time>2017-03-29T09:08:43Z</time>
      </trkpt>
      <trkpt lat="46.00578" lon="4.81174">
        <ele>262</ele>
        <time>2017-03-29T09:08:45Z</time>
      </trkpt>
      <trkpt lat="46.00579" lon="4.81169">
        <ele>263</ele>
        <time>2017-03-29T09:08:46Z</time>
      </trkpt>
      <trkpt lat="46.0058" lon="4.81158">
        <ele>263</ele>
        <time>2017-03-29T09:08:48Z</time>
      </trkpt>
      <trkpt lat="46.00581" lon="4.81152">
        <ele>263</ele>
        <time>2017-03-29T09:08:49Z</time>
      </trkpt>
      <trkpt lat="46.00583" lon="4.81142">
        <ele>263</ele>
        <time>2017-03-29T09:08:51Z</time>
      </trkpt>
      <trkpt lat="46.00584" lon="4.81136">
        <ele>264</ele>
        <time>2017-03-29T09:08:52Z</time>
      </trkpt>
      <trkpt lat="46.00585" lon="4.81126">
        <ele>264</ele>
        <time>2017-03-29T09:08:54Z</time>
      </trkpt>
      <trkpt lat="46.00586" lon="4.81121">
        <ele>264</ele>
        <time>2017-03-29T09:08:55Z</time>
      </trkpt>
      <trkpt lat="46.00587" lon="4.81111">
        <ele>264</ele>
        <time>2017-03-29T09:08:57Z</time>
      </trkpt>
      <trkpt lat="46.00588" lon="4.81105">
        <ele>264</ele>
        <time>2017-03-29T09:08:58Z</time>
      </trkpt>
      <trkpt lat="46.0059" lon="4.81094">
        <ele>263</ele>
        <time>2017-03-29T09:09:00Z</time>
      </trkpt>
      <trkpt lat="46.0059" lon="4.81089">
        <ele>263</ele>
        <time>2017-03-29T09:09:01Z</time>
      </trkpt>
      <trkpt lat="46.00592" lon="4.81078">
        <ele>263</ele>
        <time>2017-03-29T09:09:03Z</time>
      </trkpt>
      <trkpt lat="46.00593" lon="4.81072">
        <ele>263</ele>
        <time>2017-03-29T09:09:04Z</time>
      </trkpt>
      <trkpt lat="46.00594" lon="4.81061">
        <ele>263</ele>
        <time>2017-03-29T09:09:06Z</time>
      </trkpt>
      <trkpt lat="46.00595" lon="4.81055">
        <ele>263</ele>
        <time>2017-03-29T09:09:07Z</time>
      </trkpt>
      <trkpt lat="46.00596" lon="4.81044">
        <ele>264</ele>
        <time>2017-03-29T09:09:09Z</time>
      </trkpt>
      <trkpt lat="46.00597" lon="4.81038">
        <ele>264</ele>
        <time>2017-03-29T09:09:10Z</time>
      </trkpt>
      <trkpt lat="46.00598" lon="4.81028">
        <ele>263</ele>
        <time>2017-03-29T09:09:12Z</time>
      </trkpt>
      <trkpt lat="46.00599" lon="4.81023">
        <ele>263</ele>
        <time>2017-03-29T09:09:13Z</time>
      </trkpt>
      <trkpt lat="46.00601" lon="4.81012">
        <ele>263</ele>
        <time>2017-03-29T09:09:15Z</time>
      </trkpt>
      <trkpt lat="46.00602" lon="4.81006">
        <ele>263</ele>
        <time>2017-03-29T09:09:16Z</time>
      </trkpt>
      <trkpt lat="46.00604" lon="4.80995">
        <ele>263</ele>
        <time>2017-03-29T09:09:18Z</time>
      </trkpt>
      <trkpt lat="46.00605" lon="4.80989">
        <ele>263</ele>
        <time>2017-03-29T09:09:19Z</time>
      </trkpt>
      <trkpt lat="46.00606" lon="4.80977">
        <ele>263</ele>
        <time>2017-03-29T09:09:21Z</time>
      </trkpt>
      <trkpt lat="46.00608" lon="4.80971">
        <ele>263</ele>
        <time>2017-03-29T09:09:22Z</time>
      </trkpt>
      <trkpt lat="46.00609" lon="4.80959">
        <ele>263</ele>
        <time>2017-03-29T09:09:24Z</time>
      </trkpt>
      <trkpt lat="46.0061" lon="4.80953">
        <ele>263</ele>
        <time>2017-03-29T09:09:25Z</time>
      </trkpt>
      <trkpt lat="46.00611" lon="4.80946">
        <ele>263</ele>
        <time>2017-03-29T09:09:26Z</time>
      </trkpt>
      <trkpt lat="46.00612" lon="4.8094">
        <ele>263</ele>
        <time>2017-03-29T09:09:27Z</time>
      </trkpt>
      <trkpt lat="46.00613" lon="4.80934">
        <ele>263</ele>
        <time>2017-03-29T09:09:28Z</time>
      </trkpt>
      <trkpt lat="46.00614" lon="4.80927">
        <ele>263</ele>
        <time>2017-03-29T09:09:29Z</time>
      </trkpt>
      <trkpt lat="46.00615" lon="4.80914">
        <ele>262</ele>
        <time>2017-03-29T09:09:31Z</time>
      </trkpt>
      <trkpt lat="46.00616" lon="4.80908">
        <ele>262</ele>
        <time>2017-03-29T09:09:32Z</time>
      </trkpt>
      <trkpt lat="46.00617" lon="4.80902">
        <ele>262</ele>
        <time>2017-03-29T09:09:33Z</time>
      </trkpt>
      <trkpt lat="46.00618" lon="4.80895">
        <ele>262</ele>
        <time>2017-03-29T09:09:34Z</time>
      </trkpt>
      <trkpt lat="46.00619" lon="4.80883">
        <ele>262</ele>
        <time>2017-03-29T09:09:36Z</time>
      </trkpt>
      <trkpt lat="46.0062" lon="4.80876">
        <ele>262</ele>
        <time>2017-03-29T09:09:37Z</time>
      </trkpt>
      <trkpt lat="46.00622" lon="4.80864">
        <ele>262</ele>
        <time>2017-03-29T09:09:39Z</time>
      </trkpt>
      <trkpt lat="46.00624" lon="4.80858">
        <ele>262</ele>
        <time>2017-03-29T09:09:40Z</time>
      </trkpt>
      <trkpt lat="46.00625" lon="4.80851">
        <ele>262</ele>
        <time>2017-03-29T09:09:41Z</time>
      </trkpt>
      <trkpt lat="46.00625" lon="4.80844">
        <ele>262</ele>
        <time>2017-03-29T09:09:42Z</time>
      </trkpt>
      <trkpt lat="46.00626" lon="4.80838">
        <ele>262</ele>
        <time>2017-03-29T09:09:43Z</time>
      </trkpt>
      <trkpt lat="46.00627" lon="4.80831">
        <ele>262</ele>
        <time>2017-03-29T09:09:44Z</time>
      </trkpt>
      <trkpt lat="46.00628" lon="4.80824">
        <ele>262</ele>
        <time>2017-03-29T09:09:45Z</time>
      </trkpt>
      <trkpt lat="46.00629" lon="4.80817">
        <ele>262</ele>
        <time>2017-03-29T09:09:46Z</time>
      </trkpt>
      <trkpt lat="46.0063" lon="4.8081">
        <ele>262</ele>
        <time>2017-03-29T09:09:47Z</time>
      </trkpt>
      <trkpt lat="46.00631" lon="4.80804">
        <ele>262</ele>
        <time>2017-03-29T09:09:48Z</time>
      </trkpt>
      <trkpt lat="46.00632" lon="4.80797">
        <ele>262</ele>
        <time>2017-03-29T09:09:49Z</time>
      </trkpt>
      <trkpt lat="46.00633" lon="4.8079">
        <ele>262</ele>
        <time>2017-03-29T09:09:50Z</time>
      </trkpt>
      <trkpt lat="46.00634" lon="4.80782">
        <ele>262</ele>
        <time>2017-03-29T09:09:51Z</time>
      </trkpt>
      <trkpt lat="46.00635" lon="4.80775">
        <ele>262</ele>
        <time>2017-03-29T09:09:52Z</time>
      </trkpt>
      <trkpt lat="46.00636" lon="4.80767">
        <ele>262</ele>
        <time>2017-03-29T09:09:53Z</time>
      </trkpt>
      <trkpt lat="46.00637" lon="4.8076">
        <ele>262</ele>
        <time>2017-03-29T09:09:54Z</time>
      </trkpt>
      <trkpt lat="46.00638" lon="4.80753">
        <ele>262</ele>
        <time>2017-03-29T09:09:55Z</time>
      </trkpt>
      <trkpt lat="46.00639" lon="4.80745">
        <ele>261</ele>
        <time>2017-03-29T09:09:56Z</time>
      </trkpt>
      <trkpt lat="46.0064" lon="4.80738">
        <ele>261</ele>
        <time>2017-03-29T09:09:57Z</time>
      </trkpt>
      <trkpt lat="46.00641" lon="4.8073">
        <ele>261</ele>
        <time>2017-03-29T09:09:58Z</time>
      </trkpt>
      <trkpt lat="46.00642" lon="4.80723">
        <ele>261</ele>
        <time>2017-03-29T09:09:59Z</time>
      </trkpt>
      <trkpt lat="46.00643" lon="4.80715">
        <ele>261</ele>
        <time>2017-03-29T09:10:00Z</time>
      </trkpt>
      <trkpt lat="46.00645" lon="4.80707">
        <ele>261</ele>
        <time>2017-03-29T09:10:01Z</time>
      </trkpt>
      <trkpt lat="46.00646" lon="4.80699">
        <ele>261</ele>
        <time>2017-03-29T09:10:02Z</time>
      </trkpt>
      <trkpt lat="46.00647" lon="4.80691">
        <ele>261</ele>
        <time>2017-03-29T09:10:03Z</time>
      </trkpt>
      <trkpt lat="46.00648" lon="4.80683">
        <ele>261</ele>
        <time>2017-03-29T09:10:04Z</time>
      </trkpt>
      <trkpt lat="46.00649" lon="4.80675">
        <ele>261</ele>
        <time>2017-03-29T09:10:05Z</time>
      </trkpt>
      <trkpt lat="46.0065" lon="4.80668">
        <ele>261</ele>
        <time>2017-03-29T09:10:06Z</time>
      </trkpt>
      <trkpt lat="46.00651" lon="4.8066">
        <ele>260</ele>
        <time>2017-03-29T09:10:07Z</time>
      </trkpt>
      <trkpt lat="46.00652" lon="4.80653">
        <ele>260</ele>
        <time>2017-03-29T09:10:08Z</time>
      </trkpt>
      <trkpt lat="46.00653" lon="4.80646">
        <ele>260</ele>
        <time>2017-03-29T09:10:09Z</time>
      </trkpt>
      <trkpt lat="46.00654" lon="4.80639">
        <ele>261</ele>
        <time>2017-03-29T09:10:10Z</time>
      </trkpt>
      <trkpt lat="46.00655" lon="4.80632">
        <ele>261</ele>
        <time>2017-03-29T09:10:11Z</time>
      </trkpt>
      <trkpt lat="46.00656" lon="4.80624">
        <ele>261</ele>
        <time>2017-03-29T09:10:12Z</time>
      </trkpt>
      <trkpt lat="46.00657" lon="4.80616">
        <ele>260</ele>
        <time>2017-03-29T09:10:13Z</time>
      </trkpt>
      <trkpt lat="46.00659" lon="4.80608">
        <ele>260</ele>
        <time>2017-03-29T09:10:14Z</time>
      </trkpt>
      <trkpt lat="46.0066" lon="4.806">
        <ele>260</ele>
        <time>2017-03-29T09:10:15Z</time>
      </trkpt>
      <trkpt lat="46.00661" lon="4.80592">
        <ele>260</ele>
        <time>2017-03-29T09:10:16Z</time>
      </trkpt>
      <trkpt lat="46.00662" lon="4.80583">
        <ele>260</ele>
        <time>2017-03-29T09:10:17Z</time>
      </trkpt>
      <trkpt lat="46.00663" lon="4.80575">
        <ele>260</ele>
        <time>2017-03-29T09:10:18Z</time>
      </trkpt>
      <trkpt lat="46.00664" lon="4.80568">
        <ele>261</ele>
        <time>2017-03-29T09:10:19Z</time>
      </trkpt>
      <trkpt lat="46.00665" lon="4.8056">
        <ele>261</ele>
        <time>2017-03-29T09:10:20Z</time>
      </trkpt>
      <trkpt lat="46.00666" lon="4.80553">
        <ele>261</ele>
        <time>2017-03-29T09:10:21Z</time>
      </trkpt>
      <trkpt lat="46.00667" lon="4.80547">
        <ele>260</ele>
        <time>2017-03-29T09:10:22Z</time>
      </trkpt>
      <trkpt lat="46.00668" lon="4.8054">
        <ele>260</ele>
        <time>2017-03-29T09:10:23Z</time>
      </trkpt>
      <trkpt lat="46.00669" lon="4.80533">
        <ele>261</ele>
        <time>2017-03-29T09:10:24Z</time>
      </trkpt>
      <trkpt lat="46.0067" lon="4.80526">
        <ele>261</ele>
        <time>2017-03-29T09:10:25Z</time>
      </trkpt>
      <trkpt lat="46.00671" lon="4.80519">
        <ele>261</ele>
        <time>2017-03-29T09:10:26Z</time>
      </trkpt>
      <trkpt lat="46.00672" lon="4.80512">
        <ele>261</ele>
        <time>2017-03-29T09:10:27Z</time>
      </trkpt>
      <trkpt lat="46.00673" lon="4.80505">
        <ele>261</ele>
        <time>2017-03-29T09:10:28Z</time>
      </trkpt>
      <trkpt lat="46.00673" lon="4.80498">
        <ele>262</ele>
        <time>2017-03-29T09:10:29Z</time>
      </trkpt>
      <trkpt lat="46.00674" lon="4.80492">
        <ele>261</ele>
        <time>2017-03-29T09:10:30Z</time>
      </trkpt>
      <trkpt lat="46.00675" lon="4.80485">
        <ele>261</ele>
        <time>2017-03-29T09:10:31Z</time>
      </trkpt>
      <trkpt lat="46.00677" lon="4.80479">
        <ele>261</ele>
        <time>2017-03-29T09:10:32Z</time>
      </trkpt>
      <trkpt lat="46.00678" lon="4.80472">
        <ele>261</ele>
        <time>2017-03-29T09:10:33Z</time>
      </trkpt>
      <trkpt lat="46.00679" lon="4.80465">
        <ele>261</ele>
        <time>2017-03-29T09:10:34Z</time>
      </trkpt>
      <trkpt lat="46.0068" lon="4.80459">
        <ele>261</ele>
        <time>2017-03-29T09:10:35Z</time>
      </trkpt>
      <trkpt lat="46.00681" lon="4.80452">
        <ele>261</ele>
        <time>2017-03-29T09:10:36Z</time>
      </trkpt>
      <trkpt lat="46.00682" lon="4.80445">
        <ele>261</ele>
        <time>2017-03-29T09:10:37Z</time>
      </trkpt>
      <trkpt lat="46.00683" lon="4.80438">
        <ele>261</ele>
        <time>2017-03-29T09:10:38Z</time>
      </trkpt>
      <trkpt lat="46.00684" lon="4.80431">
        <ele>261</ele>
        <time>2017-03-29T09:10:39Z</time>
      </trkpt>
      <trkpt lat="46.00685" lon="4.80423">
        <ele>261</ele>
        <time>2017-03-29T09:10:40Z</time>
      </trkpt>
      <trkpt lat="46.00686" lon="4.80416">
        <ele>261</ele>
        <time>2017-03-29T09:10:41Z</time>
      </trkpt>
      <trkpt lat="46.00687" lon="4.80408">
        <ele>261</ele>
        <time>2017-03-29T09:10:42Z</time>
      </trkpt>
      <trkpt lat="46.00688" lon="4.804">
        <ele>261</ele>
        <time>2017-03-29T09:10:43Z</time>
      </trkpt>
      <trkpt lat="46.00689" lon="4.80393">
        <ele>261</ele>
        <time>2017-03-29T09:10:44Z</time>
      </trkpt>
      <trkpt lat="46.0069" lon="4.80385">
        <ele>261</ele>
        <time>2017-03-29T09:10:45Z</time>
      </trkpt>
      <trkpt lat="46.00691" lon="4.80378">
        <ele>261</ele>
        <time>2017-03-29T09:10:46Z</time>
      </trkpt>
      <trkpt lat="46.00692" lon="4.8037">
        <ele>261</ele>
        <time>2017-03-29T09:10:47Z</time>
      </trkpt>
      <trkpt lat="46.00694" lon="4.80363">
        <ele>261</ele>
        <time>2017-03-29T09:10:48Z</time>
      </trkpt>
      <trkpt lat="46.00695" lon="4.80356">
        <ele>261</ele>
        <time>2017-03-29T09:10:49Z</time>
      </trkpt>
      <trkpt lat="46.00696" lon="4.80348">
        <ele>261</ele>
        <time>2017-03-29T09:10:50Z</time>
      </trkpt>
      <trkpt lat="46.00697" lon="4.80341">
        <ele>261</ele>
        <time>2017-03-29T09:10:51Z</time>
      </trkpt>
      <trkpt lat="46.00698" lon="4.80333">
        <ele>261</ele>
        <time>2017-03-29T09:10:52Z</time>
      </trkpt>
      <trkpt lat="46.00699" lon="4.80326">
        <ele>261</ele>
        <time>2017-03-29T09:10:53Z</time>
      </trkpt>
      <trkpt lat="46.007" lon="4.80318">
        <ele>261</ele>
        <time>2017-03-29T09:10:54Z</time>
      </trkpt>
      <trkpt lat="46.00701" lon="4.80311">
        <ele>261</ele>
        <time>2017-03-29T09:10:55Z</time>
      </trkpt>
      <trkpt lat="46.00702" lon="4.80303">
        <ele>261</ele>
        <time>2017-03-29T09:10:56Z</time>
      </trkpt>
      <trkpt lat="46.00703" lon="4.80296">
        <ele>261</ele>
        <time>2017-03-29T09:10:57Z</time>
      </trkpt>
      <trkpt lat="46.00704" lon="4.80288">
        <ele>261</ele>
        <time>2017-03-29T09:10:58Z</time>
      </trkpt>
      <trkpt lat="46.00706" lon="4.80281">
        <ele>261</ele>
        <time>2017-03-29T09:10:59Z</time>
      </trkpt>
      <trkpt lat="46.00707" lon="4.80274">
        <ele>261</ele>
        <time>2017-03-29T09:11:00Z</time>
      </trkpt>
      <trkpt lat="46.00708" lon="4.80267">
        <ele>261</ele>
        <time>2017-03-29T09:11:01Z</time>
      </trkpt>
      <trkpt lat="46.00709" lon="4.80259">
        <ele>261</ele>
        <time>2017-03-29T09:11:02Z</time>
      </trkpt>
      <trkpt lat="46.0071" lon="4.80251">
        <ele>261</ele>
        <time>2017-03-29T09:11:03Z</time>
      </trkpt>
      <trkpt lat="46.00711" lon="4.80243">
        <ele>260</ele>
        <time>2017-03-29T09:11:04Z</time>
      </trkpt>
      <trkpt lat="46.00712" lon="4.80235">
        <ele>260</ele>
        <time>2017-03-29T09:11:05Z</time>
      </trkpt>
      <trkpt lat="46.00713" lon="4.80226">
        <ele>260</ele>
        <time>2017-03-29T09:11:06Z</time>
      </trkpt>
      <trkpt lat="46.00714" lon="4.80217">
        <ele>260</ele>
        <time>2017-03-29T09:11:07Z</time>
      </trkpt>
      <trkpt lat="46.00715" lon="4.80208">
        <ele>260</ele>
        <time>2017-03-29T09:11:08Z</time>
      </trkpt>
      <trkpt lat="46.00717" lon="4.802">
        <ele>260</ele>
        <time>2017-03-29T09:11:09Z</time>
      </trkpt>
      <trkpt lat="46.00718" lon="4.80192">
        <ele>260</ele>
        <time>2017-03-29T09:11:10Z</time>
      </trkpt>
      <trkpt lat="46.00719" lon="4.80184">
        <ele>260</ele>
        <time>2017-03-29T09:11:11Z</time>
      </trkpt>
      <trkpt lat="46.0072" lon="4.80177">
        <ele>260</ele>
        <time>2017-03-29T09:11:12Z</time>
      </trkpt>
      <trkpt lat="46.00721" lon="4.80169">
        <ele>260</ele>
        <time>2017-03-29T09:11:13Z</time>
      </trkpt>
      <trkpt lat="46.00722" lon="4.80162">
        <ele>260</ele>
        <time>2017-03-29T09:11:14Z</time>
      </trkpt>
      <trkpt lat="46.00723" lon="4.80156">
        <ele>260</ele>
        <time>2017-03-29T09:11:15Z</time>
      </trkpt>
      <trkpt lat="46.00724" lon="4.80149">
        <ele>260</ele>
        <time>2017-03-29T09:11:16Z</time>
      </trkpt>
      <trkpt lat="46.00725" lon="4.80142">
        <ele>260</ele>
        <time>2017-03-29T09:11:17Z</time>
      </trkpt>
      <trkpt lat="46.00726" lon="4.80134">
        <ele>260</ele>
        <time>2017-03-29T09:11:18Z</time>
      </trkpt>
      <trkpt lat="46.00727" lon="4.80127">
        <ele>260</ele>
        <time>2017-03-29T09:11:19Z</time>
      </trkpt>
      <trkpt lat="46.00728" lon="4.80118">
        <ele>260</ele>
        <time>2017-03-29T09:11:20Z</time>
      </trkpt>
      <trkpt lat="46.00729" lon="4.8011">
        <ele>260</ele>
        <time>2017-03-29T09:11:21Z</time>
      </trkpt>
      <trkpt lat="46.0073" lon="4.80101">
        <ele>260</ele>
        <time>2017-03-29T09:11:22Z</time>
      </trkpt>
      <trkpt lat="46.00731" lon="4.80092">
        <ele>260</ele>
        <time>2017-03-29T09:11:23Z</time>
      </trkpt>
      <trkpt lat="46.00732" lon="4.80084">
        <ele>260</ele>
        <time>2017-03-29T09:11:24Z</time>
      </trkpt>
      <trkpt lat="46.00733" lon="4.80075">
        <ele>261</ele>
        <time>2017-03-29T09:11:25Z</time>
      </trkpt>
      <trkpt lat="46.00733" lon="4.80067">
        <ele>261</ele>
        <time>2017-03-29T09:11:26Z</time>
      </trkpt>
      <trkpt lat="46.00734" lon="4.80058">
        <ele>261</ele>
        <time>2017-03-29T09:11:27Z</time>
      </trkpt>
      <trkpt lat="46.00734" lon="4.8005">
        <ele>261</ele>
        <time>2017-03-29T09:11:28Z</time>
      </trkpt>
      <trkpt lat="46.00735" lon="4.80042">
        <ele>261</ele>
        <time>2017-03-29T09:11:29Z</time>
      </trkpt>
      <trkpt lat="46.00735" lon="4.80033">
        <ele>261</ele>
        <time>2017-03-29T09:11:30Z</time>
      </trkpt>
      <trkpt lat="46.00735" lon="4.80025">
        <ele>261</ele>
        <time>2017-03-29T09:11:31Z</time>
      </trkpt>
      <trkpt lat="46.00735" lon="4.80017">
        <ele>261</ele>
        <time>2017-03-29T09:11:32Z</time>
      </trkpt>
      <trkpt lat="46.00735" lon="4.80009">
        <ele>261</ele>
        <time>2017-03-29T09:11:33Z</time>
      </trkpt>
      <trkpt lat="46.00735" lon="4.80001">
        <ele>261</ele>
        <time>2017-03-29T09:11:34Z</time>
      </trkpt>
      <trkpt lat="46.00735" lon="4.79994">
        <ele>261</ele>
        <time>2017-03-29T09:11:35Z</time>
      </trkpt>
      <trkpt lat="46.00734" lon="4.79986">
        <ele>261</ele>
        <time>2017-03-29T09:11:36Z</time>
      </trkpt>
      <trkpt lat="46.00734" lon="4.79979">
        <ele>261</ele>
        <time>2017-03-29T09:11:37Z</time>
      </trkpt>
      <trkpt lat="46.00733" lon="4.79972">
        <ele>261</ele>
        <time>2017-03-29T09:11:38Z</time>
      </trkpt>
      <trkpt lat="46.00733" lon="4.79964">
        <ele>261</ele>
        <time>2017-03-29T09:11:39Z</time>
      </trkpt>
      <trkpt lat="46.00732" lon="4.79957">
        <ele>261</ele>
        <time>2017-03-29T09:11:40Z</time>
      </trkpt>
      <trkpt lat="46.00732" lon="4.79949">
        <ele>261</ele>
        <time>2017-03-29T09:11:41Z</time>
      </trkpt>
      <trkpt lat="46.00731" lon="4.79941">
        <ele>261</ele>
        <time>2017-03-29T09:11:42Z</time>
      </trkpt>
      <trkpt lat="46.0073" lon="4.79934">
        <ele>261</ele>
        <time>2017-03-29T09:11:43Z</time>
      </trkpt>
      <trkpt lat="46.00729" lon="4.79926">
        <ele>261</ele>
        <time>2017-03-29T09:11:44Z</time>
      </trkpt>
      <trkpt lat="46.00728" lon="4.79918">
        <ele>261</ele>
        <time>2017-03-29T09:11:45Z</time>
      </trkpt>
      <trkpt lat="46.00728" lon="4.79909">
        <ele>261</ele>
        <time>2017-03-29T09:11:46Z</time>
      </trkpt>
      <trkpt lat="46.00727" lon="4.79901">
        <ele>261</ele>
        <time>2017-03-29T09:11:47Z</time>
      </trkpt>
      <trkpt lat="46.00727" lon="4.79892">
        <ele>260</ele>
        <time>2017-03-29T09:11:48Z</time>
      </trkpt>
      <trkpt lat="46.00726" lon="4.79884">
        <ele>260</ele>
        <time>2017-03-29T09:11:49Z</time>
      </trkpt>
      <trkpt lat="46.00725" lon="4.79876">
        <ele>260</ele>
        <time>2017-03-29T09:11:50Z</time>
      </trkpt>
      <trkpt lat="46.00723" lon="4.79867">
        <ele>260</ele>
        <time>2017-03-29T09:11:51Z</time>
      </trkpt>
      <trkpt lat="46.00722" lon="4.79859">
        <ele>260</ele>
        <time>2017-03-29T09:11:52Z</time>
      </trkpt>
      <trkpt lat="46.00721" lon="4.79851">
        <ele>260</ele>
        <time>2017-03-29T09:11:53Z</time>
      </trkpt>
      <trkpt lat="46.00721" lon="4.79843">
        <ele>260</ele>
        <time>2017-03-29T09:11:54Z</time>
      </trkpt>
      <trkpt lat="46.0072" lon="4.79835">
        <ele>260</ele>
        <time>2017-03-29T09:11:55Z</time>
      </trkpt>
      <trkpt lat="46.00719" lon="4.79827">
        <ele>260</ele>
        <time>2017-03-29T09:11:56Z</time>
      </trkpt>
      <trkpt lat="46.00718" lon="4.79819">
        <ele>260</ele>
        <time>2017-03-29T09:11:57Z</time>
      </trkpt>
      <trkpt lat="46.00718" lon="4.7981">
        <ele>259</ele>
        <time>2017-03-29T09:11:58Z</time>
      </trkpt>
      <trkpt lat="46.00717" lon="4.79802">
        <ele>259</ele>
        <time>2017-03-29T09:11:59Z</time>
      </trkpt>
      <trkpt lat="46.00716" lon="4.79794">
        <ele>259</ele>
        <time>2017-03-29T09:12:00Z</time>
      </trkpt>
      <trkpt lat="46.00716" lon="4.79785">
        <ele>259</ele>
        <time>2017-03-29T09:12:01Z</time>
      </trkpt>
      <trkpt lat="46.00715" lon="4.79776">
        <ele>259</ele>
        <time>2017-03-29T09:12:02Z</time>
      </trkpt>
      <trkpt lat="46.00715" lon="4.79767">
        <ele>259</ele>
        <time>2017-03-29T09:12:03Z</time>
      </trkpt>
      <trkpt lat="46.00714" lon="4.79758">
        <ele>259</ele>
        <time>2017-03-29T09:12:04Z</time>
      </trkpt>
      <trkpt lat="46.00714" lon="4.79749">
        <ele>258</ele>
        <time>2017-03-29T09:12:05Z</time>
      </trkpt>
      <trkpt lat="46.00713" lon="4.7974">
        <ele>258</ele>
        <time>2017-03-29T09:12:06Z</time>
      </trkpt>
      <trkpt lat="46.00713" lon="4.7973">
        <ele>258</ele>
        <time>2017-03-29T09:12:07Z</time>
      </trkpt>
      <trkpt lat="46.00713" lon="4.79721">
        <ele>258</ele>
        <time>2017-03-29T09:12:08Z</time>
      </trkpt>
      <trkpt lat="46.00713" lon="4.79711">
        <ele>258</ele>
        <time>2017-03-29T09:12:09Z</time>
      </trkpt>
      <trkpt lat="46.00713" lon="4.79702">
        <ele>258</ele>
        <time>2017-03-29T09:12:10Z</time>
      </trkpt>
      <trkpt lat="46.00713" lon="4.79692">
        <ele>258</ele>
        <time>2017-03-29T09:12:11Z</time>
      </trkpt>
      <trkpt lat="46.00713" lon="4.79683">
        <ele>257</ele>
        <time>2017-03-29T09:12:12Z</time>
      </trkpt>
      <trkpt lat="46.00713" lon="4.79674">
        <ele>257</ele>
        <time>2017-03-29T09:12:13Z</time>
      </trkpt>
      <trkpt lat="46.00713" lon="4.79665">
        <ele>256</ele>
        <time>2017-03-29T09:12:14Z</time>
      </trkpt>
      <trkpt lat="46.00713" lon="4.79655">
        <ele>256</ele>
        <time>2017-03-29T09:12:15Z</time>
      </trkpt>
      <trkpt lat="46.00714" lon="4.79646">
        <ele>256</ele>
        <time>2017-03-29T09:12:16Z</time>
      </trkpt>
      <trkpt lat="46.00714" lon="4.79637">
        <ele>256</ele>
        <time>2017-03-29T09:12:17Z</time>
      </trkpt>
      <trkpt lat="46.00713" lon="4.79628">
        <ele>256</ele>
        <time>2017-03-29T09:12:18Z</time>
      </trkpt>
      <trkpt lat="46.00713" lon="4.7962">
        <ele>256</ele>
        <time>2017-03-29T09:12:19Z</time>
      </trkpt>
      <trkpt lat="46.00714" lon="4.79611">
        <ele>256</ele>
        <time>2017-03-29T09:12:20Z</time>
      </trkpt>
      <trkpt lat="46.00714" lon="4.79602">
        <ele>256</ele>
        <time>2017-03-29T09:12:21Z</time>
      </trkpt>
      <trkpt lat="46.00714" lon="4.79594">
        <ele>256</ele>
        <time>2017-03-29T09:12:22Z</time>
      </trkpt>
      <trkpt lat="46.00714" lon="4.79586">
        <ele>256</ele>
        <time>2017-03-29T09:12:23Z</time>
      </trkpt>
      <trkpt lat="46.00715" lon="4.79577">
        <ele>255</ele>
        <time>2017-03-29T09:12:24Z</time>
      </trkpt>
      <trkpt lat="46.00715" lon="4.79569">
        <ele>255</ele>
        <time>2017-03-29T09:12:25Z</time>
      </trkpt>
      <trkpt lat="46.00715" lon="4.7956">
        <ele>255</ele>
        <time>2017-03-29T09:12:26Z</time>
      </trkpt>
      <trkpt lat="46.00715" lon="4.79552">
        <ele>255</ele>
        <time>2017-03-29T09:12:27Z</time>
      </trkpt>
      <trkpt lat="46.00715" lon="4.79543">
        <ele>255</ele>
        <time>2017-03-29T09:12:28Z</time>
      </trkpt>
      <trkpt lat="46.00715" lon="4.79534">
        <ele>255</ele>
        <time>2017-03-29T09:12:29Z</time>
      </trkpt>
      <trkpt lat="46.00714" lon="4.79525">
        <ele>255</ele>
        <time>2017-03-29T09:12:30Z</time>
      </trkpt>
      <trkpt lat="46.00714" lon="4.79516">
        <ele>255</ele>
        <time>2017-03-29T09:12:31Z</time>
      </trkpt>
      <trkpt lat="46.00713" lon="4.79507">
        <ele>255</ele>
        <time>2017-03-29T09:12:32Z</time>
      </trkpt>
      <trkpt lat="46.00712" lon="4.79497">
        <ele>254</ele>
        <time>2017-03-29T09:12:33Z</time>
      </trkpt>
      <trkpt lat="46.00711" lon="4.79488">
        <ele>254</ele>
        <time>2017-03-29T09:12:34Z</time>
      </trkpt>
      <trkpt lat="46.0071" lon="4.79479">
        <ele>254</ele>
        <time>2017-03-29T09:12:35Z</time>
      </trkpt>
      <trkpt lat="46.00708" lon="4.7947">
        <ele>254</ele>
        <time>2017-03-29T09:12:36Z</time>
      </trkpt>
      <trkpt lat="46.00707" lon="4.79462">
        <ele>254</ele>
        <time>2017-03-29T09:12:37Z</time>
      </trkpt>
      <trkpt lat="46.00706" lon="4.79453">
        <ele>253</ele>
        <time>2017-03-29T09:12:38Z</time>
      </trkpt>
      <trkpt lat="46.00705" lon="4.79444">
        <ele>253</ele>
        <time>2017-03-29T09:12:39Z</time>
      </trkpt>
      <trkpt lat="46.00703" lon="4.79435">
        <ele>253</ele>
        <time>2017-03-29T09:12:40Z</time>
      </trkpt>
      <trkpt lat="46.00702" lon="4.79426">
        <ele>253</ele>
        <time>2017-03-29T09:12:41Z</time>
      </trkpt>
      <trkpt lat="46.00701" lon="4.79417">
        <ele>252</ele>
        <time>2017-03-29T09:12:42Z</time>
      </trkpt>
      <trkpt lat="46.007" lon="4.79408">
        <ele>252</ele>
        <time>2017-03-29T09:12:43Z</time>
      </trkpt>
      <trkpt lat="46.007" lon="4.79399">
        <ele>252</ele>
        <time>2017-03-29T09:12:44Z</time>
      </trkpt>
      <trkpt lat="46.00701" lon="4.7939">
        <ele>251</ele>
        <time>2017-03-29T09:12:45Z</time>
      </trkpt>
      <trkpt lat="46.00704" lon="4.79382">
        <ele>251</ele>
        <time>2017-03-29T09:12:46Z</time>
      </trkpt>
      <trkpt lat="46.00707" lon="4.79375">
        <ele>251</ele>
        <time>2017-03-29T09:12:47Z</time>
      </trkpt>
      <trkpt lat="46.00711" lon="4.79369">
        <ele>251</ele>
        <time>2017-03-29T09:12:48Z</time>
      </trkpt>
      <trkpt lat="46.00714" lon="4.79362">
        <ele>251</ele>
        <time>2017-03-29T09:12:49Z</time>
      </trkpt>
      <trkpt lat="46.00718" lon="4.79357">
        <ele>251</ele>
        <time>2017-03-29T09:12:50Z</time>
      </trkpt>
      <trkpt lat="46.00723" lon="4.79353">
        <ele>251</ele>
        <time>2017-03-29T09:12:51Z</time>
      </trkpt>
      <trkpt lat="46.00729" lon="4.79351">
        <ele>251</ele>
        <time>2017-03-29T09:12:52Z</time>
      </trkpt>
      <trkpt lat="46.00734" lon="4.79349">
        <ele>251</ele>
        <time>2017-03-29T09:12:53Z</time>
      </trkpt>
      <trkpt lat="46.0074" lon="4.79347">
        <ele>251</ele>
        <time>2017-03-29T09:12:54Z</time>
      </trkpt>
      <trkpt lat="46.00745" lon="4.79344">
        <ele>251</ele>
        <time>2017-03-29T09:12:55Z</time>
      </trkpt>
      <trkpt lat="46.00751" lon="4.79342">
        <ele>251</ele>
        <time>2017-03-29T09:12:56Z</time>
      </trkpt>
      <trkpt lat="46.00756" lon="4.79339">
        <ele>251</ele>
        <time>2017-03-29T09:12:57Z</time>
      </trkpt>
      <trkpt lat="46.00762" lon="4.79337">
        <ele>252</ele>
        <time>2017-03-29T09:12:58Z</time>
      </trkpt>
      <trkpt lat="46.00769" lon="4.79335">
        <ele>252</ele>
        <time>2017-03-29T09:12:59Z</time>
      </trkpt>
      <trkpt lat="46.00775" lon="4.79333">
        <ele>251</ele>
        <time>2017-03-29T09:13:00Z</time>
      </trkpt>
      <trkpt lat="46.0078" lon="4.7933">
        <ele>251</ele>
        <time>2017-03-29T09:13:01Z</time>
      </trkpt>
      <trkpt lat="46.00786" lon="4.79327">
        <ele>251</ele>
        <time>2017-03-29T09:13:02Z</time>
      </trkpt>
      <trkpt lat="46.00792" lon="4.79323">
        <ele>251</ele>
        <time>2017-03-29T09:13:03Z</time>
      </trkpt>
      <trkpt lat="46.00798" lon="4.79319">
        <ele>251</ele>
        <time>2017-03-29T09:13:04Z</time>
      </trkpt>
      <trkpt lat="46.00803" lon="4.79315">
        <ele>251</ele>
        <time>2017-03-29T09:13:05Z</time>
      </trkpt>
      <trkpt lat="46.00808" lon="4.79311">
        <ele>251</ele>
        <time>2017-03-29T09:13:06Z</time>
      </trkpt>
      <trkpt lat="46.00813" lon="4.79307">
        <ele>251</ele>
        <time>2017-03-29T09:13:07Z</time>
      </trkpt>
      <trkpt lat="46.00818" lon="4.79303">
        <ele>251</ele>
        <time>2017-03-29T09:13:08Z</time>
      </trkpt>
      <trkpt lat="46.00823" lon="4.793">
        <ele>251</ele>
        <time>2017-03-29T09:13:09Z</time>
      </trkpt>
      <trkpt lat="46.00828" lon="4.79296">
        <ele>251</ele>
        <time>2017-03-29T09:13:10Z</time>
      </trkpt>
      <trkpt lat="46.00833" lon="4.79292">
        <ele>251</ele>
        <time>2017-03-29T09:13:11Z</time>
      </trkpt>
      <trkpt lat="46.00837" lon="4.79289">
        <ele>252</ele>
        <time>2017-03-29T09:13:12Z</time>
      </trkpt>
      <trkpt lat="46.00842" lon="4.79285">
        <ele>252</ele>
        <time>2017-03-29T09:13:13Z</time>
      </trkpt>
      <trkpt lat="46.00847" lon="4.79281">
        <ele>252</ele>
        <time>2017-03-29T09:13:14Z</time>
      </trkpt>
      <trkpt lat="46.00852" lon="4.79277">
        <ele>252</ele>
        <time>2017-03-29T09:13:15Z</time>
      </trkpt>
      <trkpt lat="46.00856" lon="4.79274">
        <ele>252</ele>
        <time>2017-03-29T09:13:16Z</time>
      </trkpt>
      <trkpt lat="46.00861" lon="4.7927">
        <ele>252</ele>
        <time>2017-03-29T09:13:17Z</time>
      </trkpt>
      <trkpt lat="46.00866" lon="4.79266">
        <ele>252</ele>
        <time>2017-03-29T09:13:18Z</time>
      </trkpt>
      <trkpt lat="46.00871" lon="4.79262">
        <ele>252</ele>
        <time>2017-03-29T09:13:19Z</time>
      </trkpt>
      <trkpt lat="46.00876" lon="4.79258">
        <ele>252</ele>
        <time>2017-03-29T09:13:20Z</time>
      </trkpt>
      <trkpt lat="46.00881" lon="4.79254">
        <ele>252</ele>
        <time>2017-03-29T09:13:21Z</time>
      </trkpt>
      <trkpt lat="46.00886" lon="4.7925">
        <ele>252</ele>
        <time>2017-03-29T09:13:22Z</time>
      </trkpt>
      <trkpt lat="46.00892" lon="4.79246">
        <ele>251</ele>
        <time>2017-03-29T09:13:23Z</time>
      </trkpt>
      <trkpt lat="46.00897" lon="4.79242">
        <ele>251</ele>
        <time>2017-03-29T09:13:24Z</time>
      </trkpt>
      <trkpt lat="46.00902" lon="4.79239">
        <ele>251</ele>
        <time>2017-03-29T09:13:25Z</time>
      </trkpt>
      <trkpt lat="46.00907" lon="4.79235">
        <ele>251</ele>
        <time>2017-03-29T09:13:26Z</time>
      </trkpt>
      <trkpt lat="46.00911" lon="4.79231">
        <ele>251</ele>
        <time>2017-03-29T09:13:27Z</time>
      </trkpt>
      <trkpt lat="46.00916" lon="4.79227">
        <ele>251</ele>
        <time>2017-03-29T09:13:28Z</time>
      </trkpt>
      <trkpt lat="46.0092" lon="4.79224">
        <ele>252</ele>
        <time>2017-03-29T09:13:29Z</time>
      </trkpt>
      <trkpt lat="46.00924" lon="4.7922">
        <ele>252</ele>
        <time>2017-03-29T09:13:30Z</time>
      </trkpt>
      <trkpt lat="46.00929" lon="4.79217">
        <ele>252</ele>
        <time>2017-03-29T09:13:31Z</time>
      </trkpt>
      <trkpt lat="46.00933" lon="4.79214">
        <ele>252</ele>
        <time>2017-03-29T09:13:32Z</time>
      </trkpt>
      <trkpt lat="46.00937" lon="4.79211">
        <ele>252</ele>
        <time>2017-03-29T09:13:33Z</time>
      </trkpt>
      <trkpt lat="46.00942" lon="4.79207">
        <ele>252</ele>
        <time>2017-03-29T09:13:34Z</time>
      </trkpt>
      <trkpt lat="46.00947" lon="4.79203">
        <ele>252</ele>
        <time>2017-03-29T09:13:35Z</time>
      </trkpt>
      <trkpt lat="46.00951" lon="4.79199">
        <ele>252</ele>
        <time>2017-03-29T09:13:36Z</time>
      </trkpt>
      <trkpt lat="46.00956" lon="4.79196">
        <ele>252</ele>
        <time>2017-03-29T09:13:37Z</time>
      </trkpt>
      <trkpt lat="46.00961" lon="4.79192">
        <ele>252</ele>
        <time>2017-03-29T09:13:38Z</time>
      </trkpt>
      <trkpt lat="46.00965" lon="4.79189">
        <ele>252</ele>
        <time>2017-03-29T09:13:39Z</time>
      </trkpt>
      <trkpt lat="46.0097" lon="4.79185">
        <ele>252</ele>
        <time>2017-03-29T09:13:40Z</time>
      </trkpt>
      <trkpt lat="46.00975" lon="4.79182">
        <ele>252</ele>
        <time>2017-03-29T09:13:41Z</time>
      </trkpt>
      <trkpt lat="46.0098" lon="4.79178">
        <ele>252</ele>
        <time>2017-03-29T09:13:42Z</time>
      </trkpt>
      <trkpt lat="46.00985" lon="4.79174">
        <ele>252</ele>
        <time>2017-03-29T09:13:43Z</time>
      </trkpt>
      <trkpt lat="46.00989" lon="4.79171">
        <ele>252</ele>
        <time>2017-03-29T09:13:44Z</time>
      </trkpt>
      <trkpt lat="46.00993" lon="4.79167">
        <ele>252</ele>
        <time>2017-03-29T09:13:45Z</time>
      </trkpt>
      <trkpt lat="46.00998" lon="4.79164">
        <ele>252</ele>
        <time>2017-03-29T09:13:46Z</time>
      </trkpt>
      <trkpt lat="46.01002" lon="4.79161">
        <ele>252</ele>
        <time>2017-03-29T09:13:47Z</time>
      </trkpt>
      <trkpt lat="46.01006" lon="4.79158">
        <ele>252</ele>
        <time>2017-03-29T09:13:48Z</time>
      </trkpt>
      <trkpt lat="46.01013" lon="4.79153">
        <ele>252</ele>
        <time>2017-03-29T09:13:50Z</time>
      </trkpt>
      <trkpt lat="46.01017" lon="4.7915">
        <ele>252</ele>
        <time>2017-03-29T09:13:51Z</time>
      </trkpt>
      <trkpt lat="46.01022" lon="4.79147">
        <ele>252</ele>
        <time>2017-03-29T09:13:52Z</time>
      </trkpt>
      <trkpt lat="46.01026" lon="4.79144">
        <ele>252</ele>
        <time>2017-03-29T09:13:53Z</time>
      </trkpt>
      <trkpt lat="46.0103" lon="4.7914">
        <ele>252</ele>
        <time>2017-03-29T09:13:54Z</time>
      </trkpt>
      <trkpt lat="46.01034" lon="4.79137">
        <ele>252</ele>
        <time>2017-03-29T09:13:55Z</time>
      </trkpt>
      <trkpt lat="46.01039" lon="4.79134">
        <ele>252</ele>
        <time>2017-03-29T09:13:56Z</time>
      </trkpt>
      <trkpt lat="46.01043" lon="4.79131">
        <ele>253</ele>
        <time>2017-03-29T09:13:57Z</time>
      </trkpt>
      <trkpt lat="46.01048" lon="4.79128">
        <ele>253</ele>
        <time>2017-03-29T09:13:58Z</time>
      </trkpt>
      <trkpt lat="46.01052" lon="4.79124">
        <ele>252</ele>
        <time>2017-03-29T09:13:59Z</time>
      </trkpt>
      <trkpt lat="46.01057" lon="4.79121">
        <ele>252</ele>
        <time>2017-03-29T09:14:00Z</time>
      </trkpt>
      <trkpt lat="46.01061" lon="4.79117">
        <ele>252</ele>
        <time>2017-03-29T09:14:01Z</time>
      </trkpt>
      <trkpt lat="46.01066" lon="4.79114">
        <ele>252</ele>
        <time>2017-03-29T09:14:02Z</time>
      </trkpt>
      <trkpt lat="46.0107" lon="4.79111">
        <ele>252</ele>
        <time>2017-03-29T09:14:03Z</time>
      </trkpt>
      <trkpt lat="46.01075" lon="4.79107">
        <ele>252</ele>
        <time>2017-03-29T09:14:04Z</time>
      </trkpt>
      <trkpt lat="46.01079" lon="4.79104">
        <ele>252</ele>
        <time>2017-03-29T09:14:05Z</time>
      </trkpt>
      <trkpt lat="46.01084" lon="4.791">
        <ele>252</ele>
        <time>2017-03-29T09:14:06Z</time>
      </trkpt>
      <trkpt lat="46.01088" lon="4.79097">
        <ele>252</ele>
        <time>2017-03-29T09:14:07Z</time>
      </trkpt>
      <trkpt lat="46.01093" lon="4.79093">
        <ele>252</ele>
        <time>2017-03-29T09:14:08Z</time>
      </trkpt>
      <trkpt lat="46.01097" lon="4.7909">
        <ele>252</ele>
        <time>2017-03-29T09:14:09Z</time>
      </trkpt>
      <trkpt lat="46.01101" lon="4.79087">
        <ele>253</ele>
        <time>2017-03-29T09:14:10Z</time>
      </trkpt>
      <trkpt lat="46.01105" lon="4.79083">
        <ele>252</ele>
        <time>2017-03-29T09:14:11Z</time>
      </trkpt>
      <trkpt lat="46.0111" lon="4.7908">
        <ele>252</ele>
        <time>2017-03-29T09:14:12Z</time>
      </trkpt>
      <trkpt lat="46.01114" lon="4.79076">
        <ele>252</ele>
        <time>2017-03-29T09:14:13Z</time>
      </trkpt>
      <trkpt lat="46.01118" lon="4.79072">
        <ele>252</ele>
        <time>2017-03-29T09:14:14Z</time>
      </trkpt>
      <trkpt lat="46.01122" lon="4.79069">
        <ele>252</ele>
        <time>2017-03-29T09:14:15Z</time>
      </trkpt>
      <trkpt lat="46.01126" lon="4.79066">
        <ele>252</ele>
        <time>2017-03-29T09:14:16Z</time>
      </trkpt>
      <trkpt lat="46.01131" lon="4.79062">
        <ele>252</ele>
        <time>2017-03-29T09:14:17Z</time>
      </trkpt>
      <trkpt lat="46.01135" lon="4.79059">
        <ele>252</ele>
        <time>2017-03-29T09:14:18Z</time>
      </trkpt>
      <trkpt lat="46.0114" lon="4.79056">
        <ele>252</ele>
        <time>2017-03-29T09:14:19Z</time>
      </trkpt>
      <trkpt lat="46.01144" lon="4.79053">
        <ele>252</ele>
        <time>2017-03-29T09:14:20Z</time>
      </trkpt>
      <trkpt lat="46.01148" lon="4.7905">
        <ele>251</ele>
        <time>2017-03-29T09:14:21Z</time>
      </trkpt>
      <trkpt lat="46.01152" lon="4.79047">
        <ele>251</ele>
        <time>2017-03-29T09:14:22Z</time>
      </trkpt>
      <trkpt lat="46.01157" lon="4.79043">
        <ele>251</ele>
        <time>2017-03-29T09:14:23Z</time>
      </trkpt>
      <trkpt lat="46.01162" lon="4.79039">
        <ele>251</ele>
        <time>2017-03-29T09:14:24Z</time>
      </trkpt>
      <trkpt lat="46.01166" lon="4.79035">
        <ele>251</ele>
        <time>2017-03-29T09:14:25Z</time>
      </trkpt>
      <trkpt lat="46.01171" lon="4.79031">
        <ele>252</ele>
        <time>2017-03-29T09:14:26Z</time>
      </trkpt>
      <trkpt lat="46.01176" lon="4.79028">
        <ele>252</ele>
        <time>2017-03-29T09:14:27Z</time>
      </trkpt>
      <trkpt lat="46.01181" lon="4.79024">
        <ele>252</ele>
        <time>2017-03-29T09:14:28Z</time>
      </trkpt>
      <trkpt lat="46.01185" lon="4.79021">
        <ele>252</ele>
        <time>2017-03-29T09:14:29Z</time>
      </trkpt>
      <trkpt lat="46.0119" lon="4.79017">
        <ele>252</ele>
        <time>2017-03-29T09:14:30Z</time>
      </trkpt>
      <trkpt lat="46.01195" lon="4.79013">
        <ele>252</ele>
        <time>2017-03-29T09:14:31Z</time>
      </trkpt>
      <trkpt lat="46.012" lon="4.79009">
        <ele>252</ele>
        <time>2017-03-29T09:14:32Z</time>
      </trkpt>
      <trkpt lat="46.01205" lon="4.79004">
        <ele>252</ele>
        <time>2017-03-29T09:14:33Z</time>
      </trkpt>
      <trkpt lat="46.01211" lon="4.79">
        <ele>251</ele>
        <time>2017-03-29T09:14:34Z</time>
      </trkpt>
      <trkpt lat="46.01216" lon="4.78996">
        <ele>251</ele>
        <time>2017-03-29T09:14:35Z</time>
      </trkpt>
      <trkpt lat="46.01222" lon="4.78991">
        <ele>251</ele>
        <time>2017-03-29T09:14:36Z</time>
      </trkpt>
      <trkpt lat="46.01227" lon="4.78988">
        <ele>251</ele>
        <time>2017-03-29T09:14:37Z</time>
      </trkpt>
      <trkpt lat="46.01232" lon="4.78985">
        <ele>251</ele>
        <time>2017-03-29T09:14:38Z</time>
      </trkpt>
      <trkpt lat="46.01237" lon="4.78981">
        <ele>251</ele>
        <time>2017-03-29T09:14:39Z</time>
      </trkpt>
      <trkpt lat="46.01241" lon="4.78977">
        <ele>251</ele>
        <time>2017-03-29T09:14:40Z</time>
      </trkpt>
      <trkpt lat="46.01246" lon="4.78973">
        <ele>251</ele>
        <time>2017-03-29T09:14:41Z</time>
      </trkpt>
      <trkpt lat="46.0125" lon="4.7897">
        <ele>252</ele>
        <time>2017-03-29T09:14:42Z</time>
      </trkpt>
      <trkpt lat="46.01255" lon="4.78966">
        <ele>252</ele>
        <time>2017-03-29T09:14:43Z</time>
      </trkpt>
      <trkpt lat="46.01259" lon="4.78963">
        <ele>252</ele>
        <time>2017-03-29T09:14:44Z</time>
      </trkpt>
      <trkpt lat="46.01264" lon="4.7896">
        <ele>252</ele>
        <time>2017-03-29T09:14:45Z</time>
      </trkpt>
      <trkpt lat="46.01269" lon="4.78956">
        <ele>252</ele>
        <time>2017-03-29T09:14:46Z</time>
      </trkpt>
      <trkpt lat="46.01273" lon="4.78953">
        <ele>252</ele>
        <time>2017-03-29T09:14:47Z</time>
      </trkpt>
      <trkpt lat="46.01277" lon="4.78949">
        <ele>252</ele>
        <time>2017-03-29T09:14:48Z</time>
      </trkpt>
      <trkpt lat="46.01282" lon="4.78946">
        <ele>252</ele>
        <time>2017-03-29T09:14:49Z</time>
      </trkpt>
      <trkpt lat="46.01286" lon="4.78943">
        <ele>252</ele>
        <time>2017-03-29T09:14:50Z</time>
      </trkpt>
      <trkpt lat="46.01291" lon="4.7894">
        <ele>252</ele>
        <time>2017-03-29T09:14:51Z</time>
      </trkpt>
      <trkpt lat="46.01296" lon="4.78936">
        <ele>252</ele>
        <time>2017-03-29T09:14:52Z</time>
      </trkpt>
      <trkpt lat="46.01301" lon="4.78932">
        <ele>252</ele>
        <time>2017-03-29T09:14:53Z</time>
      </trkpt>
      <trkpt lat="46.01305" lon="4.78929">
        <ele>252</ele>
        <time>2017-03-29T09:14:54Z</time>
      </trkpt>
      <trkpt lat="46.0131" lon="4.78926">
        <ele>252</ele>
        <time>2017-03-29T09:14:55Z</time>
      </trkpt>
      <trkpt lat="46.01314" lon="4.78923">
        <ele>252</ele>
        <time>2017-03-29T09:14:56Z</time>
      </trkpt>
      <trkpt lat="46.01319" lon="4.78919">
        <ele>252</ele>
        <time>2017-03-29T09:14:57Z</time>
      </trkpt>
      <trkpt lat="46.01323" lon="4.78916">
        <ele>251</ele>
        <time>2017-03-29T09:14:58Z</time>
      </trkpt>
      <trkpt lat="46.01328" lon="4.78912">
        <ele>252</ele>
        <time>2017-03-29T09:14:59Z</time>
      </trkpt>
      <trkpt lat="46.01332" lon="4.78909">
        <ele>251</ele>
        <time>2017-03-29T09:15:00Z</time>
      </trkpt>
      <trkpt lat="46.01337" lon="4.78905">
        <ele>251</ele>
        <time>2017-03-29T09:15:01Z</time>
      </trkpt>
      <trkpt lat="46.01341" lon="4.78902">
        <ele>251</ele>
        <time>2017-03-29T09:15:02Z</time>
      </trkpt>
      <trkpt lat="46.01346" lon="4.78898">
        <ele>251</ele>
        <time>2017-03-29T09:15:03Z</time>
      </trkpt>
      <trkpt lat="46.0135" lon="4.78895">
        <ele>251</ele>
        <time>2017-03-29T09:15:04Z</time>
      </trkpt>
      <trkpt lat="46.01354" lon="4.78892">
        <ele>251</ele>
        <time>2017-03-29T09:15:05Z</time>
      </trkpt>
      <trkpt lat="46.01358" lon="4.78889">
        <ele>251</ele>
        <time>2017-03-29T09:15:06Z</time>
      </trkpt>
      <trkpt lat="46.01362" lon="4.78885">
        <ele>250</ele>
        <time>2017-03-29T09:15:07Z</time>
      </trkpt>
      <trkpt lat="46.01367" lon="4.78882">
        <ele>250</ele>
        <time>2017-03-29T09:15:08Z</time>
      </trkpt>
      <trkpt lat="46.01371" lon="4.78879">
        <ele>250</ele>
        <time>2017-03-29T09:15:09Z</time>
      </trkpt>
      <trkpt lat="46.01376" lon="4.78875">
        <ele>250</ele>
        <time>2017-03-29T09:15:10Z</time>
      </trkpt>
      <trkpt lat="46.0138" lon="4.78872">
        <ele>250</ele>
        <time>2017-03-29T09:15:11Z</time>
      </trkpt>
      <trkpt lat="46.01385" lon="4.78868">
        <ele>250</ele>
        <time>2017-03-29T09:15:12Z</time>
      </trkpt>
      <trkpt lat="46.0139" lon="4.78864">
        <ele>250</ele>
        <time>2017-03-29T09:15:13Z</time>
      </trkpt>
      <trkpt lat="46.01394" lon="4.78861">
        <ele>250</ele>
        <time>2017-03-29T09:15:14Z</time>
      </trkpt>
      <trkpt lat="46.01399" lon="4.78857">
        <ele>250</ele>
        <time>2017-03-29T09:15:15Z</time>
      </trkpt>
      <trkpt lat="46.01405" lon="4.78853">
        <ele>250</ele>
        <time>2017-03-29T09:15:16Z</time>
      </trkpt>
      <trkpt lat="46.0141" lon="4.7885">
        <ele>250</ele>
        <time>2017-03-29T09:15:17Z</time>
      </trkpt>
      <trkpt lat="46.01415" lon="4.78846">
        <ele>250</ele>
        <time>2017-03-29T09:15:18Z</time>
      </trkpt>
      <trkpt lat="46.0142" lon="4.78842">
        <ele>250</ele>
        <time>2017-03-29T09:15:19Z</time>
      </trkpt>
      <trkpt lat="46.01425" lon="4.78838">
        <ele>250</ele>
        <time>2017-03-29T09:15:20Z</time>
      </trkpt>
      <trkpt lat="46.0143" lon="4.78834">
        <ele>250</ele>
        <time>2017-03-29T09:15:21Z</time>
      </trkpt>
      <trkpt lat="46.01435" lon="4.7883">
        <ele>249</ele>
        <time>2017-03-29T09:15:22Z</time>
      </trkpt>
      <trkpt lat="46.0144" lon="4.78826">
        <ele>249</ele>
        <time>2017-03-29T09:15:23Z</time>
      </trkpt>
      <trkpt lat="46.01445" lon="4.78822">
        <ele>249</ele>
        <time>2017-03-29T09:15:24Z</time>
      </trkpt>
      <trkpt lat="46.01451" lon="4.78818">
        <ele>249</ele>
        <time>2017-03-29T09:15:25Z</time>
      </trkpt>
      <trkpt lat="46.01456" lon="4.78815">
        <ele>249</ele>
        <time>2017-03-29T09:15:26Z</time>
      </trkpt>
      <trkpt lat="46.01461" lon="4.78811">
        <ele>249</ele>
        <time>2017-03-29T09:15:27Z</time>
      </trkpt>
      <trkpt lat="46.01465" lon="4.78807">
        <ele>249</ele>
        <time>2017-03-29T09:15:28Z</time>
      </trkpt>
      <trkpt lat="46.0147" lon="4.78804">
        <ele>249</ele>
        <time>2017-03-29T09:15:29Z</time>
      </trkpt>
      <trkpt lat="46.01475" lon="4.78801">
        <ele>249</ele>
        <time>2017-03-29T09:15:30Z</time>
      </trkpt>
      <trkpt lat="46.0148" lon="4.78798">
        <ele>249</ele>
        <time>2017-03-29T09:15:31Z</time>
      </trkpt>
      <trkpt lat="46.01484" lon="4.78794">
        <ele>249</ele>
        <time>2017-03-29T09:15:32Z</time>
      </trkpt>
      <trkpt lat="46.01489" lon="4.78791">
        <ele>249</ele>
        <time>2017-03-29T09:15:33Z</time>
      </trkpt>
      <trkpt lat="46.01494" lon="4.78788">
        <ele>249</ele>
        <time>2017-03-29T09:15:34Z</time>
      </trkpt>
      <trkpt lat="46.01498" lon="4.78784">
        <ele>249</ele>
        <time>2017-03-29T09:15:35Z</time>
      </trkpt>
      <trkpt lat="46.01503" lon="4.78781">
        <ele>249</ele>
        <time>2017-03-29T09:15:36Z</time>
      </trkpt>
      <trkpt lat="46.01509" lon="4.78778">
        <ele>249</ele>
        <time>2017-03-29T09:15:37Z</time>
      </trkpt>
      <trkpt lat="46.01514" lon="4.78775">
        <ele>249</ele>
        <time>2017-03-29T09:15:38Z</time>
      </trkpt>
      <trkpt lat="46.01519" lon="4.78773">
        <ele>249</ele>
        <time>2017-03-29T09:15:39Z</time>
      </trkpt>
      <trkpt lat="46.01524" lon="4.78771">
        <ele>249</ele>
        <time>2017-03-29T09:15:40Z</time>
      </trkpt>
      <trkpt lat="46.0153" lon="4.78769">
        <ele>249</ele>
        <time>2017-03-29T09:15:41Z</time>
      </trkpt>
      <trkpt lat="46.01535" lon="4.78767">
        <ele>249</ele>
        <time>2017-03-29T09:15:42Z</time>
      </trkpt>
      <trkpt lat="46.0154" lon="4.78767">
        <ele>249</ele>
        <time>2017-03-29T09:15:43Z</time>
      </trkpt>
      <trkpt lat="46.01545" lon="4.78766">
        <ele>249</ele>
        <time>2017-03-29T09:15:44Z</time>
      </trkpt>
      <trkpt lat="46.01551" lon="4.78767">
        <ele>249</ele>
        <time>2017-03-29T09:15:45Z</time>
      </trkpt>
      <trkpt lat="46.01556" lon="4.78767">
        <ele>248</ele>
        <time>2017-03-29T09:15:46Z</time>
      </trkpt>
      <trkpt lat="46.01562" lon="4.78767">
        <ele>248</ele>
        <time>2017-03-29T09:15:47Z</time>
      </trkpt>
      <trkpt lat="46.01567" lon="4.78768">
        <ele>248</ele>
        <time>2017-03-29T09:15:48Z</time>
      </trkpt>
      <trkpt lat="46.01572" lon="4.78769">
        <ele>248</ele>
        <time>2017-03-29T09:15:49Z</time>
      </trkpt>
      <trkpt lat="46.01577" lon="4.7877">
        <ele>248</ele>
        <time>2017-03-29T09:15:50Z</time>
      </trkpt>
      <trkpt lat="46.01583" lon="4.78771">
        <ele>248</ele>
        <time>2017-03-29T09:15:51Z</time>
      </trkpt>
      <trkpt lat="46.01588" lon="4.78773">
        <ele>247</ele>
        <time>2017-03-29T09:15:52Z</time>
      </trkpt>
      <trkpt lat="46.01594" lon="4.78774">
        <ele>247</ele>
        <time>2017-03-29T09:15:53Z</time>
      </trkpt>
      <trkpt lat="46.016" lon="4.78775">
        <ele>248</ele>
        <time>2017-03-29T09:15:54Z</time>
      </trkpt>
      <trkpt lat="46.01606" lon="4.78776">
        <ele>248</ele>
        <time>2017-03-29T09:15:55Z</time>
      </trkpt>
      <trkpt lat="46.01612" lon="4.78777">
        <ele>248</ele>
        <time>2017-03-29T09:15:56Z</time>
      </trkpt>
      <trkpt lat="46.01617" lon="4.78778">
        <ele>248</ele>
        <time>2017-03-29T09:15:57Z</time>
      </trkpt>
      <trkpt lat="46.01623" lon="4.78779">
        <ele>248</ele>
        <time>2017-03-29T09:15:58Z</time>
      </trkpt>
      <trkpt lat="46.01629" lon="4.78781">
        <ele>247</ele>
        <time>2017-03-29T09:15:59Z</time>
      </trkpt>
      <trkpt lat="46.01634" lon="4.78782">
        <ele>247</ele>
        <time>2017-03-29T09:16:00Z</time>
      </trkpt>
      <trkpt lat="46.0164" lon="4.78783">
        <ele>247</ele>
        <time>2017-03-29T09:16:01Z</time>
      </trkpt>
      <trkpt lat="46.01645" lon="4.78784">
        <ele>247</ele>
        <time>2017-03-29T09:16:02Z</time>
      </trkpt>
      <trkpt lat="46.01651" lon="4.78785">
        <ele>247</ele>
        <time>2017-03-29T09:16:03Z</time>
      </trkpt>
      <trkpt lat="46.01656" lon="4.78786">
        <ele>247</ele>
        <time>2017-03-29T09:16:04Z</time>
      </trkpt>
      <trkpt lat="46.01662" lon="4.78786">
        <ele>247</ele>
        <time>2017-03-29T09:16:05Z</time>
      </trkpt>
      <trkpt lat="46.01668" lon="4.78787">
        <ele>247</ele>
        <time>2017-03-29T09:16:06Z</time>
      </trkpt>
      <trkpt lat="46.01673" lon="4.78788">
        <ele>247</ele>
        <time>2017-03-29T09:16:07Z</time>
      </trkpt>
      <trkpt lat="46.01678" lon="4.78789">
        <ele>247</ele>
        <time>2017-03-29T09:16:08Z</time>
      </trkpt>
      <trkpt lat="46.01684" lon="4.7879">
        <ele>247</ele>
        <time>2017-03-29T09:16:09Z</time>
      </trkpt>
      <trkpt lat="46.01689" lon="4.78791">
        <ele>247</ele>
        <time>2017-03-29T09:16:10Z</time>
      </trkpt>
      <trkpt lat="46.01695" lon="4.78792">
        <ele>246</ele>
        <time>2017-03-29T09:16:11Z</time>
      </trkpt>
      <trkpt lat="46.017" lon="4.78793">
        <ele>246</ele>
        <time>2017-03-29T09:16:12Z</time>
      </trkpt>
      <trkpt lat="46.01706" lon="4.78794">
        <ele>246</ele>
        <time>2017-03-29T09:16:13Z</time>
      </trkpt>
      <trkpt lat="46.01712" lon="4.78796">
        <ele>246</ele>
        <time>2017-03-29T09:16:14Z</time>
      </trkpt>
      <trkpt lat="46.01718" lon="4.78796">
        <ele>246</ele>
        <time>2017-03-29T09:16:15Z</time>
      </trkpt>
      <trkpt lat="46.01724" lon="4.78797">
        <ele>246</ele>
        <time>2017-03-29T09:16:16Z</time>
      </trkpt>
      <trkpt lat="46.0173" lon="4.78798">
        <ele>246</ele>
        <time>2017-03-29T09:16:17Z</time>
      </trkpt>
      <trkpt lat="46.01735" lon="4.78799">
        <ele>246</ele>
        <time>2017-03-29T09:16:18Z</time>
      </trkpt>
      <trkpt lat="46.01741" lon="4.788">
        <ele>246</ele>
        <time>2017-03-29T09:16:19Z</time>
      </trkpt>
      <trkpt lat="46.01747" lon="4.78801">
        <ele>246</ele>
        <time>2017-03-29T09:16:20Z</time>
      </trkpt>
      <trkpt lat="46.01753" lon="4.78801">
        <ele>246</ele>
        <time>2017-03-29T09:16:21Z</time>
      </trkpt>
      <trkpt lat="46.01758" lon="4.78802">
        <ele>246</ele>
        <time>2017-03-29T09:16:22Z</time>
      </trkpt>
      <trkpt lat="46.01763" lon="4.78802">
        <ele>246</ele>
        <time>2017-03-29T09:16:23Z</time>
      </trkpt>
      <trkpt lat="46.01768" lon="4.78803">
        <ele>246</ele>
        <time>2017-03-29T09:16:24Z</time>
      </trkpt>
      <trkpt lat="46.01773" lon="4.78803">
        <ele>246</ele>
        <time>2017-03-29T09:16:25Z</time>
      </trkpt>
      <trkpt lat="46.01777" lon="4.78802">
        <ele>246</ele>
        <time>2017-03-29T09:16:26Z</time>
      </trkpt>
      <trkpt lat="46.01782" lon="4.78801">
        <ele>246</ele>
        <time>2017-03-29T09:16:27Z</time>
      </trkpt>
      <trkpt lat="46.01787" lon="4.78799">
        <ele>246</ele>
        <time>2017-03-29T09:16:28Z</time>
      </trkpt>
      <trkpt lat="46.01791" lon="4.78797">
        <ele>246</ele>
        <time>2017-03-29T09:16:29Z</time>
      </trkpt>
      <trkpt lat="46.01796" lon="4.78794">
        <ele>246</ele>
        <time>2017-03-29T09:16:30Z</time>
      </trkpt>
      <trkpt lat="46.018" lon="4.7879">
        <ele>246</ele>
        <time>2017-03-29T09:16:31Z</time>
      </trkpt>
      <trkpt lat="46.01804" lon="4.78786">
        <ele>246</ele>
        <time>2017-03-29T09:16:32Z</time>
      </trkpt>
      <trkpt lat="46.01809" lon="4.78782">
        <ele>246</ele>
        <time>2017-03-29T09:16:33Z</time>
      </trkpt>
      <trkpt lat="46.01813" lon="4.78777">
        <ele>246</ele>
        <time>2017-03-29T09:16:34Z</time>
      </trkpt>
      <trkpt lat="46.01818" lon="4.78772">
        <ele>246</ele>
        <time>2017-03-29T09:16:35Z</time>
      </trkpt>
      <trkpt lat="46.01823" lon="4.78766">
        <ele>245</ele>
        <time>2017-03-29T09:16:36Z</time>
      </trkpt>
      <trkpt lat="46.01827" lon="4.7876">
        <ele>245</ele>
        <time>2017-03-29T09:16:37Z</time>
      </trkpt>
      <trkpt lat="46.01832" lon="4.78753">
        <ele>245</ele>
        <time>2017-03-29T09:16:38Z</time>
      </trkpt>
      <trkpt lat="46.01836" lon="4.78746">
        <ele>244</ele>
        <time>2017-03-29T09:16:39Z</time>
      </trkpt>
      <trkpt lat="46.01841" lon="4.78739">
        <ele>243</ele>
        <time>2017-03-29T09:16:40Z</time>
      </trkpt>
      <trkpt lat="46.01846" lon="4.78732">
        <ele>243</ele>
        <time>2017-03-29T09:16:41Z</time>
      </trkpt>
      <trkpt lat="46.01851" lon="4.78725">
        <ele>242</ele>
        <time>2017-03-29T09:16:42Z</time>
      </trkpt>
      <trkpt lat="46.01856" lon="4.78717">
        <ele>242</ele>
        <time>2017-03-29T09:16:43Z</time>
      </trkpt>
      <trkpt lat="46.01861" lon="4.78709">
        <ele>241</ele>
        <time>2017-03-29T09:16:44Z</time>
      </trkpt>
      <trkpt lat="46.01866" lon="4.78701">
        <ele>241</ele>
        <time>2017-03-29T09:16:45Z</time>
      </trkpt>
      <trkpt lat="46.01871" lon="4.78692">
        <ele>241</ele>
        <time>2017-03-29T09:16:46Z</time>
      </trkpt>
      <trkpt lat="46.01876" lon="4.78684">
        <ele>241</ele>
        <time>2017-03-29T09:16:47Z</time>
      </trkpt>
      <trkpt lat="46.01881" lon="4.78676">
        <ele>241</ele>
        <time>2017-03-29T09:16:48Z</time>
      </trkpt>
      <trkpt lat="46.01886" lon="4.78667">
        <ele>239</ele>
        <time>2017-03-29T09:16:49Z</time>
      </trkpt>
      <trkpt lat="46.01891" lon="4.78658">
        <ele>239</ele>
        <time>2017-03-29T09:16:50Z</time>
      </trkpt>
      <trkpt lat="46.01897" lon="4.78649">
        <ele>238</ele>
        <time>2017-03-29T09:16:51Z</time>
      </trkpt>
      <trkpt lat="46.01902" lon="4.7864">
        <ele>238</ele>
        <time>2017-03-29T09:16:52Z</time>
      </trkpt>
      <trkpt lat="46.01909" lon="4.78632">
        <ele>238</ele>
        <time>2017-03-29T09:16:53Z</time>
      </trkpt>
      <trkpt lat="46.01915" lon="4.78624">
        <ele>238</ele>
        <time>2017-03-29T09:16:54Z</time>
      </trkpt>
      <trkpt lat="46.01923" lon="4.78617">
        <ele>238</ele>
        <time>2017-03-29T09:16:55Z</time>
      </trkpt>
      <trkpt lat="46.01931" lon="4.7861">
        <ele>237</ele>
        <time>2017-03-29T09:16:56Z</time>
      </trkpt>
      <trkpt lat="46.01939" lon="4.78604">
        <ele>237</ele>
        <time>2017-03-29T09:16:57Z</time>
      </trkpt>
      <trkpt lat="46.01948" lon="4.786">
        <ele>237</ele>
        <time>2017-03-29T09:16:58Z</time>
      </trkpt>
      <trkpt lat="46.01956" lon="4.78596">
        <ele>237</ele>
        <time>2017-03-29T09:16:59Z</time>
      </trkpt>
      <trkpt lat="46.01965" lon="4.78593">
        <ele>237</ele>
        <time>2017-03-29T09:17:00Z</time>
      </trkpt>
      <trkpt lat="46.01973" lon="4.78589">
        <ele>237</ele>
        <time>2017-03-29T09:17:01Z</time>
      </trkpt>
      <trkpt lat="46.01982" lon="4.78586">
        <ele>237</ele>
        <time>2017-03-29T09:17:02Z</time>
      </trkpt>
      <trkpt lat="46.01991" lon="4.78582">
        <ele>236</ele>
        <time>2017-03-29T09:17:03Z</time>
      </trkpt>
      <trkpt lat="46.01999" lon="4.7858">
        <ele>236</ele>
        <time>2017-03-29T09:17:04Z</time>
      </trkpt>
      <trkpt lat="46.02008" lon="4.78577">
        <ele>236</ele>
        <time>2017-03-29T09:17:05Z</time>
      </trkpt>
      <trkpt lat="46.02016" lon="4.78574">
        <ele>235</ele>
        <time>2017-03-29T09:17:06Z</time>
      </trkpt>
      <trkpt lat="46.02024" lon="4.78572">
        <ele>235</ele>
        <time>2017-03-29T09:17:07Z</time>
      </trkpt>
      <trkpt lat="46.02031" lon="4.78569">
        <ele>235</ele>
        <time>2017-03-29T09:17:08Z</time>
      </trkpt>
      <trkpt lat="46.02039" lon="4.78566">
        <ele>235</ele>
        <time>2017-03-29T09:17:09Z</time>
      </trkpt>
      <trkpt lat="46.02047" lon="4.78564">
        <ele>235</ele>
        <time>2017-03-29T09:17:10Z</time>
      </trkpt>
      <trkpt lat="46.02054" lon="4.78561">
        <ele>235</ele>
        <time>2017-03-29T09:17:11Z</time>
      </trkpt>
      <trkpt lat="46.02061" lon="4.78559">
        <ele>235</ele>
        <time>2017-03-29T09:17:12Z</time>
      </trkpt>
      <trkpt lat="46.02069" lon="4.78556">
        <ele>235</ele>
        <time>2017-03-29T09:17:13Z</time>
      </trkpt>
      <trkpt lat="46.02076" lon="4.78554">
        <ele>235</ele>
        <time>2017-03-29T09:17:14Z</time>
      </trkpt>
      <trkpt lat="46.02083" lon="4.78551">
        <ele>235</ele>
        <time>2017-03-29T09:17:15Z</time>
      </trkpt>
      <trkpt lat="46.0209" lon="4.78548">
        <ele>234</ele>
        <time>2017-03-29T09:17:16Z</time>
      </trkpt>
      <trkpt lat="46.02098" lon="4.78545">
        <ele>234</ele>
        <time>2017-03-29T09:17:17Z</time>
      </trkpt>
      <trkpt lat="46.02105" lon="4.78542">
        <ele>234</ele>
        <time>2017-03-29T09:17:18Z</time>
      </trkpt>
      <trkpt lat="46.02112" lon="4.7854">
        <ele>233</ele>
        <time>2017-03-29T09:17:19Z</time>
      </trkpt>
      <trkpt lat="46.02119" lon="4.78537">
        <ele>233</ele>
        <time>2017-03-29T09:17:20Z</time>
      </trkpt>
      <trkpt lat="46.02127" lon="4.78535">
        <ele>233</ele>
        <time>2017-03-29T09:17:21Z</time>
      </trkpt>
      <trkpt lat="46.02134" lon="4.78532">
        <ele>233</ele>
        <time>2017-03-29T09:17:22Z</time>
      </trkpt>
      <trkpt lat="46.02141" lon="4.78531">
        <ele>233</ele>
        <time>2017-03-29T09:17:23Z</time>
      </trkpt>
      <trkpt lat="46.02148" lon="4.78529">
        <ele>233</ele>
        <time>2017-03-29T09:17:24Z</time>
      </trkpt>
      <trkpt lat="46.02154" lon="4.78526">
        <ele>233</ele>
        <time>2017-03-29T09:17:25Z</time>
      </trkpt>
      <trkpt lat="46.02161" lon="4.78523">
        <ele>232</ele>
        <time>2017-03-29T09:17:26Z</time>
      </trkpt>
      <trkpt lat="46.02168" lon="4.7852">
        <ele>231</ele>
        <time>2017-03-29T09:17:27Z</time>
      </trkpt>
      <trkpt lat="46.02174" lon="4.78517">
        <ele>231</ele>
        <time>2017-03-29T09:17:28Z</time>
      </trkpt>
      <trkpt lat="46.02181" lon="4.78513">
        <ele>231</ele>
        <time>2017-03-29T09:17:29Z</time>
      </trkpt>
      <trkpt lat="46.02187" lon="4.78511">
        <ele>231</ele>
        <time>2017-03-29T09:17:30Z</time>
      </trkpt>
      <trkpt lat="46.02193" lon="4.78508">
        <ele>231</ele>
        <time>2017-03-29T09:17:31Z</time>
      </trkpt>
      <trkpt lat="46.02198" lon="4.78506">
        <ele>231</ele>
        <time>2017-03-29T09:17:32Z</time>
      </trkpt>
      <trkpt lat="46.02204" lon="4.78505">
        <ele>230</ele>
        <time>2017-03-29T09:17:33Z</time>
      </trkpt>
      <trkpt lat="46.02208" lon="4.78504">
        <ele>230</ele>
        <time>2017-03-29T09:17:34Z</time>
      </trkpt>
      <trkpt lat="46.02217" lon="4.78502">
        <ele>230</ele>
        <time>2017-03-29T09:17:36Z</time>
      </trkpt>
      <trkpt lat="46.02221" lon="4.78502">
        <ele>230</ele>
        <time>2017-03-29T09:17:37Z</time>
      </trkpt>
      <trkpt lat="46.02228" lon="4.78507">
        <ele>230</ele>
        <time>2017-03-29T09:17:39Z</time>
      </trkpt>
      <trkpt lat="46.02231" lon="4.78512">
        <ele>230</ele>
        <time>2017-03-29T09:17:40Z</time>
      </trkpt>
      <trkpt lat="46.02235" lon="4.78516">
        <ele>230</ele>
        <time>2017-03-29T09:17:41Z</time>
      </trkpt>
      <trkpt lat="46.02239" lon="4.78521">
        <ele>230</ele>
        <time>2017-03-29T09:17:42Z</time>
      </trkpt>
      <trkpt lat="46.02243" lon="4.78525">
        <ele>230</ele>
        <time>2017-03-29T09:17:43Z</time>
      </trkpt>
      <trkpt lat="46.02247" lon="4.78531">
        <ele>230</ele>
        <time>2017-03-29T09:17:44Z</time>
      </trkpt>
      <trkpt lat="46.02251" lon="4.78536">
        <ele>229</ele>
        <time>2017-03-29T09:17:45Z</time>
      </trkpt>
      <trkpt lat="46.02255" lon="4.7854">
        <ele>229</ele>
        <time>2017-03-29T09:17:46Z</time>
      </trkpt>
      <trkpt lat="46.02259" lon="4.78545">
        <ele>229</ele>
        <time>2017-03-29T09:17:47Z</time>
      </trkpt>
      <trkpt lat="46.02263" lon="4.78551">
        <ele>229</ele>
        <time>2017-03-29T09:17:48Z</time>
      </trkpt>
      <trkpt lat="46.02268" lon="4.78556">
        <ele>229</ele>
        <time>2017-03-29T09:17:49Z</time>
      </trkpt>
      <trkpt lat="46.02272" lon="4.78561">
        <ele>229</ele>
        <time>2017-03-29T09:17:50Z</time>
      </trkpt>
      <trkpt lat="46.02276" lon="4.78566">
        <ele>229</ele>
        <time>2017-03-29T09:17:51Z</time>
      </trkpt>
      <trkpt lat="46.02281" lon="4.78571">
        <ele>229</ele>
        <time>2017-03-29T09:17:52Z</time>
      </trkpt>
      <trkpt lat="46.02285" lon="4.78576">
        <ele>229</ele>
        <time>2017-03-29T09:17:53Z</time>
      </trkpt>
      <trkpt lat="46.02289" lon="4.78581">
        <ele>229</ele>
        <time>2017-03-29T09:17:54Z</time>
      </trkpt>
      <trkpt lat="46.02294" lon="4.78587">
        <ele>229</ele>
        <time>2017-03-29T09:17:55Z</time>
      </trkpt>
      <trkpt lat="46.02298" lon="4.78592">
        <ele>229</ele>
        <time>2017-03-29T09:17:56Z</time>
      </trkpt>
      <trkpt lat="46.02303" lon="4.78597">
        <ele>229</ele>
        <time>2017-03-29T09:17:57Z</time>
      </trkpt>
      <trkpt lat="46.02307" lon="4.78602">
        <ele>229</ele>
        <time>2017-03-29T09:17:58Z</time>
      </trkpt>
      <trkpt lat="46.02312" lon="4.78607">
        <ele>229</ele>
        <time>2017-03-29T09:17:59Z</time>
      </trkpt>
      <trkpt lat="46.02316" lon="4.78611">
        <ele>229</ele>
        <time>2017-03-29T09:18:00Z</time>
      </trkpt>
      <trkpt lat="46.0232" lon="4.78616">
        <ele>229</ele>
        <time>2017-03-29T09:18:01Z</time>
      </trkpt>
      <trkpt lat="46.02324" lon="4.7862">
        <ele>229</ele>
        <time>2017-03-29T09:18:02Z</time>
      </trkpt>
      <trkpt lat="46.02328" lon="4.78625">
        <ele>229</ele>
        <time>2017-03-29T09:18:03Z</time>
      </trkpt>
      <trkpt lat="46.02332" lon="4.7863">
        <ele>229</ele>
        <time>2017-03-29T09:18:04Z</time>
      </trkpt>
      <trkpt lat="46.02336" lon="4.78635">
        <ele>228</ele>
        <time>2017-03-29T09:18:05Z</time>
      </trkpt>
      <trkpt lat="46.0234" lon="4.7864">
        <ele>228</ele>
        <time>2017-03-29T09:18:06Z</time>
      </trkpt>
      <trkpt lat="46.02344" lon="4.78646">
        <ele>228</ele>
        <time>2017-03-29T09:18:07Z</time>
      </trkpt>
      <trkpt lat="46.02349" lon="4.78651">
        <ele>228</ele>
        <time>2017-03-29T09:18:08Z</time>
      </trkpt>
      <trkpt lat="46.02353" lon="4.78656">
        <ele>228</ele>
        <time>2017-03-29T09:18:09Z</time>
      </trkpt>
      <trkpt lat="46.02357" lon="4.78661">
        <ele>228</ele>
        <time>2017-03-29T09:18:10Z</time>
      </trkpt>
      <trkpt lat="46.02361" lon="4.78666">
        <ele>227</ele>
        <time>2017-03-29T09:18:11Z</time>
      </trkpt>
      <trkpt lat="46.02365" lon="4.78671">
        <ele>228</ele>
        <time>2017-03-29T09:18:12Z</time>
      </trkpt>
      <trkpt lat="46.02369" lon="4.78675">
        <ele>227</ele>
        <time>2017-03-29T09:18:13Z</time>
      </trkpt>
      <trkpt lat="46.02373" lon="4.7868">
        <ele>227</ele>
        <time>2017-03-29T09:18:14Z</time>
      </trkpt>
      <trkpt lat="46.02377" lon="4.78685">
        <ele>227</ele>
        <time>2017-03-29T09:18:15Z</time>
      </trkpt>
      <trkpt lat="46.02381" lon="4.7869">
        <ele>227</ele>
        <time>2017-03-29T09:18:16Z</time>
      </trkpt>
      <trkpt lat="46.02386" lon="4.78695">
        <ele>227</ele>
        <time>2017-03-29T09:18:17Z</time>
      </trkpt>
      <trkpt lat="46.0239" lon="4.787">
        <ele>227</ele>
        <time>2017-03-29T09:18:18Z</time>
      </trkpt>
      <trkpt lat="46.02394" lon="4.78705">
        <ele>227</ele>
        <time>2017-03-29T09:18:19Z</time>
      </trkpt>
      <trkpt lat="46.02399" lon="4.7871">
        <ele>227</ele>
        <time>2017-03-29T09:18:20Z</time>
      </trkpt>
      <trkpt lat="46.02403" lon="4.78715">
        <ele>227</ele>
        <time>2017-03-29T09:18:21Z</time>
      </trkpt>
      <trkpt lat="46.02408" lon="4.7872">
        <ele>227</ele>
        <time>2017-03-29T09:18:22Z</time>
      </trkpt>
      <trkpt lat="46.02412" lon="4.78726">
        <ele>227</ele>
        <time>2017-03-29T09:18:23Z</time>
      </trkpt>
      <trkpt lat="46.02416" lon="4.7873">
        <ele>227</ele>
        <time>2017-03-29T09:18:24Z</time>
      </trkpt>
      <trkpt lat="46.02419" lon="4.78735">
        <ele>226</ele>
        <time>2017-03-29T09:18:25Z</time>
      </trkpt>
      <trkpt lat="46.02423" lon="4.7874">
        <ele>226</ele>
        <time>2017-03-29T09:18:26Z</time>
      </trkpt>
      <trkpt lat="46.02427" lon="4.78744">
        <ele>226</ele>
        <time>2017-03-29T09:18:27Z</time>
      </trkpt>
      <trkpt lat="46.02431" lon="4.78749">
        <ele>226</ele>
        <time>2017-03-29T09:18:28Z</time>
      </trkpt>
      <trkpt lat="46.02435" lon="4.78754">
        <ele>226</ele>
        <time>2017-03-29T09:18:29Z</time>
      </trkpt>
      <trkpt lat="46.02438" lon="4.78758">
        <ele>226</ele>
        <time>2017-03-29T09:18:30Z</time>
      </trkpt>
      <trkpt lat="46.02442" lon="4.78763">
        <ele>226</ele>
        <time>2017-03-29T09:18:31Z</time>
      </trkpt>
      <trkpt lat="46.02446" lon="4.78767">
        <ele>226</ele>
        <time>2017-03-29T09:18:32Z</time>
      </trkpt>
      <trkpt lat="46.0245" lon="4.78771">
        <ele>226</ele>
        <time>2017-03-29T09:18:33Z</time>
      </trkpt>
      <trkpt lat="46.02454" lon="4.78776">
        <ele>226</ele>
        <time>2017-03-29T09:18:34Z</time>
      </trkpt>
      <trkpt lat="46.02458" lon="4.78781">
        <ele>226</ele>
        <time>2017-03-29T09:18:35Z</time>
      </trkpt>
      <trkpt lat="46.02462" lon="4.78785">
        <ele>226</ele>
        <time>2017-03-29T09:18:36Z</time>
      </trkpt>
      <trkpt lat="46.02466" lon="4.7879">
        <ele>226</ele>
        <time>2017-03-29T09:18:37Z</time>
      </trkpt>
      <trkpt lat="46.02469" lon="4.78795">
        <ele>226</ele>
        <time>2017-03-29T09:18:38Z</time>
      </trkpt>
      <trkpt lat="46.02474" lon="4.788">
        <ele>226</ele>
        <time>2017-03-29T09:18:39Z</time>
      </trkpt>
      <trkpt lat="46.02479" lon="4.78806">
        <ele>226</ele>
        <time>2017-03-29T09:18:40Z</time>
      </trkpt>
      <trkpt lat="46.02483" lon="4.78811">
        <ele>226</ele>
        <time>2017-03-29T09:18:41Z</time>
      </trkpt>
      <trkpt lat="46.02488" lon="4.78816">
        <ele>226</ele>
        <time>2017-03-29T09:18:42Z</time>
      </trkpt>
      <trkpt lat="46.02493" lon="4.78822">
        <ele>226</ele>
        <time>2017-03-29T09:18:43Z</time>
      </trkpt>
      <trkpt lat="46.02497" lon="4.78826">
        <ele>226</ele>
        <time>2017-03-29T09:18:44Z</time>
      </trkpt>
      <trkpt lat="46.02501" lon="4.78831">
        <ele>226</ele>
        <time>2017-03-29T09:18:45Z</time>
      </trkpt>
      <trkpt lat="46.02505" lon="4.78836">
        <ele>226</ele>
        <time>2017-03-29T09:18:46Z</time>
      </trkpt>
      <trkpt lat="46.02509" lon="4.78841">
        <ele>226</ele>
        <time>2017-03-29T09:18:47Z</time>
      </trkpt>
      <trkpt lat="46.02512" lon="4.78846">
        <ele>226</ele>
        <time>2017-03-29T09:18:48Z</time>
      </trkpt>
      <trkpt lat="46.02516" lon="4.7885">
        <ele>226</ele>
        <time>2017-03-29T09:18:49Z</time>
      </trkpt>
      <trkpt lat="46.0252" lon="4.78855">
        <ele>225</ele>
        <time>2017-03-29T09:18:50Z</time>
      </trkpt>
      <trkpt lat="46.02524" lon="4.78859">
        <ele>225</ele>
        <time>2017-03-29T09:18:51Z</time>
      </trkpt>
      <trkpt lat="46.02527" lon="4.78863">
        <ele>225</ele>
        <time>2017-03-29T09:18:52Z</time>
      </trkpt>
      <trkpt lat="46.02531" lon="4.78867">
        <ele>225</ele>
        <time>2017-03-29T09:18:53Z</time>
      </trkpt>
      <trkpt lat="46.02534" lon="4.78871">
        <ele>225</ele>
        <time>2017-03-29T09:18:54Z</time>
      </trkpt>
      <trkpt lat="46.02538" lon="4.78876">
        <ele>225</ele>
        <time>2017-03-29T09:18:55Z</time>
      </trkpt>
      <trkpt lat="46.02541" lon="4.7888">
        <ele>225</ele>
        <time>2017-03-29T09:18:56Z</time>
      </trkpt>
      <trkpt lat="46.02545" lon="4.78884">
        <ele>225</ele>
        <time>2017-03-29T09:18:57Z</time>
      </trkpt>
      <trkpt lat="46.02549" lon="4.78889">
        <ele>225</ele>
        <time>2017-03-29T09:18:58Z</time>
      </trkpt>
      <trkpt lat="46.02553" lon="4.78893">
        <ele>225</ele>
        <time>2017-03-29T09:18:59Z</time>
      </trkpt>
      <trkpt lat="46.02557" lon="4.78898">
        <ele>225</ele>
        <time>2017-03-29T09:19:00Z</time>
      </trkpt>
      <trkpt lat="46.02561" lon="4.78902">
        <ele>225</ele>
        <time>2017-03-29T09:19:01Z</time>
      </trkpt>
      <trkpt lat="46.02564" lon="4.78907">
        <ele>225</ele>
        <time>2017-03-29T09:19:02Z</time>
      </trkpt>
      <trkpt lat="46.02568" lon="4.78912">
        <ele>225</ele>
        <time>2017-03-29T09:19:03Z</time>
      </trkpt>
      <trkpt lat="46.02571" lon="4.78916">
        <ele>225</ele>
        <time>2017-03-29T09:19:04Z</time>
      </trkpt>
      <trkpt lat="46.02575" lon="4.78921">
        <ele>225</ele>
        <time>2017-03-29T09:19:05Z</time>
      </trkpt>
      <trkpt lat="46.02579" lon="4.78927">
        <ele>225</ele>
        <time>2017-03-29T09:19:06Z</time>
      </trkpt>
      <trkpt lat="46.02582" lon="4.78932">
        <ele>225</ele>
        <time>2017-03-29T09:19:07Z</time>
      </trkpt>
      <trkpt lat="46.02585" lon="4.78938">
        <ele>225</ele>
        <time>2017-03-29T09:19:08Z</time>
      </trkpt>
      <trkpt lat="46.02588" lon="4.78943">
        <ele>225</ele>
        <time>2017-03-29T09:19:09Z</time>
      </trkpt>
      <trkpt lat="46.02591" lon="4.78949">
        <ele>225</ele>
        <time>2017-03-29T09:19:10Z</time>
      </trkpt>
      <trkpt lat="46.02594" lon="4.78955">
        <ele>224</ele>
        <time>2017-03-29T09:19:11Z</time>
      </trkpt>
      <trkpt lat="46.02597" lon="4.78961">
        <ele>224</ele>
        <time>2017-03-29T09:19:12Z</time>
      </trkpt>
      <trkpt lat="46.026" lon="4.78967">
        <ele>224</ele>
        <time>2017-03-29T09:19:13Z</time>
      </trkpt>
      <trkpt lat="46.02602" lon="4.78973">
        <ele>224</ele>
        <time>2017-03-29T09:19:14Z</time>
      </trkpt>
      <trkpt lat="46.02605" lon="4.7898">
        <ele>224</ele>
        <time>2017-03-29T09:19:15Z</time>
      </trkpt>
      <trkpt lat="46.02608" lon="4.78986">
        <ele>224</ele>
        <time>2017-03-29T09:19:16Z</time>
      </trkpt>
      <trkpt lat="46.02611" lon="4.78992">
        <ele>224</ele>
        <time>2017-03-29T09:19:17Z</time>
      </trkpt>
      <trkpt lat="46.02613" lon="4.78998">
        <ele>224</ele>
        <time>2017-03-29T09:19:18Z</time>
      </trkpt>
      <trkpt lat="46.02614" lon="4.79004">
        <ele>225</ele>
        <time>2017-03-29T09:19:19Z</time>
      </trkpt>
      <trkpt lat="46.02616" lon="4.79011">
        <ele>225</ele>
        <time>2017-03-29T09:19:20Z</time>
      </trkpt>
      <trkpt lat="46.02618" lon="4.79017">
        <ele>225</ele>
        <time>2017-03-29T09:19:21Z</time>
      </trkpt>
      <trkpt lat="46.0262" lon="4.79023">
        <ele>225</ele>
        <time>2017-03-29T09:19:22Z</time>
      </trkpt>
      <trkpt lat="46.02622" lon="4.7903">
        <ele>225</ele>
        <time>2017-03-29T09:19:23Z</time>
      </trkpt>
      <trkpt lat="46.02623" lon="4.79036">
        <ele>225</ele>
        <time>2017-03-29T09:19:24Z</time>
      </trkpt>
      <trkpt lat="46.02625" lon="4.79048">
        <ele>225</ele>
        <time>2017-03-29T09:19:26Z</time>
      </trkpt>
      <trkpt lat="46.02626" lon="4.79054">
        <ele>225</ele>
        <time>2017-03-29T09:19:27Z</time>
      </trkpt>
      <trkpt lat="46.02628" lon="4.79065">
        <ele>225</ele>
        <time>2017-03-29T09:19:29Z</time>
      </trkpt>
      <trkpt lat="46.02629" lon="4.79072">
        <ele>225</ele>
        <time>2017-03-29T09:19:30Z</time>
      </trkpt>
      <trkpt lat="46.0263" lon="4.79078">
        <ele>226</ele>
        <time>2017-03-29T09:19:31Z</time>
      </trkpt>
      <trkpt lat="46.0263" lon="4.79085">
        <ele>226</ele>
        <time>2017-03-29T09:19:32Z</time>
      </trkpt>
      <trkpt lat="46.02631" lon="4.79091">
        <ele>226</ele>
        <time>2017-03-29T09:19:33Z</time>
      </trkpt>
      <trkpt lat="46.02632" lon="4.79098">
        <ele>226</ele>
        <time>2017-03-29T09:19:34Z</time>
      </trkpt>
      <trkpt lat="46.02633" lon="4.79105">
        <ele>226</ele>
        <time>2017-03-29T09:19:35Z</time>
      </trkpt>
      <trkpt lat="46.02634" lon="4.79111">
        <ele>226</ele>
        <time>2017-03-29T09:19:36Z</time>
      </trkpt>
      <trkpt lat="46.02635" lon="4.79117">
        <ele>226</ele>
        <time>2017-03-29T09:19:37Z</time>
      </trkpt>
      <trkpt lat="46.02636" lon="4.79124">
        <ele>226</ele>
        <time>2017-03-29T09:19:38Z</time>
      </trkpt>
      <trkpt lat="46.02636" lon="4.79131">
        <ele>227</ele>
        <time>2017-03-29T09:19:39Z</time>
      </trkpt>
      <trkpt lat="46.02636" lon="4.79138">
        <ele>227</ele>
        <time>2017-03-29T09:19:40Z</time>
      </trkpt>
      <trkpt lat="46.02637" lon="4.79145">
        <ele>227</ele>
        <time>2017-03-29T09:19:41Z</time>
      </trkpt>
      <trkpt lat="46.02638" lon="4.79152">
        <ele>227</ele>
        <time>2017-03-29T09:19:42Z</time>
      </trkpt>
      <trkpt lat="46.02639" lon="4.79159">
        <ele>227</ele>
        <time>2017-03-29T09:19:43Z</time>
      </trkpt>
      <trkpt lat="46.0264" lon="4.79166">
        <ele>227</ele>
        <time>2017-03-29T09:19:44Z</time>
      </trkpt>
      <trkpt lat="46.02641" lon="4.79173">
        <ele>227</ele>
        <time>2017-03-29T09:19:45Z</time>
      </trkpt>
      <trkpt lat="46.02643" lon="4.7918">
        <ele>227</ele>
        <time>2017-03-29T09:19:46Z</time>
      </trkpt>
      <trkpt lat="46.02643" lon="4.79188">
        <ele>227</ele>
        <time>2017-03-29T09:19:47Z</time>
      </trkpt>
      <trkpt lat="46.02644" lon="4.79195">
        <ele>227</ele>
        <time>2017-03-29T09:19:48Z</time>
      </trkpt>
      <trkpt lat="46.02645" lon="4.79203">
        <ele>227</ele>
        <time>2017-03-29T09:19:49Z</time>
      </trkpt>
      <trkpt lat="46.02646" lon="4.79211">
        <ele>227</ele>
        <time>2017-03-29T09:19:50Z</time>
      </trkpt>
      <trkpt lat="46.02647" lon="4.79219">
        <ele>227</ele>
        <time>2017-03-29T09:19:51Z</time>
      </trkpt>
      <trkpt lat="46.02648" lon="4.79227">
        <ele>227</ele>
        <time>2017-03-29T09:19:52Z</time>
      </trkpt>
      <trkpt lat="46.02649" lon="4.79235">
        <ele>227</ele>
        <time>2017-03-29T09:19:53Z</time>
      </trkpt>
      <trkpt lat="46.0265" lon="4.79242">
        <ele>227</ele>
        <time>2017-03-29T09:19:54Z</time>
      </trkpt>
      <trkpt lat="46.02651" lon="4.79249">
        <ele>227</ele>
        <time>2017-03-29T09:19:55Z</time>
      </trkpt>
      <trkpt lat="46.02652" lon="4.79256">
        <ele>226</ele>
        <time>2017-03-29T09:19:56Z</time>
      </trkpt>
      <trkpt lat="46.02653" lon="4.79262">
        <ele>227</ele>
        <time>2017-03-29T09:19:57Z</time>
      </trkpt>
      <trkpt lat="46.02654" lon="4.79269">
        <ele>227</ele>
        <time>2017-03-29T09:19:58Z</time>
      </trkpt>
      <trkpt lat="46.02654" lon="4.79276">
        <ele>227</ele>
        <time>2017-03-29T09:19:59Z</time>
      </trkpt>
      <trkpt lat="46.02655" lon="4.79282">
        <ele>227</ele>
        <time>2017-03-29T09:20:00Z</time>
      </trkpt>
      <trkpt lat="46.02656" lon="4.79289">
        <ele>227</ele>
        <time>2017-03-29T09:20:01Z</time>
      </trkpt>
      <trkpt lat="46.02657" lon="4.79296">
        <ele>227</ele>
        <time>2017-03-29T09:20:02Z</time>
      </trkpt>
      <trkpt lat="46.02658" lon="4.79303">
        <ele>227</ele>
        <time>2017-03-29T09:20:03Z</time>
      </trkpt>
      <trkpt lat="46.02659" lon="4.7931">
        <ele>227</ele>
        <time>2017-03-29T09:20:04Z</time>
      </trkpt>
      <trkpt lat="46.0266" lon="4.79317">
        <ele>226</ele>
        <time>2017-03-29T09:20:05Z</time>
      </trkpt>
      <trkpt lat="46.02661" lon="4.79324">
        <ele>226</ele>
        <time>2017-03-29T09:20:06Z</time>
      </trkpt>
      <trkpt lat="46.02662" lon="4.79331">
        <ele>226</ele>
        <time>2017-03-29T09:20:07Z</time>
      </trkpt>
      <trkpt lat="46.02662" lon="4.79337">
        <ele>226</ele>
        <time>2017-03-29T09:20:08Z</time>
      </trkpt>
      <trkpt lat="46.02663" lon="4.79344">
        <ele>226</ele>
        <time>2017-03-29T09:20:09Z</time>
      </trkpt>
      <trkpt lat="46.02664" lon="4.79351">
        <ele>227</ele>
        <time>2017-03-29T09:20:10Z</time>
      </trkpt>
      <trkpt lat="46.02665" lon="4.79358">
        <ele>227</ele>
        <time>2017-03-29T09:20:11Z</time>
      </trkpt>
      <trkpt lat="46.02666" lon="4.79365">
        <ele>227</ele>
        <time>2017-03-29T09:20:12Z</time>
      </trkpt>
      <trkpt lat="46.02667" lon="4.79372">
        <ele>226</ele>
        <time>2017-03-29T09:20:13Z</time>
      </trkpt>
      <trkpt lat="46.02668" lon="4.79378">
        <ele>226</ele>
        <time>2017-03-29T09:20:14Z</time>
      </trkpt>
      <trkpt lat="46.02669" lon="4.79385">
        <ele>226</ele>
        <time>2017-03-29T09:20:15Z</time>
      </trkpt>
      <trkpt lat="46.0267" lon="4.79391">
        <ele>227</ele>
        <time>2017-03-29T09:20:16Z</time>
      </trkpt>
      <trkpt lat="46.02671" lon="4.79399">
        <ele>227</ele>
        <time>2017-03-29T09:20:17Z</time>
      </trkpt>
      <trkpt lat="46.02673" lon="4.79406">
        <ele>227</ele>
        <time>2017-03-29T09:20:18Z</time>
      </trkpt>
      <trkpt lat="46.02674" lon="4.79413">
        <ele>227</ele>
        <time>2017-03-29T09:20:19Z</time>
      </trkpt>
      <trkpt lat="46.02675" lon="4.79421">
        <ele>227</ele>
        <time>2017-03-29T09:20:20Z</time>
      </trkpt>
      <trkpt lat="46.02676" lon="4.79428">
        <ele>227</ele>
        <time>2017-03-29T09:20:21Z</time>
      </trkpt>
      <trkpt lat="46.02677" lon="4.79436">
        <ele>227</ele>
        <time>2017-03-29T09:20:22Z</time>
      </trkpt>
      <trkpt lat="46.02678" lon="4.79443">
        <ele>227</ele>
        <time>2017-03-29T09:20:23Z</time>
      </trkpt>
      <trkpt lat="46.02679" lon="4.79451">
        <ele>227</ele>
        <time>2017-03-29T09:20:24Z</time>
      </trkpt>
      <trkpt lat="46.02681" lon="4.79458">
        <ele>227</ele>
        <time>2017-03-29T09:20:25Z</time>
      </trkpt>
      <trkpt lat="46.02682" lon="4.79466">
        <ele>227</ele>
        <time>2017-03-29T09:20:26Z</time>
      </trkpt>
      <trkpt lat="46.02683" lon="4.79473">
        <ele>227</ele>
        <time>2017-03-29T09:20:27Z</time>
      </trkpt>
      <trkpt lat="46.02684" lon="4.7948">
        <ele>227</ele>
        <time>2017-03-29T09:20:28Z</time>
      </trkpt>
      <trkpt lat="46.02686" lon="4.79487">
        <ele>227</ele>
        <time>2017-03-29T09:20:29Z</time>
      </trkpt>
      <trkpt lat="46.02688" lon="4.79494">
        <ele>227</ele>
        <time>2017-03-29T09:20:30Z</time>
      </trkpt>
      <trkpt lat="46.02689" lon="4.795">
        <ele>227</ele>
        <time>2017-03-29T09:20:31Z</time>
      </trkpt>
      <trkpt lat="46.02691" lon="4.79507">
        <ele>227</ele>
        <time>2017-03-29T09:20:32Z</time>
      </trkpt>
      <trkpt lat="46.02693" lon="4.79513">
        <ele>227</ele>
        <time>2017-03-29T09:20:33Z</time>
      </trkpt>
      <trkpt lat="46.02695" lon="4.79519">
        <ele>227</ele>
        <time>2017-03-29T09:20:34Z</time>
      </trkpt>
      <trkpt lat="46.02697" lon="4.79525">
        <ele>227</ele>
        <time>2017-03-29T09:20:35Z</time>
      </trkpt>
      <trkpt lat="46.027" lon="4.79531">
        <ele>227</ele>
        <time>2017-03-29T09:20:36Z</time>
      </trkpt>
      <trkpt lat="46.02703" lon="4.79537">
        <ele>227</ele>
        <time>2017-03-29T09:20:37Z</time>
      </trkpt>
      <trkpt lat="46.02706" lon="4.79544">
        <ele>228</ele>
        <time>2017-03-29T09:20:38Z</time>
      </trkpt>
      <trkpt lat="46.02709" lon="4.7955">
        <ele>228</ele>
        <time>2017-03-29T09:20:39Z</time>
      </trkpt>
      <trkpt lat="46.02712" lon="4.79555">
        <ele>228</ele>
        <time>2017-03-29T09:20:40Z</time>
      </trkpt>
      <trkpt lat="46.02714" lon="4.79561">
        <ele>228</ele>
        <time>2017-03-29T09:20:41Z</time>
      </trkpt>
      <trkpt lat="46.02717" lon="4.79567">
        <ele>228</ele>
        <time>2017-03-29T09:20:42Z</time>
      </trkpt>
      <trkpt lat="46.0272" lon="4.79572">
        <ele>228</ele>
        <time>2017-03-29T09:20:43Z</time>
      </trkpt>
      <trkpt lat="46.02722" lon="4.79578">
        <ele>228</ele>
        <time>2017-03-29T09:20:44Z</time>
      </trkpt>
      <trkpt lat="46.02725" lon="4.79584">
        <ele>228</ele>
        <time>2017-03-29T09:20:45Z</time>
      </trkpt>
      <trkpt lat="46.02729" lon="4.7959">
        <ele>228</ele>
        <time>2017-03-29T09:20:46Z</time>
      </trkpt>
      <trkpt lat="46.02731" lon="4.79596">
        <ele>228</ele>
        <time>2017-03-29T09:20:47Z</time>
      </trkpt>
      <trkpt lat="46.02734" lon="4.79602">
        <ele>228</ele>
        <time>2017-03-29T09:20:48Z</time>
      </trkpt>
      <trkpt lat="46.02736" lon="4.79608">
        <ele>228</ele>
        <time>2017-03-29T09:20:49Z</time>
      </trkpt>
      <trkpt lat="46.02739" lon="4.79613">
        <ele>228</ele>
        <time>2017-03-29T09:20:50Z</time>
      </trkpt>
      <trkpt lat="46.02741" lon="4.79619">
        <ele>228</ele>
        <time>2017-03-29T09:20:51Z</time>
      </trkpt>
      <trkpt lat="46.02744" lon="4.79626">
        <ele>229</ele>
        <time>2017-03-29T09:20:52Z</time>
      </trkpt>
      <trkpt lat="46.02747" lon="4.79631">
        <ele>229</ele>
        <time>2017-03-29T09:20:53Z</time>
      </trkpt>
      <trkpt lat="46.0275" lon="4.79637">
        <ele>229</ele>
        <time>2017-03-29T09:20:54Z</time>
      </trkpt>
      <trkpt lat="46.02752" lon="4.79643">
        <ele>229</ele>
        <time>2017-03-29T09:20:55Z</time>
      </trkpt>
      <trkpt lat="46.02755" lon="4.79649">
        <ele>229</ele>
        <time>2017-03-29T09:20:56Z</time>
      </trkpt>
      <trkpt lat="46.02758" lon="4.79654">
        <ele>229</ele>
        <time>2017-03-29T09:20:57Z</time>
      </trkpt>
      <trkpt lat="46.0276" lon="4.7966">
        <ele>229</ele>
        <time>2017-03-29T09:20:58Z</time>
      </trkpt>
      <trkpt lat="46.02763" lon="4.79666">
        <ele>229</ele>
        <time>2017-03-29T09:20:59Z</time>
      </trkpt>
      <trkpt lat="46.02766" lon="4.79671">
        <ele>229</ele>
        <time>2017-03-29T09:21:00Z</time>
      </trkpt>
      <trkpt lat="46.0277" lon="4.79682">
        <ele>229</ele>
        <time>2017-03-29T09:21:02Z</time>
      </trkpt>
      <trkpt lat="46.02773" lon="4.79688">
        <ele>229</ele>
        <time>2017-03-29T09:21:03Z</time>
      </trkpt>
      <trkpt lat="46.02775" lon="4.79693">
        <ele>229</ele>
        <time>2017-03-29T09:21:04Z</time>
      </trkpt>
      <trkpt lat="46.02778" lon="4.79699">
        <ele>229</ele>
        <time>2017-03-29T09:21:05Z</time>
      </trkpt>
      <trkpt lat="46.02781" lon="4.79704">
        <ele>229</ele>
        <time>2017-03-29T09:21:06Z</time>
      </trkpt>
      <trkpt lat="46.02784" lon="4.7971">
        <ele>229</ele>
        <time>2017-03-29T09:21:07Z</time>
      </trkpt>
      <trkpt lat="46.02787" lon="4.79716">
        <ele>229</ele>
        <time>2017-03-29T09:21:08Z</time>
      </trkpt>
      <trkpt lat="46.02789" lon="4.79722">
        <ele>229</ele>
        <time>2017-03-29T09:21:09Z</time>
      </trkpt>
      <trkpt lat="46.02792" lon="4.79728">
        <ele>229</ele>
        <time>2017-03-29T09:21:10Z</time>
      </trkpt>
      <trkpt lat="46.02794" lon="4.79733">
        <ele>230</ele>
        <time>2017-03-29T09:21:11Z</time>
      </trkpt>
      <trkpt lat="46.028" lon="4.79744">
        <ele>230</ele>
        <time>2017-03-29T09:21:13Z</time>
      </trkpt>
      <trkpt lat="46.02802" lon="4.79749">
        <ele>230</ele>
        <time>2017-03-29T09:21:14Z</time>
      </trkpt>
      <trkpt lat="46.02806" lon="4.7976">
        <ele>230</ele>
        <time>2017-03-29T09:21:16Z</time>
      </trkpt>
      <trkpt lat="46.02808" lon="4.79764">
        <ele>230</ele>
        <time>2017-03-29T09:21:17Z</time>
      </trkpt>
      <trkpt lat="46.02813" lon="4.79774">
        <ele>230</ele>
        <time>2017-03-29T09:21:19Z</time>
      </trkpt>
      <trkpt lat="46.02815" lon="4.79779">
        <ele>230</ele>
        <time>2017-03-29T09:21:20Z</time>
      </trkpt>
      <trkpt lat="46.0282" lon="4.79788">
        <ele>230</ele>
        <time>2017-03-29T09:21:22Z</time>
      </trkpt>
      <trkpt lat="46.02822" lon="4.79794">
        <ele>230</ele>
        <time>2017-03-29T09:21:23Z</time>
      </trkpt>
      <trkpt lat="46.02826" lon="4.79804">
        <ele>230</ele>
        <time>2017-03-29T09:21:25Z</time>
      </trkpt>
      <trkpt lat="46.02828" lon="4.79809">
        <ele>230</ele>
        <time>2017-03-29T09:21:26Z</time>
      </trkpt>
      <trkpt lat="46.02833" lon="4.79819">
        <ele>230</ele>
        <time>2017-03-29T09:21:28Z</time>
      </trkpt>
      <trkpt lat="46.02836" lon="4.79824">
        <ele>230</ele>
        <time>2017-03-29T09:21:29Z</time>
      </trkpt>
      <trkpt lat="46.02841" lon="4.79834">
        <ele>231</ele>
        <time>2017-03-29T09:21:31Z</time>
      </trkpt>
      <trkpt lat="46.02843" lon="4.7984">
        <ele>231</ele>
        <time>2017-03-29T09:21:32Z</time>
      </trkpt>
      <trkpt lat="46.02845" lon="4.79846">
        <ele>232</ele>
        <time>2017-03-29T09:21:33Z</time>
      </trkpt>
      <trkpt lat="46.02848" lon="4.79851">
        <ele>232</ele>
        <time>2017-03-29T09:21:34Z</time>
      </trkpt>
      <trkpt lat="46.02851" lon="4.79857">
        <ele>232</ele>
        <time>2017-03-29T09:21:35Z</time>
      </trkpt>
      <trkpt lat="46.02854" lon="4.79862">
        <ele>232</ele>
        <time>2017-03-29T09:21:36Z</time>
      </trkpt>
      <trkpt lat="46.02856" lon="4.79868">
        <ele>233</ele>
        <time>2017-03-29T09:21:37Z</time>
      </trkpt>
      <trkpt lat="46.02859" lon="4.79874">
        <ele>233</ele>
        <time>2017-03-29T09:21:38Z</time>
      </trkpt>
      <trkpt lat="46.02861" lon="4.79879">
        <ele>233</ele>
        <time>2017-03-29T09:21:39Z</time>
      </trkpt>
      <trkpt lat="46.02864" lon="4.79885">
        <ele>233</ele>
        <time>2017-03-29T09:21:40Z</time>
      </trkpt>
      <trkpt lat="46.02867" lon="4.7989">
        <ele>233</ele>
        <time>2017-03-29T09:21:41Z</time>
      </trkpt>
      <trkpt lat="46.02869" lon="4.79895">
        <ele>233</ele>
        <time>2017-03-29T09:21:42Z</time>
      </trkpt>
      <trkpt lat="46.02871" lon="4.79901">
        <ele>233</ele>
        <time>2017-03-29T09:21:43Z</time>
      </trkpt>
      <trkpt lat="46.02874" lon="4.79907">
        <ele>233</ele>
        <time>2017-03-29T09:21:44Z</time>
      </trkpt>
      <trkpt lat="46.02877" lon="4.79912">
        <ele>233</ele>
        <time>2017-03-29T09:21:45Z</time>
      </trkpt>
      <trkpt lat="46.0288" lon="4.79918">
        <ele>235</ele>
        <time>2017-03-29T09:21:46Z</time>
      </trkpt>
      <trkpt lat="46.02883" lon="4.79923">
        <ele>235</ele>
        <time>2017-03-29T09:21:47Z</time>
      </trkpt>
      <trkpt lat="46.02885" lon="4.79929">
        <ele>235</ele>
        <time>2017-03-29T09:21:48Z</time>
      </trkpt>
      <trkpt lat="46.02888" lon="4.79935">
        <ele>235</ele>
        <time>2017-03-29T09:21:49Z</time>
      </trkpt>
      <trkpt lat="46.02891" lon="4.79942">
        <ele>235</ele>
        <time>2017-03-29T09:21:50Z</time>
      </trkpt>
      <trkpt lat="46.02893" lon="4.79948">
        <ele>235</ele>
        <time>2017-03-29T09:21:51Z</time>
      </trkpt>
      <trkpt lat="46.02896" lon="4.79953">
        <ele>235</ele>
        <time>2017-03-29T09:21:52Z</time>
      </trkpt>
      <trkpt lat="46.02901" lon="4.79964">
        <ele>236</ele>
        <time>2017-03-29T09:21:54Z</time>
      </trkpt>
      <trkpt lat="46.02903" lon="4.79969">
        <ele>236</ele>
        <time>2017-03-29T09:21:55Z</time>
      </trkpt>
      <trkpt lat="46.02906" lon="4.79975">
        <ele>236</ele>
        <time>2017-03-29T09:21:56Z</time>
      </trkpt>
      <trkpt lat="46.02909" lon="4.79981">
        <ele>236</ele>
        <time>2017-03-29T09:21:57Z</time>
      </trkpt>
      <trkpt lat="46.02912" lon="4.79986">
        <ele>237</ele>
        <time>2017-03-29T09:21:58Z</time>
      </trkpt>
      <trkpt lat="46.02915" lon="4.79992">
        <ele>237</ele>
        <time>2017-03-29T09:21:59Z</time>
      </trkpt>
      <trkpt lat="46.02919" lon="4.80001">
        <ele>238</ele>
        <time>2017-03-29T09:22:01Z</time>
      </trkpt>
      <trkpt lat="46.02922" lon="4.80006">
        <ele>238</ele>
        <time>2017-03-29T09:22:02Z</time>
      </trkpt>
      <trkpt lat="46.02926" lon="4.80015">
        <ele>238</ele>
        <time>2017-03-29T09:22:04Z</time>
      </trkpt>
      <trkpt lat="46.02928" lon="4.8002">
        <ele>238</ele>
        <time>2017-03-29T09:22:05Z</time>
      </trkpt>
      <trkpt lat="46.02934" lon="4.8003">
        <ele>238</ele>
        <time>2017-03-29T09:22:07Z</time>
      </trkpt>
      <trkpt lat="46.02936" lon="4.80035">
        <ele>238</ele>
        <time>2017-03-29T09:22:08Z</time>
      </trkpt>
      <trkpt lat="46.02941" lon="4.80045">
        <ele>238</ele>
        <time>2017-03-29T09:22:10Z</time>
      </trkpt>
      <trkpt lat="46.02943" lon="4.80051">
        <ele>238</ele>
        <time>2017-03-29T09:22:11Z</time>
      </trkpt>
      <trkpt lat="46.02948" lon="4.80061">
        <ele>238</ele>
        <time>2017-03-29T09:22:13Z</time>
      </trkpt>
      <trkpt lat="46.0295" lon="4.80066">
        <ele>238</ele>
        <time>2017-03-29T09:22:14Z</time>
      </trkpt>
      <trkpt lat="46.02953" lon="4.80071">
        <ele>238</ele>
        <time>2017-03-29T09:22:15Z</time>
      </trkpt>
      <trkpt lat="46.02955" lon="4.80077">
        <ele>238</ele>
        <time>2017-03-29T09:22:16Z</time>
      </trkpt>
      <trkpt lat="46.0296" lon="4.80088">
        <ele>239</ele>
        <time>2017-03-29T09:22:18Z</time>
      </trkpt>
      <trkpt lat="46.02962" lon="4.80093">
        <ele>239</ele>
        <time>2017-03-29T09:22:19Z</time>
      </trkpt>
      <trkpt lat="46.02965" lon="4.80098">
        <ele>239</ele>
        <time>2017-03-29T09:22:20Z</time>
      </trkpt>
      <trkpt lat="46.02968" lon="4.80104">
        <ele>239</ele>
        <time>2017-03-29T09:22:21Z</time>
      </trkpt>
      <trkpt lat="46.0297" lon="4.8011">
        <ele>239</ele>
        <time>2017-03-29T09:22:22Z</time>
      </trkpt>
      <trkpt lat="46.02972" lon="4.80116">
        <ele>239</ele>
        <time>2017-03-29T09:22:23Z</time>
      </trkpt>
      <trkpt lat="46.02976" lon="4.80126">
        <ele>239</ele>
        <time>2017-03-29T09:22:25Z</time>
      </trkpt>
      <trkpt lat="46.02977" lon="4.80131">
        <ele>239</ele>
        <time>2017-03-29T09:22:26Z</time>
      </trkpt>
      <trkpt lat="46.0298" lon="4.80142">
        <ele>239</ele>
        <time>2017-03-29T09:22:28Z</time>
      </trkpt>
      <trkpt lat="46.02981" lon="4.80147">
        <ele>240</ele>
        <time>2017-03-29T09:22:29Z</time>
      </trkpt>
      <trkpt lat="46.02983" lon="4.80158">
        <ele>240</ele>
        <time>2017-03-29T09:22:31Z</time>
      </trkpt>
      <trkpt lat="46.02984" lon="4.80163">
        <ele>240</ele>
        <time>2017-03-29T09:22:32Z</time>
      </trkpt>
      <trkpt lat="46.02986" lon="4.80174">
        <ele>240</ele>
        <time>2017-03-29T09:22:34Z</time>
      </trkpt>
      <trkpt lat="46.02987" lon="4.80179">
        <ele>240</ele>
        <time>2017-03-29T09:22:35Z</time>
      </trkpt>
      <trkpt lat="46.02989" lon="4.8019">
        <ele>240</ele>
        <time>2017-03-29T09:22:37Z</time>
      </trkpt>
      <trkpt lat="46.0299" lon="4.80195">
        <ele>240</ele>
        <time>2017-03-29T09:22:38Z</time>
      </trkpt>
      <trkpt lat="46.0299" lon="4.80206">
        <ele>240</ele>
        <time>2017-03-29T09:22:40Z</time>
      </trkpt>
      <trkpt lat="46.0299" lon="4.80212">
        <ele>239</ele>
        <time>2017-03-29T09:22:41Z</time>
      </trkpt>
      <trkpt lat="46.02991" lon="4.80223">
        <ele>239</ele>
        <time>2017-03-29T09:22:43Z</time>
      </trkpt>
      <trkpt lat="46.02991" lon="4.80229">
        <ele>239</ele>
        <time>2017-03-29T09:22:44Z</time>
      </trkpt>
      <trkpt lat="46.02992" lon="4.8024">
        <ele>239</ele>
        <time>2017-03-29T09:22:46Z</time>
      </trkpt>
      <trkpt lat="46.02992" lon="4.80246">
        <ele>239</ele>
        <time>2017-03-29T09:22:47Z</time>
      </trkpt>
      <trkpt lat="46.02992" lon="4.80258">
        <ele>239</ele>
        <time>2017-03-29T09:22:49Z</time>
      </trkpt>
      <trkpt lat="46.02992" lon="4.80264">
        <ele>239</ele>
        <time>2017-03-29T09:22:50Z</time>
      </trkpt>
      <trkpt lat="46.02991" lon="4.80276">
        <ele>239</ele>
        <time>2017-03-29T09:22:52Z</time>
      </trkpt>
      <trkpt lat="46.02991" lon="4.80282">
        <ele>239</ele>
        <time>2017-03-29T09:22:53Z</time>
      </trkpt>
      <trkpt lat="46.02991" lon="4.80289">
        <ele>239</ele>
        <time>2017-03-29T09:22:54Z</time>
      </trkpt>
      <trkpt lat="46.02991" lon="4.80296">
        <ele>239</ele>
        <time>2017-03-29T09:22:55Z</time>
      </trkpt>
      <trkpt lat="46.02991" lon="4.80304">
        <ele>239</ele>
        <time>2017-03-29T09:22:56Z</time>
      </trkpt>
      <trkpt lat="46.02992" lon="4.80312">
        <ele>239</ele>
        <time>2017-03-29T09:22:57Z</time>
      </trkpt>
      <trkpt lat="46.02993" lon="4.8032">
        <ele>239</ele>
        <time>2017-03-29T09:22:58Z</time>
      </trkpt>
      <trkpt lat="46.02994" lon="4.80328">
        <ele>239</ele>
        <time>2017-03-29T09:22:59Z</time>
      </trkpt>
      <trkpt lat="46.02996" lon="4.80337">
        <ele>239</ele>
        <time>2017-03-29T09:23:00Z</time>
      </trkpt>
      <trkpt lat="46.02997" lon="4.80347">
        <ele>239</ele>
        <time>2017-03-29T09:23:01Z</time>
      </trkpt>
      <trkpt lat="46.03" lon="4.80357">
        <ele>239</ele>
        <time>2017-03-29T09:23:02Z</time>
      </trkpt>
      <trkpt lat="46.03001" lon="4.80367">
        <ele>238</ele>
        <time>2017-03-29T09:23:03Z</time>
      </trkpt>
      <trkpt lat="46.03002" lon="4.80376">
        <ele>238</ele>
        <time>2017-03-29T09:23:04Z</time>
      </trkpt>
      <trkpt lat="46.03003" lon="4.80385">
        <ele>237</ele>
        <time>2017-03-29T09:23:05Z</time>
      </trkpt>
      <trkpt lat="46.03005" lon="4.80394">
        <ele>237</ele>
        <time>2017-03-29T09:23:06Z</time>
      </trkpt>
      <trkpt lat="46.03006" lon="4.804">
        <ele>237</ele>
        <time>2017-03-29T09:23:07Z</time>
      </trkpt>
      <trkpt lat="46.03008" lon="4.8041">
        <ele>237</ele>
        <time>2017-03-29T09:23:09Z</time>
      </trkpt>
      <trkpt lat="46.03007" lon="4.80415">
        <ele>237</ele>
        <time>2017-03-29T09:23:10Z</time>
      </trkpt>
      <trkpt lat="46.03009" lon="4.80426">
        <ele>236</ele>
        <time>2017-03-29T09:23:12Z</time>
      </trkpt>
      <trkpt lat="46.0301" lon="4.80432">
        <ele>236</ele>
        <time>2017-03-29T09:23:13Z</time>
      </trkpt>
      <trkpt lat="46.03011" lon="4.80444">
        <ele>236</ele>
        <time>2017-03-29T09:23:15Z</time>
      </trkpt>
      <trkpt lat="46.03012" lon="4.80451">
        <ele>235</ele>
        <time>2017-03-29T09:23:16Z</time>
      </trkpt>
      <trkpt lat="46.03013" lon="4.80459">
        <ele>235</ele>
        <time>2017-03-29T09:23:17Z</time>
      </trkpt>
      <trkpt lat="46.03013" lon="4.80466">
        <ele>235</ele>
        <time>2017-03-29T09:23:18Z</time>
      </trkpt>
      <trkpt lat="46.03013" lon="4.80474">
        <ele>235</ele>
        <time>2017-03-29T09:23:19Z</time>
      </trkpt>
      <trkpt lat="46.03014" lon="4.80482">
        <ele>235</ele>
        <time>2017-03-29T09:23:20Z</time>
      </trkpt>
      <trkpt lat="46.03015" lon="4.8049">
        <ele>234</ele>
        <time>2017-03-29T09:23:21Z</time>
      </trkpt>
      <trkpt lat="46.03017" lon="4.80498">
        <ele>234</ele>
        <time>2017-03-29T09:23:22Z</time>
      </trkpt>
      <trkpt lat="46.03019" lon="4.80507">
        <ele>233</ele>
        <time>2017-03-29T09:23:23Z</time>
      </trkpt>
      <trkpt lat="46.03019" lon="4.80515">
        <ele>233</ele>
        <time>2017-03-29T09:23:24Z</time>
      </trkpt>
      <trkpt lat="46.03019" lon="4.80523">
        <ele>233</ele>
        <time>2017-03-29T09:23:25Z</time>
      </trkpt>
      <trkpt lat="46.0302" lon="4.8053">
        <ele>233</ele>
        <time>2017-03-29T09:23:26Z</time>
      </trkpt>
      <trkpt lat="46.03021" lon="4.80538">
        <ele>233</ele>
        <time>2017-03-29T09:23:27Z</time>
      </trkpt>
      <trkpt lat="46.03022" lon="4.80545">
        <ele>233</ele>
        <time>2017-03-29T09:23:28Z</time>
      </trkpt>
      <trkpt lat="46.03023" lon="4.80552">
        <ele>233</ele>
        <time>2017-03-29T09:23:29Z</time>
      </trkpt>
      <trkpt lat="46.03025" lon="4.80559">
        <ele>233</ele>
        <time>2017-03-29T09:23:30Z</time>
      </trkpt>
      <trkpt lat="46.03027" lon="4.80566">
        <ele>233</ele>
        <time>2017-03-29T09:23:31Z</time>
      </trkpt>
      <trkpt lat="46.03029" lon="4.80573">
        <ele>232</ele>
        <time>2017-03-29T09:23:32Z</time>
      </trkpt>
      <trkpt lat="46.03031" lon="4.8058">
        <ele>232</ele>
        <time>2017-03-29T09:23:33Z</time>
      </trkpt>
      <trkpt lat="46.03033" lon="4.80586">
        <ele>232</ele>
        <time>2017-03-29T09:23:34Z</time>
      </trkpt>
      <trkpt lat="46.03035" lon="4.80592">
        <ele>232</ele>
        <time>2017-03-29T09:23:35Z</time>
      </trkpt>
      <trkpt lat="46.03038" lon="4.80598">
        <ele>232</ele>
        <time>2017-03-29T09:23:36Z</time>
      </trkpt>
      <trkpt lat="46.03041" lon="4.80605">
        <ele>232</ele>
        <time>2017-03-29T09:23:37Z</time>
      </trkpt>
      <trkpt lat="46.03044" lon="4.80612">
        <ele>232</ele>
        <time>2017-03-29T09:23:38Z</time>
      </trkpt>
      <trkpt lat="46.03047" lon="4.80619">
        <ele>232</ele>
        <time>2017-03-29T09:23:39Z</time>
      </trkpt>
      <trkpt lat="46.0305" lon="4.80627">
        <ele>232</ele>
        <time>2017-03-29T09:23:40Z</time>
      </trkpt>
      <trkpt lat="46.03053" lon="4.80634">
        <ele>232</ele>
        <time>2017-03-29T09:23:41Z</time>
      </trkpt>
      <trkpt lat="46.03056" lon="4.80641">
        <ele>232</ele>
        <time>2017-03-29T09:23:42Z</time>
      </trkpt>
      <trkpt lat="46.03059" lon="4.80648">
        <ele>232</ele>
        <time>2017-03-29T09:23:43Z</time>
      </trkpt>
      <trkpt lat="46.03062" lon="4.80655">
        <ele>232</ele>
        <time>2017-03-29T09:23:44Z</time>
      </trkpt>
      <trkpt lat="46.03065" lon="4.80662">
        <ele>232</ele>
        <time>2017-03-29T09:23:45Z</time>
      </trkpt>
      <trkpt lat="46.03067" lon="4.80668">
        <ele>233</ele>
        <time>2017-03-29T09:23:46Z</time>
      </trkpt>
      <trkpt lat="46.0307" lon="4.80674">
        <ele>233</ele>
        <time>2017-03-29T09:23:47Z</time>
      </trkpt>
      <trkpt lat="46.03072" lon="4.8068">
        <ele>233</ele>
        <time>2017-03-29T09:23:48Z</time>
      </trkpt>
      <trkpt lat="46.03075" lon="4.80686">
        <ele>233</ele>
        <time>2017-03-29T09:23:49Z</time>
      </trkpt>
      <trkpt lat="46.03078" lon="4.80693">
        <ele>233</ele>
        <time>2017-03-29T09:23:50Z</time>
      </trkpt>
      <trkpt lat="46.03081" lon="4.807">
        <ele>233</ele>
        <time>2017-03-29T09:23:51Z</time>
      </trkpt>
      <trkpt lat="46.03084" lon="4.80707">
        <ele>233</ele>
        <time>2017-03-29T09:23:52Z</time>
      </trkpt>
      <trkpt lat="46.03087" lon="4.80714">
        <ele>233</ele>
        <time>2017-03-29T09:23:53Z</time>
      </trkpt>
      <trkpt lat="46.03091" lon="4.80721">
        <ele>233</ele>
        <time>2017-03-29T09:23:54Z</time>
      </trkpt>
      <trkpt lat="46.03093" lon="4.80728">
        <ele>233</ele>
        <time>2017-03-29T09:23:55Z</time>
      </trkpt>
      <trkpt lat="46.03096" lon="4.80736">
        <ele>233</ele>
        <time>2017-03-29T09:23:56Z</time>
      </trkpt>
      <trkpt lat="46.03098" lon="4.80743">
        <ele>234</ele>
        <time>2017-03-29T09:23:57Z</time>
      </trkpt>
      <trkpt lat="46.03101" lon="4.8075">
        <ele>234</ele>
        <time>2017-03-29T09:23:58Z</time>
      </trkpt>
      <trkpt lat="46.03104" lon="4.80756">
        <ele>234</ele>
        <time>2017-03-29T09:23:59Z</time>
      </trkpt>
      <trkpt lat="46.03107" lon="4.80763">
        <ele>234</ele>
        <time>2017-03-29T09:24:00Z</time>
      </trkpt>
      <trkpt lat="46.03109" lon="4.8077">
        <ele>233</ele>
        <time>2017-03-29T09:24:01Z</time>
      </trkpt>
      <trkpt lat="46.03112" lon="4.80776">
        <ele>233</ele>
        <time>2017-03-29T09:24:02Z</time>
      </trkpt>
      <trkpt lat="46.03115" lon="4.80781">
        <ele>233</ele>
        <time>2017-03-29T09:24:03Z</time>
      </trkpt>
      <trkpt lat="46.03117" lon="4.80787">
        <ele>233</ele>
        <time>2017-03-29T09:24:04Z</time>
      </trkpt>
      <trkpt lat="46.0312" lon="4.80793">
        <ele>233</ele>
        <time>2017-03-29T09:24:05Z</time>
      </trkpt>
      <trkpt lat="46.03123" lon="4.808">
        <ele>233</ele>
        <time>2017-03-29T09:24:06Z</time>
      </trkpt>
      <trkpt lat="46.03126" lon="4.80806">
        <ele>233</ele>
        <time>2017-03-29T09:24:07Z</time>
      </trkpt>
      <trkpt lat="46.03129" lon="4.80812">
        <ele>233</ele>
        <time>2017-03-29T09:24:08Z</time>
      </trkpt>
      <trkpt lat="46.03132" lon="4.80819">
        <ele>233</ele>
        <time>2017-03-29T09:24:09Z</time>
      </trkpt>
      <trkpt lat="46.03134" lon="4.80826">
        <ele>233</ele>
        <time>2017-03-29T09:24:10Z</time>
      </trkpt>
      <trkpt lat="46.03137" lon="4.80832">
        <ele>233</ele>
        <time>2017-03-29T09:24:11Z</time>
      </trkpt>
      <trkpt lat="46.0314" lon="4.80838">
        <ele>232</ele>
        <time>2017-03-29T09:24:12Z</time>
      </trkpt>
      <trkpt lat="46.03143" lon="4.80844">
        <ele>232</ele>
        <time>2017-03-29T09:24:13Z</time>
      </trkpt>
      <trkpt lat="46.03146" lon="4.8085">
        <ele>232</ele>
        <time>2017-03-29T09:24:14Z</time>
      </trkpt>
      <trkpt lat="46.03149" lon="4.80856">
        <ele>232</ele>
        <time>2017-03-29T09:24:15Z</time>
      </trkpt>
      <trkpt lat="46.03152" lon="4.80862">
        <ele>232</ele>
        <time>2017-03-29T09:24:16Z</time>
      </trkpt>
      <trkpt lat="46.03155" lon="4.80869">
        <ele>232</ele>
        <time>2017-03-29T09:24:17Z</time>
      </trkpt>
      <trkpt lat="46.03158" lon="4.80875">
        <ele>232</ele>
        <time>2017-03-29T09:24:18Z</time>
      </trkpt>
      <trkpt lat="46.03162" lon="4.80882">
        <ele>232</ele>
        <time>2017-03-29T09:24:19Z</time>
      </trkpt>
      <trkpt lat="46.03166" lon="4.8089">
        <ele>232</ele>
        <time>2017-03-29T09:24:20Z</time>
      </trkpt>
      <trkpt lat="46.03169" lon="4.80897">
        <ele>231</ele>
        <time>2017-03-29T09:24:21Z</time>
      </trkpt>
      <trkpt lat="46.03173" lon="4.80903">
        <ele>231</ele>
        <time>2017-03-29T09:24:22Z</time>
      </trkpt>
      <trkpt lat="46.03176" lon="4.8091">
        <ele>231</ele>
        <time>2017-03-29T09:24:23Z</time>
      </trkpt>
      <trkpt lat="46.0318" lon="4.80916">
        <ele>231</ele>
        <time>2017-03-29T09:24:24Z</time>
      </trkpt>
      <trkpt lat="46.03184" lon="4.80923">
        <ele>231</ele>
        <time>2017-03-29T09:24:25Z</time>
      </trkpt>
      <trkpt lat="46.03187" lon="4.80929">
        <ele>231</ele>
        <time>2017-03-29T09:24:26Z</time>
      </trkpt>
      <trkpt lat="46.0319" lon="4.80934">
        <ele>231</ele>
        <time>2017-03-29T09:24:27Z</time>
      </trkpt>
      <trkpt lat="46.03194" lon="4.8094">
        <ele>231</ele>
        <time>2017-03-29T09:24:28Z</time>
      </trkpt>
      <trkpt lat="46.03198" lon="4.80945">
        <ele>231</ele>
        <time>2017-03-29T09:24:29Z</time>
      </trkpt>
      <trkpt lat="46.03202" lon="4.8095">
        <ele>231</ele>
        <time>2017-03-29T09:24:30Z</time>
      </trkpt>
      <trkpt lat="46.03207" lon="4.80954">
        <ele>231</ele>
        <time>2017-03-29T09:24:31Z</time>
      </trkpt>
      <trkpt lat="46.03212" lon="4.80958">
        <ele>231</ele>
        <time>2017-03-29T09:24:32Z</time>
      </trkpt>
      <trkpt lat="46.03216" lon="4.80961">
        <ele>231</ele>
        <time>2017-03-29T09:24:33Z</time>
      </trkpt>
      <trkpt lat="46.03222" lon="4.80965">
        <ele>231</ele>
        <time>2017-03-29T09:24:34Z</time>
      </trkpt>
      <trkpt lat="46.03227" lon="4.80969">
        <ele>231</ele>
        <time>2017-03-29T09:24:35Z</time>
      </trkpt>
      <trkpt lat="46.03232" lon="4.80973">
        <ele>231</ele>
        <time>2017-03-29T09:24:36Z</time>
      </trkpt>
      <trkpt lat="46.03237" lon="4.80978">
        <ele>230</ele>
        <time>2017-03-29T09:24:37Z</time>
      </trkpt>
      <trkpt lat="46.03242" lon="4.80981">
        <ele>230</ele>
        <time>2017-03-29T09:24:38Z</time>
      </trkpt>
      <trkpt lat="46.03247" lon="4.80985">
        <ele>230</ele>
        <time>2017-03-29T09:24:39Z</time>
      </trkpt>
      <trkpt lat="46.03253" lon="4.80988">
        <ele>230</ele>
        <time>2017-03-29T09:24:40Z</time>
      </trkpt>
      <trkpt lat="46.03258" lon="4.80992">
        <ele>230</ele>
        <time>2017-03-29T09:24:41Z</time>
      </trkpt>
      <trkpt lat="46.03263" lon="4.80995">
        <ele>230</ele>
        <time>2017-03-29T09:24:42Z</time>
      </trkpt>
      <trkpt lat="46.03268" lon="4.80999">
        <ele>230</ele>
        <time>2017-03-29T09:24:43Z</time>
      </trkpt>
      <trkpt lat="46.03273" lon="4.81003">
        <ele>230</ele>
        <time>2017-03-29T09:24:44Z</time>
      </trkpt>
      <trkpt lat="46.03279" lon="4.81007">
        <ele>230</ele>
        <time>2017-03-29T09:24:45Z</time>
      </trkpt>
      <trkpt lat="46.03285" lon="4.81011">
        <ele>230</ele>
        <time>2017-03-29T09:24:46Z</time>
      </trkpt>
      <trkpt lat="46.0329" lon="4.81014">
        <ele>230</ele>
        <time>2017-03-29T09:24:47Z</time>
      </trkpt>
      <trkpt lat="46.03295" lon="4.81018">
        <ele>230</ele>
        <time>2017-03-29T09:24:48Z</time>
      </trkpt>
      <trkpt lat="46.033" lon="4.81021">
        <ele>230</ele>
        <time>2017-03-29T09:24:49Z</time>
      </trkpt>
      <trkpt lat="46.03305" lon="4.81024">
        <ele>230</ele>
        <time>2017-03-29T09:24:50Z</time>
      </trkpt>
      <trkpt lat="46.0331" lon="4.81028">
        <ele>230</ele>
        <time>2017-03-29T09:24:51Z</time>
      </trkpt>
      <trkpt lat="46.03314" lon="4.81031">
        <ele>230</ele>
        <time>2017-03-29T09:24:52Z</time>
      </trkpt>
      <trkpt lat="46.03318" lon="4.81034">
        <ele>230</ele>
        <time>2017-03-29T09:24:53Z</time>
      </trkpt>
      <trkpt lat="46.03323" lon="4.81037">
        <ele>230</ele>
        <time>2017-03-29T09:24:54Z</time>
      </trkpt>
      <trkpt lat="46.03327" lon="4.8104">
        <ele>230</ele>
        <time>2017-03-29T09:24:55Z</time>
      </trkpt>
      <trkpt lat="46.03333" lon="4.81044">
        <ele>230</ele>
        <time>2017-03-29T09:24:56Z</time>
      </trkpt>
      <trkpt lat="46.03338" lon="4.81048">
        <ele>229</ele>
        <time>2017-03-29T09:24:57Z</time>
      </trkpt>
      <trkpt lat="46.03342" lon="4.81051">
        <ele>229</ele>
        <time>2017-03-29T09:24:58Z</time>
      </trkpt>
      <trkpt lat="46.03348" lon="4.81055">
        <ele>229</ele>
        <time>2017-03-29T09:24:59Z</time>
      </trkpt>
      <trkpt lat="46.03353" lon="4.81059">
        <ele>229</ele>
        <time>2017-03-29T09:25:00Z</time>
      </trkpt>
      <trkpt lat="46.03359" lon="4.81062">
        <ele>229</ele>
        <time>2017-03-29T09:25:01Z</time>
      </trkpt>
      <trkpt lat="46.03364" lon="4.81065">
        <ele>229</ele>
        <time>2017-03-29T09:25:02Z</time>
      </trkpt>
      <trkpt lat="46.0337" lon="4.81068">
        <ele>229</ele>
        <time>2017-03-29T09:25:03Z</time>
      </trkpt>
      <trkpt lat="46.03374" lon="4.81071">
        <ele>229</ele>
        <time>2017-03-29T09:25:04Z</time>
      </trkpt>
      <trkpt lat="46.03378" lon="4.81075">
        <ele>229</ele>
        <time>2017-03-29T09:25:05Z</time>
      </trkpt>
      <trkpt lat="46.03383" lon="4.81078">
        <ele>229</ele>
        <time>2017-03-29T09:25:06Z</time>
      </trkpt>
      <trkpt lat="46.03387" lon="4.81081">
        <ele>229</ele>
        <time>2017-03-29T09:25:07Z</time>
      </trkpt>
      <trkpt lat="46.03391" lon="4.81084">
        <ele>228</ele>
        <time>2017-03-29T09:25:08Z</time>
      </trkpt>
      <trkpt lat="46.03396" lon="4.81087">
        <ele>228</ele>
        <time>2017-03-29T09:25:09Z</time>
      </trkpt>
      <trkpt lat="46.034" lon="4.8109">
        <ele>228</ele>
        <time>2017-03-29T09:25:10Z</time>
      </trkpt>
      <trkpt lat="46.03405" lon="4.81094">
        <ele>228</ele>
        <time>2017-03-29T09:25:11Z</time>
      </trkpt>
      <trkpt lat="46.0341" lon="4.81097">
        <ele>228</ele>
        <time>2017-03-29T09:25:12Z</time>
      </trkpt>
      <trkpt lat="46.03415" lon="4.81101">
        <ele>228</ele>
        <time>2017-03-29T09:25:13Z</time>
      </trkpt>
      <trkpt lat="46.0342" lon="4.81105">
        <ele>228</ele>
        <time>2017-03-29T09:25:14Z</time>
      </trkpt>
      <trkpt lat="46.03424" lon="4.81109">
        <ele>228</ele>
        <time>2017-03-29T09:25:15Z</time>
      </trkpt>
      <trkpt lat="46.03429" lon="4.81112">
        <ele>228</ele>
        <time>2017-03-29T09:25:16Z</time>
      </trkpt>
      <trkpt lat="46.03433" lon="4.81116">
        <ele>228</ele>
        <time>2017-03-29T09:25:17Z</time>
      </trkpt>
      <trkpt lat="46.03438" lon="4.8112">
        <ele>228</ele>
        <time>2017-03-29T09:25:18Z</time>
      </trkpt>
      <trkpt lat="46.03442" lon="4.81123">
        <ele>228</ele>
        <time>2017-03-29T09:25:19Z</time>
      </trkpt>
      <trkpt lat="46.03446" lon="4.81125">
        <ele>228</ele>
        <time>2017-03-29T09:25:20Z</time>
      </trkpt>
      <trkpt lat="46.03454" lon="4.81131">
        <ele>228</ele>
        <time>2017-03-29T09:25:22Z</time>
      </trkpt>
      <trkpt lat="46.03458" lon="4.81134">
        <ele>228</ele>
        <time>2017-03-29T09:25:23Z</time>
      </trkpt>
      <trkpt lat="46.03463" lon="4.81138">
        <ele>228</ele>
        <time>2017-03-29T09:25:24Z</time>
      </trkpt>
      <trkpt lat="46.03468" lon="4.81141">
        <ele>228</ele>
        <time>2017-03-29T09:25:25Z</time>
      </trkpt>
      <trkpt lat="46.03473" lon="4.81146">
        <ele>228</ele>
        <time>2017-03-29T09:25:26Z</time>
      </trkpt>
      <trkpt lat="46.03477" lon="4.81149">
        <ele>228</ele>
        <time>2017-03-29T09:25:27Z</time>
      </trkpt>
      <trkpt lat="46.03482" lon="4.81152">
        <ele>228</ele>
        <time>2017-03-29T09:25:28Z</time>
      </trkpt>
      <trkpt lat="46.03487" lon="4.81155">
        <ele>228</ele>
        <time>2017-03-29T09:25:29Z</time>
      </trkpt>
      <trkpt lat="46.03492" lon="4.81159">
        <ele>229</ele>
        <time>2017-03-29T09:25:30Z</time>
      </trkpt>
      <trkpt lat="46.03497" lon="4.81162">
        <ele>229</ele>
        <time>2017-03-29T09:25:31Z</time>
      </trkpt>
      <trkpt lat="46.03502" lon="4.81166">
        <ele>229</ele>
        <time>2017-03-29T09:25:32Z</time>
      </trkpt>
      <trkpt lat="46.03506" lon="4.81169">
        <ele>229</ele>
        <time>2017-03-29T09:25:33Z</time>
      </trkpt>
      <trkpt lat="46.03511" lon="4.81172">
        <ele>229</ele>
        <time>2017-03-29T09:25:34Z</time>
      </trkpt>
      <trkpt lat="46.03515" lon="4.81175">
        <ele>230</ele>
        <time>2017-03-29T09:25:35Z</time>
      </trkpt>
      <trkpt lat="46.03519" lon="4.81177">
        <ele>230</ele>
        <time>2017-03-29T09:25:36Z</time>
      </trkpt>
      <trkpt lat="46.03524" lon="4.8118">
        <ele>230</ele>
        <time>2017-03-29T09:25:37Z</time>
      </trkpt>
      <trkpt lat="46.03528" lon="4.81183">
        <ele>230</ele>
        <time>2017-03-29T09:25:38Z</time>
      </trkpt>
      <trkpt lat="46.03532" lon="4.81186">
        <ele>230</ele>
        <time>2017-03-29T09:25:39Z</time>
      </trkpt>
      <trkpt lat="46.03536" lon="4.81188">
        <ele>230</ele>
        <time>2017-03-29T09:25:40Z</time>
      </trkpt>
      <trkpt lat="46.0354" lon="4.81191">
        <ele>230</ele>
        <time>2017-03-29T09:25:41Z</time>
      </trkpt>
      <trkpt lat="46.03547" lon="4.81196">
        <ele>230</ele>
        <time>2017-03-29T09:25:43Z</time>
      </trkpt>
      <trkpt lat="46.03551" lon="4.81199">
        <ele>230</ele>
        <time>2017-03-29T09:25:44Z</time>
      </trkpt>
      <trkpt lat="46.03559" lon="4.81204">
        <ele>230</ele>
        <time>2017-03-29T09:25:46Z</time>
      </trkpt>
      <trkpt lat="46.03562" lon="4.81206">
        <ele>230</ele>
        <time>2017-03-29T09:25:47Z</time>
      </trkpt>
      <trkpt lat="46.0357" lon="4.81212">
        <ele>231</ele>
        <time>2017-03-29T09:25:49Z</time>
      </trkpt>
      <trkpt lat="46.03573" lon="4.81214">
        <ele>231</ele>
        <time>2017-03-29T09:25:50Z</time>
      </trkpt>
      <trkpt lat="46.0358" lon="4.81219">
        <ele>231</ele>
        <time>2017-03-29T09:25:52Z</time>
      </trkpt>
      <trkpt lat="46.03584" lon="4.81222">
        <ele>232</ele>
        <time>2017-03-29T09:25:53Z</time>
      </trkpt>
      <trkpt lat="46.03591" lon="4.81227">
        <ele>232</ele>
        <time>2017-03-29T09:25:55Z</time>
      </trkpt>
      <trkpt lat="46.03595" lon="4.8123">
        <ele>232</ele>
        <time>2017-03-29T09:25:56Z</time>
      </trkpt>
      <trkpt lat="46.03602" lon="4.81234">
        <ele>232</ele>
        <time>2017-03-29T09:25:58Z</time>
      </trkpt>
      <trkpt lat="46.03606" lon="4.81237">
        <ele>232</ele>
        <time>2017-03-29T09:25:59Z</time>
      </trkpt>
      <trkpt lat="46.03613" lon="4.81242">
        <ele>233</ele>
        <time>2017-03-29T09:26:01Z</time>
      </trkpt>
      <trkpt lat="46.03617" lon="4.81244">
        <ele>233</ele>
        <time>2017-03-29T09:26:02Z</time>
      </trkpt>
      <trkpt lat="46.03624" lon="4.81249">
        <ele>233</ele>
        <time>2017-03-29T09:26:04Z</time>
      </trkpt>
      <trkpt lat="46.03627" lon="4.81252">
        <ele>234</ele>
        <time>2017-03-29T09:26:05Z</time>
      </trkpt>
      <trkpt lat="46.03634" lon="4.81256">
        <ele>234</ele>
        <time>2017-03-29T09:26:07Z</time>
      </trkpt>
      <trkpt lat="46.03637" lon="4.81259">
        <ele>234</ele>
        <time>2017-03-29T09:26:08Z</time>
      </trkpt>
      <trkpt lat="46.03645" lon="4.81265">
        <ele>234</ele>
        <time>2017-03-29T09:26:10Z</time>
      </trkpt>
      <trkpt lat="46.03648" lon="4.81268">
        <ele>234</ele>
        <time>2017-03-29T09:26:11Z</time>
      </trkpt>
      <trkpt lat="46.03655" lon="4.81274">
        <ele>234</ele>
        <time>2017-03-29T09:26:13Z</time>
      </trkpt>
      <trkpt lat="46.03659" lon="4.81277">
        <ele>234</ele>
        <time>2017-03-29T09:26:14Z</time>
      </trkpt>
      <trkpt lat="46.03665" lon="4.81285">
        <ele>234</ele>
        <time>2017-03-29T09:26:16Z</time>
      </trkpt>
      <trkpt lat="46.03668" lon="4.81288">
        <ele>235</ele>
        <time>2017-03-29T09:26:17Z</time>
      </trkpt>
      <trkpt lat="46.03674" lon="4.81296">
        <ele>235</ele>
        <time>2017-03-29T09:26:19Z</time>
      </trkpt>
      <trkpt lat="46.03677" lon="4.81299">
        <ele>235</ele>
        <time>2017-03-29T09:26:20Z</time>
      </trkpt>
      <trkpt lat="46.03683" lon="4.81308">
        <ele>235</ele>
        <time>2017-03-29T09:26:22Z</time>
      </trkpt>
      <trkpt lat="46.03686" lon="4.81312">
        <ele>235</ele>
        <time>2017-03-29T09:26:23Z</time>
      </trkpt>
      <trkpt lat="46.03691" lon="4.8132">
        <ele>235</ele>
        <time>2017-03-29T09:26:25Z</time>
      </trkpt>
      <trkpt lat="46.03694" lon="4.81325">
        <ele>235</ele>
        <time>2017-03-29T09:26:26Z</time>
      </trkpt>
      <trkpt lat="46.03698" lon="4.81335">
        <ele>235</ele>
        <time>2017-03-29T09:26:28Z</time>
      </trkpt>
      <trkpt lat="46.037" lon="4.8134">
        <ele>235</ele>
        <time>2017-03-29T09:26:29Z</time>
      </trkpt>
      <trkpt lat="46.03706" lon="4.81349">
        <ele>235</ele>
        <time>2017-03-29T09:26:31Z</time>
      </trkpt>
      <trkpt lat="46.03709" lon="4.81353">
        <ele>235</ele>
        <time>2017-03-29T09:26:32Z</time>
      </trkpt>
      <trkpt lat="46.03715" lon="4.81362">
        <ele>235</ele>
        <time>2017-03-29T09:26:34Z</time>
      </trkpt>
      <trkpt lat="46.03718" lon="4.81367">
        <ele>235</ele>
        <time>2017-03-29T09:26:35Z</time>
      </trkpt>
      <trkpt lat="46.03724" lon="4.81375">
        <ele>236</ele>
        <time>2017-03-29T09:26:37Z</time>
      </trkpt>
      <trkpt lat="46.03727" lon="4.8138">
        <ele>236</ele>
        <time>2017-03-29T09:26:38Z</time>
      </trkpt>
      <trkpt lat="46.03733" lon="4.81388">
        <ele>236</ele>
        <time>2017-03-29T09:26:40Z</time>
      </trkpt>
      <trkpt lat="46.03736" lon="4.81393">
        <ele>236</ele>
        <time>2017-03-29T09:26:41Z</time>
      </trkpt>
      <trkpt lat="46.03742" lon="4.81401">
        <ele>236</ele>
        <time>2017-03-29T09:26:43Z</time>
      </trkpt>
      <trkpt lat="46.03745" lon="4.81406">
        <ele>236</ele>
        <time>2017-03-29T09:26:44Z</time>
      </trkpt>
      <trkpt lat="46.03751" lon="4.81415">
        <ele>236</ele>
        <time>2017-03-29T09:26:46Z</time>
      </trkpt>
      <trkpt lat="46.03754" lon="4.8142">
        <ele>236</ele>
        <time>2017-03-29T09:26:47Z</time>
      </trkpt>
      <trkpt lat="46.0376" lon="4.81429">
        <ele>236</ele>
        <time>2017-03-29T09:26:49Z</time>
      </trkpt>
      <trkpt lat="46.03763" lon="4.81434">
        <ele>237</ele>
        <time>2017-03-29T09:26:50Z</time>
      </trkpt>
      <trkpt lat="46.03769" lon="4.81443">
        <ele>237</ele>
        <time>2017-03-29T09:26:52Z</time>
      </trkpt>
      <trkpt lat="46.03772" lon="4.81447">
        <ele>237</ele>
        <time>2017-03-29T09:26:53Z</time>
      </trkpt>
      <trkpt lat="46.03778" lon="4.81456">
        <ele>237</ele>
        <time>2017-03-29T09:26:55Z</time>
      </trkpt>
      <trkpt lat="46.03781" lon="4.8146">
        <ele>237</ele>
        <time>2017-03-29T09:26:56Z</time>
      </trkpt>
      <trkpt lat="46.03787" lon="4.81469">
        <ele>237</ele>
        <time>2017-03-29T09:26:58Z</time>
      </trkpt>
      <trkpt lat="46.03791" lon="4.81474">
        <ele>237</ele>
        <time>2017-03-29T09:26:59Z</time>
      </trkpt>
      <trkpt lat="46.03794" lon="4.81479">
        <ele>237</ele>
        <time>2017-03-29T09:27:00Z</time>
      </trkpt>
      <trkpt lat="46.03798" lon="4.81484">
        <ele>237</ele>
        <time>2017-03-29T09:27:01Z</time>
      </trkpt>
      <trkpt lat="46.03801" lon="4.81488">
        <ele>237</ele>
        <time>2017-03-29T09:27:02Z</time>
      </trkpt>
      <trkpt lat="46.03804" lon="4.81493">
        <ele>237</ele>
        <time>2017-03-29T09:27:03Z</time>
      </trkpt>
      <trkpt lat="46.0381" lon="4.81502">
        <ele>238</ele>
        <time>2017-03-29T09:27:05Z</time>
      </trkpt>
      <trkpt lat="46.03813" lon="4.81506">
        <ele>238</ele>
        <time>2017-03-29T09:27:06Z</time>
      </trkpt>
      <trkpt lat="46.03818" lon="4.81515">
        <ele>238</ele>
        <time>2017-03-29T09:27:08Z</time>
      </trkpt>
      <trkpt lat="46.03821" lon="4.81519">
        <ele>238</ele>
        <time>2017-03-29T09:27:09Z</time>
      </trkpt>
      <trkpt lat="46.03826" lon="4.81528">
        <ele>238</ele>
        <time>2017-03-29T09:27:11Z</time>
      </trkpt>
      <trkpt lat="46.03829" lon="4.81533">
        <ele>238</ele>
        <time>2017-03-29T09:27:12Z</time>
      </trkpt>
      <trkpt lat="46.03832" lon="4.81538">
        <ele>238</ele>
        <time>2017-03-29T09:27:13Z</time>
      </trkpt>
      <trkpt lat="46.03835" lon="4.81543">
        <ele>238</ele>
        <time>2017-03-29T09:27:14Z</time>
      </trkpt>
      <trkpt lat="46.03838" lon="4.81547">
        <ele>238</ele>
        <time>2017-03-29T09:27:15Z</time>
      </trkpt>
      <trkpt lat="46.03841" lon="4.81552">
        <ele>238</ele>
        <time>2017-03-29T09:27:16Z</time>
      </trkpt>
      <trkpt lat="46.03847" lon="4.81561">
        <ele>238</ele>
        <time>2017-03-29T09:27:18Z</time>
      </trkpt>
      <trkpt lat="46.0385" lon="4.81565">
        <ele>238</ele>
        <time>2017-03-29T09:27:19Z</time>
      </trkpt>
      <trkpt lat="46.03856" lon="4.81573">
        <ele>238</ele>
        <time>2017-03-29T09:27:21Z</time>
      </trkpt>
      <trkpt lat="46.03858" lon="4.81578">
        <ele>238</ele>
        <time>2017-03-29T09:27:22Z</time>
      </trkpt>
      <trkpt lat="46.03864" lon="4.81587">
        <ele>238</ele>
        <time>2017-03-29T09:27:24Z</time>
      </trkpt>
      <trkpt lat="46.03866" lon="4.81591">
        <ele>238</ele>
        <time>2017-03-29T09:27:25Z</time>
      </trkpt>
      <trkpt lat="46.03872" lon="4.81599">
        <ele>238</ele>
        <time>2017-03-29T09:27:27Z</time>
      </trkpt>
      <trkpt lat="46.03875" lon="4.81604">
        <ele>238</ele>
        <time>2017-03-29T09:27:28Z</time>
      </trkpt>
      <trkpt lat="46.0388" lon="4.81614">
        <ele>238</ele>
        <time>2017-03-29T09:27:30Z</time>
      </trkpt>
      <trkpt lat="46.03883" lon="4.81619">
        <ele>238</ele>
        <time>2017-03-29T09:27:31Z</time>
      </trkpt>
      <trkpt lat="46.03887" lon="4.81624">
        <ele>238</ele>
        <time>2017-03-29T09:27:32Z</time>
      </trkpt>
      <trkpt lat="46.0389" lon="4.81628">
        <ele>238</ele>
        <time>2017-03-29T09:27:33Z</time>
      </trkpt>
      <trkpt lat="46.03895" lon="4.81638">
        <ele>238</ele>
        <time>2017-03-29T09:27:35Z</time>
      </trkpt>
      <trkpt lat="46.03898" lon="4.81643">
        <ele>238</ele>
        <time>2017-03-29T09:27:36Z</time>
      </trkpt>
      <trkpt lat="46.03903" lon="4.81653">
        <ele>238</ele>
        <time>2017-03-29T09:27:38Z</time>
      </trkpt>
      <trkpt lat="46.03906" lon="4.81658">
        <ele>237</ele>
        <time>2017-03-29T09:27:39Z</time>
      </trkpt>
      <trkpt lat="46.03912" lon="4.81668">
        <ele>237</ele>
        <time>2017-03-29T09:27:41Z</time>
      </trkpt>
      <trkpt lat="46.03914" lon="4.81673">
        <ele>237</ele>
        <time>2017-03-29T09:27:42Z</time>
      </trkpt>
      <trkpt lat="46.03919" lon="4.81683">
        <ele>237</ele>
        <time>2017-03-29T09:27:44Z</time>
      </trkpt>
      <trkpt lat="46.03921" lon="4.81688">
        <ele>237</ele>
        <time>2017-03-29T09:27:45Z</time>
      </trkpt>
      <trkpt lat="46.03924" lon="4.81693">
        <ele>237</ele>
        <time>2017-03-29T09:27:46Z</time>
      </trkpt>
      <trkpt lat="46.03927" lon="4.81699">
        <ele>238</ele>
        <time>2017-03-29T09:27:47Z</time>
      </trkpt>
      <trkpt lat="46.0393" lon="4.81704">
        <ele>238</ele>
        <time>2017-03-29T09:27:48Z</time>
      </trkpt>
      <trkpt lat="46.03932" lon="4.8171">
        <ele>238</ele>
        <time>2017-03-29T09:27:49Z</time>
      </trkpt>
      <trkpt lat="46.03935" lon="4.81715">
        <ele>238</ele>
        <time>2017-03-29T09:27:50Z</time>
      </trkpt>
      <trkpt lat="46.03937" lon="4.81721">
        <ele>238</ele>
        <time>2017-03-29T09:27:51Z</time>
      </trkpt>
      <trkpt lat="46.0394" lon="4.81726">
        <ele>238</ele>
        <time>2017-03-29T09:27:52Z</time>
      </trkpt>
      <trkpt lat="46.03942" lon="4.81731">
        <ele>238</ele>
        <time>2017-03-29T09:27:53Z</time>
      </trkpt>
      <trkpt lat="46.03947" lon="4.81742">
        <ele>238</ele>
        <time>2017-03-29T09:27:55Z</time>
      </trkpt>
      <trkpt lat="46.0395" lon="4.81747">
        <ele>238</ele>
        <time>2017-03-29T09:27:56Z</time>
      </trkpt>
      <trkpt lat="46.03954" lon="4.81757">
        <ele>238</ele>
        <time>2017-03-29T09:27:58Z</time>
      </trkpt>
      <trkpt lat="46.03956" lon="4.81763">
        <ele>238</ele>
        <time>2017-03-29T09:27:59Z</time>
      </trkpt>
      <trkpt lat="46.03959" lon="4.81768">
        <ele>238</ele>
        <time>2017-03-29T09:28:00Z</time>
      </trkpt>
      <trkpt lat="46.03961" lon="4.81774">
        <ele>238</ele>
        <time>2017-03-29T09:28:01Z</time>
      </trkpt>
      <trkpt lat="46.03965" lon="4.81785">
        <ele>238</ele>
        <time>2017-03-29T09:28:03Z</time>
      </trkpt>
      <trkpt lat="46.03968" lon="4.8179">
        <ele>238</ele>
        <time>2017-03-29T09:28:04Z</time>
      </trkpt>
      <trkpt lat="46.03972" lon="4.81801">
        <ele>238</ele>
        <time>2017-03-29T09:28:06Z</time>
      </trkpt>
      <trkpt lat="46.03974" lon="4.81807">
        <ele>238</ele>
        <time>2017-03-29T09:28:07Z</time>
      </trkpt>
      <trkpt lat="46.03976" lon="4.81813">
        <ele>238</ele>
        <time>2017-03-29T09:28:08Z</time>
      </trkpt>
      <trkpt lat="46.03978" lon="4.81819">
        <ele>238</ele>
        <time>2017-03-29T09:28:09Z</time>
      </trkpt>
      <trkpt lat="46.03981" lon="4.81825">
        <ele>238</ele>
        <time>2017-03-29T09:28:10Z</time>
      </trkpt>
      <trkpt lat="46.03983" lon="4.81831">
        <ele>238</ele>
        <time>2017-03-29T09:28:11Z</time>
      </trkpt>
      <trkpt lat="46.03985" lon="4.81837">
        <ele>238</ele>
        <time>2017-03-29T09:28:12Z</time>
      </trkpt>
      <trkpt lat="46.03987" lon="4.81843">
        <ele>238</ele>
        <time>2017-03-29T09:28:13Z</time>
      </trkpt>
      <trkpt lat="46.03991" lon="4.81854">
        <ele>238</ele>
        <time>2017-03-29T09:28:15Z</time>
      </trkpt>
      <trkpt lat="46.03992" lon="4.8186">
        <ele>238</ele>
        <time>2017-03-29T09:28:16Z</time>
      </trkpt>
      <trkpt lat="46.03996" lon="4.81871">
        <ele>238</ele>
        <time>2017-03-29T09:28:18Z</time>
      </trkpt>
      <trkpt lat="46.03997" lon="4.81878">
        <ele>239</ele>
        <time>2017-03-29T09:28:19Z</time>
      </trkpt>
      <trkpt lat="46.03999" lon="4.81884">
        <ele>239</ele>
        <time>2017-03-29T09:28:20Z</time>
      </trkpt>
      <trkpt lat="46.04002" lon="4.8189">
        <ele>239</ele>
        <time>2017-03-29T09:28:21Z</time>
      </trkpt>
      <trkpt lat="46.04003" lon="4.81896">
        <ele>239</ele>
        <time>2017-03-29T09:28:22Z</time>
      </trkpt>
      <trkpt lat="46.04005" lon="4.81902">
        <ele>239</ele>
        <time>2017-03-29T09:28:23Z</time>
      </trkpt>
      <trkpt lat="46.04007" lon="4.81908">
        <ele>239</ele>
        <time>2017-03-29T09:28:24Z</time>
      </trkpt>
      <trkpt lat="46.04009" lon="4.81914">
        <ele>239</ele>
        <time>2017-03-29T09:28:25Z</time>
      </trkpt>
      <trkpt lat="46.04013" lon="4.81925">
        <ele>240</ele>
        <time>2017-03-29T09:28:27Z</time>
      </trkpt>
      <trkpt lat="46.04014" lon="4.8193">
        <ele>240</ele>
        <time>2017-03-29T09:28:28Z</time>
      </trkpt>
      <trkpt lat="46.04018" lon="4.81941">
        <ele>240</ele>
        <time>2017-03-29T09:28:30Z</time>
      </trkpt>
      <trkpt lat="46.0402" lon="4.81946">
        <ele>241</ele>
        <time>2017-03-29T09:28:31Z</time>
      </trkpt>
      <trkpt lat="46.04024" lon="4.81956">
        <ele>241</ele>
        <time>2017-03-29T09:28:33Z</time>
      </trkpt>
      <trkpt lat="46.04026" lon="4.81961">
        <ele>241</ele>
        <time>2017-03-29T09:28:34Z</time>
      </trkpt>
      <trkpt lat="46.04029" lon="4.81973">
        <ele>241</ele>
        <time>2017-03-29T09:28:36Z</time>
      </trkpt>
      <trkpt lat="46.04031" lon="4.81978">
        <ele>241</ele>
        <time>2017-03-29T09:28:37Z</time>
      </trkpt>
      <trkpt lat="46.04035" lon="4.8199">
        <ele>241</ele>
        <time>2017-03-29T09:28:39Z</time>
      </trkpt>
      <trkpt lat="46.04036" lon="4.81995">
        <ele>241</ele>
        <time>2017-03-29T09:28:40Z</time>
      </trkpt>
      <trkpt lat="46.04039" lon="4.82006">
        <ele>242</ele>
        <time>2017-03-29T09:28:42Z</time>
      </trkpt>
      <trkpt lat="46.04041" lon="4.82012">
        <ele>243</ele>
        <time>2017-03-29T09:28:43Z</time>
      </trkpt>
      <trkpt lat="46.04044" lon="4.82024">
        <ele>243</ele>
        <time>2017-03-29T09:28:45Z</time>
      </trkpt>
      <trkpt lat="46.04046" lon="4.8203">
        <ele>243</ele>
        <time>2017-03-29T09:28:46Z</time>
      </trkpt>
      <trkpt lat="46.04049" lon="4.82041">
        <ele>243</ele>
        <time>2017-03-29T09:28:48Z</time>
      </trkpt>
      <trkpt lat="46.04051" lon="4.82047">
        <ele>243</ele>
        <time>2017-03-29T09:28:49Z</time>
      </trkpt>
      <trkpt lat="46.04054" lon="4.82058">
        <ele>243</ele>
        <time>2017-03-29T09:28:51Z</time>
      </trkpt>
      <trkpt lat="46.04056" lon="4.82063">
        <ele>243</ele>
        <time>2017-03-29T09:28:52Z</time>
      </trkpt>
      <trkpt lat="46.04058" lon="4.82069">
        <ele>243</ele>
        <time>2017-03-29T09:28:53Z</time>
      </trkpt>
      <trkpt lat="46.0406" lon="4.82076">
        <ele>243</ele>
        <time>2017-03-29T09:28:54Z</time>
      </trkpt>
      <trkpt lat="46.04062" lon="4.82082">
        <ele>243</ele>
        <time>2017-03-29T09:28:55Z</time>
      </trkpt>
      <trkpt lat="46.04064" lon="4.82088">
        <ele>243</ele>
        <time>2017-03-29T09:28:56Z</time>
      </trkpt>
      <trkpt lat="46.04066" lon="4.82094">
        <ele>243</ele>
        <time>2017-03-29T09:28:57Z</time>
      </trkpt>
      <trkpt lat="46.04068" lon="4.821">
        <ele>243</ele>
        <time>2017-03-29T09:28:58Z</time>
      </trkpt>
      <trkpt lat="46.04069" lon="4.82106">
        <ele>243</ele>
        <time>2017-03-29T09:28:59Z</time>
      </trkpt>
      <trkpt lat="46.04071" lon="4.82112">
        <ele>243</ele>
        <time>2017-03-29T09:29:00Z</time>
      </trkpt>
      <trkpt lat="46.04074" lon="4.82118">
        <ele>243</ele>
        <time>2017-03-29T09:29:01Z</time>
      </trkpt>
      <trkpt lat="46.04076" lon="4.82123">
        <ele>243</ele>
        <time>2017-03-29T09:29:02Z</time>
      </trkpt>
      <trkpt lat="46.0408" lon="4.82134">
        <ele>243</ele>
        <time>2017-03-29T09:29:04Z</time>
      </trkpt>
      <trkpt lat="46.04083" lon="4.8214">
        <ele>243</ele>
        <time>2017-03-29T09:29:05Z</time>
      </trkpt>
      <trkpt lat="46.04088" lon="4.8215">
        <ele>242</ele>
        <time>2017-03-29T09:29:07Z</time>
      </trkpt>
      <trkpt lat="46.0409" lon="4.82155">
        <ele>242</ele>
        <time>2017-03-29T09:29:08Z</time>
      </trkpt>
      <trkpt lat="46.04095" lon="4.82164">
        <ele>242</ele>
        <time>2017-03-29T09:29:10Z</time>
      </trkpt>
      <trkpt lat="46.04098" lon="4.82168">
        <ele>243</ele>
        <time>2017-03-29T09:29:11Z</time>
      </trkpt>
      <trkpt lat="46.04103" lon="4.82177">
        <ele>243</ele>
        <time>2017-03-29T09:29:13Z</time>
      </trkpt>
      <trkpt lat="46.04106" lon="4.82181">
        <ele>242</ele>
        <time>2017-03-29T09:29:14Z</time>
      </trkpt>
      <trkpt lat="46.04111" lon="4.8219">
        <ele>242</ele>
        <time>2017-03-29T09:29:16Z</time>
      </trkpt>
      <trkpt lat="46.04114" lon="4.82194">
        <ele>242</ele>
        <time>2017-03-29T09:29:17Z</time>
      </trkpt>
      <trkpt lat="46.04118" lon="4.82198">
        <ele>242</ele>
        <time>2017-03-29T09:29:18Z</time>
      </trkpt>
      <trkpt lat="46.04121" lon="4.82203">
        <ele>242</ele>
        <time>2017-03-29T09:29:19Z</time>
      </trkpt>
      <trkpt lat="46.04125" lon="4.82207">
        <ele>242</ele>
        <time>2017-03-29T09:29:20Z</time>
      </trkpt>
      <trkpt lat="46.04128" lon="4.82212">
        <ele>242</ele>
        <time>2017-03-29T09:29:21Z</time>
      </trkpt>
      <trkpt lat="46.04135" lon="4.8222">
        <ele>242</ele>
        <time>2017-03-29T09:29:23Z</time>
      </trkpt>
      <trkpt lat="46.04137" lon="4.82224">
        <ele>242</ele>
        <time>2017-03-29T09:29:24Z</time>
      </trkpt>
      <trkpt lat="46.04143" lon="4.82231">
        <ele>242</ele>
        <time>2017-03-29T09:29:26Z</time>
      </trkpt>
      <trkpt lat="46.04146" lon="4.82235">
        <ele>242</ele>
        <time>2017-03-29T09:29:27Z</time>
      </trkpt>
      <trkpt lat="46.0415" lon="4.82239">
        <ele>242</ele>
        <time>2017-03-29T09:29:28Z</time>
      </trkpt>
      <trkpt lat="46.04153" lon="4.82244">
        <ele>242</ele>
        <time>2017-03-29T09:29:29Z</time>
      </trkpt>
      <trkpt lat="46.04157" lon="4.82248">
        <ele>242</ele>
        <time>2017-03-29T09:29:30Z</time>
      </trkpt>
      <trkpt lat="46.0416" lon="4.82253">
        <ele>242</ele>
        <time>2017-03-29T09:29:31Z</time>
      </trkpt>
      <trkpt lat="46.04164" lon="4.82257">
        <ele>242</ele>
        <time>2017-03-29T09:29:32Z</time>
      </trkpt>
      <trkpt lat="46.04167" lon="4.82262">
        <ele>242</ele>
        <time>2017-03-29T09:29:33Z</time>
      </trkpt>
      <trkpt lat="46.04172" lon="4.82267">
        <ele>242</ele>
        <time>2017-03-29T09:29:34Z</time>
      </trkpt>
      <trkpt lat="46.04176" lon="4.82271">
        <ele>242</ele>
        <time>2017-03-29T09:29:35Z</time>
      </trkpt>
      <trkpt lat="46.04179" lon="4.82276">
        <ele>242</ele>
        <time>2017-03-29T09:29:36Z</time>
      </trkpt>
      <trkpt lat="46.04182" lon="4.8228">
        <ele>242</ele>
        <time>2017-03-29T09:29:37Z</time>
      </trkpt>
      <trkpt lat="46.04188" lon="4.82288">
        <ele>242</ele>
        <time>2017-03-29T09:29:39Z</time>
      </trkpt>
      <trkpt lat="46.0419" lon="4.82291">
        <ele>242</ele>
        <time>2017-03-29T09:29:40Z</time>
      </trkpt>
      <trkpt lat="46.04196" lon="4.823">
        <ele>242</ele>
        <time>2017-03-29T09:29:42Z</time>
      </trkpt>
      <trkpt lat="46.042" lon="4.82304">
        <ele>242</ele>
        <time>2017-03-29T09:29:43Z</time>
      </trkpt>
      <trkpt lat="46.04204" lon="4.82307">
        <ele>242</ele>
        <time>2017-03-29T09:29:44Z</time>
      </trkpt>
      <trkpt lat="46.04207" lon="4.82311">
        <ele>242</ele>
        <time>2017-03-29T09:29:45Z</time>
      </trkpt>
      <trkpt lat="46.04211" lon="4.82316">
        <ele>242</ele>
        <time>2017-03-29T09:29:46Z</time>
      </trkpt>
      <trkpt lat="46.04215" lon="4.8232">
        <ele>242</ele>
        <time>2017-03-29T09:29:47Z</time>
      </trkpt>
      <trkpt lat="46.04218" lon="4.82324">
        <ele>242</ele>
        <time>2017-03-29T09:29:48Z</time>
      </trkpt>
      <trkpt lat="46.04222" lon="4.82329">
        <ele>242</ele>
        <time>2017-03-29T09:29:49Z</time>
      </trkpt>
      <trkpt lat="46.04226" lon="4.82333">
        <ele>242</ele>
        <time>2017-03-29T09:29:50Z</time>
      </trkpt>
      <trkpt lat="46.0423" lon="4.82338">
        <ele>243</ele>
        <time>2017-03-29T09:29:51Z</time>
      </trkpt>
      <trkpt lat="46.04233" lon="4.82343">
        <ele>243</ele>
        <time>2017-03-29T09:29:52Z</time>
      </trkpt>
      <trkpt lat="46.04237" lon="4.82348">
        <ele>243</ele>
        <time>2017-03-29T09:29:53Z</time>
      </trkpt>
      <trkpt lat="46.0424" lon="4.82352">
        <ele>243</ele>
        <time>2017-03-29T09:29:54Z</time>
      </trkpt>
      <trkpt lat="46.04244" lon="4.82356">
        <ele>243</ele>
        <time>2017-03-29T09:29:55Z</time>
      </trkpt>
      <trkpt lat="46.04247" lon="4.82361">
        <ele>243</ele>
        <time>2017-03-29T09:29:56Z</time>
      </trkpt>
      <trkpt lat="46.04251" lon="4.82366">
        <ele>243</ele>
        <time>2017-03-29T09:29:57Z</time>
      </trkpt>
      <trkpt lat="46.04254" lon="4.82371">
        <ele>243</ele>
        <time>2017-03-29T09:29:58Z</time>
      </trkpt>
      <trkpt lat="46.04258" lon="4.82375">
        <ele>243</ele>
        <time>2017-03-29T09:29:59Z</time>
      </trkpt>
      <trkpt lat="46.04262" lon="4.82379">
        <ele>243</ele>
        <time>2017-03-29T09:30:00Z</time>
      </trkpt>
      <trkpt lat="46.04265" lon="4.82384">
        <ele>243</ele>
        <time>2017-03-29T09:30:01Z</time>
      </trkpt>
      <trkpt lat="46.04269" lon="4.82388">
        <ele>243</ele>
        <time>2017-03-29T09:30:02Z</time>
      </trkpt>
      <trkpt lat="46.04272" lon="4.82392">
        <ele>243</ele>
        <time>2017-03-29T09:30:03Z</time>
      </trkpt>
      <trkpt lat="46.04276" lon="4.82397">
        <ele>242</ele>
        <time>2017-03-29T09:30:04Z</time>
      </trkpt>
      <trkpt lat="46.0428" lon="4.82402">
        <ele>242</ele>
        <time>2017-03-29T09:30:05Z</time>
      </trkpt>
      <trkpt lat="46.04284" lon="4.82406">
        <ele>242</ele>
        <time>2017-03-29T09:30:06Z</time>
      </trkpt>
      <trkpt lat="46.04287" lon="4.82411">
        <ele>242</ele>
        <time>2017-03-29T09:30:07Z</time>
      </trkpt>
      <trkpt lat="46.04291" lon="4.82415">
        <ele>242</ele>
        <time>2017-03-29T09:30:08Z</time>
      </trkpt>
      <trkpt lat="46.04294" lon="4.8242">
        <ele>243</ele>
        <time>2017-03-29T09:30:09Z</time>
      </trkpt>
      <trkpt lat="46.04298" lon="4.82424">
        <ele>243</ele>
        <time>2017-03-29T09:30:10Z</time>
      </trkpt>
      <trkpt lat="46.04302" lon="4.82428">
        <ele>242</ele>
        <time>2017-03-29T09:30:11Z</time>
      </trkpt>
      <trkpt lat="46.04308" lon="4.82436">
        <ele>242</ele>
        <time>2017-03-29T09:30:13Z</time>
      </trkpt>
      <trkpt lat="46.04311" lon="4.82441">
        <ele>242</ele>
        <time>2017-03-29T09:30:14Z</time>
      </trkpt>
      <trkpt lat="46.04317" lon="4.82449">
        <ele>242</ele>
        <time>2017-03-29T09:30:16Z</time>
      </trkpt>
      <trkpt lat="46.04321" lon="4.82453">
        <ele>242</ele>
        <time>2017-03-29T09:30:17Z</time>
      </trkpt>
      <trkpt lat="46.04327" lon="4.82461">
        <ele>243</ele>
        <time>2017-03-29T09:30:19Z</time>
      </trkpt>
      <trkpt lat="46.04331" lon="4.82464">
        <ele>243</ele>
        <time>2017-03-29T09:30:20Z</time>
      </trkpt>
      <trkpt lat="46.04338" lon="4.82473">
        <ele>242</ele>
        <time>2017-03-29T09:30:22Z</time>
      </trkpt>
      <trkpt lat="46.04341" lon="4.82477">
        <ele>242</ele>
        <time>2017-03-29T09:30:23Z</time>
      </trkpt>
      <trkpt lat="46.04346" lon="4.82481">
        <ele>242</ele>
        <time>2017-03-29T09:30:24Z</time>
      </trkpt>
      <trkpt lat="46.0435" lon="4.82485">
        <ele>242</ele>
        <time>2017-03-29T09:30:25Z</time>
      </trkpt>
      <trkpt lat="46.04354" lon="4.82489">
        <ele>242</ele>
        <time>2017-03-29T09:30:26Z</time>
      </trkpt>
      <trkpt lat="46.04358" lon="4.82493">
        <ele>242</ele>
        <time>2017-03-29T09:30:27Z</time>
      </trkpt>
      <trkpt lat="46.04361" lon="4.82497">
        <ele>241</ele>
        <time>2017-03-29T09:30:28Z</time>
      </trkpt>
      <trkpt lat="46.04365" lon="4.82501">
        <ele>242</ele>
        <time>2017-03-29T09:30:29Z</time>
      </trkpt>
      <trkpt lat="46.04372" lon="4.82507">
        <ele>242</ele>
        <time>2017-03-29T09:30:31Z</time>
      </trkpt>
      <trkpt lat="46.04375" lon="4.82511">
        <ele>242</ele>
        <time>2017-03-29T09:30:32Z</time>
      </trkpt>
      <trkpt lat="46.0438" lon="4.82519">
        <ele>242</ele>
        <time>2017-03-29T09:30:34Z</time>
      </trkpt>
      <trkpt lat="46.04382" lon="4.82522">
        <ele>242</ele>
        <time>2017-03-29T09:30:35Z</time>
      </trkpt>
      <trkpt lat="46.04389" lon="4.82525">
        <ele>242</ele>
        <time>2017-03-29T09:30:37Z</time>
      </trkpt>
      <trkpt lat="46.04394" lon="4.82525">
        <ele>242</ele>
        <time>2017-03-29T09:30:38Z</time>
      </trkpt>
      <trkpt lat="46.04399" lon="4.82525">
        <ele>241</ele>
        <time>2017-03-29T09:30:39Z</time>
      </trkpt>
      <trkpt lat="46.04404" lon="4.82523">
        <ele>241</ele>
        <time>2017-03-29T09:30:40Z</time>
      </trkpt>
      <trkpt lat="46.04409" lon="4.82522">
        <ele>241</ele>
        <time>2017-03-29T09:30:41Z</time>
      </trkpt>
      <trkpt lat="46.04414" lon="4.8252">
        <ele>241</ele>
        <time>2017-03-29T09:30:42Z</time>
      </trkpt>
      <trkpt lat="46.0442" lon="4.82517">
        <ele>240</ele>
        <time>2017-03-29T09:30:43Z</time>
      </trkpt>
      <trkpt lat="46.04425" lon="4.82515">
        <ele>240</ele>
        <time>2017-03-29T09:30:44Z</time>
      </trkpt>
      <trkpt lat="46.0443" lon="4.82514">
        <ele>240</ele>
        <time>2017-03-29T09:30:45Z</time>
      </trkpt>
      <trkpt lat="46.04435" lon="4.82512">
        <ele>240</ele>
        <time>2017-03-29T09:30:46Z</time>
      </trkpt>
      <trkpt lat="46.0444" lon="4.8251">
        <ele>240</ele>
        <time>2017-03-29T09:30:47Z</time>
      </trkpt>
      <trkpt lat="46.04445" lon="4.82507">
        <ele>240</ele>
        <time>2017-03-29T09:30:48Z</time>
      </trkpt>
      <trkpt lat="46.0445" lon="4.82505">
        <ele>239</ele>
        <time>2017-03-29T09:30:49Z</time>
      </trkpt>
      <trkpt lat="46.04455" lon="4.82502">
        <ele>239</ele>
        <time>2017-03-29T09:30:50Z</time>
      </trkpt>
      <trkpt lat="46.0446" lon="4.825">
        <ele>239</ele>
        <time>2017-03-29T09:30:51Z</time>
      </trkpt>
      <trkpt lat="46.04465" lon="4.82498">
        <ele>239</ele>
        <time>2017-03-29T09:30:52Z</time>
      </trkpt>
      <trkpt lat="46.0447" lon="4.82495">
        <ele>238</ele>
        <time>2017-03-29T09:30:53Z</time>
      </trkpt>
      <trkpt lat="46.04475" lon="4.82493">
        <ele>238</ele>
        <time>2017-03-29T09:30:54Z</time>
      </trkpt>
      <trkpt lat="46.0448" lon="4.82491">
        <ele>238</ele>
        <time>2017-03-29T09:30:55Z</time>
      </trkpt>
      <trkpt lat="46.04485" lon="4.82488">
        <ele>238</ele>
        <time>2017-03-29T09:30:56Z</time>
      </trkpt>
      <trkpt lat="46.04489" lon="4.82486">
        <ele>238</ele>
        <time>2017-03-29T09:30:57Z</time>
      </trkpt>
      <trkpt lat="46.04494" lon="4.82484">
        <ele>238</ele>
        <time>2017-03-29T09:30:58Z</time>
      </trkpt>
      <trkpt lat="46.04499" lon="4.82481">
        <ele>238</ele>
        <time>2017-03-29T09:30:59Z</time>
      </trkpt>
      <trkpt lat="46.04503" lon="4.82479">
        <ele>238</ele>
        <time>2017-03-29T09:31:00Z</time>
      </trkpt>
      <trkpt lat="46.04508" lon="4.82476">
        <ele>238</ele>
        <time>2017-03-29T09:31:01Z</time>
      </trkpt>
      <trkpt lat="46.04513" lon="4.82474">
        <ele>238</ele>
        <time>2017-03-29T09:31:02Z</time>
      </trkpt>
      <trkpt lat="46.04518" lon="4.82472">
        <ele>238</ele>
        <time>2017-03-29T09:31:03Z</time>
      </trkpt>
      <trkpt lat="46.04523" lon="4.82469">
        <ele>238</ele>
        <time>2017-03-29T09:31:04Z</time>
      </trkpt>
      <trkpt lat="46.04528" lon="4.82467">
        <ele>238</ele>
        <time>2017-03-29T09:31:05Z</time>
      </trkpt>
      <trkpt lat="46.04533" lon="4.82465">
        <ele>238</ele>
        <time>2017-03-29T09:31:06Z</time>
      </trkpt>
      <trkpt lat="46.04538" lon="4.82463">
        <ele>238</ele>
        <time>2017-03-29T09:31:07Z</time>
      </trkpt>
      <trkpt lat="46.04543" lon="4.82461">
        <ele>238</ele>
        <time>2017-03-29T09:31:08Z</time>
      </trkpt>
      <trkpt lat="46.04549" lon="4.82458">
        <ele>238</ele>
        <time>2017-03-29T09:31:09Z</time>
      </trkpt>
      <trkpt lat="46.04554" lon="4.82455">
        <ele>238</ele>
        <time>2017-03-29T09:31:10Z</time>
      </trkpt>
      <trkpt lat="46.0456" lon="4.82452">
        <ele>238</ele>
        <time>2017-03-29T09:31:11Z</time>
      </trkpt>
      <trkpt lat="46.04565" lon="4.82449">
        <ele>238</ele>
        <time>2017-03-29T09:31:12Z</time>
      </trkpt>
      <trkpt lat="46.0457" lon="4.82447">
        <ele>238</ele>
        <time>2017-03-29T09:31:13Z</time>
      </trkpt>
      <trkpt lat="46.04574" lon="4.82445">
        <ele>239</ele>
        <time>2017-03-29T09:31:14Z</time>
      </trkpt>
      <trkpt lat="46.04582" lon="4.8244">
        <ele>239</ele>
        <time>2017-03-29T09:31:16Z</time>
      </trkpt>
      <trkpt lat="46.04585" lon="4.82438">
        <ele>240</ele>
        <time>2017-03-29T09:31:17Z</time>
      </trkpt>
      <trkpt lat="46.04593" lon="4.82434">
        <ele>240</ele>
        <time>2017-03-29T09:31:19Z</time>
      </trkpt>
      <trkpt lat="46.04596" lon="4.82432">
        <ele>240</ele>
        <time>2017-03-29T09:31:20Z</time>
      </trkpt>
      <trkpt lat="46.04604" lon="4.82429">
        <ele>240</ele>
        <time>2017-03-29T09:31:22Z</time>
      </trkpt>
      <trkpt lat="46.04609" lon="4.82427">
        <ele>240</ele>
        <time>2017-03-29T09:31:23Z</time>
      </trkpt>
      <trkpt lat="46.04616" lon="4.82423">
        <ele>240</ele>
        <time>2017-03-29T09:31:25Z</time>
      </trkpt>
      <trkpt lat="46.0462" lon="4.82422">
        <ele>240</ele>
        <time>2017-03-29T09:31:26Z</time>
      </trkpt>
      <trkpt lat="46.04628" lon="4.82418">
        <ele>241</ele>
        <time>2017-03-29T09:31:28Z</time>
      </trkpt>
      <trkpt lat="46.04633" lon="4.82416">
        <ele>240</ele>
        <time>2017-03-29T09:31:29Z</time>
      </trkpt>
      <trkpt lat="46.04641" lon="4.82413">
        <ele>241</ele>
        <time>2017-03-29T09:31:31Z</time>
      </trkpt>
      <trkpt lat="46.04645" lon="4.82411">
        <ele>241</ele>
        <time>2017-03-29T09:31:32Z</time>
      </trkpt>
      <trkpt lat="46.04653" lon="4.82408">
        <ele>241</ele>
        <time>2017-03-29T09:31:34Z</time>
      </trkpt>
      <trkpt lat="46.04657" lon="4.82406">
        <ele>241</ele>
        <time>2017-03-29T09:31:35Z</time>
      </trkpt>
      <trkpt lat="46.04665" lon="4.82402">
        <ele>241</ele>
        <time>2017-03-29T09:31:37Z</time>
      </trkpt>
      <trkpt lat="46.0467" lon="4.824">
        <ele>241</ele>
        <time>2017-03-29T09:31:38Z</time>
      </trkpt>
      <trkpt lat="46.04674" lon="4.82399">
        <ele>241</ele>
        <time>2017-03-29T09:31:39Z</time>
      </trkpt>
      <trkpt lat="46.04678" lon="4.82397">
        <ele>241</ele>
        <time>2017-03-29T09:31:40Z</time>
      </trkpt>
      <trkpt lat="46.04683" lon="4.82394">
        <ele>241</ele>
        <time>2017-03-29T09:31:41Z</time>
      </trkpt>
      <trkpt lat="46.04687" lon="4.82392">
        <ele>241</ele>
        <time>2017-03-29T09:31:42Z</time>
      </trkpt>
      <trkpt lat="46.04692" lon="4.82391">
        <ele>241</ele>
        <time>2017-03-29T09:31:43Z</time>
      </trkpt>
      <trkpt lat="46.04696" lon="4.82389">
        <ele>241</ele>
        <time>2017-03-29T09:31:44Z</time>
      </trkpt>
      <trkpt lat="46.04701" lon="4.82387">
        <ele>241</ele>
        <time>2017-03-29T09:31:45Z</time>
      </trkpt>
      <trkpt lat="46.04705" lon="4.82385">
        <ele>241</ele>
        <time>2017-03-29T09:31:46Z</time>
      </trkpt>
      <trkpt lat="46.0471" lon="4.82383">
        <ele>241</ele>
        <time>2017-03-29T09:31:47Z</time>
      </trkpt>
      <trkpt lat="46.04715" lon="4.8238">
        <ele>240</ele>
        <time>2017-03-29T09:31:48Z</time>
      </trkpt>
      <trkpt lat="46.0472" lon="4.82378">
        <ele>240</ele>
        <time>2017-03-29T09:31:49Z</time>
      </trkpt>
      <trkpt lat="46.04725" lon="4.82376">
        <ele>240</ele>
        <time>2017-03-29T09:31:50Z</time>
      </trkpt>
      <trkpt lat="46.04729" lon="4.82374">
        <ele>240</ele>
        <time>2017-03-29T09:31:51Z</time>
      </trkpt>
      <trkpt lat="46.04734" lon="4.82371">
        <ele>240</ele>
        <time>2017-03-29T09:31:52Z</time>
      </trkpt>
      <trkpt lat="46.04739" lon="4.82369">
        <ele>240</ele>
        <time>2017-03-29T09:31:53Z</time>
      </trkpt>
      <trkpt lat="46.04745" lon="4.82367">
        <ele>240</ele>
        <time>2017-03-29T09:31:54Z</time>
      </trkpt>
      <trkpt lat="46.0475" lon="4.82364">
        <ele>240</ele>
        <time>2017-03-29T09:31:55Z</time>
      </trkpt>
      <trkpt lat="46.04755" lon="4.82362">
        <ele>240</ele>
        <time>2017-03-29T09:31:56Z</time>
      </trkpt>
      <trkpt lat="46.04761" lon="4.82359">
        <ele>240</ele>
        <time>2017-03-29T09:31:57Z</time>
      </trkpt>
      <trkpt lat="46.04766" lon="4.82357">
        <ele>240</ele>
        <time>2017-03-29T09:31:58Z</time>
      </trkpt>
      <trkpt lat="46.04771" lon="4.82355">
        <ele>240</ele>
        <time>2017-03-29T09:31:59Z</time>
      </trkpt>
      <trkpt lat="46.04777" lon="4.82352">
        <ele>240</ele>
        <time>2017-03-29T09:32:00Z</time>
      </trkpt>
      <trkpt lat="46.04782" lon="4.8235">
        <ele>239</ele>
        <time>2017-03-29T09:32:01Z</time>
      </trkpt>
      <trkpt lat="46.04787" lon="4.82347">
        <ele>239</ele>
        <time>2017-03-29T09:32:02Z</time>
      </trkpt>
      <trkpt lat="46.04792" lon="4.82344">
        <ele>239</ele>
        <time>2017-03-29T09:32:03Z</time>
      </trkpt>
      <trkpt lat="46.04796" lon="4.82342">
        <ele>239</ele>
        <time>2017-03-29T09:32:04Z</time>
      </trkpt>
      <trkpt lat="46.04801" lon="4.8234">
        <ele>239</ele>
        <time>2017-03-29T09:32:05Z</time>
      </trkpt>
      <trkpt lat="46.04806" lon="4.82338">
        <ele>239</ele>
        <time>2017-03-29T09:32:06Z</time>
      </trkpt>
      <trkpt lat="46.04811" lon="4.82336">
        <ele>239</ele>
        <time>2017-03-29T09:32:07Z</time>
      </trkpt>
      <trkpt lat="46.04816" lon="4.82333">
        <ele>238</ele>
        <time>2017-03-29T09:32:08Z</time>
      </trkpt>
      <trkpt lat="46.0482" lon="4.82331">
        <ele>238</ele>
        <time>2017-03-29T09:32:09Z</time>
      </trkpt>
      <trkpt lat="46.04825" lon="4.82329">
        <ele>238</ele>
        <time>2017-03-29T09:32:10Z</time>
      </trkpt>
      <trkpt lat="46.04831" lon="4.82326">
        <ele>238</ele>
        <time>2017-03-29T09:32:11Z</time>
      </trkpt>
      <trkpt lat="46.04835" lon="4.82324">
        <ele>237</ele>
        <time>2017-03-29T09:32:12Z</time>
      </trkpt>
      <trkpt lat="46.0484" lon="4.82321">
        <ele>237</ele>
        <time>2017-03-29T09:32:13Z</time>
      </trkpt>
      <trkpt lat="46.04845" lon="4.82319">
        <ele>237</ele>
        <time>2017-03-29T09:32:14Z</time>
      </trkpt>
      <trkpt lat="46.04851" lon="4.82317">
        <ele>237</ele>
        <time>2017-03-29T09:32:15Z</time>
      </trkpt>
      <trkpt lat="46.04856" lon="4.82314">
        <ele>237</ele>
        <time>2017-03-29T09:32:16Z</time>
      </trkpt>
      <trkpt lat="46.04861" lon="4.82312">
        <ele>237</ele>
        <time>2017-03-29T09:32:17Z</time>
      </trkpt>
      <trkpt lat="46.04866" lon="4.8231">
        <ele>237</ele>
        <time>2017-03-29T09:32:18Z</time>
      </trkpt>
      <trkpt lat="46.04871" lon="4.82307">
        <ele>237</ele>
        <time>2017-03-29T09:32:19Z</time>
      </trkpt>
      <trkpt lat="46.04876" lon="4.82305">
        <ele>237</ele>
        <time>2017-03-29T09:32:20Z</time>
      </trkpt>
      <trkpt lat="46.04882" lon="4.82303">
        <ele>237</ele>
        <time>2017-03-29T09:32:21Z</time>
      </trkpt>
      <trkpt lat="46.04887" lon="4.823">
        <ele>237</ele>
        <time>2017-03-29T09:32:22Z</time>
      </trkpt>
      <trkpt lat="46.04892" lon="4.82297">
        <ele>237</ele>
        <time>2017-03-29T09:32:23Z</time>
      </trkpt>
      <trkpt lat="46.04898" lon="4.82295">
        <ele>237</ele>
        <time>2017-03-29T09:32:24Z</time>
      </trkpt>
      <trkpt lat="46.04903" lon="4.82292">
        <ele>236</ele>
        <time>2017-03-29T09:32:25Z</time>
      </trkpt>
      <trkpt lat="46.04908" lon="4.82289">
        <ele>236</ele>
        <time>2017-03-29T09:32:26Z</time>
      </trkpt>
      <trkpt lat="46.04913" lon="4.82287">
        <ele>236</ele>
        <time>2017-03-29T09:32:27Z</time>
      </trkpt>
      <trkpt lat="46.04918" lon="4.82285">
        <ele>236</ele>
        <time>2017-03-29T09:32:28Z</time>
      </trkpt>
      <trkpt lat="46.04923" lon="4.82282">
        <ele>236</ele>
        <time>2017-03-29T09:32:29Z</time>
      </trkpt>
      <trkpt lat="46.04928" lon="4.8228">
        <ele>236</ele>
        <time>2017-03-29T09:32:30Z</time>
      </trkpt>
      <trkpt lat="46.04933" lon="4.82278">
        <ele>236</ele>
        <time>2017-03-29T09:32:31Z</time>
      </trkpt>
      <trkpt lat="46.04937" lon="4.82276">
        <ele>236</ele>
        <time>2017-03-29T09:32:32Z</time>
      </trkpt>
      <trkpt lat="46.04941" lon="4.82275">
        <ele>236</ele>
        <time>2017-03-29T09:32:33Z</time>
      </trkpt>
      <trkpt lat="46.04946" lon="4.82274">
        <ele>236</ele>
        <time>2017-03-29T09:32:34Z</time>
      </trkpt>
      <trkpt lat="46.04951" lon="4.82271">
        <ele>236</ele>
        <time>2017-03-29T09:32:35Z</time>
      </trkpt>
      <trkpt lat="46.04956" lon="4.82269">
        <ele>236</ele>
        <time>2017-03-29T09:32:36Z</time>
      </trkpt>
      <trkpt lat="46.04961" lon="4.82267">
        <ele>236</ele>
        <time>2017-03-29T09:32:37Z</time>
      </trkpt>
      <trkpt lat="46.04967" lon="4.82265">
        <ele>236</ele>
        <time>2017-03-29T09:32:38Z</time>
      </trkpt>
      <trkpt lat="46.04973" lon="4.82263">
        <ele>236</ele>
        <time>2017-03-29T09:32:39Z</time>
      </trkpt>
      <trkpt lat="46.0498" lon="4.8226">
        <ele>236</ele>
        <time>2017-03-29T09:32:40Z</time>
      </trkpt>
      <trkpt lat="46.04985" lon="4.82258">
        <ele>236</ele>
        <time>2017-03-29T09:32:41Z</time>
      </trkpt>
      <trkpt lat="46.04991" lon="4.82256">
        <ele>236</ele>
        <time>2017-03-29T09:32:42Z</time>
      </trkpt>
      <trkpt lat="46.04996" lon="4.82254">
        <ele>236</ele>
        <time>2017-03-29T09:32:43Z</time>
      </trkpt>
      <trkpt lat="46.05001" lon="4.82251">
        <ele>236</ele>
        <time>2017-03-29T09:32:44Z</time>
      </trkpt>
      <trkpt lat="46.05006" lon="4.82249">
        <ele>236</ele>
        <time>2017-03-29T09:32:45Z</time>
      </trkpt>
      <trkpt lat="46.05011" lon="4.82247">
        <ele>236</ele>
        <time>2017-03-29T09:32:46Z</time>
      </trkpt>
      <trkpt lat="46.05015" lon="4.82244">
        <ele>236</ele>
        <time>2017-03-29T09:32:47Z</time>
      </trkpt>
      <trkpt lat="46.0502" lon="4.82243">
        <ele>236</ele>
        <time>2017-03-29T09:32:48Z</time>
      </trkpt>
      <trkpt lat="46.05025" lon="4.82241">
        <ele>236</ele>
        <time>2017-03-29T09:32:49Z</time>
      </trkpt>
      <trkpt lat="46.05029" lon="4.82238">
        <ele>236</ele>
        <time>2017-03-29T09:32:50Z</time>
      </trkpt>
      <trkpt lat="46.05038" lon="4.82235">
        <ele>236</ele>
        <time>2017-03-29T09:32:52Z</time>
      </trkpt>
      <trkpt lat="46.05042" lon="4.82233">
        <ele>236</ele>
        <time>2017-03-29T09:32:53Z</time>
      </trkpt>
      <trkpt lat="46.05046" lon="4.8223">
        <ele>236</ele>
        <time>2017-03-29T09:32:54Z</time>
      </trkpt>
      <trkpt lat="46.05051" lon="4.82228">
        <ele>236</ele>
        <time>2017-03-29T09:32:55Z</time>
      </trkpt>
      <trkpt lat="46.05055" lon="4.82226">
        <ele>236</ele>
        <time>2017-03-29T09:32:56Z</time>
      </trkpt>
      <trkpt lat="46.0506" lon="4.82224">
        <ele>236</ele>
        <time>2017-03-29T09:32:57Z</time>
      </trkpt>
      <trkpt lat="46.05064" lon="4.82223">
        <ele>236</ele>
        <time>2017-03-29T09:32:58Z</time>
      </trkpt>
      <trkpt lat="46.05068" lon="4.82221">
        <ele>236</ele>
        <time>2017-03-29T09:32:59Z</time>
      </trkpt>
      <trkpt lat="46.05072" lon="4.82219">
        <ele>236</ele>
        <time>2017-03-29T09:33:00Z</time>
      </trkpt>
      <trkpt lat="46.05077" lon="4.82217">
        <ele>236</ele>
        <time>2017-03-29T09:33:01Z</time>
      </trkpt>
      <trkpt lat="46.05081" lon="4.82215">
        <ele>236</ele>
        <time>2017-03-29T09:33:02Z</time>
      </trkpt>
      <trkpt lat="46.05086" lon="4.82213">
        <ele>237</ele>
        <time>2017-03-29T09:33:03Z</time>
      </trkpt>
      <trkpt lat="46.0509" lon="4.82211">
        <ele>237</ele>
        <time>2017-03-29T09:33:04Z</time>
      </trkpt>
      <trkpt lat="46.05094" lon="4.82209">
        <ele>237</ele>
        <time>2017-03-29T09:33:05Z</time>
      </trkpt>
      <trkpt lat="46.05099" lon="4.82207">
        <ele>237</ele>
        <time>2017-03-29T09:33:06Z</time>
      </trkpt>
      <trkpt lat="46.05103" lon="4.82205">
        <ele>237</ele>
        <time>2017-03-29T09:33:07Z</time>
      </trkpt>
      <trkpt lat="46.05108" lon="4.82203">
        <ele>237</ele>
        <time>2017-03-29T09:33:08Z</time>
      </trkpt>
      <trkpt lat="46.05112" lon="4.82202">
        <ele>238</ele>
        <time>2017-03-29T09:33:09Z</time>
      </trkpt>
      <trkpt lat="46.05116" lon="4.822">
        <ele>238</ele>
        <time>2017-03-29T09:33:10Z</time>
      </trkpt>
      <trkpt lat="46.05121" lon="4.82198">
        <ele>238</ele>
        <time>2017-03-29T09:33:11Z</time>
      </trkpt>
      <trkpt lat="46.05129" lon="4.82195">
        <ele>238</ele>
        <time>2017-03-29T09:33:13Z</time>
      </trkpt>
      <trkpt lat="46.05133" lon="4.82193">
        <ele>238</ele>
        <time>2017-03-29T09:33:14Z</time>
      </trkpt>
      <trkpt lat="46.05141" lon="4.8219">
        <ele>239</ele>
        <time>2017-03-29T09:33:16Z</time>
      </trkpt>
      <trkpt lat="46.05145" lon="4.82187">
        <ele>239</ele>
        <time>2017-03-29T09:33:17Z</time>
      </trkpt>
      <trkpt lat="46.05153" lon="4.82183">
        <ele>239</ele>
        <time>2017-03-29T09:33:19Z</time>
      </trkpt>
      <trkpt lat="46.05157" lon="4.82182">
        <ele>239</ele>
        <time>2017-03-29T09:33:20Z</time>
      </trkpt>
      <trkpt lat="46.05166" lon="4.82177">
        <ele>240</ele>
        <time>2017-03-29T09:33:22Z</time>
      </trkpt>
      <trkpt lat="46.0517" lon="4.82175">
        <ele>241</ele>
        <time>2017-03-29T09:33:23Z</time>
      </trkpt>
      <trkpt lat="46.05178" lon="4.82171">
        <ele>241</ele>
        <time>2017-03-29T09:33:25Z</time>
      </trkpt>
      <trkpt lat="46.05182" lon="4.82169">
        <ele>241</ele>
        <time>2017-03-29T09:33:26Z</time>
      </trkpt>
      <trkpt lat="46.0519" lon="4.82165">
        <ele>241</ele>
        <time>2017-03-29T09:33:28Z</time>
      </trkpt>
      <trkpt lat="46.05195" lon="4.82163">
        <ele>241</ele>
        <time>2017-03-29T09:33:29Z</time>
      </trkpt>
      <trkpt lat="46.05203" lon="4.82159">
        <ele>241</ele>
        <time>2017-03-29T09:33:31Z</time>
      </trkpt>
      <trkpt lat="46.05207" lon="4.82157">
        <ele>240</ele>
        <time>2017-03-29T09:33:32Z</time>
      </trkpt>
      <trkpt lat="46.05214" lon="4.82153">
        <ele>240</ele>
        <time>2017-03-29T09:33:34Z</time>
      </trkpt>
      <trkpt lat="46.05218" lon="4.82151">
        <ele>240</ele>
        <time>2017-03-29T09:33:35Z</time>
      </trkpt>
      <trkpt lat="46.05226" lon="4.82147">
        <ele>240</ele>
        <time>2017-03-29T09:33:37Z</time>
      </trkpt>
      <trkpt lat="46.0523" lon="4.82145">
        <ele>240</ele>
        <time>2017-03-29T09:33:38Z</time>
      </trkpt>
      <trkpt lat="46.05237" lon="4.82142">
        <ele>240</ele>
        <time>2017-03-29T09:33:40Z</time>
      </trkpt>
      <trkpt lat="46.05241" lon="4.8214">
        <ele>240</ele>
        <time>2017-03-29T09:33:41Z</time>
      </trkpt>
      <trkpt lat="46.0525" lon="4.82138">
        <ele>240</ele>
        <time>2017-03-29T09:33:43Z</time>
      </trkpt>
      <trkpt lat="46.05254" lon="4.82136">
        <ele>241</ele>
        <time>2017-03-29T09:33:44Z</time>
      </trkpt>
      <trkpt lat="46.05261" lon="4.82131">
        <ele>241</ele>
        <time>2017-03-29T09:33:46Z</time>
      </trkpt>
      <trkpt lat="46.05265" lon="4.82129">
        <ele>241</ele>
        <time>2017-03-29T09:33:47Z</time>
      </trkpt>
      <trkpt lat="46.05273" lon="4.82125">
        <ele>241</ele>
        <time>2017-03-29T09:33:49Z</time>
      </trkpt>
      <trkpt lat="46.05277" lon="4.82123">
        <ele>241</ele>
        <time>2017-03-29T09:33:50Z</time>
      </trkpt>
      <trkpt lat="46.05285" lon="4.82118">
        <ele>241</ele>
        <time>2017-03-29T09:33:52Z</time>
      </trkpt>
      <trkpt lat="46.0529" lon="4.82117">
        <ele>241</ele>
        <time>2017-03-29T09:33:53Z</time>
      </trkpt>
      <trkpt lat="46.05298" lon="4.82113">
        <ele>241</ele>
        <time>2017-03-29T09:33:55Z</time>
      </trkpt>
      <trkpt lat="46.05302" lon="4.82111">
        <ele>241</ele>
        <time>2017-03-29T09:33:56Z</time>
      </trkpt>
      <trkpt lat="46.05311" lon="4.82107">
        <ele>241</ele>
        <time>2017-03-29T09:33:58Z</time>
      </trkpt>
      <trkpt lat="46.05315" lon="4.82105">
        <ele>241</ele>
        <time>2017-03-29T09:33:59Z</time>
      </trkpt>
      <trkpt lat="46.05323" lon="4.82102">
        <ele>241</ele>
        <time>2017-03-29T09:34:01Z</time>
      </trkpt>
      <trkpt lat="46.05327" lon="4.82101">
        <ele>241</ele>
        <time>2017-03-29T09:34:02Z</time>
      </trkpt>
      <trkpt lat="46.05335" lon="4.82097">
        <ele>242</ele>
        <time>2017-03-29T09:34:04Z</time>
      </trkpt>
      <trkpt lat="46.05339" lon="4.82095">
        <ele>242</ele>
        <time>2017-03-29T09:34:05Z</time>
      </trkpt>
      <trkpt lat="46.05347" lon="4.82092">
        <ele>243</ele>
        <time>2017-03-29T09:34:07Z</time>
      </trkpt>
      <trkpt lat="46.05351" lon="4.8209">
        <ele>243</ele>
        <time>2017-03-29T09:34:08Z</time>
      </trkpt>
      <trkpt lat="46.05359" lon="4.82087">
        <ele>243</ele>
        <time>2017-03-29T09:34:10Z</time>
      </trkpt>
      <trkpt lat="46.05364" lon="4.82085">
        <ele>243</ele>
        <time>2017-03-29T09:34:11Z</time>
      </trkpt>
      <trkpt lat="46.05372" lon="4.82082">
        <ele>242</ele>
        <time>2017-03-29T09:34:13Z</time>
      </trkpt>
      <trkpt lat="46.05376" lon="4.8208">
        <ele>243</ele>
        <time>2017-03-29T09:34:14Z</time>
      </trkpt>
      <trkpt lat="46.05384" lon="4.82077">
        <ele>243</ele>
        <time>2017-03-29T09:34:16Z</time>
      </trkpt>
      <trkpt lat="46.05388" lon="4.82075">
        <ele>243</ele>
        <time>2017-03-29T09:34:17Z</time>
      </trkpt>
      <trkpt lat="46.05396" lon="4.82072">
        <ele>243</ele>
        <time>2017-03-29T09:34:19Z</time>
      </trkpt>
      <trkpt lat="46.05401" lon="4.8207">
        <ele>243</ele>
        <time>2017-03-29T09:34:20Z</time>
      </trkpt>
      <trkpt lat="46.05409" lon="4.82068">
        <ele>243</ele>
        <time>2017-03-29T09:34:22Z</time>
      </trkpt>
      <trkpt lat="46.05413" lon="4.82066">
        <ele>243</ele>
        <time>2017-03-29T09:34:23Z</time>
      </trkpt>
      <trkpt lat="46.0542" lon="4.82063">
        <ele>244</ele>
        <time>2017-03-29T09:34:25Z</time>
      </trkpt>
      <trkpt lat="46.05425" lon="4.82061">
        <ele>244</ele>
        <time>2017-03-29T09:34:26Z</time>
      </trkpt>
      <trkpt lat="46.05433" lon="4.82057">
        <ele>244</ele>
        <time>2017-03-29T09:34:28Z</time>
      </trkpt>
      <trkpt lat="46.05437" lon="4.82056">
        <ele>244</ele>
        <time>2017-03-29T09:34:29Z</time>
      </trkpt>
      <trkpt lat="46.05446" lon="4.82052">
        <ele>244</ele>
        <time>2017-03-29T09:34:31Z</time>
      </trkpt>
      <trkpt lat="46.0545" lon="4.8205">
        <ele>244</ele>
        <time>2017-03-29T09:34:32Z</time>
      </trkpt>
      <trkpt lat="46.05458" lon="4.82046">
        <ele>244</ele>
        <time>2017-03-29T09:34:34Z</time>
      </trkpt>
      <trkpt lat="46.05462" lon="4.82044">
        <ele>244</ele>
        <time>2017-03-29T09:34:35Z</time>
      </trkpt>
      <trkpt lat="46.0547" lon="4.82041">
        <ele>244</ele>
        <time>2017-03-29T09:34:37Z</time>
      </trkpt>
      <trkpt lat="46.05475" lon="4.82039">
        <ele>244</ele>
        <time>2017-03-29T09:34:38Z</time>
      </trkpt>
      <trkpt lat="46.05483" lon="4.82035">
        <ele>244</ele>
        <time>2017-03-29T09:34:40Z</time>
      </trkpt>
      <trkpt lat="46.05487" lon="4.82034">
        <ele>244</ele>
        <time>2017-03-29T09:34:41Z</time>
      </trkpt>
      <trkpt lat="46.05495" lon="4.8203">
        <ele>244</ele>
        <time>2017-03-29T09:34:43Z</time>
      </trkpt>
      <trkpt lat="46.05499" lon="4.82027">
        <ele>244</ele>
        <time>2017-03-29T09:34:44Z</time>
      </trkpt>
      <trkpt lat="46.05506" lon="4.82024">
        <ele>246</ele>
        <time>2017-03-29T09:34:46Z</time>
      </trkpt>
      <trkpt lat="46.0551" lon="4.82023">
        <ele>246</ele>
        <time>2017-03-29T09:34:47Z</time>
      </trkpt>
      <trkpt lat="46.05517" lon="4.82019">
        <ele>246</ele>
        <time>2017-03-29T09:34:49Z</time>
      </trkpt>
      <trkpt lat="46.05521" lon="4.82017">
        <ele>246</ele>
        <time>2017-03-29T09:34:50Z</time>
      </trkpt>
      <trkpt lat="46.05528" lon="4.82014">
        <ele>246</ele>
        <time>2017-03-29T09:34:52Z</time>
      </trkpt>
      <trkpt lat="46.05532" lon="4.82012">
        <ele>247</ele>
        <time>2017-03-29T09:34:53Z</time>
      </trkpt>
      <trkpt lat="46.0554" lon="4.82009">
        <ele>247</ele>
        <time>2017-03-29T09:34:55Z</time>
      </trkpt>
      <trkpt lat="46.05543" lon="4.82007">
        <ele>247</ele>
        <time>2017-03-29T09:34:56Z</time>
      </trkpt>
      <trkpt lat="46.05551" lon="4.82003">
        <ele>247</ele>
        <time>2017-03-29T09:34:58Z</time>
      </trkpt>
      <trkpt lat="46.05555" lon="4.82002">
        <ele>248</ele>
        <time>2017-03-29T09:34:59Z</time>
      </trkpt>
      <trkpt lat="46.05563" lon="4.81998">
        <ele>247</ele>
        <time>2017-03-29T09:35:01Z</time>
      </trkpt>
      <trkpt lat="46.05567" lon="4.81997">
        <ele>247</ele>
        <time>2017-03-29T09:35:02Z</time>
      </trkpt>
      <trkpt lat="46.05573" lon="4.81994">
        <ele>248</ele>
        <time>2017-03-29T09:35:04Z</time>
      </trkpt>
      <trkpt lat="46.05577" lon="4.81993">
        <ele>248</ele>
        <time>2017-03-29T09:35:05Z</time>
      </trkpt>
      <trkpt lat="46.05584" lon="4.8199">
        <ele>249</ele>
        <time>2017-03-29T09:35:07Z</time>
      </trkpt>
      <trkpt lat="46.05587" lon="4.81988">
        <ele>249</ele>
        <time>2017-03-29T09:35:08Z</time>
      </trkpt>
      <trkpt lat="46.05596" lon="4.81986">
        <ele>249</ele>
        <time>2017-03-29T09:35:10Z</time>
      </trkpt>
      <trkpt lat="46.056" lon="4.81985">
        <ele>249</ele>
        <time>2017-03-29T09:35:11Z</time>
      </trkpt>
      <trkpt lat="46.05607" lon="4.81982">
        <ele>249</ele>
        <time>2017-03-29T09:35:13Z</time>
      </trkpt>
      <trkpt lat="46.05611" lon="4.8198">
        <ele>249</ele>
        <time>2017-03-29T09:35:14Z</time>
      </trkpt>
      <trkpt lat="46.05619" lon="4.81976">
        <ele>249</ele>
        <time>2017-03-29T09:35:16Z</time>
      </trkpt>
      <trkpt lat="46.05623" lon="4.81974">
        <ele>249</ele>
        <time>2017-03-29T09:35:17Z</time>
      </trkpt>
      <trkpt lat="46.05631" lon="4.81971">
        <ele>249</ele>
        <time>2017-03-29T09:35:19Z</time>
      </trkpt>
      <trkpt lat="46.05635" lon="4.81969">
        <ele>249</ele>
        <time>2017-03-29T09:35:20Z</time>
      </trkpt>
      <trkpt lat="46.05643" lon="4.81966">
        <ele>249</ele>
        <time>2017-03-29T09:35:22Z</time>
      </trkpt>
      <trkpt lat="46.05646" lon="4.81964">
        <ele>249</ele>
        <time>2017-03-29T09:35:23Z</time>
      </trkpt>
      <trkpt lat="46.05654" lon="4.81962">
        <ele>249</ele>
        <time>2017-03-29T09:35:25Z</time>
      </trkpt>
      <trkpt lat="46.05657" lon="4.8196">
        <ele>250</ele>
        <time>2017-03-29T09:35:26Z</time>
      </trkpt>
      <trkpt lat="46.05665" lon="4.81957">
        <ele>250</ele>
        <time>2017-03-29T09:35:28Z</time>
      </trkpt>
      <trkpt lat="46.05669" lon="4.81955">
        <ele>250</ele>
        <time>2017-03-29T09:35:29Z</time>
      </trkpt>
      <trkpt lat="46.05676" lon="4.81951">
        <ele>250</ele>
        <time>2017-03-29T09:35:31Z</time>
      </trkpt>
      <trkpt lat="46.0568" lon="4.8195">
        <ele>250</ele>
        <time>2017-03-29T09:35:32Z</time>
      </trkpt>
      <trkpt lat="46.05689" lon="4.81946">
        <ele>250</ele>
        <time>2017-03-29T09:35:34Z</time>
      </trkpt>
      <trkpt lat="46.05693" lon="4.81943">
        <ele>250</ele>
        <time>2017-03-29T09:35:35Z</time>
      </trkpt>
      <trkpt lat="46.05701" lon="4.81939">
        <ele>250</ele>
        <time>2017-03-29T09:35:37Z</time>
      </trkpt>
      <trkpt lat="46.05705" lon="4.81938">
        <ele>250</ele>
        <time>2017-03-29T09:35:38Z</time>
      </trkpt>
      <trkpt lat="46.05709" lon="4.81936">
        <ele>250</ele>
        <time>2017-03-29T09:35:39Z</time>
      </trkpt>
      <trkpt lat="46.05714" lon="4.81934">
        <ele>250</ele>
        <time>2017-03-29T09:35:40Z</time>
      </trkpt>
      <trkpt lat="46.05718" lon="4.81932">
        <ele>250</ele>
        <time>2017-03-29T09:35:41Z</time>
      </trkpt>
      <trkpt lat="46.05723" lon="4.8193">
        <ele>250</ele>
        <time>2017-03-29T09:35:42Z</time>
      </trkpt>
      <trkpt lat="46.05727" lon="4.81928">
        <ele>250</ele>
        <time>2017-03-29T09:35:43Z</time>
      </trkpt>
      <trkpt lat="46.05732" lon="4.81926">
        <ele>250</ele>
        <time>2017-03-29T09:35:44Z</time>
      </trkpt>
      <trkpt lat="46.05736" lon="4.81925">
        <ele>250</ele>
        <time>2017-03-29T09:35:45Z</time>
      </trkpt>
      <trkpt lat="46.0574" lon="4.81923">
        <ele>249</ele>
        <time>2017-03-29T09:35:46Z</time>
      </trkpt>
      <trkpt lat="46.05749" lon="4.8192">
        <ele>249</ele>
        <time>2017-03-29T09:35:48Z</time>
      </trkpt>
      <trkpt lat="46.05753" lon="4.81919">
        <ele>249</ele>
        <time>2017-03-29T09:35:49Z</time>
      </trkpt>
      <trkpt lat="46.05759" lon="4.81916">
        <ele>249</ele>
        <time>2017-03-29T09:35:51Z</time>
      </trkpt>
      <trkpt lat="46.05762" lon="4.81916">
        <ele>249</ele>
        <time>2017-03-29T09:35:52Z</time>
      </trkpt>
      <trkpt lat="46.05769" lon="4.81914">
        <ele>248</ele>
        <time>2017-03-29T09:35:54Z</time>
      </trkpt>
      <trkpt lat="46.05773" lon="4.81912">
        <ele>248</ele>
        <time>2017-03-29T09:35:55Z</time>
      </trkpt>
      <trkpt lat="46.05778" lon="4.8191">
        <ele>248</ele>
        <time>2017-03-29T09:35:56Z</time>
      </trkpt>
      <trkpt lat="46.05783" lon="4.81908">
        <ele>248</ele>
        <time>2017-03-29T09:35:57Z</time>
      </trkpt>
      <trkpt lat="46.05788" lon="4.81906">
        <ele>248</ele>
        <time>2017-03-29T09:35:58Z</time>
      </trkpt>
      <trkpt lat="46.05794" lon="4.81903">
        <ele>248</ele>
        <time>2017-03-29T09:35:59Z</time>
      </trkpt>
      <trkpt lat="46.05799" lon="4.81901">
        <ele>248</ele>
        <time>2017-03-29T09:36:00Z</time>
      </trkpt>
      <trkpt lat="46.05805" lon="4.81898">
        <ele>248</ele>
        <time>2017-03-29T09:36:01Z</time>
      </trkpt>
      <trkpt lat="46.0581" lon="4.81896">
        <ele>248</ele>
        <time>2017-03-29T09:36:02Z</time>
      </trkpt>
      <trkpt lat="46.05815" lon="4.81894">
        <ele>248</ele>
        <time>2017-03-29T09:36:03Z</time>
      </trkpt>
      <trkpt lat="46.0582" lon="4.81891">
        <ele>248</ele>
        <time>2017-03-29T09:36:04Z</time>
      </trkpt>
      <trkpt lat="46.05825" lon="4.81889">
        <ele>248</ele>
        <time>2017-03-29T09:36:05Z</time>
      </trkpt>
      <trkpt lat="46.05831" lon="4.81886">
        <ele>248</ele>
        <time>2017-03-29T09:36:06Z</time>
      </trkpt>
      <trkpt lat="46.05835" lon="4.81884">
        <ele>247</ele>
        <time>2017-03-29T09:36:07Z</time>
      </trkpt>
      <trkpt lat="46.0584" lon="4.81881">
        <ele>247</ele>
        <time>2017-03-29T09:36:08Z</time>
      </trkpt>
      <trkpt lat="46.05845" lon="4.81878">
        <ele>247</ele>
        <time>2017-03-29T09:36:09Z</time>
      </trkpt>
      <trkpt lat="46.0585" lon="4.81876">
        <ele>247</ele>
        <time>2017-03-29T09:36:10Z</time>
      </trkpt>
      <trkpt lat="46.05855" lon="4.81874">
        <ele>247</ele>
        <time>2017-03-29T09:36:11Z</time>
      </trkpt>
      <trkpt lat="46.0586" lon="4.81871">
        <ele>247</ele>
        <time>2017-03-29T09:36:12Z</time>
      </trkpt>
      <trkpt lat="46.05865" lon="4.81869">
        <ele>247</ele>
        <time>2017-03-29T09:36:13Z</time>
      </trkpt>
      <trkpt lat="46.05871" lon="4.81866">
        <ele>247</ele>
        <time>2017-03-29T09:36:14Z</time>
      </trkpt>
      <trkpt lat="46.05876" lon="4.81864">
        <ele>247</ele>
        <time>2017-03-29T09:36:15Z</time>
      </trkpt>
      <trkpt lat="46.05882" lon="4.81861">
        <ele>247</ele>
        <time>2017-03-29T09:36:16Z</time>
      </trkpt>
      <trkpt lat="46.05887" lon="4.81858">
        <ele>247</ele>
        <time>2017-03-29T09:36:17Z</time>
      </trkpt>
      <trkpt lat="46.05893" lon="4.81855">
        <ele>246</ele>
        <time>2017-03-29T09:36:18Z</time>
      </trkpt>
      <trkpt lat="46.05898" lon="4.81853">
        <ele>246</ele>
        <time>2017-03-29T09:36:19Z</time>
      </trkpt>
      <trkpt lat="46.05902" lon="4.8185">
        <ele>246</ele>
        <time>2017-03-29T09:36:20Z</time>
      </trkpt>
      <trkpt lat="46.05907" lon="4.81849">
        <ele>246</ele>
        <time>2017-03-29T09:36:21Z</time>
      </trkpt>
      <trkpt lat="46.05912" lon="4.81846">
        <ele>246</ele>
        <time>2017-03-29T09:36:22Z</time>
      </trkpt>
      <trkpt lat="46.05917" lon="4.81844">
        <ele>246</ele>
        <time>2017-03-29T09:36:23Z</time>
      </trkpt>
      <trkpt lat="46.05922" lon="4.81842">
        <ele>246</ele>
        <time>2017-03-29T09:36:24Z</time>
      </trkpt>
      <trkpt lat="46.05926" lon="4.8184">
        <ele>246</ele>
        <time>2017-03-29T09:36:25Z</time>
      </trkpt>
      <trkpt lat="46.05931" lon="4.81839">
        <ele>246</ele>
        <time>2017-03-29T09:36:26Z</time>
      </trkpt>
      <trkpt lat="46.05936" lon="4.81836">
        <ele>246</ele>
        <time>2017-03-29T09:36:27Z</time>
      </trkpt>
      <trkpt lat="46.05941" lon="4.81833">
        <ele>245</ele>
        <time>2017-03-29T09:36:28Z</time>
      </trkpt>
      <trkpt lat="46.05946" lon="4.81831">
        <ele>245</ele>
        <time>2017-03-29T09:36:29Z</time>
      </trkpt>
      <trkpt lat="46.0595" lon="4.81829">
        <ele>245</ele>
        <time>2017-03-29T09:36:30Z</time>
      </trkpt>
      <trkpt lat="46.05955" lon="4.81826">
        <ele>245</ele>
        <time>2017-03-29T09:36:31Z</time>
      </trkpt>
      <trkpt lat="46.05959" lon="4.81824">
        <ele>245</ele>
        <time>2017-03-29T09:36:32Z</time>
      </trkpt>
      <trkpt lat="46.05964" lon="4.81822">
        <ele>245</ele>
        <time>2017-03-29T09:36:33Z</time>
      </trkpt>
      <trkpt lat="46.05968" lon="4.8182">
        <ele>245</ele>
        <time>2017-03-29T09:36:34Z</time>
      </trkpt>
      <trkpt lat="46.05972" lon="4.81818">
        <ele>244</ele>
        <time>2017-03-29T09:36:35Z</time>
      </trkpt>
      <trkpt lat="46.05977" lon="4.81816">
        <ele>244</ele>
        <time>2017-03-29T09:36:36Z</time>
      </trkpt>
      <trkpt lat="46.05982" lon="4.81813">
        <ele>244</ele>
        <time>2017-03-29T09:36:37Z</time>
      </trkpt>
      <trkpt lat="46.05986" lon="4.81811">
        <ele>244</ele>
        <time>2017-03-29T09:36:38Z</time>
      </trkpt>
      <trkpt lat="46.05991" lon="4.81808">
        <ele>244</ele>
        <time>2017-03-29T09:36:39Z</time>
      </trkpt>
      <trkpt lat="46.05997" lon="4.81805">
        <ele>244</ele>
        <time>2017-03-29T09:36:40Z</time>
      </trkpt>
      <trkpt lat="46.06002" lon="4.81803">
        <ele>243</ele>
        <time>2017-03-29T09:36:41Z</time>
      </trkpt>
      <trkpt lat="46.06007" lon="4.81801">
        <ele>243</ele>
        <time>2017-03-29T09:36:42Z</time>
      </trkpt>
      <trkpt lat="46.06012" lon="4.81799">
        <ele>243</ele>
        <time>2017-03-29T09:36:43Z</time>
      </trkpt>
      <trkpt lat="46.06017" lon="4.81797">
        <ele>243</ele>
        <time>2017-03-29T09:36:44Z</time>
      </trkpt>
      <trkpt lat="46.06021" lon="4.81795">
        <ele>243</ele>
        <time>2017-03-29T09:36:45Z</time>
      </trkpt>
      <trkpt lat="46.06026" lon="4.81793">
        <ele>243</ele>
        <time>2017-03-29T09:36:46Z</time>
      </trkpt>
      <trkpt lat="46.06031" lon="4.81791">
        <ele>243</ele>
        <time>2017-03-29T09:36:47Z</time>
      </trkpt>
      <trkpt lat="46.06035" lon="4.81789">
        <ele>243</ele>
        <time>2017-03-29T09:36:48Z</time>
      </trkpt>
      <trkpt lat="46.0604" lon="4.81787">
        <ele>243</ele>
        <time>2017-03-29T09:36:49Z</time>
      </trkpt>
      <trkpt lat="46.06044" lon="4.81785">
        <ele>243</ele>
        <time>2017-03-29T09:36:50Z</time>
      </trkpt>
      <trkpt lat="46.06049" lon="4.81783">
        <ele>243</ele>
        <time>2017-03-29T09:36:51Z</time>
      </trkpt>
      <trkpt lat="46.06054" lon="4.81781">
        <ele>243</ele>
        <time>2017-03-29T09:36:52Z</time>
      </trkpt>
      <trkpt lat="46.06058" lon="4.81778">
        <ele>243</ele>
        <time>2017-03-29T09:36:53Z</time>
      </trkpt>
      <trkpt lat="46.06063" lon="4.81776">
        <ele>243</ele>
        <time>2017-03-29T09:36:54Z</time>
      </trkpt>
      <trkpt lat="46.06068" lon="4.81774">
        <ele>243</ele>
        <time>2017-03-29T09:36:55Z</time>
      </trkpt>
      <trkpt lat="46.06073" lon="4.81771">
        <ele>243</ele>
        <time>2017-03-29T09:36:56Z</time>
      </trkpt>
      <trkpt lat="46.06079" lon="4.81768">
        <ele>243</ele>
        <time>2017-03-29T09:36:57Z</time>
      </trkpt>
      <trkpt lat="46.06084" lon="4.81766">
        <ele>241</ele>
        <time>2017-03-29T09:36:58Z</time>
      </trkpt>
      <trkpt lat="46.0609" lon="4.81763">
        <ele>241</ele>
        <time>2017-03-29T09:36:59Z</time>
      </trkpt>
      <trkpt lat="46.06095" lon="4.81761">
        <ele>241</ele>
        <time>2017-03-29T09:37:00Z</time>
      </trkpt>
      <trkpt lat="46.06101" lon="4.81758">
        <ele>241</ele>
        <time>2017-03-29T09:37:01Z</time>
      </trkpt>
      <trkpt lat="46.06106" lon="4.81755">
        <ele>241</ele>
        <time>2017-03-29T09:37:02Z</time>
      </trkpt>
      <trkpt lat="46.06112" lon="4.81752">
        <ele>241</ele>
        <time>2017-03-29T09:37:03Z</time>
      </trkpt>
      <trkpt lat="46.06118" lon="4.8175">
        <ele>241</ele>
        <time>2017-03-29T09:37:04Z</time>
      </trkpt>
      <trkpt lat="46.06123" lon="4.81748">
        <ele>241</ele>
        <time>2017-03-29T09:37:05Z</time>
      </trkpt>
      <trkpt lat="46.06129" lon="4.81746">
        <ele>241</ele>
        <time>2017-03-29T09:37:06Z</time>
      </trkpt>
      <trkpt lat="46.06134" lon="4.81743">
        <ele>240</ele>
        <time>2017-03-29T09:37:07Z</time>
      </trkpt>
      <trkpt lat="46.0614" lon="4.8174">
        <ele>240</ele>
        <time>2017-03-29T09:37:08Z</time>
      </trkpt>
      <trkpt lat="46.06146" lon="4.81738">
        <ele>240</ele>
        <time>2017-03-29T09:37:09Z</time>
      </trkpt>
      <trkpt lat="46.06152" lon="4.81735">
        <ele>240</ele>
        <time>2017-03-29T09:37:10Z</time>
      </trkpt>
      <trkpt lat="46.06157" lon="4.81732">
        <ele>240</ele>
        <time>2017-03-29T09:37:11Z</time>
      </trkpt>
      <trkpt lat="46.06163" lon="4.8173">
        <ele>240</ele>
        <time>2017-03-29T09:37:12Z</time>
      </trkpt>
      <trkpt lat="46.06169" lon="4.81727">
        <ele>238</ele>
        <time>2017-03-29T09:37:13Z</time>
      </trkpt>
      <trkpt lat="46.06175" lon="4.81724">
        <ele>238</ele>
        <time>2017-03-29T09:37:14Z</time>
      </trkpt>
      <trkpt lat="46.06182" lon="4.81722">
        <ele>238</ele>
        <time>2017-03-29T09:37:15Z</time>
      </trkpt>
      <trkpt lat="46.06188" lon="4.81719">
        <ele>238</ele>
        <time>2017-03-29T09:37:16Z</time>
      </trkpt>
      <trkpt lat="46.06194" lon="4.81716">
        <ele>238</ele>
        <time>2017-03-29T09:37:17Z</time>
      </trkpt>
      <trkpt lat="46.062" lon="4.81713">
        <ele>238</ele>
        <time>2017-03-29T09:37:18Z</time>
      </trkpt>
      <trkpt lat="46.06206" lon="4.8171">
        <ele>238</ele>
        <time>2017-03-29T09:37:19Z</time>
      </trkpt>
      <trkpt lat="46.06211" lon="4.81708">
        <ele>238</ele>
        <time>2017-03-29T09:37:20Z</time>
      </trkpt>
      <trkpt lat="46.06217" lon="4.81705">
        <ele>238</ele>
        <time>2017-03-29T09:37:21Z</time>
      </trkpt>
      <trkpt lat="46.06223" lon="4.81703">
        <ele>237</ele>
        <time>2017-03-29T09:37:22Z</time>
      </trkpt>
      <trkpt lat="46.06229" lon="4.817">
        <ele>237</ele>
        <time>2017-03-29T09:37:23Z</time>
      </trkpt>
      <trkpt lat="46.06235" lon="4.81697">
        <ele>237</ele>
        <time>2017-03-29T09:37:24Z</time>
      </trkpt>
      <trkpt lat="46.06241" lon="4.81694">
        <ele>237</ele>
        <time>2017-03-29T09:37:25Z</time>
      </trkpt>
      <trkpt lat="46.06247" lon="4.81692">
        <ele>237</ele>
        <time>2017-03-29T09:37:26Z</time>
      </trkpt>
      <trkpt lat="46.06253" lon="4.81689">
        <ele>235</ele>
        <time>2017-03-29T09:37:27Z</time>
      </trkpt>
      <trkpt lat="46.06258" lon="4.81686">
        <ele>235</ele>
        <time>2017-03-29T09:37:28Z</time>
      </trkpt>
      <trkpt lat="46.06264" lon="4.81683">
        <ele>235</ele>
        <time>2017-03-29T09:37:29Z</time>
      </trkpt>
      <trkpt lat="46.0627" lon="4.81681">
        <ele>235</ele>
        <time>2017-03-29T09:37:30Z</time>
      </trkpt>
      <trkpt lat="46.06275" lon="4.81679">
        <ele>235</ele>
        <time>2017-03-29T09:37:31Z</time>
      </trkpt>
      <trkpt lat="46.06281" lon="4.81677">
        <ele>235</ele>
        <time>2017-03-29T09:37:32Z</time>
      </trkpt>
      <trkpt lat="46.06287" lon="4.81674">
        <ele>235</ele>
        <time>2017-03-29T09:37:33Z</time>
      </trkpt>
      <trkpt lat="46.06293" lon="4.81671">
        <ele>235</ele>
        <time>2017-03-29T09:37:34Z</time>
      </trkpt>
      <trkpt lat="46.06299" lon="4.81668">
        <ele>235</ele>
        <time>2017-03-29T09:37:35Z</time>
      </trkpt>
      <trkpt lat="46.06305" lon="4.81665">
        <ele>235</ele>
        <time>2017-03-29T09:37:36Z</time>
      </trkpt>
      <trkpt lat="46.06311" lon="4.81663">
        <ele>235</ele>
        <time>2017-03-29T09:37:37Z</time>
      </trkpt>
      <trkpt lat="46.06316" lon="4.81661">
        <ele>235</ele>
        <time>2017-03-29T09:37:38Z</time>
      </trkpt>
      <trkpt lat="46.06322" lon="4.81659">
        <ele>235</ele>
        <time>2017-03-29T09:37:39Z</time>
      </trkpt>
      <trkpt lat="46.06327" lon="4.81657">
        <ele>234</ele>
        <time>2017-03-29T09:37:40Z</time>
      </trkpt>
      <trkpt lat="46.06333" lon="4.81655">
        <ele>234</ele>
        <time>2017-03-29T09:37:41Z</time>
      </trkpt>
      <trkpt lat="46.06338" lon="4.81652">
        <ele>234</ele>
        <time>2017-03-29T09:37:42Z</time>
      </trkpt>
      <trkpt lat="46.06344" lon="4.8165">
        <ele>234</ele>
        <time>2017-03-29T09:37:43Z</time>
      </trkpt>
      <trkpt lat="46.06349" lon="4.81647">
        <ele>234</ele>
        <time>2017-03-29T09:37:44Z</time>
      </trkpt>
      <trkpt lat="46.06356" lon="4.81644">
        <ele>234</ele>
        <time>2017-03-29T09:37:45Z</time>
      </trkpt>
      <trkpt lat="46.06362" lon="4.81641">
        <ele>234</ele>
        <time>2017-03-29T09:37:46Z</time>
      </trkpt>
      <trkpt lat="46.06368" lon="4.81639">
        <ele>234</ele>
        <time>2017-03-29T09:37:47Z</time>
      </trkpt>
      <trkpt lat="46.06375" lon="4.81636">
        <ele>234</ele>
        <time>2017-03-29T09:37:48Z</time>
      </trkpt>
      <trkpt lat="46.06381" lon="4.81633">
        <ele>234</ele>
        <time>2017-03-29T09:37:49Z</time>
      </trkpt>
      <trkpt lat="46.06387" lon="4.81631">
        <ele>234</ele>
        <time>2017-03-29T09:37:50Z</time>
      </trkpt>
      <trkpt lat="46.06392" lon="4.81628">
        <ele>234</ele>
        <time>2017-03-29T09:37:51Z</time>
      </trkpt>
      <trkpt lat="46.06398" lon="4.81625">
        <ele>235</ele>
        <time>2017-03-29T09:37:52Z</time>
      </trkpt>
      <trkpt lat="46.06403" lon="4.81622">
        <ele>235</ele>
        <time>2017-03-29T09:37:53Z</time>
      </trkpt>
      <trkpt lat="46.06408" lon="4.81618">
        <ele>235</ele>
        <time>2017-03-29T09:37:54Z</time>
      </trkpt>
      <trkpt lat="46.06412" lon="4.81616">
        <ele>235</ele>
        <time>2017-03-29T09:37:55Z</time>
      </trkpt>
      <trkpt lat="46.06417" lon="4.81613">
        <ele>234</ele>
        <time>2017-03-29T09:37:56Z</time>
      </trkpt>
      <trkpt lat="46.06422" lon="4.81611">
        <ele>234</ele>
        <time>2017-03-29T09:37:57Z</time>
      </trkpt>
      <trkpt lat="46.06427" lon="4.81609">
        <ele>234</ele>
        <time>2017-03-29T09:37:58Z</time>
      </trkpt>
      <trkpt lat="46.06432" lon="4.81606">
        <ele>234</ele>
        <time>2017-03-29T09:37:59Z</time>
      </trkpt>
      <trkpt lat="46.06436" lon="4.81604">
        <ele>234</ele>
        <time>2017-03-29T09:38:00Z</time>
      </trkpt>
      <trkpt lat="46.06441" lon="4.81602">
        <ele>234</ele>
        <time>2017-03-29T09:38:01Z</time>
      </trkpt>
      <trkpt lat="46.06446" lon="4.81601">
        <ele>234</ele>
        <time>2017-03-29T09:38:02Z</time>
      </trkpt>
      <trkpt lat="46.06451" lon="4.81598">
        <ele>234</ele>
        <time>2017-03-29T09:38:03Z</time>
      </trkpt>
      <trkpt lat="46.06456" lon="4.81596">
        <ele>234</ele>
        <time>2017-03-29T09:38:04Z</time>
      </trkpt>
      <trkpt lat="46.06461" lon="4.81594">
        <ele>234</ele>
        <time>2017-03-29T09:38:05Z</time>
      </trkpt>
      <trkpt lat="46.06467" lon="4.81592">
        <ele>234</ele>
        <time>2017-03-29T09:38:06Z</time>
      </trkpt>
      <trkpt lat="46.06472" lon="4.81589">
        <ele>234</ele>
        <time>2017-03-29T09:38:07Z</time>
      </trkpt>
      <trkpt lat="46.06477" lon="4.81587">
        <ele>234</ele>
        <time>2017-03-29T09:38:08Z</time>
      </trkpt>
      <trkpt lat="46.06482" lon="4.81584">
        <ele>234</ele>
        <time>2017-03-29T09:38:09Z</time>
      </trkpt>
      <trkpt lat="46.06486" lon="4.81582">
        <ele>234</ele>
        <time>2017-03-29T09:38:10Z</time>
      </trkpt>
      <trkpt lat="46.06491" lon="4.8158">
        <ele>234</ele>
        <time>2017-03-29T09:38:11Z</time>
      </trkpt>
      <trkpt lat="46.06495" lon="4.81579">
        <ele>234</ele>
        <time>2017-03-29T09:38:12Z</time>
      </trkpt>
      <trkpt lat="46.065" lon="4.81576">
        <ele>234</ele>
        <time>2017-03-29T09:38:13Z</time>
      </trkpt>
      <trkpt lat="46.06505" lon="4.81574">
        <ele>234</ele>
        <time>2017-03-29T09:38:14Z</time>
      </trkpt>
      <trkpt lat="46.06509" lon="4.81572">
        <ele>234</ele>
        <time>2017-03-29T09:38:15Z</time>
      </trkpt>
      <trkpt lat="46.06517" lon="4.81569">
        <ele>234</ele>
        <time>2017-03-29T09:38:17Z</time>
      </trkpt>
      <trkpt lat="46.0652" lon="4.81572">
        <ele>234</ele>
        <time>2017-03-29T09:38:18Z</time>
      </trkpt>
      <trkpt lat="46.06525" lon="4.81582">
        <ele>234</ele>
        <time>2017-03-29T09:38:20Z</time>
      </trkpt>
      <trkpt lat="46.06526" lon="4.81588">
        <ele>234</ele>
        <time>2017-03-29T09:38:21Z</time>
      </trkpt>
      <trkpt lat="46.06525" lon="4.81595">
        <ele>234</ele>
        <time>2017-03-29T09:38:22Z</time>
      </trkpt>
      <trkpt lat="46.06524" lon="4.81602">
        <ele>234</ele>
        <time>2017-03-29T09:38:23Z</time>
      </trkpt>
      <trkpt lat="46.06524" lon="4.81609">
        <ele>234</ele>
        <time>2017-03-29T09:38:24Z</time>
      </trkpt>
      <trkpt lat="46.06523" lon="4.81616">
        <ele>234</ele>
        <time>2017-03-29T09:38:25Z</time>
      </trkpt>
      <trkpt lat="46.06523" lon="4.81624">
        <ele>234</ele>
        <time>2017-03-29T09:38:26Z</time>
      </trkpt>
      <trkpt lat="46.06522" lon="4.81632">
        <ele>234</ele>
        <time>2017-03-29T09:38:27Z</time>
      </trkpt>
      <trkpt lat="46.06523" lon="4.81639">
        <ele>234</ele>
        <time>2017-03-29T09:38:28Z</time>
      </trkpt>
      <trkpt lat="46.06522" lon="4.81645">
        <ele>234</ele>
        <time>2017-03-29T09:38:29Z</time>
      </trkpt>
      <trkpt lat="46.06522" lon="4.81658">
        <ele>234</ele>
        <time>2017-03-29T09:38:31Z</time>
      </trkpt>
      <trkpt lat="46.06522" lon="4.81664">
        <ele>234</ele>
        <time>2017-03-29T09:38:32Z</time>
      </trkpt>
      <trkpt lat="46.06522" lon="4.81676">
        <ele>234</ele>
        <time>2017-03-29T09:38:34Z</time>
      </trkpt>
      <trkpt lat="46.06521" lon="4.81682">
        <ele>234</ele>
        <time>2017-03-29T09:38:35Z</time>
      </trkpt>
      <trkpt lat="46.06521" lon="4.81688">
        <ele>234</ele>
        <time>2017-03-29T09:38:36Z</time>
      </trkpt>
      <trkpt lat="46.06521" lon="4.81696">
        <ele>234</ele>
        <time>2017-03-29T09:38:37Z</time>
      </trkpt>
      <trkpt lat="46.06521" lon="4.81703">
        <ele>234</ele>
        <time>2017-03-29T09:38:38Z</time>
      </trkpt>
      <trkpt lat="46.06521" lon="4.8171">
        <ele>234</ele>
        <time>2017-03-29T09:38:39Z</time>
      </trkpt>
      <trkpt lat="46.06522" lon="4.81717">
        <ele>234</ele>
        <time>2017-03-29T09:38:40Z</time>
      </trkpt>
      <trkpt lat="46.06522" lon="4.81724">
        <ele>234</ele>
        <time>2017-03-29T09:38:41Z</time>
      </trkpt>
      <trkpt lat="46.06523" lon="4.81731">
        <ele>234</ele>
        <time>2017-03-29T09:38:42Z</time>
      </trkpt>
      <trkpt lat="46.06523" lon="4.81738">
        <ele>234</ele>
        <time>2017-03-29T09:38:43Z</time>
      </trkpt>
      <trkpt lat="46.06525" lon="4.81745">
        <ele>234</ele>
        <time>2017-03-29T09:38:44Z</time>
      </trkpt>
      <trkpt lat="46.06526" lon="4.81752">
        <ele>234</ele>
        <time>2017-03-29T09:38:45Z</time>
      </trkpt>
      <trkpt lat="46.06527" lon="4.81759">
        <ele>234</ele>
        <time>2017-03-29T09:38:46Z</time>
      </trkpt>
      <trkpt lat="46.06528" lon="4.81766">
        <ele>234</ele>
        <time>2017-03-29T09:38:47Z</time>
      </trkpt>
      <trkpt lat="46.06529" lon="4.81773">
        <ele>234</ele>
        <time>2017-03-29T09:38:48Z</time>
      </trkpt>
      <trkpt lat="46.0653" lon="4.8178">
        <ele>234</ele>
        <time>2017-03-29T09:38:49Z</time>
      </trkpt>
      <trkpt lat="46.06531" lon="4.81788">
        <ele>234</ele>
        <time>2017-03-29T09:38:50Z</time>
      </trkpt>
      <trkpt lat="46.06531" lon="4.81795">
        <ele>234</ele>
        <time>2017-03-29T09:38:51Z</time>
      </trkpt>
      <trkpt lat="46.06533" lon="4.81802">
        <ele>234</ele>
        <time>2017-03-29T09:38:52Z</time>
      </trkpt>
      <trkpt lat="46.06533" lon="4.8181">
        <ele>234</ele>
        <time>2017-03-29T09:38:53Z</time>
      </trkpt>
      <trkpt lat="46.06534" lon="4.81818">
        <ele>234</ele>
        <time>2017-03-29T09:38:54Z</time>
      </trkpt>
      <trkpt lat="46.06535" lon="4.81825">
        <ele>234</ele>
        <time>2017-03-29T09:38:55Z</time>
      </trkpt>
      <trkpt lat="46.06537" lon="4.81832">
        <ele>234</ele>
        <time>2017-03-29T09:38:56Z</time>
      </trkpt>
      <trkpt lat="46.06537" lon="4.81839">
        <ele>234</ele>
        <time>2017-03-29T09:38:57Z</time>
      </trkpt>
      <trkpt lat="46.06538" lon="4.81849">
        <ele>234</ele>
        <time>2017-03-29T09:38:59Z</time>
      </trkpt>
      <trkpt lat="46.06539" lon="4.81854">
        <ele>234</ele>
        <time>2017-03-29T09:39:00Z</time>
      </trkpt>
      <trkpt lat="46.06539" lon="4.81864">
        <ele>234</ele>
        <time>2017-03-29T09:39:02Z</time>
      </trkpt>
      <trkpt lat="46.06538" lon="4.81869">
        <ele>234</ele>
        <time>2017-03-29T09:39:03Z</time>
      </trkpt>
      <trkpt lat="46.06538" lon="4.81878">
        <ele>234</ele>
        <time>2017-03-29T09:39:05Z</time>
      </trkpt>
      <trkpt lat="46.06538" lon="4.81882">
        <ele>234</ele>
        <time>2017-03-29T09:39:06Z</time>
      </trkpt>
      <trkpt lat="46.06537" lon="4.81893">
        <ele>234</ele>
        <time>2017-03-29T09:39:08Z</time>
      </trkpt>
      <trkpt lat="46.06537" lon="4.81898">
        <ele>234</ele>
        <time>2017-03-29T09:39:09Z</time>
      </trkpt>
      <trkpt lat="46.06537" lon="4.8191">
        <ele>234</ele>
        <time>2017-03-29T09:39:11Z</time>
      </trkpt>
      <trkpt lat="46.06536" lon="4.81917">
        <ele>234</ele>
        <time>2017-03-29T09:39:12Z</time>
      </trkpt>
      <trkpt lat="46.06535" lon="4.81923">
        <ele>235</ele>
        <time>2017-03-29T09:39:13Z</time>
      </trkpt>
      <trkpt lat="46.06535" lon="4.8193">
        <ele>235</ele>
        <time>2017-03-29T09:39:14Z</time>
      </trkpt>
      <trkpt lat="46.06535" lon="4.81937">
        <ele>235</ele>
        <time>2017-03-29T09:39:15Z</time>
      </trkpt>
      <trkpt lat="46.06534" lon="4.81943">
        <ele>235</ele>
        <time>2017-03-29T09:39:16Z</time>
      </trkpt>
      <trkpt lat="46.06532" lon="4.81955">
        <ele>235</ele>
        <time>2017-03-29T09:39:18Z</time>
      </trkpt>
      <trkpt lat="46.06531" lon="4.81961">
        <ele>235</ele>
        <time>2017-03-29T09:39:19Z</time>
      </trkpt>
      <trkpt lat="46.0653" lon="4.81974">
        <ele>235</ele>
        <time>2017-03-29T09:39:21Z</time>
      </trkpt>
      <trkpt lat="46.06529" lon="4.8198">
        <ele>235</ele>
        <time>2017-03-29T09:39:22Z</time>
      </trkpt>
      <trkpt lat="46.06528" lon="4.81987">
        <ele>235</ele>
        <time>2017-03-29T09:39:23Z</time>
      </trkpt>
      <trkpt lat="46.06528" lon="4.81994">
        <ele>235</ele>
        <time>2017-03-29T09:39:24Z</time>
      </trkpt>
      <trkpt lat="46.06529" lon="4.82007">
        <ele>236</ele>
        <time>2017-03-29T09:39:26Z</time>
      </trkpt>
      <trkpt lat="46.06529" lon="4.82013">
        <ele>236</ele>
        <time>2017-03-29T09:39:27Z</time>
      </trkpt>
      <trkpt lat="46.0653" lon="4.82024">
        <ele>237</ele>
        <time>2017-03-29T09:39:29Z</time>
      </trkpt>
      <trkpt lat="46.06531" lon="4.82031">
        <ele>237</ele>
        <time>2017-03-29T09:39:30Z</time>
      </trkpt>
      <trkpt lat="46.06532" lon="4.82038">
        <ele>237</ele>
        <time>2017-03-29T09:39:31Z</time>
      </trkpt>
      <trkpt lat="46.06534" lon="4.82044">
        <ele>237</ele>
        <time>2017-03-29T09:39:32Z</time>
      </trkpt>
      <trkpt lat="46.06535" lon="4.82051">
        <ele>237</ele>
        <time>2017-03-29T09:39:33Z</time>
      </trkpt>
      <trkpt lat="46.06536" lon="4.82057">
        <ele>237</ele>
        <time>2017-03-29T09:39:34Z</time>
      </trkpt>
      <trkpt lat="46.06537" lon="4.82069">
        <ele>237</ele>
        <time>2017-03-29T09:39:36Z</time>
      </trkpt>
      <trkpt lat="46.06539" lon="4.82076">
        <ele>237</ele>
        <time>2017-03-29T09:39:37Z</time>
      </trkpt>
      <trkpt lat="46.0654" lon="4.82083">
        <ele>237</ele>
        <time>2017-03-29T09:39:38Z</time>
      </trkpt>
      <trkpt lat="46.06541" lon="4.8209">
        <ele>238</ele>
        <time>2017-03-29T09:39:39Z</time>
      </trkpt>
      <trkpt lat="46.06542" lon="4.82096">
        <ele>238</ele>
        <time>2017-03-29T09:39:40Z</time>
      </trkpt>
      <trkpt lat="46.06543" lon="4.82103">
        <ele>238</ele>
        <time>2017-03-29T09:39:41Z</time>
      </trkpt>
      <trkpt lat="46.06545" lon="4.82115">
        <ele>238</ele>
        <time>2017-03-29T09:39:43Z</time>
      </trkpt>
      <trkpt lat="46.06546" lon="4.82121">
        <ele>238</ele>
        <time>2017-03-29T09:39:44Z</time>
      </trkpt>
      <trkpt lat="46.06548" lon="4.82132">
        <ele>238</ele>
        <time>2017-03-29T09:39:46Z</time>
      </trkpt>
      <trkpt lat="46.0655" lon="4.82137">
        <ele>238</ele>
        <time>2017-03-29T09:39:47Z</time>
      </trkpt>
      <trkpt lat="46.06552" lon="4.82147">
        <ele>238</ele>
        <time>2017-03-29T09:39:49Z</time>
      </trkpt>
      <trkpt lat="46.06553" lon="4.82153">
        <ele>238</ele>
        <time>2017-03-29T09:39:50Z</time>
      </trkpt>
      <trkpt lat="46.06555" lon="4.8216">
        <ele>238</ele>
        <time>2017-03-29T09:39:51Z</time>
      </trkpt>
      <trkpt lat="46.06557" lon="4.82166">
        <ele>238</ele>
        <time>2017-03-29T09:39:52Z</time>
      </trkpt>
      <trkpt lat="46.06558" lon="4.82172">
        <ele>237</ele>
        <time>2017-03-29T09:39:53Z</time>
      </trkpt>
      <trkpt lat="46.06561" lon="4.82179">
        <ele>237</ele>
        <time>2017-03-29T09:39:54Z</time>
      </trkpt>
      <trkpt lat="46.06563" lon="4.82185">
        <ele>237</ele>
        <time>2017-03-29T09:39:55Z</time>
      </trkpt>
      <trkpt lat="46.06565" lon="4.82191">
        <ele>237</ele>
        <time>2017-03-29T09:39:56Z</time>
      </trkpt>
      <trkpt lat="46.06569" lon="4.82202">
        <ele>237</ele>
        <time>2017-03-29T09:39:58Z</time>
      </trkpt>
      <trkpt lat="46.06571" lon="4.82207">
        <ele>237</ele>
        <time>2017-03-29T09:39:59Z</time>
      </trkpt>
      <trkpt lat="46.06574" lon="4.82218">
        <ele>238</ele>
        <time>2017-03-29T09:40:01Z</time>
      </trkpt>
      <trkpt lat="46.06576" lon="4.82223">
        <ele>238</ele>
        <time>2017-03-29T09:40:02Z</time>
      </trkpt>
      <trkpt lat="46.06578" lon="4.82229">
        <ele>238</ele>
        <time>2017-03-29T09:40:03Z</time>
      </trkpt>
      <trkpt lat="46.0658" lon="4.82235">
        <ele>238</ele>
        <time>2017-03-29T09:40:04Z</time>
      </trkpt>
      <trkpt lat="46.06582" lon="4.82247">
        <ele>238</ele>
        <time>2017-03-29T09:40:06Z</time>
      </trkpt>
      <trkpt lat="46.06583" lon="4.82253">
        <ele>238</ele>
        <time>2017-03-29T09:40:07Z</time>
      </trkpt>
      <trkpt lat="46.06584" lon="4.82264">
        <ele>239</ele>
        <time>2017-03-29T09:40:09Z</time>
      </trkpt>
      <trkpt lat="46.06584" lon="4.8227">
        <ele>240</ele>
        <time>2017-03-29T09:40:10Z</time>
      </trkpt>
      <trkpt lat="46.06585" lon="4.82282">
        <ele>240</ele>
        <time>2017-03-29T09:40:12Z</time>
      </trkpt>
      <trkpt lat="46.06585" lon="4.82287">
        <ele>240</ele>
        <time>2017-03-29T09:40:13Z</time>
      </trkpt>
      <trkpt lat="46.06585" lon="4.82298">
        <ele>240</ele>
        <time>2017-03-29T09:40:15Z</time>
      </trkpt>
      <trkpt lat="46.06585" lon="4.82304">
        <ele>241</ele>
        <time>2017-03-29T09:40:16Z</time>
      </trkpt>
      <trkpt lat="46.06585" lon="4.82315">
        <ele>241</ele>
        <time>2017-03-29T09:40:18Z</time>
      </trkpt>
      <trkpt lat="46.06585" lon="4.8232">
        <ele>240</ele>
        <time>2017-03-29T09:40:19Z</time>
      </trkpt>
      <trkpt lat="46.06586" lon="4.82331">
        <ele>240</ele>
        <time>2017-03-29T09:40:21Z</time>
      </trkpt>
      <trkpt lat="46.06586" lon="4.82336">
        <ele>240</ele>
        <time>2017-03-29T09:40:22Z</time>
      </trkpt>
      <trkpt lat="46.06586" lon="4.82348">
        <ele>241</ele>
        <time>2017-03-29T09:40:24Z</time>
      </trkpt>
      <trkpt lat="46.06586" lon="4.82353">
        <ele>241</ele>
        <time>2017-03-29T09:40:25Z</time>
      </trkpt>
      <trkpt lat="46.06586" lon="4.82365">
        <ele>242</ele>
        <time>2017-03-29T09:40:27Z</time>
      </trkpt>
      <trkpt lat="46.06587" lon="4.82371">
        <ele>242</ele>
        <time>2017-03-29T09:40:28Z</time>
      </trkpt>
      <trkpt lat="46.06587" lon="4.82382">
        <ele>242</ele>
        <time>2017-03-29T09:40:30Z</time>
      </trkpt>
      <trkpt lat="46.06587" lon="4.82388">
        <ele>242</ele>
        <time>2017-03-29T09:40:31Z</time>
      </trkpt>
      <trkpt lat="46.06588" lon="4.824">
        <ele>242</ele>
        <time>2017-03-29T09:40:33Z</time>
      </trkpt>
      <trkpt lat="46.06588" lon="4.82406">
        <ele>242</ele>
        <time>2017-03-29T09:40:34Z</time>
      </trkpt>
      <trkpt lat="46.06589" lon="4.82417">
        <ele>242</ele>
        <time>2017-03-29T09:40:36Z</time>
      </trkpt>
      <trkpt lat="46.06589" lon="4.82423">
        <ele>242</ele>
        <time>2017-03-29T09:40:37Z</time>
      </trkpt>
      <trkpt lat="46.0659" lon="4.82434">
        <ele>243</ele>
        <time>2017-03-29T09:40:39Z</time>
      </trkpt>
      <trkpt lat="46.0659" lon="4.82439">
        <ele>243</ele>
        <time>2017-03-29T09:40:40Z</time>
      </trkpt>
      <trkpt lat="46.06591" lon="4.8245">
        <ele>243</ele>
        <time>2017-03-29T09:40:42Z</time>
      </trkpt>
      <trkpt lat="46.06592" lon="4.82455">
        <ele>243</ele>
        <time>2017-03-29T09:40:43Z</time>
      </trkpt>
      <trkpt lat="46.06593" lon="4.82466">
        <ele>243</ele>
        <time>2017-03-29T09:40:45Z</time>
      </trkpt>
      <trkpt lat="46.06593" lon="4.82471">
        <ele>243</ele>
        <time>2017-03-29T09:40:46Z</time>
      </trkpt>
      <trkpt lat="46.06594" lon="4.82482">
        <ele>243</ele>
        <time>2017-03-29T09:40:48Z</time>
      </trkpt>
      <trkpt lat="46.06594" lon="4.82487">
        <ele>243</ele>
        <time>2017-03-29T09:40:49Z</time>
      </trkpt>
      <trkpt lat="46.06595" lon="4.82498">
        <ele>243</ele>
        <time>2017-03-29T09:40:51Z</time>
      </trkpt>
      <trkpt lat="46.06595" lon="4.82503">
        <ele>244</ele>
        <time>2017-03-29T09:40:52Z</time>
      </trkpt>
      <trkpt lat="46.06596" lon="4.82513">
        <ele>245</ele>
        <time>2017-03-29T09:40:54Z</time>
      </trkpt>
      <trkpt lat="46.06596" lon="4.82518">
        <ele>245</ele>
        <time>2017-03-29T09:40:55Z</time>
      </trkpt>
      <trkpt lat="46.06597" lon="4.82527">
        <ele>245</ele>
        <time>2017-03-29T09:40:57Z</time>
      </trkpt>
      <trkpt lat="46.06597" lon="4.82532">
        <ele>246</ele>
        <time>2017-03-29T09:40:58Z</time>
      </trkpt>
      <trkpt lat="46.06598" lon="4.82541">
        <ele>246</ele>
        <time>2017-03-29T09:41:00Z</time>
      </trkpt>
      <trkpt lat="46.06598" lon="4.82546">
        <ele>246</ele>
        <time>2017-03-29T09:41:01Z</time>
      </trkpt>
      <trkpt lat="46.06599" lon="4.82556">
        <ele>246</ele>
        <time>2017-03-29T09:41:03Z</time>
      </trkpt>
      <trkpt lat="46.06599" lon="4.82561">
        <ele>246</ele>
        <time>2017-03-29T09:41:04Z</time>
      </trkpt>
      <trkpt lat="46.066" lon="4.8257">
        <ele>246</ele>
        <time>2017-03-29T09:41:06Z</time>
      </trkpt>
      <trkpt lat="46.066" lon="4.82574">
        <ele>246</ele>
        <time>2017-03-29T09:41:07Z</time>
      </trkpt>
      <trkpt lat="46.06601" lon="4.82586">
        <ele>247</ele>
        <time>2017-03-29T09:41:10Z</time>
      </trkpt>
      <trkpt lat="46.06601" lon="4.82589">
        <ele>247</ele>
        <time>2017-03-29T09:41:11Z</time>
      </trkpt>
      <trkpt lat="46.06602" lon="4.82599">
        <ele>248</ele>
        <time>2017-03-29T09:41:14Z</time>
      </trkpt>
      <trkpt lat="46.06602" lon="4.82603">
        <ele>248</ele>
        <time>2017-03-29T09:41:15Z</time>
      </trkpt>
      <trkpt lat="46.06602" lon="4.82615">
        <ele>248</ele>
        <time>2017-03-29T09:41:18Z</time>
      </trkpt>
      <trkpt lat="46.06603" lon="4.82619">
        <ele>249</ele>
        <time>2017-03-29T09:41:19Z</time>
      </trkpt>
      <trkpt lat="46.06604" lon="4.82627">
        <ele>249</ele>
        <time>2017-03-29T09:41:21Z</time>
      </trkpt>
      <trkpt lat="46.06604" lon="4.82632">
        <ele>249</ele>
        <time>2017-03-29T09:41:22Z</time>
      </trkpt>
      <trkpt lat="46.06605" lon="4.82643">
        <ele>249</ele>
        <time>2017-03-29T09:41:25Z</time>
      </trkpt>
      <trkpt lat="46.06605" lon="4.82647">
        <ele>249</ele>
        <time>2017-03-29T09:41:26Z</time>
      </trkpt>
      <trkpt lat="46.06606" lon="4.82657">
        <ele>249</ele>
        <time>2017-03-29T09:41:29Z</time>
      </trkpt>
      <trkpt lat="46.06606" lon="4.82661">
        <ele>249</ele>
        <time>2017-03-29T09:41:30Z</time>
      </trkpt>
      <trkpt lat="46.06608" lon="4.82672">
        <ele>251</ele>
        <time>2017-03-29T09:41:33Z</time>
      </trkpt>
      <trkpt lat="46.06608" lon="4.82676">
        <ele>251</ele>
        <time>2017-03-29T09:41:34Z</time>
      </trkpt>
      <trkpt lat="46.0661" lon="4.82686">
        <ele>252</ele>
        <time>2017-03-29T09:41:37Z</time>
      </trkpt>
      <trkpt lat="46.0661" lon="4.8269">
        <ele>252</ele>
        <time>2017-03-29T09:41:38Z</time>
      </trkpt>
      <trkpt lat="46.06613" lon="4.82702">
        <ele>253</ele>
        <time>2017-03-29T09:41:42Z</time>
      </trkpt>
      <trkpt lat="46.06613" lon="4.82705">
        <ele>253</ele>
        <time>2017-03-29T09:41:43Z</time>
      </trkpt>
      <trkpt lat="46.06614" lon="4.82717">
        <ele>253</ele>
        <time>2017-03-29T09:41:47Z</time>
      </trkpt>
      <trkpt lat="46.06615" lon="4.8272">
        <ele>253</ele>
        <time>2017-03-29T09:41:48Z</time>
      </trkpt>
      <trkpt lat="46.06615" lon="4.82732">
        <ele>253</ele>
        <time>2017-03-29T09:41:53Z</time>
      </trkpt>
      <trkpt lat="46.06615" lon="4.82735">
        <ele>253</ele>
        <time>2017-03-29T09:41:54Z</time>
      </trkpt>
      <trkpt lat="46.06614" lon="4.82746">
        <ele>253</ele>
        <time>2017-03-29T09:41:59Z</time>
      </trkpt>
      <trkpt lat="46.06614" lon="4.82748">
        <ele>253</ele>
        <time>2017-03-29T09:42:00Z</time>
      </trkpt>
      <trkpt lat="46.06615" lon="4.82759">
        <ele>257</ele>
        <time>2017-03-29T09:42:04Z</time>
      </trkpt>
      <trkpt lat="46.06615" lon="4.82761">
        <ele>257</ele>
        <time>2017-03-29T09:42:05Z</time>
      </trkpt>
      <trkpt lat="46.06618" lon="4.8276">
        <ele>257</ele>
        <time>2017-03-29T09:43:22Z</time>
      </trkpt>
      <trkpt lat="46.06618" lon="4.8276">
        <ele>257</ele>
        <time>2017-03-29T09:43:23Z</time>
      </trkpt>
      <trkpt lat="46.06615" lon="4.82772">
        <ele>257</ele>
        <time>2017-03-29T09:44:06Z</time>
      </trkpt>
      <trkpt lat="46.06615" lon="4.82775">
        <ele>257</ele>
        <time>2017-03-29T09:44:07Z</time>
      </trkpt>
      <trkpt lat="46.06616" lon="4.82788">
        <ele>258</ele>
        <time>2017-03-29T09:44:12Z</time>
      </trkpt>
      <trkpt lat="46.06616" lon="4.82792">
        <ele>258</ele>
        <time>2017-03-29T09:44:13Z</time>
      </trkpt>
      <trkpt lat="46.06617" lon="4.82804">
        <ele>259</ele>
        <time>2017-03-29T09:44:17Z</time>
      </trkpt>
      <trkpt lat="46.06618" lon="4.82807">
        <ele>259</ele>
        <time>2017-03-29T09:44:18Z</time>
      </trkpt>
      <trkpt lat="46.06619" lon="4.82819">
        <ele>259</ele>
        <time>2017-03-29T09:44:22Z</time>
      </trkpt>
      <trkpt lat="46.06619" lon="4.82823">
        <ele>259</ele>
        <time>2017-03-29T09:44:23Z</time>
      </trkpt>
      <trkpt lat="46.0662" lon="4.82835">
        <ele>262</ele>
        <time>2017-03-29T09:44:27Z</time>
      </trkpt>
      <trkpt lat="46.0662" lon="4.82838">
        <ele>262</ele>
        <time>2017-03-29T09:44:28Z</time>
      </trkpt>
      <trkpt lat="46.06619" lon="4.82848">
        <ele>262</ele>
        <time>2017-03-29T09:44:31Z</time>
      </trkpt>
      <trkpt lat="46.06619" lon="4.82851">
        <ele>262</ele>
        <time>2017-03-29T09:44:32Z</time>
      </trkpt>
      <trkpt lat="46.06618" lon="4.82864">
        <ele>262</ele>
        <time>2017-03-29T09:44:36Z</time>
      </trkpt>
      <trkpt lat="46.06617" lon="4.82868">
        <ele>262</ele>
        <time>2017-03-29T09:44:37Z</time>
      </trkpt>
      <trkpt lat="46.06618" lon="4.82879">
        <ele>263</ele>
        <time>2017-03-29T09:44:40Z</time>
      </trkpt>
      <trkpt lat="46.06618" lon="4.82883">
        <ele>263</ele>
        <time>2017-03-29T09:44:41Z</time>
      </trkpt>
      <trkpt lat="46.06618" lon="4.82895">
        <ele>263</ele>
        <time>2017-03-29T09:44:44Z</time>
      </trkpt>
      <trkpt lat="46.06617" lon="4.82899">
        <ele>263</ele>
        <time>2017-03-29T09:44:45Z</time>
      </trkpt>
      <trkpt lat="46.06618" lon="4.82911">
        <ele>263</ele>
        <time>2017-03-29T09:44:48Z</time>
      </trkpt>
      <trkpt lat="46.06618" lon="4.82914">
        <ele>263</ele>
        <time>2017-03-29T09:44:49Z</time>
      </trkpt>
      <trkpt lat="46.0662" lon="4.82925">
        <ele>264</ele>
        <time>2017-03-29T09:44:54Z</time>
      </trkpt>
      <trkpt lat="46.0662" lon="4.82928">
        <ele>264</ele>
        <time>2017-03-29T09:44:55Z</time>
      </trkpt>
      <trkpt lat="46.06622" lon="4.8294">
        <ele>264</ele>
        <time>2017-03-29T09:44:58Z</time>
      </trkpt>
      <trkpt lat="46.06623" lon="4.82945">
        <ele>264</ele>
        <time>2017-03-29T09:44:59Z</time>
      </trkpt>
      <trkpt lat="46.06625" lon="4.82954">
        <ele>264</ele>
        <time>2017-03-29T09:45:01Z</time>
      </trkpt>
      <trkpt lat="46.06626" lon="4.82958">
        <ele>264</ele>
        <time>2017-03-29T09:45:02Z</time>
      </trkpt>
      <trkpt lat="46.06629" lon="4.82966">
        <ele>264</ele>
        <time>2017-03-29T09:45:04Z</time>
      </trkpt>
      <trkpt lat="46.06631" lon="4.8297">
        <ele>264</ele>
        <time>2017-03-29T09:45:05Z</time>
      </trkpt>
      <trkpt lat="46.06634" lon="4.82977">
        <ele>264</ele>
        <time>2017-03-29T09:45:07Z</time>
      </trkpt>
      <trkpt lat="46.06637" lon="4.82981">
        <ele>265</ele>
        <time>2017-03-29T09:45:08Z</time>
      </trkpt>
      <trkpt lat="46.06642" lon="4.82989">
        <ele>265</ele>
        <time>2017-03-29T09:45:10Z</time>
      </trkpt>
      <trkpt lat="46.06644" lon="4.82992">
        <ele>265</ele>
        <time>2017-03-29T09:45:11Z</time>
      </trkpt>
      <trkpt lat="46.06648" lon="4.82998">
        <ele>266</ele>
        <time>2017-03-29T09:45:13Z</time>
      </trkpt>
      <trkpt lat="46.0665" lon="4.83002">
        <ele>266</ele>
        <time>2017-03-29T09:45:14Z</time>
      </trkpt>
      <trkpt lat="46.06655" lon="4.83009">
        <ele>266</ele>
        <time>2017-03-29T09:45:17Z</time>
      </trkpt>
      <trkpt lat="46.06656" lon="4.83012">
        <ele>266</ele>
        <time>2017-03-29T09:45:18Z</time>
      </trkpt>
      <trkpt lat="46.06659" lon="4.83021">
        <ele>266</ele>
        <time>2017-03-29T09:45:21Z</time>
      </trkpt>
      <trkpt lat="46.0666" lon="4.83024">
        <ele>266</ele>
        <time>2017-03-29T09:45:22Z</time>
      </trkpt>
      <trkpt lat="46.06663" lon="4.83035">
        <ele>266</ele>
        <time>2017-03-29T09:45:25Z</time>
      </trkpt>
      <trkpt lat="46.06665" lon="4.83038">
        <ele>266</ele>
        <time>2017-03-29T09:45:26Z</time>
      </trkpt>
      <trkpt lat="46.06669" lon="4.83049">
        <ele>270</ele>
        <time>2017-03-29T09:45:29Z</time>
      </trkpt>
      <trkpt lat="46.0667" lon="4.83053">
        <ele>270</ele>
        <time>2017-03-29T09:45:30Z</time>
      </trkpt>
      <trkpt lat="46.06673" lon="4.83061">
        <ele>270</ele>
        <time>2017-03-29T09:45:32Z</time>
      </trkpt>
      <trkpt lat="46.06674" lon="4.83065">
        <ele>270</ele>
        <time>2017-03-29T09:45:33Z</time>
      </trkpt>
      <trkpt lat="46.06678" lon="4.83076">
        <ele>270</ele>
        <time>2017-03-29T09:45:36Z</time>
      </trkpt>
      <trkpt lat="46.06679" lon="4.8308">
        <ele>270</ele>
        <time>2017-03-29T09:45:37Z</time>
      </trkpt>
      <trkpt lat="46.06681" lon="4.83089">
        <ele>270</ele>
        <time>2017-03-29T09:45:40Z</time>
      </trkpt>
      <trkpt lat="46.06682" lon="4.83093">
        <ele>270</ele>
        <time>2017-03-29T09:45:41Z</time>
      </trkpt>
      <trkpt lat="46.06686" lon="4.83101">
        <ele>270</ele>
        <time>2017-03-29T09:45:44Z</time>
      </trkpt>
      <trkpt lat="46.06688" lon="4.83104">
        <ele>270</ele>
        <time>2017-03-29T09:45:45Z</time>
      </trkpt>
      <trkpt lat="46.06692" lon="4.83114">
        <ele>270</ele>
        <time>2017-03-29T09:45:48Z</time>
      </trkpt>
      <trkpt lat="46.06693" lon="4.83118">
        <ele>270</ele>
        <time>2017-03-29T09:45:49Z</time>
      </trkpt>
      <trkpt lat="46.06697" lon="4.83125">
        <ele>270</ele>
        <time>2017-03-29T09:45:51Z</time>
      </trkpt>
      <trkpt lat="46.06698" lon="4.83129">
        <ele>270</ele>
        <time>2017-03-29T09:45:52Z</time>
      </trkpt>
      <trkpt lat="46.067" lon="4.83137">
        <ele>270</ele>
        <time>2017-03-29T09:45:54Z</time>
      </trkpt>
      <trkpt lat="46.06702" lon="4.83141">
        <ele>270</ele>
        <time>2017-03-29T09:45:55Z</time>
      </trkpt>
      <trkpt lat="46.06704" lon="4.8315">
        <ele>270</ele>
        <time>2017-03-29T09:45:57Z</time>
      </trkpt>
      <trkpt lat="46.06706" lon="4.83154">
        <ele>270</ele>
        <time>2017-03-29T09:45:58Z</time>
      </trkpt>
      <trkpt lat="46.06711" lon="4.83162">
        <ele>270</ele>
        <time>2017-03-29T09:46:00Z</time>
      </trkpt>
      <trkpt lat="46.06715" lon="4.83164">
        <ele>271</ele>
        <time>2017-03-29T09:46:01Z</time>
      </trkpt>
      <trkpt lat="46.06723" lon="4.83165">
        <ele>271</ele>
        <time>2017-03-29T09:46:03Z</time>
      </trkpt>
      <trkpt lat="46.06728" lon="4.83164">
        <ele>271</ele>
        <time>2017-03-29T09:46:04Z</time>
      </trkpt>
      <trkpt lat="46.06736" lon="4.83164">
        <ele>271</ele>
        <time>2017-03-29T09:46:06Z</time>
      </trkpt>
      <trkpt lat="46.0674" lon="4.83164">
        <ele>271</ele>
        <time>2017-03-29T09:46:07Z</time>
      </trkpt>
      <trkpt lat="46.06745" lon="4.83164">
        <ele>272</ele>
        <time>2017-03-29T09:46:08Z</time>
      </trkpt>
      <trkpt lat="46.06749" lon="4.83163">
        <ele>272</ele>
        <time>2017-03-29T09:46:09Z</time>
      </trkpt>
      <trkpt lat="46.06754" lon="4.83163">
        <ele>272</ele>
        <time>2017-03-29T09:46:10Z</time>
      </trkpt>
      <trkpt lat="46.06759" lon="4.83162">
        <ele>271</ele>
        <time>2017-03-29T09:46:11Z</time>
      </trkpt>
      <trkpt lat="46.06768" lon="4.83161">
        <ele>271</ele>
        <time>2017-03-29T09:46:13Z</time>
      </trkpt>
      <trkpt lat="46.06773" lon="4.83161">
        <ele>271</ele>
        <time>2017-03-29T09:46:14Z</time>
      </trkpt>
      <trkpt lat="46.06777" lon="4.83161">
        <ele>270</ele>
        <time>2017-03-29T09:46:15Z</time>
      </trkpt>
      <trkpt lat="46.06782" lon="4.83157">
        <ele>270</ele>
        <time>2017-03-29T09:46:16Z</time>
      </trkpt>
      <trkpt lat="46.0679" lon="4.83156">
        <ele>270</ele>
        <time>2017-03-29T09:46:18Z</time>
      </trkpt>
      <trkpt lat="46.06795" lon="4.83155">
        <ele>270</ele>
        <time>2017-03-29T09:46:19Z</time>
      </trkpt>
      <trkpt lat="46.06803" lon="4.8315">
        <ele>269</ele>
        <time>2017-03-29T09:46:21Z</time>
      </trkpt>
      <trkpt lat="46.06806" lon="4.83145">
        <ele>269</ele>
        <time>2017-03-29T09:46:22Z</time>
      </trkpt>
      <trkpt lat="46.06812" lon="4.83136">
        <ele>269</ele>
        <time>2017-03-29T09:46:24Z</time>
      </trkpt>
      <trkpt lat="46.06815" lon="4.83132">
        <ele>269</ele>
        <time>2017-03-29T09:46:25Z</time>
      </trkpt>
      <trkpt lat="46.06821" lon="4.83124">
        <ele>269</ele>
        <time>2017-03-29T09:46:27Z</time>
      </trkpt>
      <trkpt lat="46.06825" lon="4.8312">
        <ele>269</ele>
        <time>2017-03-29T09:46:28Z</time>
      </trkpt>
      <trkpt lat="46.06828" lon="4.83117">
        <ele>269</ele>
        <time>2017-03-29T09:46:29Z</time>
      </trkpt>
      <trkpt lat="46.06833" lon="4.83113">
        <ele>269</ele>
        <time>2017-03-29T09:46:30Z</time>
      </trkpt>
      <trkpt lat="46.06841" lon="4.8311">
        <ele>267</ele>
        <time>2017-03-29T09:46:32Z</time>
      </trkpt>
      <trkpt lat="46.06845" lon="4.83109">
        <ele>267</ele>
        <time>2017-03-29T09:46:33Z</time>
      </trkpt>
      <trkpt lat="46.0685" lon="4.83109">
        <ele>267</ele>
        <time>2017-03-29T09:46:34Z</time>
      </trkpt>
      <trkpt lat="46.06854" lon="4.83109">
        <ele>267</ele>
        <time>2017-03-29T09:46:35Z</time>
      </trkpt>
      <trkpt lat="46.06859" lon="4.83108">
        <ele>267</ele>
        <time>2017-03-29T09:46:36Z</time>
      </trkpt>
      <trkpt lat="46.06864" lon="4.83108">
        <ele>267</ele>
        <time>2017-03-29T09:46:37Z</time>
      </trkpt>
      <trkpt lat="46.06873" lon="4.83106">
        <ele>267</ele>
        <time>2017-03-29T09:46:39Z</time>
      </trkpt>
      <trkpt lat="46.06878" lon="4.83105">
        <ele>267</ele>
        <time>2017-03-29T09:46:40Z</time>
      </trkpt>
      <trkpt lat="46.06883" lon="4.83103">
        <ele>267</ele>
        <time>2017-03-29T09:46:41Z</time>
      </trkpt>
      <trkpt lat="46.0689" lon="4.83101">
        <ele>267</ele>
        <time>2017-03-29T09:46:42Z</time>
      </trkpt>
      <trkpt lat="46.06895" lon="4.83098">
        <ele>267</ele>
        <time>2017-03-29T09:46:43Z</time>
      </trkpt>
      <trkpt lat="46.06901" lon="4.83097">
        <ele>266</ele>
        <time>2017-03-29T09:46:44Z</time>
      </trkpt>
      <trkpt lat="46.06905" lon="4.83095">
        <ele>266</ele>
        <time>2017-03-29T09:46:45Z</time>
      </trkpt>
      <trkpt lat="46.0691" lon="4.83094">
        <ele>266</ele>
        <time>2017-03-29T09:46:46Z</time>
      </trkpt>
      <trkpt lat="46.06916" lon="4.83092">
        <ele>266</ele>
        <time>2017-03-29T09:46:47Z</time>
      </trkpt>
      <trkpt lat="46.06921" lon="4.83089">
        <ele>266</ele>
        <time>2017-03-29T09:46:48Z</time>
      </trkpt>
      <trkpt lat="46.06926" lon="4.83087">
        <ele>265</ele>
        <time>2017-03-29T09:46:49Z</time>
      </trkpt>
      <trkpt lat="46.06932" lon="4.83083">
        <ele>266</ele>
        <time>2017-03-29T09:46:50Z</time>
      </trkpt>
      <trkpt lat="46.06936" lon="4.83082">
        <ele>266</ele>
        <time>2017-03-29T09:46:51Z</time>
      </trkpt>
      <trkpt lat="46.06942" lon="4.8308">
        <ele>265</ele>
        <time>2017-03-29T09:46:52Z</time>
      </trkpt>
      <trkpt lat="46.06946" lon="4.83078">
        <ele>265</ele>
        <time>2017-03-29T09:46:53Z</time>
      </trkpt>
      <trkpt lat="46.06951" lon="4.83075">
        <ele>265</ele>
        <time>2017-03-29T09:46:54Z</time>
      </trkpt>
      <trkpt lat="46.06956" lon="4.83074">
        <ele>265</ele>
        <time>2017-03-29T09:46:55Z</time>
      </trkpt>
      <trkpt lat="46.0696" lon="4.83072">
        <ele>265</ele>
        <time>2017-03-29T09:46:56Z</time>
      </trkpt>
      <trkpt lat="46.06965" lon="4.8307">
        <ele>265</ele>
        <time>2017-03-29T09:46:57Z</time>
      </trkpt>
      <trkpt lat="46.0697" lon="4.83068">
        <ele>265</ele>
        <time>2017-03-29T09:46:58Z</time>
      </trkpt>
      <trkpt lat="46.06975" lon="4.83067">
        <ele>265</ele>
        <time>2017-03-29T09:46:59Z</time>
      </trkpt>
      <trkpt lat="46.0698" lon="4.83066">
        <ele>264</ele>
        <time>2017-03-29T09:47:00Z</time>
      </trkpt>
      <trkpt lat="46.06985" lon="4.83064">
        <ele>264</ele>
        <time>2017-03-29T09:47:01Z</time>
      </trkpt>
      <trkpt lat="46.0699" lon="4.83063">
        <ele>264</ele>
        <time>2017-03-29T09:47:02Z</time>
      </trkpt>
      <trkpt lat="46.06996" lon="4.83062">
        <ele>264</ele>
        <time>2017-03-29T09:47:03Z</time>
      </trkpt>
      <trkpt lat="46.07002" lon="4.83061">
        <ele>263</ele>
        <time>2017-03-29T09:47:04Z</time>
      </trkpt>
      <trkpt lat="46.07008" lon="4.83061">
        <ele>263</ele>
        <time>2017-03-29T09:47:05Z</time>
      </trkpt>
      <trkpt lat="46.07013" lon="4.83062">
        <ele>263</ele>
        <time>2017-03-29T09:47:06Z</time>
      </trkpt>
      <trkpt lat="46.07019" lon="4.83063">
        <ele>263</ele>
        <time>2017-03-29T09:47:07Z</time>
      </trkpt>
      <trkpt lat="46.07026" lon="4.83064">
        <ele>263</ele>
        <time>2017-03-29T09:47:08Z</time>
      </trkpt>
      <trkpt lat="46.07032" lon="4.83065">
        <ele>263</ele>
        <time>2017-03-29T09:47:09Z</time>
      </trkpt>
      <trkpt lat="46.07037" lon="4.83067">
        <ele>263</ele>
        <time>2017-03-29T09:47:10Z</time>
      </trkpt>
      <trkpt lat="46.07043" lon="4.83068">
        <ele>263</ele>
        <time>2017-03-29T09:47:11Z</time>
      </trkpt>
      <trkpt lat="46.07049" lon="4.83069">
        <ele>263</ele>
        <time>2017-03-29T09:47:12Z</time>
      </trkpt>
      <trkpt lat="46.07055" lon="4.8307">
        <ele>263</ele>
        <time>2017-03-29T09:47:13Z</time>
      </trkpt>
      <trkpt lat="46.0706" lon="4.83071">
        <ele>263</ele>
        <time>2017-03-29T09:47:14Z</time>
      </trkpt>
      <trkpt lat="46.07065" lon="4.83072">
        <ele>263</ele>
        <time>2017-03-29T09:47:15Z</time>
      </trkpt>
      <trkpt lat="46.0707" lon="4.83073">
        <ele>263</ele>
        <time>2017-03-29T09:47:16Z</time>
      </trkpt>
      <trkpt lat="46.07075" lon="4.83074">
        <ele>263</ele>
        <time>2017-03-29T09:47:17Z</time>
      </trkpt>
      <trkpt lat="46.0708" lon="4.83076">
        <ele>263</ele>
        <time>2017-03-29T09:47:18Z</time>
      </trkpt>
      <trkpt lat="46.07085" lon="4.83077">
        <ele>263</ele>
        <time>2017-03-29T09:47:19Z</time>
      </trkpt>
      <trkpt lat="46.07089" lon="4.83079">
        <ele>263</ele>
        <time>2017-03-29T09:47:20Z</time>
      </trkpt>
      <trkpt lat="46.07097" lon="4.83081">
        <ele>263</ele>
        <time>2017-03-29T09:47:22Z</time>
      </trkpt>
      <trkpt lat="46.07102" lon="4.83082">
        <ele>263</ele>
        <time>2017-03-29T09:47:23Z</time>
      </trkpt>
      <trkpt lat="46.07107" lon="4.83083">
        <ele>263</ele>
        <time>2017-03-29T09:47:24Z</time>
      </trkpt>
      <trkpt lat="46.07111" lon="4.83084">
        <ele>263</ele>
        <time>2017-03-29T09:47:25Z</time>
      </trkpt>
      <trkpt lat="46.07116" lon="4.83084">
        <ele>263</ele>
        <time>2017-03-29T09:47:26Z</time>
      </trkpt>
      <trkpt lat="46.07121" lon="4.83085">
        <ele>263</ele>
        <time>2017-03-29T09:47:27Z</time>
      </trkpt>
      <trkpt lat="46.07126" lon="4.83085">
        <ele>263</ele>
        <time>2017-03-29T09:47:28Z</time>
      </trkpt>
      <trkpt lat="46.07131" lon="4.83085">
        <ele>263</ele>
        <time>2017-03-29T09:47:29Z</time>
      </trkpt>
      <trkpt lat="46.07136" lon="4.83083">
        <ele>263</ele>
        <time>2017-03-29T09:47:30Z</time>
      </trkpt>
      <trkpt lat="46.07141" lon="4.8308">
        <ele>263</ele>
        <time>2017-03-29T09:47:31Z</time>
      </trkpt>
      <trkpt lat="46.07145" lon="4.83077">
        <ele>263</ele>
        <time>2017-03-29T09:47:32Z</time>
      </trkpt>
      <trkpt lat="46.07149" lon="4.83072">
        <ele>263</ele>
        <time>2017-03-29T09:47:33Z</time>
      </trkpt>
      <trkpt lat="46.07154" lon="4.83063">
        <ele>263</ele>
        <time>2017-03-29T09:47:35Z</time>
      </trkpt>
      <trkpt lat="46.07157" lon="4.83058">
        <ele>263</ele>
        <time>2017-03-29T09:47:36Z</time>
      </trkpt>
      <trkpt lat="46.07163" lon="4.83049">
        <ele>263</ele>
        <time>2017-03-29T09:47:38Z</time>
      </trkpt>
      <trkpt lat="46.07167" lon="4.83046">
        <ele>263</ele>
        <time>2017-03-29T09:47:39Z</time>
      </trkpt>
      <trkpt lat="46.07175" lon="4.83042">
        <ele>263</ele>
        <time>2017-03-29T09:47:41Z</time>
      </trkpt>
      <trkpt lat="46.0718" lon="4.8304">
        <ele>263</ele>
        <time>2017-03-29T09:47:42Z</time>
      </trkpt>
      <trkpt lat="46.07188" lon="4.83038">
        <ele>263</ele>
        <time>2017-03-29T09:47:44Z</time>
      </trkpt>
      <trkpt lat="46.07192" lon="4.83036">
        <ele>263</ele>
        <time>2017-03-29T09:47:45Z</time>
      </trkpt>
      <trkpt lat="46.07197" lon="4.83032">
        <ele>263</ele>
        <time>2017-03-29T09:47:46Z</time>
      </trkpt>
      <trkpt lat="46.07202" lon="4.83029">
        <ele>263</ele>
        <time>2017-03-29T09:47:47Z</time>
      </trkpt>
      <trkpt lat="46.07206" lon="4.83026">
        <ele>263</ele>
        <time>2017-03-29T09:47:48Z</time>
      </trkpt>
      <trkpt lat="46.0721" lon="4.83021">
        <ele>263</ele>
        <time>2017-03-29T09:47:49Z</time>
      </trkpt>
      <trkpt lat="46.07214" lon="4.83015">
        <ele>263</ele>
        <time>2017-03-29T09:47:50Z</time>
      </trkpt>
      <trkpt lat="46.07216" lon="4.8301">
        <ele>263</ele>
        <time>2017-03-29T09:47:51Z</time>
      </trkpt>
      <trkpt lat="46.07219" lon="4.83003">
        <ele>263</ele>
        <time>2017-03-29T09:47:52Z</time>
      </trkpt>
      <trkpt lat="46.07221" lon="4.82996">
        <ele>263</ele>
        <time>2017-03-29T09:47:53Z</time>
      </trkpt>
      <trkpt lat="46.07223" lon="4.82988">
        <ele>263</ele>
        <time>2017-03-29T09:47:54Z</time>
      </trkpt>
      <trkpt lat="46.07224" lon="4.82979">
        <ele>263</ele>
        <time>2017-03-29T09:47:55Z</time>
      </trkpt>
      <trkpt lat="46.07225" lon="4.82971">
        <ele>263</ele>
        <time>2017-03-29T09:47:56Z</time>
      </trkpt>
      <trkpt lat="46.07225" lon="4.82963">
        <ele>263</ele>
        <time>2017-03-29T09:47:57Z</time>
      </trkpt>
      <trkpt lat="46.07227" lon="4.82956">
        <ele>263</ele>
        <time>2017-03-29T09:47:58Z</time>
      </trkpt>
      <trkpt lat="46.07228" lon="4.82948">
        <ele>263</ele>
        <time>2017-03-29T09:47:59Z</time>
      </trkpt>
      <trkpt lat="46.07229" lon="4.82941">
        <ele>263</ele>
        <time>2017-03-29T09:48:00Z</time>
      </trkpt>
      <trkpt lat="46.07231" lon="4.82934">
        <ele>263</ele>
        <time>2017-03-29T09:48:01Z</time>
      </trkpt>
      <trkpt lat="46.07233" lon="4.82928">
        <ele>263</ele>
        <time>2017-03-29T09:48:02Z</time>
      </trkpt>
      <trkpt lat="46.07236" lon="4.82922">
        <ele>263</ele>
        <time>2017-03-29T09:48:03Z</time>
      </trkpt>
      <trkpt lat="46.07238" lon="4.82916">
        <ele>263</ele>
        <time>2017-03-29T09:48:04Z</time>
      </trkpt>
      <trkpt lat="46.07241" lon="4.82911">
        <ele>263</ele>
        <time>2017-03-29T09:48:05Z</time>
      </trkpt>
      <trkpt lat="46.07245" lon="4.82906">
        <ele>263</ele>
        <time>2017-03-29T09:48:06Z</time>
      </trkpt>
      <trkpt lat="46.07249" lon="4.82902">
        <ele>263</ele>
        <time>2017-03-29T09:48:07Z</time>
      </trkpt>
      <trkpt lat="46.07254" lon="4.82898">
        <ele>262</ele>
        <time>2017-03-29T09:48:08Z</time>
      </trkpt>
      <trkpt lat="46.07259" lon="4.82894">
        <ele>262</ele>
        <time>2017-03-29T09:48:09Z</time>
      </trkpt>
      <trkpt lat="46.07263" lon="4.82891">
        <ele>262</ele>
        <time>2017-03-29T09:48:10Z</time>
      </trkpt>
      <trkpt lat="46.07267" lon="4.82887">
        <ele>262</ele>
        <time>2017-03-29T09:48:11Z</time>
      </trkpt>
      <trkpt lat="46.07272" lon="4.82884">
        <ele>262</ele>
        <time>2017-03-29T09:48:12Z</time>
      </trkpt>
      <trkpt lat="46.07276" lon="4.82881">
        <ele>261</ele>
        <time>2017-03-29T09:48:13Z</time>
      </trkpt>
      <trkpt lat="46.07282" lon="4.82879">
        <ele>261</ele>
        <time>2017-03-29T09:48:14Z</time>
      </trkpt>
      <trkpt lat="46.07287" lon="4.82877">
        <ele>261</ele>
        <time>2017-03-29T09:48:15Z</time>
      </trkpt>
      <trkpt lat="46.07292" lon="4.82874">
        <ele>261</ele>
        <time>2017-03-29T09:48:16Z</time>
      </trkpt>
      <trkpt lat="46.07297" lon="4.82871">
        <ele>261</ele>
        <time>2017-03-29T09:48:17Z</time>
      </trkpt>
      <trkpt lat="46.07302" lon="4.8287">
        <ele>261</ele>
        <time>2017-03-29T09:48:18Z</time>
      </trkpt>
      <trkpt lat="46.07308" lon="4.82869">
        <ele>261</ele>
        <time>2017-03-29T09:48:19Z</time>
      </trkpt>
      <trkpt lat="46.07312" lon="4.82869">
        <ele>261</ele>
        <time>2017-03-29T09:48:20Z</time>
      </trkpt>
      <trkpt lat="46.07317" lon="4.82868">
        <ele>261</ele>
        <time>2017-03-29T09:48:21Z</time>
      </trkpt>
      <trkpt lat="46.07324" lon="4.82867">
        <ele>261</ele>
        <time>2017-03-29T09:48:22Z</time>
      </trkpt>
      <trkpt lat="46.0733" lon="4.82865">
        <ele>261</ele>
        <time>2017-03-29T09:48:23Z</time>
      </trkpt>
      <trkpt lat="46.07336" lon="4.82863">
        <ele>261</ele>
        <time>2017-03-29T09:48:24Z</time>
      </trkpt>
      <trkpt lat="46.07343" lon="4.82862">
        <ele>261</ele>
        <time>2017-03-29T09:48:25Z</time>
      </trkpt>
      <trkpt lat="46.07349" lon="4.82861">
        <ele>261</ele>
        <time>2017-03-29T09:48:26Z</time>
      </trkpt>
      <trkpt lat="46.07355" lon="4.8286">
        <ele>261</ele>
        <time>2017-03-29T09:48:27Z</time>
      </trkpt>
      <trkpt lat="46.07361" lon="4.82858">
        <ele>261</ele>
        <time>2017-03-29T09:48:28Z</time>
      </trkpt>
      <trkpt lat="46.07367" lon="4.82856">
        <ele>261</ele>
        <time>2017-03-29T09:48:29Z</time>
      </trkpt>
      <trkpt lat="46.07372" lon="4.82853">
        <ele>261</ele>
        <time>2017-03-29T09:48:30Z</time>
      </trkpt>
      <trkpt lat="46.07377" lon="4.82852">
        <ele>261</ele>
        <time>2017-03-29T09:48:31Z</time>
      </trkpt>
      <trkpt lat="46.07382" lon="4.8285">
        <ele>261</ele>
        <time>2017-03-29T09:48:32Z</time>
      </trkpt>
      <trkpt lat="46.07386" lon="4.8285">
        <ele>261</ele>
        <time>2017-03-29T09:48:33Z</time>
      </trkpt>
      <trkpt lat="46.07393" lon="4.8285">
        <ele>261</ele>
        <time>2017-03-29T09:48:35Z</time>
      </trkpt>
      <trkpt lat="46.07396" lon="4.82849">
        <ele>261</ele>
        <time>2017-03-29T09:48:36Z</time>
      </trkpt>
      <trkpt lat="46.07399" lon="4.82841">
        <ele>262</ele>
        <time>2017-03-29T09:48:38Z</time>
      </trkpt>
      <trkpt lat="46.074" lon="4.82834">
        <ele>262</ele>
        <time>2017-03-29T09:48:39Z</time>
      </trkpt>
      <trkpt lat="46.074" lon="4.82827">
        <ele>261</ele>
        <time>2017-03-29T09:48:40Z</time>
      </trkpt>
      <trkpt lat="46.07401" lon="4.82819">
        <ele>261</ele>
        <time>2017-03-29T09:48:41Z</time>
      </trkpt>
      <trkpt lat="46.07402" lon="4.82812">
        <ele>261</ele>
        <time>2017-03-29T09:48:42Z</time>
      </trkpt>
      <trkpt lat="46.07403" lon="4.82804">
        <ele>261</ele>
        <time>2017-03-29T09:48:43Z</time>
      </trkpt>
      <trkpt lat="46.07404" lon="4.82797">
        <ele>261</ele>
        <time>2017-03-29T09:48:44Z</time>
      </trkpt>
      <trkpt lat="46.07407" lon="4.82788">
        <ele>261</ele>
        <time>2017-03-29T09:48:45Z</time>
      </trkpt>
      <trkpt lat="46.07408" lon="4.8278">
        <ele>261</ele>
        <time>2017-03-29T09:48:46Z</time>
      </trkpt>
      <trkpt lat="46.07408" lon="4.82772">
        <ele>261</ele>
        <time>2017-03-29T09:48:47Z</time>
      </trkpt>
      <trkpt lat="46.0741" lon="4.82764">
        <ele>261</ele>
        <time>2017-03-29T09:48:48Z</time>
      </trkpt>
      <trkpt lat="46.07411" lon="4.82758">
        <ele>260</ele>
        <time>2017-03-29T09:48:49Z</time>
      </trkpt>
      <trkpt lat="46.07412" lon="4.82751">
        <ele>260</ele>
        <time>2017-03-29T09:48:50Z</time>
      </trkpt>
      <trkpt lat="46.07413" lon="4.82744">
        <ele>260</ele>
        <time>2017-03-29T09:48:51Z</time>
      </trkpt>
      <trkpt lat="46.07414" lon="4.82737">
        <ele>260</ele>
        <time>2017-03-29T09:48:52Z</time>
      </trkpt>
      <trkpt lat="46.07415" lon="4.82731">
        <ele>260</ele>
        <time>2017-03-29T09:48:53Z</time>
      </trkpt>
      <trkpt lat="46.07416" lon="4.82724">
        <ele>260</ele>
        <time>2017-03-29T09:48:54Z</time>
      </trkpt>
      <trkpt lat="46.07417" lon="4.82717">
        <ele>258</ele>
        <time>2017-03-29T09:48:55Z</time>
      </trkpt>
      <trkpt lat="46.07418" lon="4.8271">
        <ele>258</ele>
        <time>2017-03-29T09:48:56Z</time>
      </trkpt>
      <trkpt lat="46.07419" lon="4.82703">
        <ele>258</ele>
        <time>2017-03-29T09:48:57Z</time>
      </trkpt>
      <trkpt lat="46.07419" lon="4.82695">
        <ele>258</ele>
        <time>2017-03-29T09:48:58Z</time>
      </trkpt>
      <trkpt lat="46.0742" lon="4.82688">
        <ele>258</ele>
        <time>2017-03-29T09:48:59Z</time>
      </trkpt>
      <trkpt lat="46.0742" lon="4.8268">
        <ele>258</ele>
        <time>2017-03-29T09:49:00Z</time>
      </trkpt>
      <trkpt lat="46.0742" lon="4.82672">
        <ele>258</ele>
        <time>2017-03-29T09:49:01Z</time>
      </trkpt>
      <trkpt lat="46.07421" lon="4.82664">
        <ele>258</ele>
        <time>2017-03-29T09:49:02Z</time>
      </trkpt>
      <trkpt lat="46.07422" lon="4.82657">
        <ele>257</ele>
        <time>2017-03-29T09:49:03Z</time>
      </trkpt>
      <trkpt lat="46.07423" lon="4.82649">
        <ele>257</ele>
        <time>2017-03-29T09:49:04Z</time>
      </trkpt>
      <trkpt lat="46.07425" lon="4.82641">
        <ele>256</ele>
        <time>2017-03-29T09:49:05Z</time>
      </trkpt>
      <trkpt lat="46.07426" lon="4.82633">
        <ele>256</ele>
        <time>2017-03-29T09:49:06Z</time>
      </trkpt>
      <trkpt lat="46.07426" lon="4.82625">
        <ele>256</ele>
        <time>2017-03-29T09:49:07Z</time>
      </trkpt>
      <trkpt lat="46.07426" lon="4.82616">
        <ele>256</ele>
        <time>2017-03-29T09:49:08Z</time>
      </trkpt>
      <trkpt lat="46.07427" lon="4.82607">
        <ele>256</ele>
        <time>2017-03-29T09:49:09Z</time>
      </trkpt>
      <trkpt lat="46.07428" lon="4.82598">
        <ele>256</ele>
        <time>2017-03-29T09:49:10Z</time>
      </trkpt>
      <trkpt lat="46.07429" lon="4.82589">
        <ele>256</ele>
        <time>2017-03-29T09:49:11Z</time>
      </trkpt>
      <trkpt lat="46.07429" lon="4.8258">
        <ele>257</ele>
        <time>2017-03-29T09:49:12Z</time>
      </trkpt>
      <trkpt lat="46.0743" lon="4.82571">
        <ele>256</ele>
        <time>2017-03-29T09:49:13Z</time>
      </trkpt>
      <trkpt lat="46.0743" lon="4.82562">
        <ele>256</ele>
        <time>2017-03-29T09:49:14Z</time>
      </trkpt>
      <trkpt lat="46.07431" lon="4.82553">
        <ele>256</ele>
        <time>2017-03-29T09:49:15Z</time>
      </trkpt>
      <trkpt lat="46.07432" lon="4.82544">
        <ele>256</ele>
        <time>2017-03-29T09:49:16Z</time>
      </trkpt>
      <trkpt lat="46.07432" lon="4.82535">
        <ele>257</ele>
        <time>2017-03-29T09:49:17Z</time>
      </trkpt>
      <trkpt lat="46.07433" lon="4.82527">
        <ele>257</ele>
        <time>2017-03-29T09:49:18Z</time>
      </trkpt>
      <trkpt lat="46.07434" lon="4.82519">
        <ele>257</ele>
        <time>2017-03-29T09:49:19Z</time>
      </trkpt>
      <trkpt lat="46.07435" lon="4.8251">
        <ele>257</ele>
        <time>2017-03-29T09:49:20Z</time>
      </trkpt>
      <trkpt lat="46.07437" lon="4.82501">
        <ele>257</ele>
        <time>2017-03-29T09:49:21Z</time>
      </trkpt>
      <trkpt lat="46.07438" lon="4.82493">
        <ele>257</ele>
        <time>2017-03-29T09:49:22Z</time>
      </trkpt>
      <trkpt lat="46.07439" lon="4.82485">
        <ele>257</ele>
        <time>2017-03-29T09:49:23Z</time>
      </trkpt>
      <trkpt lat="46.07439" lon="4.82476">
        <ele>257</ele>
        <time>2017-03-29T09:49:24Z</time>
      </trkpt>
      <trkpt lat="46.07439" lon="4.82468">
        <ele>257</ele>
        <time>2017-03-29T09:49:25Z</time>
      </trkpt>
      <trkpt lat="46.0744" lon="4.82459">
        <ele>257</ele>
        <time>2017-03-29T09:49:26Z</time>
      </trkpt>
      <trkpt lat="46.07441" lon="4.82451">
        <ele>257</ele>
        <time>2017-03-29T09:49:27Z</time>
      </trkpt>
      <trkpt lat="46.07443" lon="4.82442">
        <ele>257</ele>
        <time>2017-03-29T09:49:28Z</time>
      </trkpt>
      <trkpt lat="46.07445" lon="4.82433">
        <ele>257</ele>
        <time>2017-03-29T09:49:29Z</time>
      </trkpt>
      <trkpt lat="46.07447" lon="4.82424">
        <ele>257</ele>
        <time>2017-03-29T09:49:30Z</time>
      </trkpt>
      <trkpt lat="46.07449" lon="4.82414">
        <ele>256</ele>
        <time>2017-03-29T09:49:31Z</time>
      </trkpt>
      <trkpt lat="46.07451" lon="4.82405">
        <ele>256</ele>
        <time>2017-03-29T09:49:32Z</time>
      </trkpt>
      <trkpt lat="46.07454" lon="4.82395">
        <ele>255</ele>
        <time>2017-03-29T09:49:33Z</time>
      </trkpt>
      <trkpt lat="46.07456" lon="4.82384">
        <ele>255</ele>
        <time>2017-03-29T09:49:34Z</time>
      </trkpt>
      <trkpt lat="46.07459" lon="4.82375">
        <ele>255</ele>
        <time>2017-03-29T09:49:35Z</time>
      </trkpt>
      <trkpt lat="46.07462" lon="4.82365">
        <ele>255</ele>
        <time>2017-03-29T09:49:36Z</time>
      </trkpt>
      <trkpt lat="46.07466" lon="4.82356">
        <ele>255</ele>
        <time>2017-03-29T09:49:37Z</time>
      </trkpt>
      <trkpt lat="46.07469" lon="4.82345">
        <ele>254</ele>
        <time>2017-03-29T09:49:38Z</time>
      </trkpt>
      <trkpt lat="46.07473" lon="4.82335">
        <ele>254</ele>
        <time>2017-03-29T09:49:39Z</time>
      </trkpt>
      <trkpt lat="46.07476" lon="4.82324">
        <ele>252</ele>
        <time>2017-03-29T09:49:40Z</time>
      </trkpt>
      <trkpt lat="46.07479" lon="4.82313">
        <ele>252</ele>
        <time>2017-03-29T09:49:41Z</time>
      </trkpt>
      <trkpt lat="46.07482" lon="4.82301">
        <ele>252</ele>
        <time>2017-03-29T09:49:42Z</time>
      </trkpt>
      <trkpt lat="46.07486" lon="4.8229">
        <ele>252</ele>
        <time>2017-03-29T09:49:43Z</time>
      </trkpt>
      <trkpt lat="46.07489" lon="4.82279">
        <ele>251</ele>
        <time>2017-03-29T09:49:44Z</time>
      </trkpt>
      <trkpt lat="46.07492" lon="4.82267">
        <ele>251</ele>
        <time>2017-03-29T09:49:45Z</time>
      </trkpt>
      <trkpt lat="46.07496" lon="4.82255">
        <ele>250</ele>
        <time>2017-03-29T09:49:46Z</time>
      </trkpt>
      <trkpt lat="46.07499" lon="4.82243">
        <ele>249</ele>
        <time>2017-03-29T09:49:47Z</time>
      </trkpt>
      <trkpt lat="46.07502" lon="4.82231">
        <ele>249</ele>
        <time>2017-03-29T09:49:48Z</time>
      </trkpt>
      <trkpt lat="46.07505" lon="4.82219">
        <ele>248</ele>
        <time>2017-03-29T09:49:49Z</time>
      </trkpt>
      <trkpt lat="46.07508" lon="4.82206">
        <ele>247</ele>
        <time>2017-03-29T09:49:50Z</time>
      </trkpt>
      <trkpt lat="46.07511" lon="4.82194">
        <ele>247</ele>
        <time>2017-03-29T09:49:51Z</time>
      </trkpt>
      <trkpt lat="46.07515" lon="4.82181">
        <ele>246</ele>
        <time>2017-03-29T09:49:52Z</time>
      </trkpt>
      <trkpt lat="46.07518" lon="4.82169">
        <ele>246</ele>
        <time>2017-03-29T09:49:53Z</time>
      </trkpt>
      <trkpt lat="46.07522" lon="4.82156">
        <ele>244</ele>
        <time>2017-03-29T09:49:54Z</time>
      </trkpt>
      <trkpt lat="46.07525" lon="4.82143">
        <ele>243</ele>
        <time>2017-03-29T09:49:55Z</time>
      </trkpt>
      <trkpt lat="46.07529" lon="4.8213">
        <ele>243</ele>
        <time>2017-03-29T09:49:56Z</time>
      </trkpt>
      <trkpt lat="46.07532" lon="4.82117">
        <ele>242</ele>
        <time>2017-03-29T09:49:57Z</time>
      </trkpt>
      <trkpt lat="46.07536" lon="4.82104">
        <ele>242</ele>
        <time>2017-03-29T09:49:58Z</time>
      </trkpt>
      <trkpt lat="46.07539" lon="4.8209">
        <ele>242</ele>
        <time>2017-03-29T09:49:59Z</time>
      </trkpt>
      <trkpt lat="46.07543" lon="4.82077">
        <ele>239</ele>
        <time>2017-03-29T09:50:00Z</time>
      </trkpt>
      <trkpt lat="46.07546" lon="4.82064">
        <ele>238</ele>
        <time>2017-03-29T09:50:01Z</time>
      </trkpt>
      <trkpt lat="46.0755" lon="4.8205">
        <ele>238</ele>
        <time>2017-03-29T09:50:02Z</time>
      </trkpt>
      <trkpt lat="46.07553" lon="4.82037">
        <ele>238</ele>
        <time>2017-03-29T09:50:03Z</time>
      </trkpt>
      <trkpt lat="46.07556" lon="4.82024">
        <ele>237</ele>
        <time>2017-03-29T09:50:04Z</time>
      </trkpt>
      <trkpt lat="46.0756" lon="4.82011">
        <ele>237</ele>
        <time>2017-03-29T09:50:05Z</time>
      </trkpt>
      <trkpt lat="46.07564" lon="4.81997">
        <ele>235</ele>
        <time>2017-03-29T09:50:06Z</time>
      </trkpt>
      <trkpt lat="46.07567" lon="4.81983">
        <ele>235</ele>
        <time>2017-03-29T09:50:07Z</time>
      </trkpt>
      <trkpt lat="46.07571" lon="4.8197">
        <ele>234</ele>
        <time>2017-03-29T09:50:08Z</time>
      </trkpt>
      <trkpt lat="46.07574" lon="4.81957">
        <ele>234</ele>
        <time>2017-03-29T09:50:09Z</time>
      </trkpt>
      <trkpt lat="46.07578" lon="4.81943">
        <ele>234</ele>
        <time>2017-03-29T09:50:10Z</time>
      </trkpt>
      <trkpt lat="46.07582" lon="4.8193">
        <ele>233</ele>
        <time>2017-03-29T09:50:11Z</time>
      </trkpt>
      <trkpt lat="46.07585" lon="4.81917">
        <ele>233</ele>
        <time>2017-03-29T09:50:12Z</time>
      </trkpt>
      <trkpt lat="46.07589" lon="4.81903">
        <ele>233</ele>
        <time>2017-03-29T09:50:13Z</time>
      </trkpt>
      <trkpt lat="46.07593" lon="4.8189">
        <ele>232</ele>
        <time>2017-03-29T09:50:14Z</time>
      </trkpt>
      <trkpt lat="46.07596" lon="4.81877">
        <ele>232</ele>
        <time>2017-03-29T09:50:15Z</time>
      </trkpt>
      <trkpt lat="46.076" lon="4.81863">
        <ele>232</ele>
        <time>2017-03-29T09:50:16Z</time>
      </trkpt>
      <trkpt lat="46.07603" lon="4.8185">
        <ele>231</ele>
        <time>2017-03-29T09:50:17Z</time>
      </trkpt>
      <trkpt lat="46.07607" lon="4.81837">
        <ele>231</ele>
        <time>2017-03-29T09:50:18Z</time>
      </trkpt>
      <trkpt lat="46.0761" lon="4.81825">
        <ele>230</ele>
        <time>2017-03-29T09:50:19Z</time>
      </trkpt>
      <trkpt lat="46.07614" lon="4.81812">
        <ele>230</ele>
        <time>2017-03-29T09:50:20Z</time>
      </trkpt>
      <trkpt lat="46.07617" lon="4.81799">
        <ele>230</ele>
        <time>2017-03-29T09:50:21Z</time>
      </trkpt>
      <trkpt lat="46.07621" lon="4.81787">
        <ele>230</ele>
        <time>2017-03-29T09:50:22Z</time>
      </trkpt>
      <trkpt lat="46.07624" lon="4.81775">
        <ele>230</ele>
        <time>2017-03-29T09:50:23Z</time>
      </trkpt>
      <trkpt lat="46.07627" lon="4.81763">
        <ele>230</ele>
        <time>2017-03-29T09:50:24Z</time>
      </trkpt>
      <trkpt lat="46.0763" lon="4.8175">
        <ele>230</ele>
        <time>2017-03-29T09:50:25Z</time>
      </trkpt>
      <trkpt lat="46.07633" lon="4.81738">
        <ele>229</ele>
        <time>2017-03-29T09:50:26Z</time>
      </trkpt>
      <trkpt lat="46.07636" lon="4.81727">
        <ele>229</ele>
        <time>2017-03-29T09:50:27Z</time>
      </trkpt>
      <trkpt lat="46.07639" lon="4.81715">
        <ele>229</ele>
        <time>2017-03-29T09:50:28Z</time>
      </trkpt>
      <trkpt lat="46.07642" lon="4.81703">
        <ele>229</ele>
        <time>2017-03-29T09:50:29Z</time>
      </trkpt>
      <trkpt lat="46.07646" lon="4.81692">
        <ele>229</ele>
        <time>2017-03-29T09:50:30Z</time>
      </trkpt>
      <trkpt lat="46.07649" lon="4.81681">
        <ele>229</ele>
        <time>2017-03-29T09:50:31Z</time>
      </trkpt>
      <trkpt lat="46.07653" lon="4.8167">
        <ele>229</ele>
        <time>2017-03-29T09:50:32Z</time>
      </trkpt>
      <trkpt lat="46.07656" lon="4.81659">
        <ele>229</ele>
        <time>2017-03-29T09:50:33Z</time>
      </trkpt>
      <trkpt lat="46.0766" lon="4.81649">
        <ele>229</ele>
        <time>2017-03-29T09:50:34Z</time>
      </trkpt>
      <trkpt lat="46.07664" lon="4.81639">
        <ele>229</ele>
        <time>2017-03-29T09:50:35Z</time>
      </trkpt>
      <trkpt lat="46.07668" lon="4.81629">
        <ele>231</ele>
        <time>2017-03-29T09:50:36Z</time>
      </trkpt>
      <trkpt lat="46.07671" lon="4.8162">
        <ele>231</ele>
        <time>2017-03-29T09:50:37Z</time>
      </trkpt>
      <trkpt lat="46.07675" lon="4.81611">
        <ele>231</ele>
        <time>2017-03-29T09:50:38Z</time>
      </trkpt>
      <trkpt lat="46.07678" lon="4.81602">
        <ele>231</ele>
        <time>2017-03-29T09:50:39Z</time>
      </trkpt>
      <trkpt lat="46.07681" lon="4.81594">
        <ele>231</ele>
        <time>2017-03-29T09:50:40Z</time>
      </trkpt>
      <trkpt lat="46.07685" lon="4.81586">
        <ele>231</ele>
        <time>2017-03-29T09:50:41Z</time>
      </trkpt>
      <trkpt lat="46.07688" lon="4.81578">
        <ele>232</ele>
        <time>2017-03-29T09:50:42Z</time>
      </trkpt>
      <trkpt lat="46.07691" lon="4.8157">
        <ele>233</ele>
        <time>2017-03-29T09:50:43Z</time>
      </trkpt>
      <trkpt lat="46.07693" lon="4.81563">
        <ele>233</ele>
        <time>2017-03-29T09:50:44Z</time>
      </trkpt>
      <trkpt lat="46.07696" lon="4.81555">
        <ele>233</ele>
        <time>2017-03-29T09:50:45Z</time>
      </trkpt>
      <trkpt lat="46.07699" lon="4.81547">
        <ele>233</ele>
        <time>2017-03-29T09:50:46Z</time>
      </trkpt>
      <trkpt lat="46.07702" lon="4.8154">
        <ele>233</ele>
        <time>2017-03-29T09:50:47Z</time>
      </trkpt>
      <trkpt lat="46.07706" lon="4.81531">
        <ele>234</ele>
        <time>2017-03-29T09:50:48Z</time>
      </trkpt>
      <trkpt lat="46.07709" lon="4.81523">
        <ele>234</ele>
        <time>2017-03-29T09:50:49Z</time>
      </trkpt>
      <trkpt lat="46.07713" lon="4.81515">
        <ele>234</ele>
        <time>2017-03-29T09:50:50Z</time>
      </trkpt>
      <trkpt lat="46.07716" lon="4.81507">
        <ele>234</ele>
        <time>2017-03-29T09:50:51Z</time>
      </trkpt>
      <trkpt lat="46.07719" lon="4.81499">
        <ele>233</ele>
        <time>2017-03-29T09:50:52Z</time>
      </trkpt>
      <trkpt lat="46.07722" lon="4.81491">
        <ele>233</ele>
        <time>2017-03-29T09:50:53Z</time>
      </trkpt>
      <trkpt lat="46.07724" lon="4.81483">
        <ele>233</ele>
        <time>2017-03-29T09:50:54Z</time>
      </trkpt>
      <trkpt lat="46.07728" lon="4.81475">
        <ele>233</ele>
        <time>2017-03-29T09:50:55Z</time>
      </trkpt>
      <trkpt lat="46.07731" lon="4.81468">
        <ele>233</ele>
        <time>2017-03-29T09:50:56Z</time>
      </trkpt>
      <trkpt lat="46.07733" lon="4.81461">
        <ele>232</ele>
        <time>2017-03-29T09:50:57Z</time>
      </trkpt>
      <trkpt lat="46.07736" lon="4.81454">
        <ele>232</ele>
        <time>2017-03-29T09:50:58Z</time>
      </trkpt>
      <trkpt lat="46.0774" lon="4.81447">
        <ele>232</ele>
        <time>2017-03-29T09:50:59Z</time>
      </trkpt>
      <trkpt lat="46.07744" lon="4.81439">
        <ele>231</ele>
        <time>2017-03-29T09:51:00Z</time>
      </trkpt>
      <trkpt lat="46.07747" lon="4.81432">
        <ele>231</ele>
        <time>2017-03-29T09:51:01Z</time>
      </trkpt>
      <trkpt lat="46.0775" lon="4.81424">
        <ele>231</ele>
        <time>2017-03-29T09:51:02Z</time>
      </trkpt>
      <trkpt lat="46.07752" lon="4.81415">
        <ele>230</ele>
        <time>2017-03-29T09:51:03Z</time>
      </trkpt>
      <trkpt lat="46.07755" lon="4.81407">
        <ele>230</ele>
        <time>2017-03-29T09:51:04Z</time>
      </trkpt>
      <trkpt lat="46.07758" lon="4.81399">
        <ele>229</ele>
        <time>2017-03-29T09:51:05Z</time>
      </trkpt>
      <trkpt lat="46.07758" lon="4.81389">
        <ele>229</ele>
        <time>2017-03-29T09:51:06Z</time>
      </trkpt>
      <trkpt lat="46.0776" lon="4.8138">
        <ele>229</ele>
        <time>2017-03-29T09:51:07Z</time>
      </trkpt>
      <trkpt lat="46.07762" lon="4.81371">
        <ele>229</ele>
        <time>2017-03-29T09:51:08Z</time>
      </trkpt>
      <trkpt lat="46.07763" lon="4.81361">
        <ele>228</ele>
        <time>2017-03-29T09:51:09Z</time>
      </trkpt>
      <trkpt lat="46.07765" lon="4.81352">
        <ele>228</ele>
        <time>2017-03-29T09:51:10Z</time>
      </trkpt>
      <trkpt lat="46.07767" lon="4.81343">
        <ele>228</ele>
        <time>2017-03-29T09:51:11Z</time>
      </trkpt>
      <trkpt lat="46.07769" lon="4.81335">
        <ele>228</ele>
        <time>2017-03-29T09:51:12Z</time>
      </trkpt>
      <trkpt lat="46.07771" lon="4.81327">
        <ele>227</ele>
        <time>2017-03-29T09:51:13Z</time>
      </trkpt>
      <trkpt lat="46.07772" lon="4.8132">
        <ele>227</ele>
        <time>2017-03-29T09:51:14Z</time>
      </trkpt>
      <trkpt lat="46.07774" lon="4.81312">
        <ele>227</ele>
        <time>2017-03-29T09:51:15Z</time>
      </trkpt>
      <trkpt lat="46.07775" lon="4.81304">
        <ele>227</ele>
        <time>2017-03-29T09:51:16Z</time>
      </trkpt>
      <trkpt lat="46.07777" lon="4.81296">
        <ele>227</ele>
        <time>2017-03-29T09:51:17Z</time>
      </trkpt>
      <trkpt lat="46.07779" lon="4.81289">
        <ele>227</ele>
        <time>2017-03-29T09:51:18Z</time>
      </trkpt>
      <trkpt lat="46.07781" lon="4.81281">
        <ele>227</ele>
        <time>2017-03-29T09:51:19Z</time>
      </trkpt>
      <trkpt lat="46.07783" lon="4.81273">
        <ele>227</ele>
        <time>2017-03-29T09:51:20Z</time>
      </trkpt>
      <trkpt lat="46.07785" lon="4.81266">
        <ele>228</ele>
        <time>2017-03-29T09:51:21Z</time>
      </trkpt>
      <trkpt lat="46.07787" lon="4.81258">
        <ele>228</ele>
        <time>2017-03-29T09:51:22Z</time>
      </trkpt>
      <trkpt lat="46.07789" lon="4.81251">
        <ele>228</ele>
        <time>2017-03-29T09:51:23Z</time>
      </trkpt>
      <trkpt lat="46.07791" lon="4.81243">
        <ele>227</ele>
        <time>2017-03-29T09:51:24Z</time>
      </trkpt>
      <trkpt lat="46.07794" lon="4.81235">
        <ele>227</ele>
        <time>2017-03-29T09:51:25Z</time>
      </trkpt>
      <trkpt lat="46.07797" lon="4.81227">
        <ele>227</ele>
        <time>2017-03-29T09:51:26Z</time>
      </trkpt>
      <trkpt lat="46.07799" lon="4.81219">
        <ele>227</ele>
        <time>2017-03-29T09:51:27Z</time>
      </trkpt>
      <trkpt lat="46.07803" lon="4.81211">
        <ele>227</ele>
        <time>2017-03-29T09:51:28Z</time>
      </trkpt>
      <trkpt lat="46.07806" lon="4.81202">
        <ele>227</ele>
        <time>2017-03-29T09:51:29Z</time>
      </trkpt>
      <trkpt lat="46.07809" lon="4.81194">
        <ele>227</ele>
        <time>2017-03-29T09:51:30Z</time>
      </trkpt>
      <trkpt lat="46.07812" lon="4.81186">
        <ele>227</ele>
        <time>2017-03-29T09:51:31Z</time>
      </trkpt>
      <trkpt lat="46.07814" lon="4.81177">
        <ele>227</ele>
        <time>2017-03-29T09:51:32Z</time>
      </trkpt>
      <trkpt lat="46.07817" lon="4.81169">
        <ele>227</ele>
        <time>2017-03-29T09:51:33Z</time>
      </trkpt>
      <trkpt lat="46.0782" lon="4.81162">
        <ele>226</ele>
        <time>2017-03-29T09:51:34Z</time>
      </trkpt>
      <trkpt lat="46.07822" lon="4.81154">
        <ele>226</ele>
        <time>2017-03-29T09:51:35Z</time>
      </trkpt>
      <trkpt lat="46.07825" lon="4.81146">
        <ele>226</ele>
        <time>2017-03-29T09:51:36Z</time>
      </trkpt>
      <trkpt lat="46.07827" lon="4.81138">
        <ele>226</ele>
        <time>2017-03-29T09:51:37Z</time>
      </trkpt>
      <trkpt lat="46.07829" lon="4.81131">
        <ele>225</ele>
        <time>2017-03-29T09:51:38Z</time>
      </trkpt>
      <trkpt lat="46.07831" lon="4.81124">
        <ele>225</ele>
        <time>2017-03-29T09:51:39Z</time>
      </trkpt>
      <trkpt lat="46.07834" lon="4.81117">
        <ele>227</ele>
        <time>2017-03-29T09:51:40Z</time>
      </trkpt>
      <trkpt lat="46.07836" lon="4.8111">
        <ele>227</ele>
        <time>2017-03-29T09:51:41Z</time>
      </trkpt>
      <trkpt lat="46.07839" lon="4.81103">
        <ele>227</ele>
        <time>2017-03-29T09:51:42Z</time>
      </trkpt>
      <trkpt lat="46.07841" lon="4.81095">
        <ele>227</ele>
        <time>2017-03-29T09:51:43Z</time>
      </trkpt>
      <trkpt lat="46.07844" lon="4.81088">
        <ele>227</ele>
        <time>2017-03-29T09:51:44Z</time>
      </trkpt>
      <trkpt lat="46.07847" lon="4.8108">
        <ele>226</ele>
        <time>2017-03-29T09:51:45Z</time>
      </trkpt>
      <trkpt lat="46.07849" lon="4.81073">
        <ele>226</ele>
        <time>2017-03-29T09:51:46Z</time>
      </trkpt>
      <trkpt lat="46.07852" lon="4.81065">
        <ele>226</ele>
        <time>2017-03-29T09:51:47Z</time>
      </trkpt>
      <trkpt lat="46.07854" lon="4.81057">
        <ele>226</ele>
        <time>2017-03-29T09:51:48Z</time>
      </trkpt>
      <trkpt lat="46.07856" lon="4.8105">
        <ele>226</ele>
        <time>2017-03-29T09:51:49Z</time>
      </trkpt>
      <trkpt lat="46.07859" lon="4.81042">
        <ele>226</ele>
        <time>2017-03-29T09:51:50Z</time>
      </trkpt>
      <trkpt lat="46.07861" lon="4.81033">
        <ele>226</ele>
        <time>2017-03-29T09:51:51Z</time>
      </trkpt>
      <trkpt lat="46.07864" lon="4.81026">
        <ele>226</ele>
        <time>2017-03-29T09:51:52Z</time>
      </trkpt>
      <trkpt lat="46.07866" lon="4.81018">
        <ele>226</ele>
        <time>2017-03-29T09:51:53Z</time>
      </trkpt>
      <trkpt lat="46.07868" lon="4.81009">
        <ele>226</ele>
        <time>2017-03-29T09:51:54Z</time>
      </trkpt>
      <trkpt lat="46.07871" lon="4.81002">
        <ele>226</ele>
        <time>2017-03-29T09:51:55Z</time>
      </trkpt>
      <trkpt lat="46.07873" lon="4.80994">
        <ele>225</ele>
        <time>2017-03-29T09:51:56Z</time>
      </trkpt>
      <trkpt lat="46.07876" lon="4.80986">
        <ele>225</ele>
        <time>2017-03-29T09:51:57Z</time>
      </trkpt>
      <trkpt lat="46.07878" lon="4.80979">
        <ele>225</ele>
        <time>2017-03-29T09:51:58Z</time>
      </trkpt>
      <trkpt lat="46.0788" lon="4.80971">
        <ele>225</ele>
        <time>2017-03-29T09:51:59Z</time>
      </trkpt>
      <trkpt lat="46.07882" lon="4.80963">
        <ele>225</ele>
        <time>2017-03-29T09:52:00Z</time>
      </trkpt>
      <trkpt lat="46.07884" lon="4.80956">
        <ele>225</ele>
        <time>2017-03-29T09:52:01Z</time>
      </trkpt>
      <trkpt lat="46.07887" lon="4.80948">
        <ele>225</ele>
        <time>2017-03-29T09:52:02Z</time>
      </trkpt>
      <trkpt lat="46.07888" lon="4.80941">
        <ele>225</ele>
        <time>2017-03-29T09:52:03Z</time>
      </trkpt>
      <trkpt lat="46.0789" lon="4.80933">
        <ele>225</ele>
        <time>2017-03-29T09:52:04Z</time>
      </trkpt>
      <trkpt lat="46.07892" lon="4.80926">
        <ele>225</ele>
        <time>2017-03-29T09:52:05Z</time>
      </trkpt>
      <trkpt lat="46.07893" lon="4.80918">
        <ele>225</ele>
        <time>2017-03-29T09:52:06Z</time>
      </trkpt>
      <trkpt lat="46.07894" lon="4.8091">
        <ele>223</ele>
        <time>2017-03-29T09:52:07Z</time>
      </trkpt>
      <trkpt lat="46.07895" lon="4.80902">
        <ele>223</ele>
        <time>2017-03-29T09:52:08Z</time>
      </trkpt>
      <trkpt lat="46.07896" lon="4.80894">
        <ele>223</ele>
        <time>2017-03-29T09:52:09Z</time>
      </trkpt>
      <trkpt lat="46.07898" lon="4.80885">
        <ele>223</ele>
        <time>2017-03-29T09:52:10Z</time>
      </trkpt>
      <trkpt lat="46.079" lon="4.80877">
        <ele>223</ele>
        <time>2017-03-29T09:52:11Z</time>
      </trkpt>
      <trkpt lat="46.07901" lon="4.80868">
        <ele>223</ele>
        <time>2017-03-29T09:52:12Z</time>
      </trkpt>
      <trkpt lat="46.07903" lon="4.80859">
        <ele>222</ele>
        <time>2017-03-29T09:52:13Z</time>
      </trkpt>
      <trkpt lat="46.07904" lon="4.80849">
        <ele>222</ele>
        <time>2017-03-29T09:52:14Z</time>
      </trkpt>
      <trkpt lat="46.07907" lon="4.8084">
        <ele>222</ele>
        <time>2017-03-29T09:52:15Z</time>
      </trkpt>
      <trkpt lat="46.07908" lon="4.80831">
        <ele>222</ele>
        <time>2017-03-29T09:52:16Z</time>
      </trkpt>
      <trkpt lat="46.0791" lon="4.80823">
        <ele>221</ele>
        <time>2017-03-29T09:52:17Z</time>
      </trkpt>
      <trkpt lat="46.07912" lon="4.80814">
        <ele>221</ele>
        <time>2017-03-29T09:52:18Z</time>
      </trkpt>
      <trkpt lat="46.07913" lon="4.80805">
        <ele>221</ele>
        <time>2017-03-29T09:52:19Z</time>
      </trkpt>
      <trkpt lat="46.07914" lon="4.80796">
        <ele>221</ele>
        <time>2017-03-29T09:52:20Z</time>
      </trkpt>
      <trkpt lat="46.07916" lon="4.80788">
        <ele>221</ele>
        <time>2017-03-29T09:52:21Z</time>
      </trkpt>
      <trkpt lat="46.07917" lon="4.8078">
        <ele>223</ele>
        <time>2017-03-29T09:52:22Z</time>
      </trkpt>
      <trkpt lat="46.07918" lon="4.80772">
        <ele>223</ele>
        <time>2017-03-29T09:52:23Z</time>
      </trkpt>
      <trkpt lat="46.0792" lon="4.80765">
        <ele>223</ele>
        <time>2017-03-29T09:52:24Z</time>
      </trkpt>
      <trkpt lat="46.07921" lon="4.80758">
        <ele>222</ele>
        <time>2017-03-29T09:52:25Z</time>
      </trkpt>
      <trkpt lat="46.07922" lon="4.80751">
        <ele>222</ele>
        <time>2017-03-29T09:52:26Z</time>
      </trkpt>
      <trkpt lat="46.07923" lon="4.80744">
        <ele>222</ele>
        <time>2017-03-29T09:52:27Z</time>
      </trkpt>
      <trkpt lat="46.07925" lon="4.80736">
        <ele>222</ele>
        <time>2017-03-29T09:52:28Z</time>
      </trkpt>
      <trkpt lat="46.07926" lon="4.80729">
        <ele>223</ele>
        <time>2017-03-29T09:52:29Z</time>
      </trkpt>
      <trkpt lat="46.07926" lon="4.80722">
        <ele>223</ele>
        <time>2017-03-29T09:52:30Z</time>
      </trkpt>
      <trkpt lat="46.07927" lon="4.80714">
        <ele>223</ele>
        <time>2017-03-29T09:52:31Z</time>
      </trkpt>
      <trkpt lat="46.07927" lon="4.80706">
        <ele>222</ele>
        <time>2017-03-29T09:52:32Z</time>
      </trkpt>
      <trkpt lat="46.07928" lon="4.80699">
        <ele>222</ele>
        <time>2017-03-29T09:52:33Z</time>
      </trkpt>
      <trkpt lat="46.07929" lon="4.80691">
        <ele>222</ele>
        <time>2017-03-29T09:52:34Z</time>
      </trkpt>
      <trkpt lat="46.0793" lon="4.80684">
        <ele>222</ele>
        <time>2017-03-29T09:52:35Z</time>
      </trkpt>
      <trkpt lat="46.07932" lon="4.80676">
        <ele>222</ele>
        <time>2017-03-29T09:52:36Z</time>
      </trkpt>
      <trkpt lat="46.07933" lon="4.80668">
        <ele>222</ele>
        <time>2017-03-29T09:52:37Z</time>
      </trkpt>
      <trkpt lat="46.07936" lon="4.80661">
        <ele>222</ele>
        <time>2017-03-29T09:52:38Z</time>
      </trkpt>
      <trkpt lat="46.07937" lon="4.80653">
        <ele>222</ele>
        <time>2017-03-29T09:52:39Z</time>
      </trkpt>
      <trkpt lat="46.07938" lon="4.80646">
        <ele>222</ele>
        <time>2017-03-29T09:52:40Z</time>
      </trkpt>
      <trkpt lat="46.07939" lon="4.80639">
        <ele>222</ele>
        <time>2017-03-29T09:52:41Z</time>
      </trkpt>
      <trkpt lat="46.07941" lon="4.80627">
        <ele>222</ele>
        <time>2017-03-29T09:52:43Z</time>
      </trkpt>
      <trkpt lat="46.07942" lon="4.80621">
        <ele>222</ele>
        <time>2017-03-29T09:52:44Z</time>
      </trkpt>
      <trkpt lat="46.07943" lon="4.80614">
        <ele>222</ele>
        <time>2017-03-29T09:52:45Z</time>
      </trkpt>
      <trkpt lat="46.07944" lon="4.80607">
        <ele>222</ele>
        <time>2017-03-29T09:52:46Z</time>
      </trkpt>
      <trkpt lat="46.07945" lon="4.806">
        <ele>222</ele>
        <time>2017-03-29T09:52:47Z</time>
      </trkpt>
      <trkpt lat="46.07947" lon="4.80593">
        <ele>222</ele>
        <time>2017-03-29T09:52:48Z</time>
      </trkpt>
      <trkpt lat="46.07948" lon="4.80587">
        <ele>222</ele>
        <time>2017-03-29T09:52:49Z</time>
      </trkpt>
      <trkpt lat="46.07948" lon="4.80579">
        <ele>222</ele>
        <time>2017-03-29T09:52:50Z</time>
      </trkpt>
      <trkpt lat="46.07949" lon="4.80572">
        <ele>222</ele>
        <time>2017-03-29T09:52:51Z</time>
      </trkpt>
      <trkpt lat="46.07951" lon="4.80564">
        <ele>222</ele>
        <time>2017-03-29T09:52:52Z</time>
      </trkpt>
      <trkpt lat="46.07951" lon="4.80556">
        <ele>222</ele>
        <time>2017-03-29T09:52:53Z</time>
      </trkpt>
      <trkpt lat="46.07952" lon="4.80548">
        <ele>222</ele>
        <time>2017-03-29T09:52:54Z</time>
      </trkpt>
      <trkpt lat="46.07954" lon="4.8054">
        <ele>222</ele>
        <time>2017-03-29T09:52:55Z</time>
      </trkpt>
      <trkpt lat="46.07955" lon="4.80533">
        <ele>222</ele>
        <time>2017-03-29T09:52:56Z</time>
      </trkpt>
      <trkpt lat="46.07956" lon="4.80526">
        <ele>222</ele>
        <time>2017-03-29T09:52:57Z</time>
      </trkpt>
      <trkpt lat="46.07958" lon="4.80518">
        <ele>222</ele>
        <time>2017-03-29T09:52:58Z</time>
      </trkpt>
      <trkpt lat="46.07959" lon="4.80511">
        <ele>223</ele>
        <time>2017-03-29T09:52:59Z</time>
      </trkpt>
      <trkpt lat="46.0796" lon="4.80504">
        <ele>223</ele>
        <time>2017-03-29T09:53:00Z</time>
      </trkpt>
      <trkpt lat="46.07961" lon="4.80496">
        <ele>223</ele>
        <time>2017-03-29T09:53:01Z</time>
      </trkpt>
      <trkpt lat="46.07961" lon="4.80489">
        <ele>223</ele>
        <time>2017-03-29T09:53:02Z</time>
      </trkpt>
      <trkpt lat="46.07962" lon="4.80481">
        <ele>223</ele>
        <time>2017-03-29T09:53:03Z</time>
      </trkpt>
      <trkpt lat="46.07963" lon="4.80474">
        <ele>223</ele>
        <time>2017-03-29T09:53:04Z</time>
      </trkpt>
      <trkpt lat="46.07964" lon="4.80467">
        <ele>224</ele>
        <time>2017-03-29T09:53:05Z</time>
      </trkpt>
      <trkpt lat="46.07965" lon="4.80459">
        <ele>224</ele>
        <time>2017-03-29T09:53:06Z</time>
      </trkpt>
      <trkpt lat="46.07966" lon="4.80451">
        <ele>224</ele>
        <time>2017-03-29T09:53:07Z</time>
      </trkpt>
      <trkpt lat="46.07967" lon="4.80444">
        <ele>224</ele>
        <time>2017-03-29T09:53:08Z</time>
      </trkpt>
      <trkpt lat="46.07968" lon="4.80436">
        <ele>224</ele>
        <time>2017-03-29T09:53:09Z</time>
      </trkpt>
      <trkpt lat="46.0797" lon="4.80429">
        <ele>224</ele>
        <time>2017-03-29T09:53:10Z</time>
      </trkpt>
      <trkpt lat="46.07971" lon="4.80417">
        <ele>225</ele>
        <time>2017-03-29T09:53:12Z</time>
      </trkpt>
      <trkpt lat="46.07972" lon="4.8041">
        <ele>225</ele>
        <time>2017-03-29T09:53:13Z</time>
      </trkpt>
      <trkpt lat="46.07973" lon="4.80404">
        <ele>225</ele>
        <time>2017-03-29T09:53:14Z</time>
      </trkpt>
      <trkpt lat="46.07974" lon="4.80397">
        <ele>225</ele>
        <time>2017-03-29T09:53:15Z</time>
      </trkpt>
      <trkpt lat="46.07975" lon="4.8039">
        <ele>225</ele>
        <time>2017-03-29T09:53:16Z</time>
      </trkpt>
      <trkpt lat="46.07976" lon="4.80383">
        <ele>225</ele>
        <time>2017-03-29T09:53:17Z</time>
      </trkpt>
      <trkpt lat="46.07977" lon="4.80376">
        <ele>225</ele>
        <time>2017-03-29T09:53:18Z</time>
      </trkpt>
      <trkpt lat="46.07978" lon="4.80369">
        <ele>225</ele>
        <time>2017-03-29T09:53:19Z</time>
      </trkpt>
      <trkpt lat="46.0798" lon="4.80362">
        <ele>225</ele>
        <time>2017-03-29T09:53:20Z</time>
      </trkpt>
      <trkpt lat="46.0798" lon="4.80356">
        <ele>225</ele>
        <time>2017-03-29T09:53:21Z</time>
      </trkpt>
      <trkpt lat="46.07981" lon="4.80349">
        <ele>225</ele>
        <time>2017-03-29T09:53:22Z</time>
      </trkpt>
      <trkpt lat="46.07982" lon="4.80342">
        <ele>225</ele>
        <time>2017-03-29T09:53:23Z</time>
      </trkpt>
      <trkpt lat="46.07982" lon="4.80336">
        <ele>225</ele>
        <time>2017-03-29T09:53:24Z</time>
      </trkpt>
      <trkpt lat="46.07983" lon="4.80329">
        <ele>225</ele>
        <time>2017-03-29T09:53:25Z</time>
      </trkpt>
      <trkpt lat="46.07984" lon="4.80323">
        <ele>225</ele>
        <time>2017-03-29T09:53:26Z</time>
      </trkpt>
      <trkpt lat="46.07985" lon="4.80317">
        <ele>225</ele>
        <time>2017-03-29T09:53:27Z</time>
      </trkpt>
      <trkpt lat="46.07986" lon="4.8031">
        <ele>225</ele>
        <time>2017-03-29T09:53:28Z</time>
      </trkpt>
      <trkpt lat="46.07986" lon="4.80304">
        <ele>225</ele>
        <time>2017-03-29T09:53:29Z</time>
      </trkpt>
      <trkpt lat="46.07987" lon="4.80297">
        <ele>225</ele>
        <time>2017-03-29T09:53:30Z</time>
      </trkpt>
      <trkpt lat="46.07988" lon="4.80291">
        <ele>225</ele>
        <time>2017-03-29T09:53:31Z</time>
      </trkpt>
      <trkpt lat="46.07988" lon="4.80284">
        <ele>225</ele>
        <time>2017-03-29T09:53:32Z</time>
      </trkpt>
      <trkpt lat="46.07989" lon="4.80277">
        <ele>225</ele>
        <time>2017-03-29T09:53:33Z</time>
      </trkpt>
      <trkpt lat="46.07991" lon="4.80265">
        <ele>225</ele>
        <time>2017-03-29T09:53:35Z</time>
      </trkpt>
      <trkpt lat="46.07992" lon="4.80259">
        <ele>225</ele>
        <time>2017-03-29T09:53:36Z</time>
      </trkpt>
      <trkpt lat="46.07994" lon="4.80246">
        <ele>225</ele>
        <time>2017-03-29T09:53:38Z</time>
      </trkpt>
      <trkpt lat="46.07995" lon="4.8024">
        <ele>225</ele>
        <time>2017-03-29T09:53:39Z</time>
      </trkpt>
      <trkpt lat="46.07996" lon="4.80234">
        <ele>225</ele>
        <time>2017-03-29T09:53:40Z</time>
      </trkpt>
      <trkpt lat="46.07997" lon="4.80227">
        <ele>225</ele>
        <time>2017-03-29T09:53:41Z</time>
      </trkpt>
      <trkpt lat="46.07997" lon="4.80221">
        <ele>225</ele>
        <time>2017-03-29T09:53:42Z</time>
      </trkpt>
      <trkpt lat="46.07999" lon="4.80214">
        <ele>224</ele>
        <time>2017-03-29T09:53:43Z</time>
      </trkpt>
      <trkpt lat="46.08" lon="4.80201">
        <ele>224</ele>
        <time>2017-03-29T09:53:45Z</time>
      </trkpt>
      <trkpt lat="46.08001" lon="4.80195">
        <ele>227</ele>
        <time>2017-03-29T09:53:46Z</time>
      </trkpt>
      <trkpt lat="46.08001" lon="4.80188">
        <ele>226</ele>
        <time>2017-03-29T09:53:47Z</time>
      </trkpt>
      <trkpt lat="46.08002" lon="4.80182">
        <ele>226</ele>
        <time>2017-03-29T09:53:48Z</time>
      </trkpt>
      <trkpt lat="46.08002" lon="4.80175">
        <ele>226</ele>
        <time>2017-03-29T09:53:49Z</time>
      </trkpt>
      <trkpt lat="46.08003" lon="4.80168">
        <ele>225</ele>
        <time>2017-03-29T09:53:50Z</time>
      </trkpt>
      <trkpt lat="46.08003" lon="4.80161">
        <ele>226</ele>
        <time>2017-03-29T09:53:51Z</time>
      </trkpt>
      <trkpt lat="46.08003" lon="4.80154">
        <ele>226</ele>
        <time>2017-03-29T09:53:52Z</time>
      </trkpt>
      <trkpt lat="46.08003" lon="4.80148">
        <ele>227</ele>
        <time>2017-03-29T09:53:53Z</time>
      </trkpt>
      <trkpt lat="46.08003" lon="4.80141">
        <ele>227</ele>
        <time>2017-03-29T09:53:54Z</time>
      </trkpt>
      <trkpt lat="46.08004" lon="4.80134">
        <ele>227</ele>
        <time>2017-03-29T09:53:55Z</time>
      </trkpt>
      <trkpt lat="46.08004" lon="4.80128">
        <ele>227</ele>
        <time>2017-03-29T09:53:56Z</time>
      </trkpt>
      <trkpt lat="46.08004" lon="4.80121">
        <ele>227</ele>
        <time>2017-03-29T09:53:57Z</time>
      </trkpt>
      <trkpt lat="46.08004" lon="4.80114">
        <ele>227</ele>
        <time>2017-03-29T09:53:58Z</time>
      </trkpt>
      <trkpt lat="46.08004" lon="4.80107">
        <ele>227</ele>
        <time>2017-03-29T09:53:59Z</time>
      </trkpt>
      <trkpt lat="46.08004" lon="4.801">
        <ele>227</ele>
        <time>2017-03-29T09:54:00Z</time>
      </trkpt>
      <trkpt lat="46.08004" lon="4.80093">
        <ele>227</ele>
        <time>2017-03-29T09:54:01Z</time>
      </trkpt>
      <trkpt lat="46.08003" lon="4.80086">
        <ele>226</ele>
        <time>2017-03-29T09:54:02Z</time>
      </trkpt>
      <trkpt lat="46.08003" lon="4.80079">
        <ele>226</ele>
        <time>2017-03-29T09:54:03Z</time>
      </trkpt>
      <trkpt lat="46.08004" lon="4.80072">
        <ele>227</ele>
        <time>2017-03-29T09:54:04Z</time>
      </trkpt>
      <trkpt lat="46.08004" lon="4.80065">
        <ele>227</ele>
        <time>2017-03-29T09:54:05Z</time>
      </trkpt>
      <trkpt lat="46.08004" lon="4.80058">
        <ele>227</ele>
        <time>2017-03-29T09:54:06Z</time>
      </trkpt>
      <trkpt lat="46.08005" lon="4.80051">
        <ele>227</ele>
        <time>2017-03-29T09:54:07Z</time>
      </trkpt>
      <trkpt lat="46.08005" lon="4.80044">
        <ele>227</ele>
        <time>2017-03-29T09:54:08Z</time>
      </trkpt>
      <trkpt lat="46.08004" lon="4.80037">
        <ele>227</ele>
        <time>2017-03-29T09:54:09Z</time>
      </trkpt>
      <trkpt lat="46.08005" lon="4.80029">
        <ele>227</ele>
        <time>2017-03-29T09:54:10Z</time>
      </trkpt>
      <trkpt lat="46.08005" lon="4.80021">
        <ele>227</ele>
        <time>2017-03-29T09:54:11Z</time>
      </trkpt>
      <trkpt lat="46.08005" lon="4.80014">
        <ele>227</ele>
        <time>2017-03-29T09:54:12Z</time>
      </trkpt>
      <trkpt lat="46.08005" lon="4.80007">
        <ele>227</ele>
        <time>2017-03-29T09:54:13Z</time>
      </trkpt>
      <trkpt lat="46.08005" lon="4.8">
        <ele>226</ele>
        <time>2017-03-29T09:54:14Z</time>
      </trkpt>
      <trkpt lat="46.08006" lon="4.79993">
        <ele>227</ele>
        <time>2017-03-29T09:54:15Z</time>
      </trkpt>
      <trkpt lat="46.08006" lon="4.79987">
        <ele>227</ele>
        <time>2017-03-29T09:54:16Z</time>
      </trkpt>
      <trkpt lat="46.08007" lon="4.79974">
        <ele>227</ele>
        <time>2017-03-29T09:54:18Z</time>
      </trkpt>
      <trkpt lat="46.08007" lon="4.79967">
        <ele>227</ele>
        <time>2017-03-29T09:54:19Z</time>
      </trkpt>
      <trkpt lat="46.08007" lon="4.7996">
        <ele>227</ele>
        <time>2017-03-29T09:54:20Z</time>
      </trkpt>
      <trkpt lat="46.08007" lon="4.79953">
        <ele>227</ele>
        <time>2017-03-29T09:54:21Z</time>
      </trkpt>
      <trkpt lat="46.08007" lon="4.79946">
        <ele>227</ele>
        <time>2017-03-29T09:54:22Z</time>
      </trkpt>
      <trkpt lat="46.08007" lon="4.79939">
        <ele>227</ele>
        <time>2017-03-29T09:54:23Z</time>
      </trkpt>
      <trkpt lat="46.08007" lon="4.79932">
        <ele>227</ele>
        <time>2017-03-29T09:54:24Z</time>
      </trkpt>
      <trkpt lat="46.08007" lon="4.79925">
        <ele>227</ele>
        <time>2017-03-29T09:54:25Z</time>
      </trkpt>
      <trkpt lat="46.08007" lon="4.79919">
        <ele>226</ele>
        <time>2017-03-29T09:54:26Z</time>
      </trkpt>
      <trkpt lat="46.08008" lon="4.79912">
        <ele>226</ele>
        <time>2017-03-29T09:54:27Z</time>
      </trkpt>
      <trkpt lat="46.08008" lon="4.79906">
        <ele>227</ele>
        <time>2017-03-29T09:54:28Z</time>
      </trkpt>
      <trkpt lat="46.08008" lon="4.79899">
        <ele>227</ele>
        <time>2017-03-29T09:54:29Z</time>
      </trkpt>
      <trkpt lat="46.08008" lon="4.79892">
        <ele>227</ele>
        <time>2017-03-29T09:54:30Z</time>
      </trkpt>
      <trkpt lat="46.08008" lon="4.79886">
        <ele>227</ele>
        <time>2017-03-29T09:54:31Z</time>
      </trkpt>
      <trkpt lat="46.08008" lon="4.79879">
        <ele>227</ele>
        <time>2017-03-29T09:54:32Z</time>
      </trkpt>
      <trkpt lat="46.08008" lon="4.79871">
        <ele>227</ele>
        <time>2017-03-29T09:54:33Z</time>
      </trkpt>
      <trkpt lat="46.08008" lon="4.79864">
        <ele>227</ele>
        <time>2017-03-29T09:54:34Z</time>
      </trkpt>
      <trkpt lat="46.08008" lon="4.79856">
        <ele>227</ele>
        <time>2017-03-29T09:54:35Z</time>
      </trkpt>
      <trkpt lat="46.08008" lon="4.79849">
        <ele>226</ele>
        <time>2017-03-29T09:54:36Z</time>
      </trkpt>
      <trkpt lat="46.08008" lon="4.79841">
        <ele>226</ele>
        <time>2017-03-29T09:54:37Z</time>
      </trkpt>
      <trkpt lat="46.08009" lon="4.79834">
        <ele>226</ele>
        <time>2017-03-29T09:54:38Z</time>
      </trkpt>
      <trkpt lat="46.08009" lon="4.79826">
        <ele>226</ele>
        <time>2017-03-29T09:54:39Z</time>
      </trkpt>
      <trkpt lat="46.08009" lon="4.79818">
        <ele>226</ele>
        <time>2017-03-29T09:54:40Z</time>
      </trkpt>
      <trkpt lat="46.08009" lon="4.7981">
        <ele>227</ele>
        <time>2017-03-29T09:54:41Z</time>
      </trkpt>
      <trkpt lat="46.0801" lon="4.79802">
        <ele>227</ele>
        <time>2017-03-29T09:54:42Z</time>
      </trkpt>
      <trkpt lat="46.08011" lon="4.79794">
        <ele>227</ele>
        <time>2017-03-29T09:54:43Z</time>
      </trkpt>
      <trkpt lat="46.08011" lon="4.79786">
        <ele>227</ele>
        <time>2017-03-29T09:54:44Z</time>
      </trkpt>
      <trkpt lat="46.08011" lon="4.79778">
        <ele>227</ele>
        <time>2017-03-29T09:54:45Z</time>
      </trkpt>
      <trkpt lat="46.08011" lon="4.79771">
        <ele>227</ele>
        <time>2017-03-29T09:54:46Z</time>
      </trkpt>
      <trkpt lat="46.08011" lon="4.79763">
        <ele>227</ele>
        <time>2017-03-29T09:54:47Z</time>
      </trkpt>
      <trkpt lat="46.08011" lon="4.79755">
        <ele>227</ele>
        <time>2017-03-29T09:54:48Z</time>
      </trkpt>
      <trkpt lat="46.08011" lon="4.79747">
        <ele>227</ele>
        <time>2017-03-29T09:54:49Z</time>
      </trkpt>
      <trkpt lat="46.08011" lon="4.7974">
        <ele>227</ele>
        <time>2017-03-29T09:54:50Z</time>
      </trkpt>
      <trkpt lat="46.08011" lon="4.79732">
        <ele>227</ele>
        <time>2017-03-29T09:54:51Z</time>
      </trkpt>
      <trkpt lat="46.08011" lon="4.79725">
        <ele>227</ele>
        <time>2017-03-29T09:54:52Z</time>
      </trkpt>
      <trkpt lat="46.08011" lon="4.79718">
        <ele>227</ele>
        <time>2017-03-29T09:54:53Z</time>
      </trkpt>
      <trkpt lat="46.08011" lon="4.79712">
        <ele>227</ele>
        <time>2017-03-29T09:54:54Z</time>
      </trkpt>
      <trkpt lat="46.08011" lon="4.79705">
        <ele>227</ele>
        <time>2017-03-29T09:54:55Z</time>
      </trkpt>
      <trkpt lat="46.08011" lon="4.79698">
        <ele>227</ele>
        <time>2017-03-29T09:54:56Z</time>
      </trkpt>
      <trkpt lat="46.08011" lon="4.79692">
        <ele>227</ele>
        <time>2017-03-29T09:54:57Z</time>
      </trkpt>
      <trkpt lat="46.0801" lon="4.79679">
        <ele>227</ele>
        <time>2017-03-29T09:54:59Z</time>
      </trkpt>
      <trkpt lat="46.0801" lon="4.79673">
        <ele>227</ele>
        <time>2017-03-29T09:55:00Z</time>
      </trkpt>
      <trkpt lat="46.08009" lon="4.79666">
        <ele>226</ele>
        <time>2017-03-29T09:55:01Z</time>
      </trkpt>
      <trkpt lat="46.08009" lon="4.7966">
        <ele>227</ele>
        <time>2017-03-29T09:55:02Z</time>
      </trkpt>
      <trkpt lat="46.08009" lon="4.79653">
        <ele>227</ele>
        <time>2017-03-29T09:55:03Z</time>
      </trkpt>
      <trkpt lat="46.08009" lon="4.79646">
        <ele>227</ele>
        <time>2017-03-29T09:55:04Z</time>
      </trkpt>
      <trkpt lat="46.08009" lon="4.79639">
        <ele>227</ele>
        <time>2017-03-29T09:55:05Z</time>
      </trkpt>
      <trkpt lat="46.0801" lon="4.79632">
        <ele>227</ele>
        <time>2017-03-29T09:55:06Z</time>
      </trkpt>
      <trkpt lat="46.0801" lon="4.79624">
        <ele>227</ele>
        <time>2017-03-29T09:55:07Z</time>
      </trkpt>
      <trkpt lat="46.0801" lon="4.79616">
        <ele>227</ele>
        <time>2017-03-29T09:55:08Z</time>
      </trkpt>
      <trkpt lat="46.08011" lon="4.79609">
        <ele>227</ele>
        <time>2017-03-29T09:55:09Z</time>
      </trkpt>
      <trkpt lat="46.0801" lon="4.79602">
        <ele>226</ele>
        <time>2017-03-29T09:55:10Z</time>
      </trkpt>
      <trkpt lat="46.0801" lon="4.79594">
        <ele>226</ele>
        <time>2017-03-29T09:55:11Z</time>
      </trkpt>
      <trkpt lat="46.0801" lon="4.79586">
        <ele>226</ele>
        <time>2017-03-29T09:55:12Z</time>
      </trkpt>
      <trkpt lat="46.0801" lon="4.79578">
        <ele>226</ele>
        <time>2017-03-29T09:55:13Z</time>
      </trkpt>
      <trkpt lat="46.08009" lon="4.7957">
        <ele>226</ele>
        <time>2017-03-29T09:55:14Z</time>
      </trkpt>
      <trkpt lat="46.08007" lon="4.79562">
        <ele>226</ele>
        <time>2017-03-29T09:55:15Z</time>
      </trkpt>
      <trkpt lat="46.08007" lon="4.79554">
        <ele>227</ele>
        <time>2017-03-29T09:55:16Z</time>
      </trkpt>
      <trkpt lat="46.08008" lon="4.79546">
        <ele>227</ele>
        <time>2017-03-29T09:55:17Z</time>
      </trkpt>
      <trkpt lat="46.08009" lon="4.79538">
        <ele>227</ele>
        <time>2017-03-29T09:55:18Z</time>
      </trkpt>
      <trkpt lat="46.08008" lon="4.79529">
        <ele>227</ele>
        <time>2017-03-29T09:55:19Z</time>
      </trkpt>
      <trkpt lat="46.08008" lon="4.79521">
        <ele>226</ele>
        <time>2017-03-29T09:55:20Z</time>
      </trkpt>
      <trkpt lat="46.08009" lon="4.79513">
        <ele>226</ele>
        <time>2017-03-29T09:55:21Z</time>
      </trkpt>
      <trkpt lat="46.08009" lon="4.79506">
        <ele>226</ele>
        <time>2017-03-29T09:55:22Z</time>
      </trkpt>
      <trkpt lat="46.08009" lon="4.79498">
        <ele>226</ele>
        <time>2017-03-29T09:55:23Z</time>
      </trkpt>
      <trkpt lat="46.08009" lon="4.7949">
        <ele>226</ele>
        <time>2017-03-29T09:55:24Z</time>
      </trkpt>
      <trkpt lat="46.08009" lon="4.79483">
        <ele>227</ele>
        <time>2017-03-29T09:55:25Z</time>
      </trkpt>
      <trkpt lat="46.08008" lon="4.79474">
        <ele>227</ele>
        <time>2017-03-29T09:55:26Z</time>
      </trkpt>
      <trkpt lat="46.08008" lon="4.79466">
        <ele>227</ele>
        <time>2017-03-29T09:55:27Z</time>
      </trkpt>
      <trkpt lat="46.08008" lon="4.79458">
        <ele>227</ele>
        <time>2017-03-29T09:55:28Z</time>
      </trkpt>
      <trkpt lat="46.08008" lon="4.79449">
        <ele>227</ele>
        <time>2017-03-29T09:55:29Z</time>
      </trkpt>
      <trkpt lat="46.08008" lon="4.7944">
        <ele>227</ele>
        <time>2017-03-29T09:55:30Z</time>
      </trkpt>
      <trkpt lat="46.08008" lon="4.7943">
        <ele>227</ele>
        <time>2017-03-29T09:55:31Z</time>
      </trkpt>
      <trkpt lat="46.08008" lon="4.79421">
        <ele>227</ele>
        <time>2017-03-29T09:55:32Z</time>
      </trkpt>
      <trkpt lat="46.08008" lon="4.79411">
        <ele>227</ele>
        <time>2017-03-29T09:55:33Z</time>
      </trkpt>
      <trkpt lat="46.08009" lon="4.79402">
        <ele>227</ele>
        <time>2017-03-29T09:55:34Z</time>
      </trkpt>
      <trkpt lat="46.08009" lon="4.79392">
        <ele>227</ele>
        <time>2017-03-29T09:55:35Z</time>
      </trkpt>
      <trkpt lat="46.08009" lon="4.79382">
        <ele>227</ele>
        <time>2017-03-29T09:55:36Z</time>
      </trkpt>
      <trkpt lat="46.08009" lon="4.79373">
        <ele>227</ele>
        <time>2017-03-29T09:55:37Z</time>
      </trkpt>
      <trkpt lat="46.08009" lon="4.79363">
        <ele>227</ele>
        <time>2017-03-29T09:55:38Z</time>
      </trkpt>
      <trkpt lat="46.08009" lon="4.79353">
        <ele>227</ele>
        <time>2017-03-29T09:55:39Z</time>
      </trkpt>
      <trkpt lat="46.08009" lon="4.79343">
        <ele>227</ele>
        <time>2017-03-29T09:55:40Z</time>
      </trkpt>
      <trkpt lat="46.08008" lon="4.79334">
        <ele>227</ele>
        <time>2017-03-29T09:55:41Z</time>
      </trkpt>
      <trkpt lat="46.08007" lon="4.79324">
        <ele>227</ele>
        <time>2017-03-29T09:55:42Z</time>
      </trkpt>
      <trkpt lat="46.08006" lon="4.79315">
        <ele>227</ele>
        <time>2017-03-29T09:55:43Z</time>
      </trkpt>
      <trkpt lat="46.08006" lon="4.79306">
        <ele>227</ele>
        <time>2017-03-29T09:55:44Z</time>
      </trkpt>
      <trkpt lat="46.08005" lon="4.79297">
        <ele>227</ele>
        <time>2017-03-29T09:55:45Z</time>
      </trkpt>
      <trkpt lat="46.08004" lon="4.79289">
        <ele>227</ele>
        <time>2017-03-29T09:55:46Z</time>
      </trkpt>
      <trkpt lat="46.08003" lon="4.7928">
        <ele>226</ele>
        <time>2017-03-29T09:55:47Z</time>
      </trkpt>
      <trkpt lat="46.08003" lon="4.79272">
        <ele>226</ele>
        <time>2017-03-29T09:55:48Z</time>
      </trkpt>
      <trkpt lat="46.08002" lon="4.79264">
        <ele>226</ele>
        <time>2017-03-29T09:55:49Z</time>
      </trkpt>
      <trkpt lat="46.08001" lon="4.79257">
        <ele>225</ele>
        <time>2017-03-29T09:55:50Z</time>
      </trkpt>
      <trkpt lat="46.08001" lon="4.79249">
        <ele>225</ele>
        <time>2017-03-29T09:55:51Z</time>
      </trkpt>
      <trkpt lat="46.08001" lon="4.79242">
        <ele>225</ele>
        <time>2017-03-29T09:55:52Z</time>
      </trkpt>
      <trkpt lat="46.08" lon="4.79235">
        <ele>226</ele>
        <time>2017-03-29T09:55:53Z</time>
      </trkpt>
      <trkpt lat="46.08" lon="4.79229">
        <ele>226</ele>
        <time>2017-03-29T09:55:54Z</time>
      </trkpt>
      <trkpt lat="46.08001" lon="4.79221">
        <ele>226</ele>
        <time>2017-03-29T09:55:55Z</time>
      </trkpt>
      <trkpt lat="46.08001" lon="4.79214">
        <ele>226</ele>
        <time>2017-03-29T09:55:56Z</time>
      </trkpt>
      <trkpt lat="46.08002" lon="4.79207">
        <ele>226</ele>
        <time>2017-03-29T09:55:57Z</time>
      </trkpt>
      <trkpt lat="46.08003" lon="4.792">
        <ele>226</ele>
        <time>2017-03-29T09:55:58Z</time>
      </trkpt>
      <trkpt lat="46.08004" lon="4.79192">
        <ele>226</ele>
        <time>2017-03-29T09:55:59Z</time>
      </trkpt>
      <trkpt lat="46.08005" lon="4.79184">
        <ele>226</ele>
        <time>2017-03-29T09:56:00Z</time>
      </trkpt>
      <trkpt lat="46.08005" lon="4.79176">
        <ele>226</ele>
        <time>2017-03-29T09:56:01Z</time>
      </trkpt>
      <trkpt lat="46.08006" lon="4.79169">
        <ele>225</ele>
        <time>2017-03-29T09:56:02Z</time>
      </trkpt>
      <trkpt lat="46.08006" lon="4.79161">
        <ele>225</ele>
        <time>2017-03-29T09:56:03Z</time>
      </trkpt>
      <trkpt lat="46.08006" lon="4.79153">
        <ele>226</ele>
        <time>2017-03-29T09:56:04Z</time>
      </trkpt>
      <trkpt lat="46.08006" lon="4.79146">
        <ele>226</ele>
        <time>2017-03-29T09:56:05Z</time>
      </trkpt>
      <trkpt lat="46.08006" lon="4.79138">
        <ele>226</ele>
        <time>2017-03-29T09:56:06Z</time>
      </trkpt>
      <trkpt lat="46.08007" lon="4.7913">
        <ele>226</ele>
        <time>2017-03-29T09:56:07Z</time>
      </trkpt>
      <trkpt lat="46.08007" lon="4.79123">
        <ele>226</ele>
        <time>2017-03-29T09:56:08Z</time>
      </trkpt>
      <trkpt lat="46.08007" lon="4.79115">
        <ele>226</ele>
        <time>2017-03-29T09:56:09Z</time>
      </trkpt>
      <trkpt lat="46.08006" lon="4.79107">
        <ele>225</ele>
        <time>2017-03-29T09:56:10Z</time>
      </trkpt>
      <trkpt lat="46.08006" lon="4.79099">
        <ele>225</ele>
        <time>2017-03-29T09:56:11Z</time>
      </trkpt>
      <trkpt lat="46.08005" lon="4.79091">
        <ele>225</ele>
        <time>2017-03-29T09:56:12Z</time>
      </trkpt>
      <trkpt lat="46.08004" lon="4.79083">
        <ele>224</ele>
        <time>2017-03-29T09:56:13Z</time>
      </trkpt>
      <trkpt lat="46.08002" lon="4.79075">
        <ele>225</ele>
        <time>2017-03-29T09:56:14Z</time>
      </trkpt>
      <trkpt lat="46.07997" lon="4.79066">
        <ele>223</ele>
        <time>2017-03-29T09:56:15Z</time>
      </trkpt>
      <trkpt lat="46.07995" lon="4.79058">
        <ele>223</ele>
        <time>2017-03-29T09:56:16Z</time>
      </trkpt>
      <trkpt lat="46.07994" lon="4.7905">
        <ele>222</ele>
        <time>2017-03-29T09:56:17Z</time>
      </trkpt>
      <trkpt lat="46.07993" lon="4.79041">
        <ele>222</ele>
        <time>2017-03-29T09:56:18Z</time>
      </trkpt>
      <trkpt lat="46.07993" lon="4.79033">
        <ele>222</ele>
        <time>2017-03-29T09:56:19Z</time>
      </trkpt>
      <trkpt lat="46.07993" lon="4.79025">
        <ele>222</ele>
        <time>2017-03-29T09:56:20Z</time>
      </trkpt>
      <trkpt lat="46.07993" lon="4.79016">
        <ele>222</ele>
        <time>2017-03-29T09:56:21Z</time>
      </trkpt>
      <trkpt lat="46.07994" lon="4.79008">
        <ele>223</ele>
        <time>2017-03-29T09:56:22Z</time>
      </trkpt>
      <trkpt lat="46.07993" lon="4.79">
        <ele>222</ele>
        <time>2017-03-29T09:56:23Z</time>
      </trkpt>
      <trkpt lat="46.07993" lon="4.78991">
        <ele>222</ele>
        <time>2017-03-29T09:56:24Z</time>
      </trkpt>
      <trkpt lat="46.07993" lon="4.78982">
        <ele>222</ele>
        <time>2017-03-29T09:56:25Z</time>
      </trkpt>
      <trkpt lat="46.07993" lon="4.78972">
        <ele>221</ele>
        <time>2017-03-29T09:56:26Z</time>
      </trkpt>
      <trkpt lat="46.07993" lon="4.78963">
        <ele>221</ele>
        <time>2017-03-29T09:56:27Z</time>
      </trkpt>
      <trkpt lat="46.07992" lon="4.78953">
        <ele>221</ele>
        <time>2017-03-29T09:56:28Z</time>
      </trkpt>
      <trkpt lat="46.07992" lon="4.78943">
        <ele>221</ele>
        <time>2017-03-29T09:56:29Z</time>
      </trkpt>
      <trkpt lat="46.07991" lon="4.78933">
        <ele>221</ele>
        <time>2017-03-29T09:56:30Z</time>
      </trkpt>
      <trkpt lat="46.0799" lon="4.78923">
        <ele>221</ele>
        <time>2017-03-29T09:56:31Z</time>
      </trkpt>
      <trkpt lat="46.0799" lon="4.78913">
        <ele>221</ele>
        <time>2017-03-29T09:56:32Z</time>
      </trkpt>
      <trkpt lat="46.07989" lon="4.78903">
        <ele>221</ele>
        <time>2017-03-29T09:56:33Z</time>
      </trkpt>
      <trkpt lat="46.07988" lon="4.78893">
        <ele>220</ele>
        <time>2017-03-29T09:56:34Z</time>
      </trkpt>
      <trkpt lat="46.07988" lon="4.78883">
        <ele>220</ele>
        <time>2017-03-29T09:56:35Z</time>
      </trkpt>
      <trkpt lat="46.07989" lon="4.78874">
        <ele>220</ele>
        <time>2017-03-29T09:56:36Z</time>
      </trkpt>
      <trkpt lat="46.07989" lon="4.78865">
        <ele>220</ele>
        <time>2017-03-29T09:56:37Z</time>
      </trkpt>
      <trkpt lat="46.07989" lon="4.78856">
        <ele>220</ele>
        <time>2017-03-29T09:56:38Z</time>
      </trkpt>
      <trkpt lat="46.0799" lon="4.78846">
        <ele>220</ele>
        <time>2017-03-29T09:56:39Z</time>
      </trkpt>
      <trkpt lat="46.07989" lon="4.78837">
        <ele>220</ele>
        <time>2017-03-29T09:56:40Z</time>
      </trkpt>
      <trkpt lat="46.07989" lon="4.78828">
        <ele>220</ele>
        <time>2017-03-29T09:56:41Z</time>
      </trkpt>
      <trkpt lat="46.0799" lon="4.78819">
        <ele>220</ele>
        <time>2017-03-29T09:56:42Z</time>
      </trkpt>
      <trkpt lat="46.0799" lon="4.78811">
        <ele>219</ele>
        <time>2017-03-29T09:56:43Z</time>
      </trkpt>
      <trkpt lat="46.07991" lon="4.78803">
        <ele>219</ele>
        <time>2017-03-29T09:56:44Z</time>
      </trkpt>
      <trkpt lat="46.07991" lon="4.78794">
        <ele>219</ele>
        <time>2017-03-29T09:56:45Z</time>
      </trkpt>
      <trkpt lat="46.07994" lon="4.78786">
        <ele>219</ele>
        <time>2017-03-29T09:56:46Z</time>
      </trkpt>
      <trkpt lat="46.07993" lon="4.78777">
        <ele>219</ele>
        <time>2017-03-29T09:56:47Z</time>
      </trkpt>
      <trkpt lat="46.07992" lon="4.78767">
        <ele>219</ele>
        <time>2017-03-29T09:56:48Z</time>
      </trkpt>
      <trkpt lat="46.07991" lon="4.78758">
        <ele>219</ele>
        <time>2017-03-29T09:56:49Z</time>
      </trkpt>
      <trkpt lat="46.07991" lon="4.78749">
        <ele>220</ele>
        <time>2017-03-29T09:56:50Z</time>
      </trkpt>
      <trkpt lat="46.07991" lon="4.7874">
        <ele>219</ele>
        <time>2017-03-29T09:56:51Z</time>
      </trkpt>
      <trkpt lat="46.07991" lon="4.7873">
        <ele>219</ele>
        <time>2017-03-29T09:56:52Z</time>
      </trkpt>
      <trkpt lat="46.07991" lon="4.78721">
        <ele>219</ele>
        <time>2017-03-29T09:56:53Z</time>
      </trkpt>
      <trkpt lat="46.07991" lon="4.78712">
        <ele>219</ele>
        <time>2017-03-29T09:56:54Z</time>
      </trkpt>
      <trkpt lat="46.07992" lon="4.78703">
        <ele>219</ele>
        <time>2017-03-29T09:56:55Z</time>
      </trkpt>
      <trkpt lat="46.07992" lon="4.78694">
        <ele>219</ele>
        <time>2017-03-29T09:56:56Z</time>
      </trkpt>
      <trkpt lat="46.07994" lon="4.78685">
        <ele>220</ele>
        <time>2017-03-29T09:56:57Z</time>
      </trkpt>
      <trkpt lat="46.07995" lon="4.78676">
        <ele>220</ele>
        <time>2017-03-29T09:56:58Z</time>
      </trkpt>
      <trkpt lat="46.07996" lon="4.78667">
        <ele>221</ele>
        <time>2017-03-29T09:56:59Z</time>
      </trkpt>
      <trkpt lat="46.07998" lon="4.78658">
        <ele>220</ele>
        <time>2017-03-29T09:57:00Z</time>
      </trkpt>
      <trkpt lat="46.07999" lon="4.7865">
        <ele>220</ele>
        <time>2017-03-29T09:57:01Z</time>
      </trkpt>
      <trkpt lat="46.08001" lon="4.78641">
        <ele>220</ele>
        <time>2017-03-29T09:57:02Z</time>
      </trkpt>
      <trkpt lat="46.08002" lon="4.78632">
        <ele>220</ele>
        <time>2017-03-29T09:57:03Z</time>
      </trkpt>
      <trkpt lat="46.08003" lon="4.78624">
        <ele>220</ele>
        <time>2017-03-29T09:57:04Z</time>
      </trkpt>
      <trkpt lat="46.08004" lon="4.78615">
        <ele>220</ele>
        <time>2017-03-29T09:57:05Z</time>
      </trkpt>
      <trkpt lat="46.08005" lon="4.78607">
        <ele>219</ele>
        <time>2017-03-29T09:57:06Z</time>
      </trkpt>
      <trkpt lat="46.08006" lon="4.78599">
        <ele>219</ele>
        <time>2017-03-29T09:57:07Z</time>
      </trkpt>
      <trkpt lat="46.08007" lon="4.7859">
        <ele>219</ele>
        <time>2017-03-29T09:57:08Z</time>
      </trkpt>
      <trkpt lat="46.08008" lon="4.78581">
        <ele>218</ele>
        <time>2017-03-29T09:57:09Z</time>
      </trkpt>
      <trkpt lat="46.08008" lon="4.78573">
        <ele>218</ele>
        <time>2017-03-29T09:57:10Z</time>
      </trkpt>
      <trkpt lat="46.08009" lon="4.78564">
        <ele>218</ele>
        <time>2017-03-29T09:57:11Z</time>
      </trkpt>
      <trkpt lat="46.0801" lon="4.78555">
        <ele>218</ele>
        <time>2017-03-29T09:57:12Z</time>
      </trkpt>
      <trkpt lat="46.0801" lon="4.78546">
        <ele>218</ele>
        <time>2017-03-29T09:57:13Z</time>
      </trkpt>
      <trkpt lat="46.08011" lon="4.78536">
        <ele>217</ele>
        <time>2017-03-29T09:57:14Z</time>
      </trkpt>
      <trkpt lat="46.08012" lon="4.78527">
        <ele>217</ele>
        <time>2017-03-29T09:57:15Z</time>
      </trkpt>
      <trkpt lat="46.08014" lon="4.78517">
        <ele>217</ele>
        <time>2017-03-29T09:57:16Z</time>
      </trkpt>
      <trkpt lat="46.08014" lon="4.78506">
        <ele>216</ele>
        <time>2017-03-29T09:57:17Z</time>
      </trkpt>
      <trkpt lat="46.08014" lon="4.78496">
        <ele>216</ele>
        <time>2017-03-29T09:57:18Z</time>
      </trkpt>
      <trkpt lat="46.08015" lon="4.78485">
        <ele>216</ele>
        <time>2017-03-29T09:57:19Z</time>
      </trkpt>
      <trkpt lat="46.08016" lon="4.78474">
        <ele>216</ele>
        <time>2017-03-29T09:57:20Z</time>
      </trkpt>
      <trkpt lat="46.08016" lon="4.78464">
        <ele>216</ele>
        <time>2017-03-29T09:57:21Z</time>
      </trkpt>
      <trkpt lat="46.08017" lon="4.78454">
        <ele>216</ele>
        <time>2017-03-29T09:57:22Z</time>
      </trkpt>
      <trkpt lat="46.08018" lon="4.78444">
        <ele>216</ele>
        <time>2017-03-29T09:57:23Z</time>
      </trkpt>
      <trkpt lat="46.0802" lon="4.78433">
        <ele>216</ele>
        <time>2017-03-29T09:57:24Z</time>
      </trkpt>
      <trkpt lat="46.08021" lon="4.78422">
        <ele>216</ele>
        <time>2017-03-29T09:57:25Z</time>
      </trkpt>
      <trkpt lat="46.08022" lon="4.78412">
        <ele>216</ele>
        <time>2017-03-29T09:57:26Z</time>
      </trkpt>
      <trkpt lat="46.08023" lon="4.78401">
        <ele>216</ele>
        <time>2017-03-29T09:57:27Z</time>
      </trkpt>
      <trkpt lat="46.08025" lon="4.7839">
        <ele>216</ele>
        <time>2017-03-29T09:57:28Z</time>
      </trkpt>
      <trkpt lat="46.08025" lon="4.7838">
        <ele>216</ele>
        <time>2017-03-29T09:57:29Z</time>
      </trkpt>
      <trkpt lat="46.08027" lon="4.7837">
        <ele>216</ele>
        <time>2017-03-29T09:57:30Z</time>
      </trkpt>
      <trkpt lat="46.08028" lon="4.7836">
        <ele>215</ele>
        <time>2017-03-29T09:57:31Z</time>
      </trkpt>
      <trkpt lat="46.08029" lon="4.7835">
        <ele>215</ele>
        <time>2017-03-29T09:57:32Z</time>
      </trkpt>
      <trkpt lat="46.0803" lon="4.7834">
        <ele>215</ele>
        <time>2017-03-29T09:57:33Z</time>
      </trkpt>
      <trkpt lat="46.08031" lon="4.78331">
        <ele>214</ele>
        <time>2017-03-29T09:57:34Z</time>
      </trkpt>
      <trkpt lat="46.08031" lon="4.78322">
        <ele>214</ele>
        <time>2017-03-29T09:57:35Z</time>
      </trkpt>
      <trkpt lat="46.08032" lon="4.78313">
        <ele>215</ele>
        <time>2017-03-29T09:57:36Z</time>
      </trkpt>
      <trkpt lat="46.08034" lon="4.78305">
        <ele>215</ele>
        <time>2017-03-29T09:57:37Z</time>
      </trkpt>
      <trkpt lat="46.08036" lon="4.78297">
        <ele>215</ele>
        <time>2017-03-29T09:57:38Z</time>
      </trkpt>
      <trkpt lat="46.08038" lon="4.78288">
        <ele>215</ele>
        <time>2017-03-29T09:57:39Z</time>
      </trkpt>
      <trkpt lat="46.0804" lon="4.7828">
        <ele>215</ele>
        <time>2017-03-29T09:57:40Z</time>
      </trkpt>
      <trkpt lat="46.08042" lon="4.78271">
        <ele>215</ele>
        <time>2017-03-29T09:57:41Z</time>
      </trkpt>
      <trkpt lat="46.08043" lon="4.78261">
        <ele>215</ele>
        <time>2017-03-29T09:57:42Z</time>
      </trkpt>
      <trkpt lat="46.08045" lon="4.78252">
        <ele>215</ele>
        <time>2017-03-29T09:57:43Z</time>
      </trkpt>
      <trkpt lat="46.08046" lon="4.78243">
        <ele>214</ele>
        <time>2017-03-29T09:57:44Z</time>
      </trkpt>
      <trkpt lat="46.08047" lon="4.78233">
        <ele>214</ele>
        <time>2017-03-29T09:57:45Z</time>
      </trkpt>
      <trkpt lat="46.08048" lon="4.78224">
        <ele>214</ele>
        <time>2017-03-29T09:57:46Z</time>
      </trkpt>
      <trkpt lat="46.0805" lon="4.78215">
        <ele>214</ele>
        <time>2017-03-29T09:57:47Z</time>
      </trkpt>
      <trkpt lat="46.08053" lon="4.78206">
        <ele>214</ele>
        <time>2017-03-29T09:57:48Z</time>
      </trkpt>
      <trkpt lat="46.08055" lon="4.78197">
        <ele>214</ele>
        <time>2017-03-29T09:57:49Z</time>
      </trkpt>
      <trkpt lat="46.08055" lon="4.78188">
        <ele>214</ele>
        <time>2017-03-29T09:57:50Z</time>
      </trkpt>
      <trkpt lat="46.08057" lon="4.78179">
        <ele>214</ele>
        <time>2017-03-29T09:57:51Z</time>
      </trkpt>
      <trkpt lat="46.08058" lon="4.78169">
        <ele>214</ele>
        <time>2017-03-29T09:57:52Z</time>
      </trkpt>
      <trkpt lat="46.08058" lon="4.7816">
        <ele>213</ele>
        <time>2017-03-29T09:57:53Z</time>
      </trkpt>
      <trkpt lat="46.08059" lon="4.7815">
        <ele>213</ele>
        <time>2017-03-29T09:57:54Z</time>
      </trkpt>
      <trkpt lat="46.08059" lon="4.78141">
        <ele>213</ele>
        <time>2017-03-29T09:57:55Z</time>
      </trkpt>
      <trkpt lat="46.08059" lon="4.78132">
        <ele>213</ele>
        <time>2017-03-29T09:57:56Z</time>
      </trkpt>
      <trkpt lat="46.0806" lon="4.78123">
        <ele>213</ele>
        <time>2017-03-29T09:57:57Z</time>
      </trkpt>
      <trkpt lat="46.0806" lon="4.78114">
        <ele>212</ele>
        <time>2017-03-29T09:57:58Z</time>
      </trkpt>
      <trkpt lat="46.08061" lon="4.78105">
        <ele>212</ele>
        <time>2017-03-29T09:57:59Z</time>
      </trkpt>
      <trkpt lat="46.08062" lon="4.78096">
        <ele>212</ele>
        <time>2017-03-29T09:58:00Z</time>
      </trkpt>
      <trkpt lat="46.08064" lon="4.78088">
        <ele>212</ele>
        <time>2017-03-29T09:58:01Z</time>
      </trkpt>
      <trkpt lat="46.08065" lon="4.78079">
        <ele>212</ele>
        <time>2017-03-29T09:58:02Z</time>
      </trkpt>
      <trkpt lat="46.08066" lon="4.78071">
        <ele>211</ele>
        <time>2017-03-29T09:58:03Z</time>
      </trkpt>
      <trkpt lat="46.08066" lon="4.78062">
        <ele>211</ele>
        <time>2017-03-29T09:58:04Z</time>
      </trkpt>
      <trkpt lat="46.08067" lon="4.78053">
        <ele>211</ele>
        <time>2017-03-29T09:58:05Z</time>
      </trkpt>
      <trkpt lat="46.08067" lon="4.78045">
        <ele>211</ele>
        <time>2017-03-29T09:58:06Z</time>
      </trkpt>
      <trkpt lat="46.08068" lon="4.78036">
        <ele>211</ele>
        <time>2017-03-29T09:58:07Z</time>
      </trkpt>
      <trkpt lat="46.08069" lon="4.78027">
        <ele>211</ele>
        <time>2017-03-29T09:58:08Z</time>
      </trkpt>
      <trkpt lat="46.0807" lon="4.78018">
        <ele>211</ele>
        <time>2017-03-29T09:58:09Z</time>
      </trkpt>
      <trkpt lat="46.08071" lon="4.78009">
        <ele>212</ele>
        <time>2017-03-29T09:58:10Z</time>
      </trkpt>
      <trkpt lat="46.08071" lon="4.78">
        <ele>212</ele>
        <time>2017-03-29T09:58:11Z</time>
      </trkpt>
      <trkpt lat="46.08072" lon="4.7799">
        <ele>212</ele>
        <time>2017-03-29T09:58:12Z</time>
      </trkpt>
      <trkpt lat="46.08073" lon="4.77981">
        <ele>211</ele>
        <time>2017-03-29T09:58:13Z</time>
      </trkpt>
      <trkpt lat="46.08073" lon="4.77972">
        <ele>211</ele>
        <time>2017-03-29T09:58:14Z</time>
      </trkpt>
      <trkpt lat="46.08073" lon="4.77963">
        <ele>211</ele>
        <time>2017-03-29T09:58:15Z</time>
      </trkpt>
      <trkpt lat="46.08072" lon="4.77953">
        <ele>211</ele>
        <time>2017-03-29T09:58:16Z</time>
      </trkpt>
      <trkpt lat="46.08072" lon="4.77944">
        <ele>211</ele>
        <time>2017-03-29T09:58:17Z</time>
      </trkpt>
      <trkpt lat="46.08072" lon="4.77936">
        <ele>211</ele>
        <time>2017-03-29T09:58:18Z</time>
      </trkpt>
      <trkpt lat="46.08073" lon="4.77926">
        <ele>212</ele>
        <time>2017-03-29T09:58:19Z</time>
      </trkpt>
      <trkpt lat="46.08072" lon="4.77917">
        <ele>212</ele>
        <time>2017-03-29T09:58:20Z</time>
      </trkpt>
      <trkpt lat="46.08075" lon="4.77909">
        <ele>212</ele>
        <time>2017-03-29T09:58:21Z</time>
      </trkpt>
      <trkpt lat="46.08075" lon="4.77901">
        <ele>212</ele>
        <time>2017-03-29T09:58:22Z</time>
      </trkpt>
      <trkpt lat="46.08075" lon="4.77892">
        <ele>211</ele>
        <time>2017-03-29T09:58:23Z</time>
      </trkpt>
      <trkpt lat="46.08075" lon="4.77883">
        <ele>211</ele>
        <time>2017-03-29T09:58:24Z</time>
      </trkpt>
      <trkpt lat="46.08074" lon="4.77874">
        <ele>211</ele>
        <time>2017-03-29T09:58:25Z</time>
      </trkpt>
      <trkpt lat="46.08074" lon="4.77864">
        <ele>212</ele>
        <time>2017-03-29T09:58:26Z</time>
      </trkpt>
      <trkpt lat="46.08073" lon="4.77854">
        <ele>212</ele>
        <time>2017-03-29T09:58:27Z</time>
      </trkpt>
      <trkpt lat="46.08073" lon="4.77844">
        <ele>212</ele>
        <time>2017-03-29T09:58:28Z</time>
      </trkpt>
      <trkpt lat="46.08072" lon="4.77835">
        <ele>213</ele>
        <time>2017-03-29T09:58:29Z</time>
      </trkpt>
      <trkpt lat="46.08072" lon="4.77826">
        <ele>212</ele>
        <time>2017-03-29T09:58:30Z</time>
      </trkpt>
      <trkpt lat="46.08073" lon="4.77817">
        <ele>212</ele>
        <time>2017-03-29T09:58:31Z</time>
      </trkpt>
      <trkpt lat="46.08074" lon="4.77808">
        <ele>212</ele>
        <time>2017-03-29T09:58:32Z</time>
      </trkpt>
      <trkpt lat="46.08074" lon="4.778">
        <ele>211</ele>
        <time>2017-03-29T09:58:33Z</time>
      </trkpt>
      <trkpt lat="46.08074" lon="4.77792">
        <ele>211</ele>
        <time>2017-03-29T09:58:34Z</time>
      </trkpt>
      <trkpt lat="46.08075" lon="4.77783">
        <ele>211</ele>
        <time>2017-03-29T09:58:35Z</time>
      </trkpt>
      <trkpt lat="46.08075" lon="4.77776">
        <ele>211</ele>
        <time>2017-03-29T09:58:36Z</time>
      </trkpt>
      <trkpt lat="46.08075" lon="4.77768">
        <ele>211</ele>
        <time>2017-03-29T09:58:37Z</time>
      </trkpt>
      <trkpt lat="46.08075" lon="4.7776">
        <ele>212</ele>
        <time>2017-03-29T09:58:38Z</time>
      </trkpt>
      <trkpt lat="46.08074" lon="4.77752">
        <ele>212</ele>
        <time>2017-03-29T09:58:39Z</time>
      </trkpt>
      <trkpt lat="46.08074" lon="4.77745">
        <ele>212</ele>
        <time>2017-03-29T09:58:40Z</time>
      </trkpt>
      <trkpt lat="46.08074" lon="4.77737">
        <ele>211</ele>
        <time>2017-03-29T09:58:41Z</time>
      </trkpt>
      <trkpt lat="46.08074" lon="4.77729">
        <ele>211</ele>
        <time>2017-03-29T09:58:42Z</time>
      </trkpt>
      <trkpt lat="46.08075" lon="4.77721">
        <ele>211</ele>
        <time>2017-03-29T09:58:43Z</time>
      </trkpt>
      <trkpt lat="46.08075" lon="4.77713">
        <ele>211</ele>
        <time>2017-03-29T09:58:44Z</time>
      </trkpt>
      <trkpt lat="46.08075" lon="4.77705">
        <ele>211</ele>
        <time>2017-03-29T09:58:45Z</time>
      </trkpt>
      <trkpt lat="46.08075" lon="4.77697">
        <ele>211</ele>
        <time>2017-03-29T09:58:46Z</time>
      </trkpt>
      <trkpt lat="46.08075" lon="4.77689">
        <ele>211</ele>
        <time>2017-03-29T09:58:47Z</time>
      </trkpt>
      <trkpt lat="46.08076" lon="4.77682">
        <ele>211</ele>
        <time>2017-03-29T09:58:48Z</time>
      </trkpt>
      <trkpt lat="46.08075" lon="4.77674">
        <ele>212</ele>
        <time>2017-03-29T09:58:49Z</time>
      </trkpt>
      <trkpt lat="46.08075" lon="4.77667">
        <ele>212</ele>
        <time>2017-03-29T09:58:50Z</time>
      </trkpt>
      <trkpt lat="46.08076" lon="4.7766">
        <ele>212</ele>
        <time>2017-03-29T09:58:51Z</time>
      </trkpt>
      <trkpt lat="46.08075" lon="4.77653">
        <ele>211</ele>
        <time>2017-03-29T09:58:52Z</time>
      </trkpt>
      <trkpt lat="46.08074" lon="4.77646">
        <ele>210</ele>
        <time>2017-03-29T09:58:53Z</time>
      </trkpt>
      <trkpt lat="46.08074" lon="4.77638">
        <ele>210</ele>
        <time>2017-03-29T09:58:54Z</time>
      </trkpt>
      <trkpt lat="46.08073" lon="4.77631">
        <ele>210</ele>
        <time>2017-03-29T09:58:55Z</time>
      </trkpt>
      <trkpt lat="46.08073" lon="4.77624">
        <ele>210</ele>
        <time>2017-03-29T09:58:56Z</time>
      </trkpt>
      <trkpt lat="46.08073" lon="4.77617">
        <ele>210</ele>
        <time>2017-03-29T09:58:57Z</time>
      </trkpt>
      <trkpt lat="46.08074" lon="4.77609">
        <ele>210</ele>
        <time>2017-03-29T09:58:58Z</time>
      </trkpt>
      <trkpt lat="46.08073" lon="4.77602">
        <ele>210</ele>
        <time>2017-03-29T09:58:59Z</time>
      </trkpt>
      <trkpt lat="46.08073" lon="4.77594">
        <ele>210</ele>
        <time>2017-03-29T09:59:00Z</time>
      </trkpt>
      <trkpt lat="46.08072" lon="4.77586">
        <ele>210</ele>
        <time>2017-03-29T09:59:01Z</time>
      </trkpt>
      <trkpt lat="46.08071" lon="4.77579">
        <ele>210</ele>
        <time>2017-03-29T09:59:02Z</time>
      </trkpt>
      <trkpt lat="46.0807" lon="4.77571">
        <ele>210</ele>
        <time>2017-03-29T09:59:03Z</time>
      </trkpt>
      <trkpt lat="46.08068" lon="4.77563">
        <ele>209</ele>
        <time>2017-03-29T09:59:04Z</time>
      </trkpt>
      <trkpt lat="46.08066" lon="4.77556">
        <ele>209</ele>
        <time>2017-03-29T09:59:05Z</time>
      </trkpt>
      <trkpt lat="46.08064" lon="4.77548">
        <ele>209</ele>
        <time>2017-03-29T09:59:06Z</time>
      </trkpt>
      <trkpt lat="46.08063" lon="4.7754">
        <ele>209</ele>
        <time>2017-03-29T09:59:07Z</time>
      </trkpt>
      <trkpt lat="46.08061" lon="4.77532">
        <ele>209</ele>
        <time>2017-03-29T09:59:08Z</time>
      </trkpt>
      <trkpt lat="46.08058" lon="4.77524">
        <ele>209</ele>
        <time>2017-03-29T09:59:09Z</time>
      </trkpt>
      <trkpt lat="46.08055" lon="4.77516">
        <ele>209</ele>
        <time>2017-03-29T09:59:10Z</time>
      </trkpt>
      <trkpt lat="46.08052" lon="4.77508">
        <ele>209</ele>
        <time>2017-03-29T09:59:11Z</time>
      </trkpt>
      <trkpt lat="46.08049" lon="4.775">
        <ele>209</ele>
        <time>2017-03-29T09:59:12Z</time>
      </trkpt>
      <trkpt lat="46.08046" lon="4.77493">
        <ele>209</ele>
        <time>2017-03-29T09:59:13Z</time>
      </trkpt>
      <trkpt lat="46.08043" lon="4.77485">
        <ele>209</ele>
        <time>2017-03-29T09:59:14Z</time>
      </trkpt>
      <trkpt lat="46.0804" lon="4.77477">
        <ele>209</ele>
        <time>2017-03-29T09:59:15Z</time>
      </trkpt>
      <trkpt lat="46.08036" lon="4.77469">
        <ele>209</ele>
        <time>2017-03-29T09:59:16Z</time>
      </trkpt>
      <trkpt lat="46.08033" lon="4.77462">
        <ele>209</ele>
        <time>2017-03-29T09:59:17Z</time>
      </trkpt>
      <trkpt lat="46.08029" lon="4.77454">
        <ele>209</ele>
        <time>2017-03-29T09:59:18Z</time>
      </trkpt>
      <trkpt lat="46.08026" lon="4.77447">
        <ele>209</ele>
        <time>2017-03-29T09:59:19Z</time>
      </trkpt>
      <trkpt lat="46.08023" lon="4.77439">
        <ele>209</ele>
        <time>2017-03-29T09:59:20Z</time>
      </trkpt>
      <trkpt lat="46.0802" lon="4.77431">
        <ele>209</ele>
        <time>2017-03-29T09:59:21Z</time>
      </trkpt>
      <trkpt lat="46.08017" lon="4.77422">
        <ele>208</ele>
        <time>2017-03-29T09:59:22Z</time>
      </trkpt>
      <trkpt lat="46.08015" lon="4.77414">
        <ele>208</ele>
        <time>2017-03-29T09:59:23Z</time>
      </trkpt>
      <trkpt lat="46.08013" lon="4.77406">
        <ele>208</ele>
        <time>2017-03-29T09:59:24Z</time>
      </trkpt>
      <trkpt lat="46.0801" lon="4.77398">
        <ele>209</ele>
        <time>2017-03-29T09:59:25Z</time>
      </trkpt>
      <trkpt lat="46.08008" lon="4.7739">
        <ele>209</ele>
        <time>2017-03-29T09:59:26Z</time>
      </trkpt>
      <trkpt lat="46.08006" lon="4.77381">
        <ele>209</ele>
        <time>2017-03-29T09:59:27Z</time>
      </trkpt>
      <trkpt lat="46.08005" lon="4.77372">
        <ele>209</ele>
        <time>2017-03-29T09:59:28Z</time>
      </trkpt>
      <trkpt lat="46.08004" lon="4.77363">
        <ele>209</ele>
        <time>2017-03-29T09:59:29Z</time>
      </trkpt>
      <trkpt lat="46.08003" lon="4.77355">
        <ele>209</ele>
        <time>2017-03-29T09:59:30Z</time>
      </trkpt>
      <trkpt lat="46.08002" lon="4.77346">
        <ele>208</ele>
        <time>2017-03-29T09:59:31Z</time>
      </trkpt>
      <trkpt lat="46.08002" lon="4.77336">
        <ele>207</ele>
        <time>2017-03-29T09:59:32Z</time>
      </trkpt>
      <trkpt lat="46.08001" lon="4.77327">
        <ele>207</ele>
        <time>2017-03-29T09:59:33Z</time>
      </trkpt>
      <trkpt lat="46.08001" lon="4.77319">
        <ele>208</ele>
        <time>2017-03-29T09:59:34Z</time>
      </trkpt>
      <trkpt lat="46.08001" lon="4.77311">
        <ele>208</ele>
        <time>2017-03-29T09:59:35Z</time>
      </trkpt>
      <trkpt lat="46.08001" lon="4.77302">
        <ele>208</ele>
        <time>2017-03-29T09:59:36Z</time>
      </trkpt>
      <trkpt lat="46.08002" lon="4.77294">
        <ele>208</ele>
        <time>2017-03-29T09:59:37Z</time>
      </trkpt>
      <trkpt lat="46.08003" lon="4.77285">
        <ele>208</ele>
        <time>2017-03-29T09:59:38Z</time>
      </trkpt>
      <trkpt lat="46.08003" lon="4.77277">
        <ele>208</ele>
        <time>2017-03-29T09:59:39Z</time>
      </trkpt>
      <trkpt lat="46.08003" lon="4.77269">
        <ele>208</ele>
        <time>2017-03-29T09:59:40Z</time>
      </trkpt>
      <trkpt lat="46.08003" lon="4.77262">
        <ele>207</ele>
        <time>2017-03-29T09:59:41Z</time>
      </trkpt>
      <trkpt lat="46.08004" lon="4.77254">
        <ele>207</ele>
        <time>2017-03-29T09:59:42Z</time>
      </trkpt>
      <trkpt lat="46.08005" lon="4.77247">
        <ele>207</ele>
        <time>2017-03-29T09:59:43Z</time>
      </trkpt>
      <trkpt lat="46.08006" lon="4.77239">
        <ele>207</ele>
        <time>2017-03-29T09:59:44Z</time>
      </trkpt>
      <trkpt lat="46.08007" lon="4.77231">
        <ele>207</ele>
        <time>2017-03-29T09:59:45Z</time>
      </trkpt>
      <trkpt lat="46.08008" lon="4.77224">
        <ele>208</ele>
        <time>2017-03-29T09:59:46Z</time>
      </trkpt>
      <trkpt lat="46.08008" lon="4.77217">
        <ele>208</ele>
        <time>2017-03-29T09:59:47Z</time>
      </trkpt>
      <trkpt lat="46.08008" lon="4.77209">
        <ele>208</ele>
        <time>2017-03-29T09:59:48Z</time>
      </trkpt>
      <trkpt lat="46.08009" lon="4.77202">
        <ele>208</ele>
        <time>2017-03-29T09:59:49Z</time>
      </trkpt>
      <trkpt lat="46.08009" lon="4.77195">
        <ele>208</ele>
        <time>2017-03-29T09:59:50Z</time>
      </trkpt>
      <trkpt lat="46.0801" lon="4.77188">
        <ele>208</ele>
        <time>2017-03-29T09:59:51Z</time>
      </trkpt>
      <trkpt lat="46.08011" lon="4.77181">
        <ele>207</ele>
        <time>2017-03-29T09:59:52Z</time>
      </trkpt>
      <trkpt lat="46.08011" lon="4.77174">
        <ele>207</ele>
        <time>2017-03-29T09:59:53Z</time>
      </trkpt>
      <trkpt lat="46.08011" lon="4.77166">
        <ele>207</ele>
        <time>2017-03-29T09:59:54Z</time>
      </trkpt>
      <trkpt lat="46.0801" lon="4.77159">
        <ele>207</ele>
        <time>2017-03-29T09:59:55Z</time>
      </trkpt>
      <trkpt lat="46.0801" lon="4.77152">
        <ele>208</ele>
        <time>2017-03-29T09:59:56Z</time>
      </trkpt>
      <trkpt lat="46.0801" lon="4.77145">
        <ele>208</ele>
        <time>2017-03-29T09:59:57Z</time>
      </trkpt>
      <trkpt lat="46.0801" lon="4.77137">
        <ele>208</ele>
        <time>2017-03-29T09:59:58Z</time>
      </trkpt>
      <trkpt lat="46.0801" lon="4.77129">
        <ele>208</ele>
        <time>2017-03-29T09:59:59Z</time>
      </trkpt>
      <trkpt lat="46.0801" lon="4.77122">
        <ele>208</ele>
        <time>2017-03-29T10:00:00Z</time>
      </trkpt>
      <trkpt lat="46.0801" lon="4.77114">
        <ele>208</ele>
        <time>2017-03-29T10:00:01Z</time>
      </trkpt>
      <trkpt lat="46.08009" lon="4.77106">
        <ele>208</ele>
        <time>2017-03-29T10:00:02Z</time>
      </trkpt>
      <trkpt lat="46.08009" lon="4.77098">
        <ele>208</ele>
        <time>2017-03-29T10:00:03Z</time>
      </trkpt>
      <trkpt lat="46.08008" lon="4.7709">
        <ele>208</ele>
        <time>2017-03-29T10:00:04Z</time>
      </trkpt>
      <trkpt lat="46.08008" lon="4.77082">
        <ele>208</ele>
        <time>2017-03-29T10:00:05Z</time>
      </trkpt>
      <trkpt lat="46.08008" lon="4.77074">
        <ele>208</ele>
        <time>2017-03-29T10:00:06Z</time>
      </trkpt>
      <trkpt lat="46.08008" lon="4.77066">
        <ele>208</ele>
        <time>2017-03-29T10:00:07Z</time>
      </trkpt>
      <trkpt lat="46.08008" lon="4.77057">
        <ele>208</ele>
        <time>2017-03-29T10:00:08Z</time>
      </trkpt>
      <trkpt lat="46.08007" lon="4.77049">
        <ele>208</ele>
        <time>2017-03-29T10:00:09Z</time>
      </trkpt>
      <trkpt lat="46.08006" lon="4.7704">
        <ele>208</ele>
        <time>2017-03-29T10:00:10Z</time>
      </trkpt>
      <trkpt lat="46.08005" lon="4.77031">
        <ele>208</ele>
        <time>2017-03-29T10:00:11Z</time>
      </trkpt>
      <trkpt lat="46.08004" lon="4.77023">
        <ele>208</ele>
        <time>2017-03-29T10:00:12Z</time>
      </trkpt>
      <trkpt lat="46.08003" lon="4.77014">
        <ele>208</ele>
        <time>2017-03-29T10:00:13Z</time>
      </trkpt>
      <trkpt lat="46.08004" lon="4.77006">
        <ele>208</ele>
        <time>2017-03-29T10:00:14Z</time>
      </trkpt>
      <trkpt lat="46.08003" lon="4.76998">
        <ele>207</ele>
        <time>2017-03-29T10:00:15Z</time>
      </trkpt>
      <trkpt lat="46.08004" lon="4.7699">
        <ele>207</ele>
        <time>2017-03-29T10:00:16Z</time>
      </trkpt>
      <trkpt lat="46.08004" lon="4.76982">
        <ele>207</ele>
        <time>2017-03-29T10:00:17Z</time>
      </trkpt>
      <trkpt lat="46.08005" lon="4.76974">
        <ele>207</ele>
        <time>2017-03-29T10:00:18Z</time>
      </trkpt>
      <trkpt lat="46.08005" lon="4.76966">
        <ele>207</ele>
        <time>2017-03-29T10:00:19Z</time>
      </trkpt>
      <trkpt lat="46.08005" lon="4.76959">
        <ele>207</ele>
        <time>2017-03-29T10:00:20Z</time>
      </trkpt>
      <trkpt lat="46.08007" lon="4.76949">
        <ele>207</ele>
        <time>2017-03-29T10:00:22Z</time>
      </trkpt>
      <trkpt lat="46.08008" lon="4.76946">
        <ele>207</ele>
        <time>2017-03-29T10:00:23Z</time>
      </trkpt>
      <trkpt lat="46.08006" lon="4.76934">
        <ele>206</ele>
        <time>2017-03-29T10:00:27Z</time>
      </trkpt>
      <trkpt lat="46.08004" lon="4.76932">
        <ele>206</ele>
        <time>2017-03-29T10:00:28Z</time>
      </trkpt>
      <trkpt lat="46.08006" lon="4.76931">
        <ele>206</ele>
        <time>2017-03-29T10:00:29Z</time>
      </trkpt>
      <trkpt lat="46.08005" lon="4.7693">
        <ele>206</ele>
        <time>2017-03-29T10:00:33Z</time>
      </trkpt>
      <trkpt lat="46.08003" lon="4.76928">
        <ele>205</ele>
        <time>2017-03-29T10:00:34Z</time>
      </trkpt>
      <trkpt lat="46.07998" lon="4.7692">
        <ele>204</ele>
        <time>2017-03-29T10:00:37Z</time>
      </trkpt>
      <trkpt lat="46.07995" lon="4.76918">
        <ele>204</ele>
        <time>2017-03-29T10:00:38Z</time>
      </trkpt>
      <trkpt lat="46.0799" lon="4.7691">
        <ele>202</ele>
        <time>2017-03-29T10:00:40Z</time>
      </trkpt>
      <trkpt lat="46.07988" lon="4.76904">
        <ele>202</ele>
        <time>2017-03-29T10:00:41Z</time>
      </trkpt>
      <trkpt lat="46.07986" lon="4.76892">
        <ele>201</ele>
        <time>2017-03-29T10:00:43Z</time>
      </trkpt>
      <trkpt lat="46.07986" lon="4.76886">
        <ele>201</ele>
        <time>2017-03-29T10:00:44Z</time>
      </trkpt>
      <trkpt lat="46.07984" lon="4.76874">
        <ele>200</ele>
        <time>2017-03-29T10:00:46Z</time>
      </trkpt>
      <trkpt lat="46.07984" lon="4.76868">
        <ele>200</ele>
        <time>2017-03-29T10:00:47Z</time>
      </trkpt>
      <trkpt lat="46.07983" lon="4.76858">
        <ele>200</ele>
        <time>2017-03-29T10:00:49Z</time>
      </trkpt>
      <trkpt lat="46.07982" lon="4.76853">
        <ele>200</ele>
        <time>2017-03-29T10:00:50Z</time>
      </trkpt>
      <trkpt lat="46.07981" lon="4.76844">
        <ele>200</ele>
        <time>2017-03-29T10:00:52Z</time>
      </trkpt>
      <trkpt lat="46.07981" lon="4.7684">
        <ele>200</ele>
        <time>2017-03-29T10:00:53Z</time>
      </trkpt>
      <trkpt lat="46.07981" lon="4.76835">
        <ele>200</ele>
        <time>2017-03-29T10:00:55Z</time>
      </trkpt>
      <trkpt lat="46.0798" lon="4.76834">
        <ele>200</ele>
        <time>2017-03-29T10:00:56Z</time>
      </trkpt>
      <trkpt lat="46.07979" lon="4.76834">
        <ele>200</ele>
        <time>2017-03-29T10:01:10Z</time>
      </trkpt>
      <trkpt lat="46.07978" lon="4.7683">
        <ele>198</ele>
        <time>2017-03-29T10:01:11Z</time>
      </trkpt>
      <trkpt lat="46.07977" lon="4.76819">
        <ele>198</ele>
        <time>2017-03-29T10:01:15Z</time>
      </trkpt>
      <trkpt lat="46.07977" lon="4.76815">
        <ele>198</ele>
        <time>2017-03-29T10:01:16Z</time>
      </trkpt>
      <trkpt lat="46.07975" lon="4.76806">
        <ele>198</ele>
        <time>2017-03-29T10:01:18Z</time>
      </trkpt>
      <trkpt lat="46.07975" lon="4.76801">
        <ele>198</ele>
        <time>2017-03-29T10:01:19Z</time>
      </trkpt>
      <trkpt lat="46.07972" lon="4.76789">
        <ele>197</ele>
        <time>2017-03-29T10:01:21Z</time>
      </trkpt>
      <trkpt lat="46.07971" lon="4.76783">
        <ele>197</ele>
        <time>2017-03-29T10:01:22Z</time>
      </trkpt>
      <trkpt lat="46.0797" lon="4.76776">
        <ele>197</ele>
        <time>2017-03-29T10:01:23Z</time>
      </trkpt>
      <trkpt lat="46.0797" lon="4.76769">
        <ele>197</ele>
        <time>2017-03-29T10:01:24Z</time>
      </trkpt>
      <trkpt lat="46.07968" lon="4.76762">
        <ele>197</ele>
        <time>2017-03-29T10:01:25Z</time>
      </trkpt>
      <trkpt lat="46.07968" lon="4.76755">
        <ele>197</ele>
        <time>2017-03-29T10:01:26Z</time>
      </trkpt>
      <trkpt lat="46.07967" lon="4.76748">
        <ele>197</ele>
        <time>2017-03-29T10:01:27Z</time>
      </trkpt>
      <trkpt lat="46.07966" lon="4.7674">
        <ele>197</ele>
        <time>2017-03-29T10:01:28Z</time>
      </trkpt>
      <trkpt lat="46.07966" lon="4.76732">
        <ele>197</ele>
        <time>2017-03-29T10:01:29Z</time>
      </trkpt>
      <trkpt lat="46.07966" lon="4.76725">
        <ele>197</ele>
        <time>2017-03-29T10:01:30Z</time>
      </trkpt>
      <trkpt lat="46.07966" lon="4.76717">
        <ele>196</ele>
        <time>2017-03-29T10:01:31Z</time>
      </trkpt>
      <trkpt lat="46.07966" lon="4.76709">
        <ele>197</ele>
        <time>2017-03-29T10:01:32Z</time>
      </trkpt>
      <trkpt lat="46.07965" lon="4.76701">
        <ele>196</ele>
        <time>2017-03-29T10:01:33Z</time>
      </trkpt>
      <trkpt lat="46.07965" lon="4.76693">
        <ele>197</ele>
        <time>2017-03-29T10:01:34Z</time>
      </trkpt>
      <trkpt lat="46.07964" lon="4.76684">
        <ele>197</ele>
        <time>2017-03-29T10:01:35Z</time>
      </trkpt>
      <trkpt lat="46.07963" lon="4.76676">
        <ele>197</ele>
        <time>2017-03-29T10:01:36Z</time>
      </trkpt>
      <trkpt lat="46.07963" lon="4.76667">
        <ele>197</ele>
        <time>2017-03-29T10:01:37Z</time>
      </trkpt>
      <trkpt lat="46.07962" lon="4.76658">
        <ele>197</ele>
        <time>2017-03-29T10:01:38Z</time>
      </trkpt>
      <trkpt lat="46.07962" lon="4.76649">
        <ele>197</ele>
        <time>2017-03-29T10:01:39Z</time>
      </trkpt>
      <trkpt lat="46.07962" lon="4.76639">
        <ele>197</ele>
        <time>2017-03-29T10:01:40Z</time>
      </trkpt>
      <trkpt lat="46.07962" lon="4.7663">
        <ele>197</ele>
        <time>2017-03-29T10:01:41Z</time>
      </trkpt>
      <trkpt lat="46.07963" lon="4.76621">
        <ele>197</ele>
        <time>2017-03-29T10:01:42Z</time>
      </trkpt>
      <trkpt lat="46.07963" lon="4.76611">
        <ele>197</ele>
        <time>2017-03-29T10:01:43Z</time>
      </trkpt>
      <trkpt lat="46.07963" lon="4.76601">
        <ele>197</ele>
        <time>2017-03-29T10:01:44Z</time>
      </trkpt>
      <trkpt lat="46.07963" lon="4.76591">
        <ele>197</ele>
        <time>2017-03-29T10:01:45Z</time>
      </trkpt>
      <trkpt lat="46.07964" lon="4.7658">
        <ele>196</ele>
        <time>2017-03-29T10:01:46Z</time>
      </trkpt>
      <trkpt lat="46.07964" lon="4.7657">
        <ele>196</ele>
        <time>2017-03-29T10:01:47Z</time>
      </trkpt>
      <trkpt lat="46.07964" lon="4.76559">
        <ele>196</ele>
        <time>2017-03-29T10:01:48Z</time>
      </trkpt>
      <trkpt lat="46.07965" lon="4.76548">
        <ele>196</ele>
        <time>2017-03-29T10:01:49Z</time>
      </trkpt>
      <trkpt lat="46.07965" lon="4.76536">
        <ele>196</ele>
        <time>2017-03-29T10:01:50Z</time>
      </trkpt>
      <trkpt lat="46.07966" lon="4.76525">
        <ele>196</ele>
        <time>2017-03-29T10:01:51Z</time>
      </trkpt>
      <trkpt lat="46.07967" lon="4.76514">
        <ele>196</ele>
        <time>2017-03-29T10:01:52Z</time>
      </trkpt>
      <trkpt lat="46.07968" lon="4.76503">
        <ele>196</ele>
        <time>2017-03-29T10:01:53Z</time>
      </trkpt>
      <trkpt lat="46.0797" lon="4.76492">
        <ele>194</ele>
        <time>2017-03-29T10:01:54Z</time>
      </trkpt>
      <trkpt lat="46.07971" lon="4.76482">
        <ele>194</ele>
        <time>2017-03-29T10:01:55Z</time>
      </trkpt>
      <trkpt lat="46.07972" lon="4.76473">
        <ele>194</ele>
        <time>2017-03-29T10:01:56Z</time>
      </trkpt>
      <trkpt lat="46.07979" lon="4.76464">
        <ele>194</ele>
        <time>2017-03-29T10:01:57Z</time>
      </trkpt>
      <trkpt lat="46.0798" lon="4.76456">
        <ele>193</ele>
        <time>2017-03-29T10:01:58Z</time>
      </trkpt>
      <trkpt lat="46.07982" lon="4.76447">
        <ele>193</ele>
        <time>2017-03-29T10:01:59Z</time>
      </trkpt>
      <trkpt lat="46.07985" lon="4.76437">
        <ele>193</ele>
        <time>2017-03-29T10:02:00Z</time>
      </trkpt>
      <trkpt lat="46.07987" lon="4.76427">
        <ele>193</ele>
        <time>2017-03-29T10:02:01Z</time>
      </trkpt>
      <trkpt lat="46.07989" lon="4.76418">
        <ele>193</ele>
        <time>2017-03-29T10:02:02Z</time>
      </trkpt>
      <trkpt lat="46.07991" lon="4.76407">
        <ele>191</ele>
        <time>2017-03-29T10:02:03Z</time>
      </trkpt>
      <trkpt lat="46.07994" lon="4.76397">
        <ele>190</ele>
        <time>2017-03-29T10:02:04Z</time>
      </trkpt>
      <trkpt lat="46.07997" lon="4.76387">
        <ele>190</ele>
        <time>2017-03-29T10:02:05Z</time>
      </trkpt>
      <trkpt lat="46.07999" lon="4.76377">
        <ele>189</ele>
        <time>2017-03-29T10:02:06Z</time>
      </trkpt>
      <trkpt lat="46.08" lon="4.76367">
        <ele>193</ele>
        <time>2017-03-29T10:02:07Z</time>
      </trkpt>
      <trkpt lat="46.08002" lon="4.76358">
        <ele>193</ele>
        <time>2017-03-29T10:02:08Z</time>
      </trkpt>
      <trkpt lat="46.08003" lon="4.76349">
        <ele>191</ele>
        <time>2017-03-29T10:02:09Z</time>
      </trkpt>
      <trkpt lat="46.08004" lon="4.7634">
        <ele>190</ele>
        <time>2017-03-29T10:02:10Z</time>
      </trkpt>
      <trkpt lat="46.08005" lon="4.76329">
        <ele>189</ele>
        <time>2017-03-29T10:02:11Z</time>
      </trkpt>
      <trkpt lat="46.08005" lon="4.76319">
        <ele>190</ele>
        <time>2017-03-29T10:02:12Z</time>
      </trkpt>
      <trkpt lat="46.08006" lon="4.7631">
        <ele>190</ele>
        <time>2017-03-29T10:02:13Z</time>
      </trkpt>
      <trkpt lat="46.08007" lon="4.76301">
        <ele>190</ele>
        <time>2017-03-29T10:02:14Z</time>
      </trkpt>
      <trkpt lat="46.08009" lon="4.76292">
        <ele>190</ele>
        <time>2017-03-29T10:02:15Z</time>
      </trkpt>
      <trkpt lat="46.0801" lon="4.76283">
        <ele>190</ele>
        <time>2017-03-29T10:02:16Z</time>
      </trkpt>
      <trkpt lat="46.08011" lon="4.76273">
        <ele>189</ele>
        <time>2017-03-29T10:02:17Z</time>
      </trkpt>
      <trkpt lat="46.08012" lon="4.76264">
        <ele>189</ele>
        <time>2017-03-29T10:02:18Z</time>
      </trkpt>
      <trkpt lat="46.08014" lon="4.76254">
        <ele>188</ele>
        <time>2017-03-29T10:02:19Z</time>
      </trkpt>
      <trkpt lat="46.08015" lon="4.76245">
        <ele>187</ele>
        <time>2017-03-29T10:02:20Z</time>
      </trkpt>
      <trkpt lat="46.08017" lon="4.76235">
        <ele>187</ele>
        <time>2017-03-29T10:02:21Z</time>
      </trkpt>
      <trkpt lat="46.08018" lon="4.76225">
        <ele>187</ele>
        <time>2017-03-29T10:02:22Z</time>
      </trkpt>
      <trkpt lat="46.08019" lon="4.76216">
        <ele>187</ele>
        <time>2017-03-29T10:02:23Z</time>
      </trkpt>
      <trkpt lat="46.0802" lon="4.76206">
        <ele>187</ele>
        <time>2017-03-29T10:02:24Z</time>
      </trkpt>
      <trkpt lat="46.08022" lon="4.76197">
        <ele>186</ele>
        <time>2017-03-29T10:02:25Z</time>
      </trkpt>
      <trkpt lat="46.08023" lon="4.76187">
        <ele>186</ele>
        <time>2017-03-29T10:02:26Z</time>
      </trkpt>
      <trkpt lat="46.08026" lon="4.76178">
        <ele>186</ele>
        <time>2017-03-29T10:02:27Z</time>
      </trkpt>
      <trkpt lat="46.08027" lon="4.76171">
        <ele>185</ele>
        <time>2017-03-29T10:02:28Z</time>
      </trkpt>
      <trkpt lat="46.08029" lon="4.76164">
        <ele>184</ele>
        <time>2017-03-29T10:02:29Z</time>
      </trkpt>
      <trkpt lat="46.0803" lon="4.76157">
        <ele>184</ele>
        <time>2017-03-29T10:02:30Z</time>
      </trkpt>
      <trkpt lat="46.08032" lon="4.76149">
        <ele>184</ele>
        <time>2017-03-29T10:02:31Z</time>
      </trkpt>
      <trkpt lat="46.08033" lon="4.76142">
        <ele>184</ele>
        <time>2017-03-29T10:02:32Z</time>
      </trkpt>
      <trkpt lat="46.08035" lon="4.76135">
        <ele>184</ele>
        <time>2017-03-29T10:02:33Z</time>
      </trkpt>
      <trkpt lat="46.08036" lon="4.76127">
        <ele>184</ele>
        <time>2017-03-29T10:02:34Z</time>
      </trkpt>
      <trkpt lat="46.08038" lon="4.76119">
        <ele>184</ele>
        <time>2017-03-29T10:02:35Z</time>
      </trkpt>
      <trkpt lat="46.0804" lon="4.76112">
        <ele>184</ele>
        <time>2017-03-29T10:02:36Z</time>
      </trkpt>
      <trkpt lat="46.08041" lon="4.76104">
        <ele>184</ele>
        <time>2017-03-29T10:02:37Z</time>
      </trkpt>
      <trkpt lat="46.08042" lon="4.76096">
        <ele>184</ele>
        <time>2017-03-29T10:02:38Z</time>
      </trkpt>
      <trkpt lat="46.08045" lon="4.76088">
        <ele>184</ele>
        <time>2017-03-29T10:02:39Z</time>
      </trkpt>
      <trkpt lat="46.08046" lon="4.7608">
        <ele>183</ele>
        <time>2017-03-29T10:02:40Z</time>
      </trkpt>
      <trkpt lat="46.08047" lon="4.76073">
        <ele>183</ele>
        <time>2017-03-29T10:02:41Z</time>
      </trkpt>
      <trkpt lat="46.08049" lon="4.76065">
        <ele>183</ele>
        <time>2017-03-29T10:02:42Z</time>
      </trkpt>
      <trkpt lat="46.08051" lon="4.76058">
        <ele>182</ele>
        <time>2017-03-29T10:02:43Z</time>
      </trkpt>
      <trkpt lat="46.08053" lon="4.76049">
        <ele>182</ele>
        <time>2017-03-29T10:02:44Z</time>
      </trkpt>
      <trkpt lat="46.08055" lon="4.76041">
        <ele>182</ele>
        <time>2017-03-29T10:02:45Z</time>
      </trkpt>
      <trkpt lat="46.08057" lon="4.76033">
        <ele>182</ele>
        <time>2017-03-29T10:02:46Z</time>
      </trkpt>
      <trkpt lat="46.08059" lon="4.76025">
        <ele>182</ele>
        <time>2017-03-29T10:02:47Z</time>
      </trkpt>
      <trkpt lat="46.0806" lon="4.76016">
        <ele>182</ele>
        <time>2017-03-29T10:02:48Z</time>
      </trkpt>
      <trkpt lat="46.08062" lon="4.76008">
        <ele>182</ele>
        <time>2017-03-29T10:02:49Z</time>
      </trkpt>
      <trkpt lat="46.08064" lon="4.75999">
        <ele>181</ele>
        <time>2017-03-29T10:02:50Z</time>
      </trkpt>
      <trkpt lat="46.08066" lon="4.75991">
        <ele>180</ele>
        <time>2017-03-29T10:02:51Z</time>
      </trkpt>
      <trkpt lat="46.08068" lon="4.75982">
        <ele>180</ele>
        <time>2017-03-29T10:02:52Z</time>
      </trkpt>
      <trkpt lat="46.08069" lon="4.75974">
        <ele>180</ele>
        <time>2017-03-29T10:02:53Z</time>
      </trkpt>
      <trkpt lat="46.08072" lon="4.75966">
        <ele>180</ele>
        <time>2017-03-29T10:02:54Z</time>
      </trkpt>
      <trkpt lat="46.08072" lon="4.75957">
        <ele>179</ele>
        <time>2017-03-29T10:02:55Z</time>
      </trkpt>
      <trkpt lat="46.08073" lon="4.75948">
        <ele>179</ele>
        <time>2017-03-29T10:02:56Z</time>
      </trkpt>
      <trkpt lat="46.08073" lon="4.75939">
        <ele>179</ele>
        <time>2017-03-29T10:02:57Z</time>
      </trkpt>
      <trkpt lat="46.08074" lon="4.7593">
        <ele>179</ele>
        <time>2017-03-29T10:02:58Z</time>
      </trkpt>
      <trkpt lat="46.08075" lon="4.75921">
        <ele>180</ele>
        <time>2017-03-29T10:02:59Z</time>
      </trkpt>
      <trkpt lat="46.08076" lon="4.75913">
        <ele>179</ele>
        <time>2017-03-29T10:03:00Z</time>
      </trkpt>
      <trkpt lat="46.08077" lon="4.75906">
        <ele>179</ele>
        <time>2017-03-29T10:03:01Z</time>
      </trkpt>
      <trkpt lat="46.08079" lon="4.75898">
        <ele>179</ele>
        <time>2017-03-29T10:03:02Z</time>
      </trkpt>
      <trkpt lat="46.0808" lon="4.75891">
        <ele>179</ele>
        <time>2017-03-29T10:03:03Z</time>
      </trkpt>
      <trkpt lat="46.08082" lon="4.75885">
        <ele>179</ele>
        <time>2017-03-29T10:03:04Z</time>
      </trkpt>
      <trkpt lat="46.08084" lon="4.75879">
        <ele>181</ele>
        <time>2017-03-29T10:03:05Z</time>
      </trkpt>
      <trkpt lat="46.08084" lon="4.75871">
        <ele>181</ele>
        <time>2017-03-29T10:03:06Z</time>
      </trkpt>
      <trkpt lat="46.08083" lon="4.75863">
        <ele>178</ele>
        <time>2017-03-29T10:03:07Z</time>
      </trkpt>
      <trkpt lat="46.08083" lon="4.75855">
        <ele>178</ele>
        <time>2017-03-29T10:03:08Z</time>
      </trkpt>
      <trkpt lat="46.08082" lon="4.75848">
        <ele>179</ele>
        <time>2017-03-29T10:03:09Z</time>
      </trkpt>
      <trkpt lat="46.08082" lon="4.75841">
        <ele>179</ele>
        <time>2017-03-29T10:03:10Z</time>
      </trkpt>
      <trkpt lat="46.08082" lon="4.75835">
        <ele>179</ele>
        <time>2017-03-29T10:03:11Z</time>
      </trkpt>
      <trkpt lat="46.0808" lon="4.75828">
        <ele>179</ele>
        <time>2017-03-29T10:03:12Z</time>
      </trkpt>
      <trkpt lat="46.08078" lon="4.75815">
        <ele>178</ele>
        <time>2017-03-29T10:03:14Z</time>
      </trkpt>
      <trkpt lat="46.08078" lon="4.7581">
        <ele>178</ele>
        <time>2017-03-29T10:03:15Z</time>
      </trkpt>
      <trkpt lat="46.0808" lon="4.75799">
        <ele>178</ele>
        <time>2017-03-29T10:03:17Z</time>
      </trkpt>
      <trkpt lat="46.08082" lon="4.75795">
        <ele>178</ele>
        <time>2017-03-29T10:03:18Z</time>
      </trkpt>
      <trkpt lat="46.08086" lon="4.75786">
        <ele>179</ele>
        <time>2017-03-29T10:03:20Z</time>
      </trkpt>
      <trkpt lat="46.0809" lon="4.75781">
        <ele>178</ele>
        <time>2017-03-29T10:03:21Z</time>
      </trkpt>
      <trkpt lat="46.08093" lon="4.75775">
        <ele>178</ele>
        <time>2017-03-29T10:03:22Z</time>
      </trkpt>
      <trkpt lat="46.08096" lon="4.75769">
        <ele>178</ele>
        <time>2017-03-29T10:03:23Z</time>
      </trkpt>
      <trkpt lat="46.08099" lon="4.75763">
        <ele>178</ele>
        <time>2017-03-29T10:03:24Z</time>
      </trkpt>
      <trkpt lat="46.08103" lon="4.75756">
        <ele>178</ele>
        <time>2017-03-29T10:03:25Z</time>
      </trkpt>
      <trkpt lat="46.08107" lon="4.7575">
        <ele>177</ele>
        <time>2017-03-29T10:03:26Z</time>
      </trkpt>
      <trkpt lat="46.0811" lon="4.75742">
        <ele>177</ele>
        <time>2017-03-29T10:03:27Z</time>
      </trkpt>
      <trkpt lat="46.08114" lon="4.75737">
        <ele>177</ele>
        <time>2017-03-29T10:03:28Z</time>
      </trkpt>
      <trkpt lat="46.08118" lon="4.7573">
        <ele>177</ele>
        <time>2017-03-29T10:03:29Z</time>
      </trkpt>
      <trkpt lat="46.08122" lon="4.75723">
        <ele>177</ele>
        <time>2017-03-29T10:03:30Z</time>
      </trkpt>
      <trkpt lat="46.08126" lon="4.75717">
        <ele>177</ele>
        <time>2017-03-29T10:03:31Z</time>
      </trkpt>
      <trkpt lat="46.08129" lon="4.7571">
        <ele>177</ele>
        <time>2017-03-29T10:03:32Z</time>
      </trkpt>
      <trkpt lat="46.08133" lon="4.75704">
        <ele>177</ele>
        <time>2017-03-29T10:03:33Z</time>
      </trkpt>
      <trkpt lat="46.08139" lon="4.75696">
        <ele>177</ele>
        <time>2017-03-29T10:03:35Z</time>
      </trkpt>
      <trkpt lat="46.08143" lon="4.75691">
        <ele>177</ele>
        <time>2017-03-29T10:03:36Z</time>
      </trkpt>
      <trkpt lat="46.08144" lon="4.75679">
        <ele>176</ele>
        <time>2017-03-29T10:03:39Z</time>
      </trkpt>
      <trkpt lat="46.08142" lon="4.75675">
        <ele>176</ele>
        <time>2017-03-29T10:03:40Z</time>
      </trkpt>
      <trkpt lat="46.08136" lon="4.75667">
        <ele>176</ele>
        <time>2017-03-29T10:03:42Z</time>
      </trkpt>
      <trkpt lat="46.08133" lon="4.75663">
        <ele>176</ele>
        <time>2017-03-29T10:03:43Z</time>
      </trkpt>
      <trkpt lat="46.08128" lon="4.75656">
        <ele>175</ele>
        <time>2017-03-29T10:03:45Z</time>
      </trkpt>
      <trkpt lat="46.08128" lon="4.75648">
        <ele>175</ele>
        <time>2017-03-29T10:03:46Z</time>
      </trkpt>
      <trkpt lat="46.08123" lon="4.75637">
        <ele>175</ele>
        <time>2017-03-29T10:03:48Z</time>
      </trkpt>
      <trkpt lat="46.08122" lon="4.75632">
        <ele>175</ele>
        <time>2017-03-29T10:03:49Z</time>
      </trkpt>
      <trkpt lat="46.08118" lon="4.75622">
        <ele>175</ele>
        <time>2017-03-29T10:03:51Z</time>
      </trkpt>
      <trkpt lat="46.08116" lon="4.75617">
        <ele>175</ele>
        <time>2017-03-29T10:03:52Z</time>
      </trkpt>
      <trkpt lat="46.0811" lon="4.75608">
        <ele>175</ele>
        <time>2017-03-29T10:03:54Z</time>
      </trkpt>
      <trkpt lat="46.08108" lon="4.75603">
        <ele>175</ele>
        <time>2017-03-29T10:03:55Z</time>
      </trkpt>
      <trkpt lat="46.08103" lon="4.75595">
        <ele>175</ele>
        <time>2017-03-29T10:03:57Z</time>
      </trkpt>
      <trkpt lat="46.08098" lon="4.75594">
        <ele>175</ele>
        <time>2017-03-29T10:03:58Z</time>
      </trkpt>
      <trkpt lat="46.08093" lon="4.75594">
        <ele>175</ele>
        <time>2017-03-29T10:03:59Z</time>
      </trkpt>
      <trkpt lat="46.08086" lon="4.75594">
        <ele>174</ele>
        <time>2017-03-29T10:04:00Z</time>
      </trkpt>
      <trkpt lat="46.08079" lon="4.756">
        <ele>173</ele>
        <time>2017-03-29T10:04:02Z</time>
      </trkpt>
      <trkpt lat="46.08076" lon="4.75603">
        <ele>173</ele>
        <time>2017-03-29T10:04:03Z</time>
      </trkpt>
      <trkpt lat="46.08068" lon="4.75606">
        <ele>173</ele>
        <time>2017-03-29T10:04:08Z</time>
      </trkpt>
      <trkpt lat="46.08066" lon="4.75607">
        <ele>173</ele>
        <time>2017-03-29T10:04:09Z</time>
      </trkpt>
      <trkpt lat="46.08059" lon="4.7561">
        <ele>173</ele>
        <time>2017-03-29T10:04:14Z</time>
      </trkpt>
      <trkpt lat="46.08057" lon="4.75611">
        <ele>173</ele>
        <time>2017-03-29T10:04:15Z</time>
      </trkpt>
      <trkpt lat="46.08051" lon="4.75614">
        <ele>173</ele>
        <time>2017-03-29T10:04:19Z</time>
      </trkpt>
      <trkpt lat="46.0805" lon="4.75615">
        <ele>173</ele>
        <time>2017-03-29T10:04:20Z</time>
      </trkpt>
      <trkpt lat="46.08049" lon="4.75616">
        <ele>173</ele>
        <time>2017-03-29T10:04:45Z</time>
      </trkpt>
      <trkpt lat="46.08049" lon="4.75616">
        <ele>173</ele>
        <time>2017-03-29T10:04:46Z</time>
      </trkpt>
      <trkpt lat="46.08049" lon="4.75629">
        <ele>173</ele>
        <time>2017-03-29T10:10:12Z</time>
      </trkpt>
      <trkpt lat="46.08049" lon="4.7563">
        <ele>173</ele>
        <time>2017-03-29T10:10:13Z</time>
      </trkpt>
      <trkpt lat="46.08041" lon="4.75634">
        <ele>173</ele>
        <time>2017-03-29T10:10:19Z</time>
      </trkpt>
      <trkpt lat="46.08039" lon="4.75635">
        <ele>173</ele>
        <time>2017-03-29T10:10:20Z</time>
      </trkpt>
      <trkpt lat="46.08034" lon="4.75639">
        <ele>173</ele>
        <time>2017-03-29T10:10:22Z</time>
      </trkpt>
      <trkpt lat="46.08031" lon="4.75642">
        <ele>173</ele>
        <time>2017-03-29T10:10:23Z</time>
      </trkpt>
      <trkpt lat="46.08025" lon="4.75646">
        <ele>174</ele>
        <time>2017-03-29T10:10:25Z</time>
      </trkpt>
      <trkpt lat="46.08021" lon="4.75646">
        <ele>174</ele>
        <time>2017-03-29T10:10:26Z</time>
      </trkpt>
      <trkpt lat="46.08015" lon="4.75644">
        <ele>174</ele>
        <time>2017-03-29T10:10:28Z</time>
      </trkpt>
      <trkpt lat="46.08011" lon="4.75642">
        <ele>174</ele>
        <time>2017-03-29T10:10:29Z</time>
      </trkpt>
      <trkpt lat="46.08005" lon="4.75644">
        <ele>174</ele>
        <time>2017-03-29T10:10:31Z</time>
      </trkpt>
      <trkpt lat="46.08002" lon="4.75646">
        <ele>174</ele>
        <time>2017-03-29T10:10:32Z</time>
      </trkpt>
      <trkpt lat="46.07996" lon="4.75651">
        <ele>172</ele>
        <time>2017-03-29T10:10:34Z</time>
      </trkpt>
      <trkpt lat="46.07993" lon="4.75653">
        <ele>172</ele>
        <time>2017-03-29T10:10:35Z</time>
      </trkpt>
      <trkpt lat="46.07987" lon="4.75659">
        <ele>172</ele>
        <time>2017-03-29T10:10:37Z</time>
      </trkpt>
      <trkpt lat="46.07983" lon="4.75663">
        <ele>172</ele>
        <time>2017-03-29T10:10:38Z</time>
      </trkpt>
      <trkpt lat="46.07977" lon="4.7567">
        <ele>174</ele>
        <time>2017-03-29T10:10:40Z</time>
      </trkpt>
      <trkpt lat="46.07974" lon="4.75673">
        <ele>174</ele>
        <time>2017-03-29T10:10:41Z</time>
      </trkpt>
      <trkpt lat="46.07968" lon="4.7568">
        <ele>173</ele>
        <time>2017-03-29T10:10:43Z</time>
      </trkpt>
      <trkpt lat="46.07965" lon="4.75683">
        <ele>173</ele>
        <time>2017-03-29T10:10:44Z</time>
      </trkpt>
      <trkpt lat="46.07958" lon="4.7569">
        <ele>173</ele>
        <time>2017-03-29T10:10:46Z</time>
      </trkpt>
      <trkpt lat="46.07955" lon="4.75693">
        <ele>172</ele>
        <time>2017-03-29T10:10:47Z</time>
      </trkpt>
      <trkpt lat="46.07952" lon="4.75698">
        <ele>172</ele>
        <time>2017-03-29T10:10:48Z</time>
      </trkpt>
      <trkpt lat="46.07949" lon="4.75702">
        <ele>172</ele>
        <time>2017-03-29T10:10:49Z</time>
      </trkpt>
      <trkpt lat="46.07945" lon="4.75706">
        <ele>172</ele>
        <time>2017-03-29T10:10:50Z</time>
      </trkpt>
      <trkpt lat="46.07941" lon="4.7571">
        <ele>172</ele>
        <time>2017-03-29T10:10:51Z</time>
      </trkpt>
      <trkpt lat="46.07934" lon="4.75717">
        <ele>172</ele>
        <time>2017-03-29T10:10:53Z</time>
      </trkpt>
      <trkpt lat="46.0793" lon="4.7572">
        <ele>172</ele>
        <time>2017-03-29T10:10:54Z</time>
      </trkpt>
      <trkpt lat="46.07923" lon="4.75727">
        <ele>173</ele>
        <time>2017-03-29T10:10:56Z</time>
      </trkpt>
      <trkpt lat="46.07919" lon="4.75731">
        <ele>173</ele>
        <time>2017-03-29T10:10:57Z</time>
      </trkpt>
      <trkpt lat="46.07916" lon="4.75735">
        <ele>171</ele>
        <time>2017-03-29T10:10:58Z</time>
      </trkpt>
      <trkpt lat="46.07912" lon="4.75739">
        <ele>171</ele>
        <time>2017-03-29T10:10:59Z</time>
      </trkpt>
      <trkpt lat="46.07908" lon="4.75744">
        <ele>171</ele>
        <time>2017-03-29T10:11:00Z</time>
      </trkpt>
      <trkpt lat="46.07905" lon="4.75748">
        <ele>171</ele>
        <time>2017-03-29T10:11:01Z</time>
      </trkpt>
      <trkpt lat="46.079" lon="4.75751">
        <ele>172</ele>
        <time>2017-03-29T10:11:02Z</time>
      </trkpt>
      <trkpt lat="46.07896" lon="4.75756">
        <ele>172</ele>
        <time>2017-03-29T10:11:03Z</time>
      </trkpt>
      <trkpt lat="46.07892" lon="4.7576">
        <ele>172</ele>
        <time>2017-03-29T10:11:04Z</time>
      </trkpt>
      <trkpt lat="46.07888" lon="4.75765">
        <ele>172</ele>
        <time>2017-03-29T10:11:05Z</time>
      </trkpt>
      <trkpt lat="46.07882" lon="4.75773">
        <ele>171</ele>
        <time>2017-03-29T10:11:07Z</time>
      </trkpt>
      <trkpt lat="46.07879" lon="4.75777">
        <ele>171</ele>
        <time>2017-03-29T10:11:08Z</time>
      </trkpt>
      <trkpt lat="46.07872" lon="4.75784">
        <ele>171</ele>
        <time>2017-03-29T10:11:10Z</time>
      </trkpt>
      <trkpt lat="46.07868" lon="4.75788">
        <ele>171</ele>
        <time>2017-03-29T10:11:11Z</time>
      </trkpt>
      <trkpt lat="46.07864" lon="4.75791">
        <ele>171</ele>
        <time>2017-03-29T10:11:12Z</time>
      </trkpt>
      <trkpt lat="46.0786" lon="4.75795">
        <ele>171</ele>
        <time>2017-03-29T10:11:13Z</time>
      </trkpt>
      <trkpt lat="46.07855" lon="4.75799">
        <ele>171</ele>
        <time>2017-03-29T10:11:14Z</time>
      </trkpt>
      <trkpt lat="46.07851" lon="4.75802">
        <ele>171</ele>
        <time>2017-03-29T10:11:15Z</time>
      </trkpt>
      <trkpt lat="46.07846" lon="4.75806">
        <ele>172</ele>
        <time>2017-03-29T10:11:16Z</time>
      </trkpt>
      <trkpt lat="46.07842" lon="4.7581">
        <ele>172</ele>
        <time>2017-03-29T10:11:17Z</time>
      </trkpt>
      <trkpt lat="46.07838" lon="4.75815">
        <ele>172</ele>
        <time>2017-03-29T10:11:18Z</time>
      </trkpt>
      <trkpt lat="46.07834" lon="4.7582">
        <ele>172</ele>
        <time>2017-03-29T10:11:19Z</time>
      </trkpt>
      <trkpt lat="46.0783" lon="4.75826">
        <ele>171</ele>
        <time>2017-03-29T10:11:20Z</time>
      </trkpt>
      <trkpt lat="46.07828" lon="4.7583">
        <ele>172</ele>
        <time>2017-03-29T10:11:21Z</time>
      </trkpt>
      <trkpt lat="46.07823" lon="4.75838">
        <ele>173</ele>
        <time>2017-03-29T10:11:23Z</time>
      </trkpt>
      <trkpt lat="46.07819" lon="4.75841">
        <ele>172</ele>
        <time>2017-03-29T10:11:24Z</time>
      </trkpt>
      <trkpt lat="46.07812" lon="4.75848">
        <ele>172</ele>
        <time>2017-03-29T10:11:26Z</time>
      </trkpt>
      <trkpt lat="46.07808" lon="4.75852">
        <ele>172</ele>
        <time>2017-03-29T10:11:27Z</time>
      </trkpt>
      <trkpt lat="46.07805" lon="4.75856">
        <ele>172</ele>
        <time>2017-03-29T10:11:28Z</time>
      </trkpt>
      <trkpt lat="46.07801" lon="4.7586">
        <ele>172</ele>
        <time>2017-03-29T10:11:29Z</time>
      </trkpt>
      <trkpt lat="46.07797" lon="4.75864">
        <ele>172</ele>
        <time>2017-03-29T10:11:30Z</time>
      </trkpt>
      <trkpt lat="46.07793" lon="4.75868">
        <ele>172</ele>
        <time>2017-03-29T10:11:31Z</time>
      </trkpt>
      <trkpt lat="46.07789" lon="4.75872">
        <ele>172</ele>
        <time>2017-03-29T10:11:32Z</time>
      </trkpt>
      <trkpt lat="46.07784" lon="4.75876">
        <ele>172</ele>
        <time>2017-03-29T10:11:33Z</time>
      </trkpt>
      <trkpt lat="46.0778" lon="4.7588">
        <ele>172</ele>
        <time>2017-03-29T10:11:34Z</time>
      </trkpt>
      <trkpt lat="46.07776" lon="4.75884">
        <ele>172</ele>
        <time>2017-03-29T10:11:35Z</time>
      </trkpt>
      <trkpt lat="46.07771" lon="4.75887">
        <ele>172</ele>
        <time>2017-03-29T10:11:36Z</time>
      </trkpt>
      <trkpt lat="46.07766" lon="4.75891">
        <ele>172</ele>
        <time>2017-03-29T10:11:37Z</time>
      </trkpt>
      <trkpt lat="46.07762" lon="4.75895">
        <ele>173</ele>
        <time>2017-03-29T10:11:38Z</time>
      </trkpt>
      <trkpt lat="46.07757" lon="4.75899">
        <ele>173</ele>
        <time>2017-03-29T10:11:39Z</time>
      </trkpt>
      <trkpt lat="46.07753" lon="4.75903">
        <ele>173</ele>
        <time>2017-03-29T10:11:40Z</time>
      </trkpt>
      <trkpt lat="46.07749" lon="4.75907">
        <ele>172</ele>
        <time>2017-03-29T10:11:41Z</time>
      </trkpt>
      <trkpt lat="46.07744" lon="4.7591">
        <ele>172</ele>
        <time>2017-03-29T10:11:42Z</time>
      </trkpt>
      <trkpt lat="46.0774" lon="4.75913">
        <ele>172</ele>
        <time>2017-03-29T10:11:43Z</time>
      </trkpt>
      <trkpt lat="46.07736" lon="4.75917">
        <ele>171</ele>
        <time>2017-03-29T10:11:44Z</time>
      </trkpt>
      <trkpt lat="46.07732" lon="4.7592">
        <ele>173</ele>
        <time>2017-03-29T10:11:45Z</time>
      </trkpt>
      <trkpt lat="46.07728" lon="4.75923">
        <ele>173</ele>
        <time>2017-03-29T10:11:46Z</time>
      </trkpt>
      <trkpt lat="46.07724" lon="4.75926">
        <ele>173</ele>
        <time>2017-03-29T10:11:47Z</time>
      </trkpt>
      <trkpt lat="46.0772" lon="4.75929">
        <ele>172</ele>
        <time>2017-03-29T10:11:48Z</time>
      </trkpt>
      <trkpt lat="46.07716" lon="4.75933">
        <ele>172</ele>
        <time>2017-03-29T10:11:49Z</time>
      </trkpt>
      <trkpt lat="46.07711" lon="4.75935">
        <ele>172</ele>
        <time>2017-03-29T10:11:50Z</time>
      </trkpt>
      <trkpt lat="46.07706" lon="4.75938">
        <ele>172</ele>
        <time>2017-03-29T10:11:51Z</time>
      </trkpt>
      <trkpt lat="46.07702" lon="4.75942">
        <ele>172</ele>
        <time>2017-03-29T10:11:52Z</time>
      </trkpt>
      <trkpt lat="46.07698" lon="4.75946">
        <ele>172</ele>
        <time>2017-03-29T10:11:53Z</time>
      </trkpt>
      <trkpt lat="46.07691" lon="4.75953">
        <ele>172</ele>
        <time>2017-03-29T10:11:55Z</time>
      </trkpt>
      <trkpt lat="46.07687" lon="4.75956">
        <ele>172</ele>
        <time>2017-03-29T10:11:56Z</time>
      </trkpt>
      <trkpt lat="46.07679" lon="4.75961">
        <ele>172</ele>
        <time>2017-03-29T10:11:58Z</time>
      </trkpt>
      <trkpt lat="46.07676" lon="4.75964">
        <ele>172</ele>
        <time>2017-03-29T10:11:59Z</time>
      </trkpt>
      <trkpt lat="46.07668" lon="4.75967">
        <ele>172</ele>
        <time>2017-03-29T10:12:01Z</time>
      </trkpt>
      <trkpt lat="46.07664" lon="4.75969">
        <ele>169</ele>
        <time>2017-03-29T10:12:02Z</time>
      </trkpt>
      <trkpt lat="46.07657" lon="4.75974">
        <ele>170</ele>
        <time>2017-03-29T10:12:04Z</time>
      </trkpt>
      <trkpt lat="46.07654" lon="4.75976">
        <ele>170</ele>
        <time>2017-03-29T10:12:05Z</time>
      </trkpt>
      <trkpt lat="46.07648" lon="4.75982">
        <ele>170</ele>
        <time>2017-03-29T10:12:07Z</time>
      </trkpt>
      <trkpt lat="46.07646" lon="4.75986">
        <ele>170</ele>
        <time>2017-03-29T10:12:08Z</time>
      </trkpt>
      <trkpt lat="46.07645" lon="4.75995">
        <ele>170</ele>
        <time>2017-03-29T10:12:10Z</time>
      </trkpt>
      <trkpt lat="46.07646" lon="4.76">
        <ele>170</ele>
        <time>2017-03-29T10:12:11Z</time>
      </trkpt>
      <trkpt lat="46.07648" lon="4.76009">
        <ele>172</ele>
        <time>2017-03-29T10:12:13Z</time>
      </trkpt>
      <trkpt lat="46.0765" lon="4.76013">
        <ele>172</ele>
        <time>2017-03-29T10:12:14Z</time>
      </trkpt>
      <trkpt lat="46.07654" lon="4.76021">
        <ele>172</ele>
        <time>2017-03-29T10:12:16Z</time>
      </trkpt>
      <trkpt lat="46.07656" lon="4.76026">
        <ele>172</ele>
        <time>2017-03-29T10:12:17Z</time>
      </trkpt>
      <trkpt lat="46.0766" lon="4.76036">
        <ele>172</ele>
        <time>2017-03-29T10:12:19Z</time>
      </trkpt>
      <trkpt lat="46.07661" lon="4.76041">
        <ele>172</ele>
        <time>2017-03-29T10:12:20Z</time>
      </trkpt>
      <trkpt lat="46.07665" lon="4.76052">
        <ele>172</ele>
        <time>2017-03-29T10:12:22Z</time>
      </trkpt>
      <trkpt lat="46.07667" lon="4.76057">
        <ele>174</ele>
        <time>2017-03-29T10:12:23Z</time>
      </trkpt>
      <trkpt lat="46.07669" lon="4.76063">
        <ele>174</ele>
        <time>2017-03-29T10:12:24Z</time>
      </trkpt>
      <trkpt lat="46.07671" lon="4.76069">
        <ele>174</ele>
        <time>2017-03-29T10:12:25Z</time>
      </trkpt>
      <trkpt lat="46.07674" lon="4.76079">
        <ele>174</ele>
        <time>2017-03-29T10:12:27Z</time>
      </trkpt>
      <trkpt lat="46.07675" lon="4.76084">
        <ele>173</ele>
        <time>2017-03-29T10:12:28Z</time>
      </trkpt>
      <trkpt lat="46.07677" lon="4.76093">
        <ele>173</ele>
        <time>2017-03-29T10:12:30Z</time>
      </trkpt>
      <trkpt lat="46.07676" lon="4.76097">
        <ele>173</ele>
        <time>2017-03-29T10:12:31Z</time>
      </trkpt>
      <trkpt lat="46.07671" lon="4.76104">
        <ele>173</ele>
        <time>2017-03-29T10:12:33Z</time>
      </trkpt>
      <trkpt lat="46.07667" lon="4.76107">
        <ele>173</ele>
        <time>2017-03-29T10:12:34Z</time>
      </trkpt>
      <trkpt lat="46.0766" lon="4.76113">
        <ele>172</ele>
        <time>2017-03-29T10:12:36Z</time>
      </trkpt>
      <trkpt lat="46.07656" lon="4.76117">
        <ele>172</ele>
        <time>2017-03-29T10:12:37Z</time>
      </trkpt>
      <trkpt lat="46.07652" lon="4.76121">
        <ele>172</ele>
        <time>2017-03-29T10:12:38Z</time>
      </trkpt>
      <trkpt lat="46.07648" lon="4.76124">
        <ele>172</ele>
        <time>2017-03-29T10:12:39Z</time>
      </trkpt>
      <trkpt lat="46.07644" lon="4.76127">
        <ele>172</ele>
        <time>2017-03-29T10:12:40Z</time>
      </trkpt>
      <trkpt lat="46.0764" lon="4.76131">
        <ele>172</ele>
        <time>2017-03-29T10:12:41Z</time>
      </trkpt>
      <trkpt lat="46.07636" lon="4.76135">
        <ele>172</ele>
        <time>2017-03-29T10:12:42Z</time>
      </trkpt>
      <trkpt lat="46.07632" lon="4.76139">
        <ele>172</ele>
        <time>2017-03-29T10:12:43Z</time>
      </trkpt>
      <trkpt lat="46.07628" lon="4.76143">
        <ele>172</ele>
        <time>2017-03-29T10:12:44Z</time>
      </trkpt>
      <trkpt lat="46.07624" lon="4.76148">
        <ele>172</ele>
        <time>2017-03-29T10:12:45Z</time>
      </trkpt>
      <trkpt lat="46.07619" lon="4.76152">
        <ele>172</ele>
        <time>2017-03-29T10:12:46Z</time>
      </trkpt>
      <trkpt lat="46.07616" lon="4.76156">
        <ele>172</ele>
        <time>2017-03-29T10:12:47Z</time>
      </trkpt>
      <trkpt lat="46.07612" lon="4.76161">
        <ele>172</ele>
        <time>2017-03-29T10:12:48Z</time>
      </trkpt>
      <trkpt lat="46.07609" lon="4.76165">
        <ele>172</ele>
        <time>2017-03-29T10:12:49Z</time>
      </trkpt>
      <trkpt lat="46.07603" lon="4.76173">
        <ele>173</ele>
        <time>2017-03-29T10:12:51Z</time>
      </trkpt>
      <trkpt lat="46.07599" lon="4.76177">
        <ele>173</ele>
        <time>2017-03-29T10:12:52Z</time>
      </trkpt>
      <trkpt lat="46.07595" lon="4.76182">
        <ele>173</ele>
        <time>2017-03-29T10:12:53Z</time>
      </trkpt>
      <trkpt lat="46.07591" lon="4.76188">
        <ele>173</ele>
        <time>2017-03-29T10:12:54Z</time>
      </trkpt>
      <trkpt lat="46.07586" lon="4.76192">
        <ele>173</ele>
        <time>2017-03-29T10:12:55Z</time>
      </trkpt>
      <trkpt lat="46.07582" lon="4.76197">
        <ele>173</ele>
        <time>2017-03-29T10:12:56Z</time>
      </trkpt>
      <trkpt lat="46.07578" lon="4.76202">
        <ele>173</ele>
        <time>2017-03-29T10:12:57Z</time>
      </trkpt>
      <trkpt lat="46.07574" lon="4.76207">
        <ele>173</ele>
        <time>2017-03-29T10:12:58Z</time>
      </trkpt>
      <trkpt lat="46.0757" lon="4.76213">
        <ele>173</ele>
        <time>2017-03-29T10:12:59Z</time>
      </trkpt>
      <trkpt lat="46.07566" lon="4.76218">
        <ele>173</ele>
        <time>2017-03-29T10:13:00Z</time>
      </trkpt>
      <trkpt lat="46.07562" lon="4.76223">
        <ele>173</ele>
        <time>2017-03-29T10:13:01Z</time>
      </trkpt>
      <trkpt lat="46.07558" lon="4.76228">
        <ele>173</ele>
        <time>2017-03-29T10:13:02Z</time>
      </trkpt>
      <trkpt lat="46.07554" lon="4.76233">
        <ele>173</ele>
        <time>2017-03-29T10:13:03Z</time>
      </trkpt>
      <trkpt lat="46.07551" lon="4.76238">
        <ele>173</ele>
        <time>2017-03-29T10:13:04Z</time>
      </trkpt>
      <trkpt lat="46.07547" lon="4.76242">
        <ele>173</ele>
        <time>2017-03-29T10:13:05Z</time>
      </trkpt>
      <trkpt lat="46.07543" lon="4.76246">
        <ele>173</ele>
        <time>2017-03-29T10:13:06Z</time>
      </trkpt>
      <trkpt lat="46.07539" lon="4.76249">
        <ele>173</ele>
        <time>2017-03-29T10:13:07Z</time>
      </trkpt>
      <trkpt lat="46.07535" lon="4.76253">
        <ele>174</ele>
        <time>2017-03-29T10:13:08Z</time>
      </trkpt>
      <trkpt lat="46.07531" lon="4.76258">
        <ele>174</ele>
        <time>2017-03-29T10:13:09Z</time>
      </trkpt>
      <trkpt lat="46.07527" lon="4.76263">
        <ele>174</ele>
        <time>2017-03-29T10:13:10Z</time>
      </trkpt>
      <trkpt lat="46.07522" lon="4.76267">
        <ele>174</ele>
        <time>2017-03-29T10:13:11Z</time>
      </trkpt>
      <trkpt lat="46.07518" lon="4.76272">
        <ele>174</ele>
        <time>2017-03-29T10:13:12Z</time>
      </trkpt>
      <trkpt lat="46.07514" lon="4.76277">
        <ele>174</ele>
        <time>2017-03-29T10:13:13Z</time>
      </trkpt>
      <trkpt lat="46.0751" lon="4.76282">
        <ele>174</ele>
        <time>2017-03-29T10:13:14Z</time>
      </trkpt>
      <trkpt lat="46.07506" lon="4.76287">
        <ele>174</ele>
        <time>2017-03-29T10:13:15Z</time>
      </trkpt>
      <trkpt lat="46.07502" lon="4.76292">
        <ele>174</ele>
        <time>2017-03-29T10:13:16Z</time>
      </trkpt>
      <trkpt lat="46.07497" lon="4.76296">
        <ele>173</ele>
        <time>2017-03-29T10:13:17Z</time>
      </trkpt>
      <trkpt lat="46.07492" lon="4.76299">
        <ele>173</ele>
        <time>2017-03-29T10:13:18Z</time>
      </trkpt>
      <trkpt lat="46.07488" lon="4.76302">
        <ele>173</ele>
        <time>2017-03-29T10:13:19Z</time>
      </trkpt>
      <trkpt lat="46.07482" lon="4.76304">
        <ele>172</ele>
        <time>2017-03-29T10:13:20Z</time>
      </trkpt>
      <trkpt lat="46.07478" lon="4.76306">
        <ele>172</ele>
        <time>2017-03-29T10:13:21Z</time>
      </trkpt>
      <trkpt lat="46.07473" lon="4.76309">
        <ele>172</ele>
        <time>2017-03-29T10:13:22Z</time>
      </trkpt>
      <trkpt lat="46.0747" lon="4.76315">
        <ele>172</ele>
        <time>2017-03-29T10:13:23Z</time>
      </trkpt>
      <trkpt lat="46.07468" lon="4.76321">
        <ele>172</ele>
        <time>2017-03-29T10:13:24Z</time>
      </trkpt>
      <trkpt lat="46.07465" lon="4.76328">
        <ele>172</ele>
        <time>2017-03-29T10:13:25Z</time>
      </trkpt>
      <trkpt lat="46.07462" lon="4.76333">
        <ele>172</ele>
        <time>2017-03-29T10:13:26Z</time>
      </trkpt>
      <trkpt lat="46.07458" lon="4.76339">
        <ele>172</ele>
        <time>2017-03-29T10:13:27Z</time>
      </trkpt>
      <trkpt lat="46.07454" lon="4.76343">
        <ele>172</ele>
        <time>2017-03-29T10:13:28Z</time>
      </trkpt>
      <trkpt lat="46.0745" lon="4.76349">
        <ele>172</ele>
        <time>2017-03-29T10:13:29Z</time>
      </trkpt>
      <trkpt lat="46.07445" lon="4.76354">
        <ele>171</ele>
        <time>2017-03-29T10:13:30Z</time>
      </trkpt>
      <trkpt lat="46.0744" lon="4.76359">
        <ele>171</ele>
        <time>2017-03-29T10:13:31Z</time>
      </trkpt>
      <trkpt lat="46.07435" lon="4.76364">
        <ele>171</ele>
        <time>2017-03-29T10:13:32Z</time>
      </trkpt>
      <trkpt lat="46.07431" lon="4.7637">
        <ele>171</ele>
        <time>2017-03-29T10:13:33Z</time>
      </trkpt>
      <trkpt lat="46.07426" lon="4.76374">
        <ele>171</ele>
        <time>2017-03-29T10:13:34Z</time>
      </trkpt>
      <trkpt lat="46.07421" lon="4.76379">
        <ele>171</ele>
        <time>2017-03-29T10:13:35Z</time>
      </trkpt>
      <trkpt lat="46.07417" lon="4.76384">
        <ele>170</ele>
        <time>2017-03-29T10:13:36Z</time>
      </trkpt>
      <trkpt lat="46.07412" lon="4.76388">
        <ele>170</ele>
        <time>2017-03-29T10:13:37Z</time>
      </trkpt>
      <trkpt lat="46.07408" lon="4.76393">
        <ele>170</ele>
        <time>2017-03-29T10:13:38Z</time>
      </trkpt>
      <trkpt lat="46.07403" lon="4.76399">
        <ele>170</ele>
        <time>2017-03-29T10:13:39Z</time>
      </trkpt>
      <trkpt lat="46.07399" lon="4.76404">
        <ele>170</ele>
        <time>2017-03-29T10:13:40Z</time>
      </trkpt>
      <trkpt lat="46.07394" lon="4.76409">
        <ele>170</ele>
        <time>2017-03-29T10:13:41Z</time>
      </trkpt>
      <trkpt lat="46.07389" lon="4.76414">
        <ele>170</ele>
        <time>2017-03-29T10:13:42Z</time>
      </trkpt>
      <trkpt lat="46.07384" lon="4.7642">
        <ele>171</ele>
        <time>2017-03-29T10:13:43Z</time>
      </trkpt>
      <trkpt lat="46.07379" lon="4.76424">
        <ele>171</ele>
        <time>2017-03-29T10:13:44Z</time>
      </trkpt>
      <trkpt lat="46.07374" lon="4.7643">
        <ele>171</ele>
        <time>2017-03-29T10:13:45Z</time>
      </trkpt>
      <trkpt lat="46.07369" lon="4.76435">
        <ele>171</ele>
        <time>2017-03-29T10:13:46Z</time>
      </trkpt>
      <trkpt lat="46.07364" lon="4.76441">
        <ele>171</ele>
        <time>2017-03-29T10:13:47Z</time>
      </trkpt>
      <trkpt lat="46.07359" lon="4.76446">
        <ele>171</ele>
        <time>2017-03-29T10:13:48Z</time>
      </trkpt>
      <trkpt lat="46.07354" lon="4.76452">
        <ele>171</ele>
        <time>2017-03-29T10:13:49Z</time>
      </trkpt>
      <trkpt lat="46.0735" lon="4.76457">
        <ele>171</ele>
        <time>2017-03-29T10:13:50Z</time>
      </trkpt>
      <trkpt lat="46.07345" lon="4.76462">
        <ele>171</ele>
        <time>2017-03-29T10:13:51Z</time>
      </trkpt>
      <trkpt lat="46.0734" lon="4.76466">
        <ele>171</ele>
        <time>2017-03-29T10:13:52Z</time>
      </trkpt>
      <trkpt lat="46.07335" lon="4.76471">
        <ele>171</ele>
        <time>2017-03-29T10:13:53Z</time>
      </trkpt>
      <trkpt lat="46.07332" lon="4.76476">
        <ele>170</ele>
        <time>2017-03-29T10:13:54Z</time>
      </trkpt>
      <trkpt lat="46.07328" lon="4.76481">
        <ele>170</ele>
        <time>2017-03-29T10:13:55Z</time>
      </trkpt>
      <trkpt lat="46.07324" lon="4.76485">
        <ele>170</ele>
        <time>2017-03-29T10:13:56Z</time>
      </trkpt>
      <trkpt lat="46.0732" lon="4.76489">
        <ele>170</ele>
        <time>2017-03-29T10:13:57Z</time>
      </trkpt>
      <trkpt lat="46.07316" lon="4.76492">
        <ele>170</ele>
        <time>2017-03-29T10:13:58Z</time>
      </trkpt>
      <trkpt lat="46.07311" lon="4.76496">
        <ele>170</ele>
        <time>2017-03-29T10:13:59Z</time>
      </trkpt>
      <trkpt lat="46.07307" lon="4.765">
        <ele>170</ele>
        <time>2017-03-29T10:14:00Z</time>
      </trkpt>
      <trkpt lat="46.07303" lon="4.76505">
        <ele>170</ele>
        <time>2017-03-29T10:14:01Z</time>
      </trkpt>
      <trkpt lat="46.07299" lon="4.7651">
        <ele>170</ele>
        <time>2017-03-29T10:14:02Z</time>
      </trkpt>
      <trkpt lat="46.07294" lon="4.76514">
        <ele>170</ele>
        <time>2017-03-29T10:14:03Z</time>
      </trkpt>
      <trkpt lat="46.0729" lon="4.76519">
        <ele>170</ele>
        <time>2017-03-29T10:14:04Z</time>
      </trkpt>
      <trkpt lat="46.07285" lon="4.76523">
        <ele>170</ele>
        <time>2017-03-29T10:14:05Z</time>
      </trkpt>
      <trkpt lat="46.0728" lon="4.76528">
        <ele>170</ele>
        <time>2017-03-29T10:14:06Z</time>
      </trkpt>
      <trkpt lat="46.07276" lon="4.76533">
        <ele>170</ele>
        <time>2017-03-29T10:14:07Z</time>
      </trkpt>
      <trkpt lat="46.07271" lon="4.76538">
        <ele>170</ele>
        <time>2017-03-29T10:14:08Z</time>
      </trkpt>
      <trkpt lat="46.07267" lon="4.76543">
        <ele>170</ele>
        <time>2017-03-29T10:14:09Z</time>
      </trkpt>
      <trkpt lat="46.07262" lon="4.76548">
        <ele>170</ele>
        <time>2017-03-29T10:14:10Z</time>
      </trkpt>
      <trkpt lat="46.07258" lon="4.76554">
        <ele>170</ele>
        <time>2017-03-29T10:14:11Z</time>
      </trkpt>
      <trkpt lat="46.07253" lon="4.76559">
        <ele>170</ele>
        <time>2017-03-29T10:14:12Z</time>
      </trkpt>
      <trkpt lat="46.07249" lon="4.76565">
        <ele>170</ele>
        <time>2017-03-29T10:14:13Z</time>
      </trkpt>
      <trkpt lat="46.07245" lon="4.7657">
        <ele>170</ele>
        <time>2017-03-29T10:14:14Z</time>
      </trkpt>
      <trkpt lat="46.07241" lon="4.76576">
        <ele>170</ele>
        <time>2017-03-29T10:14:15Z</time>
      </trkpt>
      <trkpt lat="46.07237" lon="4.76582">
        <ele>170</ele>
        <time>2017-03-29T10:14:16Z</time>
      </trkpt>
      <trkpt lat="46.07233" lon="4.76588">
        <ele>170</ele>
        <time>2017-03-29T10:14:17Z</time>
      </trkpt>
      <trkpt lat="46.07228" lon="4.76595">
        <ele>170</ele>
        <time>2017-03-29T10:14:18Z</time>
      </trkpt>
      <trkpt lat="46.07224" lon="4.76601">
        <ele>170</ele>
        <time>2017-03-29T10:14:19Z</time>
      </trkpt>
      <trkpt lat="46.07221" lon="4.76607">
        <ele>170</ele>
        <time>2017-03-29T10:14:20Z</time>
      </trkpt>
      <trkpt lat="46.07217" lon="4.76613">
        <ele>170</ele>
        <time>2017-03-29T10:14:21Z</time>
      </trkpt>
      <trkpt lat="46.07212" lon="4.76618">
        <ele>170</ele>
        <time>2017-03-29T10:14:22Z</time>
      </trkpt>
      <trkpt lat="46.07209" lon="4.76624">
        <ele>170</ele>
        <time>2017-03-29T10:14:23Z</time>
      </trkpt>
      <trkpt lat="46.07205" lon="4.7663">
        <ele>170</ele>
        <time>2017-03-29T10:14:24Z</time>
      </trkpt>
      <trkpt lat="46.07201" lon="4.76635">
        <ele>170</ele>
        <time>2017-03-29T10:14:25Z</time>
      </trkpt>
      <trkpt lat="46.07197" lon="4.7664">
        <ele>170</ele>
        <time>2017-03-29T10:14:26Z</time>
      </trkpt>
      <trkpt lat="46.07193" lon="4.76645">
        <ele>170</ele>
        <time>2017-03-29T10:14:27Z</time>
      </trkpt>
      <trkpt lat="46.07189" lon="4.76651">
        <ele>170</ele>
        <time>2017-03-29T10:14:28Z</time>
      </trkpt>
      <trkpt lat="46.07186" lon="4.76658">
        <ele>170</ele>
        <time>2017-03-29T10:14:29Z</time>
      </trkpt>
      <trkpt lat="46.07183" lon="4.76665">
        <ele>170</ele>
        <time>2017-03-29T10:14:30Z</time>
      </trkpt>
      <trkpt lat="46.07179" lon="4.76672">
        <ele>170</ele>
        <time>2017-03-29T10:14:31Z</time>
      </trkpt>
      <trkpt lat="46.07175" lon="4.76678">
        <ele>170</ele>
        <time>2017-03-29T10:14:32Z</time>
      </trkpt>
      <trkpt lat="46.07172" lon="4.76685">
        <ele>170</ele>
        <time>2017-03-29T10:14:33Z</time>
      </trkpt>
      <trkpt lat="46.07168" lon="4.76692">
        <ele>170</ele>
        <time>2017-03-29T10:14:34Z</time>
      </trkpt>
      <trkpt lat="46.07164" lon="4.767">
        <ele>170</ele>
        <time>2017-03-29T10:14:35Z</time>
      </trkpt>
      <trkpt lat="46.07161" lon="4.76706">
        <ele>170</ele>
        <time>2017-03-29T10:14:36Z</time>
      </trkpt>
      <trkpt lat="46.07157" lon="4.76713">
        <ele>170</ele>
        <time>2017-03-29T10:14:37Z</time>
      </trkpt>
      <trkpt lat="46.07154" lon="4.7672">
        <ele>170</ele>
        <time>2017-03-29T10:14:38Z</time>
      </trkpt>
      <trkpt lat="46.0715" lon="4.76726">
        <ele>170</ele>
        <time>2017-03-29T10:14:39Z</time>
      </trkpt>
      <trkpt lat="46.07147" lon="4.76732">
        <ele>171</ele>
        <time>2017-03-29T10:14:40Z</time>
      </trkpt>
      <trkpt lat="46.07143" lon="4.76738">
        <ele>171</ele>
        <time>2017-03-29T10:14:41Z</time>
      </trkpt>
      <trkpt lat="46.0714" lon="4.76744">
        <ele>171</ele>
        <time>2017-03-29T10:14:42Z</time>
      </trkpt>
      <trkpt lat="46.07137" lon="4.7675">
        <ele>171</ele>
        <time>2017-03-29T10:14:43Z</time>
      </trkpt>
      <trkpt lat="46.07134" lon="4.76756">
        <ele>171</ele>
        <time>2017-03-29T10:14:44Z</time>
      </trkpt>
      <trkpt lat="46.07132" lon="4.76762">
        <ele>171</ele>
        <time>2017-03-29T10:14:45Z</time>
      </trkpt>
      <trkpt lat="46.07129" lon="4.76769">
        <ele>171</ele>
        <time>2017-03-29T10:14:46Z</time>
      </trkpt>
      <trkpt lat="46.07126" lon="4.76775">
        <ele>171</ele>
        <time>2017-03-29T10:14:47Z</time>
      </trkpt>
      <trkpt lat="46.07123" lon="4.76782">
        <ele>171</ele>
        <time>2017-03-29T10:14:48Z</time>
      </trkpt>
      <trkpt lat="46.07119" lon="4.76788">
        <ele>171</ele>
        <time>2017-03-29T10:14:49Z</time>
      </trkpt>
      <trkpt lat="46.07116" lon="4.76795">
        <ele>172</ele>
        <time>2017-03-29T10:14:50Z</time>
      </trkpt>
      <trkpt lat="46.07113" lon="4.76801">
        <ele>172</ele>
        <time>2017-03-29T10:14:51Z</time>
      </trkpt>
      <trkpt lat="46.07109" lon="4.76807">
        <ele>172</ele>
        <time>2017-03-29T10:14:52Z</time>
      </trkpt>
      <trkpt lat="46.07106" lon="4.76814">
        <ele>172</ele>
        <time>2017-03-29T10:14:53Z</time>
      </trkpt>
      <trkpt lat="46.07102" lon="4.76821">
        <ele>172</ele>
        <time>2017-03-29T10:14:54Z</time>
      </trkpt>
      <trkpt lat="46.07098" lon="4.76827">
        <ele>172</ele>
        <time>2017-03-29T10:14:55Z</time>
      </trkpt>
      <trkpt lat="46.07095" lon="4.76834">
        <ele>172</ele>
        <time>2017-03-29T10:14:56Z</time>
      </trkpt>
      <trkpt lat="46.07091" lon="4.7684">
        <ele>172</ele>
        <time>2017-03-29T10:14:57Z</time>
      </trkpt>
      <trkpt lat="46.07088" lon="4.76847">
        <ele>172</ele>
        <time>2017-03-29T10:14:58Z</time>
      </trkpt>
      <trkpt lat="46.07085" lon="4.76854">
        <ele>173</ele>
        <time>2017-03-29T10:14:59Z</time>
      </trkpt>
      <trkpt lat="46.07081" lon="4.76861">
        <ele>172</ele>
        <time>2017-03-29T10:15:00Z</time>
      </trkpt>
      <trkpt lat="46.07078" lon="4.76868">
        <ele>172</ele>
        <time>2017-03-29T10:15:01Z</time>
      </trkpt>
      <trkpt lat="46.07074" lon="4.76874">
        <ele>172</ele>
        <time>2017-03-29T10:15:02Z</time>
      </trkpt>
      <trkpt lat="46.07071" lon="4.7688">
        <ele>172</ele>
        <time>2017-03-29T10:15:03Z</time>
      </trkpt>
      <trkpt lat="46.07068" lon="4.76887">
        <ele>172</ele>
        <time>2017-03-29T10:15:04Z</time>
      </trkpt>
      <trkpt lat="46.07065" lon="4.76894">
        <ele>172</ele>
        <time>2017-03-29T10:15:05Z</time>
      </trkpt>
      <trkpt lat="46.07062" lon="4.769">
        <ele>172</ele>
        <time>2017-03-29T10:15:06Z</time>
      </trkpt>
      <trkpt lat="46.07058" lon="4.76906">
        <ele>172</ele>
        <time>2017-03-29T10:15:07Z</time>
      </trkpt>
      <trkpt lat="46.07055" lon="4.76912">
        <ele>172</ele>
        <time>2017-03-29T10:15:08Z</time>
      </trkpt>
      <trkpt lat="46.07052" lon="4.76919">
        <ele>173</ele>
        <time>2017-03-29T10:15:09Z</time>
      </trkpt>
      <trkpt lat="46.07049" lon="4.76926">
        <ele>173</ele>
        <time>2017-03-29T10:15:10Z</time>
      </trkpt>
      <trkpt lat="46.07046" lon="4.76932">
        <ele>173</ele>
        <time>2017-03-29T10:15:11Z</time>
      </trkpt>
      <trkpt lat="46.07042" lon="4.76938">
        <ele>173</ele>
        <time>2017-03-29T10:15:12Z</time>
      </trkpt>
      <trkpt lat="46.07039" lon="4.76944">
        <ele>173</ele>
        <time>2017-03-29T10:15:13Z</time>
      </trkpt>
      <trkpt lat="46.07036" lon="4.7695">
        <ele>173</ele>
        <time>2017-03-29T10:15:14Z</time>
      </trkpt>
      <trkpt lat="46.07032" lon="4.76956">
        <ele>173</ele>
        <time>2017-03-29T10:15:15Z</time>
      </trkpt>
      <trkpt lat="46.07029" lon="4.76962">
        <ele>173</ele>
        <time>2017-03-29T10:15:16Z</time>
      </trkpt>
      <trkpt lat="46.07026" lon="4.76968">
        <ele>173</ele>
        <time>2017-03-29T10:15:17Z</time>
      </trkpt>
      <trkpt lat="46.07022" lon="4.76974">
        <ele>173</ele>
        <time>2017-03-29T10:15:18Z</time>
      </trkpt>
      <trkpt lat="46.07019" lon="4.7698">
        <ele>173</ele>
        <time>2017-03-29T10:15:19Z</time>
      </trkpt>
      <trkpt lat="46.07015" lon="4.76987">
        <ele>173</ele>
        <time>2017-03-29T10:15:20Z</time>
      </trkpt>
      <trkpt lat="46.07012" lon="4.76994">
        <ele>173</ele>
        <time>2017-03-29T10:15:21Z</time>
      </trkpt>
      <trkpt lat="46.07008" lon="4.77">
        <ele>173</ele>
        <time>2017-03-29T10:15:22Z</time>
      </trkpt>
      <trkpt lat="46.07005" lon="4.77007">
        <ele>173</ele>
        <time>2017-03-29T10:15:23Z</time>
      </trkpt>
      <trkpt lat="46.07002" lon="4.77013">
        <ele>174</ele>
        <time>2017-03-29T10:15:24Z</time>
      </trkpt>
      <trkpt lat="46.06999" lon="4.77018">
        <ele>173</ele>
        <time>2017-03-29T10:15:25Z</time>
      </trkpt>
      <trkpt lat="46.06996" lon="4.77023">
        <ele>173</ele>
        <time>2017-03-29T10:15:26Z</time>
      </trkpt>
      <trkpt lat="46.06991" lon="4.77031">
        <ele>173</ele>
        <time>2017-03-29T10:15:28Z</time>
      </trkpt>
      <trkpt lat="46.06988" lon="4.77036">
        <ele>173</ele>
        <time>2017-03-29T10:15:29Z</time>
      </trkpt>
      <trkpt lat="46.06982" lon="4.77045">
        <ele>173</ele>
        <time>2017-03-29T10:15:31Z</time>
      </trkpt>
      <trkpt lat="46.06979" lon="4.7705">
        <ele>173</ele>
        <time>2017-03-29T10:15:32Z</time>
      </trkpt>
      <trkpt lat="46.06973" lon="4.77059">
        <ele>173</ele>
        <time>2017-03-29T10:15:34Z</time>
      </trkpt>
      <trkpt lat="46.06969" lon="4.77062">
        <ele>173</ele>
        <time>2017-03-29T10:15:35Z</time>
      </trkpt>
      <trkpt lat="46.06964" lon="4.77064">
        <ele>173</ele>
        <time>2017-03-29T10:15:36Z</time>
      </trkpt>
      <trkpt lat="46.06958" lon="4.77065">
        <ele>173</ele>
        <time>2017-03-29T10:15:37Z</time>
      </trkpt>
      <trkpt lat="46.06953" lon="4.77067">
        <ele>173</ele>
        <time>2017-03-29T10:15:38Z</time>
      </trkpt>
      <trkpt lat="46.06947" lon="4.77068">
        <ele>173</ele>
        <time>2017-03-29T10:15:39Z</time>
      </trkpt>
      <trkpt lat="46.06941" lon="4.77069">
        <ele>173</ele>
        <time>2017-03-29T10:15:40Z</time>
      </trkpt>
      <trkpt lat="46.06935" lon="4.77069">
        <ele>173</ele>
        <time>2017-03-29T10:15:41Z</time>
      </trkpt>
      <trkpt lat="46.06928" lon="4.7707">
        <ele>173</ele>
        <time>2017-03-29T10:15:42Z</time>
      </trkpt>
      <trkpt lat="46.06922" lon="4.7707">
        <ele>173</ele>
        <time>2017-03-29T10:15:43Z</time>
      </trkpt>
      <trkpt lat="46.06916" lon="4.7707">
        <ele>173</ele>
        <time>2017-03-29T10:15:44Z</time>
      </trkpt>
      <trkpt lat="46.0691" lon="4.7707">
        <ele>173</ele>
        <time>2017-03-29T10:15:45Z</time>
      </trkpt>
      <trkpt lat="46.06906" lon="4.77071">
        <ele>173</ele>
        <time>2017-03-29T10:15:46Z</time>
      </trkpt>
      <trkpt lat="46.069" lon="4.77071">
        <ele>173</ele>
        <time>2017-03-29T10:15:47Z</time>
      </trkpt>
      <trkpt lat="46.06895" lon="4.77072">
        <ele>173</ele>
        <time>2017-03-29T10:15:48Z</time>
      </trkpt>
      <trkpt lat="46.06889" lon="4.77072">
        <ele>173</ele>
        <time>2017-03-29T10:15:49Z</time>
      </trkpt>
      <trkpt lat="46.06884" lon="4.77073">
        <ele>173</ele>
        <time>2017-03-29T10:15:50Z</time>
      </trkpt>
      <trkpt lat="46.06878" lon="4.77074">
        <ele>173</ele>
        <time>2017-03-29T10:15:51Z</time>
      </trkpt>
      <trkpt lat="46.06872" lon="4.77075">
        <ele>173</ele>
        <time>2017-03-29T10:15:52Z</time>
      </trkpt>
      <trkpt lat="46.06867" lon="4.77076">
        <ele>173</ele>
        <time>2017-03-29T10:15:53Z</time>
      </trkpt>
      <trkpt lat="46.06861" lon="4.77078">
        <ele>173</ele>
        <time>2017-03-29T10:15:54Z</time>
      </trkpt>
      <trkpt lat="46.06855" lon="4.77079">
        <ele>173</ele>
        <time>2017-03-29T10:15:55Z</time>
      </trkpt>
      <trkpt lat="46.0685" lon="4.77081">
        <ele>173</ele>
        <time>2017-03-29T10:15:56Z</time>
      </trkpt>
      <trkpt lat="46.06844" lon="4.77084">
        <ele>173</ele>
        <time>2017-03-29T10:15:57Z</time>
      </trkpt>
      <trkpt lat="46.06839" lon="4.77087">
        <ele>173</ele>
        <time>2017-03-29T10:15:58Z</time>
      </trkpt>
      <trkpt lat="46.06834" lon="4.7709">
        <ele>173</ele>
        <time>2017-03-29T10:15:59Z</time>
      </trkpt>
      <trkpt lat="46.06829" lon="4.77093">
        <ele>173</ele>
        <time>2017-03-29T10:16:00Z</time>
      </trkpt>
      <trkpt lat="46.06824" lon="4.77096">
        <ele>173</ele>
        <time>2017-03-29T10:16:01Z</time>
      </trkpt>
      <trkpt lat="46.06819" lon="4.77099">
        <ele>173</ele>
        <time>2017-03-29T10:16:02Z</time>
      </trkpt>
      <trkpt lat="46.06815" lon="4.77103">
        <ele>172</ele>
        <time>2017-03-29T10:16:03Z</time>
      </trkpt>
      <trkpt lat="46.0681" lon="4.77106">
        <ele>172</ele>
        <time>2017-03-29T10:16:04Z</time>
      </trkpt>
      <trkpt lat="46.06806" lon="4.7711">
        <ele>172</ele>
        <time>2017-03-29T10:16:05Z</time>
      </trkpt>
      <trkpt lat="46.06802" lon="4.77114">
        <ele>172</ele>
        <time>2017-03-29T10:16:06Z</time>
      </trkpt>
      <trkpt lat="46.06797" lon="4.77118">
        <ele>172</ele>
        <time>2017-03-29T10:16:07Z</time>
      </trkpt>
      <trkpt lat="46.06793" lon="4.77122">
        <ele>172</ele>
        <time>2017-03-29T10:16:08Z</time>
      </trkpt>
      <trkpt lat="46.06788" lon="4.77127">
        <ele>172</ele>
        <time>2017-03-29T10:16:09Z</time>
      </trkpt>
      <trkpt lat="46.06784" lon="4.77131">
        <ele>172</ele>
        <time>2017-03-29T10:16:10Z</time>
      </trkpt>
      <trkpt lat="46.06779" lon="4.77136">
        <ele>172</ele>
        <time>2017-03-29T10:16:11Z</time>
      </trkpt>
      <trkpt lat="46.06774" lon="4.77141">
        <ele>172</ele>
        <time>2017-03-29T10:16:12Z</time>
      </trkpt>
      <trkpt lat="46.06769" lon="4.77146">
        <ele>172</ele>
        <time>2017-03-29T10:16:13Z</time>
      </trkpt>
      <trkpt lat="46.06765" lon="4.77151">
        <ele>172</ele>
        <time>2017-03-29T10:16:14Z</time>
      </trkpt>
      <trkpt lat="46.0676" lon="4.77156">
        <ele>172</ele>
        <time>2017-03-29T10:16:15Z</time>
      </trkpt>
      <trkpt lat="46.06755" lon="4.77161">
        <ele>172</ele>
        <time>2017-03-29T10:16:16Z</time>
      </trkpt>
      <trkpt lat="46.0675" lon="4.77166">
        <ele>172</ele>
        <time>2017-03-29T10:16:17Z</time>
      </trkpt>
      <trkpt lat="46.06744" lon="4.7717">
        <ele>172</ele>
        <time>2017-03-29T10:16:18Z</time>
      </trkpt>
      <trkpt lat="46.06739" lon="4.77174">
        <ele>172</ele>
        <time>2017-03-29T10:16:19Z</time>
      </trkpt>
      <trkpt lat="46.06734" lon="4.77178">
        <ele>172</ele>
        <time>2017-03-29T10:16:20Z</time>
      </trkpt>
      <trkpt lat="46.06729" lon="4.77182">
        <ele>172</ele>
        <time>2017-03-29T10:16:21Z</time>
      </trkpt>
      <trkpt lat="46.06724" lon="4.77185">
        <ele>172</ele>
        <time>2017-03-29T10:16:22Z</time>
      </trkpt>
      <trkpt lat="46.06719" lon="4.77189">
        <ele>172</ele>
        <time>2017-03-29T10:16:23Z</time>
      </trkpt>
      <trkpt lat="46.06714" lon="4.77192">
        <ele>172</ele>
        <time>2017-03-29T10:16:24Z</time>
      </trkpt>
      <trkpt lat="46.06709" lon="4.77194">
        <ele>172</ele>
        <time>2017-03-29T10:16:25Z</time>
      </trkpt>
      <trkpt lat="46.06704" lon="4.77196">
        <ele>172</ele>
        <time>2017-03-29T10:16:26Z</time>
      </trkpt>
      <trkpt lat="46.06699" lon="4.77197">
        <ele>172</ele>
        <time>2017-03-29T10:16:27Z</time>
      </trkpt>
      <trkpt lat="46.06693" lon="4.77198">
        <ele>172</ele>
        <time>2017-03-29T10:16:28Z</time>
      </trkpt>
      <trkpt lat="46.06689" lon="4.772">
        <ele>172</ele>
        <time>2017-03-29T10:16:29Z</time>
      </trkpt>
      <trkpt lat="46.06684" lon="4.77204">
        <ele>172</ele>
        <time>2017-03-29T10:16:30Z</time>
      </trkpt>
      <trkpt lat="46.06681" lon="4.77208">
        <ele>172</ele>
        <time>2017-03-29T10:16:31Z</time>
      </trkpt>
      <trkpt lat="46.06679" lon="4.77214">
        <ele>172</ele>
        <time>2017-03-29T10:16:32Z</time>
      </trkpt>
      <trkpt lat="46.06678" lon="4.77221">
        <ele>172</ele>
        <time>2017-03-29T10:16:33Z</time>
      </trkpt>
      <trkpt lat="46.06678" lon="4.77228">
        <ele>172</ele>
        <time>2017-03-29T10:16:34Z</time>
      </trkpt>
      <trkpt lat="46.06677" lon="4.77235">
        <ele>172</ele>
        <time>2017-03-29T10:16:35Z</time>
      </trkpt>
      <trkpt lat="46.06677" lon="4.77241">
        <ele>173</ele>
        <time>2017-03-29T10:16:36Z</time>
      </trkpt>
      <trkpt lat="46.06675" lon="4.77248">
        <ele>173</ele>
        <time>2017-03-29T10:16:37Z</time>
      </trkpt>
      <trkpt lat="46.06673" lon="4.77254">
        <ele>173</ele>
        <time>2017-03-29T10:16:38Z</time>
      </trkpt>
      <trkpt lat="46.0667" lon="4.7726">
        <ele>173</ele>
        <time>2017-03-29T10:16:39Z</time>
      </trkpt>
      <trkpt lat="46.06667" lon="4.77266">
        <ele>173</ele>
        <time>2017-03-29T10:16:40Z</time>
      </trkpt>
      <trkpt lat="46.06665" lon="4.77273">
        <ele>174</ele>
        <time>2017-03-29T10:16:41Z</time>
      </trkpt>
      <trkpt lat="46.06662" lon="4.77279">
        <ele>174</ele>
        <time>2017-03-29T10:16:42Z</time>
      </trkpt>
      <trkpt lat="46.0666" lon="4.77285">
        <ele>174</ele>
        <time>2017-03-29T10:16:43Z</time>
      </trkpt>
      <trkpt lat="46.06657" lon="4.77292">
        <ele>174</ele>
        <time>2017-03-29T10:16:44Z</time>
      </trkpt>
      <trkpt lat="46.06654" lon="4.77298">
        <ele>174</ele>
        <time>2017-03-29T10:16:45Z</time>
      </trkpt>
      <trkpt lat="46.06652" lon="4.77304">
        <ele>174</ele>
        <time>2017-03-29T10:16:46Z</time>
      </trkpt>
      <trkpt lat="46.06649" lon="4.77311">
        <ele>174</ele>
        <time>2017-03-29T10:16:47Z</time>
      </trkpt>
      <trkpt lat="46.06646" lon="4.77318">
        <ele>174</ele>
        <time>2017-03-29T10:16:48Z</time>
      </trkpt>
      <trkpt lat="46.06643" lon="4.77324">
        <ele>174</ele>
        <time>2017-03-29T10:16:49Z</time>
      </trkpt>
      <trkpt lat="46.06641" lon="4.7733">
        <ele>174</ele>
        <time>2017-03-29T10:16:50Z</time>
      </trkpt>
      <trkpt lat="46.06638" lon="4.77336">
        <ele>175</ele>
        <time>2017-03-29T10:16:51Z</time>
      </trkpt>
      <trkpt lat="46.06636" lon="4.77343">
        <ele>176</ele>
        <time>2017-03-29T10:16:52Z</time>
      </trkpt>
      <trkpt lat="46.06633" lon="4.7735">
        <ele>176</ele>
        <time>2017-03-29T10:16:53Z</time>
      </trkpt>
      <trkpt lat="46.06631" lon="4.77356">
        <ele>176</ele>
        <time>2017-03-29T10:16:54Z</time>
      </trkpt>
      <trkpt lat="46.06628" lon="4.77362">
        <ele>176</ele>
        <time>2017-03-29T10:16:55Z</time>
      </trkpt>
      <trkpt lat="46.06625" lon="4.77368">
        <ele>176</ele>
        <time>2017-03-29T10:16:56Z</time>
      </trkpt>
      <trkpt lat="46.06623" lon="4.77374">
        <ele>176</ele>
        <time>2017-03-29T10:16:57Z</time>
      </trkpt>
      <trkpt lat="46.06619" lon="4.77385">
        <ele>177</ele>
        <time>2017-03-29T10:16:59Z</time>
      </trkpt>
      <trkpt lat="46.06617" lon="4.77391">
        <ele>177</ele>
        <time>2017-03-29T10:17:00Z</time>
      </trkpt>
      <trkpt lat="46.06615" lon="4.77397">
        <ele>177</ele>
        <time>2017-03-29T10:17:01Z</time>
      </trkpt>
      <trkpt lat="46.06612" lon="4.77403">
        <ele>177</ele>
        <time>2017-03-29T10:17:02Z</time>
      </trkpt>
      <trkpt lat="46.06608" lon="4.77414">
        <ele>177</ele>
        <time>2017-03-29T10:17:04Z</time>
      </trkpt>
      <trkpt lat="46.06606" lon="4.7742">
        <ele>179</ele>
        <time>2017-03-29T10:17:05Z</time>
      </trkpt>
      <trkpt lat="46.06602" lon="4.7743">
        <ele>179</ele>
        <time>2017-03-29T10:17:07Z</time>
      </trkpt>
      <trkpt lat="46.066" lon="4.77436">
        <ele>179</ele>
        <time>2017-03-29T10:17:08Z</time>
      </trkpt>
      <trkpt lat="46.06597" lon="4.77446">
        <ele>180</ele>
        <time>2017-03-29T10:17:10Z</time>
      </trkpt>
      <trkpt lat="46.06596" lon="4.77451">
        <ele>180</ele>
        <time>2017-03-29T10:17:11Z</time>
      </trkpt>
      <trkpt lat="46.06596" lon="4.77462">
        <ele>180</ele>
        <time>2017-03-29T10:17:13Z</time>
      </trkpt>
      <trkpt lat="46.06596" lon="4.77468">
        <ele>181</ele>
        <time>2017-03-29T10:17:14Z</time>
      </trkpt>
      <trkpt lat="46.066" lon="4.77477">
        <ele>181</ele>
        <time>2017-03-29T10:17:16Z</time>
      </trkpt>
      <trkpt lat="46.06602" lon="4.77482">
        <ele>181</ele>
        <time>2017-03-29T10:17:17Z</time>
      </trkpt>
      <trkpt lat="46.06607" lon="4.7749">
        <ele>181</ele>
        <time>2017-03-29T10:17:19Z</time>
      </trkpt>
      <trkpt lat="46.0661" lon="4.77494">
        <ele>181</ele>
        <time>2017-03-29T10:17:20Z</time>
      </trkpt>
      <trkpt lat="46.06614" lon="4.77502">
        <ele>183</ele>
        <time>2017-03-29T10:17:22Z</time>
      </trkpt>
      <trkpt lat="46.06616" lon="4.77507">
        <ele>183</ele>
        <time>2017-03-29T10:17:23Z</time>
      </trkpt>
      <trkpt lat="46.06619" lon="4.77517">
        <ele>183</ele>
        <time>2017-03-29T10:17:25Z</time>
      </trkpt>
      <trkpt lat="46.0662" lon="4.77522">
        <ele>183</ele>
        <time>2017-03-29T10:17:26Z</time>
      </trkpt>
      <trkpt lat="46.06623" lon="4.77532">
        <ele>183</ele>
        <time>2017-03-29T10:17:28Z</time>
      </trkpt>
      <trkpt lat="46.06624" lon="4.77537">
        <ele>183</ele>
        <time>2017-03-29T10:17:29Z</time>
      </trkpt>
      <trkpt lat="46.06626" lon="4.77548">
        <ele>183</ele>
        <time>2017-03-29T10:17:31Z</time>
      </trkpt>
      <trkpt lat="46.06626" lon="4.77553">
        <ele>183</ele>
        <time>2017-03-29T10:17:32Z</time>
      </trkpt>
      <trkpt lat="46.06629" lon="4.77561">
        <ele>183</ele>
        <time>2017-03-29T10:17:34Z</time>
      </trkpt>
      <trkpt lat="46.0663" lon="4.77565">
        <ele>183</ele>
        <time>2017-03-29T10:17:35Z</time>
      </trkpt>
      <trkpt lat="46.06631" lon="4.77576">
        <ele>183</ele>
        <time>2017-03-29T10:17:38Z</time>
      </trkpt>
      <trkpt lat="46.06632" lon="4.7758">
        <ele>183</ele>
        <time>2017-03-29T10:17:39Z</time>
      </trkpt>
      <trkpt lat="46.06631" lon="4.77592">
        <ele>185</ele>
        <time>2017-03-29T10:17:42Z</time>
      </trkpt>
      <trkpt lat="46.06631" lon="4.77596">
        <ele>185</ele>
        <time>2017-03-29T10:17:43Z</time>
      </trkpt>
      <trkpt lat="46.0663" lon="4.77607">
        <ele>185</ele>
        <time>2017-03-29T10:17:46Z</time>
      </trkpt>
      <trkpt lat="46.0663" lon="4.77611">
        <ele>185</ele>
        <time>2017-03-29T10:17:47Z</time>
      </trkpt>
      <trkpt lat="46.06629" lon="4.77623">
        <ele>185</ele>
        <time>2017-03-29T10:17:50Z</time>
      </trkpt>
      <trkpt lat="46.06628" lon="4.77627">
        <ele>185</ele>
        <time>2017-03-29T10:17:51Z</time>
      </trkpt>
      <trkpt lat="46.06624" lon="4.77637">
        <ele>185</ele>
        <time>2017-03-29T10:17:54Z</time>
      </trkpt>
      <trkpt lat="46.06623" lon="4.77641">
        <ele>185</ele>
        <time>2017-03-29T10:17:55Z</time>
      </trkpt>
      <trkpt lat="46.0662" lon="4.77653">
        <ele>185</ele>
        <time>2017-03-29T10:17:58Z</time>
      </trkpt>
      <trkpt lat="46.06618" lon="4.77656">
        <ele>185</ele>
        <time>2017-03-29T10:17:59Z</time>
      </trkpt>
      <trkpt lat="46.06614" lon="4.77662">
        <ele>185</ele>
        <time>2017-03-29T10:18:01Z</time>
      </trkpt>
      <trkpt lat="46.06612" lon="4.77666">
        <ele>185</ele>
        <time>2017-03-29T10:18:02Z</time>
      </trkpt>
      <trkpt lat="46.06606" lon="4.77673">
        <ele>187</ele>
        <time>2017-03-29T10:18:05Z</time>
      </trkpt>
      <trkpt lat="46.06603" lon="4.77675">
        <ele>187</ele>
        <time>2017-03-29T10:18:06Z</time>
      </trkpt>
      <trkpt lat="46.06597" lon="4.77679">
        <ele>187</ele>
        <time>2017-03-29T10:18:09Z</time>
      </trkpt>
      <trkpt lat="46.06594" lon="4.77681">
        <ele>187</ele>
        <time>2017-03-29T10:18:10Z</time>
      </trkpt>
      <trkpt lat="46.06587" lon="4.77684">
        <ele>187</ele>
        <time>2017-03-29T10:18:13Z</time>
      </trkpt>
      <trkpt lat="46.06584" lon="4.77686">
        <ele>187</ele>
        <time>2017-03-29T10:18:14Z</time>
      </trkpt>
      <trkpt lat="46.06576" lon="4.77691">
        <ele>188</ele>
        <time>2017-03-29T10:18:17Z</time>
      </trkpt>
      <trkpt lat="46.06573" lon="4.77692">
        <ele>188</ele>
        <time>2017-03-29T10:18:18Z</time>
      </trkpt>
      <trkpt lat="46.06566" lon="4.77699">
        <ele>189</ele>
        <time>2017-03-29T10:18:21Z</time>
      </trkpt>
      <trkpt lat="46.06564" lon="4.77701">
        <ele>189</ele>
        <time>2017-03-29T10:18:22Z</time>
      </trkpt>
      <trkpt lat="46.06558" lon="4.77707">
        <ele>189</ele>
        <time>2017-03-29T10:18:24Z</time>
      </trkpt>
      <trkpt lat="46.06555" lon="4.77711">
        <ele>189</ele>
        <time>2017-03-29T10:18:25Z</time>
      </trkpt>
      <trkpt lat="46.06548" lon="4.77718">
        <ele>189</ele>
        <time>2017-03-29T10:18:27Z</time>
      </trkpt>
      <trkpt lat="46.06546" lon="4.77723">
        <ele>189</ele>
        <time>2017-03-29T10:18:28Z</time>
      </trkpt>
      <trkpt lat="46.06541" lon="4.77731">
        <ele>190</ele>
        <time>2017-03-29T10:18:30Z</time>
      </trkpt>
      <trkpt lat="46.06538" lon="4.77734">
        <ele>190</ele>
        <time>2017-03-29T10:18:31Z</time>
      </trkpt>
      <trkpt lat="46.06532" lon="4.77742">
        <ele>190</ele>
        <time>2017-03-29T10:18:33Z</time>
      </trkpt>
      <trkpt lat="46.06529" lon="4.77746">
        <ele>190</ele>
        <time>2017-03-29T10:18:34Z</time>
      </trkpt>
      <trkpt lat="46.06524" lon="4.77755">
        <ele>192</ele>
        <time>2017-03-29T10:18:36Z</time>
      </trkpt>
      <trkpt lat="46.06522" lon="4.7776">
        <ele>192</ele>
        <time>2017-03-29T10:18:37Z</time>
      </trkpt>
      <trkpt lat="46.06517" lon="4.77769">
        <ele>192</ele>
        <time>2017-03-29T10:18:39Z</time>
      </trkpt>
      <trkpt lat="46.06514" lon="4.77773">
        <ele>192</ele>
        <time>2017-03-29T10:18:40Z</time>
      </trkpt>
      <trkpt lat="46.06509" lon="4.77782">
        <ele>192</ele>
        <time>2017-03-29T10:18:42Z</time>
      </trkpt>
      <trkpt lat="46.06507" lon="4.77787">
        <ele>192</ele>
        <time>2017-03-29T10:18:43Z</time>
      </trkpt>
      <trkpt lat="46.06502" lon="4.77796">
        <ele>192</ele>
        <time>2017-03-29T10:18:45Z</time>
      </trkpt>
      <trkpt lat="46.065" lon="4.77801">
        <ele>192</ele>
        <time>2017-03-29T10:18:46Z</time>
      </trkpt>
      <trkpt lat="46.06496" lon="4.77811">
        <ele>192</ele>
        <time>2017-03-29T10:18:48Z</time>
      </trkpt>
      <trkpt lat="46.06494" lon="4.77815">
        <ele>192</ele>
        <time>2017-03-29T10:18:49Z</time>
      </trkpt>
      <trkpt lat="46.06491" lon="4.77825">
        <ele>192</ele>
        <time>2017-03-29T10:18:51Z</time>
      </trkpt>
      <trkpt lat="46.06489" lon="4.7783">
        <ele>192</ele>
        <time>2017-03-29T10:18:52Z</time>
      </trkpt>
      <trkpt lat="46.06487" lon="4.7784">
        <ele>192</ele>
        <time>2017-03-29T10:18:54Z</time>
      </trkpt>
      <trkpt lat="46.06485" lon="4.77844">
        <ele>192</ele>
        <time>2017-03-29T10:18:55Z</time>
      </trkpt>
      <trkpt lat="46.06482" lon="4.77853">
        <ele>192</ele>
        <time>2017-03-29T10:18:57Z</time>
      </trkpt>
      <trkpt lat="46.06481" lon="4.77857">
        <ele>192</ele>
        <time>2017-03-29T10:18:58Z</time>
      </trkpt>
      <trkpt lat="46.06478" lon="4.77866">
        <ele>192</ele>
        <time>2017-03-29T10:19:00Z</time>
      </trkpt>
      <trkpt lat="46.06476" lon="4.7787">
        <ele>193</ele>
        <time>2017-03-29T10:19:01Z</time>
      </trkpt>
      <trkpt lat="46.06474" lon="4.77879">
        <ele>193</ele>
        <time>2017-03-29T10:19:03Z</time>
      </trkpt>
      <trkpt lat="46.06472" lon="4.77884">
        <ele>193</ele>
        <time>2017-03-29T10:19:04Z</time>
      </trkpt>
      <trkpt lat="46.06468" lon="4.77892">
        <ele>193</ele>
        <time>2017-03-29T10:19:06Z</time>
      </trkpt>
      <trkpt lat="46.06467" lon="4.77897">
        <ele>193</ele>
        <time>2017-03-29T10:19:07Z</time>
      </trkpt>
      <trkpt lat="46.06464" lon="4.77905">
        <ele>193</ele>
        <time>2017-03-29T10:19:09Z</time>
      </trkpt>
      <trkpt lat="46.06463" lon="4.77909">
        <ele>193</ele>
        <time>2017-03-29T10:19:10Z</time>
      </trkpt>
      <trkpt lat="46.0646" lon="4.77917">
        <ele>194</ele>
        <time>2017-03-29T10:19:12Z</time>
      </trkpt>
      <trkpt lat="46.06459" lon="4.77921">
        <ele>194</ele>
        <time>2017-03-29T10:19:13Z</time>
      </trkpt>
      <trkpt lat="46.06455" lon="4.77932">
        <ele>195</ele>
        <time>2017-03-29T10:19:16Z</time>
      </trkpt>
      <trkpt lat="46.06454" lon="4.77937">
        <ele>195</ele>
        <time>2017-03-29T10:19:17Z</time>
      </trkpt>
      <trkpt lat="46.06452" lon="4.77945">
        <ele>195</ele>
        <time>2017-03-29T10:19:19Z</time>
      </trkpt>
      <trkpt lat="46.06451" lon="4.7795">
        <ele>195</ele>
        <time>2017-03-29T10:19:20Z</time>
      </trkpt>
      <trkpt lat="46.0645" lon="4.77959">
        <ele>195</ele>
        <time>2017-03-29T10:19:22Z</time>
      </trkpt>
      <trkpt lat="46.06449" lon="4.77963">
        <ele>195</ele>
        <time>2017-03-29T10:19:23Z</time>
      </trkpt>
      <trkpt lat="46.06447" lon="4.77972">
        <ele>195</ele>
        <time>2017-03-29T10:19:25Z</time>
      </trkpt>
      <trkpt lat="46.06446" lon="4.77977">
        <ele>195</ele>
        <time>2017-03-29T10:19:26Z</time>
      </trkpt>
      <trkpt lat="46.06445" lon="4.77987">
        <ele>195</ele>
        <time>2017-03-29T10:19:28Z</time>
      </trkpt>
      <trkpt lat="46.06445" lon="4.77991">
        <ele>195</ele>
        <time>2017-03-29T10:19:29Z</time>
      </trkpt>
      <trkpt lat="46.06444" lon="4.78">
        <ele>195</ele>
        <time>2017-03-29T10:19:31Z</time>
      </trkpt>
      <trkpt lat="46.06442" lon="4.78004">
        <ele>197</ele>
        <time>2017-03-29T10:19:32Z</time>
      </trkpt>
      <trkpt lat="46.06439" lon="4.78013">
        <ele>197</ele>
        <time>2017-03-29T10:19:34Z</time>
      </trkpt>
      <trkpt lat="46.06436" lon="4.78017">
        <ele>197</ele>
        <time>2017-03-29T10:19:35Z</time>
      </trkpt>
      <trkpt lat="46.06431" lon="4.78024">
        <ele>198</ele>
        <time>2017-03-29T10:19:37Z</time>
      </trkpt>
      <trkpt lat="46.06429" lon="4.78028">
        <ele>198</ele>
        <time>2017-03-29T10:19:38Z</time>
      </trkpt>
      <trkpt lat="46.06424" lon="4.78034">
        <ele>198</ele>
        <time>2017-03-29T10:19:40Z</time>
      </trkpt>
      <trkpt lat="46.06422" lon="4.78036">
        <ele>198</ele>
        <time>2017-03-29T10:19:41Z</time>
      </trkpt>
      <trkpt lat="46.06417" lon="4.78042">
        <ele>197</ele>
        <time>2017-03-29T10:19:43Z</time>
      </trkpt>
      <trkpt lat="46.06414" lon="4.78046">
        <ele>197</ele>
        <time>2017-03-29T10:19:44Z</time>
      </trkpt>
      <trkpt lat="46.0641" lon="4.78054">
        <ele>198</ele>
        <time>2017-03-29T10:19:46Z</time>
      </trkpt>
      <trkpt lat="46.06408" lon="4.78058">
        <ele>198</ele>
        <time>2017-03-29T10:19:47Z</time>
      </trkpt>
      <trkpt lat="46.06403" lon="4.78066">
        <ele>198</ele>
        <time>2017-03-29T10:19:49Z</time>
      </trkpt>
      <trkpt lat="46.064" lon="4.7807">
        <ele>198</ele>
        <time>2017-03-29T10:19:50Z</time>
      </trkpt>
      <trkpt lat="46.06397" lon="4.7808">
        <ele>198</ele>
        <time>2017-03-29T10:19:52Z</time>
      </trkpt>
      <trkpt lat="46.06395" lon="4.78084">
        <ele>200</ele>
        <time>2017-03-29T10:19:53Z</time>
      </trkpt>
      <trkpt lat="46.06393" lon="4.78094">
        <ele>200</ele>
        <time>2017-03-29T10:19:55Z</time>
      </trkpt>
      <trkpt lat="46.06391" lon="4.78098">
        <ele>200</ele>
        <time>2017-03-29T10:19:56Z</time>
      </trkpt>
      <trkpt lat="46.06389" lon="4.78108">
        <ele>200</ele>
        <time>2017-03-29T10:19:58Z</time>
      </trkpt>
      <trkpt lat="46.06388" lon="4.78114">
        <ele>200</ele>
        <time>2017-03-29T10:19:59Z</time>
      </trkpt>
      <trkpt lat="46.06387" lon="4.78125">
        <ele>201</ele>
        <time>2017-03-29T10:20:01Z</time>
      </trkpt>
      <trkpt lat="46.06387" lon="4.78131">
        <ele>201</ele>
        <time>2017-03-29T10:20:02Z</time>
      </trkpt>
      <trkpt lat="46.06387" lon="4.78143">
        <ele>201</ele>
        <time>2017-03-29T10:20:04Z</time>
      </trkpt>
      <trkpt lat="46.06387" lon="4.78149">
        <ele>201</ele>
        <time>2017-03-29T10:20:05Z</time>
      </trkpt>
      <trkpt lat="46.06386" lon="4.78156">
        <ele>201</ele>
        <time>2017-03-29T10:20:06Z</time>
      </trkpt>
      <trkpt lat="46.06386" lon="4.78163">
        <ele>201</ele>
        <time>2017-03-29T10:20:07Z</time>
      </trkpt>
      <trkpt lat="46.06385" lon="4.78172">
        <ele>204</ele>
        <time>2017-03-29T10:20:09Z</time>
      </trkpt>
      <trkpt lat="46.06384" lon="4.78177">
        <ele>204</ele>
        <time>2017-03-29T10:20:10Z</time>
      </trkpt>
      <trkpt lat="46.06383" lon="4.78185">
        <ele>204</ele>
        <time>2017-03-29T10:20:12Z</time>
      </trkpt>
      <trkpt lat="46.06382" lon="4.7819">
        <ele>204</ele>
        <time>2017-03-29T10:20:13Z</time>
      </trkpt>
      <trkpt lat="46.06379" lon="4.78198">
        <ele>204</ele>
        <time>2017-03-29T10:20:15Z</time>
      </trkpt>
      <trkpt lat="46.06377" lon="4.78202">
        <ele>204</ele>
        <time>2017-03-29T10:20:16Z</time>
      </trkpt>
      <trkpt lat="46.06371" lon="4.78208">
        <ele>204</ele>
        <time>2017-03-29T10:20:18Z</time>
      </trkpt>
      <trkpt lat="46.06368" lon="4.78211">
        <ele>204</ele>
        <time>2017-03-29T10:20:19Z</time>
      </trkpt>
      <trkpt lat="46.06362" lon="4.78218">
        <ele>204</ele>
        <time>2017-03-29T10:20:21Z</time>
      </trkpt>
      <trkpt lat="46.06359" lon="4.78221">
        <ele>205</ele>
        <time>2017-03-29T10:20:22Z</time>
      </trkpt>
      <trkpt lat="46.06353" lon="4.78227">
        <ele>205</ele>
        <time>2017-03-29T10:20:24Z</time>
      </trkpt>
      <trkpt lat="46.0635" lon="4.78229">
        <ele>205</ele>
        <time>2017-03-29T10:20:25Z</time>
      </trkpt>
      <trkpt lat="46.06342" lon="4.7823">
        <ele>205</ele>
        <time>2017-03-29T10:20:27Z</time>
      </trkpt>
      <trkpt lat="46.06337" lon="4.78228">
        <ele>205</ele>
        <time>2017-03-29T10:20:28Z</time>
      </trkpt>
      <trkpt lat="46.06332" lon="4.78228">
        <ele>205</ele>
        <time>2017-03-29T10:20:29Z</time>
      </trkpt>
      <trkpt lat="46.06328" lon="4.78226">
        <ele>205</ele>
        <time>2017-03-29T10:20:30Z</time>
      </trkpt>
      <trkpt lat="46.06323" lon="4.78225">
        <ele>205</ele>
        <time>2017-03-29T10:20:31Z</time>
      </trkpt>
      <trkpt lat="46.06319" lon="4.78223">
        <ele>205</ele>
        <time>2017-03-29T10:20:32Z</time>
      </trkpt>
      <trkpt lat="46.0631" lon="4.7822">
        <ele>205</ele>
        <time>2017-03-29T10:20:34Z</time>
      </trkpt>
      <trkpt lat="46.06306" lon="4.78218">
        <ele>205</ele>
        <time>2017-03-29T10:20:35Z</time>
      </trkpt>
      <trkpt lat="46.06299" lon="4.78216">
        <ele>205</ele>
        <time>2017-03-29T10:20:37Z</time>
      </trkpt>
      <trkpt lat="46.06296" lon="4.78215">
        <ele>205</ele>
        <time>2017-03-29T10:20:38Z</time>
      </trkpt>
      <trkpt lat="46.0629" lon="4.7821">
        <ele>205</ele>
        <time>2017-03-29T10:20:40Z</time>
      </trkpt>
      <trkpt lat="46.06287" lon="4.78208">
        <ele>205</ele>
        <time>2017-03-29T10:20:41Z</time>
      </trkpt>
      <trkpt lat="46.06281" lon="4.78203">
        <ele>205</ele>
        <time>2017-03-29T10:20:43Z</time>
      </trkpt>
      <trkpt lat="46.06278" lon="4.78201">
        <ele>205</ele>
        <time>2017-03-29T10:20:44Z</time>
      </trkpt>
      <trkpt lat="46.0627" lon="4.78196">
        <ele>205</ele>
        <time>2017-03-29T10:20:46Z</time>
      </trkpt>
      <trkpt lat="46.06266" lon="4.78194">
        <ele>205</ele>
        <time>2017-03-29T10:20:47Z</time>
      </trkpt>
      <trkpt lat="46.06261" lon="4.7819">
        <ele>205</ele>
        <time>2017-03-29T10:20:48Z</time>
      </trkpt>
      <trkpt lat="46.06257" lon="4.78187">
        <ele>205</ele>
        <time>2017-03-29T10:20:49Z</time>
      </trkpt>
      <trkpt lat="46.06252" lon="4.78183">
        <ele>205</ele>
        <time>2017-03-29T10:20:50Z</time>
      </trkpt>
      <trkpt lat="46.06248" lon="4.7818">
        <ele>206</ele>
        <time>2017-03-29T10:20:51Z</time>
      </trkpt>
      <trkpt lat="46.0624" lon="4.78175">
        <ele>206</ele>
        <time>2017-03-29T10:20:53Z</time>
      </trkpt>
      <trkpt lat="46.06237" lon="4.78173">
        <ele>206</ele>
        <time>2017-03-29T10:20:54Z</time>
      </trkpt>
      <trkpt lat="46.06231" lon="4.78167">
        <ele>206</ele>
        <time>2017-03-29T10:20:56Z</time>
      </trkpt>
      <trkpt lat="46.06227" lon="4.78164">
        <ele>205</ele>
        <time>2017-03-29T10:20:57Z</time>
      </trkpt>
      <trkpt lat="46.06219" lon="4.78159">
        <ele>205</ele>
        <time>2017-03-29T10:20:59Z</time>
      </trkpt>
      <trkpt lat="46.06215" lon="4.78157">
        <ele>205</ele>
        <time>2017-03-29T10:21:00Z</time>
      </trkpt>
      <trkpt lat="46.06207" lon="4.78153">
        <ele>205</ele>
        <time>2017-03-29T10:21:02Z</time>
      </trkpt>
      <trkpt lat="46.06203" lon="4.7815">
        <ele>205</ele>
        <time>2017-03-29T10:21:03Z</time>
      </trkpt>
      <trkpt lat="46.06196" lon="4.78145">
        <ele>205</ele>
        <time>2017-03-29T10:21:05Z</time>
      </trkpt>
      <trkpt lat="46.06193" lon="4.78142">
        <ele>205</ele>
        <time>2017-03-29T10:21:06Z</time>
      </trkpt>
      <trkpt lat="46.06187" lon="4.78136">
        <ele>206</ele>
        <time>2017-03-29T10:21:08Z</time>
      </trkpt>
      <trkpt lat="46.06184" lon="4.78134">
        <ele>206</ele>
        <time>2017-03-29T10:21:09Z</time>
      </trkpt>
      <trkpt lat="46.06176" lon="4.78129">
        <ele>206</ele>
        <time>2017-03-29T10:21:11Z</time>
      </trkpt>
      <trkpt lat="46.06172" lon="4.78127">
        <ele>206</ele>
        <time>2017-03-29T10:21:12Z</time>
      </trkpt>
      <trkpt lat="46.06164" lon="4.78123">
        <ele>208</ele>
        <time>2017-03-29T10:21:14Z</time>
      </trkpt>
      <trkpt lat="46.06161" lon="4.7812">
        <ele>208</ele>
        <time>2017-03-29T10:21:15Z</time>
      </trkpt>
      <trkpt lat="46.06153" lon="4.78114">
        <ele>208</ele>
        <time>2017-03-29T10:21:17Z</time>
      </trkpt>
      <trkpt lat="46.0615" lon="4.78111">
        <ele>208</ele>
        <time>2017-03-29T10:21:18Z</time>
      </trkpt>
      <trkpt lat="46.06144" lon="4.78104">
        <ele>208</ele>
        <time>2017-03-29T10:21:20Z</time>
      </trkpt>
      <trkpt lat="46.0614" lon="4.78101">
        <ele>208</ele>
        <time>2017-03-29T10:21:21Z</time>
      </trkpt>
      <trkpt lat="46.06134" lon="4.78094">
        <ele>209</ele>
        <time>2017-03-29T10:21:23Z</time>
      </trkpt>
      <trkpt lat="46.06131" lon="4.78091">
        <ele>209</ele>
        <time>2017-03-29T10:21:24Z</time>
      </trkpt>
      <trkpt lat="46.06127" lon="4.78084">
        <ele>209</ele>
        <time>2017-03-29T10:21:26Z</time>
      </trkpt>
      <trkpt lat="46.06125" lon="4.7808">
        <ele>209</ele>
        <time>2017-03-29T10:21:27Z</time>
      </trkpt>
      <trkpt lat="46.06121" lon="4.78072">
        <ele>209</ele>
        <time>2017-03-29T10:21:29Z</time>
      </trkpt>
      <trkpt lat="46.06118" lon="4.78068">
        <ele>210</ele>
        <time>2017-03-29T10:21:30Z</time>
      </trkpt>
      <trkpt lat="46.06114" lon="4.7806">
        <ele>210</ele>
        <time>2017-03-29T10:21:32Z</time>
      </trkpt>
      <trkpt lat="46.06111" lon="4.78056">
        <ele>210</ele>
        <time>2017-03-29T10:21:33Z</time>
      </trkpt>
      <trkpt lat="46.06106" lon="4.78048">
        <ele>210</ele>
        <time>2017-03-29T10:21:35Z</time>
      </trkpt>
      <trkpt lat="46.06102" lon="4.78045">
        <ele>210</ele>
        <time>2017-03-29T10:21:36Z</time>
      </trkpt>
      <trkpt lat="46.06097" lon="4.78042">
        <ele>210</ele>
        <time>2017-03-29T10:21:37Z</time>
      </trkpt>
      <trkpt lat="46.0609" lon="4.78039">
        <ele>210</ele>
        <time>2017-03-29T10:21:38Z</time>
      </trkpt>
      <trkpt lat="46.06086" lon="4.78036">
        <ele>210</ele>
        <time>2017-03-29T10:21:39Z</time>
      </trkpt>
      <trkpt lat="46.06082" lon="4.78033">
        <ele>211</ele>
        <time>2017-03-29T10:21:40Z</time>
      </trkpt>
      <trkpt lat="46.06077" lon="4.78029">
        <ele>211</ele>
        <time>2017-03-29T10:21:41Z</time>
      </trkpt>
      <trkpt lat="46.06074" lon="4.78027">
        <ele>211</ele>
        <time>2017-03-29T10:21:42Z</time>
      </trkpt>
      <trkpt lat="46.06066" lon="4.7802">
        <ele>211</ele>
        <time>2017-03-29T10:21:44Z</time>
      </trkpt>
      <trkpt lat="46.06063" lon="4.78016">
        <ele>211</ele>
        <time>2017-03-29T10:21:45Z</time>
      </trkpt>
      <trkpt lat="46.06058" lon="4.78008">
        <ele>211</ele>
        <time>2017-03-29T10:21:47Z</time>
      </trkpt>
      <trkpt lat="46.06055" lon="4.78004">
        <ele>211</ele>
        <time>2017-03-29T10:21:48Z</time>
      </trkpt>
      <trkpt lat="46.06049" lon="4.77996">
        <ele>211</ele>
        <time>2017-03-29T10:21:50Z</time>
      </trkpt>
      <trkpt lat="46.06046" lon="4.77992">
        <ele>211</ele>
        <time>2017-03-29T10:21:51Z</time>
      </trkpt>
      <trkpt lat="46.06041" lon="4.77984">
        <ele>211</ele>
        <time>2017-03-29T10:21:53Z</time>
      </trkpt>
      <trkpt lat="46.06038" lon="4.77979">
        <ele>211</ele>
        <time>2017-03-29T10:21:54Z</time>
      </trkpt>
      <trkpt lat="46.06031" lon="4.77971">
        <ele>211</ele>
        <time>2017-03-29T10:21:56Z</time>
      </trkpt>
      <trkpt lat="46.06028" lon="4.77967">
        <ele>211</ele>
        <time>2017-03-29T10:21:57Z</time>
      </trkpt>
      <trkpt lat="46.06024" lon="4.77964">
        <ele>211</ele>
        <time>2017-03-29T10:21:58Z</time>
      </trkpt>
      <trkpt lat="46.0602" lon="4.7796">
        <ele>211</ele>
        <time>2017-03-29T10:21:59Z</time>
      </trkpt>
      <trkpt lat="46.06013" lon="4.77953">
        <ele>211</ele>
        <time>2017-03-29T10:22:01Z</time>
      </trkpt>
      <trkpt lat="46.0601" lon="4.77948">
        <ele>211</ele>
        <time>2017-03-29T10:22:02Z</time>
      </trkpt>
      <trkpt lat="46.06006" lon="4.77937">
        <ele>211</ele>
        <time>2017-03-29T10:22:04Z</time>
      </trkpt>
      <trkpt lat="46.06005" lon="4.77932">
        <ele>211</ele>
        <time>2017-03-29T10:22:05Z</time>
      </trkpt>
      <trkpt lat="46.06001" lon="4.77921">
        <ele>211</ele>
        <time>2017-03-29T10:22:07Z</time>
      </trkpt>
      <trkpt lat="46.05998" lon="4.77915">
        <ele>211</ele>
        <time>2017-03-29T10:22:08Z</time>
      </trkpt>
      <trkpt lat="46.05996" lon="4.77908">
        <ele>211</ele>
        <time>2017-03-29T10:22:09Z</time>
      </trkpt>
      <trkpt lat="46.05996" lon="4.77901">
        <ele>211</ele>
        <time>2017-03-29T10:22:10Z</time>
      </trkpt>
      <trkpt lat="46.05994" lon="4.77895">
        <ele>211</ele>
        <time>2017-03-29T10:22:11Z</time>
      </trkpt>
      <trkpt lat="46.05991" lon="4.7789">
        <ele>211</ele>
        <time>2017-03-29T10:22:12Z</time>
      </trkpt>
      <trkpt lat="46.05985" lon="4.7788">
        <ele>211</ele>
        <time>2017-03-29T10:22:14Z</time>
      </trkpt>
      <trkpt lat="46.05983" lon="4.77875">
        <ele>211</ele>
        <time>2017-03-29T10:22:15Z</time>
      </trkpt>
      <trkpt lat="46.0598" lon="4.7787">
        <ele>211</ele>
        <time>2017-03-29T10:22:16Z</time>
      </trkpt>
      <trkpt lat="46.05977" lon="4.77865">
        <ele>211</ele>
        <time>2017-03-29T10:22:17Z</time>
      </trkpt>
      <trkpt lat="46.05974" lon="4.7786">
        <ele>211</ele>
        <time>2017-03-29T10:22:18Z</time>
      </trkpt>
      <trkpt lat="46.05972" lon="4.77855">
        <ele>211</ele>
        <time>2017-03-29T10:22:19Z</time>
      </trkpt>
      <trkpt lat="46.05969" lon="4.7785">
        <ele>211</ele>
        <time>2017-03-29T10:22:20Z</time>
      </trkpt>
      <trkpt lat="46.05965" lon="4.77845">
        <ele>211</ele>
        <time>2017-03-29T10:22:21Z</time>
      </trkpt>
      <trkpt lat="46.05963" lon="4.7784">
        <ele>211</ele>
        <time>2017-03-29T10:22:22Z</time>
      </trkpt>
      <trkpt lat="46.0596" lon="4.77835">
        <ele>211</ele>
        <time>2017-03-29T10:22:23Z</time>
      </trkpt>
      <trkpt lat="46.05956" lon="4.77825">
        <ele>210</ele>
        <time>2017-03-29T10:22:25Z</time>
      </trkpt>
      <trkpt lat="46.05953" lon="4.7782">
        <ele>210</ele>
        <time>2017-03-29T10:22:26Z</time>
      </trkpt>
      <trkpt lat="46.05949" lon="4.7781">
        <ele>210</ele>
        <time>2017-03-29T10:22:28Z</time>
      </trkpt>
      <trkpt lat="46.05944" lon="4.77804">
        <ele>210</ele>
        <time>2017-03-29T10:22:29Z</time>
      </trkpt>
      <trkpt lat="46.0594" lon="4.77798">
        <ele>209</ele>
        <time>2017-03-29T10:22:30Z</time>
      </trkpt>
      <trkpt lat="46.05936" lon="4.77792">
        <ele>209</ele>
        <time>2017-03-29T10:22:31Z</time>
      </trkpt>
      <trkpt lat="46.05932" lon="4.77785">
        <ele>209</ele>
        <time>2017-03-29T10:22:32Z</time>
      </trkpt>
      <trkpt lat="46.05927" lon="4.77779">
        <ele>209</ele>
        <time>2017-03-29T10:22:33Z</time>
      </trkpt>
      <trkpt lat="46.05923" lon="4.77771">
        <ele>209</ele>
        <time>2017-03-29T10:22:34Z</time>
      </trkpt>
      <trkpt lat="46.0592" lon="4.77764">
        <ele>209</ele>
        <time>2017-03-29T10:22:35Z</time>
      </trkpt>
      <trkpt lat="46.05916" lon="4.77755">
        <ele>209</ele>
        <time>2017-03-29T10:22:36Z</time>
      </trkpt>
      <trkpt lat="46.05913" lon="4.77747">
        <ele>209</ele>
        <time>2017-03-29T10:22:37Z</time>
      </trkpt>
      <trkpt lat="46.05911" lon="4.77738">
        <ele>209</ele>
        <time>2017-03-29T10:22:38Z</time>
      </trkpt>
      <trkpt lat="46.05908" lon="4.77729">
        <ele>209</ele>
        <time>2017-03-29T10:22:39Z</time>
      </trkpt>
      <trkpt lat="46.05905" lon="4.7772">
        <ele>208</ele>
        <time>2017-03-29T10:22:40Z</time>
      </trkpt>
      <trkpt lat="46.05903" lon="4.77711">
        <ele>208</ele>
        <time>2017-03-29T10:22:41Z</time>
      </trkpt>
      <trkpt lat="46.05901" lon="4.77702">
        <ele>208</ele>
        <time>2017-03-29T10:22:42Z</time>
      </trkpt>
      <trkpt lat="46.05899" lon="4.77693">
        <ele>208</ele>
        <time>2017-03-29T10:22:43Z</time>
      </trkpt>
      <trkpt lat="46.05897" lon="4.77684">
        <ele>208</ele>
        <time>2017-03-29T10:22:44Z</time>
      </trkpt>
      <trkpt lat="46.05894" lon="4.77676">
        <ele>208</ele>
        <time>2017-03-29T10:22:45Z</time>
      </trkpt>
      <trkpt lat="46.05891" lon="4.77668">
        <ele>208</ele>
        <time>2017-03-29T10:22:46Z</time>
      </trkpt>
      <trkpt lat="46.05888" lon="4.77661">
        <ele>207</ele>
        <time>2017-03-29T10:22:47Z</time>
      </trkpt>
      <trkpt lat="46.05884" lon="4.77654">
        <ele>208</ele>
        <time>2017-03-29T10:22:48Z</time>
      </trkpt>
      <trkpt lat="46.0588" lon="4.77648">
        <ele>208</ele>
        <time>2017-03-29T10:22:49Z</time>
      </trkpt>
      <trkpt lat="46.05876" lon="4.77642">
        <ele>208</ele>
        <time>2017-03-29T10:22:50Z</time>
      </trkpt>
      <trkpt lat="46.05871" lon="4.77637">
        <ele>208</ele>
        <time>2017-03-29T10:22:51Z</time>
      </trkpt>
      <trkpt lat="46.05866" lon="4.77632">
        <ele>208</ele>
        <time>2017-03-29T10:22:52Z</time>
      </trkpt>
      <trkpt lat="46.05862" lon="4.77628">
        <ele>208</ele>
        <time>2017-03-29T10:22:53Z</time>
      </trkpt>
      <trkpt lat="46.05858" lon="4.77623">
        <ele>208</ele>
        <time>2017-03-29T10:22:54Z</time>
      </trkpt>
      <trkpt lat="46.05853" lon="4.77618">
        <ele>208</ele>
        <time>2017-03-29T10:22:55Z</time>
      </trkpt>
      <trkpt lat="46.05849" lon="4.77613">
        <ele>208</ele>
        <time>2017-03-29T10:22:56Z</time>
      </trkpt>
      <trkpt lat="46.05844" lon="4.77608">
        <ele>208</ele>
        <time>2017-03-29T10:22:57Z</time>
      </trkpt>
      <trkpt lat="46.05838" lon="4.77603">
        <ele>208</ele>
        <time>2017-03-29T10:22:58Z</time>
      </trkpt>
      <trkpt lat="46.05833" lon="4.77598">
        <ele>208</ele>
        <time>2017-03-29T10:22:59Z</time>
      </trkpt>
      <trkpt lat="46.05828" lon="4.77593">
        <ele>208</ele>
        <time>2017-03-29T10:23:00Z</time>
      </trkpt>
      <trkpt lat="46.05824" lon="4.77588">
        <ele>208</ele>
        <time>2017-03-29T10:23:01Z</time>
      </trkpt>
      <trkpt lat="46.05819" lon="4.77583">
        <ele>208</ele>
        <time>2017-03-29T10:23:02Z</time>
      </trkpt>
      <trkpt lat="46.05816" lon="4.77579">
        <ele>208</ele>
        <time>2017-03-29T10:23:03Z</time>
      </trkpt>
      <trkpt lat="46.05809" lon="4.77571">
        <ele>208</ele>
        <time>2017-03-29T10:23:05Z</time>
      </trkpt>
      <trkpt lat="46.05806" lon="4.77568">
        <ele>208</ele>
        <time>2017-03-29T10:23:06Z</time>
      </trkpt>
      <trkpt lat="46.05803" lon="4.77563">
        <ele>208</ele>
        <time>2017-03-29T10:23:07Z</time>
      </trkpt>
      <trkpt lat="46.05799" lon="4.77558">
        <ele>208</ele>
        <time>2017-03-29T10:23:08Z</time>
      </trkpt>
      <trkpt lat="46.05796" lon="4.77553">
        <ele>208</ele>
        <time>2017-03-29T10:23:09Z</time>
      </trkpt>
      <trkpt lat="46.05792" lon="4.77548">
        <ele>208</ele>
        <time>2017-03-29T10:23:10Z</time>
      </trkpt>
      <trkpt lat="46.05788" lon="4.77543">
        <ele>208</ele>
        <time>2017-03-29T10:23:11Z</time>
      </trkpt>
      <trkpt lat="46.05784" lon="4.77538">
        <ele>208</ele>
        <time>2017-03-29T10:23:12Z</time>
      </trkpt>
      <trkpt lat="46.0578" lon="4.77533">
        <ele>208</ele>
        <time>2017-03-29T10:23:13Z</time>
      </trkpt>
      <trkpt lat="46.05776" lon="4.77528">
        <ele>208</ele>
        <time>2017-03-29T10:23:14Z</time>
      </trkpt>
      <trkpt lat="46.05772" lon="4.77523">
        <ele>208</ele>
        <time>2017-03-29T10:23:15Z</time>
      </trkpt>
      <trkpt lat="46.05769" lon="4.77518">
        <ele>208</ele>
        <time>2017-03-29T10:23:16Z</time>
      </trkpt>
      <trkpt lat="46.05765" lon="4.77513">
        <ele>208</ele>
        <time>2017-03-29T10:23:17Z</time>
      </trkpt>
      <trkpt lat="46.05762" lon="4.77508">
        <ele>208</ele>
        <time>2017-03-29T10:23:18Z</time>
      </trkpt>
      <trkpt lat="46.05759" lon="4.77503">
        <ele>208</ele>
        <time>2017-03-29T10:23:19Z</time>
      </trkpt>
      <trkpt lat="46.05756" lon="4.77497">
        <ele>208</ele>
        <time>2017-03-29T10:23:20Z</time>
      </trkpt>
      <trkpt lat="46.05753" lon="4.77492">
        <ele>208</ele>
        <time>2017-03-29T10:23:21Z</time>
      </trkpt>
      <trkpt lat="46.0575" lon="4.77487">
        <ele>208</ele>
        <time>2017-03-29T10:23:22Z</time>
      </trkpt>
      <trkpt lat="46.05746" lon="4.77483">
        <ele>207</ele>
        <time>2017-03-29T10:23:23Z</time>
      </trkpt>
      <trkpt lat="46.05742" lon="4.77478">
        <ele>207</ele>
        <time>2017-03-29T10:23:24Z</time>
      </trkpt>
      <trkpt lat="46.05738" lon="4.77473">
        <ele>207</ele>
        <time>2017-03-29T10:23:25Z</time>
      </trkpt>
      <trkpt lat="46.05734" lon="4.77468">
        <ele>207</ele>
        <time>2017-03-29T10:23:26Z</time>
      </trkpt>
      <trkpt lat="46.0573" lon="4.77463">
        <ele>207</ele>
        <time>2017-03-29T10:23:27Z</time>
      </trkpt>
      <trkpt lat="46.05725" lon="4.77459">
        <ele>207</ele>
        <time>2017-03-29T10:23:28Z</time>
      </trkpt>
      <trkpt lat="46.0572" lon="4.77455">
        <ele>207</ele>
        <time>2017-03-29T10:23:29Z</time>
      </trkpt>
      <trkpt lat="46.05714" lon="4.77451">
        <ele>207</ele>
        <time>2017-03-29T10:23:30Z</time>
      </trkpt>
      <trkpt lat="46.05709" lon="4.77447">
        <ele>207</ele>
        <time>2017-03-29T10:23:31Z</time>
      </trkpt>
      <trkpt lat="46.05704" lon="4.77443">
        <ele>206</ele>
        <time>2017-03-29T10:23:32Z</time>
      </trkpt>
      <trkpt lat="46.05699" lon="4.77439">
        <ele>206</ele>
        <time>2017-03-29T10:23:33Z</time>
      </trkpt>
      <trkpt lat="46.05694" lon="4.77435">
        <ele>206</ele>
        <time>2017-03-29T10:23:34Z</time>
      </trkpt>
      <trkpt lat="46.05689" lon="4.7743">
        <ele>206</ele>
        <time>2017-03-29T10:23:35Z</time>
      </trkpt>
      <trkpt lat="46.05683" lon="4.77424">
        <ele>206</ele>
        <time>2017-03-29T10:23:36Z</time>
      </trkpt>
      <trkpt lat="46.05678" lon="4.77418">
        <ele>206</ele>
        <time>2017-03-29T10:23:37Z</time>
      </trkpt>
      <trkpt lat="46.05672" lon="4.77413">
        <ele>205</ele>
        <time>2017-03-29T10:23:38Z</time>
      </trkpt>
      <trkpt lat="46.05666" lon="4.77407">
        <ele>204</ele>
        <time>2017-03-29T10:23:39Z</time>
      </trkpt>
      <trkpt lat="46.05659" lon="4.77401">
        <ele>204</ele>
        <time>2017-03-29T10:23:40Z</time>
      </trkpt>
      <trkpt lat="46.05653" lon="4.77395">
        <ele>204</ele>
        <time>2017-03-29T10:23:41Z</time>
      </trkpt>
      <trkpt lat="46.05647" lon="4.77388">
        <ele>203</ele>
        <time>2017-03-29T10:23:42Z</time>
      </trkpt>
      <trkpt lat="46.0564" lon="4.77382">
        <ele>203</ele>
        <time>2017-03-29T10:23:43Z</time>
      </trkpt>
      <trkpt lat="46.05633" lon="4.77376">
        <ele>203</ele>
        <time>2017-03-29T10:23:44Z</time>
      </trkpt>
      <trkpt lat="46.05625" lon="4.77371">
        <ele>203</ele>
        <time>2017-03-29T10:23:45Z</time>
      </trkpt>
      <trkpt lat="46.05617" lon="4.77365">
        <ele>202</ele>
        <time>2017-03-29T10:23:46Z</time>
      </trkpt>
      <trkpt lat="46.05609" lon="4.7736">
        <ele>202</ele>
        <time>2017-03-29T10:23:47Z</time>
      </trkpt>
      <trkpt lat="46.05601" lon="4.77355">
        <ele>202</ele>
        <time>2017-03-29T10:23:48Z</time>
      </trkpt>
      <trkpt lat="46.05593" lon="4.77349">
        <ele>201</ele>
        <time>2017-03-29T10:23:49Z</time>
      </trkpt>
      <trkpt lat="46.05585" lon="4.77344">
        <ele>201</ele>
        <time>2017-03-29T10:23:50Z</time>
      </trkpt>
      <trkpt lat="46.05577" lon="4.7734">
        <ele>201</ele>
        <time>2017-03-29T10:23:51Z</time>
      </trkpt>
      <trkpt lat="46.05568" lon="4.77335">
        <ele>201</ele>
        <time>2017-03-29T10:23:52Z</time>
      </trkpt>
      <trkpt lat="46.0556" lon="4.7733">
        <ele>200</ele>
        <time>2017-03-29T10:23:53Z</time>
      </trkpt>
      <trkpt lat="46.05551" lon="4.77326">
        <ele>200</ele>
        <time>2017-03-29T10:23:54Z</time>
      </trkpt>
      <trkpt lat="46.05543" lon="4.77321">
        <ele>200</ele>
        <time>2017-03-29T10:23:55Z</time>
      </trkpt>
      <trkpt lat="46.05535" lon="4.77316">
        <ele>200</ele>
        <time>2017-03-29T10:23:56Z</time>
      </trkpt>
      <trkpt lat="46.05528" lon="4.77312">
        <ele>200</ele>
        <time>2017-03-29T10:23:57Z</time>
      </trkpt>
      <trkpt lat="46.0552" lon="4.77307">
        <ele>200</ele>
        <time>2017-03-29T10:23:58Z</time>
      </trkpt>
      <trkpt lat="46.05513" lon="4.77303">
        <ele>200</ele>
        <time>2017-03-29T10:23:59Z</time>
      </trkpt>
      <trkpt lat="46.05505" lon="4.77298">
        <ele>200</ele>
        <time>2017-03-29T10:24:00Z</time>
      </trkpt>
      <trkpt lat="46.05497" lon="4.77295">
        <ele>201</ele>
        <time>2017-03-29T10:24:01Z</time>
      </trkpt>
      <trkpt lat="46.0549" lon="4.77291">
        <ele>201</ele>
        <time>2017-03-29T10:24:02Z</time>
      </trkpt>
      <trkpt lat="46.05483" lon="4.77286">
        <ele>201</ele>
        <time>2017-03-29T10:24:03Z</time>
      </trkpt>
      <trkpt lat="46.05476" lon="4.77283">
        <ele>201</ele>
        <time>2017-03-29T10:24:04Z</time>
      </trkpt>
      <trkpt lat="46.0547" lon="4.77279">
        <ele>201</ele>
        <time>2017-03-29T10:24:05Z</time>
      </trkpt>
      <trkpt lat="46.05463" lon="4.77275">
        <ele>201</ele>
        <time>2017-03-29T10:24:06Z</time>
      </trkpt>
      <trkpt lat="46.05457" lon="4.77272">
        <ele>201</ele>
        <time>2017-03-29T10:24:07Z</time>
      </trkpt>
      <trkpt lat="46.05451" lon="4.7727">
        <ele>201</ele>
        <time>2017-03-29T10:24:08Z</time>
      </trkpt>
      <trkpt lat="46.05445" lon="4.77267">
        <ele>201</ele>
        <time>2017-03-29T10:24:09Z</time>
      </trkpt>
      <trkpt lat="46.0544" lon="4.77264">
        <ele>201</ele>
        <time>2017-03-29T10:24:10Z</time>
      </trkpt>
      <trkpt lat="46.05434" lon="4.77262">
        <ele>201</ele>
        <time>2017-03-29T10:24:11Z</time>
      </trkpt>
      <trkpt lat="46.05429" lon="4.77259">
        <ele>201</ele>
        <time>2017-03-29T10:24:12Z</time>
      </trkpt>
      <trkpt lat="46.05422" lon="4.77256">
        <ele>201</ele>
        <time>2017-03-29T10:24:13Z</time>
      </trkpt>
      <trkpt lat="46.05416" lon="4.77254">
        <ele>202</ele>
        <time>2017-03-29T10:24:14Z</time>
      </trkpt>
      <trkpt lat="46.05411" lon="4.77252">
        <ele>202</ele>
        <time>2017-03-29T10:24:15Z</time>
      </trkpt>
      <trkpt lat="46.05405" lon="4.77249">
        <ele>202</ele>
        <time>2017-03-29T10:24:16Z</time>
      </trkpt>
      <trkpt lat="46.054" lon="4.77246">
        <ele>202</ele>
        <time>2017-03-29T10:24:17Z</time>
      </trkpt>
      <trkpt lat="46.05394" lon="4.77244">
        <ele>202</ele>
        <time>2017-03-29T10:24:18Z</time>
      </trkpt>
      <trkpt lat="46.05389" lon="4.77242">
        <ele>202</ele>
        <time>2017-03-29T10:24:19Z</time>
      </trkpt>
      <trkpt lat="46.05384" lon="4.77239">
        <ele>202</ele>
        <time>2017-03-29T10:24:20Z</time>
      </trkpt>
      <trkpt lat="46.05379" lon="4.77236">
        <ele>203</ele>
        <time>2017-03-29T10:24:21Z</time>
      </trkpt>
      <trkpt lat="46.05374" lon="4.77233">
        <ele>203</ele>
        <time>2017-03-29T10:24:22Z</time>
      </trkpt>
      <trkpt lat="46.0537" lon="4.77231">
        <ele>203</ele>
        <time>2017-03-29T10:24:23Z</time>
      </trkpt>
      <trkpt lat="46.05365" lon="4.77228">
        <ele>203</ele>
        <time>2017-03-29T10:24:24Z</time>
      </trkpt>
      <trkpt lat="46.05361" lon="4.77226">
        <ele>203</ele>
        <time>2017-03-29T10:24:25Z</time>
      </trkpt>
      <trkpt lat="46.05357" lon="4.77223">
        <ele>203</ele>
        <time>2017-03-29T10:24:26Z</time>
      </trkpt>
      <trkpt lat="46.05349" lon="4.77217">
        <ele>203</ele>
        <time>2017-03-29T10:24:28Z</time>
      </trkpt>
      <trkpt lat="46.05345" lon="4.77214">
        <ele>203</ele>
        <time>2017-03-29T10:24:29Z</time>
      </trkpt>
      <trkpt lat="46.0534" lon="4.77211">
        <ele>203</ele>
        <time>2017-03-29T10:24:30Z</time>
      </trkpt>
      <trkpt lat="46.05336" lon="4.77208">
        <ele>203</ele>
        <time>2017-03-29T10:24:31Z</time>
      </trkpt>
      <trkpt lat="46.05331" lon="4.77204">
        <ele>205</ele>
        <time>2017-03-29T10:24:32Z</time>
      </trkpt>
      <trkpt lat="46.05326" lon="4.772">
        <ele>205</ele>
        <time>2017-03-29T10:24:33Z</time>
      </trkpt>
      <trkpt lat="46.05321" lon="4.77196">
        <ele>205</ele>
        <time>2017-03-29T10:24:34Z</time>
      </trkpt>
      <trkpt lat="46.05316" lon="4.77192">
        <ele>205</ele>
        <time>2017-03-29T10:24:35Z</time>
      </trkpt>
      <trkpt lat="46.05312" lon="4.77188">
        <ele>205</ele>
        <time>2017-03-29T10:24:36Z</time>
      </trkpt>
      <trkpt lat="46.05308" lon="4.77184">
        <ele>205</ele>
        <time>2017-03-29T10:24:37Z</time>
      </trkpt>
      <trkpt lat="46.05302" lon="4.77179">
        <ele>205</ele>
        <time>2017-03-29T10:24:38Z</time>
      </trkpt>
      <trkpt lat="46.05298" lon="4.77175">
        <ele>205</ele>
        <time>2017-03-29T10:24:39Z</time>
      </trkpt>
      <trkpt lat="46.05293" lon="4.7717">
        <ele>205</ele>
        <time>2017-03-29T10:24:40Z</time>
      </trkpt>
      <trkpt lat="46.05289" lon="4.77165">
        <ele>204</ele>
        <time>2017-03-29T10:24:41Z</time>
      </trkpt>
      <trkpt lat="46.05285" lon="4.77159">
        <ele>204</ele>
        <time>2017-03-29T10:24:42Z</time>
      </trkpt>
      <trkpt lat="46.05281" lon="4.77154">
        <ele>204</ele>
        <time>2017-03-29T10:24:43Z</time>
      </trkpt>
      <trkpt lat="46.05276" lon="4.77148">
        <ele>204</ele>
        <time>2017-03-29T10:24:44Z</time>
      </trkpt>
      <trkpt lat="46.05273" lon="4.77142">
        <ele>204</ele>
        <time>2017-03-29T10:24:45Z</time>
      </trkpt>
      <trkpt lat="46.05268" lon="4.77136">
        <ele>204</ele>
        <time>2017-03-29T10:24:46Z</time>
      </trkpt>
      <trkpt lat="46.05264" lon="4.7713">
        <ele>204</ele>
        <time>2017-03-29T10:24:47Z</time>
      </trkpt>
      <trkpt lat="46.05258" lon="4.77121">
        <ele>204</ele>
        <time>2017-03-29T10:24:49Z</time>
      </trkpt>
      <trkpt lat="46.05254" lon="4.77116">
        <ele>203</ele>
        <time>2017-03-29T10:24:50Z</time>
      </trkpt>
      <trkpt lat="46.0525" lon="4.77112">
        <ele>203</ele>
        <time>2017-03-29T10:24:51Z</time>
      </trkpt>
      <trkpt lat="46.05247" lon="4.77107">
        <ele>203</ele>
        <time>2017-03-29T10:24:52Z</time>
      </trkpt>
      <trkpt lat="46.05243" lon="4.77102">
        <ele>203</ele>
        <time>2017-03-29T10:24:53Z</time>
      </trkpt>
      <trkpt lat="46.05241" lon="4.77096">
        <ele>203</ele>
        <time>2017-03-29T10:24:54Z</time>
      </trkpt>
      <trkpt lat="46.05238" lon="4.77089">
        <ele>203</ele>
        <time>2017-03-29T10:24:55Z</time>
      </trkpt>
      <trkpt lat="46.05235" lon="4.77081">
        <ele>202</ele>
        <time>2017-03-29T10:24:56Z</time>
      </trkpt>
      <trkpt lat="46.05233" lon="4.77073">
        <ele>202</ele>
        <time>2017-03-29T10:24:57Z</time>
      </trkpt>
      <trkpt lat="46.05231" lon="4.77065">
        <ele>201</ele>
        <time>2017-03-29T10:24:58Z</time>
      </trkpt>
      <trkpt lat="46.05229" lon="4.77057">
        <ele>201</ele>
        <time>2017-03-29T10:24:59Z</time>
      </trkpt>
      <trkpt lat="46.05226" lon="4.77048">
        <ele>201</ele>
        <time>2017-03-29T10:25:00Z</time>
      </trkpt>
      <trkpt lat="46.05223" lon="4.7704">
        <ele>201</ele>
        <time>2017-03-29T10:25:01Z</time>
      </trkpt>
      <trkpt lat="46.0522" lon="4.77031">
        <ele>200</ele>
        <time>2017-03-29T10:25:02Z</time>
      </trkpt>
      <trkpt lat="46.05217" lon="4.77022">
        <ele>200</ele>
        <time>2017-03-29T10:25:03Z</time>
      </trkpt>
      <trkpt lat="46.05214" lon="4.77013">
        <ele>200</ele>
        <time>2017-03-29T10:25:04Z</time>
      </trkpt>
      <trkpt lat="46.05212" lon="4.77004">
        <ele>200</ele>
        <time>2017-03-29T10:25:05Z</time>
      </trkpt>
      <trkpt lat="46.05208" lon="4.76994">
        <ele>198</ele>
        <time>2017-03-29T10:25:06Z</time>
      </trkpt>
      <trkpt lat="46.05205" lon="4.76985">
        <ele>198</ele>
        <time>2017-03-29T10:25:07Z</time>
      </trkpt>
      <trkpt lat="46.05202" lon="4.76976">
        <ele>198</ele>
        <time>2017-03-29T10:25:08Z</time>
      </trkpt>
      <trkpt lat="46.05198" lon="4.76966">
        <ele>198</ele>
        <time>2017-03-29T10:25:09Z</time>
      </trkpt>
      <trkpt lat="46.05193" lon="4.76956">
        <ele>198</ele>
        <time>2017-03-29T10:25:10Z</time>
      </trkpt>
      <trkpt lat="46.05189" lon="4.76947">
        <ele>197</ele>
        <time>2017-03-29T10:25:11Z</time>
      </trkpt>
      <trkpt lat="46.05185" lon="4.76937">
        <ele>197</ele>
        <time>2017-03-29T10:25:12Z</time>
      </trkpt>
      <trkpt lat="46.0518" lon="4.76928">
        <ele>197</ele>
        <time>2017-03-29T10:25:13Z</time>
      </trkpt>
      <trkpt lat="46.05175" lon="4.76919">
        <ele>196</ele>
        <time>2017-03-29T10:25:14Z</time>
      </trkpt>
      <trkpt lat="46.05169" lon="4.7691">
        <ele>196</ele>
        <time>2017-03-29T10:25:15Z</time>
      </trkpt>
      <trkpt lat="46.05164" lon="4.76901">
        <ele>195</ele>
        <time>2017-03-29T10:25:16Z</time>
      </trkpt>
      <trkpt lat="46.05158" lon="4.76892">
        <ele>195</ele>
        <time>2017-03-29T10:25:17Z</time>
      </trkpt>
      <trkpt lat="46.05152" lon="4.76883">
        <ele>195</ele>
        <time>2017-03-29T10:25:18Z</time>
      </trkpt>
      <trkpt lat="46.05147" lon="4.76874">
        <ele>195</ele>
        <time>2017-03-29T10:25:19Z</time>
      </trkpt>
      <trkpt lat="46.05142" lon="4.76865">
        <ele>195</ele>
        <time>2017-03-29T10:25:20Z</time>
      </trkpt>
      <trkpt lat="46.05138" lon="4.76856">
        <ele>195</ele>
        <time>2017-03-29T10:25:21Z</time>
      </trkpt>
      <trkpt lat="46.05134" lon="4.76847">
        <ele>195</ele>
        <time>2017-03-29T10:25:22Z</time>
      </trkpt>
      <trkpt lat="46.0513" lon="4.76838">
        <ele>195</ele>
        <time>2017-03-29T10:25:23Z</time>
      </trkpt>
      <trkpt lat="46.05126" lon="4.76828">
        <ele>194</ele>
        <time>2017-03-29T10:25:24Z</time>
      </trkpt>
      <trkpt lat="46.05122" lon="4.76818">
        <ele>194</ele>
        <time>2017-03-29T10:25:25Z</time>
      </trkpt>
      <trkpt lat="46.05118" lon="4.76809">
        <ele>194</ele>
        <time>2017-03-29T10:25:26Z</time>
      </trkpt>
      <trkpt lat="46.05114" lon="4.76799">
        <ele>194</ele>
        <time>2017-03-29T10:25:27Z</time>
      </trkpt>
      <trkpt lat="46.05112" lon="4.76789">
        <ele>194</ele>
        <time>2017-03-29T10:25:28Z</time>
      </trkpt>
      <trkpt lat="46.0511" lon="4.76779">
        <ele>194</ele>
        <time>2017-03-29T10:25:29Z</time>
      </trkpt>
      <trkpt lat="46.05108" lon="4.76769">
        <ele>194</ele>
        <time>2017-03-29T10:25:30Z</time>
      </trkpt>
      <trkpt lat="46.05107" lon="4.76758">
        <ele>194</ele>
        <time>2017-03-29T10:25:31Z</time>
      </trkpt>
      <trkpt lat="46.05107" lon="4.76748">
        <ele>193</ele>
        <time>2017-03-29T10:25:32Z</time>
      </trkpt>
      <trkpt lat="46.05105" lon="4.76738">
        <ele>193</ele>
        <time>2017-03-29T10:25:33Z</time>
      </trkpt>
      <trkpt lat="46.05105" lon="4.76728">
        <ele>193</ele>
        <time>2017-03-29T10:25:34Z</time>
      </trkpt>
      <trkpt lat="46.05104" lon="4.76718">
        <ele>193</ele>
        <time>2017-03-29T10:25:35Z</time>
      </trkpt>
      <trkpt lat="46.05102" lon="4.76708">
        <ele>193</ele>
        <time>2017-03-29T10:25:36Z</time>
      </trkpt>
      <trkpt lat="46.051" lon="4.76698">
        <ele>193</ele>
        <time>2017-03-29T10:25:37Z</time>
      </trkpt>
      <trkpt lat="46.05098" lon="4.76689">
        <ele>193</ele>
        <time>2017-03-29T10:25:38Z</time>
      </trkpt>
      <trkpt lat="46.05097" lon="4.76679">
        <ele>193</ele>
        <time>2017-03-29T10:25:39Z</time>
      </trkpt>
      <trkpt lat="46.05096" lon="4.7667">
        <ele>193</ele>
        <time>2017-03-29T10:25:40Z</time>
      </trkpt>
      <trkpt lat="46.05095" lon="4.76661">
        <ele>192</ele>
        <time>2017-03-29T10:25:41Z</time>
      </trkpt>
      <trkpt lat="46.05095" lon="4.76651">
        <ele>191</ele>
        <time>2017-03-29T10:25:42Z</time>
      </trkpt>
      <trkpt lat="46.05094" lon="4.76643">
        <ele>191</ele>
        <time>2017-03-29T10:25:43Z</time>
      </trkpt>
      <trkpt lat="46.05094" lon="4.76635">
        <ele>191</ele>
        <time>2017-03-29T10:25:44Z</time>
      </trkpt>
      <trkpt lat="46.05092" lon="4.76623">
        <ele>190</ele>
        <time>2017-03-29T10:25:46Z</time>
      </trkpt>
      <trkpt lat="46.05092" lon="4.76619">
        <ele>190</ele>
        <time>2017-03-29T10:25:47Z</time>
      </trkpt>
      <trkpt lat="46.05087" lon="4.76614">
        <ele>190</ele>
        <time>2017-03-29T10:25:56Z</time>
      </trkpt>
      <trkpt lat="46.05085" lon="4.76613">
        <ele>190</ele>
        <time>2017-03-29T10:25:57Z</time>
      </trkpt>
      <trkpt lat="46.05084" lon="4.76609">
        <ele>190</ele>
        <time>2017-03-29T10:25:59Z</time>
      </trkpt>
      <trkpt lat="46.05083" lon="4.76607">
        <ele>191</ele>
        <time>2017-03-29T10:26:00Z</time>
      </trkpt>
      <trkpt lat="46.05076" lon="4.766">
        <ele>191</ele>
        <time>2017-03-29T10:26:04Z</time>
      </trkpt>
      <trkpt lat="46.05074" lon="4.76597">
        <ele>191</ele>
        <time>2017-03-29T10:26:05Z</time>
      </trkpt>
      <trkpt lat="46.05066" lon="4.7659">
        <ele>191</ele>
        <time>2017-03-29T10:26:07Z</time>
      </trkpt>
      <trkpt lat="46.05062" lon="4.76588">
        <ele>191</ele>
        <time>2017-03-29T10:26:08Z</time>
      </trkpt>
      <trkpt lat="46.05058" lon="4.76585">
        <ele>191</ele>
        <time>2017-03-29T10:26:09Z</time>
      </trkpt>
      <trkpt lat="46.05053" lon="4.76583">
        <ele>190</ele>
        <time>2017-03-29T10:26:10Z</time>
      </trkpt>
      <trkpt lat="46.05049" lon="4.7658">
        <ele>190</ele>
        <time>2017-03-29T10:26:11Z</time>
      </trkpt>
      <trkpt lat="46.05043" lon="4.76576">
        <ele>190</ele>
        <time>2017-03-29T10:26:12Z</time>
      </trkpt>
      <trkpt lat="46.05038" lon="4.76573">
        <ele>190</ele>
        <time>2017-03-29T10:26:13Z</time>
      </trkpt>
      <trkpt lat="46.05033" lon="4.7657">
        <ele>190</ele>
        <time>2017-03-29T10:26:14Z</time>
      </trkpt>
      <trkpt lat="46.0503" lon="4.76567">
        <ele>190</ele>
        <time>2017-03-29T10:26:15Z</time>
      </trkpt>
      <trkpt lat="46.05025" lon="4.76565">
        <ele>190</ele>
        <time>2017-03-29T10:26:16Z</time>
      </trkpt>
      <trkpt lat="46.0502" lon="4.76562">
        <ele>190</ele>
        <time>2017-03-29T10:26:17Z</time>
      </trkpt>
      <trkpt lat="46.05016" lon="4.76559">
        <ele>190</ele>
        <time>2017-03-29T10:26:18Z</time>
      </trkpt>
      <trkpt lat="46.05011" lon="4.76551">
        <ele>190</ele>
        <time>2017-03-29T10:26:20Z</time>
      </trkpt>
      <trkpt lat="46.0501" lon="4.76545">
        <ele>190</ele>
        <time>2017-03-29T10:26:21Z</time>
      </trkpt>
      <trkpt lat="46.05006" lon="4.76535">
        <ele>190</ele>
        <time>2017-03-29T10:26:23Z</time>
      </trkpt>
      <trkpt lat="46.05004" lon="4.76531">
        <ele>190</ele>
        <time>2017-03-29T10:26:24Z</time>
      </trkpt>
      <trkpt lat="46.04999" lon="4.76522">
        <ele>191</ele>
        <time>2017-03-29T10:26:26Z</time>
      </trkpt>
      <trkpt lat="46.04997" lon="4.76517">
        <ele>191</ele>
        <time>2017-03-29T10:26:27Z</time>
      </trkpt>
      <trkpt lat="46.04992" lon="4.76506">
        <ele>191</ele>
        <time>2017-03-29T10:26:29Z</time>
      </trkpt>
      <trkpt lat="46.0499" lon="4.765">
        <ele>191</ele>
        <time>2017-03-29T10:26:30Z</time>
      </trkpt>
      <trkpt lat="46.04988" lon="4.76494">
        <ele>190</ele>
        <time>2017-03-29T10:26:31Z</time>
      </trkpt>
      <trkpt lat="46.04986" lon="4.76488">
        <ele>190</ele>
        <time>2017-03-29T10:26:32Z</time>
      </trkpt>
      <trkpt lat="46.04984" lon="4.76482">
        <ele>190</ele>
        <time>2017-03-29T10:26:33Z</time>
      </trkpt>
      <trkpt lat="46.04983" lon="4.76475">
        <ele>190</ele>
        <time>2017-03-29T10:26:34Z</time>
      </trkpt>
      <trkpt lat="46.04981" lon="4.76468">
        <ele>190</ele>
        <time>2017-03-29T10:26:35Z</time>
      </trkpt>
      <trkpt lat="46.04979" lon="4.76462">
        <ele>190</ele>
        <time>2017-03-29T10:26:36Z</time>
      </trkpt>
      <trkpt lat="46.04976" lon="4.76456">
        <ele>190</ele>
        <time>2017-03-29T10:26:37Z</time>
      </trkpt>
      <trkpt lat="46.04973" lon="4.7645">
        <ele>190</ele>
        <time>2017-03-29T10:26:38Z</time>
      </trkpt>
      <trkpt lat="46.04971" lon="4.76444">
        <ele>190</ele>
        <time>2017-03-29T10:26:39Z</time>
      </trkpt>
      <trkpt lat="46.04968" lon="4.76439">
        <ele>190</ele>
        <time>2017-03-29T10:26:40Z</time>
      </trkpt>
      <trkpt lat="46.04965" lon="4.76435">
        <ele>190</ele>
        <time>2017-03-29T10:26:41Z</time>
      </trkpt>
      <trkpt lat="46.04961" lon="4.76432">
        <ele>190</ele>
        <time>2017-03-29T10:26:42Z</time>
      </trkpt>
      <trkpt lat="46.04956" lon="4.7643">
        <ele>191</ele>
        <time>2017-03-29T10:26:43Z</time>
      </trkpt>
      <trkpt lat="46.04951" lon="4.76428">
        <ele>191</ele>
        <time>2017-03-29T10:26:44Z</time>
      </trkpt>
      <trkpt lat="46.04946" lon="4.76428">
        <ele>191</ele>
        <time>2017-03-29T10:26:45Z</time>
      </trkpt>
      <trkpt lat="46.0494" lon="4.76428">
        <ele>191</ele>
        <time>2017-03-29T10:26:46Z</time>
      </trkpt>
      <trkpt lat="46.04934" lon="4.76429">
        <ele>191</ele>
        <time>2017-03-29T10:26:47Z</time>
      </trkpt>
      <trkpt lat="46.04929" lon="4.76431">
        <ele>191</ele>
        <time>2017-03-29T10:26:48Z</time>
      </trkpt>
      <trkpt lat="46.04924" lon="4.76432">
        <ele>191</ele>
        <time>2017-03-29T10:26:49Z</time>
      </trkpt>
      <trkpt lat="46.0492" lon="4.76434">
        <ele>191</ele>
        <time>2017-03-29T10:26:50Z</time>
      </trkpt>
      <trkpt lat="46.04912" lon="4.76438">
        <ele>193</ele>
        <time>2017-03-29T10:26:52Z</time>
      </trkpt>
      <trkpt lat="46.04909" lon="4.76441">
        <ele>193</ele>
        <time>2017-03-29T10:26:53Z</time>
      </trkpt>
      <trkpt lat="46.04904" lon="4.76444">
        <ele>193</ele>
        <time>2017-03-29T10:26:54Z</time>
      </trkpt>
      <trkpt lat="46.049" lon="4.76446">
        <ele>193</ele>
        <time>2017-03-29T10:26:55Z</time>
      </trkpt>
      <trkpt lat="46.04895" lon="4.76447">
        <ele>193</ele>
        <time>2017-03-29T10:26:56Z</time>
      </trkpt>
      <trkpt lat="46.04888" lon="4.76449">
        <ele>193</ele>
        <time>2017-03-29T10:26:57Z</time>
      </trkpt>
      <trkpt lat="46.04882" lon="4.7645">
        <ele>193</ele>
        <time>2017-03-29T10:26:58Z</time>
      </trkpt>
      <trkpt lat="46.04875" lon="4.76451">
        <ele>193</ele>
        <time>2017-03-29T10:26:59Z</time>
      </trkpt>
      <trkpt lat="46.04868" lon="4.76451">
        <ele>193</ele>
        <time>2017-03-29T10:27:00Z</time>
      </trkpt>
      <trkpt lat="46.04862" lon="4.76452">
        <ele>193</ele>
        <time>2017-03-29T10:27:01Z</time>
      </trkpt>
      <trkpt lat="46.04857" lon="4.76452">
        <ele>193</ele>
        <time>2017-03-29T10:27:02Z</time>
      </trkpt>
      <trkpt lat="46.04852" lon="4.76451">
        <ele>193</ele>
        <time>2017-03-29T10:27:03Z</time>
      </trkpt>
      <trkpt lat="46.04846" lon="4.76451">
        <ele>193</ele>
        <time>2017-03-29T10:27:04Z</time>
      </trkpt>
      <trkpt lat="46.04841" lon="4.7645">
        <ele>194</ele>
        <time>2017-03-29T10:27:05Z</time>
      </trkpt>
      <trkpt lat="46.04836" lon="4.76449">
        <ele>194</ele>
        <time>2017-03-29T10:27:06Z</time>
      </trkpt>
      <trkpt lat="46.04831" lon="4.76448">
        <ele>193</ele>
        <time>2017-03-29T10:27:07Z</time>
      </trkpt>
      <trkpt lat="46.04826" lon="4.76447">
        <ele>193</ele>
        <time>2017-03-29T10:27:08Z</time>
      </trkpt>
      <trkpt lat="46.04821" lon="4.76447">
        <ele>193</ele>
        <time>2017-03-29T10:27:09Z</time>
      </trkpt>
      <trkpt lat="46.04817" lon="4.76446">
        <ele>193</ele>
        <time>2017-03-29T10:27:10Z</time>
      </trkpt>
      <trkpt lat="46.04812" lon="4.76445">
        <ele>193</ele>
        <time>2017-03-29T10:27:11Z</time>
      </trkpt>
      <trkpt lat="46.04807" lon="4.76445">
        <ele>193</ele>
        <time>2017-03-29T10:27:12Z</time>
      </trkpt>
      <trkpt lat="46.04801" lon="4.76444">
        <ele>193</ele>
        <time>2017-03-29T10:27:13Z</time>
      </trkpt>
      <trkpt lat="46.04795" lon="4.76444">
        <ele>193</ele>
        <time>2017-03-29T10:27:14Z</time>
      </trkpt>
      <trkpt lat="46.04789" lon="4.76445">
        <ele>192</ele>
        <time>2017-03-29T10:27:15Z</time>
      </trkpt>
      <trkpt lat="46.04785" lon="4.76448">
        <ele>192</ele>
        <time>2017-03-29T10:27:16Z</time>
      </trkpt>
      <trkpt lat="46.04781" lon="4.7645">
        <ele>192</ele>
        <time>2017-03-29T10:27:17Z</time>
      </trkpt>
      <trkpt lat="46.04775" lon="4.76451">
        <ele>192</ele>
        <time>2017-03-29T10:27:18Z</time>
      </trkpt>
      <trkpt lat="46.04771" lon="4.76453">
        <ele>192</ele>
        <time>2017-03-29T10:27:19Z</time>
      </trkpt>
      <trkpt lat="46.04765" lon="4.76453">
        <ele>192</ele>
        <time>2017-03-29T10:27:20Z</time>
      </trkpt>
      <trkpt lat="46.04761" lon="4.76455">
        <ele>192</ele>
        <time>2017-03-29T10:27:21Z</time>
      </trkpt>
      <trkpt lat="46.04758" lon="4.76461">
        <ele>192</ele>
        <time>2017-03-29T10:27:22Z</time>
      </trkpt>
      <trkpt lat="46.04752" lon="4.76465">
        <ele>192</ele>
        <time>2017-03-29T10:27:23Z</time>
      </trkpt>
      <trkpt lat="46.04747" lon="4.76469">
        <ele>190</ele>
        <time>2017-03-29T10:27:24Z</time>
      </trkpt>
      <trkpt lat="46.04741" lon="4.76472">
        <ele>190</ele>
        <time>2017-03-29T10:27:25Z</time>
      </trkpt>
      <trkpt lat="46.04734" lon="4.76473">
        <ele>189</ele>
        <time>2017-03-29T10:27:26Z</time>
      </trkpt>
      <trkpt lat="46.04728" lon="4.76475">
        <ele>189</ele>
        <time>2017-03-29T10:27:27Z</time>
      </trkpt>
      <trkpt lat="46.04722" lon="4.76477">
        <ele>189</ele>
        <time>2017-03-29T10:27:28Z</time>
      </trkpt>
      <trkpt lat="46.04716" lon="4.76479">
        <ele>189</ele>
        <time>2017-03-29T10:27:29Z</time>
      </trkpt>
      <trkpt lat="46.0471" lon="4.76481">
        <ele>189</ele>
        <time>2017-03-29T10:27:30Z</time>
      </trkpt>
      <trkpt lat="46.04704" lon="4.76482">
        <ele>189</ele>
        <time>2017-03-29T10:27:31Z</time>
      </trkpt>
      <trkpt lat="46.04699" lon="4.76483">
        <ele>188</ele>
        <time>2017-03-29T10:27:32Z</time>
      </trkpt>
      <trkpt lat="46.04695" lon="4.76483">
        <ele>188</ele>
        <time>2017-03-29T10:27:33Z</time>
      </trkpt>
      <trkpt lat="46.04687" lon="4.76485">
        <ele>188</ele>
        <time>2017-03-29T10:27:36Z</time>
      </trkpt>
      <trkpt lat="46.04685" lon="4.76487">
        <ele>188</ele>
        <time>2017-03-29T10:27:37Z</time>
      </trkpt>
      <trkpt lat="46.04678" lon="4.76495">
        <ele>187</ele>
        <time>2017-03-29T10:27:41Z</time>
      </trkpt>
      <trkpt lat="46.04676" lon="4.76498">
        <ele>187</ele>
        <time>2017-03-29T10:27:42Z</time>
      </trkpt>
      <trkpt lat="46.0467" lon="4.76503">
        <ele>186</ele>
        <time>2017-03-29T10:27:44Z</time>
      </trkpt>
      <trkpt lat="46.04667" lon="4.76506">
        <ele>186</ele>
        <time>2017-03-29T10:27:45Z</time>
      </trkpt>
      <trkpt lat="46.04662" lon="4.76507">
        <ele>186</ele>
        <time>2017-03-29T10:27:46Z</time>
      </trkpt>
      <trkpt lat="46.04657" lon="4.76508">
        <ele>186</ele>
        <time>2017-03-29T10:27:47Z</time>
      </trkpt>
      <trkpt lat="46.04652" lon="4.76508">
        <ele>186</ele>
        <time>2017-03-29T10:27:48Z</time>
      </trkpt>
      <trkpt lat="46.04646" lon="4.76508">
        <ele>186</ele>
        <time>2017-03-29T10:27:49Z</time>
      </trkpt>
      <trkpt lat="46.0464" lon="4.76509">
        <ele>186</ele>
        <time>2017-03-29T10:27:50Z</time>
      </trkpt>
      <trkpt lat="46.04635" lon="4.7651">
        <ele>186</ele>
        <time>2017-03-29T10:27:51Z</time>
      </trkpt>
      <trkpt lat="46.0463" lon="4.76512">
        <ele>186</ele>
        <time>2017-03-29T10:27:52Z</time>
      </trkpt>
      <trkpt lat="46.04625" lon="4.76515">
        <ele>186</ele>
        <time>2017-03-29T10:27:53Z</time>
      </trkpt>
      <trkpt lat="46.0462" lon="4.76517">
        <ele>186</ele>
        <time>2017-03-29T10:27:54Z</time>
      </trkpt>
      <trkpt lat="46.04616" lon="4.76518">
        <ele>186</ele>
        <time>2017-03-29T10:27:55Z</time>
      </trkpt>
      <trkpt lat="46.04612" lon="4.7652">
        <ele>186</ele>
        <time>2017-03-29T10:27:56Z</time>
      </trkpt>
      <trkpt lat="46.04608" lon="4.76523">
        <ele>186</ele>
        <time>2017-03-29T10:27:57Z</time>
      </trkpt>
      <trkpt lat="46.04599" lon="4.76527">
        <ele>186</ele>
        <time>2017-03-29T10:27:59Z</time>
      </trkpt>
      <trkpt lat="46.04595" lon="4.76529">
        <ele>186</ele>
        <time>2017-03-29T10:28:00Z</time>
      </trkpt>
      <trkpt lat="46.04589" lon="4.76531">
        <ele>186</ele>
        <time>2017-03-29T10:28:01Z</time>
      </trkpt>
      <trkpt lat="46.04583" lon="4.76533">
        <ele>187</ele>
        <time>2017-03-29T10:28:02Z</time>
      </trkpt>
      <trkpt lat="46.04577" lon="4.76535">
        <ele>187</ele>
        <time>2017-03-29T10:28:03Z</time>
      </trkpt>
      <trkpt lat="46.0457" lon="4.76537">
        <ele>187</ele>
        <time>2017-03-29T10:28:04Z</time>
      </trkpt>
      <trkpt lat="46.04564" lon="4.76538">
        <ele>187</ele>
        <time>2017-03-29T10:28:05Z</time>
      </trkpt>
      <trkpt lat="46.04559" lon="4.7654">
        <ele>188</ele>
        <time>2017-03-29T10:28:06Z</time>
      </trkpt>
      <trkpt lat="46.04553" lon="4.76543">
        <ele>188</ele>
        <time>2017-03-29T10:28:07Z</time>
      </trkpt>
      <trkpt lat="46.04548" lon="4.76545">
        <ele>188</ele>
        <time>2017-03-29T10:28:08Z</time>
      </trkpt>
      <trkpt lat="46.04539" lon="4.76548">
        <ele>188</ele>
        <time>2017-03-29T10:28:10Z</time>
      </trkpt>
      <trkpt lat="46.04535" lon="4.76548">
        <ele>188</ele>
        <time>2017-03-29T10:28:11Z</time>
      </trkpt>
      <trkpt lat="46.04528" lon="4.76547">
        <ele>188</ele>
        <time>2017-03-29T10:28:13Z</time>
      </trkpt>
      <trkpt lat="46.04525" lon="4.76548">
        <ele>189</ele>
        <time>2017-03-29T10:28:14Z</time>
      </trkpt>
      <trkpt lat="46.04518" lon="4.7655">
        <ele>189</ele>
        <time>2017-03-29T10:28:16Z</time>
      </trkpt>
      <trkpt lat="46.04515" lon="4.76551">
        <ele>189</ele>
        <time>2017-03-29T10:28:17Z</time>
      </trkpt>
      <trkpt lat="46.04508" lon="4.76553">
        <ele>189</ele>
        <time>2017-03-29T10:28:19Z</time>
      </trkpt>
      <trkpt lat="46.04505" lon="4.76553">
        <ele>189</ele>
        <time>2017-03-29T10:28:20Z</time>
      </trkpt>
      <trkpt lat="46.04498" lon="4.76554">
        <ele>192</ele>
        <time>2017-03-29T10:28:22Z</time>
      </trkpt>
      <trkpt lat="46.04494" lon="4.76553">
        <ele>192</ele>
        <time>2017-03-29T10:28:23Z</time>
      </trkpt>
      <trkpt lat="46.04487" lon="4.76553">
        <ele>193</ele>
        <time>2017-03-29T10:28:25Z</time>
      </trkpt>
      <trkpt lat="46.04484" lon="4.76554">
        <ele>193</ele>
        <time>2017-03-29T10:28:26Z</time>
      </trkpt>
      <trkpt lat="46.04476" lon="4.76553">
        <ele>193</ele>
        <time>2017-03-29T10:28:28Z</time>
      </trkpt>
      <trkpt lat="46.04471" lon="4.76553">
        <ele>193</ele>
        <time>2017-03-29T10:28:29Z</time>
      </trkpt>
      <trkpt lat="46.04463" lon="4.76553">
        <ele>193</ele>
        <time>2017-03-29T10:28:31Z</time>
      </trkpt>
      <trkpt lat="46.0446" lon="4.76552">
        <ele>194</ele>
        <time>2017-03-29T10:28:32Z</time>
      </trkpt>
      <trkpt lat="46.04452" lon="4.76553">
        <ele>194</ele>
        <time>2017-03-29T10:28:34Z</time>
      </trkpt>
      <trkpt lat="46.04448" lon="4.76552">
        <ele>194</ele>
        <time>2017-03-29T10:28:35Z</time>
      </trkpt>
      <trkpt lat="46.04441" lon="4.76551">
        <ele>194</ele>
        <time>2017-03-29T10:28:37Z</time>
      </trkpt>
      <trkpt lat="46.04436" lon="4.76551">
        <ele>195</ele>
        <time>2017-03-29T10:28:38Z</time>
      </trkpt>
      <trkpt lat="46.04428" lon="4.76549">
        <ele>195</ele>
        <time>2017-03-29T10:28:40Z</time>
      </trkpt>
      <trkpt lat="46.04424" lon="4.76549">
        <ele>195</ele>
        <time>2017-03-29T10:28:41Z</time>
      </trkpt>
      <trkpt lat="46.0442" lon="4.76548">
        <ele>195</ele>
        <time>2017-03-29T10:28:42Z</time>
      </trkpt>
      <trkpt lat="46.04415" lon="4.76548">
        <ele>197</ele>
        <time>2017-03-29T10:28:43Z</time>
      </trkpt>
      <trkpt lat="46.04409" lon="4.76549">
        <ele>197</ele>
        <time>2017-03-29T10:28:44Z</time>
      </trkpt>
      <trkpt lat="46.04404" lon="4.76551">
        <ele>197</ele>
        <time>2017-03-29T10:28:45Z</time>
      </trkpt>
      <trkpt lat="46.04399" lon="4.76551">
        <ele>197</ele>
        <time>2017-03-29T10:28:46Z</time>
      </trkpt>
      <trkpt lat="46.04394" lon="4.76551">
        <ele>197</ele>
        <time>2017-03-29T10:28:47Z</time>
      </trkpt>
      <trkpt lat="46.04389" lon="4.76553">
        <ele>197</ele>
        <time>2017-03-29T10:28:48Z</time>
      </trkpt>
      <trkpt lat="46.04385" lon="4.76554">
        <ele>197</ele>
        <time>2017-03-29T10:28:49Z</time>
      </trkpt>
      <trkpt lat="46.04377" lon="4.76555">
        <ele>197</ele>
        <time>2017-03-29T10:28:51Z</time>
      </trkpt>
      <trkpt lat="46.04372" lon="4.76557">
        <ele>197</ele>
        <time>2017-03-29T10:28:52Z</time>
      </trkpt>
      <trkpt lat="46.04364" lon="4.76558">
        <ele>197</ele>
        <time>2017-03-29T10:28:53Z</time>
      </trkpt>
      <trkpt lat="46.04359" lon="4.76561">
        <ele>197</ele>
        <time>2017-03-29T10:28:54Z</time>
      </trkpt>
      <trkpt lat="46.04353" lon="4.76562">
        <ele>197</ele>
        <time>2017-03-29T10:28:55Z</time>
      </trkpt>
      <trkpt lat="46.04348" lon="4.76562">
        <ele>197</ele>
        <time>2017-03-29T10:28:56Z</time>
      </trkpt>
      <trkpt lat="46.04343" lon="4.76563">
        <ele>197</ele>
        <time>2017-03-29T10:28:57Z</time>
      </trkpt>
      <trkpt lat="46.04339" lon="4.76563">
        <ele>197</ele>
        <time>2017-03-29T10:28:58Z</time>
      </trkpt>
      <trkpt lat="46.04331" lon="4.76564">
        <ele>197</ele>
        <time>2017-03-29T10:29:00Z</time>
      </trkpt>
      <trkpt lat="46.04327" lon="4.76564">
        <ele>197</ele>
        <time>2017-03-29T10:29:01Z</time>
      </trkpt>
      <trkpt lat="46.04322" lon="4.76564">
        <ele>197</ele>
        <time>2017-03-29T10:29:02Z</time>
      </trkpt>
      <trkpt lat="46.04316" lon="4.76564">
        <ele>197</ele>
        <time>2017-03-29T10:29:03Z</time>
      </trkpt>
      <trkpt lat="46.04311" lon="4.76564">
        <ele>197</ele>
        <time>2017-03-29T10:29:04Z</time>
      </trkpt>
      <trkpt lat="46.04307" lon="4.76564">
        <ele>197</ele>
        <time>2017-03-29T10:29:05Z</time>
      </trkpt>
      <trkpt lat="46.04298" lon="4.76565">
        <ele>197</ele>
        <time>2017-03-29T10:29:07Z</time>
      </trkpt>
      <trkpt lat="46.04294" lon="4.76565">
        <ele>197</ele>
        <time>2017-03-29T10:29:08Z</time>
      </trkpt>
      <trkpt lat="46.04285" lon="4.76567">
        <ele>196</ele>
        <time>2017-03-29T10:29:10Z</time>
      </trkpt>
      <trkpt lat="46.04282" lon="4.76568">
        <ele>196</ele>
        <time>2017-03-29T10:29:11Z</time>
      </trkpt>
      <trkpt lat="46.04275" lon="4.76569">
        <ele>196</ele>
        <time>2017-03-29T10:29:13Z</time>
      </trkpt>
      <trkpt lat="46.04272" lon="4.76569">
        <ele>196</ele>
        <time>2017-03-29T10:29:14Z</time>
      </trkpt>
      <trkpt lat="46.04264" lon="4.76571">
        <ele>197</ele>
        <time>2017-03-29T10:29:17Z</time>
      </trkpt>
      <trkpt lat="46.04262" lon="4.76572">
        <ele>197</ele>
        <time>2017-03-29T10:29:18Z</time>
      </trkpt>
      <trkpt lat="46.04257" lon="4.76573">
        <ele>197</ele>
        <time>2017-03-29T10:29:19Z</time>
      </trkpt>
      <trkpt lat="46.04252" lon="4.76573">
        <ele>197</ele>
        <time>2017-03-29T10:29:20Z</time>
      </trkpt>
      <trkpt lat="46.04247" lon="4.76573">
        <ele>197</ele>
        <time>2017-03-29T10:29:21Z</time>
      </trkpt>
      <trkpt lat="46.04242" lon="4.76574">
        <ele>197</ele>
        <time>2017-03-29T10:29:22Z</time>
      </trkpt>
      <trkpt lat="46.04237" lon="4.76575">
        <ele>197</ele>
        <time>2017-03-29T10:29:23Z</time>
      </trkpt>
      <trkpt lat="46.04232" lon="4.76576">
        <ele>197</ele>
        <time>2017-03-29T10:29:24Z</time>
      </trkpt>
      <trkpt lat="46.04227" lon="4.76576">
        <ele>197</ele>
        <time>2017-03-29T10:29:25Z</time>
      </trkpt>
      <trkpt lat="46.04223" lon="4.76577">
        <ele>197</ele>
        <time>2017-03-29T10:29:26Z</time>
      </trkpt>
      <trkpt lat="46.04214" lon="4.76579">
        <ele>197</ele>
        <time>2017-03-29T10:29:28Z</time>
      </trkpt>
      <trkpt lat="46.04211" lon="4.76579">
        <ele>197</ele>
        <time>2017-03-29T10:29:29Z</time>
      </trkpt>
      <trkpt lat="46.04204" lon="4.76582">
        <ele>197</ele>
        <time>2017-03-29T10:29:31Z</time>
      </trkpt>
      <trkpt lat="46.042" lon="4.76583">
        <ele>198</ele>
        <time>2017-03-29T10:29:32Z</time>
      </trkpt>
      <trkpt lat="46.04195" lon="4.76586">
        <ele>198</ele>
        <time>2017-03-29T10:29:33Z</time>
      </trkpt>
      <trkpt lat="46.04191" lon="4.76589">
        <ele>198</ele>
        <time>2017-03-29T10:29:34Z</time>
      </trkpt>
      <trkpt lat="46.04184" lon="4.76594">
        <ele>198</ele>
        <time>2017-03-29T10:29:36Z</time>
      </trkpt>
      <trkpt lat="46.0418" lon="4.76597">
        <ele>198</ele>
        <time>2017-03-29T10:29:37Z</time>
      </trkpt>
      <trkpt lat="46.04173" lon="4.76601">
        <ele>198</ele>
        <time>2017-03-29T10:29:39Z</time>
      </trkpt>
      <trkpt lat="46.04171" lon="4.76604">
        <ele>198</ele>
        <time>2017-03-29T10:29:40Z</time>
      </trkpt>
      <trkpt lat="46.04164" lon="4.7661">
        <ele>199</ele>
        <time>2017-03-29T10:29:42Z</time>
      </trkpt>
      <trkpt lat="46.04161" lon="4.76613">
        <ele>199</ele>
        <time>2017-03-29T10:29:43Z</time>
      </trkpt>
      <trkpt lat="46.04157" lon="4.76616">
        <ele>199</ele>
        <time>2017-03-29T10:29:44Z</time>
      </trkpt>
      <trkpt lat="46.04153" lon="4.76619">
        <ele>200</ele>
        <time>2017-03-29T10:29:45Z</time>
      </trkpt>
      <trkpt lat="46.04149" lon="4.76623">
        <ele>200</ele>
        <time>2017-03-29T10:29:46Z</time>
      </trkpt>
      <trkpt lat="46.04145" lon="4.76627">
        <ele>200</ele>
        <time>2017-03-29T10:29:47Z</time>
      </trkpt>
      <trkpt lat="46.04137" lon="4.76632">
        <ele>200</ele>
        <time>2017-03-29T10:29:49Z</time>
      </trkpt>
      <trkpt lat="46.04133" lon="4.76634">
        <ele>200</ele>
        <time>2017-03-29T10:29:50Z</time>
      </trkpt>
      <trkpt lat="46.04126" lon="4.76638">
        <ele>200</ele>
        <time>2017-03-29T10:29:52Z</time>
      </trkpt>
      <trkpt lat="46.04122" lon="4.76639">
        <ele>200</ele>
        <time>2017-03-29T10:29:53Z</time>
      </trkpt>
      <trkpt lat="46.04117" lon="4.7664">
        <ele>200</ele>
        <time>2017-03-29T10:29:54Z</time>
      </trkpt>
      <trkpt lat="46.04113" lon="4.76643">
        <ele>200</ele>
        <time>2017-03-29T10:29:55Z</time>
      </trkpt>
      <trkpt lat="46.04106" lon="4.76645">
        <ele>200</ele>
        <time>2017-03-29T10:29:57Z</time>
      </trkpt>
      <trkpt lat="46.04102" lon="4.76646">
        <ele>200</ele>
        <time>2017-03-29T10:29:58Z</time>
      </trkpt>
      <trkpt lat="46.04094" lon="4.76647">
        <ele>201</ele>
        <time>2017-03-29T10:30:00Z</time>
      </trkpt>
      <trkpt lat="46.0409" lon="4.76648">
        <ele>201</ele>
        <time>2017-03-29T10:30:01Z</time>
      </trkpt>
      <trkpt lat="46.04085" lon="4.76648">
        <ele>201</ele>
        <time>2017-03-29T10:30:02Z</time>
      </trkpt>
      <trkpt lat="46.0408" lon="4.7665">
        <ele>201</ele>
        <time>2017-03-29T10:30:03Z</time>
      </trkpt>
      <trkpt lat="46.04072" lon="4.76651">
        <ele>201</ele>
        <time>2017-03-29T10:30:05Z</time>
      </trkpt>
      <trkpt lat="46.04068" lon="4.76652">
        <ele>201</ele>
        <time>2017-03-29T10:30:06Z</time>
      </trkpt>
      <trkpt lat="46.0406" lon="4.76653">
        <ele>201</ele>
        <time>2017-03-29T10:30:08Z</time>
      </trkpt>
      <trkpt lat="46.04056" lon="4.76654">
        <ele>201</ele>
        <time>2017-03-29T10:30:09Z</time>
      </trkpt>
      <trkpt lat="46.04048" lon="4.76654">
        <ele>201</ele>
        <time>2017-03-29T10:30:11Z</time>
      </trkpt>
      <trkpt lat="46.04044" lon="4.76654">
        <ele>201</ele>
        <time>2017-03-29T10:30:12Z</time>
      </trkpt>
      <trkpt lat="46.04035" lon="4.76657">
        <ele>201</ele>
        <time>2017-03-29T10:30:14Z</time>
      </trkpt>
      <trkpt lat="46.04031" lon="4.76658">
        <ele>201</ele>
        <time>2017-03-29T10:30:15Z</time>
      </trkpt>
      <trkpt lat="46.04022" lon="4.7666">
        <ele>201</ele>
        <time>2017-03-29T10:30:17Z</time>
      </trkpt>
      <trkpt lat="46.04018" lon="4.7666">
        <ele>201</ele>
        <time>2017-03-29T10:30:18Z</time>
      </trkpt>
      <trkpt lat="46.04014" lon="4.76661">
        <ele>201</ele>
        <time>2017-03-29T10:30:19Z</time>
      </trkpt>
      <trkpt lat="46.04009" lon="4.76662">
        <ele>202</ele>
        <time>2017-03-29T10:30:20Z</time>
      </trkpt>
      <trkpt lat="46.04004" lon="4.76663">
        <ele>202</ele>
        <time>2017-03-29T10:30:21Z</time>
      </trkpt>
      <trkpt lat="46.04" lon="4.76664">
        <ele>202</ele>
        <time>2017-03-29T10:30:22Z</time>
      </trkpt>
      <trkpt lat="46.03995" lon="4.76665">
        <ele>202</ele>
        <time>2017-03-29T10:30:23Z</time>
      </trkpt>
      <trkpt lat="46.0399" lon="4.76666">
        <ele>202</ele>
        <time>2017-03-29T10:30:24Z</time>
      </trkpt>
      <trkpt lat="46.03985" lon="4.76667">
        <ele>202</ele>
        <time>2017-03-29T10:30:25Z</time>
      </trkpt>
      <trkpt lat="46.03981" lon="4.76669">
        <ele>203</ele>
        <time>2017-03-29T10:30:26Z</time>
      </trkpt>
      <trkpt lat="46.03972" lon="4.76672">
        <ele>203</ele>
        <time>2017-03-29T10:30:28Z</time>
      </trkpt>
      <trkpt lat="46.03968" lon="4.76672">
        <ele>203</ele>
        <time>2017-03-29T10:30:29Z</time>
      </trkpt>
      <trkpt lat="46.0396" lon="4.76674">
        <ele>203</ele>
        <time>2017-03-29T10:30:31Z</time>
      </trkpt>
      <trkpt lat="46.03955" lon="4.76674">
        <ele>204</ele>
        <time>2017-03-29T10:30:32Z</time>
      </trkpt>
      <trkpt lat="46.0395" lon="4.76674">
        <ele>204</ele>
        <time>2017-03-29T10:30:33Z</time>
      </trkpt>
      <trkpt lat="46.03944" lon="4.76675">
        <ele>204</ele>
        <time>2017-03-29T10:30:34Z</time>
      </trkpt>
      <trkpt lat="46.03939" lon="4.76676">
        <ele>204</ele>
        <time>2017-03-29T10:30:35Z</time>
      </trkpt>
      <trkpt lat="46.03934" lon="4.76678">
        <ele>204</ele>
        <time>2017-03-29T10:30:36Z</time>
      </trkpt>
      <trkpt lat="46.03928" lon="4.7668">
        <ele>204</ele>
        <time>2017-03-29T10:30:37Z</time>
      </trkpt>
      <trkpt lat="46.03923" lon="4.76682">
        <ele>204</ele>
        <time>2017-03-29T10:30:38Z</time>
      </trkpt>
      <trkpt lat="46.03918" lon="4.76683">
        <ele>204</ele>
        <time>2017-03-29T10:30:39Z</time>
      </trkpt>
      <trkpt lat="46.03913" lon="4.76685">
        <ele>205</ele>
        <time>2017-03-29T10:30:40Z</time>
      </trkpt>
      <trkpt lat="46.03908" lon="4.76686">
        <ele>205</ele>
        <time>2017-03-29T10:30:41Z</time>
      </trkpt>
      <trkpt lat="46.03903" lon="4.76688">
        <ele>205</ele>
        <time>2017-03-29T10:30:42Z</time>
      </trkpt>
      <trkpt lat="46.03898" lon="4.76691">
        <ele>205</ele>
        <time>2017-03-29T10:30:43Z</time>
      </trkpt>
      <trkpt lat="46.03893" lon="4.76692">
        <ele>205</ele>
        <time>2017-03-29T10:30:44Z</time>
      </trkpt>
      <trkpt lat="46.03889" lon="4.76694">
        <ele>205</ele>
        <time>2017-03-29T10:30:45Z</time>
      </trkpt>
      <trkpt lat="46.03884" lon="4.76696">
        <ele>205</ele>
        <time>2017-03-29T10:30:46Z</time>
      </trkpt>
      <trkpt lat="46.03879" lon="4.76698">
        <ele>205</ele>
        <time>2017-03-29T10:30:47Z</time>
      </trkpt>
      <trkpt lat="46.03874" lon="4.76699">
        <ele>205</ele>
        <time>2017-03-29T10:30:48Z</time>
      </trkpt>
      <trkpt lat="46.03868" lon="4.76701">
        <ele>205</ele>
        <time>2017-03-29T10:30:49Z</time>
      </trkpt>
      <trkpt lat="46.03862" lon="4.76703">
        <ele>205</ele>
        <time>2017-03-29T10:30:50Z</time>
      </trkpt>
      <trkpt lat="46.03857" lon="4.76704">
        <ele>205</ele>
        <time>2017-03-29T10:30:51Z</time>
      </trkpt>
      <trkpt lat="46.03852" lon="4.76706">
        <ele>205</ele>
        <time>2017-03-29T10:30:52Z</time>
      </trkpt>
      <trkpt lat="46.03847" lon="4.76708">
        <ele>205</ele>
        <time>2017-03-29T10:30:53Z</time>
      </trkpt>
      <trkpt lat="46.03841" lon="4.76709">
        <ele>205</ele>
        <time>2017-03-29T10:30:54Z</time>
      </trkpt>
      <trkpt lat="46.03836" lon="4.76708">
        <ele>205</ele>
        <time>2017-03-29T10:30:55Z</time>
      </trkpt>
      <trkpt lat="46.03831" lon="4.76708">
        <ele>205</ele>
        <time>2017-03-29T10:30:56Z</time>
      </trkpt>
      <trkpt lat="46.03825" lon="4.76709">
        <ele>205</ele>
        <time>2017-03-29T10:30:57Z</time>
      </trkpt>
      <trkpt lat="46.0382" lon="4.7671">
        <ele>205</ele>
        <time>2017-03-29T10:30:58Z</time>
      </trkpt>
      <trkpt lat="46.03815" lon="4.7671">
        <ele>205</ele>
        <time>2017-03-29T10:30:59Z</time>
      </trkpt>
      <trkpt lat="46.0381" lon="4.7671">
        <ele>205</ele>
        <time>2017-03-29T10:31:00Z</time>
      </trkpt>
      <trkpt lat="46.03805" lon="4.7671">
        <ele>205</ele>
        <time>2017-03-29T10:31:01Z</time>
      </trkpt>
      <trkpt lat="46.03799" lon="4.7671">
        <ele>205</ele>
        <time>2017-03-29T10:31:02Z</time>
      </trkpt>
      <trkpt lat="46.03794" lon="4.7671">
        <ele>205</ele>
        <time>2017-03-29T10:31:03Z</time>
      </trkpt>
      <trkpt lat="46.03789" lon="4.76709">
        <ele>205</ele>
        <time>2017-03-29T10:31:04Z</time>
      </trkpt>
      <trkpt lat="46.03783" lon="4.76709">
        <ele>205</ele>
        <time>2017-03-29T10:31:05Z</time>
      </trkpt>
      <trkpt lat="46.03778" lon="4.76709">
        <ele>205</ele>
        <time>2017-03-29T10:31:06Z</time>
      </trkpt>
      <trkpt lat="46.03772" lon="4.76708">
        <ele>205</ele>
        <time>2017-03-29T10:31:07Z</time>
      </trkpt>
      <trkpt lat="46.03767" lon="4.76707">
        <ele>205</ele>
        <time>2017-03-29T10:31:08Z</time>
      </trkpt>
      <trkpt lat="46.03762" lon="4.76705">
        <ele>205</ele>
        <time>2017-03-29T10:31:09Z</time>
      </trkpt>
      <trkpt lat="46.03757" lon="4.76703">
        <ele>205</ele>
        <time>2017-03-29T10:31:10Z</time>
      </trkpt>
      <trkpt lat="46.03752" lon="4.76701">
        <ele>205</ele>
        <time>2017-03-29T10:31:11Z</time>
      </trkpt>
      <trkpt lat="46.03747" lon="4.767">
        <ele>205</ele>
        <time>2017-03-29T10:31:12Z</time>
      </trkpt>
      <trkpt lat="46.03741" lon="4.76698">
        <ele>205</ele>
        <time>2017-03-29T10:31:13Z</time>
      </trkpt>
      <trkpt lat="46.03735" lon="4.76696">
        <ele>205</ele>
        <time>2017-03-29T10:31:14Z</time>
      </trkpt>
      <trkpt lat="46.03729" lon="4.76694">
        <ele>205</ele>
        <time>2017-03-29T10:31:15Z</time>
      </trkpt>
      <trkpt lat="46.03723" lon="4.76691">
        <ele>205</ele>
        <time>2017-03-29T10:31:16Z</time>
      </trkpt>
      <trkpt lat="46.03718" lon="4.76688">
        <ele>205</ele>
        <time>2017-03-29T10:31:17Z</time>
      </trkpt>
      <trkpt lat="46.03713" lon="4.76684">
        <ele>205</ele>
        <time>2017-03-29T10:31:18Z</time>
      </trkpt>
      <trkpt lat="46.03708" lon="4.76679">
        <ele>205</ele>
        <time>2017-03-29T10:31:19Z</time>
      </trkpt>
      <trkpt lat="46.03703" lon="4.76674">
        <ele>205</ele>
        <time>2017-03-29T10:31:20Z</time>
      </trkpt>
      <trkpt lat="46.03698" lon="4.76669">
        <ele>205</ele>
        <time>2017-03-29T10:31:21Z</time>
      </trkpt>
      <trkpt lat="46.03694" lon="4.76663">
        <ele>204</ele>
        <time>2017-03-29T10:31:22Z</time>
      </trkpt>
      <trkpt lat="46.03692" lon="4.76655">
        <ele>204</ele>
        <time>2017-03-29T10:31:23Z</time>
      </trkpt>
      <trkpt lat="46.0369" lon="4.76646">
        <ele>204</ele>
        <time>2017-03-29T10:31:24Z</time>
      </trkpt>
      <trkpt lat="46.03688" lon="4.76637">
        <ele>204</ele>
        <time>2017-03-29T10:31:25Z</time>
      </trkpt>
      <trkpt lat="46.03689" lon="4.76628">
        <ele>203</ele>
        <time>2017-03-29T10:31:26Z</time>
      </trkpt>
      <trkpt lat="46.03688" lon="4.76618">
        <ele>203</ele>
        <time>2017-03-29T10:31:27Z</time>
      </trkpt>
      <trkpt lat="46.03685" lon="4.76609">
        <ele>203</ele>
        <time>2017-03-29T10:31:28Z</time>
      </trkpt>
      <trkpt lat="46.03682" lon="4.766">
        <ele>203</ele>
        <time>2017-03-29T10:31:29Z</time>
      </trkpt>
      <trkpt lat="46.03679" lon="4.76592">
        <ele>203</ele>
        <time>2017-03-29T10:31:30Z</time>
      </trkpt>
      <trkpt lat="46.03674" lon="4.76586">
        <ele>202</ele>
        <time>2017-03-29T10:31:31Z</time>
      </trkpt>
      <trkpt lat="46.03668" lon="4.7658">
        <ele>202</ele>
        <time>2017-03-29T10:31:32Z</time>
      </trkpt>
      <trkpt lat="46.03662" lon="4.76574">
        <ele>201</ele>
        <time>2017-03-29T10:31:33Z</time>
      </trkpt>
      <trkpt lat="46.03657" lon="4.76567">
        <ele>201</ele>
        <time>2017-03-29T10:31:34Z</time>
      </trkpt>
      <trkpt lat="46.03651" lon="4.7656">
        <ele>201</ele>
        <time>2017-03-29T10:31:35Z</time>
      </trkpt>
      <trkpt lat="46.03647" lon="4.76551">
        <ele>201</ele>
        <time>2017-03-29T10:31:36Z</time>
      </trkpt>
      <trkpt lat="46.03644" lon="4.76542">
        <ele>200</ele>
        <time>2017-03-29T10:31:37Z</time>
      </trkpt>
      <trkpt lat="46.03642" lon="4.76532">
        <ele>200</ele>
        <time>2017-03-29T10:31:38Z</time>
      </trkpt>
      <trkpt lat="46.03638" lon="4.76522">
        <ele>200</ele>
        <time>2017-03-29T10:31:39Z</time>
      </trkpt>
      <trkpt lat="46.03634" lon="4.76513">
        <ele>200</ele>
        <time>2017-03-29T10:31:40Z</time>
      </trkpt>
      <trkpt lat="46.03631" lon="4.76504">
        <ele>200</ele>
        <time>2017-03-29T10:31:41Z</time>
      </trkpt>
      <trkpt lat="46.03627" lon="4.76495">
        <ele>199</ele>
        <time>2017-03-29T10:31:42Z</time>
      </trkpt>
      <trkpt lat="46.03623" lon="4.76487">
        <ele>199</ele>
        <time>2017-03-29T10:31:43Z</time>
      </trkpt>
      <trkpt lat="46.03618" lon="4.7648">
        <ele>199</ele>
        <time>2017-03-29T10:31:44Z</time>
      </trkpt>
      <trkpt lat="46.03614" lon="4.76473">
        <ele>199</ele>
        <time>2017-03-29T10:31:45Z</time>
      </trkpt>
      <trkpt lat="46.03611" lon="4.76464">
        <ele>199</ele>
        <time>2017-03-29T10:31:46Z</time>
      </trkpt>
      <trkpt lat="46.03609" lon="4.76455">
        <ele>199</ele>
        <time>2017-03-29T10:31:47Z</time>
      </trkpt>
      <trkpt lat="46.03607" lon="4.76447">
        <ele>199</ele>
        <time>2017-03-29T10:31:48Z</time>
      </trkpt>
      <trkpt lat="46.03605" lon="4.76438">
        <ele>199</ele>
        <time>2017-03-29T10:31:49Z</time>
      </trkpt>
      <trkpt lat="46.03604" lon="4.76429">
        <ele>199</ele>
        <time>2017-03-29T10:31:50Z</time>
      </trkpt>
      <trkpt lat="46.03604" lon="4.76418">
        <ele>199</ele>
        <time>2017-03-29T10:31:51Z</time>
      </trkpt>
      <trkpt lat="46.03605" lon="4.76408">
        <ele>198</ele>
        <time>2017-03-29T10:31:52Z</time>
      </trkpt>
      <trkpt lat="46.03606" lon="4.76398">
        <ele>197</ele>
        <time>2017-03-29T10:31:53Z</time>
      </trkpt>
      <trkpt lat="46.03606" lon="4.76387">
        <ele>197</ele>
        <time>2017-03-29T10:31:54Z</time>
      </trkpt>
      <trkpt lat="46.03609" lon="4.76377">
        <ele>197</ele>
        <time>2017-03-29T10:31:55Z</time>
      </trkpt>
      <trkpt lat="46.0361" lon="4.76366">
        <ele>197</ele>
        <time>2017-03-29T10:31:56Z</time>
      </trkpt>
      <trkpt lat="46.03611" lon="4.76355">
        <ele>196</ele>
        <time>2017-03-29T10:31:57Z</time>
      </trkpt>
      <trkpt lat="46.03612" lon="4.76344">
        <ele>196</ele>
        <time>2017-03-29T10:31:58Z</time>
      </trkpt>
      <trkpt lat="46.03614" lon="4.76333">
        <ele>195</ele>
        <time>2017-03-29T10:31:59Z</time>
      </trkpt>
      <trkpt lat="46.03616" lon="4.76322">
        <ele>195</ele>
        <time>2017-03-29T10:32:00Z</time>
      </trkpt>
      <trkpt lat="46.03618" lon="4.76311">
        <ele>195</ele>
        <time>2017-03-29T10:32:01Z</time>
      </trkpt>
      <trkpt lat="46.0362" lon="4.76301">
        <ele>195</ele>
        <time>2017-03-29T10:32:02Z</time>
      </trkpt>
      <trkpt lat="46.03621" lon="4.76291">
        <ele>194</ele>
        <time>2017-03-29T10:32:03Z</time>
      </trkpt>
      <trkpt lat="46.03622" lon="4.76281">
        <ele>194</ele>
        <time>2017-03-29T10:32:04Z</time>
      </trkpt>
      <trkpt lat="46.03624" lon="4.76271">
        <ele>194</ele>
        <time>2017-03-29T10:32:05Z</time>
      </trkpt>
      <trkpt lat="46.03624" lon="4.76261">
        <ele>194</ele>
        <time>2017-03-29T10:32:06Z</time>
      </trkpt>
      <trkpt lat="46.03625" lon="4.76251">
        <ele>194</ele>
        <time>2017-03-29T10:32:07Z</time>
      </trkpt>
      <trkpt lat="46.03626" lon="4.76241">
        <ele>193</ele>
        <time>2017-03-29T10:32:08Z</time>
      </trkpt>
      <trkpt lat="46.03627" lon="4.76231">
        <ele>193</ele>
        <time>2017-03-29T10:32:09Z</time>
      </trkpt>
      <trkpt lat="46.03629" lon="4.76222">
        <ele>193</ele>
        <time>2017-03-29T10:32:10Z</time>
      </trkpt>
      <trkpt lat="46.0363" lon="4.76212">
        <ele>193</ele>
        <time>2017-03-29T10:32:11Z</time>
      </trkpt>
      <trkpt lat="46.03631" lon="4.76203">
        <ele>193</ele>
        <time>2017-03-29T10:32:12Z</time>
      </trkpt>
      <trkpt lat="46.03632" lon="4.76194">
        <ele>193</ele>
        <time>2017-03-29T10:32:13Z</time>
      </trkpt>
      <trkpt lat="46.03633" lon="4.76185">
        <ele>193</ele>
        <time>2017-03-29T10:32:14Z</time>
      </trkpt>
      <trkpt lat="46.03635" lon="4.76176">
        <ele>192</ele>
        <time>2017-03-29T10:32:15Z</time>
      </trkpt>
      <trkpt lat="46.03636" lon="4.76168">
        <ele>192</ele>
        <time>2017-03-29T10:32:16Z</time>
      </trkpt>
      <trkpt lat="46.03637" lon="4.76159">
        <ele>192</ele>
        <time>2017-03-29T10:32:17Z</time>
      </trkpt>
      <trkpt lat="46.03637" lon="4.76151">
        <ele>192</ele>
        <time>2017-03-29T10:32:18Z</time>
      </trkpt>
      <trkpt lat="46.03637" lon="4.76143">
        <ele>192</ele>
        <time>2017-03-29T10:32:19Z</time>
      </trkpt>
      <trkpt lat="46.03636" lon="4.76134">
        <ele>192</ele>
        <time>2017-03-29T10:32:20Z</time>
      </trkpt>
      <trkpt lat="46.03636" lon="4.76126">
        <ele>192</ele>
        <time>2017-03-29T10:32:21Z</time>
      </trkpt>
      <trkpt lat="46.03635" lon="4.76119">
        <ele>192</ele>
        <time>2017-03-29T10:32:22Z</time>
      </trkpt>
      <trkpt lat="46.03634" lon="4.76111">
        <ele>192</ele>
        <time>2017-03-29T10:32:23Z</time>
      </trkpt>
      <trkpt lat="46.03634" lon="4.76103">
        <ele>192</ele>
        <time>2017-03-29T10:32:24Z</time>
      </trkpt>
      <trkpt lat="46.03634" lon="4.76094">
        <ele>192</ele>
        <time>2017-03-29T10:32:25Z</time>
      </trkpt>
      <trkpt lat="46.03633" lon="4.76086">
        <ele>192</ele>
        <time>2017-03-29T10:32:26Z</time>
      </trkpt>
      <trkpt lat="46.03632" lon="4.76077">
        <ele>191</ele>
        <time>2017-03-29T10:32:27Z</time>
      </trkpt>
      <trkpt lat="46.0363" lon="4.76069">
        <ele>191</ele>
        <time>2017-03-29T10:32:28Z</time>
      </trkpt>
      <trkpt lat="46.03628" lon="4.76061">
        <ele>191</ele>
        <time>2017-03-29T10:32:29Z</time>
      </trkpt>
      <trkpt lat="46.03629" lon="4.76052">
        <ele>191</ele>
        <time>2017-03-29T10:32:30Z</time>
      </trkpt>
      <trkpt lat="46.03625" lon="4.76043">
        <ele>191</ele>
        <time>2017-03-29T10:32:31Z</time>
      </trkpt>
      <trkpt lat="46.03622" lon="4.76035">
        <ele>191</ele>
        <time>2017-03-29T10:32:32Z</time>
      </trkpt>
      <trkpt lat="46.03619" lon="4.76026">
        <ele>191</ele>
        <time>2017-03-29T10:32:33Z</time>
      </trkpt>
      <trkpt lat="46.03615" lon="4.76018">
        <ele>191</ele>
        <time>2017-03-29T10:32:34Z</time>
      </trkpt>
      <trkpt lat="46.03612" lon="4.7601">
        <ele>191</ele>
        <time>2017-03-29T10:32:35Z</time>
      </trkpt>
      <trkpt lat="46.0361" lon="4.76002">
        <ele>191</ele>
        <time>2017-03-29T10:32:36Z</time>
      </trkpt>
      <trkpt lat="46.03607" lon="4.75994">
        <ele>190</ele>
        <time>2017-03-29T10:32:37Z</time>
      </trkpt>
      <trkpt lat="46.03605" lon="4.75986">
        <ele>190</ele>
        <time>2017-03-29T10:32:38Z</time>
      </trkpt>
      <trkpt lat="46.03602" lon="4.75978">
        <ele>190</ele>
        <time>2017-03-29T10:32:39Z</time>
      </trkpt>
      <trkpt lat="46.03598" lon="4.75971">
        <ele>190</ele>
        <time>2017-03-29T10:32:40Z</time>
      </trkpt>
      <trkpt lat="46.03596" lon="4.75963">
        <ele>190</ele>
        <time>2017-03-29T10:32:41Z</time>
      </trkpt>
      <trkpt lat="46.03593" lon="4.75956">
        <ele>190</ele>
        <time>2017-03-29T10:32:42Z</time>
      </trkpt>
      <trkpt lat="46.03589" lon="4.75949">
        <ele>190</ele>
        <time>2017-03-29T10:32:43Z</time>
      </trkpt>
      <trkpt lat="46.03586" lon="4.75942">
        <ele>190</ele>
        <time>2017-03-29T10:32:44Z</time>
      </trkpt>
      <trkpt lat="46.03583" lon="4.75935">
        <ele>190</ele>
        <time>2017-03-29T10:32:45Z</time>
      </trkpt>
      <trkpt lat="46.0358" lon="4.75928">
        <ele>189</ele>
        <time>2017-03-29T10:32:46Z</time>
      </trkpt>
      <trkpt lat="46.03576" lon="4.75921">
        <ele>189</ele>
        <time>2017-03-29T10:32:47Z</time>
      </trkpt>
      <trkpt lat="46.03573" lon="4.75914">
        <ele>189</ele>
        <time>2017-03-29T10:32:48Z</time>
      </trkpt>
      <trkpt lat="46.0357" lon="4.75907">
        <ele>189</ele>
        <time>2017-03-29T10:32:49Z</time>
      </trkpt>
      <trkpt lat="46.03566" lon="4.759">
        <ele>189</ele>
        <time>2017-03-29T10:32:50Z</time>
      </trkpt>
      <trkpt lat="46.03563" lon="4.75893">
        <ele>189</ele>
        <time>2017-03-29T10:32:51Z</time>
      </trkpt>
      <trkpt lat="46.0356" lon="4.75886">
        <ele>189</ele>
        <time>2017-03-29T10:32:52Z</time>
      </trkpt>
      <trkpt lat="46.03556" lon="4.75879">
        <ele>189</ele>
        <time>2017-03-29T10:32:53Z</time>
      </trkpt>
      <trkpt lat="46.03553" lon="4.75871">
        <ele>189</ele>
        <time>2017-03-29T10:32:54Z</time>
      </trkpt>
      <trkpt lat="46.03549" lon="4.75864">
        <ele>189</ele>
        <time>2017-03-29T10:32:55Z</time>
      </trkpt>
      <trkpt lat="46.03546" lon="4.75857">
        <ele>189</ele>
        <time>2017-03-29T10:32:56Z</time>
      </trkpt>
      <trkpt lat="46.03542" lon="4.7585">
        <ele>189</ele>
        <time>2017-03-29T10:32:57Z</time>
      </trkpt>
      <trkpt lat="46.03539" lon="4.75843">
        <ele>190</ele>
        <time>2017-03-29T10:32:58Z</time>
      </trkpt>
      <trkpt lat="46.03536" lon="4.75836">
        <ele>190</ele>
        <time>2017-03-29T10:32:59Z</time>
      </trkpt>
      <trkpt lat="46.03533" lon="4.75828">
        <ele>189</ele>
        <time>2017-03-29T10:33:00Z</time>
      </trkpt>
      <trkpt lat="46.03528" lon="4.7582">
        <ele>189</ele>
        <time>2017-03-29T10:33:01Z</time>
      </trkpt>
      <trkpt lat="46.03524" lon="4.75812">
        <ele>189</ele>
        <time>2017-03-29T10:33:02Z</time>
      </trkpt>
      <trkpt lat="46.03521" lon="4.75805">
        <ele>189</ele>
        <time>2017-03-29T10:33:03Z</time>
      </trkpt>
      <trkpt lat="46.03518" lon="4.75798">
        <ele>189</ele>
        <time>2017-03-29T10:33:04Z</time>
      </trkpt>
      <trkpt lat="46.03513" lon="4.75792">
        <ele>189</ele>
        <time>2017-03-29T10:33:05Z</time>
      </trkpt>
      <trkpt lat="46.03511" lon="4.75785">
        <ele>189</ele>
        <time>2017-03-29T10:33:06Z</time>
      </trkpt>
      <trkpt lat="46.03508" lon="4.75778">
        <ele>189</ele>
        <time>2017-03-29T10:33:07Z</time>
      </trkpt>
      <trkpt lat="46.03507" lon="4.7577">
        <ele>189</ele>
        <time>2017-03-29T10:33:08Z</time>
      </trkpt>
      <trkpt lat="46.03505" lon="4.75762">
        <ele>189</ele>
        <time>2017-03-29T10:33:09Z</time>
      </trkpt>
      <trkpt lat="46.03502" lon="4.75755">
        <ele>189</ele>
        <time>2017-03-29T10:33:10Z</time>
      </trkpt>
      <trkpt lat="46.035" lon="4.75748">
        <ele>189</ele>
        <time>2017-03-29T10:33:11Z</time>
      </trkpt>
      <trkpt lat="46.03497" lon="4.7574">
        <ele>189</ele>
        <time>2017-03-29T10:33:12Z</time>
      </trkpt>
      <trkpt lat="46.03495" lon="4.75733">
        <ele>189</ele>
        <time>2017-03-29T10:33:13Z</time>
      </trkpt>
      <trkpt lat="46.03492" lon="4.75725">
        <ele>189</ele>
        <time>2017-03-29T10:33:14Z</time>
      </trkpt>
      <trkpt lat="46.03491" lon="4.75718">
        <ele>189</ele>
        <time>2017-03-29T10:33:15Z</time>
      </trkpt>
      <trkpt lat="46.03488" lon="4.7571">
        <ele>189</ele>
        <time>2017-03-29T10:33:16Z</time>
      </trkpt>
      <trkpt lat="46.03486" lon="4.75704">
        <ele>189</ele>
        <time>2017-03-29T10:33:17Z</time>
      </trkpt>
      <trkpt lat="46.03484" lon="4.75696">
        <ele>189</ele>
        <time>2017-03-29T10:33:18Z</time>
      </trkpt>
      <trkpt lat="46.03481" lon="4.75689">
        <ele>189</ele>
        <time>2017-03-29T10:33:19Z</time>
      </trkpt>
      <trkpt lat="46.03478" lon="4.75682">
        <ele>189</ele>
        <time>2017-03-29T10:33:20Z</time>
      </trkpt>
      <trkpt lat="46.03475" lon="4.75675">
        <ele>189</ele>
        <time>2017-03-29T10:33:21Z</time>
      </trkpt>
      <trkpt lat="46.03473" lon="4.75668">
        <ele>189</ele>
        <time>2017-03-29T10:33:22Z</time>
      </trkpt>
      <trkpt lat="46.0347" lon="4.75661">
        <ele>188</ele>
        <time>2017-03-29T10:33:23Z</time>
      </trkpt>
      <trkpt lat="46.03468" lon="4.75654">
        <ele>188</ele>
        <time>2017-03-29T10:33:24Z</time>
      </trkpt>
      <trkpt lat="46.03465" lon="4.75647">
        <ele>188</ele>
        <time>2017-03-29T10:33:25Z</time>
      </trkpt>
      <trkpt lat="46.03462" lon="4.75642">
        <ele>188</ele>
        <time>2017-03-29T10:33:26Z</time>
      </trkpt>
      <trkpt lat="46.03458" lon="4.75634">
        <ele>188</ele>
        <time>2017-03-29T10:33:28Z</time>
      </trkpt>
      <trkpt lat="46.03456" lon="4.75631">
        <ele>188</ele>
        <time>2017-03-29T10:33:29Z</time>
      </trkpt>
      <trkpt lat="46.03453" lon="4.75625">
        <ele>188</ele>
        <time>2017-03-29T10:33:31Z</time>
      </trkpt>
      <trkpt lat="46.0345" lon="4.75621">
        <ele>187</ele>
        <time>2017-03-29T10:33:32Z</time>
      </trkpt>
      <trkpt lat="46.03443" lon="4.75614">
        <ele>187</ele>
        <time>2017-03-29T10:33:34Z</time>
      </trkpt>
      <trkpt lat="46.03439" lon="4.75612">
        <ele>187</ele>
        <time>2017-03-29T10:33:35Z</time>
      </trkpt>
      <trkpt lat="46.03433" lon="4.75612">
        <ele>187</ele>
        <time>2017-03-29T10:33:36Z</time>
      </trkpt>
      <trkpt lat="46.03427" lon="4.75613">
        <ele>187</ele>
        <time>2017-03-29T10:33:37Z</time>
      </trkpt>
      <trkpt lat="46.03422" lon="4.75613">
        <ele>187</ele>
        <time>2017-03-29T10:33:38Z</time>
      </trkpt>
      <trkpt lat="46.03418" lon="4.75614">
        <ele>188</ele>
        <time>2017-03-29T10:33:39Z</time>
      </trkpt>
      <trkpt lat="46.03413" lon="4.75615">
        <ele>188</ele>
        <time>2017-03-29T10:33:40Z</time>
      </trkpt>
      <trkpt lat="46.03408" lon="4.75615">
        <ele>188</ele>
        <time>2017-03-29T10:33:41Z</time>
      </trkpt>
      <trkpt lat="46.03402" lon="4.75617">
        <ele>188</ele>
        <time>2017-03-29T10:33:42Z</time>
      </trkpt>
      <trkpt lat="46.03397" lon="4.75618">
        <ele>188</ele>
        <time>2017-03-29T10:33:43Z</time>
      </trkpt>
      <trkpt lat="46.03391" lon="4.75619">
        <ele>188</ele>
        <time>2017-03-29T10:33:44Z</time>
      </trkpt>
      <trkpt lat="46.03385" lon="4.7562">
        <ele>188</ele>
        <time>2017-03-29T10:33:45Z</time>
      </trkpt>
      <trkpt lat="46.03379" lon="4.75622">
        <ele>188</ele>
        <time>2017-03-29T10:33:46Z</time>
      </trkpt>
      <trkpt lat="46.03373" lon="4.75623">
        <ele>188</ele>
        <time>2017-03-29T10:33:47Z</time>
      </trkpt>
      <trkpt lat="46.03367" lon="4.75625">
        <ele>188</ele>
        <time>2017-03-29T10:33:48Z</time>
      </trkpt>
      <trkpt lat="46.03361" lon="4.75626">
        <ele>188</ele>
        <time>2017-03-29T10:33:49Z</time>
      </trkpt>
      <trkpt lat="46.03355" lon="4.75626">
        <ele>188</ele>
        <time>2017-03-29T10:33:50Z</time>
      </trkpt>
      <trkpt lat="46.03349" lon="4.75627">
        <ele>188</ele>
        <time>2017-03-29T10:33:51Z</time>
      </trkpt>
      <trkpt lat="46.03343" lon="4.75628">
        <ele>188</ele>
        <time>2017-03-29T10:33:52Z</time>
      </trkpt>
      <trkpt lat="46.03337" lon="4.75628">
        <ele>188</ele>
        <time>2017-03-29T10:33:53Z</time>
      </trkpt>
      <trkpt lat="46.03332" lon="4.75628">
        <ele>189</ele>
        <time>2017-03-29T10:33:54Z</time>
      </trkpt>
      <trkpt lat="46.03326" lon="4.75628">
        <ele>189</ele>
        <time>2017-03-29T10:33:55Z</time>
      </trkpt>
      <trkpt lat="46.03321" lon="4.75627">
        <ele>189</ele>
        <time>2017-03-29T10:33:56Z</time>
      </trkpt>
      <trkpt lat="46.03315" lon="4.75626">
        <ele>189</ele>
        <time>2017-03-29T10:33:57Z</time>
      </trkpt>
      <trkpt lat="46.0331" lon="4.75626">
        <ele>189</ele>
        <time>2017-03-29T10:33:58Z</time>
      </trkpt>
      <trkpt lat="46.03304" lon="4.75628">
        <ele>189</ele>
        <time>2017-03-29T10:33:59Z</time>
      </trkpt>
      <trkpt lat="46.03298" lon="4.7563">
        <ele>189</ele>
        <time>2017-03-29T10:34:00Z</time>
      </trkpt>
      <trkpt lat="46.03293" lon="4.75634">
        <ele>189</ele>
        <time>2017-03-29T10:34:01Z</time>
      </trkpt>
      <trkpt lat="46.03287" lon="4.75638">
        <ele>190</ele>
        <time>2017-03-29T10:34:02Z</time>
      </trkpt>
      <trkpt lat="46.03282" lon="4.75643">
        <ele>190</ele>
        <time>2017-03-29T10:34:03Z</time>
      </trkpt>
      <trkpt lat="46.03276" lon="4.75647">
        <ele>191</ele>
        <time>2017-03-29T10:34:04Z</time>
      </trkpt>
      <trkpt lat="46.03271" lon="4.7565">
        <ele>191</ele>
        <time>2017-03-29T10:34:05Z</time>
      </trkpt>
      <trkpt lat="46.03265" lon="4.75653">
        <ele>192</ele>
        <time>2017-03-29T10:34:06Z</time>
      </trkpt>
      <trkpt lat="46.03259" lon="4.75655">
        <ele>192</ele>
        <time>2017-03-29T10:34:07Z</time>
      </trkpt>
      <trkpt lat="46.03253" lon="4.75656">
        <ele>193</ele>
        <time>2017-03-29T10:34:08Z</time>
      </trkpt>
      <trkpt lat="46.03247" lon="4.75657">
        <ele>193</ele>
        <time>2017-03-29T10:34:09Z</time>
      </trkpt>
      <trkpt lat="46.0324" lon="4.75659">
        <ele>192</ele>
        <time>2017-03-29T10:34:10Z</time>
      </trkpt>
      <trkpt lat="46.03233" lon="4.7566">
        <ele>192</ele>
        <time>2017-03-29T10:34:11Z</time>
      </trkpt>
      <trkpt lat="46.03226" lon="4.75662">
        <ele>191</ele>
        <time>2017-03-29T10:34:12Z</time>
      </trkpt>
      <trkpt lat="46.0322" lon="4.75663">
        <ele>191</ele>
        <time>2017-03-29T10:34:13Z</time>
      </trkpt>
      <trkpt lat="46.03213" lon="4.75663">
        <ele>190</ele>
        <time>2017-03-29T10:34:14Z</time>
      </trkpt>
      <trkpt lat="46.03206" lon="4.75664">
        <ele>190</ele>
        <time>2017-03-29T10:34:15Z</time>
      </trkpt>
      <trkpt lat="46.03199" lon="4.75664">
        <ele>189</ele>
        <time>2017-03-29T10:34:16Z</time>
      </trkpt>
      <trkpt lat="46.03192" lon="4.75663">
        <ele>189</ele>
        <time>2017-03-29T10:34:17Z</time>
      </trkpt>
      <trkpt lat="46.03186" lon="4.75664">
        <ele>189</ele>
        <time>2017-03-29T10:34:18Z</time>
      </trkpt>
      <trkpt lat="46.03179" lon="4.75665">
        <ele>188</ele>
        <time>2017-03-29T10:34:19Z</time>
      </trkpt>
      <trkpt lat="46.03173" lon="4.75665">
        <ele>188</ele>
        <time>2017-03-29T10:34:20Z</time>
      </trkpt>
      <trkpt lat="46.03166" lon="4.75665">
        <ele>188</ele>
        <time>2017-03-29T10:34:21Z</time>
      </trkpt>
      <trkpt lat="46.0316" lon="4.75665">
        <ele>187</ele>
        <time>2017-03-29T10:34:22Z</time>
      </trkpt>
      <trkpt lat="46.03154" lon="4.75665">
        <ele>187</ele>
        <time>2017-03-29T10:34:23Z</time>
      </trkpt>
      <trkpt lat="46.03148" lon="4.75665">
        <ele>186</ele>
        <time>2017-03-29T10:34:24Z</time>
      </trkpt>
      <trkpt lat="46.03142" lon="4.75666">
        <ele>186</ele>
        <time>2017-03-29T10:34:25Z</time>
      </trkpt>
      <trkpt lat="46.03136" lon="4.75667">
        <ele>187</ele>
        <time>2017-03-29T10:34:26Z</time>
      </trkpt>
      <trkpt lat="46.0313" lon="4.75669">
        <ele>187</ele>
        <time>2017-03-29T10:34:27Z</time>
      </trkpt>
      <trkpt lat="46.03123" lon="4.7567">
        <ele>186</ele>
        <time>2017-03-29T10:34:28Z</time>
      </trkpt>
      <trkpt lat="46.03117" lon="4.75671">
        <ele>186</ele>
        <time>2017-03-29T10:34:29Z</time>
      </trkpt>
      <trkpt lat="46.03111" lon="4.75672">
        <ele>186</ele>
        <time>2017-03-29T10:34:30Z</time>
      </trkpt>
      <trkpt lat="46.03104" lon="4.75673">
        <ele>186</ele>
        <time>2017-03-29T10:34:31Z</time>
      </trkpt>
      <trkpt lat="46.03098" lon="4.75674">
        <ele>185</ele>
        <time>2017-03-29T10:34:32Z</time>
      </trkpt>
      <trkpt lat="46.03092" lon="4.75674">
        <ele>185</ele>
        <time>2017-03-29T10:34:33Z</time>
      </trkpt>
      <trkpt lat="46.03086" lon="4.75675">
        <ele>185</ele>
        <time>2017-03-29T10:34:34Z</time>
      </trkpt>
      <trkpt lat="46.0308" lon="4.75675">
        <ele>184</ele>
        <time>2017-03-29T10:34:35Z</time>
      </trkpt>
      <trkpt lat="46.03074" lon="4.75675">
        <ele>184</ele>
        <time>2017-03-29T10:34:36Z</time>
      </trkpt>
      <trkpt lat="46.03068" lon="4.75676">
        <ele>184</ele>
        <time>2017-03-29T10:34:37Z</time>
      </trkpt>
      <trkpt lat="46.03062" lon="4.75677">
        <ele>184</ele>
        <time>2017-03-29T10:34:38Z</time>
      </trkpt>
      <trkpt lat="46.03056" lon="4.75679">
        <ele>184</ele>
        <time>2017-03-29T10:34:39Z</time>
      </trkpt>
      <trkpt lat="46.03051" lon="4.75681">
        <ele>184</ele>
        <time>2017-03-29T10:34:40Z</time>
      </trkpt>
      <trkpt lat="46.03045" lon="4.75684">
        <ele>184</ele>
        <time>2017-03-29T10:34:41Z</time>
      </trkpt>
      <trkpt lat="46.03039" lon="4.75686">
        <ele>184</ele>
        <time>2017-03-29T10:34:42Z</time>
      </trkpt>
      <trkpt lat="46.03034" lon="4.75688">
        <ele>183</ele>
        <time>2017-03-29T10:34:43Z</time>
      </trkpt>
      <trkpt lat="46.03028" lon="4.7569">
        <ele>183</ele>
        <time>2017-03-29T10:34:44Z</time>
      </trkpt>
      <trkpt lat="46.03023" lon="4.75692">
        <ele>183</ele>
        <time>2017-03-29T10:34:45Z</time>
      </trkpt>
      <trkpt lat="46.03018" lon="4.75694">
        <ele>183</ele>
        <time>2017-03-29T10:34:46Z</time>
      </trkpt>
      <trkpt lat="46.03013" lon="4.75696">
        <ele>183</ele>
        <time>2017-03-29T10:34:47Z</time>
      </trkpt>
      <trkpt lat="46.03007" lon="4.75697">
        <ele>183</ele>
        <time>2017-03-29T10:34:48Z</time>
      </trkpt>
      <trkpt lat="46.03001" lon="4.75699">
        <ele>183</ele>
        <time>2017-03-29T10:34:49Z</time>
      </trkpt>
      <trkpt lat="46.02995" lon="4.75701">
        <ele>183</ele>
        <time>2017-03-29T10:34:50Z</time>
      </trkpt>
      <trkpt lat="46.02988" lon="4.75703">
        <ele>183</ele>
        <time>2017-03-29T10:34:51Z</time>
      </trkpt>
      <trkpt lat="46.02981" lon="4.75705">
        <ele>183</ele>
        <time>2017-03-29T10:34:52Z</time>
      </trkpt>
      <trkpt lat="46.02975" lon="4.75708">
        <ele>183</ele>
        <time>2017-03-29T10:34:53Z</time>
      </trkpt>
      <trkpt lat="46.02968" lon="4.7571">
        <ele>183</ele>
        <time>2017-03-29T10:34:54Z</time>
      </trkpt>
      <trkpt lat="46.02961" lon="4.75711">
        <ele>183</ele>
        <time>2017-03-29T10:34:55Z</time>
      </trkpt>
      <trkpt lat="46.02955" lon="4.75713">
        <ele>183</ele>
        <time>2017-03-29T10:34:56Z</time>
      </trkpt>
      <trkpt lat="46.02948" lon="4.75715">
        <ele>183</ele>
        <time>2017-03-29T10:34:57Z</time>
      </trkpt>
      <trkpt lat="46.02941" lon="4.75716">
        <ele>183</ele>
        <time>2017-03-29T10:34:58Z</time>
      </trkpt>
      <trkpt lat="46.02934" lon="4.75717">
        <ele>183</ele>
        <time>2017-03-29T10:34:59Z</time>
      </trkpt>
      <trkpt lat="46.02928" lon="4.75718">
        <ele>183</ele>
        <time>2017-03-29T10:35:00Z</time>
      </trkpt>
      <trkpt lat="46.02922" lon="4.75719">
        <ele>183</ele>
        <time>2017-03-29T10:35:01Z</time>
      </trkpt>
      <trkpt lat="46.02915" lon="4.7572">
        <ele>183</ele>
        <time>2017-03-29T10:35:02Z</time>
      </trkpt>
      <trkpt lat="46.02909" lon="4.75721">
        <ele>183</ele>
        <time>2017-03-29T10:35:03Z</time>
      </trkpt>
      <trkpt lat="46.02902" lon="4.75721">
        <ele>183</ele>
        <time>2017-03-29T10:35:04Z</time>
      </trkpt>
      <trkpt lat="46.02896" lon="4.75722">
        <ele>183</ele>
        <time>2017-03-29T10:35:05Z</time>
      </trkpt>
      <trkpt lat="46.02889" lon="4.75722">
        <ele>183</ele>
        <time>2017-03-29T10:35:06Z</time>
      </trkpt>
      <trkpt lat="46.02883" lon="4.75722">
        <ele>183</ele>
        <time>2017-03-29T10:35:07Z</time>
      </trkpt>
      <trkpt lat="46.02876" lon="4.75723">
        <ele>183</ele>
        <time>2017-03-29T10:35:08Z</time>
      </trkpt>
      <trkpt lat="46.02869" lon="4.75724">
        <ele>183</ele>
        <time>2017-03-29T10:35:09Z</time>
      </trkpt>
      <trkpt lat="46.02862" lon="4.75724">
        <ele>183</ele>
        <time>2017-03-29T10:35:10Z</time>
      </trkpt>
      <trkpt lat="46.02854" lon="4.75724">
        <ele>184</ele>
        <time>2017-03-29T10:35:11Z</time>
      </trkpt>
      <trkpt lat="46.02848" lon="4.75723">
        <ele>184</ele>
        <time>2017-03-29T10:35:12Z</time>
      </trkpt>
      <trkpt lat="46.0284" lon="4.75723">
        <ele>184</ele>
        <time>2017-03-29T10:35:13Z</time>
      </trkpt>
      <trkpt lat="46.02834" lon="4.75722">
        <ele>184</ele>
        <time>2017-03-29T10:35:14Z</time>
      </trkpt>
      <trkpt lat="46.02827" lon="4.75721">
        <ele>184</ele>
        <time>2017-03-29T10:35:15Z</time>
      </trkpt>
      <trkpt lat="46.02819" lon="4.75721">
        <ele>184</ele>
        <time>2017-03-29T10:35:16Z</time>
      </trkpt>
      <trkpt lat="46.02812" lon="4.7572">
        <ele>183</ele>
        <time>2017-03-29T10:35:17Z</time>
      </trkpt>
      <trkpt lat="46.02805" lon="4.75718">
        <ele>183</ele>
        <time>2017-03-29T10:35:18Z</time>
      </trkpt>
      <trkpt lat="46.02798" lon="4.75717">
        <ele>183</ele>
        <time>2017-03-29T10:35:19Z</time>
      </trkpt>
      <trkpt lat="46.02791" lon="4.75716">
        <ele>183</ele>
        <time>2017-03-29T10:35:20Z</time>
      </trkpt>
      <trkpt lat="46.02784" lon="4.75715">
        <ele>183</ele>
        <time>2017-03-29T10:35:21Z</time>
      </trkpt>
      <trkpt lat="46.02777" lon="4.75714">
        <ele>183</ele>
        <time>2017-03-29T10:35:22Z</time>
      </trkpt>
      <trkpt lat="46.0277" lon="4.75714">
        <ele>183</ele>
        <time>2017-03-29T10:35:23Z</time>
      </trkpt>
      <trkpt lat="46.02763" lon="4.75715">
        <ele>183</ele>
        <time>2017-03-29T10:35:24Z</time>
      </trkpt>
      <trkpt lat="46.02757" lon="4.75716">
        <ele>183</ele>
        <time>2017-03-29T10:35:25Z</time>
      </trkpt>
      <trkpt lat="46.02751" lon="4.75716">
        <ele>183</ele>
        <time>2017-03-29T10:35:26Z</time>
      </trkpt>
      <trkpt lat="46.02745" lon="4.75717">
        <ele>182</ele>
        <time>2017-03-29T10:35:27Z</time>
      </trkpt>
      <trkpt lat="46.0274" lon="4.75718">
        <ele>182</ele>
        <time>2017-03-29T10:35:28Z</time>
      </trkpt>
      <trkpt lat="46.02734" lon="4.75721">
        <ele>182</ele>
        <time>2017-03-29T10:35:29Z</time>
      </trkpt>
      <trkpt lat="46.02729" lon="4.75723">
        <ele>182</ele>
        <time>2017-03-29T10:35:30Z</time>
      </trkpt>
      <trkpt lat="46.02724" lon="4.75726">
        <ele>182</ele>
        <time>2017-03-29T10:35:31Z</time>
      </trkpt>
      <trkpt lat="46.02719" lon="4.75729">
        <ele>182</ele>
        <time>2017-03-29T10:35:32Z</time>
      </trkpt>
      <trkpt lat="46.02714" lon="4.75733">
        <ele>182</ele>
        <time>2017-03-29T10:35:33Z</time>
      </trkpt>
      <trkpt lat="46.02708" lon="4.75736">
        <ele>182</ele>
        <time>2017-03-29T10:35:34Z</time>
      </trkpt>
      <trkpt lat="46.02703" lon="4.75738">
        <ele>182</ele>
        <time>2017-03-29T10:35:35Z</time>
      </trkpt>
      <trkpt lat="46.02697" lon="4.7574">
        <ele>182</ele>
        <time>2017-03-29T10:35:36Z</time>
      </trkpt>
      <trkpt lat="46.02692" lon="4.75741">
        <ele>182</ele>
        <time>2017-03-29T10:35:37Z</time>
      </trkpt>
      <trkpt lat="46.02687" lon="4.75743">
        <ele>182</ele>
        <time>2017-03-29T10:35:38Z</time>
      </trkpt>
      <trkpt lat="46.02681" lon="4.75745">
        <ele>181</ele>
        <time>2017-03-29T10:35:39Z</time>
      </trkpt>
      <trkpt lat="46.02676" lon="4.75746">
        <ele>181</ele>
        <time>2017-03-29T10:35:40Z</time>
      </trkpt>
      <trkpt lat="46.02671" lon="4.75747">
        <ele>181</ele>
        <time>2017-03-29T10:35:41Z</time>
      </trkpt>
      <trkpt lat="46.02665" lon="4.75746">
        <ele>181</ele>
        <time>2017-03-29T10:35:42Z</time>
      </trkpt>
      <trkpt lat="46.0266" lon="4.75746">
        <ele>181</ele>
        <time>2017-03-29T10:35:43Z</time>
      </trkpt>
      <trkpt lat="46.02651" lon="4.75746">
        <ele>182</ele>
        <time>2017-03-29T10:35:45Z</time>
      </trkpt>
      <trkpt lat="46.02647" lon="4.75745">
        <ele>182</ele>
        <time>2017-03-29T10:35:46Z</time>
      </trkpt>
      <trkpt lat="46.02642" lon="4.75744">
        <ele>182</ele>
        <time>2017-03-29T10:35:47Z</time>
      </trkpt>
      <trkpt lat="46.02638" lon="4.75743">
        <ele>182</ele>
        <time>2017-03-29T10:35:48Z</time>
      </trkpt>
      <trkpt lat="46.02629" lon="4.75742">
        <ele>182</ele>
        <time>2017-03-29T10:35:50Z</time>
      </trkpt>
      <trkpt lat="46.02626" lon="4.75741">
        <ele>182</ele>
        <time>2017-03-29T10:35:51Z</time>
      </trkpt>
      <trkpt lat="46.02619" lon="4.7574">
        <ele>182</ele>
        <time>2017-03-29T10:35:53Z</time>
      </trkpt>
      <trkpt lat="46.02615" lon="4.7574">
        <ele>182</ele>
        <time>2017-03-29T10:35:54Z</time>
      </trkpt>
      <trkpt lat="46.02608" lon="4.7574">
        <ele>182</ele>
        <time>2017-03-29T10:35:56Z</time>
      </trkpt>
      <trkpt lat="46.02605" lon="4.7574">
        <ele>183</ele>
        <time>2017-03-29T10:35:57Z</time>
      </trkpt>
      <trkpt lat="46.02597" lon="4.7574">
        <ele>183</ele>
        <time>2017-03-29T10:35:59Z</time>
      </trkpt>
      <trkpt lat="46.02593" lon="4.7574">
        <ele>183</ele>
        <time>2017-03-29T10:36:00Z</time>
      </trkpt>
      <trkpt lat="46.02586" lon="4.75738">
        <ele>183</ele>
        <time>2017-03-29T10:36:02Z</time>
      </trkpt>
      <trkpt lat="46.02582" lon="4.75738">
        <ele>184</ele>
        <time>2017-03-29T10:36:03Z</time>
      </trkpt>
      <trkpt lat="46.02576" lon="4.75738">
        <ele>184</ele>
        <time>2017-03-29T10:36:05Z</time>
      </trkpt>
      <trkpt lat="46.02572" lon="4.75738">
        <ele>185</ele>
        <time>2017-03-29T10:36:06Z</time>
      </trkpt>
      <trkpt lat="46.02565" lon="4.75736">
        <ele>185</ele>
        <time>2017-03-29T10:36:08Z</time>
      </trkpt>
      <trkpt lat="46.02562" lon="4.75736">
        <ele>185</ele>
        <time>2017-03-29T10:36:09Z</time>
      </trkpt>
      <trkpt lat="46.02555" lon="4.75736">
        <ele>186</ele>
        <time>2017-03-29T10:36:11Z</time>
      </trkpt>
      <trkpt lat="46.02552" lon="4.75737">
        <ele>186</ele>
        <time>2017-03-29T10:36:12Z</time>
      </trkpt>
      <trkpt lat="46.02545" lon="4.75738">
        <ele>186</ele>
        <time>2017-03-29T10:36:14Z</time>
      </trkpt>
      <trkpt lat="46.02541" lon="4.75738">
        <ele>186</ele>
        <time>2017-03-29T10:36:15Z</time>
      </trkpt>
      <trkpt lat="46.02533" lon="4.75739">
        <ele>187</ele>
        <time>2017-03-29T10:36:17Z</time>
      </trkpt>
      <trkpt lat="46.02529" lon="4.7574">
        <ele>187</ele>
        <time>2017-03-29T10:36:18Z</time>
      </trkpt>
      <trkpt lat="46.02522" lon="4.75743">
        <ele>188</ele>
        <time>2017-03-29T10:36:20Z</time>
      </trkpt>
      <trkpt lat="46.02519" lon="4.75743">
        <ele>188</ele>
        <time>2017-03-29T10:36:21Z</time>
      </trkpt>
      <trkpt lat="46.02512" lon="4.75746">
        <ele>188</ele>
        <time>2017-03-29T10:36:23Z</time>
      </trkpt>
      <trkpt lat="46.02509" lon="4.75747">
        <ele>189</ele>
        <time>2017-03-29T10:36:24Z</time>
      </trkpt>
      <trkpt lat="46.02502" lon="4.75749">
        <ele>190</ele>
        <time>2017-03-29T10:36:26Z</time>
      </trkpt>
      <trkpt lat="46.02498" lon="4.75749">
        <ele>190</ele>
        <time>2017-03-29T10:36:27Z</time>
      </trkpt>
      <trkpt lat="46.02491" lon="4.75753">
        <ele>190</ele>
        <time>2017-03-29T10:36:29Z</time>
      </trkpt>
      <trkpt lat="46.02488" lon="4.75754">
        <ele>190</ele>
        <time>2017-03-29T10:36:30Z</time>
      </trkpt>
      <trkpt lat="46.02481" lon="4.75758">
        <ele>191</ele>
        <time>2017-03-29T10:36:32Z</time>
      </trkpt>
      <trkpt lat="46.02477" lon="4.75759">
        <ele>191</ele>
        <time>2017-03-29T10:36:33Z</time>
      </trkpt>
      <trkpt lat="46.02471" lon="4.75763">
        <ele>191</ele>
        <time>2017-03-29T10:36:35Z</time>
      </trkpt>
      <trkpt lat="46.02468" lon="4.75764">
        <ele>191</ele>
        <time>2017-03-29T10:36:36Z</time>
      </trkpt>
      <trkpt lat="46.02462" lon="4.75769">
        <ele>191</ele>
        <time>2017-03-29T10:36:38Z</time>
      </trkpt>
      <trkpt lat="46.02459" lon="4.7577">
        <ele>191</ele>
        <time>2017-03-29T10:36:39Z</time>
      </trkpt>
      <trkpt lat="46.02451" lon="4.75774">
        <ele>191</ele>
        <time>2017-03-29T10:36:42Z</time>
      </trkpt>
      <trkpt lat="46.02449" lon="4.75775">
        <ele>191</ele>
        <time>2017-03-29T10:36:43Z</time>
      </trkpt>
      <trkpt lat="46.02442" lon="4.75779">
        <ele>191</ele>
        <time>2017-03-29T10:36:45Z</time>
      </trkpt>
      <trkpt lat="46.02439" lon="4.75781">
        <ele>191</ele>
        <time>2017-03-29T10:36:46Z</time>
      </trkpt>
      <trkpt lat="46.02431" lon="4.75785">
        <ele>191</ele>
        <time>2017-03-29T10:36:48Z</time>
      </trkpt>
      <trkpt lat="46.02427" lon="4.75788">
        <ele>191</ele>
        <time>2017-03-29T10:36:49Z</time>
      </trkpt>
      <trkpt lat="46.0242" lon="4.75792">
        <ele>192</ele>
        <time>2017-03-29T10:36:51Z</time>
      </trkpt>
      <trkpt lat="46.02416" lon="4.75794">
        <ele>192</ele>
        <time>2017-03-29T10:36:52Z</time>
      </trkpt>
      <trkpt lat="46.02408" lon="4.75799">
        <ele>192</ele>
        <time>2017-03-29T10:36:54Z</time>
      </trkpt>
      <trkpt lat="46.02405" lon="4.75801">
        <ele>192</ele>
        <time>2017-03-29T10:36:55Z</time>
      </trkpt>
      <trkpt lat="46.02397" lon="4.75806">
        <ele>192</ele>
        <time>2017-03-29T10:36:57Z</time>
      </trkpt>
      <trkpt lat="46.02394" lon="4.75808">
        <ele>192</ele>
        <time>2017-03-29T10:36:58Z</time>
      </trkpt>
      <trkpt lat="46.02387" lon="4.75813">
        <ele>192</ele>
        <time>2017-03-29T10:37:00Z</time>
      </trkpt>
      <trkpt lat="46.02384" lon="4.75815">
        <ele>192</ele>
        <time>2017-03-29T10:37:01Z</time>
      </trkpt>
      <trkpt lat="46.02377" lon="4.7582">
        <ele>192</ele>
        <time>2017-03-29T10:37:03Z</time>
      </trkpt>
      <trkpt lat="46.02373" lon="4.75823">
        <ele>192</ele>
        <time>2017-03-29T10:37:04Z</time>
      </trkpt>
      <trkpt lat="46.02366" lon="4.75828">
        <ele>192</ele>
        <time>2017-03-29T10:37:06Z</time>
      </trkpt>
      <trkpt lat="46.02363" lon="4.75831">
        <ele>192</ele>
        <time>2017-03-29T10:37:07Z</time>
      </trkpt>
      <trkpt lat="46.02356" lon="4.75838">
        <ele>193</ele>
        <time>2017-03-29T10:37:09Z</time>
      </trkpt>
      <trkpt lat="46.02352" lon="4.75842">
        <ele>193</ele>
        <time>2017-03-29T10:37:10Z</time>
      </trkpt>
      <trkpt lat="46.02348" lon="4.75846">
        <ele>193</ele>
        <time>2017-03-29T10:37:11Z</time>
      </trkpt>
      <trkpt lat="46.02344" lon="4.7585">
        <ele>193</ele>
        <time>2017-03-29T10:37:12Z</time>
      </trkpt>
      <trkpt lat="46.0234" lon="4.75853">
        <ele>193</ele>
        <time>2017-03-29T10:37:13Z</time>
      </trkpt>
      <trkpt lat="46.02336" lon="4.75857">
        <ele>193</ele>
        <time>2017-03-29T10:37:14Z</time>
      </trkpt>
      <trkpt lat="46.02332" lon="4.75861">
        <ele>193</ele>
        <time>2017-03-29T10:37:15Z</time>
      </trkpt>
      <trkpt lat="46.02328" lon="4.75865">
        <ele>193</ele>
        <time>2017-03-29T10:37:16Z</time>
      </trkpt>
      <trkpt lat="46.02324" lon="4.75869">
        <ele>193</ele>
        <time>2017-03-29T10:37:17Z</time>
      </trkpt>
      <trkpt lat="46.0232" lon="4.75873">
        <ele>193</ele>
        <time>2017-03-29T10:37:18Z</time>
      </trkpt>
      <trkpt lat="46.02316" lon="4.75876">
        <ele>193</ele>
        <time>2017-03-29T10:37:19Z</time>
      </trkpt>
      <trkpt lat="46.02313" lon="4.7588">
        <ele>193</ele>
        <time>2017-03-29T10:37:20Z</time>
      </trkpt>
      <trkpt lat="46.02309" lon="4.75884">
        <ele>193</ele>
        <time>2017-03-29T10:37:21Z</time>
      </trkpt>
      <trkpt lat="46.02303" lon="4.75887">
        <ele>193</ele>
        <time>2017-03-29T10:37:22Z</time>
      </trkpt>
      <trkpt lat="46.02298" lon="4.75891">
        <ele>193</ele>
        <time>2017-03-29T10:37:23Z</time>
      </trkpt>
      <trkpt lat="46.02294" lon="4.75895">
        <ele>193</ele>
        <time>2017-03-29T10:37:24Z</time>
      </trkpt>
      <trkpt lat="46.02288" lon="4.759">
        <ele>193</ele>
        <time>2017-03-29T10:37:25Z</time>
      </trkpt>
      <trkpt lat="46.02283" lon="4.75904">
        <ele>193</ele>
        <time>2017-03-29T10:37:26Z</time>
      </trkpt>
      <trkpt lat="46.02278" lon="4.75909">
        <ele>193</ele>
        <time>2017-03-29T10:37:27Z</time>
      </trkpt>
      <trkpt lat="46.02273" lon="4.75914">
        <ele>193</ele>
        <time>2017-03-29T10:37:28Z</time>
      </trkpt>
      <trkpt lat="46.02268" lon="4.75919">
        <ele>193</ele>
        <time>2017-03-29T10:37:29Z</time>
      </trkpt>
      <trkpt lat="46.02262" lon="4.75923">
        <ele>193</ele>
        <time>2017-03-29T10:37:30Z</time>
      </trkpt>
      <trkpt lat="46.02257" lon="4.75928">
        <ele>193</ele>
        <time>2017-03-29T10:37:31Z</time>
      </trkpt>
      <trkpt lat="46.02251" lon="4.75933">
        <ele>193</ele>
        <time>2017-03-29T10:37:32Z</time>
      </trkpt>
      <trkpt lat="46.02246" lon="4.75937">
        <ele>193</ele>
        <time>2017-03-29T10:37:33Z</time>
      </trkpt>
      <trkpt lat="46.0224" lon="4.75942">
        <ele>193</ele>
        <time>2017-03-29T10:37:34Z</time>
      </trkpt>
      <trkpt lat="46.02234" lon="4.75947">
        <ele>193</ele>
        <time>2017-03-29T10:37:35Z</time>
      </trkpt>
      <trkpt lat="46.02228" lon="4.75953">
        <ele>193</ele>
        <time>2017-03-29T10:37:36Z</time>
      </trkpt>
      <trkpt lat="46.02222" lon="4.75959">
        <ele>193</ele>
        <time>2017-03-29T10:37:37Z</time>
      </trkpt>
      <trkpt lat="46.02217" lon="4.75965">
        <ele>193</ele>
        <time>2017-03-29T10:37:38Z</time>
      </trkpt>
      <trkpt lat="46.02211" lon="4.75969">
        <ele>192</ele>
        <time>2017-03-29T10:37:39Z</time>
      </trkpt>
      <trkpt lat="46.02205" lon="4.75974">
        <ele>192</ele>
        <time>2017-03-29T10:37:40Z</time>
      </trkpt>
      <trkpt lat="46.02199" lon="4.75979">
        <ele>192</ele>
        <time>2017-03-29T10:37:41Z</time>
      </trkpt>
      <trkpt lat="46.02193" lon="4.75984">
        <ele>192</ele>
        <time>2017-03-29T10:37:42Z</time>
      </trkpt>
      <trkpt lat="46.02188" lon="4.75989">
        <ele>192</ele>
        <time>2017-03-29T10:37:43Z</time>
      </trkpt>
      <trkpt lat="46.02183" lon="4.75992">
        <ele>192</ele>
        <time>2017-03-29T10:37:44Z</time>
      </trkpt>
      <trkpt lat="46.02178" lon="4.75997">
        <ele>192</ele>
        <time>2017-03-29T10:37:45Z</time>
      </trkpt>
      <trkpt lat="46.02173" lon="4.76">
        <ele>192</ele>
        <time>2017-03-29T10:37:46Z</time>
      </trkpt>
      <trkpt lat="46.02168" lon="4.76004">
        <ele>192</ele>
        <time>2017-03-29T10:37:47Z</time>
      </trkpt>
      <trkpt lat="46.02163" lon="4.76009">
        <ele>192</ele>
        <time>2017-03-29T10:37:48Z</time>
      </trkpt>
      <trkpt lat="46.02159" lon="4.76013">
        <ele>193</ele>
        <time>2017-03-29T10:37:49Z</time>
      </trkpt>
      <trkpt lat="46.02154" lon="4.76017">
        <ele>193</ele>
        <time>2017-03-29T10:37:50Z</time>
      </trkpt>
      <trkpt lat="46.0215" lon="4.76021">
        <ele>193</ele>
        <time>2017-03-29T10:37:51Z</time>
      </trkpt>
      <trkpt lat="46.02145" lon="4.76026">
        <ele>193</ele>
        <time>2017-03-29T10:37:52Z</time>
      </trkpt>
      <trkpt lat="46.02141" lon="4.76031">
        <ele>193</ele>
        <time>2017-03-29T10:37:53Z</time>
      </trkpt>
      <trkpt lat="46.02136" lon="4.76035">
        <ele>193</ele>
        <time>2017-03-29T10:37:54Z</time>
      </trkpt>
      <trkpt lat="46.02132" lon="4.7604">
        <ele>193</ele>
        <time>2017-03-29T10:37:55Z</time>
      </trkpt>
      <trkpt lat="46.02127" lon="4.76044">
        <ele>194</ele>
        <time>2017-03-29T10:37:56Z</time>
      </trkpt>
      <trkpt lat="46.02123" lon="4.76048">
        <ele>194</ele>
        <time>2017-03-29T10:37:57Z</time>
      </trkpt>
      <trkpt lat="46.02118" lon="4.76051">
        <ele>194</ele>
        <time>2017-03-29T10:37:58Z</time>
      </trkpt>
      <trkpt lat="46.02114" lon="4.76055">
        <ele>194</ele>
        <time>2017-03-29T10:37:59Z</time>
      </trkpt>
      <trkpt lat="46.02109" lon="4.76059">
        <ele>194</ele>
        <time>2017-03-29T10:38:00Z</time>
      </trkpt>
      <trkpt lat="46.02105" lon="4.76062">
        <ele>194</ele>
        <time>2017-03-29T10:38:01Z</time>
      </trkpt>
      <trkpt lat="46.021" lon="4.76065">
        <ele>194</ele>
        <time>2017-03-29T10:38:02Z</time>
      </trkpt>
      <trkpt lat="46.02096" lon="4.76069">
        <ele>195</ele>
        <time>2017-03-29T10:38:03Z</time>
      </trkpt>
      <trkpt lat="46.02091" lon="4.76072">
        <ele>195</ele>
        <time>2017-03-29T10:38:04Z</time>
      </trkpt>
      <trkpt lat="46.02086" lon="4.76075">
        <ele>195</ele>
        <time>2017-03-29T10:38:05Z</time>
      </trkpt>
      <trkpt lat="46.02081" lon="4.76077">
        <ele>196</ele>
        <time>2017-03-29T10:38:06Z</time>
      </trkpt>
      <trkpt lat="46.02076" lon="4.76079">
        <ele>196</ele>
        <time>2017-03-29T10:38:07Z</time>
      </trkpt>
      <trkpt lat="46.02071" lon="4.76081">
        <ele>196</ele>
        <time>2017-03-29T10:38:08Z</time>
      </trkpt>
      <trkpt lat="46.02066" lon="4.76083">
        <ele>195</ele>
        <time>2017-03-29T10:38:09Z</time>
      </trkpt>
      <trkpt lat="46.02061" lon="4.76085">
        <ele>197</ele>
        <time>2017-03-29T10:38:10Z</time>
      </trkpt>
      <trkpt lat="46.02057" lon="4.76086">
        <ele>197</ele>
        <time>2017-03-29T10:38:11Z</time>
      </trkpt>
      <trkpt lat="46.02051" lon="4.76086">
        <ele>197</ele>
        <time>2017-03-29T10:38:12Z</time>
      </trkpt>
      <trkpt lat="46.02046" lon="4.76088">
        <ele>197</ele>
        <time>2017-03-29T10:38:13Z</time>
      </trkpt>
      <trkpt lat="46.02041" lon="4.7609">
        <ele>197</ele>
        <time>2017-03-29T10:38:14Z</time>
      </trkpt>
      <trkpt lat="46.02036" lon="4.76091">
        <ele>197</ele>
        <time>2017-03-29T10:38:15Z</time>
      </trkpt>
      <trkpt lat="46.0203" lon="4.76092">
        <ele>197</ele>
        <time>2017-03-29T10:38:16Z</time>
      </trkpt>
      <trkpt lat="46.02024" lon="4.76093">
        <ele>197</ele>
        <time>2017-03-29T10:38:17Z</time>
      </trkpt>
      <trkpt lat="46.02018" lon="4.76095">
        <ele>197</ele>
        <time>2017-03-29T10:38:18Z</time>
      </trkpt>
      <trkpt lat="46.02013" lon="4.76096">
        <ele>197</ele>
        <time>2017-03-29T10:38:19Z</time>
      </trkpt>
      <trkpt lat="46.02006" lon="4.76097">
        <ele>197</ele>
        <time>2017-03-29T10:38:20Z</time>
      </trkpt>
      <trkpt lat="46.02001" lon="4.76098">
        <ele>197</ele>
        <time>2017-03-29T10:38:21Z</time>
      </trkpt>
      <trkpt lat="46.01996" lon="4.761">
        <ele>198</ele>
        <time>2017-03-29T10:38:22Z</time>
      </trkpt>
      <trkpt lat="46.01991" lon="4.76101">
        <ele>198</ele>
        <time>2017-03-29T10:38:23Z</time>
      </trkpt>
      <trkpt lat="46.01987" lon="4.76103">
        <ele>198</ele>
        <time>2017-03-29T10:38:24Z</time>
      </trkpt>
      <trkpt lat="46.01979" lon="4.76106">
        <ele>198</ele>
        <time>2017-03-29T10:38:26Z</time>
      </trkpt>
      <trkpt lat="46.01975" lon="4.76107">
        <ele>198</ele>
        <time>2017-03-29T10:38:27Z</time>
      </trkpt>
      <trkpt lat="46.01969" lon="4.76111">
        <ele>198</ele>
        <time>2017-03-29T10:38:29Z</time>
      </trkpt>
      <trkpt lat="46.01963" lon="4.76111">
        <ele>198</ele>
        <time>2017-03-29T10:38:30Z</time>
      </trkpt>
      <trkpt lat="46.01958" lon="4.76113">
        <ele>198</ele>
        <time>2017-03-29T10:38:31Z</time>
      </trkpt>
      <trkpt lat="46.01954" lon="4.76115">
        <ele>198</ele>
        <time>2017-03-29T10:38:32Z</time>
      </trkpt>
      <trkpt lat="46.01946" lon="4.76117">
        <ele>198</ele>
        <time>2017-03-29T10:38:34Z</time>
      </trkpt>
      <trkpt lat="46.01942" lon="4.76119">
        <ele>198</ele>
        <time>2017-03-29T10:38:35Z</time>
      </trkpt>
      <trkpt lat="46.01939" lon="4.76121">
        <ele>198</ele>
        <time>2017-03-29T10:38:36Z</time>
      </trkpt>
      <trkpt lat="46.01933" lon="4.76122">
        <ele>198</ele>
        <time>2017-03-29T10:38:37Z</time>
      </trkpt>
      <trkpt lat="46.01928" lon="4.76124">
        <ele>198</ele>
        <time>2017-03-29T10:38:38Z</time>
      </trkpt>
      <trkpt lat="46.01923" lon="4.76125">
        <ele>198</ele>
        <time>2017-03-29T10:38:39Z</time>
      </trkpt>
      <trkpt lat="46.01919" lon="4.76126">
        <ele>199</ele>
        <time>2017-03-29T10:38:40Z</time>
      </trkpt>
      <trkpt lat="46.01914" lon="4.76127">
        <ele>199</ele>
        <time>2017-03-29T10:38:41Z</time>
      </trkpt>
      <trkpt lat="46.01905" lon="4.76128">
        <ele>199</ele>
        <time>2017-03-29T10:38:43Z</time>
      </trkpt>
      <trkpt lat="46.01902" lon="4.76129">
        <ele>199</ele>
        <time>2017-03-29T10:38:44Z</time>
      </trkpt>
      <trkpt lat="46.01894" lon="4.76131">
        <ele>199</ele>
        <time>2017-03-29T10:38:46Z</time>
      </trkpt>
      <trkpt lat="46.01889" lon="4.76132">
        <ele>199</ele>
        <time>2017-03-29T10:38:47Z</time>
      </trkpt>
      <trkpt lat="46.01884" lon="4.76133">
        <ele>199</ele>
        <time>2017-03-29T10:38:48Z</time>
      </trkpt>
      <trkpt lat="46.01879" lon="4.76134">
        <ele>199</ele>
        <time>2017-03-29T10:38:49Z</time>
      </trkpt>
      <trkpt lat="46.01874" lon="4.76134">
        <ele>199</ele>
        <time>2017-03-29T10:38:50Z</time>
      </trkpt>
      <trkpt lat="46.01869" lon="4.76135">
        <ele>199</ele>
        <time>2017-03-29T10:38:51Z</time>
      </trkpt>
      <trkpt lat="46.01864" lon="4.76135">
        <ele>199</ele>
        <time>2017-03-29T10:38:52Z</time>
      </trkpt>
      <trkpt lat="46.01858" lon="4.76135">
        <ele>199</ele>
        <time>2017-03-29T10:38:53Z</time>
      </trkpt>
      <trkpt lat="46.01852" lon="4.76134">
        <ele>199</ele>
        <time>2017-03-29T10:38:54Z</time>
      </trkpt>
      <trkpt lat="46.01846" lon="4.76134">
        <ele>199</ele>
        <time>2017-03-29T10:38:55Z</time>
      </trkpt>
      <trkpt lat="46.01841" lon="4.76133">
        <ele>199</ele>
        <time>2017-03-29T10:38:56Z</time>
      </trkpt>
      <trkpt lat="46.01836" lon="4.76132">
        <ele>199</ele>
        <time>2017-03-29T10:38:57Z</time>
      </trkpt>
      <trkpt lat="46.01832" lon="4.76129">
        <ele>198</ele>
        <time>2017-03-29T10:38:58Z</time>
      </trkpt>
      <trkpt lat="46.01826" lon="4.76131">
        <ele>198</ele>
        <time>2017-03-29T10:38:59Z</time>
      </trkpt>
      <trkpt lat="46.01817" lon="4.7613">
        <ele>198</ele>
        <time>2017-03-29T10:39:01Z</time>
      </trkpt>
      <trkpt lat="46.01812" lon="4.7613">
        <ele>198</ele>
        <time>2017-03-29T10:39:02Z</time>
      </trkpt>
      <trkpt lat="46.01806" lon="4.7613">
        <ele>198</ele>
        <time>2017-03-29T10:39:03Z</time>
      </trkpt>
      <trkpt lat="46.01801" lon="4.7613">
        <ele>198</ele>
        <time>2017-03-29T10:39:04Z</time>
      </trkpt>
      <trkpt lat="46.01795" lon="4.7613">
        <ele>198</ele>
        <time>2017-03-29T10:39:05Z</time>
      </trkpt>
      <trkpt lat="46.0179" lon="4.76129">
        <ele>198</ele>
        <time>2017-03-29T10:39:06Z</time>
      </trkpt>
      <trkpt lat="46.01785" lon="4.76128">
        <ele>198</ele>
        <time>2017-03-29T10:39:07Z</time>
      </trkpt>
      <trkpt lat="46.0178" lon="4.76128">
        <ele>198</ele>
        <time>2017-03-29T10:39:08Z</time>
      </trkpt>
      <trkpt lat="46.01775" lon="4.76128">
        <ele>198</ele>
        <time>2017-03-29T10:39:09Z</time>
      </trkpt>
      <trkpt lat="46.0177" lon="4.76127">
        <ele>198</ele>
        <time>2017-03-29T10:39:10Z</time>
      </trkpt>
      <trkpt lat="46.01761" lon="4.76126">
        <ele>198</ele>
        <time>2017-03-29T10:39:12Z</time>
      </trkpt>
      <trkpt lat="46.01757" lon="4.76124">
        <ele>198</ele>
        <time>2017-03-29T10:39:13Z</time>
      </trkpt>
      <trkpt lat="46.0175" lon="4.76126">
        <ele>197</ele>
        <time>2017-03-29T10:39:15Z</time>
      </trkpt>
      <trkpt lat="46.01746" lon="4.76123">
        <ele>197</ele>
        <time>2017-03-29T10:39:16Z</time>
      </trkpt>
      <trkpt lat="46.01739" lon="4.76119">
        <ele>197</ele>
        <time>2017-03-29T10:39:18Z</time>
      </trkpt>
      <trkpt lat="46.01735" lon="4.76119">
        <ele>197</ele>
        <time>2017-03-29T10:39:19Z</time>
      </trkpt>
      <trkpt lat="46.01726" lon="4.76122">
        <ele>197</ele>
        <time>2017-03-29T10:39:21Z</time>
      </trkpt>
      <trkpt lat="46.01722" lon="4.76122">
        <ele>197</ele>
        <time>2017-03-29T10:39:22Z</time>
      </trkpt>
      <trkpt lat="46.01717" lon="4.76122">
        <ele>197</ele>
        <time>2017-03-29T10:39:23Z</time>
      </trkpt>
      <trkpt lat="46.01712" lon="4.76121">
        <ele>198</ele>
        <time>2017-03-29T10:39:24Z</time>
      </trkpt>
      <trkpt lat="46.01707" lon="4.7612">
        <ele>198</ele>
        <time>2017-03-29T10:39:25Z</time>
      </trkpt>
      <trkpt lat="46.01702" lon="4.7612">
        <ele>198</ele>
        <time>2017-03-29T10:39:26Z</time>
      </trkpt>
      <trkpt lat="46.01698" lon="4.76119">
        <ele>198</ele>
        <time>2017-03-29T10:39:27Z</time>
      </trkpt>
      <trkpt lat="46.01693" lon="4.76118">
        <ele>198</ele>
        <time>2017-03-29T10:39:28Z</time>
      </trkpt>
      <trkpt lat="46.01689" lon="4.76117">
        <ele>198</ele>
        <time>2017-03-29T10:39:29Z</time>
      </trkpt>
      <trkpt lat="46.01684" lon="4.76117">
        <ele>198</ele>
        <time>2017-03-29T10:39:30Z</time>
      </trkpt>
      <trkpt lat="46.01679" lon="4.76116">
        <ele>198</ele>
        <time>2017-03-29T10:39:31Z</time>
      </trkpt>
      <trkpt lat="46.01674" lon="4.76116">
        <ele>198</ele>
        <time>2017-03-29T10:39:32Z</time>
      </trkpt>
      <trkpt lat="46.01668" lon="4.76116">
        <ele>198</ele>
        <time>2017-03-29T10:39:33Z</time>
      </trkpt>
      <trkpt lat="46.01663" lon="4.76115">
        <ele>199</ele>
        <time>2017-03-29T10:39:34Z</time>
      </trkpt>
      <trkpt lat="46.01658" lon="4.76115">
        <ele>199</ele>
        <time>2017-03-29T10:39:35Z</time>
      </trkpt>
      <trkpt lat="46.01652" lon="4.76115">
        <ele>199</ele>
        <time>2017-03-29T10:39:36Z</time>
      </trkpt>
      <trkpt lat="46.01647" lon="4.76114">
        <ele>199</ele>
        <time>2017-03-29T10:39:37Z</time>
      </trkpt>
      <trkpt lat="46.01642" lon="4.76113">
        <ele>199</ele>
        <time>2017-03-29T10:39:38Z</time>
      </trkpt>
      <trkpt lat="46.01637" lon="4.76113">
        <ele>199</ele>
        <time>2017-03-29T10:39:39Z</time>
      </trkpt>
      <trkpt lat="46.01631" lon="4.76113">
        <ele>199</ele>
        <time>2017-03-29T10:39:40Z</time>
      </trkpt>
      <trkpt lat="46.01626" lon="4.76112">
        <ele>199</ele>
        <time>2017-03-29T10:39:41Z</time>
      </trkpt>
      <trkpt lat="46.01621" lon="4.7611">
        <ele>200</ele>
        <time>2017-03-29T10:39:42Z</time>
      </trkpt>
      <trkpt lat="46.01615" lon="4.76109">
        <ele>200</ele>
        <time>2017-03-29T10:39:43Z</time>
      </trkpt>
      <trkpt lat="46.01609" lon="4.76109">
        <ele>200</ele>
        <time>2017-03-29T10:39:44Z</time>
      </trkpt>
      <trkpt lat="46.01603" lon="4.76108">
        <ele>200</ele>
        <time>2017-03-29T10:39:45Z</time>
      </trkpt>
      <trkpt lat="46.01598" lon="4.76108">
        <ele>200</ele>
        <time>2017-03-29T10:39:46Z</time>
      </trkpt>
      <trkpt lat="46.01593" lon="4.76107">
        <ele>200</ele>
        <time>2017-03-29T10:39:47Z</time>
      </trkpt>
      <trkpt lat="46.01587" lon="4.76107">
        <ele>200</ele>
        <time>2017-03-29T10:39:48Z</time>
      </trkpt>
      <trkpt lat="46.01582" lon="4.76106">
        <ele>202</ele>
        <time>2017-03-29T10:39:49Z</time>
      </trkpt>
      <trkpt lat="46.01578" lon="4.76106">
        <ele>202</ele>
        <time>2017-03-29T10:39:50Z</time>
      </trkpt>
      <trkpt lat="46.01569" lon="4.76103">
        <ele>202</ele>
        <time>2017-03-29T10:39:52Z</time>
      </trkpt>
      <trkpt lat="46.01565" lon="4.76102">
        <ele>202</ele>
        <time>2017-03-29T10:39:53Z</time>
      </trkpt>
      <trkpt lat="46.01557" lon="4.76098">
        <ele>202</ele>
        <time>2017-03-29T10:39:55Z</time>
      </trkpt>
      <trkpt lat="46.01553" lon="4.76096">
        <ele>202</ele>
        <time>2017-03-29T10:39:56Z</time>
      </trkpt>
      <trkpt lat="46.01549" lon="4.76093">
        <ele>202</ele>
        <time>2017-03-29T10:39:57Z</time>
      </trkpt>
      <trkpt lat="46.01545" lon="4.76091">
        <ele>202</ele>
        <time>2017-03-29T10:39:58Z</time>
      </trkpt>
      <trkpt lat="46.0154" lon="4.76089">
        <ele>202</ele>
        <time>2017-03-29T10:39:59Z</time>
      </trkpt>
      <trkpt lat="46.01535" lon="4.76087">
        <ele>202</ele>
        <time>2017-03-29T10:40:00Z</time>
      </trkpt>
      <trkpt lat="46.01531" lon="4.76086">
        <ele>202</ele>
        <time>2017-03-29T10:40:01Z</time>
      </trkpt>
      <trkpt lat="46.01526" lon="4.76085">
        <ele>202</ele>
        <time>2017-03-29T10:40:02Z</time>
      </trkpt>
      <trkpt lat="46.01521" lon="4.76084">
        <ele>203</ele>
        <time>2017-03-29T10:40:03Z</time>
      </trkpt>
      <trkpt lat="46.01516" lon="4.76083">
        <ele>202</ele>
        <time>2017-03-29T10:40:04Z</time>
      </trkpt>
      <trkpt lat="46.01511" lon="4.76083">
        <ele>202</ele>
        <time>2017-03-29T10:40:05Z</time>
      </trkpt>
      <trkpt lat="46.01507" lon="4.76081">
        <ele>203</ele>
        <time>2017-03-29T10:40:06Z</time>
      </trkpt>
      <trkpt lat="46.01499" lon="4.76079">
        <ele>203</ele>
        <time>2017-03-29T10:40:08Z</time>
      </trkpt>
      <trkpt lat="46.01494" lon="4.76077">
        <ele>203</ele>
        <time>2017-03-29T10:40:09Z</time>
      </trkpt>
      <trkpt lat="46.0149" lon="4.76076">
        <ele>203</ele>
        <time>2017-03-29T10:40:10Z</time>
      </trkpt>
      <trkpt lat="46.01485" lon="4.76074">
        <ele>203</ele>
        <time>2017-03-29T10:40:11Z</time>
      </trkpt>
      <trkpt lat="46.01479" lon="4.76073">
        <ele>203</ele>
        <time>2017-03-29T10:40:12Z</time>
      </trkpt>
      <trkpt lat="46.01474" lon="4.76071">
        <ele>203</ele>
        <time>2017-03-29T10:40:13Z</time>
      </trkpt>
      <trkpt lat="46.01468" lon="4.7607">
        <ele>203</ele>
        <time>2017-03-29T10:40:14Z</time>
      </trkpt>
      <trkpt lat="46.01462" lon="4.76068">
        <ele>203</ele>
        <time>2017-03-29T10:40:15Z</time>
      </trkpt>
      <trkpt lat="46.01457" lon="4.76067">
        <ele>203</ele>
        <time>2017-03-29T10:40:16Z</time>
      </trkpt>
      <trkpt lat="46.01451" lon="4.76066">
        <ele>203</ele>
        <time>2017-03-29T10:40:17Z</time>
      </trkpt>
      <trkpt lat="46.01446" lon="4.76063">
        <ele>203</ele>
        <time>2017-03-29T10:40:18Z</time>
      </trkpt>
      <trkpt lat="46.01443" lon="4.7606">
        <ele>203</ele>
        <time>2017-03-29T10:40:19Z</time>
      </trkpt>
      <trkpt lat="46.01438" lon="4.76056">
        <ele>203</ele>
        <time>2017-03-29T10:40:20Z</time>
      </trkpt>
      <trkpt lat="46.01433" lon="4.76052">
        <ele>204</ele>
        <time>2017-03-29T10:40:21Z</time>
      </trkpt>
      <trkpt lat="46.01429" lon="4.76049">
        <ele>204</ele>
        <time>2017-03-29T10:40:22Z</time>
      </trkpt>
      <trkpt lat="46.01425" lon="4.76046">
        <ele>204</ele>
        <time>2017-03-29T10:40:23Z</time>
      </trkpt>
      <trkpt lat="46.01418" lon="4.76039">
        <ele>204</ele>
        <time>2017-03-29T10:40:25Z</time>
      </trkpt>
      <trkpt lat="46.01414" lon="4.76037">
        <ele>204</ele>
        <time>2017-03-29T10:40:26Z</time>
      </trkpt>
      <trkpt lat="46.01406" lon="4.76034">
        <ele>204</ele>
        <time>2017-03-29T10:40:28Z</time>
      </trkpt>
      <trkpt lat="46.01401" lon="4.76033">
        <ele>204</ele>
        <time>2017-03-29T10:40:29Z</time>
      </trkpt>
      <trkpt lat="46.01396" lon="4.76032">
        <ele>204</ele>
        <time>2017-03-29T10:40:30Z</time>
      </trkpt>
      <trkpt lat="46.0139" lon="4.76032">
        <ele>204</ele>
        <time>2017-03-29T10:40:31Z</time>
      </trkpt>
      <trkpt lat="46.01385" lon="4.76032">
        <ele>203</ele>
        <time>2017-03-29T10:40:32Z</time>
      </trkpt>
      <trkpt lat="46.0138" lon="4.76032">
        <ele>203</ele>
        <time>2017-03-29T10:40:33Z</time>
      </trkpt>
      <trkpt lat="46.01375" lon="4.76034">
        <ele>203</ele>
        <time>2017-03-29T10:40:34Z</time>
      </trkpt>
      <trkpt lat="46.0137" lon="4.76035">
        <ele>203</ele>
        <time>2017-03-29T10:40:35Z</time>
      </trkpt>
      <trkpt lat="46.01366" lon="4.76037">
        <ele>203</ele>
        <time>2017-03-29T10:40:36Z</time>
      </trkpt>
      <trkpt lat="46.01361" lon="4.76039">
        <ele>203</ele>
        <time>2017-03-29T10:40:37Z</time>
      </trkpt>
      <trkpt lat="46.01356" lon="4.76041">
        <ele>203</ele>
        <time>2017-03-29T10:40:38Z</time>
      </trkpt>
      <trkpt lat="46.01352" lon="4.76043">
        <ele>203</ele>
        <time>2017-03-29T10:40:39Z</time>
      </trkpt>
      <trkpt lat="46.01347" lon="4.76044">
        <ele>203</ele>
        <time>2017-03-29T10:40:40Z</time>
      </trkpt>
      <trkpt lat="46.01342" lon="4.76046">
        <ele>203</ele>
        <time>2017-03-29T10:40:41Z</time>
      </trkpt>
      <trkpt lat="46.01336" lon="4.76047">
        <ele>203</ele>
        <time>2017-03-29T10:40:42Z</time>
      </trkpt>
      <trkpt lat="46.01331" lon="4.76048">
        <ele>203</ele>
        <time>2017-03-29T10:40:43Z</time>
      </trkpt>
      <trkpt lat="46.01325" lon="4.76049">
        <ele>203</ele>
        <time>2017-03-29T10:40:44Z</time>
      </trkpt>
      <trkpt lat="46.0132" lon="4.76051">
        <ele>203</ele>
        <time>2017-03-29T10:40:45Z</time>
      </trkpt>
      <trkpt lat="46.01315" lon="4.76053">
        <ele>203</ele>
        <time>2017-03-29T10:40:46Z</time>
      </trkpt>
      <trkpt lat="46.0131" lon="4.76054">
        <ele>203</ele>
        <time>2017-03-29T10:40:47Z</time>
      </trkpt>
      <trkpt lat="46.01304" lon="4.76056">
        <ele>203</ele>
        <time>2017-03-29T10:40:48Z</time>
      </trkpt>
      <trkpt lat="46.01299" lon="4.76057">
        <ele>203</ele>
        <time>2017-03-29T10:40:49Z</time>
      </trkpt>
      <trkpt lat="46.01295" lon="4.76058">
        <ele>204</ele>
        <time>2017-03-29T10:40:50Z</time>
      </trkpt>
      <trkpt lat="46.0129" lon="4.7606">
        <ele>204</ele>
        <time>2017-03-29T10:40:51Z</time>
      </trkpt>
      <trkpt lat="46.01282" lon="4.76062">
        <ele>204</ele>
        <time>2017-03-29T10:40:53Z</time>
      </trkpt>
      <trkpt lat="46.01277" lon="4.76063">
        <ele>204</ele>
        <time>2017-03-29T10:40:54Z</time>
      </trkpt>
      <trkpt lat="46.01272" lon="4.76064">
        <ele>204</ele>
        <time>2017-03-29T10:40:55Z</time>
      </trkpt>
      <trkpt lat="46.01267" lon="4.76064">
        <ele>204</ele>
        <time>2017-03-29T10:40:56Z</time>
      </trkpt>
      <trkpt lat="46.01261" lon="4.76065">
        <ele>204</ele>
        <time>2017-03-29T10:40:57Z</time>
      </trkpt>
      <trkpt lat="46.01256" lon="4.76065">
        <ele>204</ele>
        <time>2017-03-29T10:40:58Z</time>
      </trkpt>
      <trkpt lat="46.01251" lon="4.76065">
        <ele>204</ele>
        <time>2017-03-29T10:40:59Z</time>
      </trkpt>
      <trkpt lat="46.01246" lon="4.76065">
        <ele>205</ele>
        <time>2017-03-29T10:41:00Z</time>
      </trkpt>
      <trkpt lat="46.01237" lon="4.76064">
        <ele>205</ele>
        <time>2017-03-29T10:41:02Z</time>
      </trkpt>
      <trkpt lat="46.01233" lon="4.76064">
        <ele>205</ele>
        <time>2017-03-29T10:41:03Z</time>
      </trkpt>
      <trkpt lat="46.01225" lon="4.76064">
        <ele>206</ele>
        <time>2017-03-29T10:41:05Z</time>
      </trkpt>
      <trkpt lat="46.01221" lon="4.76063">
        <ele>206</ele>
        <time>2017-03-29T10:41:06Z</time>
      </trkpt>
      <trkpt lat="46.01213" lon="4.76061">
        <ele>206</ele>
        <time>2017-03-29T10:41:08Z</time>
      </trkpt>
      <trkpt lat="46.01208" lon="4.76059">
        <ele>206</ele>
        <time>2017-03-29T10:41:09Z</time>
      </trkpt>
      <trkpt lat="46.012" lon="4.76057">
        <ele>206</ele>
        <time>2017-03-29T10:41:11Z</time>
      </trkpt>
      <trkpt lat="46.01196" lon="4.76056">
        <ele>206</ele>
        <time>2017-03-29T10:41:12Z</time>
      </trkpt>
      <trkpt lat="46.01188" lon="4.76052">
        <ele>206</ele>
        <time>2017-03-29T10:41:14Z</time>
      </trkpt>
      <trkpt lat="46.01184" lon="4.7605">
        <ele>207</ele>
        <time>2017-03-29T10:41:15Z</time>
      </trkpt>
      <trkpt lat="46.01178" lon="4.76048">
        <ele>207</ele>
        <time>2017-03-29T10:41:17Z</time>
      </trkpt>
      <trkpt lat="46.01175" lon="4.76048">
        <ele>207</ele>
        <time>2017-03-29T10:41:18Z</time>
      </trkpt>
      <trkpt lat="46.01168" lon="4.76047">
        <ele>207</ele>
        <time>2017-03-29T10:41:20Z</time>
      </trkpt>
      <trkpt lat="46.01164" lon="4.76046">
        <ele>208</ele>
        <time>2017-03-29T10:41:21Z</time>
      </trkpt>
      <trkpt lat="46.01157" lon="4.76045">
        <ele>208</ele>
        <time>2017-03-29T10:41:23Z</time>
      </trkpt>
      <trkpt lat="46.01154" lon="4.76044">
        <ele>208</ele>
        <time>2017-03-29T10:41:24Z</time>
      </trkpt>
      <trkpt lat="46.01146" lon="4.76045">
        <ele>208</ele>
        <time>2017-03-29T10:41:26Z</time>
      </trkpt>
      <trkpt lat="46.01141" lon="4.76046">
        <ele>208</ele>
        <time>2017-03-29T10:41:27Z</time>
      </trkpt>
      <trkpt lat="46.01135" lon="4.76047">
        <ele>208</ele>
        <time>2017-03-29T10:41:28Z</time>
      </trkpt>
      <trkpt lat="46.0113" lon="4.76048">
        <ele>208</ele>
        <time>2017-03-29T10:41:29Z</time>
      </trkpt>
      <trkpt lat="46.01125" lon="4.76048">
        <ele>208</ele>
        <time>2017-03-29T10:41:30Z</time>
      </trkpt>
      <trkpt lat="46.01121" lon="4.76049">
        <ele>208</ele>
        <time>2017-03-29T10:41:31Z</time>
      </trkpt>
      <trkpt lat="46.01113" lon="4.7605">
        <ele>208</ele>
        <time>2017-03-29T10:41:33Z</time>
      </trkpt>
      <trkpt lat="46.01108" lon="4.76051">
        <ele>208</ele>
        <time>2017-03-29T10:41:34Z</time>
      </trkpt>
      <trkpt lat="46.011" lon="4.76052">
        <ele>208</ele>
        <time>2017-03-29T10:41:36Z</time>
      </trkpt>
      <trkpt lat="46.01096" lon="4.76053">
        <ele>208</ele>
        <time>2017-03-29T10:41:37Z</time>
      </trkpt>
      <trkpt lat="46.01088" lon="4.76054">
        <ele>208</ele>
        <time>2017-03-29T10:41:39Z</time>
      </trkpt>
      <trkpt lat="46.01084" lon="4.76055">
        <ele>208</ele>
        <time>2017-03-29T10:41:40Z</time>
      </trkpt>
      <trkpt lat="46.01077" lon="4.76056">
        <ele>209</ele>
        <time>2017-03-29T10:41:42Z</time>
      </trkpt>
      <trkpt lat="46.01073" lon="4.76056">
        <ele>209</ele>
        <time>2017-03-29T10:41:43Z</time>
      </trkpt>
      <trkpt lat="46.01067" lon="4.76057">
        <ele>209</ele>
        <time>2017-03-29T10:41:45Z</time>
      </trkpt>
      <trkpt lat="46.01063" lon="4.76059">
        <ele>209</ele>
        <time>2017-03-29T10:41:46Z</time>
      </trkpt>
      <trkpt lat="46.01055" lon="4.76058">
        <ele>209</ele>
        <time>2017-03-29T10:41:48Z</time>
      </trkpt>
      <trkpt lat="46.01051" lon="4.76058">
        <ele>210</ele>
        <time>2017-03-29T10:41:49Z</time>
      </trkpt>
      <trkpt lat="46.01044" lon="4.76058">
        <ele>210</ele>
        <time>2017-03-29T10:41:51Z</time>
      </trkpt>
      <trkpt lat="46.0104" lon="4.76059">
        <ele>210</ele>
        <time>2017-03-29T10:41:52Z</time>
      </trkpt>
      <trkpt lat="46.01032" lon="4.76058">
        <ele>210</ele>
        <time>2017-03-29T10:41:54Z</time>
      </trkpt>
      <trkpt lat="46.01029" lon="4.76058">
        <ele>210</ele>
        <time>2017-03-29T10:41:55Z</time>
      </trkpt>
      <trkpt lat="46.01022" lon="4.76058">
        <ele>210</ele>
        <time>2017-03-29T10:41:57Z</time>
      </trkpt>
      <trkpt lat="46.01018" lon="4.76058">
        <ele>210</ele>
        <time>2017-03-29T10:41:58Z</time>
      </trkpt>
      <trkpt lat="46.0101" lon="4.76059">
        <ele>210</ele>
        <time>2017-03-29T10:42:00Z</time>
      </trkpt>
      <trkpt lat="46.01006" lon="4.76059">
        <ele>210</ele>
        <time>2017-03-29T10:42:01Z</time>
      </trkpt>
      <trkpt lat="46.01001" lon="4.76059">
        <ele>210</ele>
        <time>2017-03-29T10:42:02Z</time>
      </trkpt>
      <trkpt lat="46.00996" lon="4.76059">
        <ele>212</ele>
        <time>2017-03-29T10:42:03Z</time>
      </trkpt>
      <trkpt lat="46.00991" lon="4.7606">
        <ele>212</ele>
        <time>2017-03-29T10:42:04Z</time>
      </trkpt>
      <trkpt lat="46.00987" lon="4.7606">
        <ele>212</ele>
        <time>2017-03-29T10:42:05Z</time>
      </trkpt>
      <trkpt lat="46.00978" lon="4.76062">
        <ele>212</ele>
        <time>2017-03-29T10:42:07Z</time>
      </trkpt>
      <trkpt lat="46.00974" lon="4.76063">
        <ele>212</ele>
        <time>2017-03-29T10:42:08Z</time>
      </trkpt>
      <trkpt lat="46.00966" lon="4.76065">
        <ele>212</ele>
        <time>2017-03-29T10:42:10Z</time>
      </trkpt>
      <trkpt lat="46.00961" lon="4.76066">
        <ele>212</ele>
        <time>2017-03-29T10:42:11Z</time>
      </trkpt>
      <trkpt lat="46.00952" lon="4.76068">
        <ele>212</ele>
        <time>2017-03-29T10:42:13Z</time>
      </trkpt>
      <trkpt lat="46.00948" lon="4.76069">
        <ele>212</ele>
        <time>2017-03-29T10:42:14Z</time>
      </trkpt>
      <trkpt lat="46.00939" lon="4.76072">
        <ele>212</ele>
        <time>2017-03-29T10:42:16Z</time>
      </trkpt>
      <trkpt lat="46.00936" lon="4.76073">
        <ele>212</ele>
        <time>2017-03-29T10:42:17Z</time>
      </trkpt>
      <trkpt lat="46.00927" lon="4.76076">
        <ele>213</ele>
        <time>2017-03-29T10:42:19Z</time>
      </trkpt>
      <trkpt lat="46.00923" lon="4.76077">
        <ele>213</ele>
        <time>2017-03-29T10:42:20Z</time>
      </trkpt>
      <trkpt lat="46.00916" lon="4.76081">
        <ele>213</ele>
        <time>2017-03-29T10:42:22Z</time>
      </trkpt>
      <trkpt lat="46.00912" lon="4.76082">
        <ele>213</ele>
        <time>2017-03-29T10:42:23Z</time>
      </trkpt>
      <trkpt lat="46.00904" lon="4.76084">
        <ele>214</ele>
        <time>2017-03-29T10:42:25Z</time>
      </trkpt>
      <trkpt lat="46.009" lon="4.76085">
        <ele>214</ele>
        <time>2017-03-29T10:42:26Z</time>
      </trkpt>
      <trkpt lat="46.00893" lon="4.76087">
        <ele>214</ele>
        <time>2017-03-29T10:42:28Z</time>
      </trkpt>
      <trkpt lat="46.00889" lon="4.76088">
        <ele>215</ele>
        <time>2017-03-29T10:42:29Z</time>
      </trkpt>
      <trkpt lat="46.00881" lon="4.76089">
        <ele>215</ele>
        <time>2017-03-29T10:42:31Z</time>
      </trkpt>
      <trkpt lat="46.00877" lon="4.76091">
        <ele>215</ele>
        <time>2017-03-29T10:42:32Z</time>
      </trkpt>
      <trkpt lat="46.00869" lon="4.76092">
        <ele>215</ele>
        <time>2017-03-29T10:42:34Z</time>
      </trkpt>
      <trkpt lat="46.00866" lon="4.76093">
        <ele>215</ele>
        <time>2017-03-29T10:42:35Z</time>
      </trkpt>
      <trkpt lat="46.00858" lon="4.76095">
        <ele>215</ele>
        <time>2017-03-29T10:42:37Z</time>
      </trkpt>
      <trkpt lat="46.00855" lon="4.76096">
        <ele>215</ele>
        <time>2017-03-29T10:42:38Z</time>
      </trkpt>
      <trkpt lat="46.00848" lon="4.76098">
        <ele>216</ele>
        <time>2017-03-29T10:42:40Z</time>
      </trkpt>
      <trkpt lat="46.00844" lon="4.76098">
        <ele>216</ele>
        <time>2017-03-29T10:42:41Z</time>
      </trkpt>
      <trkpt lat="46.00837" lon="4.761">
        <ele>216</ele>
        <time>2017-03-29T10:42:43Z</time>
      </trkpt>
      <trkpt lat="46.00834" lon="4.76101">
        <ele>216</ele>
        <time>2017-03-29T10:42:44Z</time>
      </trkpt>
      <trkpt lat="46.00828" lon="4.76103">
        <ele>217</ele>
        <time>2017-03-29T10:42:46Z</time>
      </trkpt>
      <trkpt lat="46.00824" lon="4.76105">
        <ele>218</ele>
        <time>2017-03-29T10:42:47Z</time>
      </trkpt>
      <trkpt lat="46.00818" lon="4.76106">
        <ele>218</ele>
        <time>2017-03-29T10:42:49Z</time>
      </trkpt>
      <trkpt lat="46.00815" lon="4.76106">
        <ele>218</ele>
        <time>2017-03-29T10:42:50Z</time>
      </trkpt>
      <trkpt lat="46.00808" lon="4.76105">
        <ele>218</ele>
        <time>2017-03-29T10:42:52Z</time>
      </trkpt>
      <trkpt lat="46.00805" lon="4.76104">
        <ele>218</ele>
        <time>2017-03-29T10:42:53Z</time>
      </trkpt>
      <trkpt lat="46.00799" lon="4.76105">
        <ele>218</ele>
        <time>2017-03-29T10:42:55Z</time>
      </trkpt>
      <trkpt lat="46.00796" lon="4.76106">
        <ele>218</ele>
        <time>2017-03-29T10:42:56Z</time>
      </trkpt>
      <trkpt lat="46.00787" lon="4.76106">
        <ele>219</ele>
        <time>2017-03-29T10:42:59Z</time>
      </trkpt>
      <trkpt lat="46.00784" lon="4.76105">
        <ele>219</ele>
        <time>2017-03-29T10:43:00Z</time>
      </trkpt>
      <trkpt lat="46.00778" lon="4.76105">
        <ele>219</ele>
        <time>2017-03-29T10:43:02Z</time>
      </trkpt>
      <trkpt lat="46.00775" lon="4.76105">
        <ele>219</ele>
        <time>2017-03-29T10:43:03Z</time>
      </trkpt>
      <trkpt lat="46.00766" lon="4.76106">
        <ele>219</ele>
        <time>2017-03-29T10:43:06Z</time>
      </trkpt>
      <trkpt lat="46.00763" lon="4.76107">
        <ele>219</ele>
        <time>2017-03-29T10:43:07Z</time>
      </trkpt>
      <trkpt lat="46.00755" lon="4.76108">
        <ele>219</ele>
        <time>2017-03-29T10:43:10Z</time>
      </trkpt>
      <trkpt lat="46.00752" lon="4.76109">
        <ele>219</ele>
        <time>2017-03-29T10:43:11Z</time>
      </trkpt>
      <trkpt lat="46.00744" lon="4.76109">
        <ele>223</ele>
        <time>2017-03-29T10:43:14Z</time>
      </trkpt>
      <trkpt lat="46.00741" lon="4.76109">
        <ele>223</ele>
        <time>2017-03-29T10:43:15Z</time>
      </trkpt>
      <trkpt lat="46.00734" lon="4.7611">
        <ele>223</ele>
        <time>2017-03-29T10:43:18Z</time>
      </trkpt>
      <trkpt lat="46.00731" lon="4.7611">
        <ele>223</ele>
        <time>2017-03-29T10:43:19Z</time>
      </trkpt>
      <trkpt lat="46.00723" lon="4.7611">
        <ele>224</ele>
        <time>2017-03-29T10:43:22Z</time>
      </trkpt>
      <trkpt lat="46.00721" lon="4.7611">
        <ele>224</ele>
        <time>2017-03-29T10:43:23Z</time>
      </trkpt>
      <trkpt lat="46.00713" lon="4.76112">
        <ele>224</ele>
        <time>2017-03-29T10:43:27Z</time>
      </trkpt>
      <trkpt lat="46.00711" lon="4.76111">
        <ele>224</ele>
        <time>2017-03-29T10:43:28Z</time>
      </trkpt>
      <trkpt lat="46.00704" lon="4.76111">
        <ele>225</ele>
        <time>2017-03-29T10:43:32Z</time>
      </trkpt>
      <trkpt lat="46.00702" lon="4.76111">
        <ele>225</ele>
        <time>2017-03-29T10:43:33Z</time>
      </trkpt>
      <trkpt lat="46.00693" lon="4.76112">
        <ele>225</ele>
        <time>2017-03-29T10:43:38Z</time>
      </trkpt>
      <trkpt lat="46.00691" lon="4.76112">
        <ele>225</ele>
        <time>2017-03-29T10:43:39Z</time>
      </trkpt>
      <trkpt lat="46.00683" lon="4.76113">
        <ele>225</ele>
        <time>2017-03-29T10:43:44Z</time>
      </trkpt>
      <trkpt lat="46.00681" lon="4.76113">
        <ele>225</ele>
        <time>2017-03-29T10:43:45Z</time>
      </trkpt>
      <trkpt lat="46.00673" lon="4.76115">
        <ele>226</ele>
        <time>2017-03-29T10:43:49Z</time>
      </trkpt>
      <trkpt lat="46.00671" lon="4.76115">
        <ele>226</ele>
        <time>2017-03-29T10:43:50Z</time>
      </trkpt>
      <trkpt lat="46.00663" lon="4.76114">
        <ele>228</ele>
        <time>2017-03-29T10:43:53Z</time>
      </trkpt>
      <trkpt lat="46.0066" lon="4.76115">
        <ele>228</ele>
        <time>2017-03-29T10:43:54Z</time>
      </trkpt>
      <trkpt lat="46.00652" lon="4.76116">
        <ele>228</ele>
        <time>2017-03-29T10:43:59Z</time>
      </trkpt>
      <trkpt lat="46.0065" lon="4.76115">
        <ele>228</ele>
        <time>2017-03-29T10:44:00Z</time>
      </trkpt>
      <trkpt lat="46.00643" lon="4.7611">
        <ele>228</ele>
        <time>2017-03-29T10:44:05Z</time>
      </trkpt>
      <trkpt lat="46.00641" lon="4.76109">
        <ele>228</ele>
        <time>2017-03-29T10:44:06Z</time>
      </trkpt>
      <trkpt lat="46.00633" lon="4.76105">
        <ele>227</ele>
        <time>2017-03-29T10:44:10Z</time>
      </trkpt>
      <trkpt lat="46.00631" lon="4.76106">
        <ele>227</ele>
        <time>2017-03-29T10:44:11Z</time>
      </trkpt>
      <trkpt lat="46.00627" lon="4.76116">
        <ele>228</ele>
        <time>2017-03-29T10:44:14Z</time>
      </trkpt>
      <trkpt lat="46.00626" lon="4.7612">
        <ele>228</ele>
        <time>2017-03-29T10:44:15Z</time>
      </trkpt>
      <trkpt lat="46.00627" lon="4.76131">
        <ele>228</ele>
        <time>2017-03-29T10:44:18Z</time>
      </trkpt>
      <trkpt lat="46.00627" lon="4.76135">
        <ele>228</ele>
        <time>2017-03-29T10:44:19Z</time>
      </trkpt>
      <trkpt lat="46.00625" lon="4.76147">
        <ele>228</ele>
        <time>2017-03-29T10:44:22Z</time>
      </trkpt>
      <trkpt lat="46.00623" lon="4.76151">
        <ele>228</ele>
        <time>2017-03-29T10:44:23Z</time>
      </trkpt>
      <trkpt lat="46.00622" lon="4.7616">
        <ele>228</ele>
        <time>2017-03-29T10:44:25Z</time>
      </trkpt>
      <trkpt lat="46.00623" lon="4.76164">
        <ele>228</ele>
        <time>2017-03-29T10:44:26Z</time>
      </trkpt>
      <trkpt lat="46.00624" lon="4.76173">
        <ele>230</ele>
        <time>2017-03-29T10:44:28Z</time>
      </trkpt>
      <trkpt lat="46.00624" lon="4.76178">
        <ele>230</ele>
        <time>2017-03-29T10:44:29Z</time>
      </trkpt>
      <trkpt lat="46.00621" lon="4.7619">
        <ele>230</ele>
        <time>2017-03-29T10:44:32Z</time>
      </trkpt>
      <trkpt lat="46.00619" lon="4.76192">
        <ele>230</ele>
        <time>2017-03-29T10:44:33Z</time>
      </trkpt>
      <trkpt lat="46.00611" lon="4.76195">
        <ele>230</ele>
        <time>2017-03-29T10:44:36Z</time>
      </trkpt>
      <trkpt lat="46.00607" lon="4.76194">
        <ele>230</ele>
        <time>2017-03-29T10:44:37Z</time>
      </trkpt>
      <trkpt lat="46.006" lon="4.76189">
        <ele>230</ele>
        <time>2017-03-29T10:44:39Z</time>
      </trkpt>
      <trkpt lat="46.00595" lon="4.76187">
        <ele>230</ele>
        <time>2017-03-29T10:44:40Z</time>
      </trkpt>
      <trkpt lat="46.0059" lon="4.76185">
        <ele>230</ele>
        <time>2017-03-29T10:44:41Z</time>
      </trkpt>
      <trkpt lat="46.00585" lon="4.76184">
        <ele>230</ele>
        <time>2017-03-29T10:44:42Z</time>
      </trkpt>
      <trkpt lat="46.00578" lon="4.76181">
        <ele>230</ele>
        <time>2017-03-29T10:44:43Z</time>
      </trkpt>
      <trkpt lat="46.00572" lon="4.7618">
        <ele>230</ele>
        <time>2017-03-29T10:44:44Z</time>
      </trkpt>
      <trkpt lat="46.00565" lon="4.76179">
        <ele>230</ele>
        <time>2017-03-29T10:44:45Z</time>
      </trkpt>
      <trkpt lat="46.00558" lon="4.76177">
        <ele>230</ele>
        <time>2017-03-29T10:44:46Z</time>
      </trkpt>
      <trkpt lat="46.00551" lon="4.76175">
        <ele>230</ele>
        <time>2017-03-29T10:44:47Z</time>
      </trkpt>
      <trkpt lat="46.00544" lon="4.76171">
        <ele>230</ele>
        <time>2017-03-29T10:44:48Z</time>
      </trkpt>
      <trkpt lat="46.00537" lon="4.76167">
        <ele>230</ele>
        <time>2017-03-29T10:44:49Z</time>
      </trkpt>
      <trkpt lat="46.0053" lon="4.76162">
        <ele>228</ele>
        <time>2017-03-29T10:44:50Z</time>
      </trkpt>
      <trkpt lat="46.00524" lon="4.76156">
        <ele>228</ele>
        <time>2017-03-29T10:44:51Z</time>
      </trkpt>
      <trkpt lat="46.00517" lon="4.76149">
        <ele>228</ele>
        <time>2017-03-29T10:44:52Z</time>
      </trkpt>
      <trkpt lat="46.00511" lon="4.76141">
        <ele>227</ele>
        <time>2017-03-29T10:44:53Z</time>
      </trkpt>
      <trkpt lat="46.00504" lon="4.76133">
        <ele>227</ele>
        <time>2017-03-29T10:44:54Z</time>
      </trkpt>
      <trkpt lat="46.00498" lon="4.76125">
        <ele>227</ele>
        <time>2017-03-29T10:44:55Z</time>
      </trkpt>
      <trkpt lat="46.00491" lon="4.76117">
        <ele>227</ele>
        <time>2017-03-29T10:44:56Z</time>
      </trkpt>
      <trkpt lat="46.00483" lon="4.76109">
        <ele>227</ele>
        <time>2017-03-29T10:44:57Z</time>
      </trkpt>
      <trkpt lat="46.00475" lon="4.76102">
        <ele>227</ele>
        <time>2017-03-29T10:44:58Z</time>
      </trkpt>
      <trkpt lat="46.00467" lon="4.76095">
        <ele>227</ele>
        <time>2017-03-29T10:44:59Z</time>
      </trkpt>
      <trkpt lat="46.00459" lon="4.76088">
        <ele>227</ele>
        <time>2017-03-29T10:45:00Z</time>
      </trkpt>
      <trkpt lat="46.0045" lon="4.76082">
        <ele>224</ele>
        <time>2017-03-29T10:45:01Z</time>
      </trkpt>
      <trkpt lat="46.0044" lon="4.76077">
        <ele>224</ele>
        <time>2017-03-29T10:45:02Z</time>
      </trkpt>
      <trkpt lat="46.0043" lon="4.76073">
        <ele>224</ele>
        <time>2017-03-29T10:45:03Z</time>
      </trkpt>
      <trkpt lat="46.00421" lon="4.7607">
        <ele>225</ele>
        <time>2017-03-29T10:45:04Z</time>
      </trkpt>
      <trkpt lat="46.00411" lon="4.76068">
        <ele>225</ele>
        <time>2017-03-29T10:45:05Z</time>
      </trkpt>
      <trkpt lat="46.00402" lon="4.76066">
        <ele>225</ele>
        <time>2017-03-29T10:45:06Z</time>
      </trkpt>
      <trkpt lat="46.00394" lon="4.76066">
        <ele>225</ele>
        <time>2017-03-29T10:45:07Z</time>
      </trkpt>
      <trkpt lat="46.00386" lon="4.76067">
        <ele>226</ele>
        <time>2017-03-29T10:45:08Z</time>
      </trkpt>
      <trkpt lat="46.0038" lon="4.76065">
        <ele>226</ele>
        <time>2017-03-29T10:45:09Z</time>
      </trkpt>
      <trkpt lat="46.00375" lon="4.76062">
        <ele>226</ele>
        <time>2017-03-29T10:45:10Z</time>
      </trkpt>
      <trkpt lat="46.00371" lon="4.76056">
        <ele>226</ele>
        <time>2017-03-29T10:45:11Z</time>
      </trkpt>
      <trkpt lat="46.00368" lon="4.7605">
        <ele>226</ele>
        <time>2017-03-29T10:45:12Z</time>
      </trkpt>
      <trkpt lat="46.00368" lon="4.76042">
        <ele>225</ele>
        <time>2017-03-29T10:45:13Z</time>
      </trkpt>
      <trkpt lat="46.00368" lon="4.76036">
        <ele>225</ele>
        <time>2017-03-29T10:45:14Z</time>
      </trkpt>
      <trkpt lat="46.00376" lon="4.76031">
        <ele>225</ele>
        <time>2017-03-29T10:45:15Z</time>
      </trkpt>
      <trkpt lat="46.00384" lon="4.76027">
        <ele>225</ele>
        <time>2017-03-29T10:45:16Z</time>
      </trkpt>
      <trkpt lat="46.0039" lon="4.76023">
        <ele>224</ele>
        <time>2017-03-29T10:45:17Z</time>
      </trkpt>
      <trkpt lat="46.00395" lon="4.76019">
        <ele>224</ele>
        <time>2017-03-29T10:45:18Z</time>
      </trkpt>
      <trkpt lat="46.00401" lon="4.76014">
        <ele>224</ele>
        <time>2017-03-29T10:45:19Z</time>
      </trkpt>
      <trkpt lat="46.00407" lon="4.7601">
        <ele>223</ele>
        <time>2017-03-29T10:45:20Z</time>
      </trkpt>
      <trkpt lat="46.00412" lon="4.76005">
        <ele>222</ele>
        <time>2017-03-29T10:45:21Z</time>
      </trkpt>
      <trkpt lat="46.00418" lon="4.76">
        <ele>221</ele>
        <time>2017-03-29T10:45:22Z</time>
      </trkpt>
      <trkpt lat="46.00424" lon="4.75996">
        <ele>220</ele>
        <time>2017-03-29T10:45:23Z</time>
      </trkpt>
      <trkpt lat="46.0043" lon="4.7599">
        <ele>220</ele>
        <time>2017-03-29T10:45:24Z</time>
      </trkpt>
      <trkpt lat="46.00436" lon="4.75982">
        <ele>220</ele>
        <time>2017-03-29T10:45:25Z</time>
      </trkpt>
      <trkpt lat="46.00443" lon="4.75973">
        <ele>219</ele>
        <time>2017-03-29T10:45:26Z</time>
      </trkpt>
      <trkpt lat="46.00448" lon="4.75962">
        <ele>219</ele>
        <time>2017-03-29T10:45:27Z</time>
      </trkpt>
      <trkpt lat="46.00452" lon="4.7595">
        <ele>219</ele>
        <time>2017-03-29T10:45:28Z</time>
      </trkpt>
      <trkpt lat="46.00453" lon="4.75937">
        <ele>219</ele>
        <time>2017-03-29T10:45:29Z</time>
      </trkpt>
      <trkpt lat="46.00453" lon="4.75926">
        <ele>218</ele>
        <time>2017-03-29T10:45:30Z</time>
      </trkpt>
      <trkpt lat="46.00452" lon="4.75914">
        <ele>217</ele>
        <time>2017-03-29T10:45:31Z</time>
      </trkpt>
      <trkpt lat="46.00449" lon="4.75903">
        <ele>217</ele>
        <time>2017-03-29T10:45:32Z</time>
      </trkpt>
      <trkpt lat="46.00445" lon="4.75893">
        <ele>217</ele>
        <time>2017-03-29T10:45:33Z</time>
      </trkpt>
      <trkpt lat="46.00439" lon="4.75882">
        <ele>217</ele>
        <time>2017-03-29T10:45:34Z</time>
      </trkpt>
      <trkpt lat="46.00433" lon="4.75871">
        <ele>217</ele>
        <time>2017-03-29T10:45:35Z</time>
      </trkpt>
      <trkpt lat="46.00425" lon="4.7586">
        <ele>216</ele>
        <time>2017-03-29T10:45:36Z</time>
      </trkpt>
      <trkpt lat="46.00419" lon="4.75848">
        <ele>215</ele>
        <time>2017-03-29T10:45:37Z</time>
      </trkpt>
      <trkpt lat="46.00412" lon="4.75837">
        <ele>214</ele>
        <time>2017-03-29T10:45:38Z</time>
      </trkpt>
      <trkpt lat="46.00405" lon="4.75826">
        <ele>213</ele>
        <time>2017-03-29T10:45:39Z</time>
      </trkpt>
      <trkpt lat="46.00398" lon="4.75816">
        <ele>213</ele>
        <time>2017-03-29T10:45:40Z</time>
      </trkpt>
      <trkpt lat="46.00391" lon="4.75805">
        <ele>213</ele>
        <time>2017-03-29T10:45:41Z</time>
      </trkpt>
      <trkpt lat="46.00384" lon="4.75794">
        <ele>213</ele>
        <time>2017-03-29T10:45:42Z</time>
      </trkpt>
      <trkpt lat="46.00377" lon="4.75784">
        <ele>213</ele>
        <time>2017-03-29T10:45:43Z</time>
      </trkpt>
      <trkpt lat="46.0037" lon="4.75774">
        <ele>213</ele>
        <time>2017-03-29T10:45:44Z</time>
      </trkpt>
      <trkpt lat="46.00364" lon="4.75762">
        <ele>212</ele>
        <time>2017-03-29T10:45:45Z</time>
      </trkpt>
      <trkpt lat="46.00359" lon="4.75751">
        <ele>212</ele>
        <time>2017-03-29T10:45:46Z</time>
      </trkpt>
      <trkpt lat="46.00354" lon="4.75739">
        <ele>210</ele>
        <time>2017-03-29T10:45:47Z</time>
      </trkpt>
      <trkpt lat="46.00348" lon="4.75727">
        <ele>210</ele>
        <time>2017-03-29T10:45:48Z</time>
      </trkpt>
      <trkpt lat="46.00341" lon="4.75716">
        <ele>210</ele>
        <time>2017-03-29T10:45:49Z</time>
      </trkpt>
      <trkpt lat="46.00334" lon="4.75706">
        <ele>210</ele>
        <time>2017-03-29T10:45:50Z</time>
      </trkpt>
      <trkpt lat="46.00326" lon="4.75695">
        <ele>207</ele>
        <time>2017-03-29T10:45:51Z</time>
      </trkpt>
      <trkpt lat="46.00318" lon="4.75683">
        <ele>207</ele>
        <time>2017-03-29T10:45:52Z</time>
      </trkpt>
      <trkpt lat="46.00311" lon="4.75672">
        <ele>207</ele>
        <time>2017-03-29T10:45:53Z</time>
      </trkpt>
      <trkpt lat="46.00303" lon="4.75661">
        <ele>206</ele>
        <time>2017-03-29T10:45:54Z</time>
      </trkpt>
      <trkpt lat="46.00296" lon="4.75649">
        <ele>206</ele>
        <time>2017-03-29T10:45:55Z</time>
      </trkpt>
      <trkpt lat="46.00288" lon="4.75638">
        <ele>206</ele>
        <time>2017-03-29T10:45:56Z</time>
      </trkpt>
      <trkpt lat="46.0028" lon="4.75626">
        <ele>206</ele>
        <time>2017-03-29T10:45:57Z</time>
      </trkpt>
      <trkpt lat="46.00273" lon="4.75615">
        <ele>206</ele>
        <time>2017-03-29T10:45:58Z</time>
      </trkpt>
      <trkpt lat="46.00266" lon="4.75603">
        <ele>205</ele>
        <time>2017-03-29T10:45:59Z</time>
      </trkpt>
      <trkpt lat="46.00258" lon="4.75591">
        <ele>205</ele>
        <time>2017-03-29T10:46:00Z</time>
      </trkpt>
      <trkpt lat="46.0025" lon="4.75578">
        <ele>204</ele>
        <time>2017-03-29T10:46:01Z</time>
      </trkpt>
      <trkpt lat="46.00243" lon="4.75565">
        <ele>205</ele>
        <time>2017-03-29T10:46:02Z</time>
      </trkpt>
      <trkpt lat="46.00236" lon="4.75551">
        <ele>205</ele>
        <time>2017-03-29T10:46:03Z</time>
      </trkpt>
      <trkpt lat="46.0023" lon="4.75537">
        <ele>205</ele>
        <time>2017-03-29T10:46:04Z</time>
      </trkpt>
      <trkpt lat="46.00224" lon="4.75521">
        <ele>204</ele>
        <time>2017-03-29T10:46:05Z</time>
      </trkpt>
      <trkpt lat="46.00224" lon="4.75502">
        <ele>203</ele>
        <time>2017-03-29T10:46:06Z</time>
      </trkpt>
      <trkpt lat="46.00223" lon="4.75484">
        <ele>198</ele>
        <time>2017-03-29T10:46:07Z</time>
      </trkpt>
      <trkpt lat="46.00222" lon="4.75465">
        <ele>197</ele>
        <time>2017-03-29T10:46:08Z</time>
      </trkpt>
      <trkpt lat="46.00223" lon="4.75448">
        <ele>197</ele>
        <time>2017-03-29T10:46:09Z</time>
      </trkpt>
      <trkpt lat="46.00222" lon="4.7543">
        <ele>196</ele>
        <time>2017-03-29T10:46:10Z</time>
      </trkpt>
      <trkpt lat="46.00221" lon="4.75412">
        <ele>192</ele>
        <time>2017-03-29T10:46:11Z</time>
      </trkpt>
      <trkpt lat="46.0022" lon="4.75394">
        <ele>192</ele>
        <time>2017-03-29T10:46:12Z</time>
      </trkpt>
      <trkpt lat="46.0022" lon="4.75376">
        <ele>191</ele>
        <time>2017-03-29T10:46:13Z</time>
      </trkpt>
      <trkpt lat="46.00219" lon="4.75359">
        <ele>191</ele>
        <time>2017-03-29T10:46:14Z</time>
      </trkpt>
      <trkpt lat="46.00219" lon="4.75341">
        <ele>190</ele>
        <time>2017-03-29T10:46:15Z</time>
      </trkpt>
      <trkpt lat="46.00219" lon="4.75322">
        <ele>186</ele>
        <time>2017-03-29T10:46:16Z</time>
      </trkpt>
      <trkpt lat="46.00218" lon="4.75304">
        <ele>185</ele>
        <time>2017-03-29T10:46:17Z</time>
      </trkpt>
      <trkpt lat="46.00217" lon="4.75286">
        <ele>185</ele>
        <time>2017-03-29T10:46:18Z</time>
      </trkpt>
      <trkpt lat="46.00216" lon="4.75268">
        <ele>184</ele>
        <time>2017-03-29T10:46:19Z</time>
      </trkpt>
      <trkpt lat="46.00217" lon="4.75249">
        <ele>180</ele>
        <time>2017-03-29T10:46:20Z</time>
      </trkpt>
      <trkpt lat="46.00217" lon="4.75231">
        <ele>180</ele>
        <time>2017-03-29T10:46:21Z</time>
      </trkpt>
      <trkpt lat="46.00216" lon="4.75214">
        <ele>180</ele>
        <time>2017-03-29T10:46:22Z</time>
      </trkpt>
      <trkpt lat="46.00216" lon="4.75197">
        <ele>179</ele>
        <time>2017-03-29T10:46:23Z</time>
      </trkpt>
      <trkpt lat="46.00216" lon="4.75182">
        <ele>179</ele>
        <time>2017-03-29T10:46:24Z</time>
      </trkpt>
      <trkpt lat="46.00216" lon="4.75168">
        <ele>179</ele>
        <time>2017-03-29T10:46:25Z</time>
      </trkpt>
      <trkpt lat="46.00216" lon="4.75157">
        <ele>177</ele>
        <time>2017-03-29T10:46:26Z</time>
      </trkpt>
      <trkpt lat="46.00217" lon="4.75149">
        <ele>177</ele>
        <time>2017-03-29T10:46:27Z</time>
      </trkpt>
      <trkpt lat="46.00218" lon="4.75139">
        <ele>177</ele>
        <time>2017-03-29T10:46:29Z</time>
      </trkpt>
      <trkpt lat="46.00218" lon="4.75135">
        <ele>176</ele>
        <time>2017-03-29T10:46:30Z</time>
      </trkpt>
      <trkpt lat="46.00219" lon="4.75125">
        <ele>176</ele>
        <time>2017-03-29T10:46:33Z</time>
      </trkpt>
      <trkpt lat="46.0022" lon="4.75122">
        <ele>176</ele>
        <time>2017-03-29T10:46:34Z</time>
      </trkpt>
      <trkpt lat="46.00217" lon="4.75112">
        <ele>176</ele>
        <time>2017-03-29T10:46:39Z</time>
      </trkpt>
      <trkpt lat="46.00215" lon="4.75109">
        <ele>176</ele>
        <time>2017-03-29T10:46:40Z</time>
      </trkpt>
      <trkpt lat="46.0021" lon="4.75104">
        <ele>176</ele>
        <time>2017-03-29T10:46:44Z</time>
      </trkpt>
      <trkpt lat="46.00207" lon="4.75103">
        <ele>176</ele>
        <time>2017-03-29T10:46:45Z</time>
      </trkpt>
      <trkpt lat="46.00199" lon="4.75104">
        <ele>176</ele>
        <time>2017-03-29T10:46:47Z</time>
      </trkpt>
      <trkpt lat="46.00195" lon="4.75104">
        <ele>176</ele>
        <time>2017-03-29T10:46:48Z</time>
      </trkpt>
      <trkpt lat="46.00187" lon="4.75104">
        <ele>176</ele>
        <time>2017-03-29T10:46:50Z</time>
      </trkpt>
      <trkpt lat="46.00181" lon="4.75105">
        <ele>176</ele>
        <time>2017-03-29T10:46:51Z</time>
      </trkpt>
      <trkpt lat="46.00176" lon="4.75109">
        <ele>176</ele>
        <time>2017-03-29T10:46:52Z</time>
      </trkpt>
      <trkpt lat="46.00172" lon="4.75108">
        <ele>176</ele>
        <time>2017-03-29T10:46:53Z</time>
      </trkpt>
      <trkpt lat="46.00167" lon="4.75108">
        <ele>176</ele>
        <time>2017-03-29T10:46:54Z</time>
      </trkpt>
      <trkpt lat="46.00163" lon="4.75108">
        <ele>175</ele>
        <time>2017-03-29T10:46:55Z</time>
      </trkpt>
      <trkpt lat="46.00157" lon="4.75108">
        <ele>175</ele>
        <time>2017-03-29T10:46:56Z</time>
      </trkpt>
      <trkpt lat="46.00151" lon="4.75108">
        <ele>175</ele>
        <time>2017-03-29T10:46:57Z</time>
      </trkpt>
      <trkpt lat="46.00145" lon="4.75108">
        <ele>175</ele>
        <time>2017-03-29T10:46:58Z</time>
      </trkpt>
      <trkpt lat="46.00139" lon="4.75107">
        <ele>175</ele>
        <time>2017-03-29T10:46:59Z</time>
      </trkpt>
      <trkpt lat="46.00133" lon="4.75106">
        <ele>175</ele>
        <time>2017-03-29T10:47:00Z</time>
      </trkpt>
      <trkpt lat="46.00128" lon="4.75106">
        <ele>175</ele>
        <time>2017-03-29T10:47:01Z</time>
      </trkpt>
      <trkpt lat="46.00123" lon="4.75105">
        <ele>175</ele>
        <time>2017-03-29T10:47:02Z</time>
      </trkpt>
      <trkpt lat="46.00118" lon="4.75104">
        <ele>175</ele>
        <time>2017-03-29T10:47:03Z</time>
      </trkpt>
      <trkpt lat="46.00111" lon="4.75103">
        <ele>175</ele>
        <time>2017-03-29T10:47:04Z</time>
      </trkpt>
      <trkpt lat="46.00106" lon="4.75105">
        <ele>175</ele>
        <time>2017-03-29T10:47:05Z</time>
      </trkpt>
      <trkpt lat="46.001" lon="4.75105">
        <ele>175</ele>
        <time>2017-03-29T10:47:06Z</time>
      </trkpt>
      <trkpt lat="46.00094" lon="4.75104">
        <ele>174</ele>
        <time>2017-03-29T10:47:07Z</time>
      </trkpt>
      <trkpt lat="46.00088" lon="4.75104">
        <ele>174</ele>
        <time>2017-03-29T10:47:08Z</time>
      </trkpt>
      <trkpt lat="46.00082" lon="4.75104">
        <ele>174</ele>
        <time>2017-03-29T10:47:09Z</time>
      </trkpt>
      <trkpt lat="46.00077" lon="4.75104">
        <ele>174</ele>
        <time>2017-03-29T10:47:10Z</time>
      </trkpt>
      <trkpt lat="46.00071" lon="4.75104">
        <ele>174</ele>
        <time>2017-03-29T10:47:11Z</time>
      </trkpt>
      <trkpt lat="46.00066" lon="4.75103">
        <ele>174</ele>
        <time>2017-03-29T10:47:12Z</time>
      </trkpt>
      <trkpt lat="46.00061" lon="4.75104">
        <ele>174</ele>
        <time>2017-03-29T10:47:13Z</time>
      </trkpt>
      <trkpt lat="46.00056" lon="4.75104">
        <ele>174</ele>
        <time>2017-03-29T10:47:14Z</time>
      </trkpt>
      <trkpt lat="46.00052" lon="4.75103">
        <ele>174</ele>
        <time>2017-03-29T10:47:15Z</time>
      </trkpt>
      <trkpt lat="46.00047" lon="4.75103">
        <ele>174</ele>
        <time>2017-03-29T10:47:16Z</time>
      </trkpt>
      <trkpt lat="46.00043" lon="4.75103">
        <ele>174</ele>
        <time>2017-03-29T10:47:17Z</time>
      </trkpt>
      <trkpt lat="46.00038" lon="4.75104">
        <ele>174</ele>
        <time>2017-03-29T10:47:18Z</time>
      </trkpt>
      <trkpt lat="46.00033" lon="4.75104">
        <ele>174</ele>
        <time>2017-03-29T10:47:19Z</time>
      </trkpt>
      <trkpt lat="46.00029" lon="4.75104">
        <ele>174</ele>
        <time>2017-03-29T10:47:20Z</time>
      </trkpt>
      <trkpt lat="46.00024" lon="4.75105">
        <ele>174</ele>
        <time>2017-03-29T10:47:21Z</time>
      </trkpt>
      <trkpt lat="46.00019" lon="4.75105">
        <ele>174</ele>
        <time>2017-03-29T10:47:22Z</time>
      </trkpt>
      <trkpt lat="46.00014" lon="4.75105">
        <ele>174</ele>
        <time>2017-03-29T10:47:23Z</time>
      </trkpt>
      <trkpt lat="46.00009" lon="4.75106">
        <ele>174</ele>
        <time>2017-03-29T10:47:24Z</time>
      </trkpt>
      <trkpt lat="46.00004" lon="4.75108">
        <ele>174</ele>
        <time>2017-03-29T10:47:25Z</time>
      </trkpt>
      <trkpt lat="45.99999" lon="4.7511">
        <ele>173</ele>
        <time>2017-03-29T10:47:26Z</time>
      </trkpt>
      <trkpt lat="45.99995" lon="4.75112">
        <ele>173</ele>
        <time>2017-03-29T10:47:27Z</time>
      </trkpt>
      <trkpt lat="45.9999" lon="4.75114">
        <ele>173</ele>
        <time>2017-03-29T10:47:28Z</time>
      </trkpt>
      <trkpt lat="45.99985" lon="4.75116">
        <ele>173</ele>
        <time>2017-03-29T10:47:29Z</time>
      </trkpt>
      <trkpt lat="45.99979" lon="4.75118">
        <ele>173</ele>
        <time>2017-03-29T10:47:30Z</time>
      </trkpt>
      <trkpt lat="45.99973" lon="4.7512">
        <ele>173</ele>
        <time>2017-03-29T10:47:31Z</time>
      </trkpt>
      <trkpt lat="45.99968" lon="4.75122">
        <ele>173</ele>
        <time>2017-03-29T10:47:32Z</time>
      </trkpt>
      <trkpt lat="45.99963" lon="4.75124">
        <ele>173</ele>
        <time>2017-03-29T10:47:33Z</time>
      </trkpt>
      <trkpt lat="45.99958" lon="4.75126">
        <ele>173</ele>
        <time>2017-03-29T10:47:34Z</time>
      </trkpt>
      <trkpt lat="45.99953" lon="4.75128">
        <ele>172</ele>
        <time>2017-03-29T10:47:35Z</time>
      </trkpt>
      <trkpt lat="45.99947" lon="4.75131">
        <ele>172</ele>
        <time>2017-03-29T10:47:36Z</time>
      </trkpt>
      <trkpt lat="45.99943" lon="4.75133">
        <ele>172</ele>
        <time>2017-03-29T10:47:37Z</time>
      </trkpt>
      <trkpt lat="45.99938" lon="4.75136">
        <ele>172</ele>
        <time>2017-03-29T10:47:38Z</time>
      </trkpt>
      <trkpt lat="45.99934" lon="4.75139">
        <ele>172</ele>
        <time>2017-03-29T10:47:39Z</time>
      </trkpt>
      <trkpt lat="45.99929" lon="4.75142">
        <ele>173</ele>
        <time>2017-03-29T10:47:40Z</time>
      </trkpt>
      <trkpt lat="45.99924" lon="4.75144">
        <ele>173</ele>
        <time>2017-03-29T10:47:41Z</time>
      </trkpt>
      <trkpt lat="45.99919" lon="4.75146">
        <ele>173</ele>
        <time>2017-03-29T10:47:42Z</time>
      </trkpt>
      <trkpt lat="45.99914" lon="4.75147">
        <ele>172</ele>
        <time>2017-03-29T10:47:43Z</time>
      </trkpt>
      <trkpt lat="45.99909" lon="4.75151">
        <ele>172</ele>
        <time>2017-03-29T10:47:44Z</time>
      </trkpt>
      <trkpt lat="45.99904" lon="4.75154">
        <ele>172</ele>
        <time>2017-03-29T10:47:45Z</time>
      </trkpt>
      <trkpt lat="45.99898" lon="4.75156">
        <ele>172</ele>
        <time>2017-03-29T10:47:46Z</time>
      </trkpt>
      <trkpt lat="45.99893" lon="4.75158">
        <ele>172</ele>
        <time>2017-03-29T10:47:47Z</time>
      </trkpt>
      <trkpt lat="45.99888" lon="4.75161">
        <ele>172</ele>
        <time>2017-03-29T10:47:48Z</time>
      </trkpt>
      <trkpt lat="45.99882" lon="4.75164">
        <ele>172</ele>
        <time>2017-03-29T10:47:49Z</time>
      </trkpt>
      <trkpt lat="45.99877" lon="4.75167">
        <ele>172</ele>
        <time>2017-03-29T10:47:50Z</time>
      </trkpt>
      <trkpt lat="45.99872" lon="4.7517">
        <ele>174</ele>
        <time>2017-03-29T10:47:51Z</time>
      </trkpt>
      <trkpt lat="45.99867" lon="4.75172">
        <ele>174</ele>
        <time>2017-03-29T10:47:52Z</time>
      </trkpt>
      <trkpt lat="45.99862" lon="4.75175">
        <ele>174</ele>
        <time>2017-03-29T10:47:53Z</time>
      </trkpt>
      <trkpt lat="45.99856" lon="4.75177">
        <ele>174</ele>
        <time>2017-03-29T10:47:54Z</time>
      </trkpt>
      <trkpt lat="45.99851" lon="4.7518">
        <ele>174</ele>
        <time>2017-03-29T10:47:55Z</time>
      </trkpt>
      <trkpt lat="45.99846" lon="4.75182">
        <ele>174</ele>
        <time>2017-03-29T10:47:56Z</time>
      </trkpt>
      <trkpt lat="45.99841" lon="4.75184">
        <ele>174</ele>
        <time>2017-03-29T10:47:57Z</time>
      </trkpt>
      <trkpt lat="45.99837" lon="4.75186">
        <ele>174</ele>
        <time>2017-03-29T10:47:58Z</time>
      </trkpt>
      <trkpt lat="45.99832" lon="4.75189">
        <ele>173</ele>
        <time>2017-03-29T10:47:59Z</time>
      </trkpt>
      <trkpt lat="45.99827" lon="4.75191">
        <ele>174</ele>
        <time>2017-03-29T10:48:00Z</time>
      </trkpt>
      <trkpt lat="45.99822" lon="4.75194">
        <ele>174</ele>
        <time>2017-03-29T10:48:01Z</time>
      </trkpt>
      <trkpt lat="45.99817" lon="4.75197">
        <ele>174</ele>
        <time>2017-03-29T10:48:02Z</time>
      </trkpt>
      <trkpt lat="45.99812" lon="4.75199">
        <ele>174</ele>
        <time>2017-03-29T10:48:03Z</time>
      </trkpt>
      <trkpt lat="45.99806" lon="4.75202">
        <ele>174</ele>
        <time>2017-03-29T10:48:04Z</time>
      </trkpt>
      <trkpt lat="45.99801" lon="4.75204">
        <ele>174</ele>
        <time>2017-03-29T10:48:05Z</time>
      </trkpt>
      <trkpt lat="45.99796" lon="4.75207">
        <ele>174</ele>
        <time>2017-03-29T10:48:06Z</time>
      </trkpt>
      <trkpt lat="45.9979" lon="4.75209">
        <ele>174</ele>
        <time>2017-03-29T10:48:07Z</time>
      </trkpt>
      <trkpt lat="45.99785" lon="4.75211">
        <ele>174</ele>
        <time>2017-03-29T10:48:08Z</time>
      </trkpt>
      <trkpt lat="45.9978" lon="4.75214">
        <ele>174</ele>
        <time>2017-03-29T10:48:09Z</time>
      </trkpt>
      <trkpt lat="45.99775" lon="4.75216">
        <ele>174</ele>
        <time>2017-03-29T10:48:10Z</time>
      </trkpt>
      <trkpt lat="45.9977" lon="4.75219">
        <ele>175</ele>
        <time>2017-03-29T10:48:11Z</time>
      </trkpt>
      <trkpt lat="45.99765" lon="4.75221">
        <ele>175</ele>
        <time>2017-03-29T10:48:12Z</time>
      </trkpt>
      <trkpt lat="45.9976" lon="4.75223">
        <ele>175</ele>
        <time>2017-03-29T10:48:13Z</time>
      </trkpt>
      <trkpt lat="45.99756" lon="4.75226">
        <ele>175</ele>
        <time>2017-03-29T10:48:14Z</time>
      </trkpt>
      <trkpt lat="45.99751" lon="4.75228">
        <ele>175</ele>
        <time>2017-03-29T10:48:15Z</time>
      </trkpt>
      <trkpt lat="45.99746" lon="4.7523">
        <ele>175</ele>
        <time>2017-03-29T10:48:16Z</time>
      </trkpt>
      <trkpt lat="45.99741" lon="4.75233">
        <ele>175</ele>
        <time>2017-03-29T10:48:17Z</time>
      </trkpt>
      <trkpt lat="45.99736" lon="4.75235">
        <ele>175</ele>
        <time>2017-03-29T10:48:18Z</time>
      </trkpt>
      <trkpt lat="45.9973" lon="4.75238">
        <ele>175</ele>
        <time>2017-03-29T10:48:19Z</time>
      </trkpt>
      <trkpt lat="45.99725" lon="4.7524">
        <ele>175</ele>
        <time>2017-03-29T10:48:20Z</time>
      </trkpt>
      <trkpt lat="45.9972" lon="4.75243">
        <ele>174</ele>
        <time>2017-03-29T10:48:21Z</time>
      </trkpt>
      <trkpt lat="45.99715" lon="4.75245">
        <ele>174</ele>
        <time>2017-03-29T10:48:22Z</time>
      </trkpt>
      <trkpt lat="45.9971" lon="4.75247">
        <ele>174</ele>
        <time>2017-03-29T10:48:23Z</time>
      </trkpt>
      <trkpt lat="45.99704" lon="4.75249">
        <ele>174</ele>
        <time>2017-03-29T10:48:24Z</time>
      </trkpt>
      <trkpt lat="45.99699" lon="4.75251">
        <ele>176</ele>
        <time>2017-03-29T10:48:25Z</time>
      </trkpt>
      <trkpt lat="45.99694" lon="4.75254">
        <ele>176</ele>
        <time>2017-03-29T10:48:26Z</time>
      </trkpt>
      <trkpt lat="45.99689" lon="4.75257">
        <ele>175</ele>
        <time>2017-03-29T10:48:27Z</time>
      </trkpt>
      <trkpt lat="45.99684" lon="4.75259">
        <ele>175</ele>
        <time>2017-03-29T10:48:28Z</time>
      </trkpt>
      <trkpt lat="45.99679" lon="4.75262">
        <ele>175</ele>
        <time>2017-03-29T10:48:29Z</time>
      </trkpt>
      <trkpt lat="45.99674" lon="4.75264">
        <ele>175</ele>
        <time>2017-03-29T10:48:30Z</time>
      </trkpt>
      <trkpt lat="45.99668" lon="4.75266">
        <ele>175</ele>
        <time>2017-03-29T10:48:31Z</time>
      </trkpt>
      <trkpt lat="45.99663" lon="4.75267">
        <ele>174</ele>
        <time>2017-03-29T10:48:32Z</time>
      </trkpt>
      <trkpt lat="45.99658" lon="4.75269">
        <ele>174</ele>
        <time>2017-03-29T10:48:33Z</time>
      </trkpt>
      <trkpt lat="45.99653" lon="4.7527">
        <ele>174</ele>
        <time>2017-03-29T10:48:34Z</time>
      </trkpt>
      <trkpt lat="45.99647" lon="4.7527">
        <ele>174</ele>
        <time>2017-03-29T10:48:35Z</time>
      </trkpt>
      <trkpt lat="45.99642" lon="4.75269">
        <ele>174</ele>
        <time>2017-03-29T10:48:36Z</time>
      </trkpt>
      <trkpt lat="45.99637" lon="4.75268">
        <ele>174</ele>
        <time>2017-03-29T10:48:37Z</time>
      </trkpt>
      <trkpt lat="45.99632" lon="4.75267">
        <ele>174</ele>
        <time>2017-03-29T10:48:38Z</time>
      </trkpt>
      <trkpt lat="45.99627" lon="4.75266">
        <ele>174</ele>
        <time>2017-03-29T10:48:39Z</time>
      </trkpt>
      <trkpt lat="45.99623" lon="4.75266">
        <ele>174</ele>
        <time>2017-03-29T10:48:40Z</time>
      </trkpt>
      <trkpt lat="45.99618" lon="4.75267">
        <ele>174</ele>
        <time>2017-03-29T10:48:41Z</time>
      </trkpt>
      <trkpt lat="45.99613" lon="4.75268">
        <ele>174</ele>
        <time>2017-03-29T10:48:42Z</time>
      </trkpt>
      <trkpt lat="45.99608" lon="4.7527">
        <ele>173</ele>
        <time>2017-03-29T10:48:43Z</time>
      </trkpt>
      <trkpt lat="45.996" lon="4.75272">
        <ele>173</ele>
        <time>2017-03-29T10:48:45Z</time>
      </trkpt>
      <trkpt lat="45.99595" lon="4.75271">
        <ele>173</ele>
        <time>2017-03-29T10:48:46Z</time>
      </trkpt>
      <trkpt lat="45.99587" lon="4.75267">
        <ele>173</ele>
        <time>2017-03-29T10:48:48Z</time>
      </trkpt>
      <trkpt lat="45.99583" lon="4.75265">
        <ele>172</ele>
        <time>2017-03-29T10:48:49Z</time>
      </trkpt>
      <trkpt lat="45.99578" lon="4.75263">
        <ele>172</ele>
        <time>2017-03-29T10:48:50Z</time>
      </trkpt>
      <trkpt lat="45.99573" lon="4.75263">
        <ele>172</ele>
        <time>2017-03-29T10:48:51Z</time>
      </trkpt>
      <trkpt lat="45.99567" lon="4.75264">
        <ele>172</ele>
        <time>2017-03-29T10:48:52Z</time>
      </trkpt>
      <trkpt lat="45.99562" lon="4.75266">
        <ele>172</ele>
        <time>2017-03-29T10:48:53Z</time>
      </trkpt>
      <trkpt lat="45.99557" lon="4.7527">
        <ele>172</ele>
        <time>2017-03-29T10:48:54Z</time>
      </trkpt>
      <trkpt lat="45.99553" lon="4.75276">
        <ele>172</ele>
        <time>2017-03-29T10:48:55Z</time>
      </trkpt>
      <trkpt lat="45.99549" lon="4.75281">
        <ele>172</ele>
        <time>2017-03-29T10:48:56Z</time>
      </trkpt>
      <trkpt lat="45.99544" lon="4.75286">
        <ele>172</ele>
        <time>2017-03-29T10:48:57Z</time>
      </trkpt>
      <trkpt lat="45.99539" lon="4.75289">
        <ele>172</ele>
        <time>2017-03-29T10:48:58Z</time>
      </trkpt>
      <trkpt lat="45.99534" lon="4.75291">
        <ele>172</ele>
        <time>2017-03-29T10:48:59Z</time>
      </trkpt>
      <trkpt lat="45.99529" lon="4.75293">
        <ele>172</ele>
        <time>2017-03-29T10:49:00Z</time>
      </trkpt>
      <trkpt lat="45.99523" lon="4.75294">
        <ele>172</ele>
        <time>2017-03-29T10:49:01Z</time>
      </trkpt>
      <trkpt lat="45.99518" lon="4.75295">
        <ele>172</ele>
        <time>2017-03-29T10:49:02Z</time>
      </trkpt>
      <trkpt lat="45.99512" lon="4.75296">
        <ele>172</ele>
        <time>2017-03-29T10:49:03Z</time>
      </trkpt>
      <trkpt lat="45.99506" lon="4.75297">
        <ele>172</ele>
        <time>2017-03-29T10:49:04Z</time>
      </trkpt>
      <trkpt lat="45.99501" lon="4.75298">
        <ele>172</ele>
        <time>2017-03-29T10:49:05Z</time>
      </trkpt>
      <trkpt lat="45.99495" lon="4.75299">
        <ele>171</ele>
        <time>2017-03-29T10:49:06Z</time>
      </trkpt>
      <trkpt lat="45.9949" lon="4.753">
        <ele>171</ele>
        <time>2017-03-29T10:49:07Z</time>
      </trkpt>
      <trkpt lat="45.99484" lon="4.753">
        <ele>171</ele>
        <time>2017-03-29T10:49:08Z</time>
      </trkpt>
      <trkpt lat="45.99478" lon="4.75301">
        <ele>171</ele>
        <time>2017-03-29T10:49:09Z</time>
      </trkpt>
      <trkpt lat="45.99472" lon="4.75302">
        <ele>171</ele>
        <time>2017-03-29T10:49:10Z</time>
      </trkpt>
      <trkpt lat="45.99466" lon="4.75302">
        <ele>171</ele>
        <time>2017-03-29T10:49:11Z</time>
      </trkpt>
      <trkpt lat="45.9946" lon="4.75303">
        <ele>171</ele>
        <time>2017-03-29T10:49:12Z</time>
      </trkpt>
      <trkpt lat="45.99454" lon="4.75304">
        <ele>171</ele>
        <time>2017-03-29T10:49:13Z</time>
      </trkpt>
      <trkpt lat="45.99448" lon="4.75306">
        <ele>171</ele>
        <time>2017-03-29T10:49:14Z</time>
      </trkpt>
      <trkpt lat="45.99442" lon="4.75308">
        <ele>171</ele>
        <time>2017-03-29T10:49:15Z</time>
      </trkpt>
      <trkpt lat="45.99436" lon="4.75308">
        <ele>171</ele>
        <time>2017-03-29T10:49:16Z</time>
      </trkpt>
      <trkpt lat="45.99431" lon="4.75308">
        <ele>171</ele>
        <time>2017-03-29T10:49:17Z</time>
      </trkpt>
      <trkpt lat="45.99425" lon="4.75309">
        <ele>171</ele>
        <time>2017-03-29T10:49:18Z</time>
      </trkpt>
      <trkpt lat="45.99418" lon="4.7531">
        <ele>171</ele>
        <time>2017-03-29T10:49:19Z</time>
      </trkpt>
      <trkpt lat="45.99412" lon="4.75312">
        <ele>170</ele>
        <time>2017-03-29T10:49:20Z</time>
      </trkpt>
      <trkpt lat="45.99407" lon="4.75315">
        <ele>170</ele>
        <time>2017-03-29T10:49:21Z</time>
      </trkpt>
      <trkpt lat="45.99401" lon="4.75318">
        <ele>170</ele>
        <time>2017-03-29T10:49:22Z</time>
      </trkpt>
      <trkpt lat="45.99395" lon="4.75322">
        <ele>170</ele>
        <time>2017-03-29T10:49:23Z</time>
      </trkpt>
      <trkpt lat="45.9939" lon="4.75327">
        <ele>170</ele>
        <time>2017-03-29T10:49:24Z</time>
      </trkpt>
      <trkpt lat="45.99385" lon="4.75333">
        <ele>170</ele>
        <time>2017-03-29T10:49:25Z</time>
      </trkpt>
      <trkpt lat="45.9938" lon="4.75338">
        <ele>171</ele>
        <time>2017-03-29T10:49:26Z</time>
      </trkpt>
      <trkpt lat="45.99375" lon="4.75345">
        <ele>172</ele>
        <time>2017-03-29T10:49:27Z</time>
      </trkpt>
      <trkpt lat="45.9937" lon="4.75352">
        <ele>172</ele>
        <time>2017-03-29T10:49:28Z</time>
      </trkpt>
      <trkpt lat="45.99366" lon="4.7536">
        <ele>172</ele>
        <time>2017-03-29T10:49:29Z</time>
      </trkpt>
      <trkpt lat="45.99362" lon="4.75368">
        <ele>172</ele>
        <time>2017-03-29T10:49:30Z</time>
      </trkpt>
      <trkpt lat="45.99358" lon="4.75375">
        <ele>172</ele>
        <time>2017-03-29T10:49:31Z</time>
      </trkpt>
      <trkpt lat="45.99354" lon="4.75383">
        <ele>172</ele>
        <time>2017-03-29T10:49:32Z</time>
      </trkpt>
      <trkpt lat="45.9935" lon="4.7539">
        <ele>172</ele>
        <time>2017-03-29T10:49:33Z</time>
      </trkpt>
      <trkpt lat="45.99346" lon="4.75397">
        <ele>173</ele>
        <time>2017-03-29T10:49:34Z</time>
      </trkpt>
      <trkpt lat="45.99343" lon="4.75404">
        <ele>173</ele>
        <time>2017-03-29T10:49:35Z</time>
      </trkpt>
      <trkpt lat="45.99341" lon="4.75412">
        <ele>173</ele>
        <time>2017-03-29T10:49:36Z</time>
      </trkpt>
      <trkpt lat="45.9934" lon="4.75419">
        <ele>174</ele>
        <time>2017-03-29T10:49:37Z</time>
      </trkpt>
      <trkpt lat="45.99338" lon="4.75427">
        <ele>175</ele>
        <time>2017-03-29T10:49:38Z</time>
      </trkpt>
      <trkpt lat="45.99337" lon="4.75435">
        <ele>175</ele>
        <time>2017-03-29T10:49:39Z</time>
      </trkpt>
      <trkpt lat="45.99335" lon="4.75442">
        <ele>176</ele>
        <time>2017-03-29T10:49:40Z</time>
      </trkpt>
      <trkpt lat="45.99333" lon="4.75449">
        <ele>173</ele>
        <time>2017-03-29T10:49:41Z</time>
      </trkpt>
      <trkpt lat="45.99331" lon="4.75455">
        <ele>174</ele>
        <time>2017-03-29T10:49:42Z</time>
      </trkpt>
      <trkpt lat="45.99328" lon="4.75461">
        <ele>174</ele>
        <time>2017-03-29T10:49:43Z</time>
      </trkpt>
      <trkpt lat="45.99326" lon="4.75468">
        <ele>174</ele>
        <time>2017-03-29T10:49:44Z</time>
      </trkpt>
      <trkpt lat="45.99323" lon="4.75474">
        <ele>174</ele>
        <time>2017-03-29T10:49:45Z</time>
      </trkpt>
      <trkpt lat="45.9932" lon="4.7548">
        <ele>174</ele>
        <time>2017-03-29T10:49:46Z</time>
      </trkpt>
      <trkpt lat="45.99316" lon="4.75485">
        <ele>175</ele>
        <time>2017-03-29T10:49:47Z</time>
      </trkpt>
      <trkpt lat="45.99312" lon="4.75491">
        <ele>175</ele>
        <time>2017-03-29T10:49:48Z</time>
      </trkpt>
      <trkpt lat="45.99308" lon="4.75497">
        <ele>174</ele>
        <time>2017-03-29T10:49:49Z</time>
      </trkpt>
      <trkpt lat="45.99304" lon="4.75502">
        <ele>177</ele>
        <time>2017-03-29T10:49:50Z</time>
      </trkpt>
      <trkpt lat="45.993" lon="4.75508">
        <ele>177</ele>
        <time>2017-03-29T10:49:51Z</time>
      </trkpt>
      <trkpt lat="45.99296" lon="4.75513">
        <ele>177</ele>
        <time>2017-03-29T10:49:52Z</time>
      </trkpt>
      <trkpt lat="45.99292" lon="4.75519">
        <ele>177</ele>
        <time>2017-03-29T10:49:53Z</time>
      </trkpt>
      <trkpt lat="45.99288" lon="4.75525">
        <ele>176</ele>
        <time>2017-03-29T10:49:54Z</time>
      </trkpt>
      <trkpt lat="45.99283" lon="4.75529">
        <ele>176</ele>
        <time>2017-03-29T10:49:55Z</time>
      </trkpt>
      <trkpt lat="45.99278" lon="4.75533">
        <ele>176</ele>
        <time>2017-03-29T10:49:56Z</time>
      </trkpt>
      <trkpt lat="45.99273" lon="4.75537">
        <ele>176</ele>
        <time>2017-03-29T10:49:57Z</time>
      </trkpt>
      <trkpt lat="45.99268" lon="4.75541">
        <ele>176</ele>
        <time>2017-03-29T10:49:58Z</time>
      </trkpt>
      <trkpt lat="45.99263" lon="4.75544">
        <ele>176</ele>
        <time>2017-03-29T10:49:59Z</time>
      </trkpt>
      <trkpt lat="45.99258" lon="4.75547">
        <ele>176</ele>
        <time>2017-03-29T10:50:00Z</time>
      </trkpt>
      <trkpt lat="45.99253" lon="4.7555">
        <ele>177</ele>
        <time>2017-03-29T10:50:01Z</time>
      </trkpt>
      <trkpt lat="45.99249" lon="4.75554">
        <ele>175</ele>
        <time>2017-03-29T10:50:02Z</time>
      </trkpt>
      <trkpt lat="45.99244" lon="4.75557">
        <ele>175</ele>
        <time>2017-03-29T10:50:03Z</time>
      </trkpt>
      <trkpt lat="45.9924" lon="4.7556">
        <ele>175</ele>
        <time>2017-03-29T10:50:04Z</time>
      </trkpt>
      <trkpt lat="45.99235" lon="4.75563">
        <ele>175</ele>
        <time>2017-03-29T10:50:05Z</time>
      </trkpt>
      <trkpt lat="45.9923" lon="4.75566">
        <ele>175</ele>
        <time>2017-03-29T10:50:06Z</time>
      </trkpt>
      <trkpt lat="45.99225" lon="4.75569">
        <ele>175</ele>
        <time>2017-03-29T10:50:07Z</time>
      </trkpt>
      <trkpt lat="45.9922" lon="4.75572">
        <ele>175</ele>
        <time>2017-03-29T10:50:08Z</time>
      </trkpt>
      <trkpt lat="45.99216" lon="4.75575">
        <ele>175</ele>
        <time>2017-03-29T10:50:09Z</time>
      </trkpt>
      <trkpt lat="45.99212" lon="4.75578">
        <ele>175</ele>
        <time>2017-03-29T10:50:10Z</time>
      </trkpt>
      <trkpt lat="45.99207" lon="4.75582">
        <ele>175</ele>
        <time>2017-03-29T10:50:11Z</time>
      </trkpt>
      <trkpt lat="45.99203" lon="4.75585">
        <ele>178</ele>
        <time>2017-03-29T10:50:12Z</time>
      </trkpt>
      <trkpt lat="45.99198" lon="4.75588">
        <ele>178</ele>
        <time>2017-03-29T10:50:13Z</time>
      </trkpt>
      <trkpt lat="45.99193" lon="4.75591">
        <ele>178</ele>
        <time>2017-03-29T10:50:14Z</time>
      </trkpt>
      <trkpt lat="45.99188" lon="4.75594">
        <ele>177</ele>
        <time>2017-03-29T10:50:15Z</time>
      </trkpt>
      <trkpt lat="45.99184" lon="4.75597">
        <ele>177</ele>
        <time>2017-03-29T10:50:16Z</time>
      </trkpt>
      <trkpt lat="45.99179" lon="4.75599">
        <ele>177</ele>
        <time>2017-03-29T10:50:17Z</time>
      </trkpt>
      <trkpt lat="45.99174" lon="4.75601">
        <ele>177</ele>
        <time>2017-03-29T10:50:18Z</time>
      </trkpt>
      <trkpt lat="45.99169" lon="4.75603">
        <ele>177</ele>
        <time>2017-03-29T10:50:19Z</time>
      </trkpt>
      <trkpt lat="45.99164" lon="4.75605">
        <ele>176</ele>
        <time>2017-03-29T10:50:20Z</time>
      </trkpt>
      <trkpt lat="45.99159" lon="4.75607">
        <ele>176</ele>
        <time>2017-03-29T10:50:21Z</time>
      </trkpt>
      <trkpt lat="45.99154" lon="4.75608">
        <ele>176</ele>
        <time>2017-03-29T10:50:22Z</time>
      </trkpt>
      <trkpt lat="45.99149" lon="4.75608">
        <ele>176</ele>
        <time>2017-03-29T10:50:23Z</time>
      </trkpt>
      <trkpt lat="45.99144" lon="4.75607">
        <ele>176</ele>
        <time>2017-03-29T10:50:24Z</time>
      </trkpt>
      <trkpt lat="45.99139" lon="4.75607">
        <ele>176</ele>
        <time>2017-03-29T10:50:25Z</time>
      </trkpt>
      <trkpt lat="45.99133" lon="4.75609">
        <ele>176</ele>
        <time>2017-03-29T10:50:26Z</time>
      </trkpt>
      <trkpt lat="45.99128" lon="4.75613">
        <ele>177</ele>
        <time>2017-03-29T10:50:27Z</time>
      </trkpt>
      <trkpt lat="45.99124" lon="4.75618">
        <ele>177</ele>
        <time>2017-03-29T10:50:28Z</time>
      </trkpt>
      <trkpt lat="45.9912" lon="4.75624">
        <ele>177</ele>
        <time>2017-03-29T10:50:29Z</time>
      </trkpt>
      <trkpt lat="45.99118" lon="4.7563">
        <ele>177</ele>
        <time>2017-03-29T10:50:30Z</time>
      </trkpt>
      <trkpt lat="45.99114" lon="4.75634">
        <ele>177</ele>
        <time>2017-03-29T10:50:31Z</time>
      </trkpt>
      <trkpt lat="45.9911" lon="4.7564">
        <ele>178</ele>
        <time>2017-03-29T10:50:32Z</time>
      </trkpt>
      <trkpt lat="45.99106" lon="4.75645">
        <ele>178</ele>
        <time>2017-03-29T10:50:33Z</time>
      </trkpt>
      <trkpt lat="45.99102" lon="4.7565">
        <ele>178</ele>
        <time>2017-03-29T10:50:34Z</time>
      </trkpt>
      <trkpt lat="45.99097" lon="4.75654">
        <ele>178</ele>
        <time>2017-03-29T10:50:35Z</time>
      </trkpt>
      <trkpt lat="45.99091" lon="4.75656">
        <ele>179</ele>
        <time>2017-03-29T10:50:36Z</time>
      </trkpt>
      <trkpt lat="45.99086" lon="4.75657">
        <ele>179</ele>
        <time>2017-03-29T10:50:37Z</time>
      </trkpt>
      <trkpt lat="45.9908" lon="4.75658">
        <ele>179</ele>
        <time>2017-03-29T10:50:38Z</time>
      </trkpt>
      <trkpt lat="45.99075" lon="4.75659">
        <ele>179</ele>
        <time>2017-03-29T10:50:39Z</time>
      </trkpt>
      <trkpt lat="45.99069" lon="4.75659">
        <ele>178</ele>
        <time>2017-03-29T10:50:40Z</time>
      </trkpt>
      <trkpt lat="45.99062" lon="4.75659">
        <ele>178</ele>
        <time>2017-03-29T10:50:41Z</time>
      </trkpt>
      <trkpt lat="45.99056" lon="4.75659">
        <ele>178</ele>
        <time>2017-03-29T10:50:42Z</time>
      </trkpt>
      <trkpt lat="45.9905" lon="4.75659">
        <ele>178</ele>
        <time>2017-03-29T10:50:43Z</time>
      </trkpt>
      <trkpt lat="45.99044" lon="4.75659">
        <ele>178</ele>
        <time>2017-03-29T10:50:44Z</time>
      </trkpt>
      <trkpt lat="45.99038" lon="4.75658">
        <ele>178</ele>
        <time>2017-03-29T10:50:45Z</time>
      </trkpt>
      <trkpt lat="45.99032" lon="4.75657">
        <ele>178</ele>
        <time>2017-03-29T10:50:46Z</time>
      </trkpt>
      <trkpt lat="45.99026" lon="4.75657">
        <ele>178</ele>
        <time>2017-03-29T10:50:47Z</time>
      </trkpt>
      <trkpt lat="45.9902" lon="4.75656">
        <ele>178</ele>
        <time>2017-03-29T10:50:48Z</time>
      </trkpt>
      <trkpt lat="45.99014" lon="4.75657">
        <ele>178</ele>
        <time>2017-03-29T10:50:49Z</time>
      </trkpt>
      <trkpt lat="45.99008" lon="4.75657">
        <ele>179</ele>
        <time>2017-03-29T10:50:50Z</time>
      </trkpt>
      <trkpt lat="45.99002" lon="4.75657">
        <ele>179</ele>
        <time>2017-03-29T10:50:51Z</time>
      </trkpt>
      <trkpt lat="45.98995" lon="4.75658">
        <ele>179</ele>
        <time>2017-03-29T10:50:52Z</time>
      </trkpt>
      <trkpt lat="45.98989" lon="4.75658">
        <ele>178</ele>
        <time>2017-03-29T10:50:53Z</time>
      </trkpt>
      <trkpt lat="45.98983" lon="4.75658">
        <ele>178</ele>
        <time>2017-03-29T10:50:54Z</time>
      </trkpt>
      <trkpt lat="45.98977" lon="4.75659">
        <ele>177</ele>
        <time>2017-03-29T10:50:55Z</time>
      </trkpt>
      <trkpt lat="45.98971" lon="4.75661">
        <ele>177</ele>
        <time>2017-03-29T10:50:56Z</time>
      </trkpt>
      <trkpt lat="45.98965" lon="4.75662">
        <ele>177</ele>
        <time>2017-03-29T10:50:57Z</time>
      </trkpt>
      <trkpt lat="45.98959" lon="4.75664">
        <ele>177</ele>
        <time>2017-03-29T10:50:58Z</time>
      </trkpt>
      <trkpt lat="45.98953" lon="4.75666">
        <ele>177</ele>
        <time>2017-03-29T10:50:59Z</time>
      </trkpt>
      <trkpt lat="45.98947" lon="4.75668">
        <ele>181</ele>
        <time>2017-03-29T10:51:00Z</time>
      </trkpt>
      <trkpt lat="45.98941" lon="4.75671">
        <ele>180</ele>
        <time>2017-03-29T10:51:01Z</time>
      </trkpt>
      <trkpt lat="45.98935" lon="4.75674">
        <ele>180</ele>
        <time>2017-03-29T10:51:02Z</time>
      </trkpt>
      <trkpt lat="45.9893" lon="4.75677">
        <ele>180</ele>
        <time>2017-03-29T10:51:03Z</time>
      </trkpt>
      <trkpt lat="45.98924" lon="4.75679">
        <ele>179</ele>
        <time>2017-03-29T10:51:04Z</time>
      </trkpt>
      <trkpt lat="45.98918" lon="4.75681">
        <ele>179</ele>
        <time>2017-03-29T10:51:05Z</time>
      </trkpt>
      <trkpt lat="45.98912" lon="4.75685">
        <ele>179</ele>
        <time>2017-03-29T10:51:06Z</time>
      </trkpt>
      <trkpt lat="45.98905" lon="4.75687">
        <ele>179</ele>
        <time>2017-03-29T10:51:07Z</time>
      </trkpt>
      <trkpt lat="45.98899" lon="4.75691">
        <ele>179</ele>
        <time>2017-03-29T10:51:08Z</time>
      </trkpt>
      <trkpt lat="45.98893" lon="4.75695">
        <ele>180</ele>
        <time>2017-03-29T10:51:09Z</time>
      </trkpt>
      <trkpt lat="45.98887" lon="4.75698">
        <ele>180</ele>
        <time>2017-03-29T10:51:10Z</time>
      </trkpt>
      <trkpt lat="45.98881" lon="4.75701">
        <ele>180</ele>
        <time>2017-03-29T10:51:11Z</time>
      </trkpt>
      <trkpt lat="45.98875" lon="4.75703">
        <ele>180</ele>
        <time>2017-03-29T10:51:12Z</time>
      </trkpt>
      <trkpt lat="45.98869" lon="4.75705">
        <ele>180</ele>
        <time>2017-03-29T10:51:13Z</time>
      </trkpt>
      <trkpt lat="45.98864" lon="4.75707">
        <ele>180</ele>
        <time>2017-03-29T10:51:14Z</time>
      </trkpt>
      <trkpt lat="45.98858" lon="4.75708">
        <ele>180</ele>
        <time>2017-03-29T10:51:15Z</time>
      </trkpt>
      <trkpt lat="45.98852" lon="4.75709">
        <ele>180</ele>
        <time>2017-03-29T10:51:16Z</time>
      </trkpt>
      <trkpt lat="45.98847" lon="4.7571">
        <ele>180</ele>
        <time>2017-03-29T10:51:17Z</time>
      </trkpt>
      <trkpt lat="45.98841" lon="4.75712">
        <ele>180</ele>
        <time>2017-03-29T10:51:18Z</time>
      </trkpt>
      <trkpt lat="45.98836" lon="4.75712">
        <ele>180</ele>
        <time>2017-03-29T10:51:19Z</time>
      </trkpt>
      <trkpt lat="45.98831" lon="4.75712">
        <ele>179</ele>
        <time>2017-03-29T10:51:20Z</time>
      </trkpt>
      <trkpt lat="45.98826" lon="4.75712">
        <ele>179</ele>
        <time>2017-03-29T10:51:21Z</time>
      </trkpt>
      <trkpt lat="45.98817" lon="4.75711">
        <ele>179</ele>
        <time>2017-03-29T10:51:23Z</time>
      </trkpt>
      <trkpt lat="45.98813" lon="4.75712">
        <ele>179</ele>
        <time>2017-03-29T10:51:24Z</time>
      </trkpt>
      <trkpt lat="45.98806" lon="4.75712">
        <ele>178</ele>
        <time>2017-03-29T10:51:26Z</time>
      </trkpt>
      <trkpt lat="45.98802" lon="4.75713">
        <ele>178</ele>
        <time>2017-03-29T10:51:27Z</time>
      </trkpt>
      <trkpt lat="45.98794" lon="4.75715">
        <ele>178</ele>
        <time>2017-03-29T10:51:29Z</time>
      </trkpt>
      <trkpt lat="45.98789" lon="4.75716">
        <ele>178</ele>
        <time>2017-03-29T10:51:30Z</time>
      </trkpt>
      <trkpt lat="45.98781" lon="4.75715">
        <ele>178</ele>
        <time>2017-03-29T10:51:32Z</time>
      </trkpt>
      <trkpt lat="45.98777" lon="4.75714">
        <ele>178</ele>
        <time>2017-03-29T10:51:33Z</time>
      </trkpt>
      <trkpt lat="45.98768" lon="4.75714">
        <ele>178</ele>
        <time>2017-03-29T10:51:35Z</time>
      </trkpt>
      <trkpt lat="45.98764" lon="4.75717">
        <ele>178</ele>
        <time>2017-03-29T10:51:36Z</time>
      </trkpt>
      <trkpt lat="45.98759" lon="4.7572">
        <ele>178</ele>
        <time>2017-03-29T10:51:37Z</time>
      </trkpt>
      <trkpt lat="45.98755" lon="4.75724">
        <ele>178</ele>
        <time>2017-03-29T10:51:38Z</time>
      </trkpt>
      <trkpt lat="45.98749" lon="4.75726">
        <ele>177</ele>
        <time>2017-03-29T10:51:39Z</time>
      </trkpt>
      <trkpt lat="45.98744" lon="4.75725">
        <ele>177</ele>
        <time>2017-03-29T10:51:40Z</time>
      </trkpt>
      <trkpt lat="45.98738" lon="4.75724">
        <ele>177</ele>
        <time>2017-03-29T10:51:41Z</time>
      </trkpt>
      <trkpt lat="45.98732" lon="4.75723">
        <ele>177</ele>
        <time>2017-03-29T10:51:42Z</time>
      </trkpt>
      <trkpt lat="45.98726" lon="4.75724">
        <ele>177</ele>
        <time>2017-03-29T10:51:43Z</time>
      </trkpt>
      <trkpt lat="45.9872" lon="4.75725">
        <ele>177</ele>
        <time>2017-03-29T10:51:44Z</time>
      </trkpt>
      <trkpt lat="45.98714" lon="4.75725">
        <ele>177</ele>
        <time>2017-03-29T10:51:45Z</time>
      </trkpt>
      <trkpt lat="45.98709" lon="4.75726">
        <ele>177</ele>
        <time>2017-03-29T10:51:46Z</time>
      </trkpt>
      <trkpt lat="45.98703" lon="4.75726">
        <ele>177</ele>
        <time>2017-03-29T10:51:47Z</time>
      </trkpt>
      <trkpt lat="45.98696" lon="4.75726">
        <ele>177</ele>
        <time>2017-03-29T10:51:48Z</time>
      </trkpt>
      <trkpt lat="45.9869" lon="4.75727">
        <ele>177</ele>
        <time>2017-03-29T10:51:49Z</time>
      </trkpt>
      <trkpt lat="45.98683" lon="4.75728">
        <ele>177</ele>
        <time>2017-03-29T10:51:50Z</time>
      </trkpt>
      <trkpt lat="45.98677" lon="4.75728">
        <ele>177</ele>
        <time>2017-03-29T10:51:51Z</time>
      </trkpt>
      <trkpt lat="45.98671" lon="4.75729">
        <ele>177</ele>
        <time>2017-03-29T10:51:52Z</time>
      </trkpt>
      <trkpt lat="45.98665" lon="4.75728">
        <ele>176</ele>
        <time>2017-03-29T10:51:53Z</time>
      </trkpt>
      <trkpt lat="45.98658" lon="4.75728">
        <ele>176</ele>
        <time>2017-03-29T10:51:54Z</time>
      </trkpt>
      <trkpt lat="45.98651" lon="4.75726">
        <ele>176</ele>
        <time>2017-03-29T10:51:55Z</time>
      </trkpt>
      <trkpt lat="45.98645" lon="4.75727">
        <ele>175</ele>
        <time>2017-03-29T10:51:56Z</time>
      </trkpt>
      <trkpt lat="45.98639" lon="4.75727">
        <ele>175</ele>
        <time>2017-03-29T10:51:57Z</time>
      </trkpt>
      <trkpt lat="45.98633" lon="4.75728">
        <ele>175</ele>
        <time>2017-03-29T10:51:58Z</time>
      </trkpt>
      <trkpt lat="45.98628" lon="4.75728">
        <ele>175</ele>
        <time>2017-03-29T10:51:59Z</time>
      </trkpt>
      <trkpt lat="45.98623" lon="4.75729">
        <ele>175</ele>
        <time>2017-03-29T10:52:00Z</time>
      </trkpt>
      <trkpt lat="45.98616" lon="4.7573">
        <ele>175</ele>
        <time>2017-03-29T10:52:02Z</time>
      </trkpt>
      <trkpt lat="45.98613" lon="4.75729">
        <ele>175</ele>
        <time>2017-03-29T10:52:03Z</time>
      </trkpt>
      <trkpt lat="45.98606" lon="4.75729">
        <ele>174</ele>
        <time>2017-03-29T10:52:05Z</time>
      </trkpt>
      <trkpt lat="45.98602" lon="4.7573">
        <ele>174</ele>
        <time>2017-03-29T10:52:06Z</time>
      </trkpt>
      <trkpt lat="45.98594" lon="4.75729">
        <ele>174</ele>
        <time>2017-03-29T10:52:09Z</time>
      </trkpt>
      <trkpt lat="45.9859" lon="4.75727">
        <ele>174</ele>
        <time>2017-03-29T10:52:10Z</time>
      </trkpt>
      <trkpt lat="45.98584" lon="4.75726">
        <ele>174</ele>
        <time>2017-03-29T10:52:11Z</time>
      </trkpt>
      <trkpt lat="45.98578" lon="4.75725">
        <ele>174</ele>
        <time>2017-03-29T10:52:12Z</time>
      </trkpt>
      <trkpt lat="45.9857" lon="4.75724">
        <ele>174</ele>
        <time>2017-03-29T10:52:13Z</time>
      </trkpt>
      <trkpt lat="45.98564" lon="4.75723">
        <ele>174</ele>
        <time>2017-03-29T10:52:14Z</time>
      </trkpt>
      <trkpt lat="45.98557" lon="4.75722">
        <ele>174</ele>
        <time>2017-03-29T10:52:15Z</time>
      </trkpt>
      <trkpt lat="45.98552" lon="4.75721">
        <ele>174</ele>
        <time>2017-03-29T10:52:16Z</time>
      </trkpt>
      <trkpt lat="45.98547" lon="4.7572">
        <ele>174</ele>
        <time>2017-03-29T10:52:17Z</time>
      </trkpt>
      <trkpt lat="45.98541" lon="4.7572">
        <ele>174</ele>
        <time>2017-03-29T10:52:18Z</time>
      </trkpt>
      <trkpt lat="45.98535" lon="4.75719">
        <ele>174</ele>
        <time>2017-03-29T10:52:19Z</time>
      </trkpt>
      <trkpt lat="45.98529" lon="4.75718">
        <ele>174</ele>
        <time>2017-03-29T10:52:20Z</time>
      </trkpt>
      <trkpt lat="45.98524" lon="4.75717">
        <ele>174</ele>
        <time>2017-03-29T10:52:21Z</time>
      </trkpt>
      <trkpt lat="45.98519" lon="4.75716">
        <ele>174</ele>
        <time>2017-03-29T10:52:22Z</time>
      </trkpt>
      <trkpt lat="45.98514" lon="4.75715">
        <ele>174</ele>
        <time>2017-03-29T10:52:23Z</time>
      </trkpt>
      <trkpt lat="45.98509" lon="4.75714">
        <ele>174</ele>
        <time>2017-03-29T10:52:24Z</time>
      </trkpt>
      <trkpt lat="45.98501" lon="4.75711">
        <ele>174</ele>
        <time>2017-03-29T10:52:26Z</time>
      </trkpt>
      <trkpt lat="45.98497" lon="4.7571">
        <ele>175</ele>
        <time>2017-03-29T10:52:27Z</time>
      </trkpt>
      <trkpt lat="45.98488" lon="4.75707">
        <ele>174</ele>
        <time>2017-03-29T10:52:29Z</time>
      </trkpt>
      <trkpt lat="45.98483" lon="4.75706">
        <ele>174</ele>
        <time>2017-03-29T10:52:30Z</time>
      </trkpt>
      <trkpt lat="45.98478" lon="4.75705">
        <ele>174</ele>
        <time>2017-03-29T10:52:31Z</time>
      </trkpt>
      <trkpt lat="45.98472" lon="4.75704">
        <ele>174</ele>
        <time>2017-03-29T10:52:32Z</time>
      </trkpt>
      <trkpt lat="45.98467" lon="4.75702">
        <ele>174</ele>
        <time>2017-03-29T10:52:33Z</time>
      </trkpt>
      <trkpt lat="45.98461" lon="4.757">
        <ele>174</ele>
        <time>2017-03-29T10:52:34Z</time>
      </trkpt>
      <trkpt lat="45.98455" lon="4.75699">
        <ele>175</ele>
        <time>2017-03-29T10:52:35Z</time>
      </trkpt>
      <trkpt lat="45.9845" lon="4.75698">
        <ele>175</ele>
        <time>2017-03-29T10:52:36Z</time>
      </trkpt>
      <trkpt lat="45.98444" lon="4.75697">
        <ele>175</ele>
        <time>2017-03-29T10:52:37Z</time>
      </trkpt>
      <trkpt lat="45.98439" lon="4.75696">
        <ele>175</ele>
        <time>2017-03-29T10:52:38Z</time>
      </trkpt>
      <trkpt lat="45.98434" lon="4.75696">
        <ele>175</ele>
        <time>2017-03-29T10:52:39Z</time>
      </trkpt>
      <trkpt lat="45.98429" lon="4.75694">
        <ele>175</ele>
        <time>2017-03-29T10:52:40Z</time>
      </trkpt>
      <trkpt lat="45.98422" lon="4.75692">
        <ele>175</ele>
        <time>2017-03-29T10:52:41Z</time>
      </trkpt>
      <trkpt lat="45.98415" lon="4.75691">
        <ele>175</ele>
        <time>2017-03-29T10:52:42Z</time>
      </trkpt>
      <trkpt lat="45.98409" lon="4.75689">
        <ele>175</ele>
        <time>2017-03-29T10:52:43Z</time>
      </trkpt>
      <trkpt lat="45.98402" lon="4.75688">
        <ele>174</ele>
        <time>2017-03-29T10:52:44Z</time>
      </trkpt>
      <trkpt lat="45.98395" lon="4.75686">
        <ele>174</ele>
        <time>2017-03-29T10:52:45Z</time>
      </trkpt>
      <trkpt lat="45.98389" lon="4.75683">
        <ele>174</ele>
        <time>2017-03-29T10:52:46Z</time>
      </trkpt>
      <trkpt lat="45.98383" lon="4.75681">
        <ele>174</ele>
        <time>2017-03-29T10:52:47Z</time>
      </trkpt>
      <trkpt lat="45.98379" lon="4.75679">
        <ele>174</ele>
        <time>2017-03-29T10:52:48Z</time>
      </trkpt>
      <trkpt lat="45.98371" lon="4.75683">
        <ele>174</ele>
        <time>2017-03-29T10:52:50Z</time>
      </trkpt>
      <trkpt lat="45.98367" lon="4.75684">
        <ele>174</ele>
        <time>2017-03-29T10:52:51Z</time>
      </trkpt>
      <trkpt lat="45.98362" lon="4.75683">
        <ele>174</ele>
        <time>2017-03-29T10:52:52Z</time>
      </trkpt>
      <trkpt lat="45.98356" lon="4.75684">
        <ele>174</ele>
        <time>2017-03-29T10:52:53Z</time>
      </trkpt>
      <trkpt lat="45.9835" lon="4.75683">
        <ele>174</ele>
        <time>2017-03-29T10:52:54Z</time>
      </trkpt>
      <trkpt lat="45.98343" lon="4.75682">
        <ele>174</ele>
        <time>2017-03-29T10:52:55Z</time>
      </trkpt>
      <trkpt lat="45.98336" lon="4.75682">
        <ele>174</ele>
        <time>2017-03-29T10:52:56Z</time>
      </trkpt>
      <trkpt lat="45.98329" lon="4.75681">
        <ele>174</ele>
        <time>2017-03-29T10:52:57Z</time>
      </trkpt>
      <trkpt lat="45.98323" lon="4.7568">
        <ele>174</ele>
        <time>2017-03-29T10:52:58Z</time>
      </trkpt>
      <trkpt lat="45.98317" lon="4.75679">
        <ele>174</ele>
        <time>2017-03-29T10:52:59Z</time>
      </trkpt>
      <trkpt lat="45.98311" lon="4.75678">
        <ele>174</ele>
        <time>2017-03-29T10:53:00Z</time>
      </trkpt>
      <trkpt lat="45.98305" lon="4.75677">
        <ele>174</ele>
        <time>2017-03-29T10:53:01Z</time>
      </trkpt>
      <trkpt lat="45.983" lon="4.75676">
        <ele>174</ele>
        <time>2017-03-29T10:53:02Z</time>
      </trkpt>
      <trkpt lat="45.98295" lon="4.75675">
        <ele>174</ele>
        <time>2017-03-29T10:53:03Z</time>
      </trkpt>
      <trkpt lat="45.98289" lon="4.75675">
        <ele>174</ele>
        <time>2017-03-29T10:53:04Z</time>
      </trkpt>
      <trkpt lat="45.98283" lon="4.75675">
        <ele>174</ele>
        <time>2017-03-29T10:53:05Z</time>
      </trkpt>
      <trkpt lat="45.98277" lon="4.75675">
        <ele>174</ele>
        <time>2017-03-29T10:53:06Z</time>
      </trkpt>
      <trkpt lat="45.98271" lon="4.75675">
        <ele>173</ele>
        <time>2017-03-29T10:53:07Z</time>
      </trkpt>
      <trkpt lat="45.98265" lon="4.75675">
        <ele>173</ele>
        <time>2017-03-29T10:53:08Z</time>
      </trkpt>
      <trkpt lat="45.98259" lon="4.75675">
        <ele>173</ele>
        <time>2017-03-29T10:53:09Z</time>
      </trkpt>
      <trkpt lat="45.98253" lon="4.75675">
        <ele>173</ele>
        <time>2017-03-29T10:53:10Z</time>
      </trkpt>
      <trkpt lat="45.98246" lon="4.75675">
        <ele>173</ele>
        <time>2017-03-29T10:53:11Z</time>
      </trkpt>
      <trkpt lat="45.9824" lon="4.75676">
        <ele>173</ele>
        <time>2017-03-29T10:53:12Z</time>
      </trkpt>
      <trkpt lat="45.98234" lon="4.75678">
        <ele>174</ele>
        <time>2017-03-29T10:53:13Z</time>
      </trkpt>
      <trkpt lat="45.98229" lon="4.7568">
        <ele>174</ele>
        <time>2017-03-29T10:53:14Z</time>
      </trkpt>
      <trkpt lat="45.98223" lon="4.75682">
        <ele>174</ele>
        <time>2017-03-29T10:53:15Z</time>
      </trkpt>
      <trkpt lat="45.98217" lon="4.75683">
        <ele>174</ele>
        <time>2017-03-29T10:53:16Z</time>
      </trkpt>
      <trkpt lat="45.9821" lon="4.75684">
        <ele>174</ele>
        <time>2017-03-29T10:53:17Z</time>
      </trkpt>
      <trkpt lat="45.98204" lon="4.75685">
        <ele>174</ele>
        <time>2017-03-29T10:53:18Z</time>
      </trkpt>
      <trkpt lat="45.98199" lon="4.75686">
        <ele>174</ele>
        <time>2017-03-29T10:53:19Z</time>
      </trkpt>
      <trkpt lat="45.98193" lon="4.75686">
        <ele>174</ele>
        <time>2017-03-29T10:53:20Z</time>
      </trkpt>
      <trkpt lat="45.98187" lon="4.75687">
        <ele>174</ele>
        <time>2017-03-29T10:53:21Z</time>
      </trkpt>
      <trkpt lat="45.98182" lon="4.75687">
        <ele>174</ele>
        <time>2017-03-29T10:53:22Z</time>
      </trkpt>
      <trkpt lat="45.98177" lon="4.75687">
        <ele>174</ele>
        <time>2017-03-29T10:53:23Z</time>
      </trkpt>
      <trkpt lat="45.98172" lon="4.75688">
        <ele>174</ele>
        <time>2017-03-29T10:53:24Z</time>
      </trkpt>
      <trkpt lat="45.98166" lon="4.75689">
        <ele>174</ele>
        <time>2017-03-29T10:53:25Z</time>
      </trkpt>
      <trkpt lat="45.98161" lon="4.75689">
        <ele>174</ele>
        <time>2017-03-29T10:53:26Z</time>
      </trkpt>
      <trkpt lat="45.98155" lon="4.75689">
        <ele>174</ele>
        <time>2017-03-29T10:53:27Z</time>
      </trkpt>
      <trkpt lat="45.98148" lon="4.75689">
        <ele>174</ele>
        <time>2017-03-29T10:53:28Z</time>
      </trkpt>
      <trkpt lat="45.98141" lon="4.75689">
        <ele>174</ele>
        <time>2017-03-29T10:53:29Z</time>
      </trkpt>
      <trkpt lat="45.98135" lon="4.7569">
        <ele>174</ele>
        <time>2017-03-29T10:53:30Z</time>
      </trkpt>
      <trkpt lat="45.98129" lon="4.75691">
        <ele>174</ele>
        <time>2017-03-29T10:53:31Z</time>
      </trkpt>
      <trkpt lat="45.98122" lon="4.75691">
        <ele>174</ele>
        <time>2017-03-29T10:53:32Z</time>
      </trkpt>
      <trkpt lat="45.98115" lon="4.75691">
        <ele>174</ele>
        <time>2017-03-29T10:53:33Z</time>
      </trkpt>
      <trkpt lat="45.98109" lon="4.75692">
        <ele>174</ele>
        <time>2017-03-29T10:53:34Z</time>
      </trkpt>
      <trkpt lat="45.98103" lon="4.75692">
        <ele>174</ele>
        <time>2017-03-29T10:53:35Z</time>
      </trkpt>
      <trkpt lat="45.98097" lon="4.75693">
        <ele>174</ele>
        <time>2017-03-29T10:53:36Z</time>
      </trkpt>
      <trkpt lat="45.98091" lon="4.75693">
        <ele>174</ele>
        <time>2017-03-29T10:53:37Z</time>
      </trkpt>
      <trkpt lat="45.98086" lon="4.75693">
        <ele>174</ele>
        <time>2017-03-29T10:53:38Z</time>
      </trkpt>
      <trkpt lat="45.9808" lon="4.75693">
        <ele>173</ele>
        <time>2017-03-29T10:53:39Z</time>
      </trkpt>
      <trkpt lat="45.98074" lon="4.75694">
        <ele>174</ele>
        <time>2017-03-29T10:53:40Z</time>
      </trkpt>
      <trkpt lat="45.98068" lon="4.75694">
        <ele>174</ele>
        <time>2017-03-29T10:53:41Z</time>
      </trkpt>
      <trkpt lat="45.98062" lon="4.75695">
        <ele>174</ele>
        <time>2017-03-29T10:53:42Z</time>
      </trkpt>
      <trkpt lat="45.98056" lon="4.75696">
        <ele>174</ele>
        <time>2017-03-29T10:53:43Z</time>
      </trkpt>
      <trkpt lat="45.9805" lon="4.75697">
        <ele>174</ele>
        <time>2017-03-29T10:53:44Z</time>
      </trkpt>
      <trkpt lat="45.98045" lon="4.75699">
        <ele>174</ele>
        <time>2017-03-29T10:53:45Z</time>
      </trkpt>
      <trkpt lat="45.98039" lon="4.757">
        <ele>174</ele>
        <time>2017-03-29T10:53:46Z</time>
      </trkpt>
      <trkpt lat="45.98033" lon="4.75702">
        <ele>174</ele>
        <time>2017-03-29T10:53:47Z</time>
      </trkpt>
      <trkpt lat="45.98028" lon="4.75703">
        <ele>174</ele>
        <time>2017-03-29T10:53:48Z</time>
      </trkpt>
      <trkpt lat="45.98022" lon="4.75705">
        <ele>174</ele>
        <time>2017-03-29T10:53:49Z</time>
      </trkpt>
      <trkpt lat="45.98017" lon="4.75707">
        <ele>174</ele>
        <time>2017-03-29T10:53:50Z</time>
      </trkpt>
      <trkpt lat="45.98012" lon="4.75709">
        <ele>174</ele>
        <time>2017-03-29T10:53:51Z</time>
      </trkpt>
      <trkpt lat="45.98007" lon="4.75711">
        <ele>174</ele>
        <time>2017-03-29T10:53:52Z</time>
      </trkpt>
      <trkpt lat="45.98002" lon="4.75713">
        <ele>174</ele>
        <time>2017-03-29T10:53:53Z</time>
      </trkpt>
      <trkpt lat="45.97997" lon="4.75715">
        <ele>174</ele>
        <time>2017-03-29T10:53:54Z</time>
      </trkpt>
      <trkpt lat="45.97992" lon="4.75716">
        <ele>174</ele>
        <time>2017-03-29T10:53:55Z</time>
      </trkpt>
      <trkpt lat="45.97987" lon="4.75718">
        <ele>174</ele>
        <time>2017-03-29T10:53:56Z</time>
      </trkpt>
      <trkpt lat="45.97983" lon="4.75719">
        <ele>174</ele>
        <time>2017-03-29T10:53:57Z</time>
      </trkpt>
      <trkpt lat="45.97978" lon="4.75721">
        <ele>174</ele>
        <time>2017-03-29T10:53:58Z</time>
      </trkpt>
      <trkpt lat="45.97974" lon="4.75723">
        <ele>174</ele>
        <time>2017-03-29T10:53:59Z</time>
      </trkpt>
      <trkpt lat="45.97969" lon="4.75724">
        <ele>174</ele>
        <time>2017-03-29T10:54:00Z</time>
      </trkpt>
      <trkpt lat="45.97964" lon="4.75724">
        <ele>174</ele>
        <time>2017-03-29T10:54:01Z</time>
      </trkpt>
      <trkpt lat="45.97959" lon="4.75724">
        <ele>174</ele>
        <time>2017-03-29T10:54:02Z</time>
      </trkpt>
      <trkpt lat="45.97953" lon="4.75722">
        <ele>174</ele>
        <time>2017-03-29T10:54:03Z</time>
      </trkpt>
      <trkpt lat="45.97948" lon="4.7572">
        <ele>174</ele>
        <time>2017-03-29T10:54:04Z</time>
      </trkpt>
      <trkpt lat="45.97942" lon="4.75718">
        <ele>174</ele>
        <time>2017-03-29T10:54:05Z</time>
      </trkpt>
      <trkpt lat="45.97935" lon="4.75714">
        <ele>174</ele>
        <time>2017-03-29T10:54:06Z</time>
      </trkpt>
      <trkpt lat="45.97929" lon="4.75711">
        <ele>174</ele>
        <time>2017-03-29T10:54:07Z</time>
      </trkpt>
      <trkpt lat="45.97923" lon="4.75707">
        <ele>174</ele>
        <time>2017-03-29T10:54:08Z</time>
      </trkpt>
      <trkpt lat="45.97917" lon="4.75703">
        <ele>174</ele>
        <time>2017-03-29T10:54:09Z</time>
      </trkpt>
      <trkpt lat="45.97911" lon="4.75699">
        <ele>175</ele>
        <time>2017-03-29T10:54:10Z</time>
      </trkpt>
      <trkpt lat="45.97905" lon="4.75696">
        <ele>175</ele>
        <time>2017-03-29T10:54:11Z</time>
      </trkpt>
      <trkpt lat="45.97899" lon="4.75692">
        <ele>175</ele>
        <time>2017-03-29T10:54:12Z</time>
      </trkpt>
      <trkpt lat="45.97893" lon="4.7569">
        <ele>175</ele>
        <time>2017-03-29T10:54:13Z</time>
      </trkpt>
      <trkpt lat="45.97887" lon="4.75686">
        <ele>175</ele>
        <time>2017-03-29T10:54:14Z</time>
      </trkpt>
      <trkpt lat="45.97881" lon="4.75683">
        <ele>175</ele>
        <time>2017-03-29T10:54:15Z</time>
      </trkpt>
      <trkpt lat="45.97876" lon="4.7568">
        <ele>175</ele>
        <time>2017-03-29T10:54:16Z</time>
      </trkpt>
      <trkpt lat="45.9787" lon="4.75678">
        <ele>175</ele>
        <time>2017-03-29T10:54:17Z</time>
      </trkpt>
      <trkpt lat="45.97863" lon="4.75676">
        <ele>175</ele>
        <time>2017-03-29T10:54:18Z</time>
      </trkpt>
      <trkpt lat="45.97856" lon="4.75675">
        <ele>175</ele>
        <time>2017-03-29T10:54:19Z</time>
      </trkpt>
      <trkpt lat="45.97849" lon="4.75673">
        <ele>175</ele>
        <time>2017-03-29T10:54:20Z</time>
      </trkpt>
      <trkpt lat="45.97843" lon="4.75672">
        <ele>175</ele>
        <time>2017-03-29T10:54:21Z</time>
      </trkpt>
      <trkpt lat="45.97836" lon="4.75671">
        <ele>175</ele>
        <time>2017-03-29T10:54:22Z</time>
      </trkpt>
      <trkpt lat="45.97829" lon="4.7567">
        <ele>175</ele>
        <time>2017-03-29T10:54:23Z</time>
      </trkpt>
      <trkpt lat="45.97823" lon="4.75669">
        <ele>175</ele>
        <time>2017-03-29T10:54:24Z</time>
      </trkpt>
      <trkpt lat="45.97816" lon="4.75668">
        <ele>175</ele>
        <time>2017-03-29T10:54:25Z</time>
      </trkpt>
      <trkpt lat="45.9781" lon="4.75667">
        <ele>175</ele>
        <time>2017-03-29T10:54:26Z</time>
      </trkpt>
      <trkpt lat="45.97804" lon="4.75666">
        <ele>173</ele>
        <time>2017-03-29T10:54:27Z</time>
      </trkpt>
      <trkpt lat="45.97797" lon="4.75665">
        <ele>172</ele>
        <time>2017-03-29T10:54:28Z</time>
      </trkpt>
      <trkpt lat="45.9779" lon="4.75664">
        <ele>172</ele>
        <time>2017-03-29T10:54:29Z</time>
      </trkpt>
      <trkpt lat="45.97784" lon="4.75664">
        <ele>172</ele>
        <time>2017-03-29T10:54:30Z</time>
      </trkpt>
      <trkpt lat="45.97777" lon="4.75664">
        <ele>172</ele>
        <time>2017-03-29T10:54:31Z</time>
      </trkpt>
      <trkpt lat="45.9777" lon="4.75664">
        <ele>172</ele>
        <time>2017-03-29T10:54:32Z</time>
      </trkpt>
      <trkpt lat="45.97762" lon="4.75664">
        <ele>172</ele>
        <time>2017-03-29T10:54:33Z</time>
      </trkpt>
      <trkpt lat="45.97755" lon="4.75664">
        <ele>172</ele>
        <time>2017-03-29T10:54:34Z</time>
      </trkpt>
      <trkpt lat="45.97747" lon="4.75664">
        <ele>172</ele>
        <time>2017-03-29T10:54:35Z</time>
      </trkpt>
      <trkpt lat="45.9774" lon="4.75664">
        <ele>172</ele>
        <time>2017-03-29T10:54:36Z</time>
      </trkpt>
      <trkpt lat="45.97734" lon="4.75664">
        <ele>171</ele>
        <time>2017-03-29T10:54:37Z</time>
      </trkpt>
      <trkpt lat="45.97727" lon="4.75664">
        <ele>171</ele>
        <time>2017-03-29T10:54:38Z</time>
      </trkpt>
      <trkpt lat="45.97721" lon="4.75664">
        <ele>171</ele>
        <time>2017-03-29T10:54:39Z</time>
      </trkpt>
      <trkpt lat="45.97715" lon="4.75664">
        <ele>171</ele>
        <time>2017-03-29T10:54:40Z</time>
      </trkpt>
      <trkpt lat="45.97709" lon="4.75663">
        <ele>171</ele>
        <time>2017-03-29T10:54:41Z</time>
      </trkpt>
      <trkpt lat="45.97703" lon="4.75663">
        <ele>171</ele>
        <time>2017-03-29T10:54:42Z</time>
      </trkpt>
      <trkpt lat="45.97698" lon="4.75663">
        <ele>170</ele>
        <time>2017-03-29T10:54:43Z</time>
      </trkpt>
      <trkpt lat="45.97692" lon="4.75663">
        <ele>170</ele>
        <time>2017-03-29T10:54:44Z</time>
      </trkpt>
      <trkpt lat="45.97686" lon="4.75663">
        <ele>170</ele>
        <time>2017-03-29T10:54:45Z</time>
      </trkpt>
      <trkpt lat="45.9768" lon="4.75663">
        <ele>170</ele>
        <time>2017-03-29T10:54:46Z</time>
      </trkpt>
      <trkpt lat="45.97674" lon="4.75663">
        <ele>170</ele>
        <time>2017-03-29T10:54:47Z</time>
      </trkpt>
      <trkpt lat="45.97668" lon="4.75663">
        <ele>169</ele>
        <time>2017-03-29T10:54:48Z</time>
      </trkpt>
      <trkpt lat="45.97662" lon="4.75664">
        <ele>169</ele>
        <time>2017-03-29T10:54:49Z</time>
      </trkpt>
      <trkpt lat="45.97654" lon="4.75664">
        <ele>169</ele>
        <time>2017-03-29T10:54:50Z</time>
      </trkpt>
      <trkpt lat="45.97647" lon="4.75665">
        <ele>169</ele>
        <time>2017-03-29T10:54:51Z</time>
      </trkpt>
      <trkpt lat="45.97641" lon="4.75665">
        <ele>170</ele>
        <time>2017-03-29T10:54:52Z</time>
      </trkpt>
      <trkpt lat="45.97635" lon="4.75665">
        <ele>170</ele>
        <time>2017-03-29T10:54:53Z</time>
      </trkpt>
      <trkpt lat="45.97628" lon="4.75666">
        <ele>170</ele>
        <time>2017-03-29T10:54:54Z</time>
      </trkpt>
      <trkpt lat="45.97622" lon="4.75666">
        <ele>170</ele>
        <time>2017-03-29T10:54:55Z</time>
      </trkpt>
      <trkpt lat="45.97616" lon="4.75668">
        <ele>171</ele>
        <time>2017-03-29T10:54:56Z</time>
      </trkpt>
      <trkpt lat="45.97611" lon="4.7567">
        <ele>171</ele>
        <time>2017-03-29T10:54:57Z</time>
      </trkpt>
      <trkpt lat="45.97605" lon="4.75673">
        <ele>171</ele>
        <time>2017-03-29T10:54:58Z</time>
      </trkpt>
      <trkpt lat="45.976" lon="4.75676">
        <ele>171</ele>
        <time>2017-03-29T10:54:59Z</time>
      </trkpt>
      <trkpt lat="45.97594" lon="4.75679">
        <ele>171</ele>
        <time>2017-03-29T10:55:00Z</time>
      </trkpt>
      <trkpt lat="45.97589" lon="4.75681">
        <ele>171</ele>
        <time>2017-03-29T10:55:01Z</time>
      </trkpt>
      <trkpt lat="45.97582" lon="4.75681">
        <ele>171</ele>
        <time>2017-03-29T10:55:03Z</time>
      </trkpt>
      <trkpt lat="45.9758" lon="4.75678">
        <ele>171</ele>
        <time>2017-03-29T10:55:04Z</time>
      </trkpt>
      <trkpt lat="45.97577" lon="4.75669">
        <ele>171</ele>
        <time>2017-03-29T10:55:07Z</time>
      </trkpt>
      <trkpt lat="45.97576" lon="4.75666">
        <ele>170</ele>
        <time>2017-03-29T10:55:08Z</time>
      </trkpt>
      <trkpt lat="45.9757" lon="4.7566">
        <ele>170</ele>
        <time>2017-03-29T10:55:10Z</time>
      </trkpt>
      <trkpt lat="45.97567" lon="4.75658">
        <ele>170</ele>
        <time>2017-03-29T10:55:11Z</time>
      </trkpt>
      <trkpt lat="45.97562" lon="4.75658">
        <ele>169</ele>
        <time>2017-03-29T10:55:12Z</time>
      </trkpt>
      <trkpt lat="45.97557" lon="4.75659">
        <ele>169</ele>
        <time>2017-03-29T10:55:13Z</time>
      </trkpt>
      <trkpt lat="45.97552" lon="4.75658">
        <ele>169</ele>
        <time>2017-03-29T10:55:14Z</time>
      </trkpt>
      <trkpt lat="45.97547" lon="4.75657">
        <ele>169</ele>
        <time>2017-03-29T10:55:15Z</time>
      </trkpt>
      <trkpt lat="45.97542" lon="4.75655">
        <ele>169</ele>
        <time>2017-03-29T10:55:16Z</time>
      </trkpt>
      <trkpt lat="45.97536" lon="4.75654">
        <ele>169</ele>
        <time>2017-03-29T10:55:17Z</time>
      </trkpt>
      <trkpt lat="45.97531" lon="4.75654">
        <ele>169</ele>
        <time>2017-03-29T10:55:18Z</time>
      </trkpt>
      <trkpt lat="45.97525" lon="4.75656">
        <ele>169</ele>
        <time>2017-03-29T10:55:19Z</time>
      </trkpt>
      <trkpt lat="45.9752" lon="4.7566">
        <ele>169</ele>
        <time>2017-03-29T10:55:20Z</time>
      </trkpt>
      <trkpt lat="45.97515" lon="4.75663">
        <ele>169</ele>
        <time>2017-03-29T10:55:21Z</time>
      </trkpt>
      <trkpt lat="45.9751" lon="4.75665">
        <ele>169</ele>
        <time>2017-03-29T10:55:22Z</time>
      </trkpt>
      <trkpt lat="45.97504" lon="4.75667">
        <ele>170</ele>
        <time>2017-03-29T10:55:23Z</time>
      </trkpt>
      <trkpt lat="45.97499" lon="4.75669">
        <ele>170</ele>
        <time>2017-03-29T10:55:24Z</time>
      </trkpt>
      <trkpt lat="45.97494" lon="4.75671">
        <ele>170</ele>
        <time>2017-03-29T10:55:25Z</time>
      </trkpt>
      <trkpt lat="45.97488" lon="4.75672">
        <ele>170</ele>
        <time>2017-03-29T10:55:26Z</time>
      </trkpt>
      <trkpt lat="45.97483" lon="4.75673">
        <ele>170</ele>
        <time>2017-03-29T10:55:27Z</time>
      </trkpt>
      <trkpt lat="45.97477" lon="4.75674">
        <ele>171</ele>
        <time>2017-03-29T10:55:28Z</time>
      </trkpt>
      <trkpt lat="45.97472" lon="4.75675">
        <ele>171</ele>
        <time>2017-03-29T10:55:29Z</time>
      </trkpt>
      <trkpt lat="45.97466" lon="4.75675">
        <ele>171</ele>
        <time>2017-03-29T10:55:30Z</time>
      </trkpt>
      <trkpt lat="45.97461" lon="4.75675">
        <ele>171</ele>
        <time>2017-03-29T10:55:31Z</time>
      </trkpt>
      <trkpt lat="45.97455" lon="4.75676">
        <ele>170</ele>
        <time>2017-03-29T10:55:32Z</time>
      </trkpt>
      <trkpt lat="45.9745" lon="4.75676">
        <ele>170</ele>
        <time>2017-03-29T10:55:33Z</time>
      </trkpt>
      <trkpt lat="45.97444" lon="4.75676">
        <ele>170</ele>
        <time>2017-03-29T10:55:34Z</time>
      </trkpt>
      <trkpt lat="45.97438" lon="4.75677">
        <ele>170</ele>
        <time>2017-03-29T10:55:35Z</time>
      </trkpt>
      <trkpt lat="45.97433" lon="4.75677">
        <ele>170</ele>
        <time>2017-03-29T10:55:36Z</time>
      </trkpt>
      <trkpt lat="45.97427" lon="4.75677">
        <ele>170</ele>
        <time>2017-03-29T10:55:37Z</time>
      </trkpt>
      <trkpt lat="45.97421" lon="4.75677">
        <ele>170</ele>
        <time>2017-03-29T10:55:38Z</time>
      </trkpt>
      <trkpt lat="45.97415" lon="4.75677">
        <ele>171</ele>
        <time>2017-03-29T10:55:39Z</time>
      </trkpt>
      <trkpt lat="45.97409" lon="4.75677">
        <ele>171</ele>
        <time>2017-03-29T10:55:40Z</time>
      </trkpt>
      <trkpt lat="45.97404" lon="4.75677">
        <ele>171</ele>
        <time>2017-03-29T10:55:41Z</time>
      </trkpt>
      <trkpt lat="45.97398" lon="4.75677">
        <ele>172</ele>
        <time>2017-03-29T10:55:42Z</time>
      </trkpt>
      <trkpt lat="45.97392" lon="4.75677">
        <ele>172</ele>
        <time>2017-03-29T10:55:43Z</time>
      </trkpt>
      <trkpt lat="45.97386" lon="4.75678">
        <ele>173</ele>
        <time>2017-03-29T10:55:44Z</time>
      </trkpt>
      <trkpt lat="45.9738" lon="4.75678">
        <ele>173</ele>
        <time>2017-03-29T10:55:45Z</time>
      </trkpt>
      <trkpt lat="45.97375" lon="4.75679">
        <ele>174</ele>
        <time>2017-03-29T10:55:46Z</time>
      </trkpt>
      <trkpt lat="45.97369" lon="4.75679">
        <ele>174</ele>
        <time>2017-03-29T10:55:47Z</time>
      </trkpt>
      <trkpt lat="45.97364" lon="4.75679">
        <ele>174</ele>
        <time>2017-03-29T10:55:48Z</time>
      </trkpt>
      <trkpt lat="45.97359" lon="4.75678">
        <ele>174</ele>
        <time>2017-03-29T10:55:49Z</time>
      </trkpt>
      <trkpt lat="45.97353" lon="4.75677">
        <ele>175</ele>
        <time>2017-03-29T10:55:50Z</time>
      </trkpt>
      <trkpt lat="45.97348" lon="4.75676">
        <ele>175</ele>
        <time>2017-03-29T10:55:51Z</time>
      </trkpt>
      <trkpt lat="45.97343" lon="4.75676">
        <ele>175</ele>
        <time>2017-03-29T10:55:52Z</time>
      </trkpt>
      <trkpt lat="45.97338" lon="4.75675">
        <ele>175</ele>
        <time>2017-03-29T10:55:53Z</time>
      </trkpt>
      <trkpt lat="45.97332" lon="4.75674">
        <ele>176</ele>
        <time>2017-03-29T10:55:54Z</time>
      </trkpt>
      <trkpt lat="45.97326" lon="4.75674">
        <ele>176</ele>
        <time>2017-03-29T10:55:55Z</time>
      </trkpt>
      <trkpt lat="45.9732" lon="4.75673">
        <ele>176</ele>
        <time>2017-03-29T10:55:56Z</time>
      </trkpt>
      <trkpt lat="45.97314" lon="4.75672">
        <ele>176</ele>
        <time>2017-03-29T10:55:57Z</time>
      </trkpt>
      <trkpt lat="45.97308" lon="4.75671">
        <ele>176</ele>
        <time>2017-03-29T10:55:58Z</time>
      </trkpt>
      <trkpt lat="45.97302" lon="4.7567">
        <ele>176</ele>
        <time>2017-03-29T10:55:59Z</time>
      </trkpt>
      <trkpt lat="45.97297" lon="4.75669">
        <ele>176</ele>
        <time>2017-03-29T10:56:00Z</time>
      </trkpt>
      <trkpt lat="45.97291" lon="4.75667">
        <ele>176</ele>
        <time>2017-03-29T10:56:01Z</time>
      </trkpt>
      <trkpt lat="45.97286" lon="4.75665">
        <ele>172</ele>
        <time>2017-03-29T10:56:02Z</time>
      </trkpt>
      <trkpt lat="45.9728" lon="4.75664">
        <ele>172</ele>
        <time>2017-03-29T10:56:03Z</time>
      </trkpt>
      <trkpt lat="45.97275" lon="4.75663">
        <ele>172</ele>
        <time>2017-03-29T10:56:04Z</time>
      </trkpt>
      <trkpt lat="45.97269" lon="4.75661">
        <ele>172</ele>
        <time>2017-03-29T10:56:05Z</time>
      </trkpt>
      <trkpt lat="45.97263" lon="4.7566">
        <ele>173</ele>
        <time>2017-03-29T10:56:06Z</time>
      </trkpt>
      <trkpt lat="45.97257" lon="4.75658">
        <ele>173</ele>
        <time>2017-03-29T10:56:07Z</time>
      </trkpt>
      <trkpt lat="45.97252" lon="4.75656">
        <ele>173</ele>
        <time>2017-03-29T10:56:08Z</time>
      </trkpt>
      <trkpt lat="45.97247" lon="4.75655">
        <ele>173</ele>
        <time>2017-03-29T10:56:09Z</time>
      </trkpt>
      <trkpt lat="45.97242" lon="4.75653">
        <ele>173</ele>
        <time>2017-03-29T10:56:10Z</time>
      </trkpt>
      <trkpt lat="45.97236" lon="4.75651">
        <ele>173</ele>
        <time>2017-03-29T10:56:11Z</time>
      </trkpt>
      <trkpt lat="45.97231" lon="4.75649">
        <ele>173</ele>
        <time>2017-03-29T10:56:12Z</time>
      </trkpt>
      <trkpt lat="45.97225" lon="4.75648">
        <ele>173</ele>
        <time>2017-03-29T10:56:13Z</time>
      </trkpt>
      <trkpt lat="45.9722" lon="4.75646">
        <ele>173</ele>
        <time>2017-03-29T10:56:14Z</time>
      </trkpt>
      <trkpt lat="45.97214" lon="4.75644">
        <ele>173</ele>
        <time>2017-03-29T10:56:15Z</time>
      </trkpt>
      <trkpt lat="45.97209" lon="4.75643">
        <ele>173</ele>
        <time>2017-03-29T10:56:16Z</time>
      </trkpt>
      <trkpt lat="45.97203" lon="4.75642">
        <ele>173</ele>
        <time>2017-03-29T10:56:17Z</time>
      </trkpt>
      <trkpt lat="45.97197" lon="4.7564">
        <ele>173</ele>
        <time>2017-03-29T10:56:18Z</time>
      </trkpt>
      <trkpt lat="45.97192" lon="4.75638">
        <ele>173</ele>
        <time>2017-03-29T10:56:19Z</time>
      </trkpt>
      <trkpt lat="45.97186" lon="4.75635">
        <ele>174</ele>
        <time>2017-03-29T10:56:20Z</time>
      </trkpt>
      <trkpt lat="45.97181" lon="4.75633">
        <ele>174</ele>
        <time>2017-03-29T10:56:21Z</time>
      </trkpt>
      <trkpt lat="45.97176" lon="4.7563">
        <ele>174</ele>
        <time>2017-03-29T10:56:22Z</time>
      </trkpt>
      <trkpt lat="45.97171" lon="4.75628">
        <ele>174</ele>
        <time>2017-03-29T10:56:23Z</time>
      </trkpt>
      <trkpt lat="45.97165" lon="4.75626">
        <ele>176</ele>
        <time>2017-03-29T10:56:24Z</time>
      </trkpt>
      <trkpt lat="45.9716" lon="4.75623">
        <ele>176</ele>
        <time>2017-03-29T10:56:25Z</time>
      </trkpt>
      <trkpt lat="45.97154" lon="4.7562">
        <ele>176</ele>
        <time>2017-03-29T10:56:26Z</time>
      </trkpt>
      <trkpt lat="45.97149" lon="4.75617">
        <ele>176</ele>
        <time>2017-03-29T10:56:27Z</time>
      </trkpt>
      <trkpt lat="45.97144" lon="4.75614">
        <ele>176</ele>
        <time>2017-03-29T10:56:28Z</time>
      </trkpt>
      <trkpt lat="45.97139" lon="4.75612">
        <ele>176</ele>
        <time>2017-03-29T10:56:29Z</time>
      </trkpt>
      <trkpt lat="45.97134" lon="4.75609">
        <ele>176</ele>
        <time>2017-03-29T10:56:30Z</time>
      </trkpt>
      <trkpt lat="45.97129" lon="4.75605">
        <ele>176</ele>
        <time>2017-03-29T10:56:31Z</time>
      </trkpt>
      <trkpt lat="45.97124" lon="4.75603">
        <ele>176</ele>
        <time>2017-03-29T10:56:32Z</time>
      </trkpt>
      <trkpt lat="45.97118" lon="4.756">
        <ele>176</ele>
        <time>2017-03-29T10:56:33Z</time>
      </trkpt>
      <trkpt lat="45.97113" lon="4.75598">
        <ele>176</ele>
        <time>2017-03-29T10:56:34Z</time>
      </trkpt>
      <trkpt lat="45.97108" lon="4.75595">
        <ele>176</ele>
        <time>2017-03-29T10:56:35Z</time>
      </trkpt>
      <trkpt lat="45.97102" lon="4.75593">
        <ele>176</ele>
        <time>2017-03-29T10:56:36Z</time>
      </trkpt>
      <trkpt lat="45.97096" lon="4.75591">
        <ele>176</ele>
        <time>2017-03-29T10:56:37Z</time>
      </trkpt>
      <trkpt lat="45.97091" lon="4.75588">
        <ele>176</ele>
        <time>2017-03-29T10:56:38Z</time>
      </trkpt>
      <trkpt lat="45.97086" lon="4.75586">
        <ele>175</ele>
        <time>2017-03-29T10:56:39Z</time>
      </trkpt>
      <trkpt lat="45.97081" lon="4.75583">
        <ele>175</ele>
        <time>2017-03-29T10:56:40Z</time>
      </trkpt>
      <trkpt lat="45.97076" lon="4.75581">
        <ele>174</ele>
        <time>2017-03-29T10:56:41Z</time>
      </trkpt>
      <trkpt lat="45.97071" lon="4.75578">
        <ele>174</ele>
        <time>2017-03-29T10:56:42Z</time>
      </trkpt>
      <trkpt lat="45.97066" lon="4.75576">
        <ele>174</ele>
        <time>2017-03-29T10:56:43Z</time>
      </trkpt>
      <trkpt lat="45.97061" lon="4.75575">
        <ele>173</ele>
        <time>2017-03-29T10:56:44Z</time>
      </trkpt>
      <trkpt lat="45.97056" lon="4.75573">
        <ele>173</ele>
        <time>2017-03-29T10:56:45Z</time>
      </trkpt>
      <trkpt lat="45.97051" lon="4.75571">
        <ele>173</ele>
        <time>2017-03-29T10:56:46Z</time>
      </trkpt>
      <trkpt lat="45.97045" lon="4.75568">
        <ele>173</ele>
        <time>2017-03-29T10:56:47Z</time>
      </trkpt>
      <trkpt lat="45.97039" lon="4.75566">
        <ele>173</ele>
        <time>2017-03-29T10:56:48Z</time>
      </trkpt>
      <trkpt lat="45.97034" lon="4.75565">
        <ele>174</ele>
        <time>2017-03-29T10:56:49Z</time>
      </trkpt>
      <trkpt lat="45.97028" lon="4.75562">
        <ele>174</ele>
        <time>2017-03-29T10:56:50Z</time>
      </trkpt>
      <trkpt lat="45.97022" lon="4.7556">
        <ele>174</ele>
        <time>2017-03-29T10:56:51Z</time>
      </trkpt>
      <trkpt lat="45.97016" lon="4.75558">
        <ele>174</ele>
        <time>2017-03-29T10:56:52Z</time>
      </trkpt>
      <trkpt lat="45.9701" lon="4.75555">
        <ele>174</ele>
        <time>2017-03-29T10:56:53Z</time>
      </trkpt>
      <trkpt lat="45.97004" lon="4.75553">
        <ele>174</ele>
        <time>2017-03-29T10:56:54Z</time>
      </trkpt>
      <trkpt lat="45.96998" lon="4.7555">
        <ele>175</ele>
        <time>2017-03-29T10:56:55Z</time>
      </trkpt>
      <trkpt lat="45.96992" lon="4.75547">
        <ele>175</ele>
        <time>2017-03-29T10:56:56Z</time>
      </trkpt>
      <trkpt lat="45.96987" lon="4.75545">
        <ele>175</ele>
        <time>2017-03-29T10:56:57Z</time>
      </trkpt>
      <trkpt lat="45.96981" lon="4.75542">
        <ele>175</ele>
        <time>2017-03-29T10:56:58Z</time>
      </trkpt>
      <trkpt lat="45.96976" lon="4.75541">
        <ele>175</ele>
        <time>2017-03-29T10:56:59Z</time>
      </trkpt>
      <trkpt lat="45.9697" lon="4.75539">
        <ele>174</ele>
        <time>2017-03-29T10:57:00Z</time>
      </trkpt>
      <trkpt lat="45.96965" lon="4.75537">
        <ele>174</ele>
        <time>2017-03-29T10:57:01Z</time>
      </trkpt>
      <trkpt lat="45.9696" lon="4.75535">
        <ele>175</ele>
        <time>2017-03-29T10:57:02Z</time>
      </trkpt>
      <trkpt lat="45.96955" lon="4.75533">
        <ele>175</ele>
        <time>2017-03-29T10:57:03Z</time>
      </trkpt>
      <trkpt lat="45.96949" lon="4.75531">
        <ele>175</ele>
        <time>2017-03-29T10:57:04Z</time>
      </trkpt>
      <trkpt lat="45.96945" lon="4.75529">
        <ele>175</ele>
        <time>2017-03-29T10:57:05Z</time>
      </trkpt>
      <trkpt lat="45.96939" lon="4.75527">
        <ele>175</ele>
        <time>2017-03-29T10:57:06Z</time>
      </trkpt>
      <trkpt lat="45.96934" lon="4.75524">
        <ele>174</ele>
        <time>2017-03-29T10:57:07Z</time>
      </trkpt>
      <trkpt lat="45.96928" lon="4.75523">
        <ele>174</ele>
        <time>2017-03-29T10:57:08Z</time>
      </trkpt>
      <trkpt lat="45.96922" lon="4.75521">
        <ele>174</ele>
        <time>2017-03-29T10:57:09Z</time>
      </trkpt>
      <trkpt lat="45.96917" lon="4.75519">
        <ele>174</ele>
        <time>2017-03-29T10:57:10Z</time>
      </trkpt>
      <trkpt lat="45.96911" lon="4.75518">
        <ele>177</ele>
        <time>2017-03-29T10:57:11Z</time>
      </trkpt>
      <trkpt lat="45.96906" lon="4.75516">
        <ele>177</ele>
        <time>2017-03-29T10:57:12Z</time>
      </trkpt>
      <trkpt lat="45.969" lon="4.75513">
        <ele>177</ele>
        <time>2017-03-29T10:57:13Z</time>
      </trkpt>
      <trkpt lat="45.96894" lon="4.75511">
        <ele>178</ele>
        <time>2017-03-29T10:57:14Z</time>
      </trkpt>
      <trkpt lat="45.96889" lon="4.75509">
        <ele>178</ele>
        <time>2017-03-29T10:57:15Z</time>
      </trkpt>
      <trkpt lat="45.96883" lon="4.75507">
        <ele>178</ele>
        <time>2017-03-29T10:57:16Z</time>
      </trkpt>
      <trkpt lat="45.96877" lon="4.75504">
        <ele>178</ele>
        <time>2017-03-29T10:57:17Z</time>
      </trkpt>
      <trkpt lat="45.96871" lon="4.75502">
        <ele>178</ele>
        <time>2017-03-29T10:57:18Z</time>
      </trkpt>
      <trkpt lat="45.96866" lon="4.755">
        <ele>171</ele>
        <time>2017-03-29T10:57:19Z</time>
      </trkpt>
      <trkpt lat="45.9686" lon="4.75498">
        <ele>172</ele>
        <time>2017-03-29T10:57:20Z</time>
      </trkpt>
      <trkpt lat="45.96854" lon="4.75495">
        <ele>172</ele>
        <time>2017-03-29T10:57:21Z</time>
      </trkpt>
      <trkpt lat="45.96848" lon="4.75494">
        <ele>172</ele>
        <time>2017-03-29T10:57:22Z</time>
      </trkpt>
      <trkpt lat="45.96842" lon="4.75492">
        <ele>172</ele>
        <time>2017-03-29T10:57:23Z</time>
      </trkpt>
      <trkpt lat="45.96836" lon="4.75489">
        <ele>172</ele>
        <time>2017-03-29T10:57:24Z</time>
      </trkpt>
      <trkpt lat="45.9683" lon="4.75487">
        <ele>174</ele>
        <time>2017-03-29T10:57:25Z</time>
      </trkpt>
      <trkpt lat="45.96825" lon="4.75484">
        <ele>174</ele>
        <time>2017-03-29T10:57:26Z</time>
      </trkpt>
      <trkpt lat="45.96819" lon="4.75481">
        <ele>173</ele>
        <time>2017-03-29T10:57:27Z</time>
      </trkpt>
      <trkpt lat="45.96814" lon="4.75479">
        <ele>174</ele>
        <time>2017-03-29T10:57:28Z</time>
      </trkpt>
      <trkpt lat="45.96809" lon="4.75477">
        <ele>174</ele>
        <time>2017-03-29T10:57:29Z</time>
      </trkpt>
      <trkpt lat="45.96803" lon="4.75475">
        <ele>174</ele>
        <time>2017-03-29T10:57:30Z</time>
      </trkpt>
      <trkpt lat="45.96798" lon="4.75473">
        <ele>174</ele>
        <time>2017-03-29T10:57:31Z</time>
      </trkpt>
      <trkpt lat="45.96792" lon="4.75471">
        <ele>174</ele>
        <time>2017-03-29T10:57:32Z</time>
      </trkpt>
      <trkpt lat="45.96787" lon="4.75469">
        <ele>174</ele>
        <time>2017-03-29T10:57:33Z</time>
      </trkpt>
      <trkpt lat="45.96781" lon="4.75466">
        <ele>174</ele>
        <time>2017-03-29T10:57:34Z</time>
      </trkpt>
      <trkpt lat="45.96776" lon="4.75464">
        <ele>174</ele>
        <time>2017-03-29T10:57:35Z</time>
      </trkpt>
      <trkpt lat="45.9677" lon="4.75461">
        <ele>174</ele>
        <time>2017-03-29T10:57:36Z</time>
      </trkpt>
      <trkpt lat="45.96765" lon="4.75458">
        <ele>174</ele>
        <time>2017-03-29T10:57:37Z</time>
      </trkpt>
      <trkpt lat="45.96759" lon="4.75456">
        <ele>174</ele>
        <time>2017-03-29T10:57:38Z</time>
      </trkpt>
      <trkpt lat="45.96753" lon="4.75453">
        <ele>173</ele>
        <time>2017-03-29T10:57:39Z</time>
      </trkpt>
      <trkpt lat="45.96748" lon="4.75449">
        <ele>178</ele>
        <time>2017-03-29T10:57:40Z</time>
      </trkpt>
      <trkpt lat="45.96743" lon="4.75446">
        <ele>178</ele>
        <time>2017-03-29T10:57:41Z</time>
      </trkpt>
      <trkpt lat="45.96737" lon="4.75442">
        <ele>177</ele>
        <time>2017-03-29T10:57:42Z</time>
      </trkpt>
      <trkpt lat="45.96732" lon="4.7544">
        <ele>178</ele>
        <time>2017-03-29T10:57:43Z</time>
      </trkpt>
      <trkpt lat="45.96726" lon="4.75437">
        <ele>178</ele>
        <time>2017-03-29T10:57:44Z</time>
      </trkpt>
      <trkpt lat="45.96721" lon="4.75435">
        <ele>178</ele>
        <time>2017-03-29T10:57:45Z</time>
      </trkpt>
      <trkpt lat="45.96716" lon="4.75433">
        <ele>179</ele>
        <time>2017-03-29T10:57:46Z</time>
      </trkpt>
      <trkpt lat="45.9671" lon="4.7543">
        <ele>179</ele>
        <time>2017-03-29T10:57:47Z</time>
      </trkpt>
      <trkpt lat="45.96705" lon="4.75428">
        <ele>179</ele>
        <time>2017-03-29T10:57:48Z</time>
      </trkpt>
      <trkpt lat="45.967" lon="4.75426">
        <ele>179</ele>
        <time>2017-03-29T10:57:49Z</time>
      </trkpt>
      <trkpt lat="45.96695" lon="4.75425">
        <ele>179</ele>
        <time>2017-03-29T10:57:50Z</time>
      </trkpt>
      <trkpt lat="45.9669" lon="4.75422">
        <ele>179</ele>
        <time>2017-03-29T10:57:51Z</time>
      </trkpt>
      <trkpt lat="45.96685" lon="4.75419">
        <ele>179</ele>
        <time>2017-03-29T10:57:52Z</time>
      </trkpt>
      <trkpt lat="45.9668" lon="4.75416">
        <ele>173</ele>
        <time>2017-03-29T10:57:53Z</time>
      </trkpt>
      <trkpt lat="45.96675" lon="4.75412">
        <ele>174</ele>
        <time>2017-03-29T10:57:54Z</time>
      </trkpt>
      <trkpt lat="45.9667" lon="4.75409">
        <ele>174</ele>
        <time>2017-03-29T10:57:55Z</time>
      </trkpt>
      <trkpt lat="45.96665" lon="4.75405">
        <ele>177</ele>
        <time>2017-03-29T10:57:56Z</time>
      </trkpt>
      <trkpt lat="45.9666" lon="4.75402">
        <ele>178</ele>
        <time>2017-03-29T10:57:57Z</time>
      </trkpt>
      <trkpt lat="45.96655" lon="4.75399">
        <ele>178</ele>
        <time>2017-03-29T10:57:58Z</time>
      </trkpt>
      <trkpt lat="45.96649" lon="4.75396">
        <ele>178</ele>
        <time>2017-03-29T10:57:59Z</time>
      </trkpt>
      <trkpt lat="45.96644" lon="4.75394">
        <ele>179</ele>
        <time>2017-03-29T10:58:00Z</time>
      </trkpt>
      <trkpt lat="45.96639" lon="4.75391">
        <ele>179</ele>
        <time>2017-03-29T10:58:01Z</time>
      </trkpt>
      <trkpt lat="45.96634" lon="4.75388">
        <ele>179</ele>
        <time>2017-03-29T10:58:02Z</time>
      </trkpt>
      <trkpt lat="45.96629" lon="4.75385">
        <ele>180</ele>
        <time>2017-03-29T10:58:03Z</time>
      </trkpt>
      <trkpt lat="45.96624" lon="4.75382">
        <ele>180</ele>
        <time>2017-03-29T10:58:04Z</time>
      </trkpt>
      <trkpt lat="45.96619" lon="4.7538">
        <ele>180</ele>
        <time>2017-03-29T10:58:05Z</time>
      </trkpt>
      <trkpt lat="45.96615" lon="4.75377">
        <ele>180</ele>
        <time>2017-03-29T10:58:06Z</time>
      </trkpt>
      <trkpt lat="45.96611" lon="4.75374">
        <ele>181</ele>
        <time>2017-03-29T10:58:07Z</time>
      </trkpt>
      <trkpt lat="45.96607" lon="4.75371">
        <ele>180</ele>
        <time>2017-03-29T10:58:08Z</time>
      </trkpt>
      <trkpt lat="45.96603" lon="4.75368">
        <ele>180</ele>
        <time>2017-03-29T10:58:09Z</time>
      </trkpt>
      <trkpt lat="45.96598" lon="4.75366">
        <ele>180</ele>
        <time>2017-03-29T10:58:10Z</time>
      </trkpt>
      <trkpt lat="45.96594" lon="4.75363">
        <ele>180</ele>
        <time>2017-03-29T10:58:11Z</time>
      </trkpt>
      <trkpt lat="45.96589" lon="4.75361">
        <ele>179</ele>
        <time>2017-03-29T10:58:12Z</time>
      </trkpt>
      <trkpt lat="45.96585" lon="4.75357">
        <ele>179</ele>
        <time>2017-03-29T10:58:13Z</time>
      </trkpt>
      <trkpt lat="45.9658" lon="4.75355">
        <ele>186</ele>
        <time>2017-03-29T10:58:14Z</time>
      </trkpt>
      <trkpt lat="45.96575" lon="4.75352">
        <ele>186</ele>
        <time>2017-03-29T10:58:15Z</time>
      </trkpt>
      <trkpt lat="45.9657" lon="4.75348">
        <ele>186</ele>
        <time>2017-03-29T10:58:16Z</time>
      </trkpt>
      <trkpt lat="45.96565" lon="4.75346">
        <ele>186</ele>
        <time>2017-03-29T10:58:17Z</time>
      </trkpt>
      <trkpt lat="45.9656" lon="4.75343">
        <ele>187</ele>
        <time>2017-03-29T10:58:18Z</time>
      </trkpt>
      <trkpt lat="45.96555" lon="4.7534">
        <ele>188</ele>
        <time>2017-03-29T10:58:19Z</time>
      </trkpt>
      <trkpt lat="45.9655" lon="4.75337">
        <ele>188</ele>
        <time>2017-03-29T10:58:20Z</time>
      </trkpt>
      <trkpt lat="45.96545" lon="4.75335">
        <ele>189</ele>
        <time>2017-03-29T10:58:21Z</time>
      </trkpt>
      <trkpt lat="45.96541" lon="4.75332">
        <ele>177</ele>
        <time>2017-03-29T10:58:22Z</time>
      </trkpt>
      <trkpt lat="45.96536" lon="4.7533">
        <ele>178</ele>
        <time>2017-03-29T10:58:23Z</time>
      </trkpt>
      <trkpt lat="45.96532" lon="4.75327">
        <ele>178</ele>
        <time>2017-03-29T10:58:24Z</time>
      </trkpt>
      <trkpt lat="45.96527" lon="4.75325">
        <ele>179</ele>
        <time>2017-03-29T10:58:25Z</time>
      </trkpt>
      <trkpt lat="45.96522" lon="4.75323">
        <ele>180</ele>
        <time>2017-03-29T10:58:26Z</time>
      </trkpt>
      <trkpt lat="45.96518" lon="4.75321">
        <ele>180</ele>
        <time>2017-03-29T10:58:27Z</time>
      </trkpt>
      <trkpt lat="45.96513" lon="4.75318">
        <ele>181</ele>
        <time>2017-03-29T10:58:28Z</time>
      </trkpt>
      <trkpt lat="45.96507" lon="4.75315">
        <ele>181</ele>
        <time>2017-03-29T10:58:29Z</time>
      </trkpt>
      <trkpt lat="45.96502" lon="4.75313">
        <ele>180</ele>
        <time>2017-03-29T10:58:30Z</time>
      </trkpt>
      <trkpt lat="45.96498" lon="4.7531">
        <ele>186</ele>
        <time>2017-03-29T10:58:31Z</time>
      </trkpt>
      <trkpt lat="45.96493" lon="4.75308">
        <ele>186</ele>
        <time>2017-03-29T10:58:32Z</time>
      </trkpt>
      <trkpt lat="45.96488" lon="4.75305">
        <ele>186</ele>
        <time>2017-03-29T10:58:33Z</time>
      </trkpt>
      <trkpt lat="45.96483" lon="4.75302">
        <ele>186</ele>
        <time>2017-03-29T10:58:34Z</time>
      </trkpt>
      <trkpt lat="45.96479" lon="4.753">
        <ele>186</ele>
        <time>2017-03-29T10:58:35Z</time>
      </trkpt>
      <trkpt lat="45.96474" lon="4.75298">
        <ele>186</ele>
        <time>2017-03-29T10:58:36Z</time>
      </trkpt>
      <trkpt lat="45.9647" lon="4.75296">
        <ele>186</ele>
        <time>2017-03-29T10:58:37Z</time>
      </trkpt>
      <trkpt lat="45.96466" lon="4.75293">
        <ele>186</ele>
        <time>2017-03-29T10:58:38Z</time>
      </trkpt>
      <trkpt lat="45.96461" lon="4.75289">
        <ele>186</ele>
        <time>2017-03-29T10:58:39Z</time>
      </trkpt>
      <trkpt lat="45.96457" lon="4.75286">
        <ele>186</ele>
        <time>2017-03-29T10:58:40Z</time>
      </trkpt>
      <trkpt lat="45.96452" lon="4.75284">
        <ele>186</ele>
        <time>2017-03-29T10:58:41Z</time>
      </trkpt>
      <trkpt lat="45.96447" lon="4.75282">
        <ele>186</ele>
        <time>2017-03-29T10:58:42Z</time>
      </trkpt>
      <trkpt lat="45.96442" lon="4.75279">
        <ele>186</ele>
        <time>2017-03-29T10:58:43Z</time>
      </trkpt>
      <trkpt lat="45.96438" lon="4.75277">
        <ele>186</ele>
        <time>2017-03-29T10:58:44Z</time>
      </trkpt>
      <trkpt lat="45.96433" lon="4.75274">
        <ele>186</ele>
        <time>2017-03-29T10:58:45Z</time>
      </trkpt>
      <trkpt lat="45.96428" lon="4.7527">
        <ele>185</ele>
        <time>2017-03-29T10:58:46Z</time>
      </trkpt>
      <trkpt lat="45.96423" lon="4.75267">
        <ele>185</ele>
        <time>2017-03-29T10:58:47Z</time>
      </trkpt>
      <trkpt lat="45.96418" lon="4.75264">
        <ele>184</ele>
        <time>2017-03-29T10:58:48Z</time>
      </trkpt>
      <trkpt lat="45.96414" lon="4.75262">
        <ele>188</ele>
        <time>2017-03-29T10:58:49Z</time>
      </trkpt>
      <trkpt lat="45.9641" lon="4.75259">
        <ele>188</ele>
        <time>2017-03-29T10:58:50Z</time>
      </trkpt>
      <trkpt lat="45.96405" lon="4.75257">
        <ele>188</ele>
        <time>2017-03-29T10:58:51Z</time>
      </trkpt>
      <trkpt lat="45.964" lon="4.75254">
        <ele>189</ele>
        <time>2017-03-29T10:58:52Z</time>
      </trkpt>
      <trkpt lat="45.96396" lon="4.75251">
        <ele>190</ele>
        <time>2017-03-29T10:58:53Z</time>
      </trkpt>
      <trkpt lat="45.96391" lon="4.7525">
        <ele>180</ele>
        <time>2017-03-29T10:58:54Z</time>
      </trkpt>
      <trkpt lat="45.96387" lon="4.75248">
        <ele>180</ele>
        <time>2017-03-29T10:58:55Z</time>
      </trkpt>
      <trkpt lat="45.96382" lon="4.75246">
        <ele>180</ele>
        <time>2017-03-29T10:58:56Z</time>
      </trkpt>
      <trkpt lat="45.96378" lon="4.75244">
        <ele>180</ele>
        <time>2017-03-29T10:58:57Z</time>
      </trkpt>
      <trkpt lat="45.96373" lon="4.75243">
        <ele>180</ele>
        <time>2017-03-29T10:58:58Z</time>
      </trkpt>
      <trkpt lat="45.96369" lon="4.75241">
        <ele>180</ele>
        <time>2017-03-29T10:58:59Z</time>
      </trkpt>
      <trkpt lat="45.9636" lon="4.75239">
        <ele>181</ele>
        <time>2017-03-29T10:59:01Z</time>
      </trkpt>
      <trkpt lat="45.96356" lon="4.75237">
        <ele>181</ele>
        <time>2017-03-29T10:59:02Z</time>
      </trkpt>
      <trkpt lat="45.96348" lon="4.75235">
        <ele>182</ele>
        <time>2017-03-29T10:59:04Z</time>
      </trkpt>
      <trkpt lat="45.96344" lon="4.75233">
        <ele>182</ele>
        <time>2017-03-29T10:59:05Z</time>
      </trkpt>
      <trkpt lat="45.9634" lon="4.75231">
        <ele>182</ele>
        <time>2017-03-29T10:59:06Z</time>
      </trkpt>
      <trkpt lat="45.96335" lon="4.75229">
        <ele>182</ele>
        <time>2017-03-29T10:59:07Z</time>
      </trkpt>
      <trkpt lat="45.96326" lon="4.75226">
        <ele>186</ele>
        <time>2017-03-29T10:59:09Z</time>
      </trkpt>
      <trkpt lat="45.96322" lon="4.75223">
        <ele>185</ele>
        <time>2017-03-29T10:59:10Z</time>
      </trkpt>
      <trkpt lat="45.96317" lon="4.75221">
        <ele>185</ele>
        <time>2017-03-29T10:59:11Z</time>
      </trkpt>
      <trkpt lat="45.96313" lon="4.75218">
        <ele>185</ele>
        <time>2017-03-29T10:59:12Z</time>
      </trkpt>
      <trkpt lat="45.96308" lon="4.75216">
        <ele>185</ele>
        <time>2017-03-29T10:59:13Z</time>
      </trkpt>
      <trkpt lat="45.96303" lon="4.75215">
        <ele>185</ele>
        <time>2017-03-29T10:59:14Z</time>
      </trkpt>
      <trkpt lat="45.96298" lon="4.75212">
        <ele>185</ele>
        <time>2017-03-29T10:59:15Z</time>
      </trkpt>
      <trkpt lat="45.96294" lon="4.75211">
        <ele>185</ele>
        <time>2017-03-29T10:59:16Z</time>
      </trkpt>
      <trkpt lat="45.9629" lon="4.7521">
        <ele>185</ele>
        <time>2017-03-29T10:59:17Z</time>
      </trkpt>
      <trkpt lat="45.96285" lon="4.75208">
        <ele>185</ele>
        <time>2017-03-29T10:59:18Z</time>
      </trkpt>
      <trkpt lat="45.96276" lon="4.75205">
        <ele>185</ele>
        <time>2017-03-29T10:59:20Z</time>
      </trkpt>
      <trkpt lat="45.96272" lon="4.75202">
        <ele>185</ele>
        <time>2017-03-29T10:59:21Z</time>
      </trkpt>
      <trkpt lat="45.96268" lon="4.75201">
        <ele>185</ele>
        <time>2017-03-29T10:59:22Z</time>
      </trkpt>
      <trkpt lat="45.96263" lon="4.75198">
        <ele>185</ele>
        <time>2017-03-29T10:59:23Z</time>
      </trkpt>
      <trkpt lat="45.96255" lon="4.75195">
        <ele>185</ele>
        <time>2017-03-29T10:59:25Z</time>
      </trkpt>
      <trkpt lat="45.96251" lon="4.75193">
        <ele>185</ele>
        <time>2017-03-29T10:59:26Z</time>
      </trkpt>
      <trkpt lat="45.96244" lon="4.75189">
        <ele>190</ele>
        <time>2017-03-29T10:59:28Z</time>
      </trkpt>
      <trkpt lat="45.9624" lon="4.75186">
        <ele>190</ele>
        <time>2017-03-29T10:59:29Z</time>
      </trkpt>
      <trkpt lat="45.96232" lon="4.75183">
        <ele>191</ele>
        <time>2017-03-29T10:59:31Z</time>
      </trkpt>
      <trkpt lat="45.96228" lon="4.7518">
        <ele>191</ele>
        <time>2017-03-29T10:59:32Z</time>
      </trkpt>
      <trkpt lat="45.96221" lon="4.75174">
        <ele>192</ele>
        <time>2017-03-29T10:59:34Z</time>
      </trkpt>
      <trkpt lat="45.96217" lon="4.75171">
        <ele>192</ele>
        <time>2017-03-29T10:59:35Z</time>
      </trkpt>
      <trkpt lat="45.9621" lon="4.75165">
        <ele>184</ele>
        <time>2017-03-29T10:59:37Z</time>
      </trkpt>
      <trkpt lat="45.96207" lon="4.75162">
        <ele>185</ele>
        <time>2017-03-29T10:59:38Z</time>
      </trkpt>
      <trkpt lat="45.96201" lon="4.75157">
        <ele>185</ele>
        <time>2017-03-29T10:59:40Z</time>
      </trkpt>
      <trkpt lat="45.96197" lon="4.75155">
        <ele>185</ele>
        <time>2017-03-29T10:59:41Z</time>
      </trkpt>
      <trkpt lat="45.9619" lon="4.75148">
        <ele>186</ele>
        <time>2017-03-29T10:59:43Z</time>
      </trkpt>
      <trkpt lat="45.96186" lon="4.75145">
        <ele>186</ele>
        <time>2017-03-29T10:59:44Z</time>
      </trkpt>
      <trkpt lat="45.96181" lon="4.75141">
        <ele>186</ele>
        <time>2017-03-29T10:59:45Z</time>
      </trkpt>
      <trkpt lat="45.96177" lon="4.75137">
        <ele>185</ele>
        <time>2017-03-29T10:59:46Z</time>
      </trkpt>
      <trkpt lat="45.96174" lon="4.75133">
        <ele>185</ele>
        <time>2017-03-29T10:59:47Z</time>
      </trkpt>
      <trkpt lat="45.9617" lon="4.75129">
        <ele>184</ele>
        <time>2017-03-29T10:59:48Z</time>
      </trkpt>
      <trkpt lat="45.96163" lon="4.75122">
        <ele>189</ele>
        <time>2017-03-29T10:59:50Z</time>
      </trkpt>
      <trkpt lat="45.96159" lon="4.75119">
        <ele>189</ele>
        <time>2017-03-29T10:59:51Z</time>
      </trkpt>
      <trkpt lat="45.96152" lon="4.75112">
        <ele>188</ele>
        <time>2017-03-29T10:59:53Z</time>
      </trkpt>
      <trkpt lat="45.96149" lon="4.75108">
        <ele>187</ele>
        <time>2017-03-29T10:59:54Z</time>
      </trkpt>
      <trkpt lat="45.96143" lon="4.751">
        <ele>187</ele>
        <time>2017-03-29T10:59:56Z</time>
      </trkpt>
      <trkpt lat="45.96139" lon="4.75096">
        <ele>187</ele>
        <time>2017-03-29T10:59:57Z</time>
      </trkpt>
      <trkpt lat="45.96132" lon="4.75089">
        <ele>188</ele>
        <time>2017-03-29T10:59:59Z</time>
      </trkpt>
      <trkpt lat="45.96129" lon="4.75086">
        <ele>188</ele>
        <time>2017-03-29T11:00:00Z</time>
      </trkpt>
      <trkpt lat="45.96123" lon="4.75077">
        <ele>182</ele>
        <time>2017-03-29T11:00:02Z</time>
      </trkpt>
      <trkpt lat="45.96119" lon="4.75074">
        <ele>182</ele>
        <time>2017-03-29T11:00:03Z</time>
      </trkpt>
      <trkpt lat="45.96112" lon="4.75068">
        <ele>183</ele>
        <time>2017-03-29T11:00:05Z</time>
      </trkpt>
      <trkpt lat="45.96109" lon="4.75065">
        <ele>183</ele>
        <time>2017-03-29T11:00:06Z</time>
      </trkpt>
      <trkpt lat="45.96102" lon="4.75059">
        <ele>183</ele>
        <time>2017-03-29T11:00:08Z</time>
      </trkpt>
      <trkpt lat="45.96098" lon="4.75056">
        <ele>183</ele>
        <time>2017-03-29T11:00:09Z</time>
      </trkpt>
      <trkpt lat="45.96094" lon="4.75053">
        <ele>183</ele>
        <time>2017-03-29T11:00:10Z</time>
      </trkpt>
      <trkpt lat="45.96089" lon="4.75051">
        <ele>183</ele>
        <time>2017-03-29T11:00:11Z</time>
      </trkpt>
      <trkpt lat="45.96084" lon="4.75049">
        <ele>183</ele>
        <time>2017-03-29T11:00:12Z</time>
      </trkpt>
      <trkpt lat="45.96079" lon="4.75047">
        <ele>188</ele>
        <time>2017-03-29T11:00:13Z</time>
      </trkpt>
      <trkpt lat="45.96073" lon="4.75046">
        <ele>188</ele>
        <time>2017-03-29T11:00:14Z</time>
      </trkpt>
      <trkpt lat="45.96067" lon="4.75045">
        <ele>188</ele>
        <time>2017-03-29T11:00:15Z</time>
      </trkpt>
      <trkpt lat="45.96062" lon="4.75044">
        <ele>188</ele>
        <time>2017-03-29T11:00:16Z</time>
      </trkpt>
      <trkpt lat="45.96057" lon="4.75043">
        <ele>188</ele>
        <time>2017-03-29T11:00:17Z</time>
      </trkpt>
      <trkpt lat="45.96053" lon="4.75042">
        <ele>188</ele>
        <time>2017-03-29T11:00:18Z</time>
      </trkpt>
      <trkpt lat="45.96048" lon="4.75042">
        <ele>188</ele>
        <time>2017-03-29T11:00:19Z</time>
      </trkpt>
      <trkpt lat="45.96039" lon="4.75043">
        <ele>189</ele>
        <time>2017-03-29T11:00:21Z</time>
      </trkpt>
      <trkpt lat="45.96035" lon="4.75043">
        <ele>189</ele>
        <time>2017-03-29T11:00:22Z</time>
      </trkpt>
      <trkpt lat="45.96026" lon="4.75045">
        <ele>189</ele>
        <time>2017-03-29T11:00:24Z</time>
      </trkpt>
      <trkpt lat="45.96022" lon="4.75045">
        <ele>189</ele>
        <time>2017-03-29T11:00:25Z</time>
      </trkpt>
      <trkpt lat="45.96013" lon="4.75048">
        <ele>190</ele>
        <time>2017-03-29T11:00:27Z</time>
      </trkpt>
      <trkpt lat="45.96009" lon="4.75049">
        <ele>190</ele>
        <time>2017-03-29T11:00:28Z</time>
      </trkpt>
      <trkpt lat="45.96001" lon="4.75053">
        <ele>190</ele>
        <time>2017-03-29T11:00:30Z</time>
      </trkpt>
      <trkpt lat="45.95997" lon="4.75055">
        <ele>191</ele>
        <time>2017-03-29T11:00:31Z</time>
      </trkpt>
      <trkpt lat="45.95993" lon="4.75057">
        <ele>191</ele>
        <time>2017-03-29T11:00:32Z</time>
      </trkpt>
      <trkpt lat="45.95988" lon="4.75058">
        <ele>191</ele>
        <time>2017-03-29T11:00:33Z</time>
      </trkpt>
      <trkpt lat="45.95982" lon="4.7506">
        <ele>191</ele>
        <time>2017-03-29T11:00:34Z</time>
      </trkpt>
      <trkpt lat="45.95978" lon="4.75062">
        <ele>191</ele>
        <time>2017-03-29T11:00:35Z</time>
      </trkpt>
      <trkpt lat="45.95973" lon="4.75064">
        <ele>191</ele>
        <time>2017-03-29T11:00:36Z</time>
      </trkpt>
      <trkpt lat="45.95968" lon="4.75066">
        <ele>191</ele>
        <time>2017-03-29T11:00:37Z</time>
      </trkpt>
      <trkpt lat="45.9596" lon="4.75069">
        <ele>190</ele>
        <time>2017-03-29T11:00:39Z</time>
      </trkpt>
      <trkpt lat="45.95955" lon="4.75071">
        <ele>190</ele>
        <time>2017-03-29T11:00:40Z</time>
      </trkpt>
      <trkpt lat="45.95951" lon="4.75072">
        <ele>190</ele>
        <time>2017-03-29T11:00:41Z</time>
      </trkpt>
      <trkpt lat="45.95945" lon="4.75074">
        <ele>190</ele>
        <time>2017-03-29T11:00:42Z</time>
      </trkpt>
      <trkpt lat="45.9594" lon="4.75078">
        <ele>190</ele>
        <time>2017-03-29T11:00:43Z</time>
      </trkpt>
      <trkpt lat="45.95935" lon="4.75081">
        <ele>190</ele>
        <time>2017-03-29T11:00:44Z</time>
      </trkpt>
      <trkpt lat="45.9593" lon="4.75083">
        <ele>190</ele>
        <time>2017-03-29T11:00:45Z</time>
      </trkpt>
      <trkpt lat="45.95926" lon="4.75085">
        <ele>191</ele>
        <time>2017-03-29T11:00:46Z</time>
      </trkpt>
      <trkpt lat="45.95921" lon="4.75087">
        <ele>191</ele>
        <time>2017-03-29T11:00:47Z</time>
      </trkpt>
      <trkpt lat="45.95916" lon="4.7509">
        <ele>190</ele>
        <time>2017-03-29T11:00:48Z</time>
      </trkpt>
      <trkpt lat="45.95911" lon="4.75093">
        <ele>190</ele>
        <time>2017-03-29T11:00:49Z</time>
      </trkpt>
      <trkpt lat="45.95907" lon="4.75096">
        <ele>190</ele>
        <time>2017-03-29T11:00:50Z</time>
      </trkpt>
      <trkpt lat="45.95902" lon="4.75099">
        <ele>190</ele>
        <time>2017-03-29T11:00:51Z</time>
      </trkpt>
      <trkpt lat="45.95898" lon="4.75103">
        <ele>190</ele>
        <time>2017-03-29T11:00:52Z</time>
      </trkpt>
      <trkpt lat="45.95894" lon="4.75106">
        <ele>191</ele>
        <time>2017-03-29T11:00:53Z</time>
      </trkpt>
      <trkpt lat="45.9589" lon="4.7511">
        <ele>191</ele>
        <time>2017-03-29T11:00:54Z</time>
      </trkpt>
      <trkpt lat="45.95883" lon="4.75116">
        <ele>191</ele>
        <time>2017-03-29T11:00:56Z</time>
      </trkpt>
      <trkpt lat="45.95879" lon="4.7512">
        <ele>191</ele>
        <time>2017-03-29T11:00:57Z</time>
      </trkpt>
      <trkpt lat="45.95874" lon="4.75124">
        <ele>191</ele>
        <time>2017-03-29T11:00:58Z</time>
      </trkpt>
      <trkpt lat="45.9587" lon="4.75128">
        <ele>191</ele>
        <time>2017-03-29T11:00:59Z</time>
      </trkpt>
      <trkpt lat="45.95866" lon="4.75132">
        <ele>191</ele>
        <time>2017-03-29T11:01:00Z</time>
      </trkpt>
      <trkpt lat="45.95862" lon="4.75137">
        <ele>191</ele>
        <time>2017-03-29T11:01:01Z</time>
      </trkpt>
      <trkpt lat="45.95858" lon="4.75141">
        <ele>191</ele>
        <time>2017-03-29T11:01:02Z</time>
      </trkpt>
      <trkpt lat="45.95854" lon="4.75146">
        <ele>191</ele>
        <time>2017-03-29T11:01:03Z</time>
      </trkpt>
      <trkpt lat="45.9585" lon="4.75151">
        <ele>191</ele>
        <time>2017-03-29T11:01:04Z</time>
      </trkpt>
      <trkpt lat="45.95847" lon="4.75156">
        <ele>191</ele>
        <time>2017-03-29T11:01:05Z</time>
      </trkpt>
      <trkpt lat="45.95843" lon="4.7516">
        <ele>192</ele>
        <time>2017-03-29T11:01:06Z</time>
      </trkpt>
      <trkpt lat="45.9584" lon="4.75165">
        <ele>192</ele>
        <time>2017-03-29T11:01:07Z</time>
      </trkpt>
      <trkpt lat="45.95836" lon="4.75169">
        <ele>192</ele>
        <time>2017-03-29T11:01:08Z</time>
      </trkpt>
      <trkpt lat="45.95832" lon="4.75174">
        <ele>192</ele>
        <time>2017-03-29T11:01:09Z</time>
      </trkpt>
      <trkpt lat="45.95829" lon="4.75179">
        <ele>192</ele>
        <time>2017-03-29T11:01:10Z</time>
      </trkpt>
      <trkpt lat="45.95825" lon="4.75184">
        <ele>192</ele>
        <time>2017-03-29T11:01:11Z</time>
      </trkpt>
      <trkpt lat="45.95822" lon="4.75189">
        <ele>192</ele>
        <time>2017-03-29T11:01:12Z</time>
      </trkpt>
      <trkpt lat="45.95819" lon="4.75193">
        <ele>193</ele>
        <time>2017-03-29T11:01:13Z</time>
      </trkpt>
      <trkpt lat="45.95813" lon="4.75202">
        <ele>193</ele>
        <time>2017-03-29T11:01:15Z</time>
      </trkpt>
      <trkpt lat="45.9581" lon="4.75206">
        <ele>193</ele>
        <time>2017-03-29T11:01:16Z</time>
      </trkpt>
      <trkpt lat="45.95804" lon="4.75215">
        <ele>193</ele>
        <time>2017-03-29T11:01:18Z</time>
      </trkpt>
      <trkpt lat="45.95801" lon="4.75219">
        <ele>193</ele>
        <time>2017-03-29T11:01:19Z</time>
      </trkpt>
      <trkpt lat="45.95795" lon="4.75227">
        <ele>193</ele>
        <time>2017-03-29T11:01:21Z</time>
      </trkpt>
      <trkpt lat="45.95791" lon="4.75232">
        <ele>193</ele>
        <time>2017-03-29T11:01:22Z</time>
      </trkpt>
      <trkpt lat="45.95785" lon="4.75241">
        <ele>193</ele>
        <time>2017-03-29T11:01:24Z</time>
      </trkpt>
      <trkpt lat="45.95781" lon="4.75245">
        <ele>193</ele>
        <time>2017-03-29T11:01:25Z</time>
      </trkpt>
      <trkpt lat="45.95778" lon="4.75249">
        <ele>193</ele>
        <time>2017-03-29T11:01:26Z</time>
      </trkpt>
      <trkpt lat="45.95774" lon="4.75254">
        <ele>193</ele>
        <time>2017-03-29T11:01:27Z</time>
      </trkpt>
      <trkpt lat="45.95771" lon="4.75259">
        <ele>193</ele>
        <time>2017-03-29T11:01:28Z</time>
      </trkpt>
      <trkpt lat="45.95767" lon="4.75263">
        <ele>193</ele>
        <time>2017-03-29T11:01:29Z</time>
      </trkpt>
      <trkpt lat="45.95763" lon="4.75268">
        <ele>193</ele>
        <time>2017-03-29T11:01:30Z</time>
      </trkpt>
      <trkpt lat="45.95759" lon="4.75273">
        <ele>193</ele>
        <time>2017-03-29T11:01:31Z</time>
      </trkpt>
      <trkpt lat="45.95755" lon="4.75278">
        <ele>193</ele>
        <time>2017-03-29T11:01:32Z</time>
      </trkpt>
      <trkpt lat="45.95751" lon="4.75282">
        <ele>193</ele>
        <time>2017-03-29T11:01:33Z</time>
      </trkpt>
      <trkpt lat="45.95747" lon="4.75287">
        <ele>193</ele>
        <time>2017-03-29T11:01:34Z</time>
      </trkpt>
      <trkpt lat="45.95743" lon="4.75292">
        <ele>193</ele>
        <time>2017-03-29T11:01:35Z</time>
      </trkpt>
      <trkpt lat="45.95739" lon="4.75296">
        <ele>193</ele>
        <time>2017-03-29T11:01:36Z</time>
      </trkpt>
      <trkpt lat="45.95735" lon="4.753">
        <ele>193</ele>
        <time>2017-03-29T11:01:37Z</time>
      </trkpt>
      <trkpt lat="45.95732" lon="4.75305">
        <ele>193</ele>
        <time>2017-03-29T11:01:38Z</time>
      </trkpt>
      <trkpt lat="45.95728" lon="4.75309">
        <ele>193</ele>
        <time>2017-03-29T11:01:39Z</time>
      </trkpt>
      <trkpt lat="45.95721" lon="4.75316">
        <ele>193</ele>
        <time>2017-03-29T11:01:41Z</time>
      </trkpt>
      <trkpt lat="45.95717" lon="4.75321">
        <ele>193</ele>
        <time>2017-03-29T11:01:42Z</time>
      </trkpt>
      <trkpt lat="45.95714" lon="4.75325">
        <ele>193</ele>
        <time>2017-03-29T11:01:43Z</time>
      </trkpt>
      <trkpt lat="45.95709" lon="4.75329">
        <ele>193</ele>
        <time>2017-03-29T11:01:44Z</time>
      </trkpt>
      <trkpt lat="45.95705" lon="4.75333">
        <ele>193</ele>
        <time>2017-03-29T11:01:45Z</time>
      </trkpt>
      <trkpt lat="45.95701" lon="4.75338">
        <ele>193</ele>
        <time>2017-03-29T11:01:46Z</time>
      </trkpt>
      <trkpt lat="45.95696" lon="4.75342">
        <ele>193</ele>
        <time>2017-03-29T11:01:47Z</time>
      </trkpt>
      <trkpt lat="45.95692" lon="4.75347">
        <ele>193</ele>
        <time>2017-03-29T11:01:48Z</time>
      </trkpt>
      <trkpt lat="45.95687" lon="4.75351">
        <ele>193</ele>
        <time>2017-03-29T11:01:49Z</time>
      </trkpt>
      <trkpt lat="45.95683" lon="4.75355">
        <ele>193</ele>
        <time>2017-03-29T11:01:50Z</time>
      </trkpt>
      <trkpt lat="45.95678" lon="4.7536">
        <ele>193</ele>
        <time>2017-03-29T11:01:51Z</time>
      </trkpt>
      <trkpt lat="45.95673" lon="4.75364">
        <ele>193</ele>
        <time>2017-03-29T11:01:52Z</time>
      </trkpt>
      <trkpt lat="45.95668" lon="4.75368">
        <ele>193</ele>
        <time>2017-03-29T11:01:53Z</time>
      </trkpt>
      <trkpt lat="45.95663" lon="4.75373">
        <ele>193</ele>
        <time>2017-03-29T11:01:54Z</time>
      </trkpt>
      <trkpt lat="45.95657" lon="4.75378">
        <ele>193</ele>
        <time>2017-03-29T11:01:55Z</time>
      </trkpt>
      <trkpt lat="45.95651" lon="4.75383">
        <ele>193</ele>
        <time>2017-03-29T11:01:56Z</time>
      </trkpt>
      <trkpt lat="45.95645" lon="4.75388">
        <ele>193</ele>
        <time>2017-03-29T11:01:57Z</time>
      </trkpt>
      <trkpt lat="45.9564" lon="4.75393">
        <ele>193</ele>
        <time>2017-03-29T11:01:58Z</time>
      </trkpt>
      <trkpt lat="45.95633" lon="4.75398">
        <ele>193</ele>
        <time>2017-03-29T11:01:59Z</time>
      </trkpt>
      <trkpt lat="45.95627" lon="4.75402">
        <ele>193</ele>
        <time>2017-03-29T11:02:00Z</time>
      </trkpt>
      <trkpt lat="45.9562" lon="4.75406">
        <ele>193</ele>
        <time>2017-03-29T11:02:01Z</time>
      </trkpt>
      <trkpt lat="45.95613" lon="4.7541">
        <ele>193</ele>
        <time>2017-03-29T11:02:02Z</time>
      </trkpt>
      <trkpt lat="45.95606" lon="4.75414">
        <ele>193</ele>
        <time>2017-03-29T11:02:03Z</time>
      </trkpt>
      <trkpt lat="45.95599" lon="4.75419">
        <ele>192</ele>
        <time>2017-03-29T11:02:04Z</time>
      </trkpt>
      <trkpt lat="45.95592" lon="4.75424">
        <ele>192</ele>
        <time>2017-03-29T11:02:05Z</time>
      </trkpt>
      <trkpt lat="45.95585" lon="4.75428">
        <ele>192</ele>
        <time>2017-03-29T11:02:06Z</time>
      </trkpt>
      <trkpt lat="45.95578" lon="4.75432">
        <ele>190</ele>
        <time>2017-03-29T11:02:07Z</time>
      </trkpt>
      <trkpt lat="45.9557" lon="4.75437">
        <ele>189</ele>
        <time>2017-03-29T11:02:08Z</time>
      </trkpt>
      <trkpt lat="45.95562" lon="4.75441">
        <ele>189</ele>
        <time>2017-03-29T11:02:09Z</time>
      </trkpt>
      <trkpt lat="45.95554" lon="4.75444">
        <ele>188</ele>
        <time>2017-03-29T11:02:10Z</time>
      </trkpt>
      <trkpt lat="45.95546" lon="4.75446">
        <ele>188</ele>
        <time>2017-03-29T11:02:11Z</time>
      </trkpt>
      <trkpt lat="45.95538" lon="4.75447">
        <ele>187</ele>
        <time>2017-03-29T11:02:12Z</time>
      </trkpt>
      <trkpt lat="45.95531" lon="4.75445">
        <ele>187</ele>
        <time>2017-03-29T11:02:13Z</time>
      </trkpt>
      <trkpt lat="45.95524" lon="4.75441">
        <ele>187</ele>
        <time>2017-03-29T11:02:14Z</time>
      </trkpt>
      <trkpt lat="45.95518" lon="4.75433">
        <ele>187</ele>
        <time>2017-03-29T11:02:15Z</time>
      </trkpt>
      <trkpt lat="45.95514" lon="4.75425">
        <ele>186</ele>
        <time>2017-03-29T11:02:16Z</time>
      </trkpt>
      <trkpt lat="45.95512" lon="4.75415">
        <ele>187</ele>
        <time>2017-03-29T11:02:17Z</time>
      </trkpt>
      <trkpt lat="45.9551" lon="4.75406">
        <ele>187</ele>
        <time>2017-03-29T11:02:18Z</time>
      </trkpt>
      <trkpt lat="45.95509" lon="4.75397">
        <ele>188</ele>
        <time>2017-03-29T11:02:19Z</time>
      </trkpt>
      <trkpt lat="45.95506" lon="4.75389">
        <ele>188</ele>
        <time>2017-03-29T11:02:20Z</time>
      </trkpt>
      <trkpt lat="45.95504" lon="4.75382">
        <ele>188</ele>
        <time>2017-03-29T11:02:21Z</time>
      </trkpt>
      <trkpt lat="45.95501" lon="4.75376">
        <ele>189</ele>
        <time>2017-03-29T11:02:22Z</time>
      </trkpt>
      <trkpt lat="45.95498" lon="4.7537">
        <ele>186</ele>
        <time>2017-03-29T11:02:23Z</time>
      </trkpt>
      <trkpt lat="45.95494" lon="4.75364">
        <ele>186</ele>
        <time>2017-03-29T11:02:24Z</time>
      </trkpt>
      <trkpt lat="45.95491" lon="4.75358">
        <ele>186</ele>
        <time>2017-03-29T11:02:25Z</time>
      </trkpt>
      <trkpt lat="45.95488" lon="4.75351">
        <ele>186</ele>
        <time>2017-03-29T11:02:26Z</time>
      </trkpt>
      <trkpt lat="45.95484" lon="4.75344">
        <ele>187</ele>
        <time>2017-03-29T11:02:27Z</time>
      </trkpt>
      <trkpt lat="45.95481" lon="4.75337">
        <ele>186</ele>
        <time>2017-03-29T11:02:28Z</time>
      </trkpt>
      <trkpt lat="45.95477" lon="4.75331">
        <ele>188</ele>
        <time>2017-03-29T11:02:29Z</time>
      </trkpt>
      <trkpt lat="45.95473" lon="4.75325">
        <ele>188</ele>
        <time>2017-03-29T11:02:30Z</time>
      </trkpt>
      <trkpt lat="45.9547" lon="4.75319">
        <ele>188</ele>
        <time>2017-03-29T11:02:31Z</time>
      </trkpt>
      <trkpt lat="45.95468" lon="4.75313">
        <ele>188</ele>
        <time>2017-03-29T11:02:32Z</time>
      </trkpt>
      <trkpt lat="45.95465" lon="4.75307">
        <ele>188</ele>
        <time>2017-03-29T11:02:33Z</time>
      </trkpt>
      <trkpt lat="45.95462" lon="4.75301">
        <ele>188</ele>
        <time>2017-03-29T11:02:34Z</time>
      </trkpt>
      <trkpt lat="45.95459" lon="4.75295">
        <ele>188</ele>
        <time>2017-03-29T11:02:35Z</time>
      </trkpt>
      <trkpt lat="45.95455" lon="4.75289">
        <ele>188</ele>
        <time>2017-03-29T11:02:36Z</time>
      </trkpt>
      <trkpt lat="45.95452" lon="4.75283">
        <ele>189</ele>
        <time>2017-03-29T11:02:37Z</time>
      </trkpt>
      <trkpt lat="45.9545" lon="4.75277">
        <ele>189</ele>
        <time>2017-03-29T11:02:38Z</time>
      </trkpt>
      <trkpt lat="45.95447" lon="4.75271">
        <ele>189</ele>
        <time>2017-03-29T11:02:39Z</time>
      </trkpt>
      <trkpt lat="45.95443" lon="4.75265">
        <ele>189</ele>
        <time>2017-03-29T11:02:40Z</time>
      </trkpt>
      <trkpt lat="45.95439" lon="4.75259">
        <ele>189</ele>
        <time>2017-03-29T11:02:41Z</time>
      </trkpt>
      <trkpt lat="45.95436" lon="4.75253">
        <ele>189</ele>
        <time>2017-03-29T11:02:42Z</time>
      </trkpt>
      <trkpt lat="45.95433" lon="4.75247">
        <ele>190</ele>
        <time>2017-03-29T11:02:43Z</time>
      </trkpt>
      <trkpt lat="45.9543" lon="4.7524">
        <ele>190</ele>
        <time>2017-03-29T11:02:44Z</time>
      </trkpt>
      <trkpt lat="45.95426" lon="4.75234">
        <ele>190</ele>
        <time>2017-03-29T11:02:45Z</time>
      </trkpt>
      <trkpt lat="45.95423" lon="4.75228">
        <ele>191</ele>
        <time>2017-03-29T11:02:46Z</time>
      </trkpt>
      <trkpt lat="45.95419" lon="4.75222">
        <ele>191</ele>
        <time>2017-03-29T11:02:47Z</time>
      </trkpt>
      <trkpt lat="45.95416" lon="4.75215">
        <ele>189</ele>
        <time>2017-03-29T11:02:48Z</time>
      </trkpt>
      <trkpt lat="45.95413" lon="4.75209">
        <ele>189</ele>
        <time>2017-03-29T11:02:49Z</time>
      </trkpt>
      <trkpt lat="45.9541" lon="4.75204">
        <ele>189</ele>
        <time>2017-03-29T11:02:50Z</time>
      </trkpt>
      <trkpt lat="45.95407" lon="4.75198">
        <ele>189</ele>
        <time>2017-03-29T11:02:51Z</time>
      </trkpt>
      <trkpt lat="45.95404" lon="4.75193">
        <ele>189</ele>
        <time>2017-03-29T11:02:52Z</time>
      </trkpt>
      <trkpt lat="45.95399" lon="4.75183">
        <ele>189</ele>
        <time>2017-03-29T11:02:54Z</time>
      </trkpt>
      <trkpt lat="45.95395" lon="4.75178">
        <ele>189</ele>
        <time>2017-03-29T11:02:55Z</time>
      </trkpt>
      <trkpt lat="45.95392" lon="4.75173">
        <ele>189</ele>
        <time>2017-03-29T11:02:56Z</time>
      </trkpt>
      <trkpt lat="45.95389" lon="4.75168">
        <ele>189</ele>
        <time>2017-03-29T11:02:57Z</time>
      </trkpt>
      <trkpt lat="45.95383" lon="4.75159">
        <ele>191</ele>
        <time>2017-03-29T11:02:59Z</time>
      </trkpt>
      <trkpt lat="45.95379" lon="4.75154">
        <ele>191</ele>
        <time>2017-03-29T11:03:00Z</time>
      </trkpt>
      <trkpt lat="45.95376" lon="4.75149">
        <ele>191</ele>
        <time>2017-03-29T11:03:01Z</time>
      </trkpt>
      <trkpt lat="45.95372" lon="4.75145">
        <ele>191</ele>
        <time>2017-03-29T11:03:02Z</time>
      </trkpt>
      <trkpt lat="45.95369" lon="4.7514">
        <ele>191</ele>
        <time>2017-03-29T11:03:03Z</time>
      </trkpt>
      <trkpt lat="45.95365" lon="4.75136">
        <ele>191</ele>
        <time>2017-03-29T11:03:04Z</time>
      </trkpt>
      <trkpt lat="45.95362" lon="4.7513">
        <ele>191</ele>
        <time>2017-03-29T11:03:05Z</time>
      </trkpt>
      <trkpt lat="45.9536" lon="4.75125">
        <ele>191</ele>
        <time>2017-03-29T11:03:06Z</time>
      </trkpt>
      <trkpt lat="45.95357" lon="4.75119">
        <ele>191</ele>
        <time>2017-03-29T11:03:07Z</time>
      </trkpt>
      <trkpt lat="45.95354" lon="4.75114">
        <ele>192</ele>
        <time>2017-03-29T11:03:08Z</time>
      </trkpt>
      <trkpt lat="45.9535" lon="4.75108">
        <ele>192</ele>
        <time>2017-03-29T11:03:09Z</time>
      </trkpt>
      <trkpt lat="45.95347" lon="4.75103">
        <ele>192</ele>
        <time>2017-03-29T11:03:10Z</time>
      </trkpt>
      <trkpt lat="45.95343" lon="4.75098">
        <ele>192</ele>
        <time>2017-03-29T11:03:11Z</time>
      </trkpt>
      <trkpt lat="45.95339" lon="4.75092">
        <ele>192</ele>
        <time>2017-03-29T11:03:12Z</time>
      </trkpt>
      <trkpt lat="45.95336" lon="4.75087">
        <ele>193</ele>
        <time>2017-03-29T11:03:13Z</time>
      </trkpt>
      <trkpt lat="45.95332" lon="4.75081">
        <ele>193</ele>
        <time>2017-03-29T11:03:14Z</time>
      </trkpt>
      <trkpt lat="45.95329" lon="4.75076">
        <ele>192</ele>
        <time>2017-03-29T11:03:15Z</time>
      </trkpt>
      <trkpt lat="45.95325" lon="4.75071">
        <ele>192</ele>
        <time>2017-03-29T11:03:16Z</time>
      </trkpt>
      <trkpt lat="45.95322" lon="4.75066">
        <ele>192</ele>
        <time>2017-03-29T11:03:17Z</time>
      </trkpt>
      <trkpt lat="45.95319" lon="4.75061">
        <ele>192</ele>
        <time>2017-03-29T11:03:18Z</time>
      </trkpt>
      <trkpt lat="45.95315" lon="4.75056">
        <ele>192</ele>
        <time>2017-03-29T11:03:19Z</time>
      </trkpt>
      <trkpt lat="45.95312" lon="4.75052">
        <ele>192</ele>
        <time>2017-03-29T11:03:20Z</time>
      </trkpt>
      <trkpt lat="45.95309" lon="4.75047">
        <ele>192</ele>
        <time>2017-03-29T11:03:21Z</time>
      </trkpt>
      <trkpt lat="45.95305" lon="4.75043">
        <ele>192</ele>
        <time>2017-03-29T11:03:22Z</time>
      </trkpt>
      <trkpt lat="45.95302" lon="4.75037">
        <ele>191</ele>
        <time>2017-03-29T11:03:23Z</time>
      </trkpt>
      <trkpt lat="45.95298" lon="4.75032">
        <ele>191</ele>
        <time>2017-03-29T11:03:24Z</time>
      </trkpt>
      <trkpt lat="45.95295" lon="4.75027">
        <ele>191</ele>
        <time>2017-03-29T11:03:25Z</time>
      </trkpt>
      <trkpt lat="45.95291" lon="4.75021">
        <ele>191</ele>
        <time>2017-03-29T11:03:26Z</time>
      </trkpt>
      <trkpt lat="45.95288" lon="4.75016">
        <ele>191</ele>
        <time>2017-03-29T11:03:27Z</time>
      </trkpt>
      <trkpt lat="45.95284" lon="4.75011">
        <ele>191</ele>
        <time>2017-03-29T11:03:28Z</time>
      </trkpt>
      <trkpt lat="45.95281" lon="4.75005">
        <ele>191</ele>
        <time>2017-03-29T11:03:29Z</time>
      </trkpt>
      <trkpt lat="45.95278" lon="4.74999">
        <ele>192</ele>
        <time>2017-03-29T11:03:30Z</time>
      </trkpt>
      <trkpt lat="45.95275" lon="4.74993">
        <ele>192</ele>
        <time>2017-03-29T11:03:31Z</time>
      </trkpt>
      <trkpt lat="45.95271" lon="4.74987">
        <ele>192</ele>
        <time>2017-03-29T11:03:32Z</time>
      </trkpt>
      <trkpt lat="45.95268" lon="4.74981">
        <ele>192</ele>
        <time>2017-03-29T11:03:33Z</time>
      </trkpt>
      <trkpt lat="45.95265" lon="4.74975">
        <ele>192</ele>
        <time>2017-03-29T11:03:34Z</time>
      </trkpt>
      <trkpt lat="45.95261" lon="4.7497">
        <ele>192</ele>
        <time>2017-03-29T11:03:35Z</time>
      </trkpt>
      <trkpt lat="45.95258" lon="4.74964">
        <ele>192</ele>
        <time>2017-03-29T11:03:36Z</time>
      </trkpt>
      <trkpt lat="45.95255" lon="4.74959">
        <ele>192</ele>
        <time>2017-03-29T11:03:37Z</time>
      </trkpt>
      <trkpt lat="45.95252" lon="4.74953">
        <ele>192</ele>
        <time>2017-03-29T11:03:38Z</time>
      </trkpt>
      <trkpt lat="45.95249" lon="4.74948">
        <ele>192</ele>
        <time>2017-03-29T11:03:39Z</time>
      </trkpt>
      <trkpt lat="45.95246" lon="4.74943">
        <ele>192</ele>
        <time>2017-03-29T11:03:40Z</time>
      </trkpt>
      <trkpt lat="45.9524" lon="4.74933">
        <ele>192</ele>
        <time>2017-03-29T11:03:42Z</time>
      </trkpt>
      <trkpt lat="45.95237" lon="4.74928">
        <ele>192</ele>
        <time>2017-03-29T11:03:43Z</time>
      </trkpt>
      <trkpt lat="45.95233" lon="4.74923">
        <ele>192</ele>
        <time>2017-03-29T11:03:44Z</time>
      </trkpt>
      <trkpt lat="45.9523" lon="4.74917">
        <ele>192</ele>
        <time>2017-03-29T11:03:45Z</time>
      </trkpt>
      <trkpt lat="45.95226" lon="4.74911">
        <ele>193</ele>
        <time>2017-03-29T11:03:46Z</time>
      </trkpt>
      <trkpt lat="45.95223" lon="4.74905">
        <ele>193</ele>
        <time>2017-03-29T11:03:47Z</time>
      </trkpt>
      <trkpt lat="45.95219" lon="4.74899">
        <ele>193</ele>
        <time>2017-03-29T11:03:48Z</time>
      </trkpt>
      <trkpt lat="45.95216" lon="4.74893">
        <ele>193</ele>
        <time>2017-03-29T11:03:49Z</time>
      </trkpt>
      <trkpt lat="45.95212" lon="4.74887">
        <ele>193</ele>
        <time>2017-03-29T11:03:50Z</time>
      </trkpt>
      <trkpt lat="45.95209" lon="4.7488">
        <ele>193</ele>
        <time>2017-03-29T11:03:51Z</time>
      </trkpt>
      <trkpt lat="45.95206" lon="4.74874">
        <ele>194</ele>
        <time>2017-03-29T11:03:52Z</time>
      </trkpt>
      <trkpt lat="45.95202" lon="4.74868">
        <ele>194</ele>
        <time>2017-03-29T11:03:53Z</time>
      </trkpt>
      <trkpt lat="45.95198" lon="4.74862">
        <ele>194</ele>
        <time>2017-03-29T11:03:54Z</time>
      </trkpt>
      <trkpt lat="45.95194" lon="4.74856">
        <ele>194</ele>
        <time>2017-03-29T11:03:55Z</time>
      </trkpt>
      <trkpt lat="45.95189" lon="4.74851">
        <ele>194</ele>
        <time>2017-03-29T11:03:56Z</time>
      </trkpt>
      <trkpt lat="45.95186" lon="4.74845">
        <ele>194</ele>
        <time>2017-03-29T11:03:57Z</time>
      </trkpt>
      <trkpt lat="45.95182" lon="4.74839">
        <ele>194</ele>
        <time>2017-03-29T11:03:58Z</time>
      </trkpt>
      <trkpt lat="45.95179" lon="4.74834">
        <ele>194</ele>
        <time>2017-03-29T11:03:59Z</time>
      </trkpt>
      <trkpt lat="45.95175" lon="4.74829">
        <ele>194</ele>
        <time>2017-03-29T11:04:00Z</time>
      </trkpt>
      <trkpt lat="45.95171" lon="4.74823">
        <ele>194</ele>
        <time>2017-03-29T11:04:01Z</time>
      </trkpt>
      <trkpt lat="45.95167" lon="4.74818">
        <ele>194</ele>
        <time>2017-03-29T11:04:02Z</time>
      </trkpt>
      <trkpt lat="45.95163" lon="4.74812">
        <ele>194</ele>
        <time>2017-03-29T11:04:03Z</time>
      </trkpt>
      <trkpt lat="45.95159" lon="4.74807">
        <ele>194</ele>
        <time>2017-03-29T11:04:04Z</time>
      </trkpt>
      <trkpt lat="45.95156" lon="4.74801">
        <ele>194</ele>
        <time>2017-03-29T11:04:05Z</time>
      </trkpt>
      <trkpt lat="45.95152" lon="4.74795">
        <ele>194</ele>
        <time>2017-03-29T11:04:06Z</time>
      </trkpt>
      <trkpt lat="45.95148" lon="4.74789">
        <ele>194</ele>
        <time>2017-03-29T11:04:07Z</time>
      </trkpt>
      <trkpt lat="45.95144" lon="4.74783">
        <ele>194</ele>
        <time>2017-03-29T11:04:08Z</time>
      </trkpt>
      <trkpt lat="45.95141" lon="4.74778">
        <ele>194</ele>
        <time>2017-03-29T11:04:09Z</time>
      </trkpt>
      <trkpt lat="45.95137" lon="4.74772">
        <ele>194</ele>
        <time>2017-03-29T11:04:10Z</time>
      </trkpt>
      <trkpt lat="45.95134" lon="4.74767">
        <ele>194</ele>
        <time>2017-03-29T11:04:11Z</time>
      </trkpt>
      <trkpt lat="45.9513" lon="4.74761">
        <ele>194</ele>
        <time>2017-03-29T11:04:12Z</time>
      </trkpt>
      <trkpt lat="45.95127" lon="4.74756">
        <ele>194</ele>
        <time>2017-03-29T11:04:13Z</time>
      </trkpt>
      <trkpt lat="45.95124" lon="4.74751">
        <ele>194</ele>
        <time>2017-03-29T11:04:14Z</time>
      </trkpt>
      <trkpt lat="45.95121" lon="4.74746">
        <ele>194</ele>
        <time>2017-03-29T11:04:15Z</time>
      </trkpt>
      <trkpt lat="45.95118" lon="4.7474">
        <ele>194</ele>
        <time>2017-03-29T11:04:16Z</time>
      </trkpt>
      <trkpt lat="45.95115" lon="4.74734">
        <ele>194</ele>
        <time>2017-03-29T11:04:17Z</time>
      </trkpt>
      <trkpt lat="45.95112" lon="4.74728">
        <ele>194</ele>
        <time>2017-03-29T11:04:18Z</time>
      </trkpt>
      <trkpt lat="45.95109" lon="4.74722">
        <ele>194</ele>
        <time>2017-03-29T11:04:19Z</time>
      </trkpt>
      <trkpt lat="45.95106" lon="4.74716">
        <ele>194</ele>
        <time>2017-03-29T11:04:20Z</time>
      </trkpt>
      <trkpt lat="45.95103" lon="4.7471">
        <ele>194</ele>
        <time>2017-03-29T11:04:21Z</time>
      </trkpt>
      <trkpt lat="45.951" lon="4.74704">
        <ele>194</ele>
        <time>2017-03-29T11:04:22Z</time>
      </trkpt>
      <trkpt lat="45.95096" lon="4.74699">
        <ele>194</ele>
        <time>2017-03-29T11:04:23Z</time>
      </trkpt>
      <trkpt lat="45.95092" lon="4.74693">
        <ele>194</ele>
        <time>2017-03-29T11:04:24Z</time>
      </trkpt>
      <trkpt lat="45.95088" lon="4.74687">
        <ele>195</ele>
        <time>2017-03-29T11:04:25Z</time>
      </trkpt>
      <trkpt lat="45.95084" lon="4.7468">
        <ele>195</ele>
        <time>2017-03-29T11:04:26Z</time>
      </trkpt>
      <trkpt lat="45.95081" lon="4.74674">
        <ele>195</ele>
        <time>2017-03-29T11:04:27Z</time>
      </trkpt>
      <trkpt lat="45.95078" lon="4.74667">
        <ele>195</ele>
        <time>2017-03-29T11:04:28Z</time>
      </trkpt>
      <trkpt lat="45.95075" lon="4.74661">
        <ele>195</ele>
        <time>2017-03-29T11:04:29Z</time>
      </trkpt>
      <trkpt lat="45.95071" lon="4.74655">
        <ele>195</ele>
        <time>2017-03-29T11:04:30Z</time>
      </trkpt>
      <trkpt lat="45.95068" lon="4.74649">
        <ele>195</ele>
        <time>2017-03-29T11:04:31Z</time>
      </trkpt>
      <trkpt lat="45.95064" lon="4.74643">
        <ele>195</ele>
        <time>2017-03-29T11:04:32Z</time>
      </trkpt>
      <trkpt lat="45.9506" lon="4.74636">
        <ele>194</ele>
        <time>2017-03-29T11:04:33Z</time>
      </trkpt>
      <trkpt lat="45.95056" lon="4.7463">
        <ele>194</ele>
        <time>2017-03-29T11:04:34Z</time>
      </trkpt>
      <trkpt lat="45.95052" lon="4.74623">
        <ele>194</ele>
        <time>2017-03-29T11:04:35Z</time>
      </trkpt>
      <trkpt lat="45.95049" lon="4.74616">
        <ele>194</ele>
        <time>2017-03-29T11:04:36Z</time>
      </trkpt>
      <trkpt lat="45.95045" lon="4.7461">
        <ele>194</ele>
        <time>2017-03-29T11:04:37Z</time>
      </trkpt>
      <trkpt lat="45.95041" lon="4.74603">
        <ele>194</ele>
        <time>2017-03-29T11:04:38Z</time>
      </trkpt>
      <trkpt lat="45.95037" lon="4.74596">
        <ele>194</ele>
        <time>2017-03-29T11:04:39Z</time>
      </trkpt>
      <trkpt lat="45.95034" lon="4.74589">
        <ele>194</ele>
        <time>2017-03-29T11:04:40Z</time>
      </trkpt>
      <trkpt lat="45.9503" lon="4.74582">
        <ele>194</ele>
        <time>2017-03-29T11:04:41Z</time>
      </trkpt>
      <trkpt lat="45.95027" lon="4.74576">
        <ele>194</ele>
        <time>2017-03-29T11:04:42Z</time>
      </trkpt>
      <trkpt lat="45.95023" lon="4.74569">
        <ele>194</ele>
        <time>2017-03-29T11:04:43Z</time>
      </trkpt>
      <trkpt lat="45.9502" lon="4.74562">
        <ele>194</ele>
        <time>2017-03-29T11:04:44Z</time>
      </trkpt>
      <trkpt lat="45.95016" lon="4.74556">
        <ele>194</ele>
        <time>2017-03-29T11:04:45Z</time>
      </trkpt>
      <trkpt lat="45.95013" lon="4.74549">
        <ele>194</ele>
        <time>2017-03-29T11:04:46Z</time>
      </trkpt>
      <trkpt lat="45.95009" lon="4.74542">
        <ele>194</ele>
        <time>2017-03-29T11:04:47Z</time>
      </trkpt>
      <trkpt lat="45.95006" lon="4.74536">
        <ele>194</ele>
        <time>2017-03-29T11:04:48Z</time>
      </trkpt>
      <trkpt lat="45.95002" lon="4.74529">
        <ele>194</ele>
        <time>2017-03-29T11:04:49Z</time>
      </trkpt>
      <trkpt lat="45.94998" lon="4.74522">
        <ele>193</ele>
        <time>2017-03-29T11:04:50Z</time>
      </trkpt>
      <trkpt lat="45.94994" lon="4.74515">
        <ele>193</ele>
        <time>2017-03-29T11:04:51Z</time>
      </trkpt>
      <trkpt lat="45.94991" lon="4.74509">
        <ele>193</ele>
        <time>2017-03-29T11:04:52Z</time>
      </trkpt>
      <trkpt lat="45.94986" lon="4.74502">
        <ele>193</ele>
        <time>2017-03-29T11:04:53Z</time>
      </trkpt>
      <trkpt lat="45.94983" lon="4.74495">
        <ele>193</ele>
        <time>2017-03-29T11:04:54Z</time>
      </trkpt>
      <trkpt lat="45.94979" lon="4.74487">
        <ele>193</ele>
        <time>2017-03-29T11:04:55Z</time>
      </trkpt>
      <trkpt lat="45.94975" lon="4.7448">
        <ele>193</ele>
        <time>2017-03-29T11:04:56Z</time>
      </trkpt>
      <trkpt lat="45.94971" lon="4.74472">
        <ele>193</ele>
        <time>2017-03-29T11:04:57Z</time>
      </trkpt>
      <trkpt lat="45.94967" lon="4.74465">
        <ele>193</ele>
        <time>2017-03-29T11:04:58Z</time>
      </trkpt>
      <trkpt lat="45.94964" lon="4.74457">
        <ele>192</ele>
        <time>2017-03-29T11:04:59Z</time>
      </trkpt>
      <trkpt lat="45.94961" lon="4.7445">
        <ele>192</ele>
        <time>2017-03-29T11:05:00Z</time>
      </trkpt>
      <trkpt lat="45.94957" lon="4.74443">
        <ele>192</ele>
        <time>2017-03-29T11:05:01Z</time>
      </trkpt>
      <trkpt lat="45.94954" lon="4.74435">
        <ele>192</ele>
        <time>2017-03-29T11:05:02Z</time>
      </trkpt>
      <trkpt lat="45.9495" lon="4.74428">
        <ele>192</ele>
        <time>2017-03-29T11:05:03Z</time>
      </trkpt>
      <trkpt lat="45.94946" lon="4.74421">
        <ele>192</ele>
        <time>2017-03-29T11:05:04Z</time>
      </trkpt>
      <trkpt lat="45.94942" lon="4.74413">
        <ele>192</ele>
        <time>2017-03-29T11:05:05Z</time>
      </trkpt>
      <trkpt lat="45.94938" lon="4.74406">
        <ele>192</ele>
        <time>2017-03-29T11:05:06Z</time>
      </trkpt>
      <trkpt lat="45.94933" lon="4.74398">
        <ele>192</ele>
        <time>2017-03-29T11:05:07Z</time>
      </trkpt>
      <trkpt lat="45.94928" lon="4.74391">
        <ele>192</ele>
        <time>2017-03-29T11:05:08Z</time>
      </trkpt>
      <trkpt lat="45.94924" lon="4.74384">
        <ele>192</ele>
        <time>2017-03-29T11:05:09Z</time>
      </trkpt>
      <trkpt lat="45.94919" lon="4.74376">
        <ele>192</ele>
        <time>2017-03-29T11:05:10Z</time>
      </trkpt>
      <trkpt lat="45.94915" lon="4.74369">
        <ele>191</ele>
        <time>2017-03-29T11:05:11Z</time>
      </trkpt>
      <trkpt lat="45.94911" lon="4.74362">
        <ele>191</ele>
        <time>2017-03-29T11:05:12Z</time>
      </trkpt>
      <trkpt lat="45.94907" lon="4.74354">
        <ele>191</ele>
        <time>2017-03-29T11:05:13Z</time>
      </trkpt>
      <trkpt lat="45.94903" lon="4.74347">
        <ele>191</ele>
        <time>2017-03-29T11:05:14Z</time>
      </trkpt>
      <trkpt lat="45.949" lon="4.74339">
        <ele>191</ele>
        <time>2017-03-29T11:05:15Z</time>
      </trkpt>
      <trkpt lat="45.94896" lon="4.74331">
        <ele>191</ele>
        <time>2017-03-29T11:05:16Z</time>
      </trkpt>
      <trkpt lat="45.94893" lon="4.74324">
        <ele>191</ele>
        <time>2017-03-29T11:05:17Z</time>
      </trkpt>
      <trkpt lat="45.94889" lon="4.74316">
        <ele>191</ele>
        <time>2017-03-29T11:05:18Z</time>
      </trkpt>
      <trkpt lat="45.94885" lon="4.74309">
        <ele>191</ele>
        <time>2017-03-29T11:05:19Z</time>
      </trkpt>
      <trkpt lat="45.94882" lon="4.74302">
        <ele>191</ele>
        <time>2017-03-29T11:05:20Z</time>
      </trkpt>
      <trkpt lat="45.94878" lon="4.74295">
        <ele>191</ele>
        <time>2017-03-29T11:05:21Z</time>
      </trkpt>
      <trkpt lat="45.94874" lon="4.74288">
        <ele>191</ele>
        <time>2017-03-29T11:05:22Z</time>
      </trkpt>
      <trkpt lat="45.94871" lon="4.74281">
        <ele>191</ele>
        <time>2017-03-29T11:05:23Z</time>
      </trkpt>
      <trkpt lat="45.94867" lon="4.74274">
        <ele>191</ele>
        <time>2017-03-29T11:05:24Z</time>
      </trkpt>
      <trkpt lat="45.94864" lon="4.74267">
        <ele>190</ele>
        <time>2017-03-29T11:05:25Z</time>
      </trkpt>
      <trkpt lat="45.9486" lon="4.7426">
        <ele>190</ele>
        <time>2017-03-29T11:05:26Z</time>
      </trkpt>
      <trkpt lat="45.94857" lon="4.74253">
        <ele>190</ele>
        <time>2017-03-29T11:05:27Z</time>
      </trkpt>
      <trkpt lat="45.94854" lon="4.74245">
        <ele>190</ele>
        <time>2017-03-29T11:05:28Z</time>
      </trkpt>
      <trkpt lat="45.94851" lon="4.74238">
        <ele>190</ele>
        <time>2017-03-29T11:05:29Z</time>
      </trkpt>
      <trkpt lat="45.94847" lon="4.74231">
        <ele>190</ele>
        <time>2017-03-29T11:05:30Z</time>
      </trkpt>
      <trkpt lat="45.94843" lon="4.74223">
        <ele>190</ele>
        <time>2017-03-29T11:05:31Z</time>
      </trkpt>
      <trkpt lat="45.94838" lon="4.74216">
        <ele>190</ele>
        <time>2017-03-29T11:05:32Z</time>
      </trkpt>
      <trkpt lat="45.94834" lon="4.74208">
        <ele>190</ele>
        <time>2017-03-29T11:05:33Z</time>
      </trkpt>
      <trkpt lat="45.9483" lon="4.74201">
        <ele>189</ele>
        <time>2017-03-29T11:05:34Z</time>
      </trkpt>
      <trkpt lat="45.94825" lon="4.74193">
        <ele>189</ele>
        <time>2017-03-29T11:05:35Z</time>
      </trkpt>
      <trkpt lat="45.94821" lon="4.74185">
        <ele>189</ele>
        <time>2017-03-29T11:05:36Z</time>
      </trkpt>
      <trkpt lat="45.94817" lon="4.74178">
        <ele>189</ele>
        <time>2017-03-29T11:05:37Z</time>
      </trkpt>
      <trkpt lat="45.94813" lon="4.74171">
        <ele>189</ele>
        <time>2017-03-29T11:05:38Z</time>
      </trkpt>
      <trkpt lat="45.94809" lon="4.74164">
        <ele>189</ele>
        <time>2017-03-29T11:05:39Z</time>
      </trkpt>
      <trkpt lat="45.94805" lon="4.74157">
        <ele>189</ele>
        <time>2017-03-29T11:05:40Z</time>
      </trkpt>
      <trkpt lat="45.94801" lon="4.7415">
        <ele>189</ele>
        <time>2017-03-29T11:05:41Z</time>
      </trkpt>
      <trkpt lat="45.94797" lon="4.74143">
        <ele>189</ele>
        <time>2017-03-29T11:05:42Z</time>
      </trkpt>
      <trkpt lat="45.94794" lon="4.74137">
        <ele>189</ele>
        <time>2017-03-29T11:05:43Z</time>
      </trkpt>
      <trkpt lat="45.9479" lon="4.7413">
        <ele>189</ele>
        <time>2017-03-29T11:05:44Z</time>
      </trkpt>
      <trkpt lat="45.94786" lon="4.74124">
        <ele>189</ele>
        <time>2017-03-29T11:05:45Z</time>
      </trkpt>
      <trkpt lat="45.94783" lon="4.74118">
        <ele>189</ele>
        <time>2017-03-29T11:05:46Z</time>
      </trkpt>
      <trkpt lat="45.94778" lon="4.74113">
        <ele>189</ele>
        <time>2017-03-29T11:05:47Z</time>
      </trkpt>
      <trkpt lat="45.94774" lon="4.74107">
        <ele>189</ele>
        <time>2017-03-29T11:05:48Z</time>
      </trkpt>
      <trkpt lat="45.9477" lon="4.74102">
        <ele>189</ele>
        <time>2017-03-29T11:05:49Z</time>
      </trkpt>
      <trkpt lat="45.94766" lon="4.74096">
        <ele>189</ele>
        <time>2017-03-29T11:05:50Z</time>
      </trkpt>
      <trkpt lat="45.94762" lon="4.7409">
        <ele>189</ele>
        <time>2017-03-29T11:05:51Z</time>
      </trkpt>
      <trkpt lat="45.94758" lon="4.74085">
        <ele>189</ele>
        <time>2017-03-29T11:05:52Z</time>
      </trkpt>
      <trkpt lat="45.94753" lon="4.74079">
        <ele>189</ele>
        <time>2017-03-29T11:05:53Z</time>
      </trkpt>
      <trkpt lat="45.94749" lon="4.74073">
        <ele>188</ele>
        <time>2017-03-29T11:05:54Z</time>
      </trkpt>
      <trkpt lat="45.94744" lon="4.74067">
        <ele>188</ele>
        <time>2017-03-29T11:05:55Z</time>
      </trkpt>
      <trkpt lat="45.9474" lon="4.74061">
        <ele>188</ele>
        <time>2017-03-29T11:05:56Z</time>
      </trkpt>
      <trkpt lat="45.94734" lon="4.74055">
        <ele>188</ele>
        <time>2017-03-29T11:05:57Z</time>
      </trkpt>
      <trkpt lat="45.9473" lon="4.74049">
        <ele>188</ele>
        <time>2017-03-29T11:05:58Z</time>
      </trkpt>
      <trkpt lat="45.94725" lon="4.74043">
        <ele>187</ele>
        <time>2017-03-29T11:05:59Z</time>
      </trkpt>
      <trkpt lat="45.94721" lon="4.74037">
        <ele>187</ele>
        <time>2017-03-29T11:06:00Z</time>
      </trkpt>
      <trkpt lat="45.94717" lon="4.74032">
        <ele>187</ele>
        <time>2017-03-29T11:06:01Z</time>
      </trkpt>
      <trkpt lat="45.94712" lon="4.74026">
        <ele>187</ele>
        <time>2017-03-29T11:06:02Z</time>
      </trkpt>
      <trkpt lat="45.94708" lon="4.7402">
        <ele>187</ele>
        <time>2017-03-29T11:06:03Z</time>
      </trkpt>
      <trkpt lat="45.94703" lon="4.74015">
        <ele>187</ele>
        <time>2017-03-29T11:06:04Z</time>
      </trkpt>
      <trkpt lat="45.94699" lon="4.74009">
        <ele>187</ele>
        <time>2017-03-29T11:06:05Z</time>
      </trkpt>
      <trkpt lat="45.94694" lon="4.74004">
        <ele>187</ele>
        <time>2017-03-29T11:06:06Z</time>
      </trkpt>
      <trkpt lat="45.94689" lon="4.73998">
        <ele>187</ele>
        <time>2017-03-29T11:06:07Z</time>
      </trkpt>
      <trkpt lat="45.94685" lon="4.73992">
        <ele>187</ele>
        <time>2017-03-29T11:06:08Z</time>
      </trkpt>
      <trkpt lat="45.9468" lon="4.73986">
        <ele>187</ele>
        <time>2017-03-29T11:06:09Z</time>
      </trkpt>
      <trkpt lat="45.94676" lon="4.7398">
        <ele>187</ele>
        <time>2017-03-29T11:06:10Z</time>
      </trkpt>
      <trkpt lat="45.94671" lon="4.73973">
        <ele>187</ele>
        <time>2017-03-29T11:06:11Z</time>
      </trkpt>
      <trkpt lat="45.94666" lon="4.73967">
        <ele>187</ele>
        <time>2017-03-29T11:06:12Z</time>
      </trkpt>
      <trkpt lat="45.94661" lon="4.7396">
        <ele>187</ele>
        <time>2017-03-29T11:06:13Z</time>
      </trkpt>
      <trkpt lat="45.94657" lon="4.73954">
        <ele>187</ele>
        <time>2017-03-29T11:06:14Z</time>
      </trkpt>
      <trkpt lat="45.94652" lon="4.73947">
        <ele>187</ele>
        <time>2017-03-29T11:06:15Z</time>
      </trkpt>
      <trkpt lat="45.94647" lon="4.7394">
        <ele>187</ele>
        <time>2017-03-29T11:06:16Z</time>
      </trkpt>
      <trkpt lat="45.94642" lon="4.73934">
        <ele>187</ele>
        <time>2017-03-29T11:06:17Z</time>
      </trkpt>
      <trkpt lat="45.94637" lon="4.73928">
        <ele>187</ele>
        <time>2017-03-29T11:06:18Z</time>
      </trkpt>
      <trkpt lat="45.94632" lon="4.73921">
        <ele>187</ele>
        <time>2017-03-29T11:06:19Z</time>
      </trkpt>
      <trkpt lat="45.94627" lon="4.73915">
        <ele>187</ele>
        <time>2017-03-29T11:06:20Z</time>
      </trkpt>
      <trkpt lat="45.94622" lon="4.73909">
        <ele>187</ele>
        <time>2017-03-29T11:06:21Z</time>
      </trkpt>
      <trkpt lat="45.94617" lon="4.73902">
        <ele>187</ele>
        <time>2017-03-29T11:06:22Z</time>
      </trkpt>
      <trkpt lat="45.94612" lon="4.73896">
        <ele>187</ele>
        <time>2017-03-29T11:06:23Z</time>
      </trkpt>
      <trkpt lat="45.94607" lon="4.7389">
        <ele>187</ele>
        <time>2017-03-29T11:06:24Z</time>
      </trkpt>
      <trkpt lat="45.94602" lon="4.73884">
        <ele>187</ele>
        <time>2017-03-29T11:06:25Z</time>
      </trkpt>
      <trkpt lat="45.94597" lon="4.73878">
        <ele>187</ele>
        <time>2017-03-29T11:06:26Z</time>
      </trkpt>
      <trkpt lat="45.94592" lon="4.73872">
        <ele>187</ele>
        <time>2017-03-29T11:06:27Z</time>
      </trkpt>
      <trkpt lat="45.94587" lon="4.73866">
        <ele>187</ele>
        <time>2017-03-29T11:06:28Z</time>
      </trkpt>
      <trkpt lat="45.94582" lon="4.7386">
        <ele>186</ele>
        <time>2017-03-29T11:06:29Z</time>
      </trkpt>
      <trkpt lat="45.94576" lon="4.73854">
        <ele>186</ele>
        <time>2017-03-29T11:06:30Z</time>
      </trkpt>
      <trkpt lat="45.94571" lon="4.73848">
        <ele>186</ele>
        <time>2017-03-29T11:06:31Z</time>
      </trkpt>
      <trkpt lat="45.94566" lon="4.73843">
        <ele>186</ele>
        <time>2017-03-29T11:06:32Z</time>
      </trkpt>
      <trkpt lat="45.94561" lon="4.73837">
        <ele>186</ele>
        <time>2017-03-29T11:06:33Z</time>
      </trkpt>
      <trkpt lat="45.94555" lon="4.73832">
        <ele>186</ele>
        <time>2017-03-29T11:06:34Z</time>
      </trkpt>
      <trkpt lat="45.94549" lon="4.73826">
        <ele>186</ele>
        <time>2017-03-29T11:06:35Z</time>
      </trkpt>
      <trkpt lat="45.94543" lon="4.73821">
        <ele>186</ele>
        <time>2017-03-29T11:06:36Z</time>
      </trkpt>
      <trkpt lat="45.94538" lon="4.73816">
        <ele>186</ele>
        <time>2017-03-29T11:06:37Z</time>
      </trkpt>
      <trkpt lat="45.94532" lon="4.73811">
        <ele>186</ele>
        <time>2017-03-29T11:06:38Z</time>
      </trkpt>
      <trkpt lat="45.94527" lon="4.73806">
        <ele>186</ele>
        <time>2017-03-29T11:06:39Z</time>
      </trkpt>
      <trkpt lat="45.94522" lon="4.73801">
        <ele>186</ele>
        <time>2017-03-29T11:06:40Z</time>
      </trkpt>
      <trkpt lat="45.94517" lon="4.73795">
        <ele>186</ele>
        <time>2017-03-29T11:06:41Z</time>
      </trkpt>
      <trkpt lat="45.94512" lon="4.7379">
        <ele>186</ele>
        <time>2017-03-29T11:06:42Z</time>
      </trkpt>
      <trkpt lat="45.94507" lon="4.73784">
        <ele>186</ele>
        <time>2017-03-29T11:06:43Z</time>
      </trkpt>
      <trkpt lat="45.94502" lon="4.73777">
        <ele>186</ele>
        <time>2017-03-29T11:06:44Z</time>
      </trkpt>
      <trkpt lat="45.94498" lon="4.7377">
        <ele>186</ele>
        <time>2017-03-29T11:06:45Z</time>
      </trkpt>
      <trkpt lat="45.94493" lon="4.73763">
        <ele>186</ele>
        <time>2017-03-29T11:06:46Z</time>
      </trkpt>
      <trkpt lat="45.9449" lon="4.73756">
        <ele>186</ele>
        <time>2017-03-29T11:06:47Z</time>
      </trkpt>
      <trkpt lat="45.94487" lon="4.73748">
        <ele>186</ele>
        <time>2017-03-29T11:06:48Z</time>
      </trkpt>
      <trkpt lat="45.94486" lon="4.73739">
        <ele>186</ele>
        <time>2017-03-29T11:06:49Z</time>
      </trkpt>
      <trkpt lat="45.94487" lon="4.7373">
        <ele>186</ele>
        <time>2017-03-29T11:06:50Z</time>
      </trkpt>
      <trkpt lat="45.94487" lon="4.73722">
        <ele>186</ele>
        <time>2017-03-29T11:06:51Z</time>
      </trkpt>
      <trkpt lat="45.94488" lon="4.73713">
        <ele>186</ele>
        <time>2017-03-29T11:06:52Z</time>
      </trkpt>
      <trkpt lat="45.94489" lon="4.73705">
        <ele>186</ele>
        <time>2017-03-29T11:06:53Z</time>
      </trkpt>
      <trkpt lat="45.9449" lon="4.73696">
        <ele>186</ele>
        <time>2017-03-29T11:06:54Z</time>
      </trkpt>
      <trkpt lat="45.94491" lon="4.73688">
        <ele>186</ele>
        <time>2017-03-29T11:06:55Z</time>
      </trkpt>
      <trkpt lat="45.94492" lon="4.7368">
        <ele>185</ele>
        <time>2017-03-29T11:06:56Z</time>
      </trkpt>
      <trkpt lat="45.94493" lon="4.73672">
        <ele>185</ele>
        <time>2017-03-29T11:06:57Z</time>
      </trkpt>
      <trkpt lat="45.94495" lon="4.73663">
        <ele>185</ele>
        <time>2017-03-29T11:06:58Z</time>
      </trkpt>
      <trkpt lat="45.94496" lon="4.73655">
        <ele>185</ele>
        <time>2017-03-29T11:06:59Z</time>
      </trkpt>
      <trkpt lat="45.94497" lon="4.73646">
        <ele>186</ele>
        <time>2017-03-29T11:07:00Z</time>
      </trkpt>
      <trkpt lat="45.94498" lon="4.73638">
        <ele>186</ele>
        <time>2017-03-29T11:07:01Z</time>
      </trkpt>
      <trkpt lat="45.94499" lon="4.7363">
        <ele>186</ele>
        <time>2017-03-29T11:07:02Z</time>
      </trkpt>
      <trkpt lat="45.94499" lon="4.73621">
        <ele>186</ele>
        <time>2017-03-29T11:07:03Z</time>
      </trkpt>
      <trkpt lat="45.945" lon="4.73613">
        <ele>184</ele>
        <time>2017-03-29T11:07:04Z</time>
      </trkpt>
      <trkpt lat="45.94501" lon="4.73604">
        <ele>184</ele>
        <time>2017-03-29T11:07:05Z</time>
      </trkpt>
      <trkpt lat="45.94501" lon="4.73596">
        <ele>184</ele>
        <time>2017-03-29T11:07:06Z</time>
      </trkpt>
      <trkpt lat="45.94502" lon="4.73588">
        <ele>185</ele>
        <time>2017-03-29T11:07:07Z</time>
      </trkpt>
      <trkpt lat="45.94502" lon="4.73579">
        <ele>185</ele>
        <time>2017-03-29T11:07:08Z</time>
      </trkpt>
      <trkpt lat="45.94503" lon="4.73571">
        <ele>184</ele>
        <time>2017-03-29T11:07:09Z</time>
      </trkpt>
      <trkpt lat="45.94504" lon="4.73562">
        <ele>184</ele>
        <time>2017-03-29T11:07:10Z</time>
      </trkpt>
      <trkpt lat="45.94504" lon="4.73554">
        <ele>183</ele>
        <time>2017-03-29T11:07:11Z</time>
      </trkpt>
      <trkpt lat="45.94504" lon="4.73545">
        <ele>183</ele>
        <time>2017-03-29T11:07:12Z</time>
      </trkpt>
      <trkpt lat="45.94503" lon="4.73535">
        <ele>183</ele>
        <time>2017-03-29T11:07:13Z</time>
      </trkpt>
      <trkpt lat="45.94503" lon="4.73525">
        <ele>183</ele>
        <time>2017-03-29T11:07:14Z</time>
      </trkpt>
      <trkpt lat="45.94504" lon="4.73515">
        <ele>183</ele>
        <time>2017-03-29T11:07:15Z</time>
      </trkpt>
      <trkpt lat="45.94504" lon="4.73505">
        <ele>183</ele>
        <time>2017-03-29T11:07:16Z</time>
      </trkpt>
      <trkpt lat="45.94504" lon="4.73494">
        <ele>183</ele>
        <time>2017-03-29T11:07:17Z</time>
      </trkpt>
      <trkpt lat="45.94504" lon="4.73484">
        <ele>182</ele>
        <time>2017-03-29T11:07:18Z</time>
      </trkpt>
      <trkpt lat="45.94504" lon="4.73473">
        <ele>182</ele>
        <time>2017-03-29T11:07:19Z</time>
      </trkpt>
      <trkpt lat="45.94504" lon="4.73462">
        <ele>181</ele>
        <time>2017-03-29T11:07:20Z</time>
      </trkpt>
      <trkpt lat="45.94503" lon="4.73451">
        <ele>181</ele>
        <time>2017-03-29T11:07:21Z</time>
      </trkpt>
      <trkpt lat="45.94503" lon="4.7344">
        <ele>181</ele>
        <time>2017-03-29T11:07:22Z</time>
      </trkpt>
      <trkpt lat="45.94503" lon="4.73428">
        <ele>180</ele>
        <time>2017-03-29T11:07:23Z</time>
      </trkpt>
      <trkpt lat="45.94503" lon="4.73416">
        <ele>180</ele>
        <time>2017-03-29T11:07:24Z</time>
      </trkpt>
      <trkpt lat="45.94502" lon="4.73404">
        <ele>179</ele>
        <time>2017-03-29T11:07:25Z</time>
      </trkpt>
      <trkpt lat="45.94501" lon="4.73392">
        <ele>179</ele>
        <time>2017-03-29T11:07:26Z</time>
      </trkpt>
      <trkpt lat="45.94501" lon="4.7338">
        <ele>178</ele>
        <time>2017-03-29T11:07:27Z</time>
      </trkpt>
      <trkpt lat="45.945" lon="4.73368">
        <ele>179</ele>
        <time>2017-03-29T11:07:28Z</time>
      </trkpt>
      <trkpt lat="45.94498" lon="4.73356">
        <ele>178</ele>
        <time>2017-03-29T11:07:29Z</time>
      </trkpt>
      <trkpt lat="45.94497" lon="4.73345">
        <ele>178</ele>
        <time>2017-03-29T11:07:30Z</time>
      </trkpt>
      <trkpt lat="45.94496" lon="4.73333">
        <ele>177</ele>
        <time>2017-03-29T11:07:31Z</time>
      </trkpt>
      <trkpt lat="45.94494" lon="4.73321">
        <ele>177</ele>
        <time>2017-03-29T11:07:32Z</time>
      </trkpt>
      <trkpt lat="45.94493" lon="4.73309">
        <ele>177</ele>
        <time>2017-03-29T11:07:33Z</time>
      </trkpt>
      <trkpt lat="45.94492" lon="4.73297">
        <ele>177</ele>
        <time>2017-03-29T11:07:34Z</time>
      </trkpt>
      <trkpt lat="45.9449" lon="4.73284">
        <ele>177</ele>
        <time>2017-03-29T11:07:35Z</time>
      </trkpt>
      <trkpt lat="45.94488" lon="4.73272">
        <ele>177</ele>
        <time>2017-03-29T11:07:36Z</time>
      </trkpt>
      <trkpt lat="45.94486" lon="4.7326">
        <ele>176</ele>
        <time>2017-03-29T11:07:37Z</time>
      </trkpt>
      <trkpt lat="45.94485" lon="4.73247">
        <ele>175</ele>
        <time>2017-03-29T11:07:38Z</time>
      </trkpt>
      <trkpt lat="45.94483" lon="4.73235">
        <ele>175</ele>
        <time>2017-03-29T11:07:39Z</time>
      </trkpt>
      <trkpt lat="45.94482" lon="4.73222">
        <ele>175</ele>
        <time>2017-03-29T11:07:40Z</time>
      </trkpt>
      <trkpt lat="45.9448" lon="4.73209">
        <ele>175</ele>
        <time>2017-03-29T11:07:41Z</time>
      </trkpt>
      <trkpt lat="45.94479" lon="4.73196">
        <ele>174</ele>
        <time>2017-03-29T11:07:42Z</time>
      </trkpt>
      <trkpt lat="45.94477" lon="4.73183">
        <ele>174</ele>
        <time>2017-03-29T11:07:43Z</time>
      </trkpt>
      <trkpt lat="45.94475" lon="4.73171">
        <ele>174</ele>
        <time>2017-03-29T11:07:44Z</time>
      </trkpt>
      <trkpt lat="45.94474" lon="4.73159">
        <ele>173</ele>
        <time>2017-03-29T11:07:45Z</time>
      </trkpt>
      <trkpt lat="45.94472" lon="4.73148">
        <ele>172</ele>
        <time>2017-03-29T11:07:46Z</time>
      </trkpt>
      <trkpt lat="45.94471" lon="4.73137">
        <ele>172</ele>
        <time>2017-03-29T11:07:47Z</time>
      </trkpt>
      <trkpt lat="45.94469" lon="4.73125">
        <ele>172</ele>
        <time>2017-03-29T11:07:48Z</time>
      </trkpt>
      <trkpt lat="45.94469" lon="4.73114">
        <ele>172</ele>
        <time>2017-03-29T11:07:49Z</time>
      </trkpt>
      <trkpt lat="45.94467" lon="4.73103">
        <ele>172</ele>
        <time>2017-03-29T11:07:50Z</time>
      </trkpt>
      <trkpt lat="45.94465" lon="4.73092">
        <ele>171</ele>
        <time>2017-03-29T11:07:51Z</time>
      </trkpt>
      <trkpt lat="45.94464" lon="4.73081">
        <ele>170</ele>
        <time>2017-03-29T11:07:52Z</time>
      </trkpt>
      <trkpt lat="45.94462" lon="4.73071">
        <ele>170</ele>
        <time>2017-03-29T11:07:53Z</time>
      </trkpt>
      <trkpt lat="45.94461" lon="4.73061">
        <ele>170</ele>
        <time>2017-03-29T11:07:54Z</time>
      </trkpt>
      <trkpt lat="45.9446" lon="4.73052">
        <ele>170</ele>
        <time>2017-03-29T11:07:55Z</time>
      </trkpt>
      <trkpt lat="45.9446" lon="4.73043">
        <ele>170</ele>
        <time>2017-03-29T11:07:56Z</time>
      </trkpt>
      <trkpt lat="45.94458" lon="4.73034">
        <ele>169</ele>
        <time>2017-03-29T11:07:57Z</time>
      </trkpt>
      <trkpt lat="45.94457" lon="4.73026">
        <ele>169</ele>
        <time>2017-03-29T11:07:58Z</time>
      </trkpt>
      <trkpt lat="45.94456" lon="4.73017">
        <ele>169</ele>
        <time>2017-03-29T11:07:59Z</time>
      </trkpt>
      <trkpt lat="45.94455" lon="4.73009">
        <ele>169</ele>
        <time>2017-03-29T11:08:00Z</time>
      </trkpt>
      <trkpt lat="45.94455" lon="4.73001">
        <ele>169</ele>
        <time>2017-03-29T11:08:01Z</time>
      </trkpt>
      <trkpt lat="45.94454" lon="4.72993">
        <ele>167</ele>
        <time>2017-03-29T11:08:02Z</time>
      </trkpt>
      <trkpt lat="45.94452" lon="4.72985">
        <ele>167</ele>
        <time>2017-03-29T11:08:03Z</time>
      </trkpt>
      <trkpt lat="45.94451" lon="4.72977">
        <ele>167</ele>
        <time>2017-03-29T11:08:04Z</time>
      </trkpt>
      <trkpt lat="45.9445" lon="4.72969">
        <ele>167</ele>
        <time>2017-03-29T11:08:05Z</time>
      </trkpt>
      <trkpt lat="45.94449" lon="4.72962">
        <ele>167</ele>
        <time>2017-03-29T11:08:06Z</time>
      </trkpt>
      <trkpt lat="45.94448" lon="4.72954">
        <ele>167</ele>
        <time>2017-03-29T11:08:07Z</time>
      </trkpt>
      <trkpt lat="45.94447" lon="4.72946">
        <ele>167</ele>
        <time>2017-03-29T11:08:08Z</time>
      </trkpt>
      <trkpt lat="45.94446" lon="4.72939">
        <ele>167</ele>
        <time>2017-03-29T11:08:09Z</time>
      </trkpt>
      <trkpt lat="45.94444" lon="4.72931">
        <ele>167</ele>
        <time>2017-03-29T11:08:10Z</time>
      </trkpt>
      <trkpt lat="45.94444" lon="4.72924">
        <ele>167</ele>
        <time>2017-03-29T11:08:11Z</time>
      </trkpt>
      <trkpt lat="45.94443" lon="4.72916">
        <ele>166</ele>
        <time>2017-03-29T11:08:12Z</time>
      </trkpt>
      <trkpt lat="45.94442" lon="4.72909">
        <ele>166</ele>
        <time>2017-03-29T11:08:13Z</time>
      </trkpt>
      <trkpt lat="45.94441" lon="4.72902">
        <ele>166</ele>
        <time>2017-03-29T11:08:14Z</time>
      </trkpt>
      <trkpt lat="45.9444" lon="4.72895">
        <ele>166</ele>
        <time>2017-03-29T11:08:15Z</time>
      </trkpt>
      <trkpt lat="45.94439" lon="4.72888">
        <ele>166</ele>
        <time>2017-03-29T11:08:16Z</time>
      </trkpt>
      <trkpt lat="45.94438" lon="4.72881">
        <ele>166</ele>
        <time>2017-03-29T11:08:17Z</time>
      </trkpt>
      <trkpt lat="45.94437" lon="4.72874">
        <ele>166</ele>
        <time>2017-03-29T11:08:18Z</time>
      </trkpt>
      <trkpt lat="45.94436" lon="4.72866">
        <ele>166</ele>
        <time>2017-03-29T11:08:19Z</time>
      </trkpt>
      <trkpt lat="45.94435" lon="4.72858">
        <ele>166</ele>
        <time>2017-03-29T11:08:20Z</time>
      </trkpt>
      <trkpt lat="45.94434" lon="4.7285">
        <ele>166</ele>
        <time>2017-03-29T11:08:21Z</time>
      </trkpt>
      <trkpt lat="45.94432" lon="4.72842">
        <ele>166</ele>
        <time>2017-03-29T11:08:22Z</time>
      </trkpt>
      <trkpt lat="45.94431" lon="4.72833">
        <ele>167</ele>
        <time>2017-03-29T11:08:23Z</time>
      </trkpt>
      <trkpt lat="45.94429" lon="4.72824">
        <ele>167</ele>
        <time>2017-03-29T11:08:24Z</time>
      </trkpt>
      <trkpt lat="45.94428" lon="4.72815">
        <ele>167</ele>
        <time>2017-03-29T11:08:25Z</time>
      </trkpt>
      <trkpt lat="45.94426" lon="4.72805">
        <ele>167</ele>
        <time>2017-03-29T11:08:26Z</time>
      </trkpt>
      <trkpt lat="45.94424" lon="4.72796">
        <ele>168</ele>
        <time>2017-03-29T11:08:27Z</time>
      </trkpt>
      <trkpt lat="45.94423" lon="4.72786">
        <ele>168</ele>
        <time>2017-03-29T11:08:28Z</time>
      </trkpt>
      <trkpt lat="45.94421" lon="4.72776">
        <ele>168</ele>
        <time>2017-03-29T11:08:29Z</time>
      </trkpt>
      <trkpt lat="45.9442" lon="4.72765">
        <ele>169</ele>
        <time>2017-03-29T11:08:30Z</time>
      </trkpt>
      <trkpt lat="45.94418" lon="4.72755">
        <ele>170</ele>
        <time>2017-03-29T11:08:31Z</time>
      </trkpt>
      <trkpt lat="45.94416" lon="4.72745">
        <ele>171</ele>
        <time>2017-03-29T11:08:32Z</time>
      </trkpt>
      <trkpt lat="45.94415" lon="4.72735">
        <ele>172</ele>
        <time>2017-03-29T11:08:33Z</time>
      </trkpt>
      <trkpt lat="45.94414" lon="4.72725">
        <ele>172</ele>
        <time>2017-03-29T11:08:34Z</time>
      </trkpt>
      <trkpt lat="45.94413" lon="4.72715">
        <ele>172</ele>
        <time>2017-03-29T11:08:35Z</time>
      </trkpt>
      <trkpt lat="45.94413" lon="4.72705">
        <ele>172</ele>
        <time>2017-03-29T11:08:36Z</time>
      </trkpt>
      <trkpt lat="45.94412" lon="4.72695">
        <ele>173</ele>
        <time>2017-03-29T11:08:37Z</time>
      </trkpt>
      <trkpt lat="45.9441" lon="4.72685">
        <ele>173</ele>
        <time>2017-03-29T11:08:38Z</time>
      </trkpt>
      <trkpt lat="45.94409" lon="4.72676">
        <ele>173</ele>
        <time>2017-03-29T11:08:39Z</time>
      </trkpt>
      <trkpt lat="45.94408" lon="4.72666">
        <ele>174</ele>
        <time>2017-03-29T11:08:40Z</time>
      </trkpt>
      <trkpt lat="45.94407" lon="4.72656">
        <ele>174</ele>
        <time>2017-03-29T11:08:41Z</time>
      </trkpt>
      <trkpt lat="45.94406" lon="4.72647">
        <ele>174</ele>
        <time>2017-03-29T11:08:42Z</time>
      </trkpt>
      <trkpt lat="45.94405" lon="4.72637">
        <ele>174</ele>
        <time>2017-03-29T11:08:43Z</time>
      </trkpt>
      <trkpt lat="45.94404" lon="4.72628">
        <ele>174</ele>
        <time>2017-03-29T11:08:44Z</time>
      </trkpt>
      <trkpt lat="45.94403" lon="4.72619">
        <ele>173</ele>
        <time>2017-03-29T11:08:45Z</time>
      </trkpt>
      <trkpt lat="45.94402" lon="4.7261">
        <ele>173</ele>
        <time>2017-03-29T11:08:46Z</time>
      </trkpt>
      <trkpt lat="45.94401" lon="4.72601">
        <ele>173</ele>
        <time>2017-03-29T11:08:47Z</time>
      </trkpt>
      <trkpt lat="45.94399" lon="4.72593">
        <ele>173</ele>
        <time>2017-03-29T11:08:48Z</time>
      </trkpt>
      <trkpt lat="45.94398" lon="4.72585">
        <ele>173</ele>
        <time>2017-03-29T11:08:49Z</time>
      </trkpt>
      <trkpt lat="45.94397" lon="4.72576">
        <ele>173</ele>
        <time>2017-03-29T11:08:50Z</time>
      </trkpt>
      <trkpt lat="45.94395" lon="4.72568">
        <ele>173</ele>
        <time>2017-03-29T11:08:51Z</time>
      </trkpt>
      <trkpt lat="45.94393" lon="4.7256">
        <ele>173</ele>
        <time>2017-03-29T11:08:52Z</time>
      </trkpt>
      <trkpt lat="45.94392" lon="4.72553">
        <ele>173</ele>
        <time>2017-03-29T11:08:53Z</time>
      </trkpt>
      <trkpt lat="45.94391" lon="4.72545">
        <ele>173</ele>
        <time>2017-03-29T11:08:54Z</time>
      </trkpt>
      <trkpt lat="45.9439" lon="4.72538">
        <ele>174</ele>
        <time>2017-03-29T11:08:55Z</time>
      </trkpt>
      <trkpt lat="45.94388" lon="4.7253">
        <ele>174</ele>
        <time>2017-03-29T11:08:56Z</time>
      </trkpt>
      <trkpt lat="45.94386" lon="4.72522">
        <ele>174</ele>
        <time>2017-03-29T11:08:57Z</time>
      </trkpt>
      <trkpt lat="45.94383" lon="4.72513">
        <ele>174</ele>
        <time>2017-03-29T11:08:58Z</time>
      </trkpt>
      <trkpt lat="45.94381" lon="4.72505">
        <ele>174</ele>
        <time>2017-03-29T11:08:59Z</time>
      </trkpt>
      <trkpt lat="45.94378" lon="4.72497">
        <ele>173</ele>
        <time>2017-03-29T11:09:00Z</time>
      </trkpt>
      <trkpt lat="45.94375" lon="4.72489">
        <ele>173</ele>
        <time>2017-03-29T11:09:01Z</time>
      </trkpt>
      <trkpt lat="45.94373" lon="4.7248">
        <ele>173</ele>
        <time>2017-03-29T11:09:02Z</time>
      </trkpt>
      <trkpt lat="45.9437" lon="4.72472">
        <ele>173</ele>
        <time>2017-03-29T11:09:03Z</time>
      </trkpt>
      <trkpt lat="45.94367" lon="4.72464">
        <ele>173</ele>
        <time>2017-03-29T11:09:04Z</time>
      </trkpt>
      <trkpt lat="45.94363" lon="4.72456">
        <ele>173</ele>
        <time>2017-03-29T11:09:05Z</time>
      </trkpt>
      <trkpt lat="45.9436" lon="4.72448">
        <ele>173</ele>
        <time>2017-03-29T11:09:06Z</time>
      </trkpt>
      <trkpt lat="45.94357" lon="4.7244">
        <ele>173</ele>
        <time>2017-03-29T11:09:07Z</time>
      </trkpt>
      <trkpt lat="45.94353" lon="4.72432">
        <ele>173</ele>
        <time>2017-03-29T11:09:08Z</time>
      </trkpt>
      <trkpt lat="45.94351" lon="4.72425">
        <ele>173</ele>
        <time>2017-03-29T11:09:09Z</time>
      </trkpt>
      <trkpt lat="45.94348" lon="4.72417">
        <ele>173</ele>
        <time>2017-03-29T11:09:10Z</time>
      </trkpt>
      <trkpt lat="45.94344" lon="4.72411">
        <ele>173</ele>
        <time>2017-03-29T11:09:11Z</time>
      </trkpt>
      <trkpt lat="45.94342" lon="4.72404">
        <ele>173</ele>
        <time>2017-03-29T11:09:12Z</time>
      </trkpt>
      <trkpt lat="45.94339" lon="4.72397">
        <ele>172</ele>
        <time>2017-03-29T11:09:13Z</time>
      </trkpt>
      <trkpt lat="45.94336" lon="4.72391">
        <ele>172</ele>
        <time>2017-03-29T11:09:14Z</time>
      </trkpt>
      <trkpt lat="45.94333" lon="4.72384">
        <ele>172</ele>
        <time>2017-03-29T11:09:15Z</time>
      </trkpt>
      <trkpt lat="45.9433" lon="4.72378">
        <ele>172</ele>
        <time>2017-03-29T11:09:16Z</time>
      </trkpt>
      <trkpt lat="45.94327" lon="4.72372">
        <ele>172</ele>
        <time>2017-03-29T11:09:17Z</time>
      </trkpt>
      <trkpt lat="45.94323" lon="4.72365">
        <ele>172</ele>
        <time>2017-03-29T11:09:18Z</time>
      </trkpt>
      <trkpt lat="45.9432" lon="4.72358">
        <ele>172</ele>
        <time>2017-03-29T11:09:19Z</time>
      </trkpt>
      <trkpt lat="45.94316" lon="4.72352">
        <ele>172</ele>
        <time>2017-03-29T11:09:20Z</time>
      </trkpt>
      <trkpt lat="45.94313" lon="4.72344">
        <ele>172</ele>
        <time>2017-03-29T11:09:21Z</time>
      </trkpt>
      <trkpt lat="45.94309" lon="4.72337">
        <ele>172</ele>
        <time>2017-03-29T11:09:22Z</time>
      </trkpt>
      <trkpt lat="45.94305" lon="4.7233">
        <ele>171</ele>
        <time>2017-03-29T11:09:23Z</time>
      </trkpt>
      <trkpt lat="45.94301" lon="4.72324">
        <ele>171</ele>
        <time>2017-03-29T11:09:24Z</time>
      </trkpt>
      <trkpt lat="45.94298" lon="4.72317">
        <ele>171</ele>
        <time>2017-03-29T11:09:25Z</time>
      </trkpt>
      <trkpt lat="45.94295" lon="4.72309">
        <ele>171</ele>
        <time>2017-03-29T11:09:26Z</time>
      </trkpt>
      <trkpt lat="45.94292" lon="4.72301">
        <ele>171</ele>
        <time>2017-03-29T11:09:27Z</time>
      </trkpt>
      <trkpt lat="45.94288" lon="4.72294">
        <ele>171</ele>
        <time>2017-03-29T11:09:28Z</time>
      </trkpt>
      <trkpt lat="45.94285" lon="4.72286">
        <ele>171</ele>
        <time>2017-03-29T11:09:29Z</time>
      </trkpt>
      <trkpt lat="45.94281" lon="4.7228">
        <ele>171</ele>
        <time>2017-03-29T11:09:30Z</time>
      </trkpt>
      <trkpt lat="45.94276" lon="4.72275">
        <ele>171</ele>
        <time>2017-03-29T11:09:31Z</time>
      </trkpt>
      <trkpt lat="45.9427" lon="4.72271">
        <ele>171</ele>
        <time>2017-03-29T11:09:32Z</time>
      </trkpt>
      <trkpt lat="45.94265" lon="4.72271">
        <ele>171</ele>
        <time>2017-03-29T11:09:33Z</time>
      </trkpt>
      <trkpt lat="45.94259" lon="4.72272">
        <ele>171</ele>
        <time>2017-03-29T11:09:34Z</time>
      </trkpt>
      <trkpt lat="45.94253" lon="4.72274">
        <ele>171</ele>
        <time>2017-03-29T11:09:35Z</time>
      </trkpt>
      <trkpt lat="45.94248" lon="4.72276">
        <ele>171</ele>
        <time>2017-03-29T11:09:36Z</time>
      </trkpt>
      <trkpt lat="45.94243" lon="4.72279">
        <ele>171</ele>
        <time>2017-03-29T11:09:37Z</time>
      </trkpt>
      <trkpt lat="45.94238" lon="4.72281">
        <ele>171</ele>
        <time>2017-03-29T11:09:38Z</time>
      </trkpt>
      <trkpt lat="45.94232" lon="4.72282">
        <ele>171</ele>
        <time>2017-03-29T11:09:39Z</time>
      </trkpt>
      <trkpt lat="45.94227" lon="4.72283">
        <ele>171</ele>
        <time>2017-03-29T11:09:40Z</time>
      </trkpt>
      <trkpt lat="45.94221" lon="4.72283">
        <ele>171</ele>
        <time>2017-03-29T11:09:41Z</time>
      </trkpt>
      <trkpt lat="45.94215" lon="4.72283">
        <ele>171</ele>
        <time>2017-03-29T11:09:42Z</time>
      </trkpt>
      <trkpt lat="45.94209" lon="4.72284">
        <ele>171</ele>
        <time>2017-03-29T11:09:43Z</time>
      </trkpt>
      <trkpt lat="45.94202" lon="4.72284">
        <ele>171</ele>
        <time>2017-03-29T11:09:44Z</time>
      </trkpt>
      <trkpt lat="45.94196" lon="4.72284">
        <ele>171</ele>
        <time>2017-03-29T11:09:45Z</time>
      </trkpt>
      <trkpt lat="45.9419" lon="4.72284">
        <ele>171</ele>
        <time>2017-03-29T11:09:46Z</time>
      </trkpt>
      <trkpt lat="45.94184" lon="4.72284">
        <ele>171</ele>
        <time>2017-03-29T11:09:47Z</time>
      </trkpt>
      <trkpt lat="45.94178" lon="4.72283">
        <ele>171</ele>
        <time>2017-03-29T11:09:48Z</time>
      </trkpt>
      <trkpt lat="45.94173" lon="4.72282">
        <ele>171</ele>
        <time>2017-03-29T11:09:49Z</time>
      </trkpt>
      <trkpt lat="45.94167" lon="4.7228">
        <ele>171</ele>
        <time>2017-03-29T11:09:50Z</time>
      </trkpt>
      <trkpt lat="45.94161" lon="4.72279">
        <ele>171</ele>
        <time>2017-03-29T11:09:51Z</time>
      </trkpt>
      <trkpt lat="45.94156" lon="4.72277">
        <ele>171</ele>
        <time>2017-03-29T11:09:52Z</time>
      </trkpt>
      <trkpt lat="45.94151" lon="4.72276">
        <ele>171</ele>
        <time>2017-03-29T11:09:53Z</time>
      </trkpt>
      <trkpt lat="45.94146" lon="4.72274">
        <ele>171</ele>
        <time>2017-03-29T11:09:54Z</time>
      </trkpt>
      <trkpt lat="45.94141" lon="4.72272">
        <ele>171</ele>
        <time>2017-03-29T11:09:55Z</time>
      </trkpt>
      <trkpt lat="45.94135" lon="4.72269">
        <ele>171</ele>
        <time>2017-03-29T11:09:56Z</time>
      </trkpt>
      <trkpt lat="45.9413" lon="4.72266">
        <ele>171</ele>
        <time>2017-03-29T11:09:57Z</time>
      </trkpt>
      <trkpt lat="45.94125" lon="4.72263">
        <ele>171</ele>
        <time>2017-03-29T11:09:58Z</time>
      </trkpt>
      <trkpt lat="45.94119" lon="4.7226">
        <ele>171</ele>
        <time>2017-03-29T11:09:59Z</time>
      </trkpt>
      <trkpt lat="45.94113" lon="4.72258">
        <ele>171</ele>
        <time>2017-03-29T11:10:00Z</time>
      </trkpt>
      <trkpt lat="45.94107" lon="4.72257">
        <ele>171</ele>
        <time>2017-03-29T11:10:01Z</time>
      </trkpt>
      <trkpt lat="45.94101" lon="4.72257">
        <ele>171</ele>
        <time>2017-03-29T11:10:02Z</time>
      </trkpt>
      <trkpt lat="45.94094" lon="4.72257">
        <ele>171</ele>
        <time>2017-03-29T11:10:03Z</time>
      </trkpt>
      <trkpt lat="45.94087" lon="4.72259">
        <ele>171</ele>
        <time>2017-03-29T11:10:04Z</time>
      </trkpt>
      <trkpt lat="45.94081" lon="4.72262">
        <ele>171</ele>
        <time>2017-03-29T11:10:05Z</time>
      </trkpt>
      <trkpt lat="45.94075" lon="4.72266">
        <ele>171</ele>
        <time>2017-03-29T11:10:06Z</time>
      </trkpt>
      <trkpt lat="45.94069" lon="4.72272">
        <ele>171</ele>
        <time>2017-03-29T11:10:07Z</time>
      </trkpt>
      <trkpt lat="45.94063" lon="4.72279">
        <ele>171</ele>
        <time>2017-03-29T11:10:08Z</time>
      </trkpt>
      <trkpt lat="45.94058" lon="4.72285">
        <ele>171</ele>
        <time>2017-03-29T11:10:09Z</time>
      </trkpt>
      <trkpt lat="45.94053" lon="4.72291">
        <ele>171</ele>
        <time>2017-03-29T11:10:10Z</time>
      </trkpt>
      <trkpt lat="45.94048" lon="4.72297">
        <ele>171</ele>
        <time>2017-03-29T11:10:11Z</time>
      </trkpt>
      <trkpt lat="45.94043" lon="4.72303">
        <ele>171</ele>
        <time>2017-03-29T11:10:12Z</time>
      </trkpt>
      <trkpt lat="45.94038" lon="4.72309">
        <ele>171</ele>
        <time>2017-03-29T11:10:13Z</time>
      </trkpt>
      <trkpt lat="45.94033" lon="4.72315">
        <ele>171</ele>
        <time>2017-03-29T11:10:14Z</time>
      </trkpt>
      <trkpt lat="45.94028" lon="4.72321">
        <ele>171</ele>
        <time>2017-03-29T11:10:15Z</time>
      </trkpt>
      <trkpt lat="45.94023" lon="4.72328">
        <ele>171</ele>
        <time>2017-03-29T11:10:16Z</time>
      </trkpt>
      <trkpt lat="45.94018" lon="4.72334">
        <ele>171</ele>
        <time>2017-03-29T11:10:17Z</time>
      </trkpt>
      <trkpt lat="45.94013" lon="4.7234">
        <ele>171</ele>
        <time>2017-03-29T11:10:18Z</time>
      </trkpt>
      <trkpt lat="45.94009" lon="4.72346">
        <ele>171</ele>
        <time>2017-03-29T11:10:19Z</time>
      </trkpt>
      <trkpt lat="45.94004" lon="4.72352">
        <ele>171</ele>
        <time>2017-03-29T11:10:20Z</time>
      </trkpt>
      <trkpt lat="45.93999" lon="4.72358">
        <ele>171</ele>
        <time>2017-03-29T11:10:21Z</time>
      </trkpt>
      <trkpt lat="45.93995" lon="4.72364">
        <ele>171</ele>
        <time>2017-03-29T11:10:22Z</time>
      </trkpt>
      <trkpt lat="45.9399" lon="4.72369">
        <ele>171</ele>
        <time>2017-03-29T11:10:23Z</time>
      </trkpt>
      <trkpt lat="45.93986" lon="4.72375">
        <ele>171</ele>
        <time>2017-03-29T11:10:24Z</time>
      </trkpt>
      <trkpt lat="45.93981" lon="4.72381">
        <ele>171</ele>
        <time>2017-03-29T11:10:25Z</time>
      </trkpt>
      <trkpt lat="45.93976" lon="4.72387">
        <ele>171</ele>
        <time>2017-03-29T11:10:26Z</time>
      </trkpt>
      <trkpt lat="45.93971" lon="4.72392">
        <ele>171</ele>
        <time>2017-03-29T11:10:27Z</time>
      </trkpt>
      <trkpt lat="45.93966" lon="4.72399">
        <ele>171</ele>
        <time>2017-03-29T11:10:28Z</time>
      </trkpt>
      <trkpt lat="45.93961" lon="4.72405">
        <ele>171</ele>
        <time>2017-03-29T11:10:29Z</time>
      </trkpt>
      <trkpt lat="45.93956" lon="4.72411">
        <ele>171</ele>
        <time>2017-03-29T11:10:30Z</time>
      </trkpt>
      <trkpt lat="45.93952" lon="4.72418">
        <ele>171</ele>
        <time>2017-03-29T11:10:31Z</time>
      </trkpt>
      <trkpt lat="45.93947" lon="4.72424">
        <ele>171</ele>
        <time>2017-03-29T11:10:32Z</time>
      </trkpt>
      <trkpt lat="45.93942" lon="4.7243">
        <ele>171</ele>
        <time>2017-03-29T11:10:33Z</time>
      </trkpt>
      <trkpt lat="45.93937" lon="4.72435">
        <ele>171</ele>
        <time>2017-03-29T11:10:34Z</time>
      </trkpt>
      <trkpt lat="45.93933" lon="4.72442">
        <ele>171</ele>
        <time>2017-03-29T11:10:35Z</time>
      </trkpt>
      <trkpt lat="45.93928" lon="4.72448">
        <ele>171</ele>
        <time>2017-03-29T11:10:36Z</time>
      </trkpt>
      <trkpt lat="45.93924" lon="4.72453">
        <ele>171</ele>
        <time>2017-03-29T11:10:37Z</time>
      </trkpt>
      <trkpt lat="45.9392" lon="4.72458">
        <ele>171</ele>
        <time>2017-03-29T11:10:38Z</time>
      </trkpt>
      <trkpt lat="45.93916" lon="4.72462">
        <ele>172</ele>
        <time>2017-03-29T11:10:39Z</time>
      </trkpt>
      <trkpt lat="45.93913" lon="4.72467">
        <ele>172</ele>
        <time>2017-03-29T11:10:40Z</time>
      </trkpt>
      <trkpt lat="45.93909" lon="4.72471">
        <ele>172</ele>
        <time>2017-03-29T11:10:41Z</time>
      </trkpt>
      <trkpt lat="45.93905" lon="4.72475">
        <ele>172</ele>
        <time>2017-03-29T11:10:42Z</time>
      </trkpt>
      <trkpt lat="45.93902" lon="4.7248">
        <ele>172</ele>
        <time>2017-03-29T11:10:43Z</time>
      </trkpt>
      <trkpt lat="45.93898" lon="4.72484">
        <ele>172</ele>
        <time>2017-03-29T11:10:44Z</time>
      </trkpt>
      <trkpt lat="45.93894" lon="4.72489">
        <ele>172</ele>
        <time>2017-03-29T11:10:45Z</time>
      </trkpt>
      <trkpt lat="45.9389" lon="4.72494">
        <ele>172</ele>
        <time>2017-03-29T11:10:46Z</time>
      </trkpt>
      <trkpt lat="45.93886" lon="4.72499">
        <ele>172</ele>
        <time>2017-03-29T11:10:47Z</time>
      </trkpt>
      <trkpt lat="45.93882" lon="4.72504">
        <ele>173</ele>
        <time>2017-03-29T11:10:48Z</time>
      </trkpt>
      <trkpt lat="45.93878" lon="4.72508">
        <ele>173</ele>
        <time>2017-03-29T11:10:49Z</time>
      </trkpt>
      <trkpt lat="45.93873" lon="4.72511">
        <ele>173</ele>
        <time>2017-03-29T11:10:50Z</time>
      </trkpt>
      <trkpt lat="45.93868" lon="4.72512">
        <ele>173</ele>
        <time>2017-03-29T11:10:51Z</time>
      </trkpt>
      <trkpt lat="45.93863" lon="4.72511">
        <ele>173</ele>
        <time>2017-03-29T11:10:52Z</time>
      </trkpt>
      <trkpt lat="45.93858" lon="4.72508">
        <ele>173</ele>
        <time>2017-03-29T11:10:53Z</time>
      </trkpt>
      <trkpt lat="45.93854" lon="4.72505">
        <ele>173</ele>
        <time>2017-03-29T11:10:54Z</time>
      </trkpt>
      <trkpt lat="45.93849" lon="4.72502">
        <ele>174</ele>
        <time>2017-03-29T11:10:55Z</time>
      </trkpt>
      <trkpt lat="45.93845" lon="4.72498">
        <ele>173</ele>
        <time>2017-03-29T11:10:56Z</time>
      </trkpt>
      <trkpt lat="45.93842" lon="4.72494">
        <ele>173</ele>
        <time>2017-03-29T11:10:57Z</time>
      </trkpt>
      <trkpt lat="45.93836" lon="4.72486">
        <ele>173</ele>
        <time>2017-03-29T11:10:59Z</time>
      </trkpt>
      <trkpt lat="45.93831" lon="4.72476">
        <ele>173</ele>
        <time>2017-03-29T11:11:00Z</time>
      </trkpt>
      <trkpt lat="45.93828" lon="4.72465">
        <ele>172</ele>
        <time>2017-03-29T11:11:02Z</time>
      </trkpt>
      <trkpt lat="45.93825" lon="4.72461">
        <ele>172</ele>
        <time>2017-03-29T11:11:03Z</time>
      </trkpt>
      <trkpt lat="45.9382" lon="4.7246">
        <ele>172</ele>
        <time>2017-03-29T11:11:04Z</time>
      </trkpt>
      <trkpt lat="45.93816" lon="4.72459">
        <ele>172</ele>
        <time>2017-03-29T11:11:05Z</time>
      </trkpt>
      <trkpt lat="45.93811" lon="4.7245">
        <ele>172</ele>
        <time>2017-03-29T11:11:07Z</time>
      </trkpt>
      <trkpt lat="45.93805" lon="4.72448">
        <ele>172</ele>
        <time>2017-03-29T11:11:08Z</time>
      </trkpt>
      <trkpt lat="45.93798" lon="4.72445">
        <ele>172</ele>
        <time>2017-03-29T11:11:09Z</time>
      </trkpt>
      <trkpt lat="45.93791" lon="4.7244">
        <ele>172</ele>
        <time>2017-03-29T11:11:10Z</time>
      </trkpt>
      <trkpt lat="45.93786" lon="4.72436">
        <ele>172</ele>
        <time>2017-03-29T11:11:11Z</time>
      </trkpt>
      <trkpt lat="45.93782" lon="4.72431">
        <ele>172</ele>
        <time>2017-03-29T11:11:12Z</time>
      </trkpt>
      <trkpt lat="45.93778" lon="4.72427">
        <ele>171</ele>
        <time>2017-03-29T11:11:13Z</time>
      </trkpt>
      <trkpt lat="45.93773" lon="4.72422">
        <ele>171</ele>
        <time>2017-03-29T11:11:14Z</time>
      </trkpt>
      <trkpt lat="45.93768" lon="4.72418">
        <ele>171</ele>
        <time>2017-03-29T11:11:15Z</time>
      </trkpt>
      <trkpt lat="45.93764" lon="4.72414">
        <ele>171</ele>
        <time>2017-03-29T11:11:16Z</time>
      </trkpt>
      <trkpt lat="45.93759" lon="4.7241">
        <ele>171</ele>
        <time>2017-03-29T11:11:17Z</time>
      </trkpt>
      <trkpt lat="45.93755" lon="4.72405">
        <ele>171</ele>
        <time>2017-03-29T11:11:18Z</time>
      </trkpt>
      <trkpt lat="45.9375" lon="4.72401">
        <ele>171</ele>
        <time>2017-03-29T11:11:19Z</time>
      </trkpt>
      <trkpt lat="45.93746" lon="4.72396">
        <ele>171</ele>
        <time>2017-03-29T11:11:20Z</time>
      </trkpt>
      <trkpt lat="45.93742" lon="4.72391">
        <ele>171</ele>
        <time>2017-03-29T11:11:21Z</time>
      </trkpt>
      <trkpt lat="45.93737" lon="4.72387">
        <ele>171</ele>
        <time>2017-03-29T11:11:22Z</time>
      </trkpt>
      <trkpt lat="45.93732" lon="4.72382">
        <ele>171</ele>
        <time>2017-03-29T11:11:23Z</time>
      </trkpt>
      <trkpt lat="45.93727" lon="4.72378">
        <ele>171</ele>
        <time>2017-03-29T11:11:24Z</time>
      </trkpt>
      <trkpt lat="45.93723" lon="4.72374">
        <ele>172</ele>
        <time>2017-03-29T11:11:25Z</time>
      </trkpt>
      <trkpt lat="45.93718" lon="4.72368">
        <ele>172</ele>
        <time>2017-03-29T11:11:26Z</time>
      </trkpt>
      <trkpt lat="45.93714" lon="4.72364">
        <ele>172</ele>
        <time>2017-03-29T11:11:27Z</time>
      </trkpt>
      <trkpt lat="45.93709" lon="4.72359">
        <ele>172</ele>
        <time>2017-03-29T11:11:28Z</time>
      </trkpt>
      <trkpt lat="45.93705" lon="4.72355">
        <ele>171</ele>
        <time>2017-03-29T11:11:29Z</time>
      </trkpt>
      <trkpt lat="45.937" lon="4.72351">
        <ele>171</ele>
        <time>2017-03-29T11:11:30Z</time>
      </trkpt>
      <trkpt lat="45.93696" lon="4.72348">
        <ele>171</ele>
        <time>2017-03-29T11:11:31Z</time>
      </trkpt>
      <trkpt lat="45.93691" lon="4.72344">
        <ele>171</ele>
        <time>2017-03-29T11:11:32Z</time>
      </trkpt>
      <trkpt lat="45.93685" lon="4.7234">
        <ele>171</ele>
        <time>2017-03-29T11:11:33Z</time>
      </trkpt>
      <trkpt lat="45.93681" lon="4.72337">
        <ele>171</ele>
        <time>2017-03-29T11:11:34Z</time>
      </trkpt>
      <trkpt lat="45.93676" lon="4.72334">
        <ele>171</ele>
        <time>2017-03-29T11:11:35Z</time>
      </trkpt>
      <trkpt lat="45.93672" lon="4.7233">
        <ele>171</ele>
        <time>2017-03-29T11:11:36Z</time>
      </trkpt>
      <trkpt lat="45.93667" lon="4.72325">
        <ele>171</ele>
        <time>2017-03-29T11:11:37Z</time>
      </trkpt>
      <trkpt lat="45.93663" lon="4.72321">
        <ele>172</ele>
        <time>2017-03-29T11:11:38Z</time>
      </trkpt>
      <trkpt lat="45.93659" lon="4.72316">
        <ele>172</ele>
        <time>2017-03-29T11:11:39Z</time>
      </trkpt>
      <trkpt lat="45.93656" lon="4.72311">
        <ele>172</ele>
        <time>2017-03-29T11:11:40Z</time>
      </trkpt>
      <trkpt lat="45.93652" lon="4.72307">
        <ele>172</ele>
        <time>2017-03-29T11:11:41Z</time>
      </trkpt>
      <trkpt lat="45.93648" lon="4.72302">
        <ele>172</ele>
        <time>2017-03-29T11:11:42Z</time>
      </trkpt>
      <trkpt lat="45.93641" lon="4.72295">
        <ele>172</ele>
        <time>2017-03-29T11:11:44Z</time>
      </trkpt>
      <trkpt lat="45.93638" lon="4.72292">
        <ele>172</ele>
        <time>2017-03-29T11:11:45Z</time>
      </trkpt>
      <trkpt lat="45.93632" lon="4.72286">
        <ele>172</ele>
        <time>2017-03-29T11:11:47Z</time>
      </trkpt>
      <trkpt lat="45.93629" lon="4.72283">
        <ele>172</ele>
        <time>2017-03-29T11:11:48Z</time>
      </trkpt>
      <trkpt lat="45.93623" lon="4.72276">
        <ele>172</ele>
        <time>2017-03-29T11:11:50Z</time>
      </trkpt>
      <trkpt lat="45.9362" lon="4.72273">
        <ele>172</ele>
        <time>2017-03-29T11:11:51Z</time>
      </trkpt>
      <trkpt lat="45.93614" lon="4.72265">
        <ele>172</ele>
        <time>2017-03-29T11:11:53Z</time>
      </trkpt>
      <trkpt lat="45.9361" lon="4.72262">
        <ele>172</ele>
        <time>2017-03-29T11:11:54Z</time>
      </trkpt>
      <trkpt lat="45.93604" lon="4.72254">
        <ele>173</ele>
        <time>2017-03-29T11:11:56Z</time>
      </trkpt>
      <trkpt lat="45.93599" lon="4.72252">
        <ele>173</ele>
        <time>2017-03-29T11:11:57Z</time>
      </trkpt>
      <trkpt lat="45.93592" lon="4.72248">
        <ele>173</ele>
        <time>2017-03-29T11:11:58Z</time>
      </trkpt>
      <trkpt lat="45.93587" lon="4.72244">
        <ele>173</ele>
        <time>2017-03-29T11:11:59Z</time>
      </trkpt>
      <trkpt lat="45.93582" lon="4.72235">
        <ele>173</ele>
        <time>2017-03-29T11:12:01Z</time>
      </trkpt>
      <trkpt lat="45.9358" lon="4.7223">
        <ele>173</ele>
        <time>2017-03-29T11:12:02Z</time>
      </trkpt>
      <trkpt lat="45.93575" lon="4.72221">
        <ele>173</ele>
        <time>2017-03-29T11:12:04Z</time>
      </trkpt>
      <trkpt lat="45.93573" lon="4.72215">
        <ele>173</ele>
        <time>2017-03-29T11:12:05Z</time>
      </trkpt>
      <trkpt lat="45.93568" lon="4.72207">
        <ele>173</ele>
        <time>2017-03-29T11:12:07Z</time>
      </trkpt>
      <trkpt lat="45.93564" lon="4.72205">
        <ele>173</ele>
        <time>2017-03-29T11:12:08Z</time>
      </trkpt>
      <trkpt lat="45.93559" lon="4.72206">
        <ele>173</ele>
        <time>2017-03-29T11:12:09Z</time>
      </trkpt>
      <trkpt lat="45.93555" lon="4.72208">
        <ele>173</ele>
        <time>2017-03-29T11:12:10Z</time>
      </trkpt>
      <trkpt lat="45.9355" lon="4.72218">
        <ele>173</ele>
        <time>2017-03-29T11:12:12Z</time>
      </trkpt>
      <trkpt lat="45.93548" lon="4.72224">
        <ele>172</ele>
        <time>2017-03-29T11:12:13Z</time>
      </trkpt>
      <trkpt lat="45.93543" lon="4.72235">
        <ele>172</ele>
        <time>2017-03-29T11:12:15Z</time>
      </trkpt>
      <trkpt lat="45.9354" lon="4.7224">
        <ele>172</ele>
        <time>2017-03-29T11:12:16Z</time>
      </trkpt>
      <trkpt lat="45.93535" lon="4.72251">
        <ele>172</ele>
        <time>2017-03-29T11:12:18Z</time>
      </trkpt>
      <trkpt lat="45.93532" lon="4.72257">
        <ele>172</ele>
        <time>2017-03-29T11:12:19Z</time>
      </trkpt>
      <trkpt lat="45.9353" lon="4.72262">
        <ele>172</ele>
        <time>2017-03-29T11:12:20Z</time>
      </trkpt>
      <trkpt lat="45.93527" lon="4.72268">
        <ele>172</ele>
        <time>2017-03-29T11:12:21Z</time>
      </trkpt>
      <trkpt lat="45.93525" lon="4.72275">
        <ele>172</ele>
        <time>2017-03-29T11:12:22Z</time>
      </trkpt>
      <trkpt lat="45.93523" lon="4.72281">
        <ele>172</ele>
        <time>2017-03-29T11:12:23Z</time>
      </trkpt>
      <trkpt lat="45.9352" lon="4.72287">
        <ele>172</ele>
        <time>2017-03-29T11:12:24Z</time>
      </trkpt>
      <trkpt lat="45.93517" lon="4.72294">
        <ele>172</ele>
        <time>2017-03-29T11:12:25Z</time>
      </trkpt>
      <trkpt lat="45.93513" lon="4.723">
        <ele>172</ele>
        <time>2017-03-29T11:12:26Z</time>
      </trkpt>
      <trkpt lat="45.93509" lon="4.72305">
        <ele>173</ele>
        <time>2017-03-29T11:12:27Z</time>
      </trkpt>
      <trkpt lat="45.93505" lon="4.72311">
        <ele>173</ele>
        <time>2017-03-29T11:12:28Z</time>
      </trkpt>
      <trkpt lat="45.93501" lon="4.72317">
        <ele>173</ele>
        <time>2017-03-29T11:12:29Z</time>
      </trkpt>
      <trkpt lat="45.93497" lon="4.72323">
        <ele>173</ele>
        <time>2017-03-29T11:12:30Z</time>
      </trkpt>
      <trkpt lat="45.93493" lon="4.7233">
        <ele>173</ele>
        <time>2017-03-29T11:12:31Z</time>
      </trkpt>
      <trkpt lat="45.93489" lon="4.72335">
        <ele>173</ele>
        <time>2017-03-29T11:12:32Z</time>
      </trkpt>
      <trkpt lat="45.93485" lon="4.72341">
        <ele>173</ele>
        <time>2017-03-29T11:12:33Z</time>
      </trkpt>
      <trkpt lat="45.93481" lon="4.72347">
        <ele>173</ele>
        <time>2017-03-29T11:12:34Z</time>
      </trkpt>
      <trkpt lat="45.93475" lon="4.72352">
        <ele>173</ele>
        <time>2017-03-29T11:12:35Z</time>
      </trkpt>
      <trkpt lat="45.93471" lon="4.72357">
        <ele>173</ele>
        <time>2017-03-29T11:12:36Z</time>
      </trkpt>
      <trkpt lat="45.93467" lon="4.72363">
        <ele>173</ele>
        <time>2017-03-29T11:12:37Z</time>
      </trkpt>
      <trkpt lat="45.93463" lon="4.72368">
        <ele>173</ele>
        <time>2017-03-29T11:12:38Z</time>
      </trkpt>
      <trkpt lat="45.93459" lon="4.72374">
        <ele>173</ele>
        <time>2017-03-29T11:12:39Z</time>
      </trkpt>
      <trkpt lat="45.93455" lon="4.72379">
        <ele>173</ele>
        <time>2017-03-29T11:12:40Z</time>
      </trkpt>
      <trkpt lat="45.93451" lon="4.72383">
        <ele>173</ele>
        <time>2017-03-29T11:12:41Z</time>
      </trkpt>
      <trkpt lat="45.93447" lon="4.72387">
        <ele>173</ele>
        <time>2017-03-29T11:12:42Z</time>
      </trkpt>
      <trkpt lat="45.93442" lon="4.72391">
        <ele>173</ele>
        <time>2017-03-29T11:12:43Z</time>
      </trkpt>
      <trkpt lat="45.93437" lon="4.72394">
        <ele>173</ele>
        <time>2017-03-29T11:12:44Z</time>
      </trkpt>
      <trkpt lat="45.93432" lon="4.72397">
        <ele>173</ele>
        <time>2017-03-29T11:12:45Z</time>
      </trkpt>
      <trkpt lat="45.93426" lon="4.72399">
        <ele>174</ele>
        <time>2017-03-29T11:12:46Z</time>
      </trkpt>
      <trkpt lat="45.93421" lon="4.72401">
        <ele>174</ele>
        <time>2017-03-29T11:12:47Z</time>
      </trkpt>
      <trkpt lat="45.93415" lon="4.72403">
        <ele>174</ele>
        <time>2017-03-29T11:12:48Z</time>
      </trkpt>
      <trkpt lat="45.9341" lon="4.72403">
        <ele>174</ele>
        <time>2017-03-29T11:12:49Z</time>
      </trkpt>
      <trkpt lat="45.93404" lon="4.72404">
        <ele>174</ele>
        <time>2017-03-29T11:12:50Z</time>
      </trkpt>
      <trkpt lat="45.934" lon="4.72403">
        <ele>174</ele>
        <time>2017-03-29T11:12:51Z</time>
      </trkpt>
      <trkpt lat="45.93396" lon="4.72403">
        <ele>174</ele>
        <time>2017-03-29T11:12:52Z</time>
      </trkpt>
      <trkpt lat="45.93391" lon="4.72404">
        <ele>174</ele>
        <time>2017-03-29T11:12:53Z</time>
      </trkpt>
      <trkpt lat="45.93386" lon="4.72408">
        <ele>174</ele>
        <time>2017-03-29T11:12:54Z</time>
      </trkpt>
      <trkpt lat="45.93383" lon="4.72415">
        <ele>174</ele>
        <time>2017-03-29T11:12:55Z</time>
      </trkpt>
      <trkpt lat="45.93382" lon="4.72422">
        <ele>173</ele>
        <time>2017-03-29T11:12:56Z</time>
      </trkpt>
      <trkpt lat="45.93384" lon="4.7243">
        <ele>173</ele>
        <time>2017-03-29T11:12:57Z</time>
      </trkpt>
      <trkpt lat="45.93386" lon="4.72437">
        <ele>173</ele>
        <time>2017-03-29T11:12:58Z</time>
      </trkpt>
      <trkpt lat="45.93389" lon="4.72446">
        <ele>173</ele>
        <time>2017-03-29T11:12:59Z</time>
      </trkpt>
      <trkpt lat="45.9339" lon="4.72454">
        <ele>173</ele>
        <time>2017-03-29T11:13:00Z</time>
      </trkpt>
      <trkpt lat="45.93389" lon="4.72461">
        <ele>173</ele>
        <time>2017-03-29T11:13:01Z</time>
      </trkpt>
      <trkpt lat="45.93385" lon="4.72468">
        <ele>173</ele>
        <time>2017-03-29T11:13:02Z</time>
      </trkpt>
      <trkpt lat="45.93382" lon="4.72473">
        <ele>173</ele>
        <time>2017-03-29T11:13:03Z</time>
      </trkpt>
      <trkpt lat="45.93378" lon="4.72477">
        <ele>173</ele>
        <time>2017-03-29T11:13:04Z</time>
      </trkpt>
      <trkpt lat="45.93373" lon="4.72482">
        <ele>173</ele>
        <time>2017-03-29T11:13:05Z</time>
      </trkpt>
      <trkpt lat="45.93369" lon="4.72486">
        <ele>173</ele>
        <time>2017-03-29T11:13:06Z</time>
      </trkpt>
      <trkpt lat="45.93365" lon="4.7249">
        <ele>173</ele>
        <time>2017-03-29T11:13:07Z</time>
      </trkpt>
      <trkpt lat="45.93361" lon="4.72495">
        <ele>173</ele>
        <time>2017-03-29T11:13:08Z</time>
      </trkpt>
      <trkpt lat="45.93356" lon="4.725">
        <ele>173</ele>
        <time>2017-03-29T11:13:09Z</time>
      </trkpt>
      <trkpt lat="45.93352" lon="4.72505">
        <ele>172</ele>
        <time>2017-03-29T11:13:10Z</time>
      </trkpt>
      <trkpt lat="45.93347" lon="4.7251">
        <ele>172</ele>
        <time>2017-03-29T11:13:11Z</time>
      </trkpt>
      <trkpt lat="45.93341" lon="4.72515">
        <ele>172</ele>
        <time>2017-03-29T11:13:12Z</time>
      </trkpt>
      <trkpt lat="45.93337" lon="4.72521">
        <ele>172</ele>
        <time>2017-03-29T11:13:13Z</time>
      </trkpt>
      <trkpt lat="45.93332" lon="4.72527">
        <ele>172</ele>
        <time>2017-03-29T11:13:14Z</time>
      </trkpt>
      <trkpt lat="45.93328" lon="4.72532">
        <ele>172</ele>
        <time>2017-03-29T11:13:15Z</time>
      </trkpt>
      <trkpt lat="45.93323" lon="4.72537">
        <ele>172</ele>
        <time>2017-03-29T11:13:16Z</time>
      </trkpt>
      <trkpt lat="45.93319" lon="4.72542">
        <ele>172</ele>
        <time>2017-03-29T11:13:17Z</time>
      </trkpt>
      <trkpt lat="45.93316" lon="4.72547">
        <ele>172</ele>
        <time>2017-03-29T11:13:18Z</time>
      </trkpt>
      <trkpt lat="45.93312" lon="4.72552">
        <ele>172</ele>
        <time>2017-03-29T11:13:19Z</time>
      </trkpt>
      <trkpt lat="45.93308" lon="4.72557">
        <ele>172</ele>
        <time>2017-03-29T11:13:20Z</time>
      </trkpt>
      <trkpt lat="45.93304" lon="4.72562">
        <ele>172</ele>
        <time>2017-03-29T11:13:21Z</time>
      </trkpt>
      <trkpt lat="45.933" lon="4.72567">
        <ele>172</ele>
        <time>2017-03-29T11:13:22Z</time>
      </trkpt>
      <trkpt lat="45.93295" lon="4.72572">
        <ele>171</ele>
        <time>2017-03-29T11:13:23Z</time>
      </trkpt>
      <trkpt lat="45.93291" lon="4.72578">
        <ele>171</ele>
        <time>2017-03-29T11:13:24Z</time>
      </trkpt>
      <trkpt lat="45.93287" lon="4.72583">
        <ele>171</ele>
        <time>2017-03-29T11:13:25Z</time>
      </trkpt>
      <trkpt lat="45.93283" lon="4.72587">
        <ele>170</ele>
        <time>2017-03-29T11:13:26Z</time>
      </trkpt>
      <trkpt lat="45.93278" lon="4.72592">
        <ele>170</ele>
        <time>2017-03-29T11:13:27Z</time>
      </trkpt>
      <trkpt lat="45.93274" lon="4.72596">
        <ele>170</ele>
        <time>2017-03-29T11:13:28Z</time>
      </trkpt>
      <trkpt lat="45.9327" lon="4.72601">
        <ele>170</ele>
        <time>2017-03-29T11:13:29Z</time>
      </trkpt>
      <trkpt lat="45.93265" lon="4.72606">
        <ele>170</ele>
        <time>2017-03-29T11:13:30Z</time>
      </trkpt>
      <trkpt lat="45.93261" lon="4.72611">
        <ele>170</ele>
        <time>2017-03-29T11:13:31Z</time>
      </trkpt>
      <trkpt lat="45.93256" lon="4.72617">
        <ele>170</ele>
        <time>2017-03-29T11:13:32Z</time>
      </trkpt>
      <trkpt lat="45.93251" lon="4.72622">
        <ele>170</ele>
        <time>2017-03-29T11:13:33Z</time>
      </trkpt>
      <trkpt lat="45.93246" lon="4.72628">
        <ele>170</ele>
        <time>2017-03-29T11:13:34Z</time>
      </trkpt>
      <trkpt lat="45.93241" lon="4.72634">
        <ele>170</ele>
        <time>2017-03-29T11:13:35Z</time>
      </trkpt>
      <trkpt lat="45.93236" lon="4.72639">
        <ele>170</ele>
        <time>2017-03-29T11:13:36Z</time>
      </trkpt>
      <trkpt lat="45.93232" lon="4.72645">
        <ele>170</ele>
        <time>2017-03-29T11:13:37Z</time>
      </trkpt>
      <trkpt lat="45.93227" lon="4.7265">
        <ele>170</ele>
        <time>2017-03-29T11:13:38Z</time>
      </trkpt>
      <trkpt lat="45.93223" lon="4.72655">
        <ele>170</ele>
        <time>2017-03-29T11:13:39Z</time>
      </trkpt>
      <trkpt lat="45.93219" lon="4.7266">
        <ele>170</ele>
        <time>2017-03-29T11:13:40Z</time>
      </trkpt>
      <trkpt lat="45.93215" lon="4.72665">
        <ele>170</ele>
        <time>2017-03-29T11:13:41Z</time>
      </trkpt>
      <trkpt lat="45.9321" lon="4.7267">
        <ele>169</ele>
        <time>2017-03-29T11:13:42Z</time>
      </trkpt>
      <trkpt lat="45.93206" lon="4.72675">
        <ele>169</ele>
        <time>2017-03-29T11:13:43Z</time>
      </trkpt>
      <trkpt lat="45.93201" lon="4.7268">
        <ele>169</ele>
        <time>2017-03-29T11:13:44Z</time>
      </trkpt>
      <trkpt lat="45.93197" lon="4.72685">
        <ele>169</ele>
        <time>2017-03-29T11:13:45Z</time>
      </trkpt>
      <trkpt lat="45.93193" lon="4.72689">
        <ele>169</ele>
        <time>2017-03-29T11:13:46Z</time>
      </trkpt>
      <trkpt lat="45.93189" lon="4.72694">
        <ele>169</ele>
        <time>2017-03-29T11:13:47Z</time>
      </trkpt>
      <trkpt lat="45.93185" lon="4.72699">
        <ele>169</ele>
        <time>2017-03-29T11:13:48Z</time>
      </trkpt>
      <trkpt lat="45.9318" lon="4.72704">
        <ele>169</ele>
        <time>2017-03-29T11:13:49Z</time>
      </trkpt>
      <trkpt lat="45.93176" lon="4.7271">
        <ele>169</ele>
        <time>2017-03-29T11:13:50Z</time>
      </trkpt>
      <trkpt lat="45.93171" lon="4.72715">
        <ele>170</ele>
        <time>2017-03-29T11:13:51Z</time>
      </trkpt>
      <trkpt lat="45.93167" lon="4.72721">
        <ele>170</ele>
        <time>2017-03-29T11:13:52Z</time>
      </trkpt>
      <trkpt lat="45.93162" lon="4.72726">
        <ele>170</ele>
        <time>2017-03-29T11:13:53Z</time>
      </trkpt>
      <trkpt lat="45.93157" lon="4.72731">
        <ele>170</ele>
        <time>2017-03-29T11:13:54Z</time>
      </trkpt>
      <trkpt lat="45.93152" lon="4.72737">
        <ele>170</ele>
        <time>2017-03-29T11:13:55Z</time>
      </trkpt>
      <trkpt lat="45.93148" lon="4.72742">
        <ele>170</ele>
        <time>2017-03-29T11:13:56Z</time>
      </trkpt>
      <trkpt lat="45.93143" lon="4.72748">
        <ele>170</ele>
        <time>2017-03-29T11:13:57Z</time>
      </trkpt>
      <trkpt lat="45.93138" lon="4.72754">
        <ele>171</ele>
        <time>2017-03-29T11:13:58Z</time>
      </trkpt>
      <trkpt lat="45.93134" lon="4.72759">
        <ele>171</ele>
        <time>2017-03-29T11:13:59Z</time>
      </trkpt>
      <trkpt lat="45.9313" lon="4.72764">
        <ele>171</ele>
        <time>2017-03-29T11:14:00Z</time>
      </trkpt>
      <trkpt lat="45.93125" lon="4.7277">
        <ele>171</ele>
        <time>2017-03-29T11:14:01Z</time>
      </trkpt>
      <trkpt lat="45.93121" lon="4.72775">
        <ele>171</ele>
        <time>2017-03-29T11:14:02Z</time>
      </trkpt>
      <trkpt lat="45.93118" lon="4.72779">
        <ele>171</ele>
        <time>2017-03-29T11:14:03Z</time>
      </trkpt>
      <trkpt lat="45.93114" lon="4.72784">
        <ele>171</ele>
        <time>2017-03-29T11:14:04Z</time>
      </trkpt>
      <trkpt lat="45.9311" lon="4.72789">
        <ele>171</ele>
        <time>2017-03-29T11:14:05Z</time>
      </trkpt>
      <trkpt lat="45.93105" lon="4.72794">
        <ele>171</ele>
        <time>2017-03-29T11:14:06Z</time>
      </trkpt>
      <trkpt lat="45.93101" lon="4.72799">
        <ele>171</ele>
        <time>2017-03-29T11:14:07Z</time>
      </trkpt>
      <trkpt lat="45.93096" lon="4.72805">
        <ele>171</ele>
        <time>2017-03-29T11:14:08Z</time>
      </trkpt>
      <trkpt lat="45.93091" lon="4.7281">
        <ele>172</ele>
        <time>2017-03-29T11:14:09Z</time>
      </trkpt>
      <trkpt lat="45.93086" lon="4.72815">
        <ele>172</ele>
        <time>2017-03-29T11:14:10Z</time>
      </trkpt>
      <trkpt lat="45.93082" lon="4.7282">
        <ele>173</ele>
        <time>2017-03-29T11:14:11Z</time>
      </trkpt>
      <trkpt lat="45.93078" lon="4.72825">
        <ele>173</ele>
        <time>2017-03-29T11:14:12Z</time>
      </trkpt>
      <trkpt lat="45.93074" lon="4.72828">
        <ele>173</ele>
        <time>2017-03-29T11:14:13Z</time>
      </trkpt>
      <trkpt lat="45.93066" lon="4.72834">
        <ele>173</ele>
        <time>2017-03-29T11:14:15Z</time>
      </trkpt>
      <trkpt lat="45.93063" lon="4.72837">
        <ele>173</ele>
        <time>2017-03-29T11:14:16Z</time>
      </trkpt>
      <trkpt lat="45.93058" lon="4.72844">
        <ele>172</ele>
        <time>2017-03-29T11:14:17Z</time>
      </trkpt>
      <trkpt lat="45.93054" lon="4.72849">
        <ele>172</ele>
        <time>2017-03-29T11:14:18Z</time>
      </trkpt>
      <trkpt lat="45.93049" lon="4.72852">
        <ele>172</ele>
        <time>2017-03-29T11:14:19Z</time>
      </trkpt>
      <trkpt lat="45.93044" lon="4.72857">
        <ele>172</ele>
        <time>2017-03-29T11:14:20Z</time>
      </trkpt>
      <trkpt lat="45.9304" lon="4.72862">
        <ele>172</ele>
        <time>2017-03-29T11:14:21Z</time>
      </trkpt>
      <trkpt lat="45.93036" lon="4.72867">
        <ele>172</ele>
        <time>2017-03-29T11:14:22Z</time>
      </trkpt>
      <trkpt lat="45.93033" lon="4.72874">
        <ele>172</ele>
        <time>2017-03-29T11:14:23Z</time>
      </trkpt>
      <trkpt lat="45.93029" lon="4.72879">
        <ele>172</ele>
        <time>2017-03-29T11:14:24Z</time>
      </trkpt>
      <trkpt lat="45.93025" lon="4.72885">
        <ele>172</ele>
        <time>2017-03-29T11:14:25Z</time>
      </trkpt>
      <trkpt lat="45.9302" lon="4.7289">
        <ele>172</ele>
        <time>2017-03-29T11:14:26Z</time>
      </trkpt>
      <trkpt lat="45.93016" lon="4.72897">
        <ele>172</ele>
        <time>2017-03-29T11:14:27Z</time>
      </trkpt>
      <trkpt lat="45.93012" lon="4.72902">
        <ele>172</ele>
        <time>2017-03-29T11:14:28Z</time>
      </trkpt>
      <trkpt lat="45.93009" lon="4.72907">
        <ele>171</ele>
        <time>2017-03-29T11:14:29Z</time>
      </trkpt>
      <trkpt lat="45.93005" lon="4.72912">
        <ele>171</ele>
        <time>2017-03-29T11:14:30Z</time>
      </trkpt>
      <trkpt lat="45.93001" lon="4.72917">
        <ele>171</ele>
        <time>2017-03-29T11:14:31Z</time>
      </trkpt>
      <trkpt lat="45.92997" lon="4.72922">
        <ele>171</ele>
        <time>2017-03-29T11:14:32Z</time>
      </trkpt>
      <trkpt lat="45.92993" lon="4.72927">
        <ele>171</ele>
        <time>2017-03-29T11:14:33Z</time>
      </trkpt>
      <trkpt lat="45.92989" lon="4.72932">
        <ele>171</ele>
        <time>2017-03-29T11:14:34Z</time>
      </trkpt>
      <trkpt lat="45.92985" lon="4.72937">
        <ele>171</ele>
        <time>2017-03-29T11:14:35Z</time>
      </trkpt>
      <trkpt lat="45.9298" lon="4.72942">
        <ele>171</ele>
        <time>2017-03-29T11:14:36Z</time>
      </trkpt>
      <trkpt lat="45.92976" lon="4.72946">
        <ele>171</ele>
        <time>2017-03-29T11:14:37Z</time>
      </trkpt>
      <trkpt lat="45.92972" lon="4.72951">
        <ele>171</ele>
        <time>2017-03-29T11:14:38Z</time>
      </trkpt>
      <trkpt lat="45.92968" lon="4.72956">
        <ele>171</ele>
        <time>2017-03-29T11:14:39Z</time>
      </trkpt>
      <trkpt lat="45.92963" lon="4.72961">
        <ele>171</ele>
        <time>2017-03-29T11:14:40Z</time>
      </trkpt>
      <trkpt lat="45.92959" lon="4.72967">
        <ele>171</ele>
        <time>2017-03-29T11:14:41Z</time>
      </trkpt>
      <trkpt lat="45.92955" lon="4.72972">
        <ele>171</ele>
        <time>2017-03-29T11:14:42Z</time>
      </trkpt>
      <trkpt lat="45.92951" lon="4.72977">
        <ele>171</ele>
        <time>2017-03-29T11:14:43Z</time>
      </trkpt>
      <trkpt lat="45.92947" lon="4.72982">
        <ele>171</ele>
        <time>2017-03-29T11:14:44Z</time>
      </trkpt>
      <trkpt lat="45.92942" lon="4.72987">
        <ele>171</ele>
        <time>2017-03-29T11:14:45Z</time>
      </trkpt>
      <trkpt lat="45.92938" lon="4.72992">
        <ele>171</ele>
        <time>2017-03-29T11:14:46Z</time>
      </trkpt>
      <trkpt lat="45.92935" lon="4.72996">
        <ele>172</ele>
        <time>2017-03-29T11:14:47Z</time>
      </trkpt>
      <trkpt lat="45.92931" lon="4.73">
        <ele>172</ele>
        <time>2017-03-29T11:14:48Z</time>
      </trkpt>
      <trkpt lat="45.92927" lon="4.73005">
        <ele>172</ele>
        <time>2017-03-29T11:14:49Z</time>
      </trkpt>
      <trkpt lat="45.92924" lon="4.73009">
        <ele>172</ele>
        <time>2017-03-29T11:14:50Z</time>
      </trkpt>
      <trkpt lat="45.9292" lon="4.73014">
        <ele>172</ele>
        <time>2017-03-29T11:14:51Z</time>
      </trkpt>
      <trkpt lat="45.92916" lon="4.73019">
        <ele>172</ele>
        <time>2017-03-29T11:14:52Z</time>
      </trkpt>
      <trkpt lat="45.92912" lon="4.73023">
        <ele>172</ele>
        <time>2017-03-29T11:14:53Z</time>
      </trkpt>
      <trkpt lat="45.92909" lon="4.73028">
        <ele>172</ele>
        <time>2017-03-29T11:14:54Z</time>
      </trkpt>
      <trkpt lat="45.92905" lon="4.73033">
        <ele>172</ele>
        <time>2017-03-29T11:14:55Z</time>
      </trkpt>
      <trkpt lat="45.92901" lon="4.73038">
        <ele>172</ele>
        <time>2017-03-29T11:14:56Z</time>
      </trkpt>
      <trkpt lat="45.92898" lon="4.73043">
        <ele>172</ele>
        <time>2017-03-29T11:14:57Z</time>
      </trkpt>
      <trkpt lat="45.92895" lon="4.73049">
        <ele>172</ele>
        <time>2017-03-29T11:14:58Z</time>
      </trkpt>
      <trkpt lat="45.92892" lon="4.73054">
        <ele>172</ele>
        <time>2017-03-29T11:14:59Z</time>
      </trkpt>
      <trkpt lat="45.92888" lon="4.73059">
        <ele>172</ele>
        <time>2017-03-29T11:15:00Z</time>
      </trkpt>
      <trkpt lat="45.92885" lon="4.73064">
        <ele>172</ele>
        <time>2017-03-29T11:15:01Z</time>
      </trkpt>
      <trkpt lat="45.92881" lon="4.73069">
        <ele>172</ele>
        <time>2017-03-29T11:15:02Z</time>
      </trkpt>
      <trkpt lat="45.92878" lon="4.73074">
        <ele>172</ele>
        <time>2017-03-29T11:15:03Z</time>
      </trkpt>
      <trkpt lat="45.92874" lon="4.73079">
        <ele>172</ele>
        <time>2017-03-29T11:15:04Z</time>
      </trkpt>
      <trkpt lat="45.9287" lon="4.73084">
        <ele>172</ele>
        <time>2017-03-29T11:15:05Z</time>
      </trkpt>
      <trkpt lat="45.92867" lon="4.73089">
        <ele>172</ele>
        <time>2017-03-29T11:15:06Z</time>
      </trkpt>
      <trkpt lat="45.92863" lon="4.73095">
        <ele>171</ele>
        <time>2017-03-29T11:15:07Z</time>
      </trkpt>
      <trkpt lat="45.9286" lon="4.731">
        <ele>171</ele>
        <time>2017-03-29T11:15:08Z</time>
      </trkpt>
      <trkpt lat="45.92852" lon="4.73104">
        <ele>171</ele>
        <time>2017-03-29T11:15:10Z</time>
      </trkpt>
      <trkpt lat="45.92849" lon="4.73103">
        <ele>171</ele>
        <time>2017-03-29T11:15:11Z</time>
      </trkpt>
      <trkpt lat="45.92846" lon="4.73092">
        <ele>171</ele>
        <time>2017-03-29T11:15:13Z</time>
      </trkpt>
      <trkpt lat="45.92845" lon="4.73085">
        <ele>171</ele>
        <time>2017-03-29T11:15:14Z</time>
      </trkpt>
      <trkpt lat="45.92845" lon="4.73078">
        <ele>171</ele>
        <time>2017-03-29T11:15:15Z</time>
      </trkpt>
      <trkpt lat="45.92844" lon="4.7307">
        <ele>171</ele>
        <time>2017-03-29T11:15:16Z</time>
      </trkpt>
      <trkpt lat="45.92843" lon="4.73063">
        <ele>171</ele>
        <time>2017-03-29T11:15:17Z</time>
      </trkpt>
      <trkpt lat="45.92841" lon="4.73055">
        <ele>171</ele>
        <time>2017-03-29T11:15:18Z</time>
      </trkpt>
      <trkpt lat="45.9284" lon="4.73046">
        <ele>171</ele>
        <time>2017-03-29T11:15:19Z</time>
      </trkpt>
      <trkpt lat="45.92839" lon="4.73038">
        <ele>171</ele>
        <time>2017-03-29T11:15:20Z</time>
      </trkpt>
      <trkpt lat="45.92837" lon="4.7303">
        <ele>171</ele>
        <time>2017-03-29T11:15:21Z</time>
      </trkpt>
      <trkpt lat="45.92836" lon="4.73022">
        <ele>171</ele>
        <time>2017-03-29T11:15:22Z</time>
      </trkpt>
      <trkpt lat="45.92835" lon="4.73015">
        <ele>171</ele>
        <time>2017-03-29T11:15:23Z</time>
      </trkpt>
      <trkpt lat="45.92834" lon="4.73007">
        <ele>170</ele>
        <time>2017-03-29T11:15:24Z</time>
      </trkpt>
      <trkpt lat="45.92833" lon="4.73">
        <ele>170</ele>
        <time>2017-03-29T11:15:25Z</time>
      </trkpt>
      <trkpt lat="45.92832" lon="4.72993">
        <ele>170</ele>
        <time>2017-03-29T11:15:26Z</time>
      </trkpt>
      <trkpt lat="45.92831" lon="4.72985">
        <ele>170</ele>
        <time>2017-03-29T11:15:27Z</time>
      </trkpt>
      <trkpt lat="45.9283" lon="4.72978">
        <ele>170</ele>
        <time>2017-03-29T11:15:28Z</time>
      </trkpt>
      <trkpt lat="45.9283" lon="4.72971">
        <ele>170</ele>
        <time>2017-03-29T11:15:29Z</time>
      </trkpt>
      <trkpt lat="45.92829" lon="4.72965">
        <ele>170</ele>
        <time>2017-03-29T11:15:30Z</time>
      </trkpt>
      <trkpt lat="45.92829" lon="4.72958">
        <ele>170</ele>
        <time>2017-03-29T11:15:31Z</time>
      </trkpt>
      <trkpt lat="45.92828" lon="4.72951">
        <ele>170</ele>
        <time>2017-03-29T11:15:32Z</time>
      </trkpt>
      <trkpt lat="45.92827" lon="4.72943">
        <ele>170</ele>
        <time>2017-03-29T11:15:33Z</time>
      </trkpt>
      <trkpt lat="45.92826" lon="4.72936">
        <ele>170</ele>
        <time>2017-03-29T11:15:34Z</time>
      </trkpt>
      <trkpt lat="45.92825" lon="4.72928">
        <ele>170</ele>
        <time>2017-03-29T11:15:35Z</time>
      </trkpt>
      <trkpt lat="45.92824" lon="4.72919">
        <ele>170</ele>
        <time>2017-03-29T11:15:36Z</time>
      </trkpt>
      <trkpt lat="45.92823" lon="4.72911">
        <ele>170</ele>
        <time>2017-03-29T11:15:37Z</time>
      </trkpt>
      <trkpt lat="45.92822" lon="4.72902">
        <ele>170</ele>
        <time>2017-03-29T11:15:38Z</time>
      </trkpt>
      <trkpt lat="45.92821" lon="4.72894">
        <ele>170</ele>
        <time>2017-03-29T11:15:39Z</time>
      </trkpt>
      <trkpt lat="45.9282" lon="4.72885">
        <ele>170</ele>
        <time>2017-03-29T11:15:40Z</time>
      </trkpt>
      <trkpt lat="45.92818" lon="4.72877">
        <ele>170</ele>
        <time>2017-03-29T11:15:41Z</time>
      </trkpt>
      <trkpt lat="45.92816" lon="4.72869">
        <ele>170</ele>
        <time>2017-03-29T11:15:42Z</time>
      </trkpt>
      <trkpt lat="45.92814" lon="4.72861">
        <ele>170</ele>
        <time>2017-03-29T11:15:43Z</time>
      </trkpt>
      <trkpt lat="45.92813" lon="4.72853">
        <ele>170</ele>
        <time>2017-03-29T11:15:44Z</time>
      </trkpt>
      <trkpt lat="45.92812" lon="4.72845">
        <ele>170</ele>
        <time>2017-03-29T11:15:45Z</time>
      </trkpt>
      <trkpt lat="45.92811" lon="4.72838">
        <ele>170</ele>
        <time>2017-03-29T11:15:46Z</time>
      </trkpt>
      <trkpt lat="45.92809" lon="4.7283">
        <ele>171</ele>
        <time>2017-03-29T11:15:47Z</time>
      </trkpt>
      <trkpt lat="45.92808" lon="4.72823">
        <ele>171</ele>
        <time>2017-03-29T11:15:48Z</time>
      </trkpt>
      <trkpt lat="45.92807" lon="4.72816">
        <ele>171</ele>
        <time>2017-03-29T11:15:49Z</time>
      </trkpt>
      <trkpt lat="45.92806" lon="4.72809">
        <ele>171</ele>
        <time>2017-03-29T11:15:50Z</time>
      </trkpt>
      <trkpt lat="45.92804" lon="4.72802">
        <ele>171</ele>
        <time>2017-03-29T11:15:51Z</time>
      </trkpt>
      <trkpt lat="45.92803" lon="4.72795">
        <ele>171</ele>
        <time>2017-03-29T11:15:52Z</time>
      </trkpt>
      <trkpt lat="45.92799" lon="4.72786">
        <ele>171</ele>
        <time>2017-03-29T11:15:54Z</time>
      </trkpt>
      <trkpt lat="45.92796" lon="4.72785">
        <ele>171</ele>
        <time>2017-03-29T11:15:55Z</time>
      </trkpt>
      <trkpt lat="45.9279" lon="4.72786">
        <ele>171</ele>
        <time>2017-03-29T11:15:57Z</time>
      </trkpt>
      <trkpt lat="45.92787" lon="4.72787">
        <ele>171</ele>
        <time>2017-03-29T11:15:58Z</time>
      </trkpt>
      <trkpt lat="45.9278" lon="4.72791">
        <ele>170</ele>
        <time>2017-03-29T11:16:00Z</time>
      </trkpt>
      <trkpt lat="45.92776" lon="4.72793">
        <ele>170</ele>
        <time>2017-03-29T11:16:01Z</time>
      </trkpt>
      <trkpt lat="45.92768" lon="4.72799">
        <ele>170</ele>
        <time>2017-03-29T11:16:03Z</time>
      </trkpt>
      <trkpt lat="45.92764" lon="4.72803">
        <ele>170</ele>
        <time>2017-03-29T11:16:04Z</time>
      </trkpt>
      <trkpt lat="45.92759" lon="4.72807">
        <ele>170</ele>
        <time>2017-03-29T11:16:05Z</time>
      </trkpt>
      <trkpt lat="45.92754" lon="4.72811">
        <ele>170</ele>
        <time>2017-03-29T11:16:06Z</time>
      </trkpt>
      <trkpt lat="45.92749" lon="4.72814">
        <ele>170</ele>
        <time>2017-03-29T11:16:07Z</time>
      </trkpt>
      <trkpt lat="45.92744" lon="4.72818">
        <ele>169</ele>
        <time>2017-03-29T11:16:08Z</time>
      </trkpt>
      <trkpt lat="45.9274" lon="4.72822">
        <ele>169</ele>
        <time>2017-03-29T11:16:09Z</time>
      </trkpt>
      <trkpt lat="45.92735" lon="4.72826">
        <ele>169</ele>
        <time>2017-03-29T11:16:10Z</time>
      </trkpt>
      <trkpt lat="45.92731" lon="4.7283">
        <ele>169</ele>
        <time>2017-03-29T11:16:11Z</time>
      </trkpt>
      <trkpt lat="45.92726" lon="4.72834">
        <ele>169</ele>
        <time>2017-03-29T11:16:12Z</time>
      </trkpt>
      <trkpt lat="45.92721" lon="4.72838">
        <ele>169</ele>
        <time>2017-03-29T11:16:13Z</time>
      </trkpt>
      <trkpt lat="45.92717" lon="4.72842">
        <ele>169</ele>
        <time>2017-03-29T11:16:14Z</time>
      </trkpt>
      <trkpt lat="45.92712" lon="4.72846">
        <ele>169</ele>
        <time>2017-03-29T11:16:15Z</time>
      </trkpt>
      <trkpt lat="45.92708" lon="4.72849">
        <ele>169</ele>
        <time>2017-03-29T11:16:16Z</time>
      </trkpt>
      <trkpt lat="45.92704" lon="4.72852">
        <ele>169</ele>
        <time>2017-03-29T11:16:17Z</time>
      </trkpt>
      <trkpt lat="45.927" lon="4.72856">
        <ele>169</ele>
        <time>2017-03-29T11:16:18Z</time>
      </trkpt>
      <trkpt lat="45.92696" lon="4.72859">
        <ele>169</ele>
        <time>2017-03-29T11:16:19Z</time>
      </trkpt>
      <trkpt lat="45.92691" lon="4.72863">
        <ele>169</ele>
        <time>2017-03-29T11:16:20Z</time>
      </trkpt>
      <trkpt lat="45.92687" lon="4.72867">
        <ele>169</ele>
        <time>2017-03-29T11:16:21Z</time>
      </trkpt>
      <trkpt lat="45.92682" lon="4.72871">
        <ele>169</ele>
        <time>2017-03-29T11:16:22Z</time>
      </trkpt>
      <trkpt lat="45.92678" lon="4.72874">
        <ele>169</ele>
        <time>2017-03-29T11:16:23Z</time>
      </trkpt>
      <trkpt lat="45.92674" lon="4.72878">
        <ele>170</ele>
        <time>2017-03-29T11:16:24Z</time>
      </trkpt>
      <trkpt lat="45.9267" lon="4.72881">
        <ele>170</ele>
        <time>2017-03-29T11:16:25Z</time>
      </trkpt>
      <trkpt lat="45.92666" lon="4.72884">
        <ele>169</ele>
        <time>2017-03-29T11:16:26Z</time>
      </trkpt>
      <trkpt lat="45.92662" lon="4.72887">
        <ele>169</ele>
        <time>2017-03-29T11:16:27Z</time>
      </trkpt>
      <trkpt lat="45.92658" lon="4.7289">
        <ele>169</ele>
        <time>2017-03-29T11:16:28Z</time>
      </trkpt>
      <trkpt lat="45.92654" lon="4.72894">
        <ele>169</ele>
        <time>2017-03-29T11:16:29Z</time>
      </trkpt>
      <trkpt lat="45.9265" lon="4.72898">
        <ele>169</ele>
        <time>2017-03-29T11:16:30Z</time>
      </trkpt>
      <trkpt lat="45.92645" lon="4.72902">
        <ele>169</ele>
        <time>2017-03-29T11:16:31Z</time>
      </trkpt>
      <trkpt lat="45.9264" lon="4.72906">
        <ele>169</ele>
        <time>2017-03-29T11:16:32Z</time>
      </trkpt>
      <trkpt lat="45.92635" lon="4.7291">
        <ele>169</ele>
        <time>2017-03-29T11:16:33Z</time>
      </trkpt>
      <trkpt lat="45.92631" lon="4.72914">
        <ele>169</ele>
        <time>2017-03-29T11:16:34Z</time>
      </trkpt>
      <trkpt lat="45.92625" lon="4.72918">
        <ele>170</ele>
        <time>2017-03-29T11:16:35Z</time>
      </trkpt>
      <trkpt lat="45.9262" lon="4.72923">
        <ele>169</ele>
        <time>2017-03-29T11:16:36Z</time>
      </trkpt>
      <trkpt lat="45.92615" lon="4.72928">
        <ele>169</ele>
        <time>2017-03-29T11:16:37Z</time>
      </trkpt>
      <trkpt lat="45.92609" lon="4.72934">
        <ele>169</ele>
        <time>2017-03-29T11:16:38Z</time>
      </trkpt>
      <trkpt lat="45.92605" lon="4.72939">
        <ele>169</ele>
        <time>2017-03-29T11:16:39Z</time>
      </trkpt>
      <trkpt lat="45.926" lon="4.72945">
        <ele>169</ele>
        <time>2017-03-29T11:16:40Z</time>
      </trkpt>
      <trkpt lat="45.92595" lon="4.7295">
        <ele>169</ele>
        <time>2017-03-29T11:16:41Z</time>
      </trkpt>
      <trkpt lat="45.9259" lon="4.72955">
        <ele>169</ele>
        <time>2017-03-29T11:16:42Z</time>
      </trkpt>
      <trkpt lat="45.92585" lon="4.7296">
        <ele>169</ele>
        <time>2017-03-29T11:16:43Z</time>
      </trkpt>
      <trkpt lat="45.92581" lon="4.72965">
        <ele>169</ele>
        <time>2017-03-29T11:16:44Z</time>
      </trkpt>
      <trkpt lat="45.92577" lon="4.72969">
        <ele>169</ele>
        <time>2017-03-29T11:16:45Z</time>
      </trkpt>
      <trkpt lat="45.92572" lon="4.72974">
        <ele>169</ele>
        <time>2017-03-29T11:16:46Z</time>
      </trkpt>
      <trkpt lat="45.92568" lon="4.72978">
        <ele>169</ele>
        <time>2017-03-29T11:16:47Z</time>
      </trkpt>
      <trkpt lat="45.92564" lon="4.72983">
        <ele>169</ele>
        <time>2017-03-29T11:16:48Z</time>
      </trkpt>
      <trkpt lat="45.9256" lon="4.72987">
        <ele>169</ele>
        <time>2017-03-29T11:16:49Z</time>
      </trkpt>
      <trkpt lat="45.92557" lon="4.72991">
        <ele>169</ele>
        <time>2017-03-29T11:16:50Z</time>
      </trkpt>
      <trkpt lat="45.92553" lon="4.72995">
        <ele>169</ele>
        <time>2017-03-29T11:16:51Z</time>
      </trkpt>
      <trkpt lat="45.92549" lon="4.72999">
        <ele>169</ele>
        <time>2017-03-29T11:16:52Z</time>
      </trkpt>
      <trkpt lat="45.92544" lon="4.73003">
        <ele>169</ele>
        <time>2017-03-29T11:16:53Z</time>
      </trkpt>
      <trkpt lat="45.92539" lon="4.73007">
        <ele>169</ele>
        <time>2017-03-29T11:16:54Z</time>
      </trkpt>
      <trkpt lat="45.92534" lon="4.73011">
        <ele>169</ele>
        <time>2017-03-29T11:16:55Z</time>
      </trkpt>
      <trkpt lat="45.92529" lon="4.73014">
        <ele>169</ele>
        <time>2017-03-29T11:16:56Z</time>
      </trkpt>
      <trkpt lat="45.92525" lon="4.73019">
        <ele>169</ele>
        <time>2017-03-29T11:16:57Z</time>
      </trkpt>
      <trkpt lat="45.9252" lon="4.73023">
        <ele>169</ele>
        <time>2017-03-29T11:16:58Z</time>
      </trkpt>
      <trkpt lat="45.92516" lon="4.73027">
        <ele>169</ele>
        <time>2017-03-29T11:16:59Z</time>
      </trkpt>
      <trkpt lat="45.92511" lon="4.73032">
        <ele>169</ele>
        <time>2017-03-29T11:17:00Z</time>
      </trkpt>
      <trkpt lat="45.92507" lon="4.73036">
        <ele>169</ele>
        <time>2017-03-29T11:17:01Z</time>
      </trkpt>
      <trkpt lat="45.92503" lon="4.73039">
        <ele>169</ele>
        <time>2017-03-29T11:17:02Z</time>
      </trkpt>
      <trkpt lat="45.92499" lon="4.73043">
        <ele>170</ele>
        <time>2017-03-29T11:17:03Z</time>
      </trkpt>
      <trkpt lat="45.92495" lon="4.73047">
        <ele>170</ele>
        <time>2017-03-29T11:17:04Z</time>
      </trkpt>
      <trkpt lat="45.92491" lon="4.73051">
        <ele>170</ele>
        <time>2017-03-29T11:17:05Z</time>
      </trkpt>
      <trkpt lat="45.92487" lon="4.73054">
        <ele>170</ele>
        <time>2017-03-29T11:17:06Z</time>
      </trkpt>
      <trkpt lat="45.92483" lon="4.73058">
        <ele>170</ele>
        <time>2017-03-29T11:17:07Z</time>
      </trkpt>
      <trkpt lat="45.92479" lon="4.73062">
        <ele>170</ele>
        <time>2017-03-29T11:17:08Z</time>
      </trkpt>
      <trkpt lat="45.92475" lon="4.73066">
        <ele>170</ele>
        <time>2017-03-29T11:17:09Z</time>
      </trkpt>
      <trkpt lat="45.9247" lon="4.7307">
        <ele>170</ele>
        <time>2017-03-29T11:17:10Z</time>
      </trkpt>
      <trkpt lat="45.92465" lon="4.73074">
        <ele>170</ele>
        <time>2017-03-29T11:17:11Z</time>
      </trkpt>
      <trkpt lat="45.9246" lon="4.73078">
        <ele>170</ele>
        <time>2017-03-29T11:17:12Z</time>
      </trkpt>
      <trkpt lat="45.92455" lon="4.73082">
        <ele>170</ele>
        <time>2017-03-29T11:17:13Z</time>
      </trkpt>
      <trkpt lat="45.92451" lon="4.73086">
        <ele>170</ele>
        <time>2017-03-29T11:17:14Z</time>
      </trkpt>
      <trkpt lat="45.92446" lon="4.7309">
        <ele>170</ele>
        <time>2017-03-29T11:17:15Z</time>
      </trkpt>
      <trkpt lat="45.92442" lon="4.73094">
        <ele>170</ele>
        <time>2017-03-29T11:17:16Z</time>
      </trkpt>
      <trkpt lat="45.92438" lon="4.73098">
        <ele>170</ele>
        <time>2017-03-29T11:17:17Z</time>
      </trkpt>
      <trkpt lat="45.92434" lon="4.73102">
        <ele>170</ele>
        <time>2017-03-29T11:17:18Z</time>
      </trkpt>
      <trkpt lat="45.9243" lon="4.73106">
        <ele>170</ele>
        <time>2017-03-29T11:17:19Z</time>
      </trkpt>
      <trkpt lat="45.92426" lon="4.73109">
        <ele>170</ele>
        <time>2017-03-29T11:17:20Z</time>
      </trkpt>
      <trkpt lat="45.92422" lon="4.73113">
        <ele>170</ele>
        <time>2017-03-29T11:17:21Z</time>
      </trkpt>
      <trkpt lat="45.92418" lon="4.73117">
        <ele>170</ele>
        <time>2017-03-29T11:17:22Z</time>
      </trkpt>
      <trkpt lat="45.92411" lon="4.73125">
        <ele>171</ele>
        <time>2017-03-29T11:17:24Z</time>
      </trkpt>
      <trkpt lat="45.92409" lon="4.73131">
        <ele>171</ele>
        <time>2017-03-29T11:17:25Z</time>
      </trkpt>
      <trkpt lat="45.92407" lon="4.73143">
        <ele>171</ele>
        <time>2017-03-29T11:17:27Z</time>
      </trkpt>
      <trkpt lat="45.92407" lon="4.73149">
        <ele>171</ele>
        <time>2017-03-29T11:17:28Z</time>
      </trkpt>
      <trkpt lat="45.92407" lon="4.73161">
        <ele>170</ele>
        <time>2017-03-29T11:17:30Z</time>
      </trkpt>
      <trkpt lat="45.92406" lon="4.73167">
        <ele>170</ele>
        <time>2017-03-29T11:17:31Z</time>
      </trkpt>
      <trkpt lat="45.92407" lon="4.73174">
        <ele>170</ele>
        <time>2017-03-29T11:17:32Z</time>
      </trkpt>
      <trkpt lat="45.92407" lon="4.7318">
        <ele>171</ele>
        <time>2017-03-29T11:17:33Z</time>
      </trkpt>
      <trkpt lat="45.92407" lon="4.73187">
        <ele>171</ele>
        <time>2017-03-29T11:17:34Z</time>
      </trkpt>
      <trkpt lat="45.92407" lon="4.73194">
        <ele>171</ele>
        <time>2017-03-29T11:17:35Z</time>
      </trkpt>
      <trkpt lat="45.92408" lon="4.73202">
        <ele>171</ele>
        <time>2017-03-29T11:17:36Z</time>
      </trkpt>
      <trkpt lat="45.92408" lon="4.73209">
        <ele>171</ele>
        <time>2017-03-29T11:17:37Z</time>
      </trkpt>
      <trkpt lat="45.92409" lon="4.73216">
        <ele>171</ele>
        <time>2017-03-29T11:17:38Z</time>
      </trkpt>
      <trkpt lat="45.92409" lon="4.73223">
        <ele>171</ele>
        <time>2017-03-29T11:17:39Z</time>
      </trkpt>
      <trkpt lat="45.92409" lon="4.73236">
        <ele>171</ele>
        <time>2017-03-29T11:17:41Z</time>
      </trkpt>
      <trkpt lat="45.9241" lon="4.73241">
        <ele>171</ele>
        <time>2017-03-29T11:17:42Z</time>
      </trkpt>
      <trkpt lat="45.92411" lon="4.73253">
        <ele>171</ele>
        <time>2017-03-29T11:17:44Z</time>
      </trkpt>
      <trkpt lat="45.92411" lon="4.73258">
        <ele>171</ele>
        <time>2017-03-29T11:17:45Z</time>
      </trkpt>
      <trkpt lat="45.92411" lon="4.7327">
        <ele>171</ele>
        <time>2017-03-29T11:17:47Z</time>
      </trkpt>
      <trkpt lat="45.92411" lon="4.73277">
        <ele>171</ele>
        <time>2017-03-29T11:17:48Z</time>
      </trkpt>
      <trkpt lat="45.92412" lon="4.73283">
        <ele>171</ele>
        <time>2017-03-29T11:17:49Z</time>
      </trkpt>
      <trkpt lat="45.92413" lon="4.7329">
        <ele>171</ele>
        <time>2017-03-29T11:17:50Z</time>
      </trkpt>
      <trkpt lat="45.92414" lon="4.73297">
        <ele>171</ele>
        <time>2017-03-29T11:17:51Z</time>
      </trkpt>
      <trkpt lat="45.92414" lon="4.73303">
        <ele>171</ele>
        <time>2017-03-29T11:17:52Z</time>
      </trkpt>
      <trkpt lat="45.92415" lon="4.7331">
        <ele>171</ele>
        <time>2017-03-29T11:17:53Z</time>
      </trkpt>
      <trkpt lat="45.92415" lon="4.73316">
        <ele>171</ele>
        <time>2017-03-29T11:17:54Z</time>
      </trkpt>
      <trkpt lat="45.92416" lon="4.73328">
        <ele>171</ele>
        <time>2017-03-29T11:17:56Z</time>
      </trkpt>
      <trkpt lat="45.92416" lon="4.73333">
        <ele>171</ele>
        <time>2017-03-29T11:17:57Z</time>
      </trkpt>
      <trkpt lat="45.9242" lon="4.73344">
        <ele>171</ele>
        <time>2017-03-29T11:18:00Z</time>
      </trkpt>
      <trkpt lat="45.92422" lon="4.73344">
        <ele>171</ele>
        <time>2017-03-29T11:18:01Z</time>
      </trkpt>
      <trkpt lat="45.92428" lon="4.73335">
        <ele>171</ele>
        <time>2017-03-29T11:18:06Z</time>
      </trkpt>
      <trkpt lat="45.92431" lon="4.73335">
        <ele>171</ele>
        <time>2017-03-29T11:18:07Z</time>
      </trkpt>
      <trkpt lat="45.92438" lon="4.7333">
        <ele>171</ele>
        <time>2017-03-29T11:18:10Z</time>
      </trkpt>
      <trkpt lat="45.9244" lon="4.73328">
        <ele>171</ele>
        <time>2017-03-29T11:18:11Z</time>
      </trkpt>
      <trkpt lat="45.92446" lon="4.73325">
        <ele>171</ele>
        <time>2017-03-29T11:18:13Z</time>
      </trkpt>
      <trkpt lat="45.92449" lon="4.73323">
        <ele>171</ele>
        <time>2017-03-29T11:18:14Z</time>
      </trkpt>
      <trkpt lat="45.92456" lon="4.73318">
        <ele>171</ele>
        <time>2017-03-29T11:18:17Z</time>
      </trkpt>
      <trkpt lat="45.92458" lon="4.73317">
        <ele>171</ele>
        <time>2017-03-29T11:18:18Z</time>
      </trkpt>
      <trkpt lat="45.92466" lon="4.73314">
        <ele>171</ele>
        <time>2017-03-29T11:18:22Z</time>
      </trkpt>
      <trkpt lat="45.92467" lon="4.73313">
        <ele>171</ele>
        <time>2017-03-29T11:18:23Z</time>
      </trkpt>
      <trkpt lat="45.92474" lon="4.73309">
        <ele>171</ele>
        <time>2017-03-29T11:18:28Z</time>
      </trkpt>
      <trkpt lat="45.92476" lon="4.73308">
        <ele>171</ele>
        <time>2017-03-29T11:18:29Z</time>
      </trkpt>
      <trkpt lat="45.92484" lon="4.73303">
        <ele>171</ele>
        <time>2017-03-29T11:18:33Z</time>
      </trkpt>
      <trkpt lat="45.92486" lon="4.73302">
        <ele>171</ele>
        <time>2017-03-29T11:18:34Z</time>
      </trkpt>
      <trkpt lat="45.92493" lon="4.73298">
        <ele>171</ele>
        <time>2017-03-29T11:18:37Z</time>
      </trkpt>
      <trkpt lat="45.92495" lon="4.73297">
        <ele>171</ele>
        <time>2017-03-29T11:18:38Z</time>
      </trkpt>
      <trkpt lat="45.92503" lon="4.73293">
        <ele>171</ele>
        <time>2017-03-29T11:18:42Z</time>
      </trkpt>
      <trkpt lat="45.92504" lon="4.73292">
        <ele>171</ele>
        <time>2017-03-29T11:18:43Z</time>
      </trkpt>
      <trkpt lat="45.92495" lon="4.73294">
        <ele>171</ele>
        <time>2017-03-29T11:19:15Z</time>
      </trkpt>
      <trkpt lat="45.92493" lon="4.73296">
        <ele>171</ele>
        <time>2017-03-29T11:19:16Z</time>
      </trkpt>
      <trkpt lat="45.92485" lon="4.733">
        <ele>171</ele>
        <time>2017-03-29T11:19:19Z</time>
      </trkpt>
      <trkpt lat="45.92482" lon="4.73301">
        <ele>171</ele>
        <time>2017-03-29T11:19:20Z</time>
      </trkpt>
      <trkpt lat="45.92475" lon="4.73304">
        <ele>171</ele>
        <time>2017-03-29T11:19:22Z</time>
      </trkpt>
      <trkpt lat="45.92472" lon="4.73306">
        <ele>171</ele>
        <time>2017-03-29T11:19:23Z</time>
      </trkpt>
      <trkpt lat="45.92466" lon="4.73309">
        <ele>171</ele>
        <time>2017-03-29T11:19:25Z</time>
      </trkpt>
      <trkpt lat="45.92463" lon="4.7331">
        <ele>171</ele>
        <time>2017-03-29T11:19:26Z</time>
      </trkpt>
      <trkpt lat="45.92457" lon="4.73314">
        <ele>171</ele>
        <time>2017-03-29T11:19:28Z</time>
      </trkpt>
      <trkpt lat="45.92454" lon="4.73317">
        <ele>171</ele>
        <time>2017-03-29T11:19:29Z</time>
      </trkpt>
      <trkpt lat="45.92447" lon="4.73323">
        <ele>171</ele>
        <time>2017-03-29T11:19:31Z</time>
      </trkpt>
      <trkpt lat="45.92443" lon="4.73325">
        <ele>171</ele>
        <time>2017-03-29T11:19:32Z</time>
      </trkpt>
      <trkpt lat="45.92436" lon="4.73329">
        <ele>171</ele>
        <time>2017-03-29T11:19:34Z</time>
      </trkpt>
      <trkpt lat="45.92433" lon="4.7333">
        <ele>171</ele>
        <time>2017-03-29T11:19:35Z</time>
      </trkpt>
      <trkpt lat="45.92427" lon="4.73335">
        <ele>171</ele>
        <time>2017-03-29T11:19:37Z</time>
      </trkpt>
      <trkpt lat="45.92424" lon="4.73337">
        <ele>171</ele>
        <time>2017-03-29T11:19:38Z</time>
      </trkpt>
      <trkpt lat="45.92419" lon="4.73343">
        <ele>171</ele>
        <time>2017-03-29T11:19:40Z</time>
      </trkpt>
      <trkpt lat="45.92418" lon="4.73348">
        <ele>171</ele>
        <time>2017-03-29T11:19:41Z</time>
      </trkpt>
      <trkpt lat="45.92418" lon="4.7336">
        <ele>171</ele>
        <time>2017-03-29T11:19:43Z</time>
      </trkpt>
      <trkpt lat="45.92419" lon="4.73366">
        <ele>172</ele>
        <time>2017-03-29T11:19:44Z</time>
      </trkpt>
      <trkpt lat="45.92421" lon="4.73378">
        <ele>172</ele>
        <time>2017-03-29T11:19:46Z</time>
      </trkpt>
      <trkpt lat="45.92422" lon="4.73383">
        <ele>172</ele>
        <time>2017-03-29T11:19:47Z</time>
      </trkpt>
      <trkpt lat="45.92423" lon="4.73393">
        <ele>172</ele>
        <time>2017-03-29T11:19:49Z</time>
      </trkpt>
      <trkpt lat="45.92424" lon="4.73397">
        <ele>172</ele>
        <time>2017-03-29T11:19:50Z</time>
      </trkpt>
      <trkpt lat="45.92427" lon="4.73405">
        <ele>172</ele>
        <time>2017-03-29T11:19:52Z</time>
      </trkpt>
      <trkpt lat="45.92428" lon="4.73408">
        <ele>172</ele>
        <time>2017-03-29T11:19:53Z</time>
      </trkpt>
      <trkpt lat="45.92433" lon="4.73415">
        <ele>172</ele>
        <time>2017-03-29T11:19:55Z</time>
      </trkpt>
      <trkpt lat="45.92436" lon="4.73417">
        <ele>173</ele>
        <time>2017-03-29T11:19:56Z</time>
      </trkpt>
      <trkpt lat="45.92442" lon="4.73421">
        <ele>173</ele>
        <time>2017-03-29T11:19:58Z</time>
      </trkpt>
      <trkpt lat="45.92445" lon="4.73423">
        <ele>173</ele>
        <time>2017-03-29T11:19:59Z</time>
      </trkpt>
      <trkpt lat="45.92451" lon="4.73429">
        <ele>173</ele>
        <time>2017-03-29T11:20:01Z</time>
      </trkpt>
      <trkpt lat="45.92454" lon="4.73433">
        <ele>173</ele>
        <time>2017-03-29T11:20:02Z</time>
      </trkpt>
      <trkpt lat="45.92459" lon="4.7344">
        <ele>173</ele>
        <time>2017-03-29T11:20:04Z</time>
      </trkpt>
      <trkpt lat="45.92461" lon="4.73445">
        <ele>173</ele>
        <time>2017-03-29T11:20:05Z</time>
      </trkpt>
      <trkpt lat="45.92464" lon="4.73453">
        <ele>173</ele>
        <time>2017-03-29T11:20:07Z</time>
      </trkpt>
      <trkpt lat="45.92465" lon="4.73458">
        <ele>173</ele>
        <time>2017-03-29T11:20:08Z</time>
      </trkpt>
      <trkpt lat="45.92466" lon="4.7347">
        <ele>173</ele>
        <time>2017-03-29T11:20:11Z</time>
      </trkpt>
      <trkpt lat="45.92466" lon="4.73475">
        <ele>173</ele>
        <time>2017-03-29T11:20:12Z</time>
      </trkpt>
      <trkpt lat="45.92465" lon="4.73483">
        <ele>173</ele>
        <time>2017-03-29T11:20:14Z</time>
      </trkpt>
      <trkpt lat="45.92465" lon="4.73488">
        <ele>173</ele>
        <time>2017-03-29T11:20:15Z</time>
      </trkpt>
      <trkpt lat="45.92465" lon="4.735">
        <ele>174</ele>
        <time>2017-03-29T11:20:17Z</time>
      </trkpt>
      <trkpt lat="45.92465" lon="4.73507">
        <ele>174</ele>
        <time>2017-03-29T11:20:18Z</time>
      </trkpt>
      <trkpt lat="45.92465" lon="4.73518">
        <ele>174</ele>
        <time>2017-03-29T11:20:20Z</time>
      </trkpt>
      <trkpt lat="45.92464" lon="4.73523">
        <ele>174</ele>
        <time>2017-03-29T11:20:21Z</time>
      </trkpt>
      <trkpt lat="45.92463" lon="4.73534">
        <ele>174</ele>
        <time>2017-03-29T11:20:23Z</time>
      </trkpt>
      <trkpt lat="45.9246" lon="4.73538">
        <ele>174</ele>
        <time>2017-03-29T11:20:24Z</time>
      </trkpt>
      <trkpt lat="45.92452" lon="4.73543">
        <ele>174</ele>
        <time>2017-03-29T11:20:26Z</time>
      </trkpt>
      <trkpt lat="45.92448" lon="4.73544">
        <ele>174</ele>
        <time>2017-03-29T11:20:27Z</time>
      </trkpt>
      <trkpt lat="45.92441" lon="4.73548">
        <ele>174</ele>
        <time>2017-03-29T11:20:29Z</time>
      </trkpt>
      <trkpt lat="45.92436" lon="4.7355">
        <ele>174</ele>
        <time>2017-03-29T11:20:30Z</time>
      </trkpt>
      <trkpt lat="45.92432" lon="4.73552">
        <ele>174</ele>
        <time>2017-03-29T11:20:31Z</time>
      </trkpt>
      <trkpt lat="45.92428" lon="4.73554">
        <ele>174</ele>
        <time>2017-03-29T11:20:32Z</time>
      </trkpt>
      <trkpt lat="45.9242" lon="4.73559">
        <ele>174</ele>
        <time>2017-03-29T11:20:34Z</time>
      </trkpt>
      <trkpt lat="45.92416" lon="4.73562">
        <ele>173</ele>
        <time>2017-03-29T11:20:35Z</time>
      </trkpt>
      <trkpt lat="45.92411" lon="4.73564">
        <ele>173</ele>
        <time>2017-03-29T11:20:36Z</time>
      </trkpt>
      <trkpt lat="45.92407" lon="4.73567">
        <ele>173</ele>
        <time>2017-03-29T11:20:37Z</time>
      </trkpt>
      <trkpt lat="45.92402" lon="4.73569">
        <ele>173</ele>
        <time>2017-03-29T11:20:38Z</time>
      </trkpt>
      <trkpt lat="45.92398" lon="4.73571">
        <ele>173</ele>
        <time>2017-03-29T11:20:39Z</time>
      </trkpt>
      <trkpt lat="45.92393" lon="4.73574">
        <ele>173</ele>
        <time>2017-03-29T11:20:40Z</time>
      </trkpt>
      <trkpt lat="45.92388" lon="4.73576">
        <ele>173</ele>
        <time>2017-03-29T11:20:41Z</time>
      </trkpt>
      <trkpt lat="45.92384" lon="4.73579">
        <ele>173</ele>
        <time>2017-03-29T11:20:42Z</time>
      </trkpt>
      <trkpt lat="45.92379" lon="4.73581">
        <ele>173</ele>
        <time>2017-03-29T11:20:43Z</time>
      </trkpt>
      <trkpt lat="45.92375" lon="4.73583">
        <ele>173</ele>
        <time>2017-03-29T11:20:44Z</time>
      </trkpt>
      <trkpt lat="45.9237" lon="4.73586">
        <ele>173</ele>
        <time>2017-03-29T11:20:45Z</time>
      </trkpt>
      <trkpt lat="45.92362" lon="4.73592">
        <ele>173</ele>
        <time>2017-03-29T11:20:47Z</time>
      </trkpt>
      <trkpt lat="45.92359" lon="4.73595">
        <ele>173</ele>
        <time>2017-03-29T11:20:48Z</time>
      </trkpt>
      <trkpt lat="45.92354" lon="4.73606">
        <ele>173</ele>
        <time>2017-03-29T11:20:50Z</time>
      </trkpt>
      <trkpt lat="45.92353" lon="4.73613">
        <ele>173</ele>
        <time>2017-03-29T11:20:51Z</time>
      </trkpt>
      <trkpt lat="45.92353" lon="4.7362">
        <ele>173</ele>
        <time>2017-03-29T11:20:52Z</time>
      </trkpt>
      <trkpt lat="45.92353" lon="4.73629">
        <ele>173</ele>
        <time>2017-03-29T11:20:53Z</time>
      </trkpt>
      <trkpt lat="45.92353" lon="4.73637">
        <ele>173</ele>
        <time>2017-03-29T11:20:54Z</time>
      </trkpt>
      <trkpt lat="45.92353" lon="4.73646">
        <ele>173</ele>
        <time>2017-03-29T11:20:55Z</time>
      </trkpt>
      <trkpt lat="45.92353" lon="4.73653">
        <ele>173</ele>
        <time>2017-03-29T11:20:56Z</time>
      </trkpt>
      <trkpt lat="45.92353" lon="4.73661">
        <ele>173</ele>
        <time>2017-03-29T11:20:57Z</time>
      </trkpt>
      <trkpt lat="45.92353" lon="4.73668">
        <ele>173</ele>
        <time>2017-03-29T11:20:58Z</time>
      </trkpt>
      <trkpt lat="45.92353" lon="4.73675">
        <ele>173</ele>
        <time>2017-03-29T11:20:59Z</time>
      </trkpt>
      <trkpt lat="45.92354" lon="4.73687">
        <ele>173</ele>
        <time>2017-03-29T11:21:01Z</time>
      </trkpt>
      <trkpt lat="45.92355" lon="4.73694">
        <ele>173</ele>
        <time>2017-03-29T11:21:02Z</time>
      </trkpt>
      <trkpt lat="45.92356" lon="4.73701">
        <ele>173</ele>
        <time>2017-03-29T11:21:03Z</time>
      </trkpt>
      <trkpt lat="45.92357" lon="4.73708">
        <ele>173</ele>
        <time>2017-03-29T11:21:04Z</time>
      </trkpt>
      <trkpt lat="45.92359" lon="4.73715">
        <ele>173</ele>
        <time>2017-03-29T11:21:05Z</time>
      </trkpt>
      <trkpt lat="45.92361" lon="4.73722">
        <ele>173</ele>
        <time>2017-03-29T11:21:06Z</time>
      </trkpt>
      <trkpt lat="45.92362" lon="4.73729">
        <ele>173</ele>
        <time>2017-03-29T11:21:07Z</time>
      </trkpt>
      <trkpt lat="45.92364" lon="4.73735">
        <ele>173</ele>
        <time>2017-03-29T11:21:08Z</time>
      </trkpt>
      <trkpt lat="45.92365" lon="4.73741">
        <ele>173</ele>
        <time>2017-03-29T11:21:09Z</time>
      </trkpt>
      <trkpt lat="45.92367" lon="4.73748">
        <ele>173</ele>
        <time>2017-03-29T11:21:10Z</time>
      </trkpt>
      <trkpt lat="45.92368" lon="4.73754">
        <ele>173</ele>
        <time>2017-03-29T11:21:11Z</time>
      </trkpt>
      <trkpt lat="45.92369" lon="4.73761">
        <ele>173</ele>
        <time>2017-03-29T11:21:12Z</time>
      </trkpt>
      <trkpt lat="45.92369" lon="4.73768">
        <ele>173</ele>
        <time>2017-03-29T11:21:13Z</time>
      </trkpt>
      <trkpt lat="45.92369" lon="4.73775">
        <ele>173</ele>
        <time>2017-03-29T11:21:14Z</time>
      </trkpt>
      <trkpt lat="45.92369" lon="4.73783">
        <ele>173</ele>
        <time>2017-03-29T11:21:15Z</time>
      </trkpt>
      <trkpt lat="45.92369" lon="4.73792">
        <ele>172</ele>
        <time>2017-03-29T11:21:16Z</time>
      </trkpt>
      <trkpt lat="45.92368" lon="4.738">
        <ele>172</ele>
        <time>2017-03-29T11:21:17Z</time>
      </trkpt>
      <trkpt lat="45.92368" lon="4.73808">
        <ele>172</ele>
        <time>2017-03-29T11:21:18Z</time>
      </trkpt>
      <trkpt lat="45.92368" lon="4.73814">
        <ele>172</ele>
        <time>2017-03-29T11:21:19Z</time>
      </trkpt>
      <trkpt lat="45.92367" lon="4.73821">
        <ele>172</ele>
        <time>2017-03-29T11:21:20Z</time>
      </trkpt>
      <trkpt lat="45.92367" lon="4.73828">
        <ele>172</ele>
        <time>2017-03-29T11:21:21Z</time>
      </trkpt>
      <trkpt lat="45.92366" lon="4.73835">
        <ele>172</ele>
        <time>2017-03-29T11:21:22Z</time>
      </trkpt>
      <trkpt lat="45.92366" lon="4.73841">
        <ele>172</ele>
        <time>2017-03-29T11:21:23Z</time>
      </trkpt>
      <trkpt lat="45.92365" lon="4.73848">
        <ele>172</ele>
        <time>2017-03-29T11:21:24Z</time>
      </trkpt>
      <trkpt lat="45.92365" lon="4.73855">
        <ele>172</ele>
        <time>2017-03-29T11:21:25Z</time>
      </trkpt>
      <trkpt lat="45.92364" lon="4.73861">
        <ele>172</ele>
        <time>2017-03-29T11:21:26Z</time>
      </trkpt>
      <trkpt lat="45.92362" lon="4.73874">
        <ele>172</ele>
        <time>2017-03-29T11:21:28Z</time>
      </trkpt>
      <trkpt lat="45.92362" lon="4.7388">
        <ele>172</ele>
        <time>2017-03-29T11:21:29Z</time>
      </trkpt>
      <trkpt lat="45.92362" lon="4.73892">
        <ele>172</ele>
        <time>2017-03-29T11:21:31Z</time>
      </trkpt>
      <trkpt lat="45.92361" lon="4.73898">
        <ele>172</ele>
        <time>2017-03-29T11:21:32Z</time>
      </trkpt>
      <trkpt lat="45.9236" lon="4.7391">
        <ele>172</ele>
        <time>2017-03-29T11:21:34Z</time>
      </trkpt>
      <trkpt lat="45.9236" lon="4.73916">
        <ele>172</ele>
        <time>2017-03-29T11:21:35Z</time>
      </trkpt>
      <trkpt lat="45.92364" lon="4.73928">
        <ele>172</ele>
        <time>2017-03-29T11:21:37Z</time>
      </trkpt>
      <trkpt lat="45.92367" lon="4.73932">
        <ele>172</ele>
        <time>2017-03-29T11:21:38Z</time>
      </trkpt>
      <trkpt lat="45.92375" lon="4.73936">
        <ele>172</ele>
        <time>2017-03-29T11:21:40Z</time>
      </trkpt>
      <trkpt lat="45.9238" lon="4.73938">
        <ele>172</ele>
        <time>2017-03-29T11:21:41Z</time>
      </trkpt>
      <trkpt lat="45.92385" lon="4.73939">
        <ele>172</ele>
        <time>2017-03-29T11:21:42Z</time>
      </trkpt>
      <trkpt lat="45.92389" lon="4.73941">
        <ele>172</ele>
        <time>2017-03-29T11:21:43Z</time>
      </trkpt>
      <trkpt lat="45.92394" lon="4.73943">
        <ele>172</ele>
        <time>2017-03-29T11:21:44Z</time>
      </trkpt>
      <trkpt lat="45.92399" lon="4.73944">
        <ele>172</ele>
        <time>2017-03-29T11:21:45Z</time>
      </trkpt>
      <trkpt lat="45.92407" lon="4.73945">
        <ele>172</ele>
        <time>2017-03-29T11:21:47Z</time>
      </trkpt>
      <trkpt lat="45.92411" lon="4.73946">
        <ele>172</ele>
        <time>2017-03-29T11:21:48Z</time>
      </trkpt>
      <trkpt lat="45.92419" lon="4.73948">
        <ele>172</ele>
        <time>2017-03-29T11:21:50Z</time>
      </trkpt>
      <trkpt lat="45.92423" lon="4.73948">
        <ele>172</ele>
        <time>2017-03-29T11:21:51Z</time>
      </trkpt>
      <trkpt lat="45.92431" lon="4.73949">
        <ele>172</ele>
        <time>2017-03-29T11:21:53Z</time>
      </trkpt>
      <trkpt lat="45.92435" lon="4.73949">
        <ele>172</ele>
        <time>2017-03-29T11:21:54Z</time>
      </trkpt>
      <trkpt lat="45.92444" lon="4.7395">
        <ele>172</ele>
        <time>2017-03-29T11:21:56Z</time>
      </trkpt>
      <trkpt lat="45.92448" lon="4.7395">
        <ele>172</ele>
        <time>2017-03-29T11:21:57Z</time>
      </trkpt>
      <trkpt lat="45.92454" lon="4.73944">
        <ele>172</ele>
        <time>2017-03-29T11:21:59Z</time>
      </trkpt>
      <trkpt lat="45.92457" lon="4.73939">
        <ele>172</ele>
        <time>2017-03-29T11:22:00Z</time>
      </trkpt>
      <trkpt lat="45.92458" lon="4.73929">
        <ele>172</ele>
        <time>2017-03-29T11:22:02Z</time>
      </trkpt>
      <trkpt lat="45.92459" lon="4.73923">
        <ele>172</ele>
        <time>2017-03-29T11:22:03Z</time>
      </trkpt>
      <trkpt lat="45.9246" lon="4.73916">
        <ele>172</ele>
        <time>2017-03-29T11:22:04Z</time>
      </trkpt>
      <trkpt lat="45.9246" lon="4.73909">
        <ele>171</ele>
        <time>2017-03-29T11:22:05Z</time>
      </trkpt>
      <trkpt lat="45.9246" lon="4.73902">
        <ele>171</ele>
        <time>2017-03-29T11:22:06Z</time>
      </trkpt>
      <trkpt lat="45.9246" lon="4.73895">
        <ele>171</ele>
        <time>2017-03-29T11:22:07Z</time>
      </trkpt>
      <trkpt lat="45.9246" lon="4.73888">
        <ele>171</ele>
        <time>2017-03-29T11:22:08Z</time>
      </trkpt>
      <trkpt lat="45.9246" lon="4.73881">
        <ele>171</ele>
        <time>2017-03-29T11:22:09Z</time>
      </trkpt>
      <trkpt lat="45.92459" lon="4.73868">
        <ele>171</ele>
        <time>2017-03-29T11:22:11Z</time>
      </trkpt>
      <trkpt lat="45.92459" lon="4.73862">
        <ele>171</ele>
        <time>2017-03-29T11:22:12Z</time>
      </trkpt>
      <trkpt lat="45.92459" lon="4.73851">
        <ele>171</ele>
        <time>2017-03-29T11:22:14Z</time>
      </trkpt>
      <trkpt lat="45.9246" lon="4.73846">
        <ele>171</ele>
        <time>2017-03-29T11:22:15Z</time>
      </trkpt>
      <trkpt lat="45.92461" lon="4.73833">
        <ele>172</ele>
        <time>2017-03-29T11:22:17Z</time>
      </trkpt>
      <trkpt lat="45.9246" lon="4.73828">
        <ele>172</ele>
        <time>2017-03-29T11:22:18Z</time>
      </trkpt>
      <trkpt lat="45.92461" lon="4.73816">
        <ele>172</ele>
        <time>2017-03-29T11:22:20Z</time>
      </trkpt>
      <trkpt lat="45.92461" lon="4.7381">
        <ele>172</ele>
        <time>2017-03-29T11:22:21Z</time>
      </trkpt>
      <trkpt lat="45.92462" lon="4.73799">
        <ele>172</ele>
        <time>2017-03-29T11:22:23Z</time>
      </trkpt>
      <trkpt lat="45.92462" lon="4.73794">
        <ele>172</ele>
        <time>2017-03-29T11:22:24Z</time>
      </trkpt>
      <trkpt lat="45.92462" lon="4.73784">
        <ele>172</ele>
        <time>2017-03-29T11:22:26Z</time>
      </trkpt>
      <trkpt lat="45.92463" lon="4.73779">
        <ele>172</ele>
        <time>2017-03-29T11:22:27Z</time>
      </trkpt>
      <trkpt lat="45.92461" lon="4.73767">
        <ele>173</ele>
        <time>2017-03-29T11:22:30Z</time>
      </trkpt>
      <trkpt lat="45.92461" lon="4.73763">
        <ele>173</ele>
        <time>2017-03-29T11:22:31Z</time>
      </trkpt>
      <trkpt lat="45.9246" lon="4.73752">
        <ele>173</ele>
        <time>2017-03-29T11:22:34Z</time>
      </trkpt>
      <trkpt lat="45.9246" lon="4.73749">
        <ele>174</ele>
        <time>2017-03-29T11:22:35Z</time>
      </trkpt>
      <trkpt lat="45.92461" lon="4.73736">
        <ele>174</ele>
        <time>2017-03-29T11:22:38Z</time>
      </trkpt>
      <trkpt lat="45.92462" lon="4.73732">
        <ele>174</ele>
        <time>2017-03-29T11:22:39Z</time>
      </trkpt>
      <trkpt lat="45.92461" lon="4.73719">
        <ele>174</ele>
        <time>2017-03-29T11:22:43Z</time>
      </trkpt>
      <trkpt lat="45.9246" lon="4.73718">
        <ele>174</ele>
        <time>2017-03-29T11:22:44Z</time>
      </trkpt>
      <trkpt lat="45.9246" lon="4.73718">
        <ele>174</ele>
        <time>2017-03-29T11:22:52Z</time>
      </trkpt>
      <trkpt lat="45.92459" lon="4.73717">
        <ele>174</ele>
        <time>2017-03-29T11:22:53Z</time>
      </trkpt>
      <trkpt lat="45.92458" lon="4.73716">
        <ele>174</ele>
        <time>2017-03-29T11:23:19.382Z</time>
      </trkpt>
    </trkseg>
  </trk>
</gpx>